<?xml version="1.0" encoding="UTF-8" standalone="no" ?>
<gpx xmlns="http://www.topografix.com/GPX/1/1" xmlns:xsi="http://www.w3.org/2001/XMLSchema-instance" xsi:schemaLocation="http://www.topografix.com/GPX/1/1 http://www.topografix.com/GPX/1/1/gpx.xsd" version="1.1" creator="VisuGPX - https://www.visugpx.com">
  <metadata>
    <name>Itinérance VTT Jour6</name>
    <desc><![CDATA[Randonnée VTT itinérante en 6 jours]]></desc>
  </metadata>
  <trk>
    <name><![CDATA[VDMJ6]]></name>
    <trkseg>
      <trkpt lat="44.28103" lon="6.35671">
        <ele>1198.5</ele>
        <time>2018-08-10T06:03:48Z</time>
      </trkpt>
      <trkpt lat="44.28106" lon="6.35668">
        <ele>1198.4</ele>
        <time>2018-08-10T06:03:49Z</time>
      </trkpt>
      <trkpt lat="44.28109" lon="6.35662">
        <ele>1198.2</ele>
        <time>2018-08-10T06:03:53Z</time>
      </trkpt>
      <trkpt lat="44.2811" lon="6.3566">
        <ele>1198.2</ele>
        <time>2018-08-10T06:03:54Z</time>
      </trkpt>
      <trkpt lat="44.28111" lon="6.35654">
        <ele>1198.1</ele>
        <time>2018-08-10T06:04:01Z</time>
      </trkpt>
      <trkpt lat="44.2811" lon="6.35651">
        <ele>1198</ele>
        <time>2018-08-10T06:04:05Z</time>
      </trkpt>
      <trkpt lat="44.28108" lon="6.35654">
        <ele>1198</ele>
        <time>2018-08-10T06:04:46Z</time>
      </trkpt>
      <trkpt lat="44.2811" lon="6.35658">
        <ele>1198.2</ele>
        <time>2018-08-10T06:04:53Z</time>
      </trkpt>
      <trkpt lat="44.28111" lon="6.35664">
        <ele>1198.4</ele>
        <time>2018-08-10T06:05:20Z</time>
      </trkpt>
      <trkpt lat="44.28114" lon="6.35668">
        <ele>1198.7</ele>
        <time>2018-08-10T06:05:22Z</time>
      </trkpt>
      <trkpt lat="44.28116" lon="6.35672">
        <ele>1198.9</ele>
        <time>2018-08-10T06:05:23Z</time>
      </trkpt>
      <trkpt lat="44.28118" lon="6.35677">
        <ele>1199.2</ele>
        <time>2018-08-10T06:05:25Z</time>
      </trkpt>
      <trkpt lat="44.28122" lon="6.35682">
        <ele>1199.4</ele>
        <time>2018-08-10T06:05:27Z</time>
      </trkpt>
      <trkpt lat="44.28123" lon="6.35687">
        <ele>1199.6</ele>
        <time>2018-08-10T06:05:29Z</time>
      </trkpt>
      <trkpt lat="44.28126" lon="6.35692">
        <ele>1199.9</ele>
        <time>2018-08-10T06:05:31Z</time>
      </trkpt>
      <trkpt lat="44.2813" lon="6.35696">
        <ele>1200.2</ele>
        <time>2018-08-10T06:05:33Z</time>
      </trkpt>
      <trkpt lat="44.28133" lon="6.35701">
        <ele>1200.4</ele>
        <time>2018-08-10T06:05:35Z</time>
      </trkpt>
      <trkpt lat="44.28135" lon="6.35706">
        <ele>1200.7</ele>
        <time>2018-08-10T06:05:37Z</time>
      </trkpt>
      <trkpt lat="44.2814" lon="6.35711">
        <ele>1201</ele>
        <time>2018-08-10T06:05:39Z</time>
      </trkpt>
      <trkpt lat="44.28144" lon="6.35716">
        <ele>1201.4</ele>
        <time>2018-08-10T06:05:41Z</time>
      </trkpt>
      <trkpt lat="44.28148" lon="6.35719">
        <ele>1201.6</ele>
        <time>2018-08-10T06:05:43Z</time>
      </trkpt>
      <trkpt lat="44.28152" lon="6.35721">
        <ele>1201.9</ele>
        <time>2018-08-10T06:05:45Z</time>
      </trkpt>
      <trkpt lat="44.28157" lon="6.35724">
        <ele>1202.2</ele>
        <time>2018-08-10T06:05:47Z</time>
      </trkpt>
      <trkpt lat="44.28159" lon="6.35724">
        <ele>1202.3</ele>
        <time>2018-08-10T06:05:48Z</time>
      </trkpt>
      <trkpt lat="44.28164" lon="6.35726">
        <ele>1202.6</ele>
        <time>2018-08-10T06:05:50Z</time>
      </trkpt>
      <trkpt lat="44.28168" lon="6.35729">
        <ele>1202.7</ele>
        <time>2018-08-10T06:05:52Z</time>
      </trkpt>
      <trkpt lat="44.28171" lon="6.35731">
        <ele>1202.8</ele>
        <time>2018-08-10T06:05:53Z</time>
      </trkpt>
      <trkpt lat="44.28174" lon="6.35731">
        <ele>1203</ele>
        <time>2018-08-10T06:05:54Z</time>
      </trkpt>
      <trkpt lat="44.28178" lon="6.35731">
        <ele>1203.1</ele>
        <time>2018-08-10T06:05:55Z</time>
      </trkpt>
      <trkpt lat="44.28181" lon="6.3573">
        <ele>1203.2</ele>
        <time>2018-08-10T06:05:56Z</time>
      </trkpt>
      <trkpt lat="44.28185" lon="6.35733">
        <ele>1203.3</ele>
        <time>2018-08-10T06:05:58Z</time>
      </trkpt>
      <trkpt lat="44.28188" lon="6.35735">
        <ele>1203.4</ele>
        <time>2018-08-10T06:05:59Z</time>
      </trkpt>
      <trkpt lat="44.28193" lon="6.35738">
        <ele>1203.6</ele>
        <time>2018-08-10T06:06:01Z</time>
      </trkpt>
      <trkpt lat="44.28197" lon="6.35742">
        <ele>1203.8</ele>
        <time>2018-08-10T06:06:03Z</time>
      </trkpt>
      <trkpt lat="44.282" lon="6.35741">
        <ele>1203.9</ele>
        <time>2018-08-10T06:06:04Z</time>
      </trkpt>
      <trkpt lat="44.28205" lon="6.35743">
        <ele>1204.2</ele>
        <time>2018-08-10T06:06:06Z</time>
      </trkpt>
      <trkpt lat="44.28208" lon="6.35742">
        <ele>1204.4</ele>
        <time>2018-08-10T06:06:07Z</time>
      </trkpt>
      <trkpt lat="44.28211" lon="6.35743">
        <ele>1204.5</ele>
        <time>2018-08-10T06:06:08Z</time>
      </trkpt>
      <trkpt lat="44.28215" lon="6.35747">
        <ele>1204.8</ele>
        <time>2018-08-10T06:06:10Z</time>
      </trkpt>
      <trkpt lat="44.28219" lon="6.3575">
        <ele>1205.1</ele>
        <time>2018-08-10T06:06:12Z</time>
      </trkpt>
      <trkpt lat="44.28225" lon="6.35754">
        <ele>1205.5</ele>
        <time>2018-08-10T06:06:14Z</time>
      </trkpt>
      <trkpt lat="44.28229" lon="6.35758">
        <ele>1205.8</ele>
        <time>2018-08-10T06:06:16Z</time>
      </trkpt>
      <trkpt lat="44.28233" lon="6.35762">
        <ele>1206.1</ele>
        <time>2018-08-10T06:06:18Z</time>
      </trkpt>
      <trkpt lat="44.28236" lon="6.35764">
        <ele>1206.3</ele>
        <time>2018-08-10T06:06:19Z</time>
      </trkpt>
      <trkpt lat="44.28239" lon="6.35766">
        <ele>1206.5</ele>
        <time>2018-08-10T06:06:20Z</time>
      </trkpt>
      <trkpt lat="44.28244" lon="6.35768">
        <ele>1206.8</ele>
        <time>2018-08-10T06:06:22Z</time>
      </trkpt>
      <trkpt lat="44.28249" lon="6.35769">
        <ele>1207.2</ele>
        <time>2018-08-10T06:06:24Z</time>
      </trkpt>
      <trkpt lat="44.28252" lon="6.3577">
        <ele>1207.3</ele>
        <time>2018-08-10T06:06:25Z</time>
      </trkpt>
      <trkpt lat="44.28255" lon="6.35771">
        <ele>1207.5</ele>
        <time>2018-08-10T06:06:26Z</time>
      </trkpt>
      <trkpt lat="44.2826" lon="6.35773">
        <ele>1207.8</ele>
        <time>2018-08-10T06:06:28Z</time>
      </trkpt>
      <trkpt lat="44.28266" lon="6.35774">
        <ele>1208.2</ele>
        <time>2018-08-10T06:06:30Z</time>
      </trkpt>
      <trkpt lat="44.28268" lon="6.35777">
        <ele>1208.4</ele>
        <time>2018-08-10T06:06:31Z</time>
      </trkpt>
      <trkpt lat="44.28271" lon="6.35779">
        <ele>1208.6</ele>
        <time>2018-08-10T06:06:32Z</time>
      </trkpt>
      <trkpt lat="44.28273" lon="6.35781">
        <ele>1208.8</ele>
        <time>2018-08-10T06:06:33Z</time>
      </trkpt>
      <trkpt lat="44.28275" lon="6.35783">
        <ele>1209</ele>
        <time>2018-08-10T06:06:34Z</time>
      </trkpt>
      <trkpt lat="44.28279" lon="6.35787">
        <ele>1209.3</ele>
        <time>2018-08-10T06:06:36Z</time>
      </trkpt>
      <trkpt lat="44.28282" lon="6.35788">
        <ele>1209.6</ele>
        <time>2018-08-10T06:06:37Z</time>
      </trkpt>
      <trkpt lat="44.28285" lon="6.35792">
        <ele>1210</ele>
        <time>2018-08-10T06:06:39Z</time>
      </trkpt>
      <trkpt lat="44.28288" lon="6.35794">
        <ele>1210.2</ele>
        <time>2018-08-10T06:06:40Z</time>
      </trkpt>
      <trkpt lat="44.28292" lon="6.35797">
        <ele>1210.6</ele>
        <time>2018-08-10T06:06:42Z</time>
      </trkpt>
      <trkpt lat="44.28295" lon="6.35801">
        <ele>1211</ele>
        <time>2018-08-10T06:06:44Z</time>
      </trkpt>
      <trkpt lat="44.283" lon="6.35803">
        <ele>1211.5</ele>
        <time>2018-08-10T06:06:46Z</time>
      </trkpt>
      <trkpt lat="44.28302" lon="6.35809">
        <ele>1211.9</ele>
        <time>2018-08-10T06:06:48Z</time>
      </trkpt>
      <trkpt lat="44.28304" lon="6.35813">
        <ele>1212.2</ele>
        <time>2018-08-10T06:07:15Z</time>
      </trkpt>
      <trkpt lat="44.28306" lon="6.35816">
        <ele>1212.5</ele>
        <time>2018-08-10T06:07:23Z</time>
      </trkpt>
      <trkpt lat="44.28307" lon="6.3582">
        <ele>1212.7</ele>
        <time>2018-08-10T06:07:29Z</time>
      </trkpt>
      <trkpt lat="44.28309" lon="6.35823">
        <ele>1213</ele>
        <time>2018-08-10T06:07:31Z</time>
      </trkpt>
      <trkpt lat="44.28311" lon="6.35826">
        <ele>1213.3</ele>
        <time>2018-08-10T06:07:33Z</time>
      </trkpt>
      <trkpt lat="44.28314" lon="6.3583">
        <ele>1213.7</ele>
        <time>2018-08-10T06:07:35Z</time>
      </trkpt>
      <trkpt lat="44.28317" lon="6.35833">
        <ele>1214</ele>
        <time>2018-08-10T06:07:37Z</time>
      </trkpt>
      <trkpt lat="44.2832" lon="6.35835">
        <ele>1214.4</ele>
        <time>2018-08-10T06:07:39Z</time>
      </trkpt>
      <trkpt lat="44.28322" lon="6.35838">
        <ele>1214.7</ele>
        <time>2018-08-10T06:07:41Z</time>
      </trkpt>
      <trkpt lat="44.28326" lon="6.3584">
        <ele>1215.1</ele>
        <time>2018-08-10T06:07:43Z</time>
      </trkpt>
      <trkpt lat="44.2833" lon="6.3584">
        <ele>1215.6</ele>
        <time>2018-08-10T06:07:45Z</time>
      </trkpt>
      <trkpt lat="44.28334" lon="6.3584">
        <ele>1216</ele>
        <time>2018-08-10T06:07:47Z</time>
      </trkpt>
      <trkpt lat="44.28338" lon="6.35839">
        <ele>1216.5</ele>
        <time>2018-08-10T06:07:49Z</time>
      </trkpt>
      <trkpt lat="44.28342" lon="6.3584">
        <ele>1216.9</ele>
        <time>2018-08-10T06:07:51Z</time>
      </trkpt>
      <trkpt lat="44.28345" lon="6.3584">
        <ele>1217.2</ele>
        <time>2018-08-10T06:07:53Z</time>
      </trkpt>
      <trkpt lat="44.28349" lon="6.3584">
        <ele>1217.6</ele>
        <time>2018-08-10T06:07:55Z</time>
      </trkpt>
      <trkpt lat="44.28353" lon="6.3584">
        <ele>1217.9</ele>
        <time>2018-08-10T06:07:57Z</time>
      </trkpt>
      <trkpt lat="44.28355" lon="6.35839">
        <ele>1218.2</ele>
        <time>2018-08-10T06:07:59Z</time>
      </trkpt>
      <trkpt lat="44.28359" lon="6.3584">
        <ele>1218.5</ele>
        <time>2018-08-10T06:08:01Z</time>
      </trkpt>
      <trkpt lat="44.28362" lon="6.35844">
        <ele>1218.9</ele>
        <time>2018-08-10T06:08:04Z</time>
      </trkpt>
      <trkpt lat="44.28364" lon="6.35847">
        <ele>1219.2</ele>
        <time>2018-08-10T06:08:06Z</time>
      </trkpt>
      <trkpt lat="44.28367" lon="6.3585">
        <ele>1219.5</ele>
        <time>2018-08-10T06:08:08Z</time>
      </trkpt>
      <trkpt lat="44.28369" lon="6.35855">
        <ele>1219.8</ele>
        <time>2018-08-10T06:08:11Z</time>
      </trkpt>
      <trkpt lat="44.28371" lon="6.35857">
        <ele>1220.1</ele>
        <time>2018-08-10T06:08:13Z</time>
      </trkpt>
      <trkpt lat="44.28375" lon="6.35861">
        <ele>1220.9</ele>
        <time>2018-08-10T06:08:16Z</time>
      </trkpt>
      <trkpt lat="44.28378" lon="6.35864">
        <ele>1221.5</ele>
        <time>2018-08-10T06:08:18Z</time>
      </trkpt>
      <trkpt lat="44.2838" lon="6.35868">
        <ele>1222.2</ele>
        <time>2018-08-10T06:08:20Z</time>
      </trkpt>
      <trkpt lat="44.28383" lon="6.3587">
        <ele>1222.7</ele>
        <time>2018-08-10T06:08:22Z</time>
      </trkpt>
      <trkpt lat="44.28386" lon="6.35871">
        <ele>1223.3</ele>
        <time>2018-08-10T06:08:24Z</time>
      </trkpt>
      <trkpt lat="44.28389" lon="6.35872">
        <ele>1223.7</ele>
        <time>2018-08-10T06:08:26Z</time>
      </trkpt>
      <trkpt lat="44.28393" lon="6.35872">
        <ele>1224.2</ele>
        <time>2018-08-10T06:08:28Z</time>
      </trkpt>
      <trkpt lat="44.28397" lon="6.35872">
        <ele>1224.8</ele>
        <time>2018-08-10T06:08:30Z</time>
      </trkpt>
      <trkpt lat="44.284" lon="6.35872">
        <ele>1225.2</ele>
        <time>2018-08-10T06:08:32Z</time>
      </trkpt>
      <trkpt lat="44.28403" lon="6.35873">
        <ele>1225.6</ele>
        <time>2018-08-10T06:08:34Z</time>
      </trkpt>
      <trkpt lat="44.28407" lon="6.35871">
        <ele>1226</ele>
        <time>2018-08-10T06:08:36Z</time>
      </trkpt>
      <trkpt lat="44.28409" lon="6.35872">
        <ele>1226.3</ele>
        <time>2018-08-10T06:08:38Z</time>
      </trkpt>
      <trkpt lat="44.28413" lon="6.35871">
        <ele>1226.8</ele>
        <time>2018-08-10T06:08:40Z</time>
      </trkpt>
      <trkpt lat="44.28416" lon="6.35872">
        <ele>1227.1</ele>
        <time>2018-08-10T06:08:42Z</time>
      </trkpt>
      <trkpt lat="44.2842" lon="6.35871">
        <ele>1227.5</ele>
        <time>2018-08-10T06:08:45Z</time>
      </trkpt>
      <trkpt lat="44.28423" lon="6.35871">
        <ele>1227.8</ele>
        <time>2018-08-10T06:08:47Z</time>
      </trkpt>
      <trkpt lat="44.28426" lon="6.35872">
        <ele>1228.2</ele>
        <time>2018-08-10T06:08:50Z</time>
      </trkpt>
      <trkpt lat="44.2843" lon="6.35871">
        <ele>1228.6</ele>
        <time>2018-08-10T06:08:52Z</time>
      </trkpt>
      <trkpt lat="44.28434" lon="6.3587">
        <ele>1229</ele>
        <time>2018-08-10T06:08:54Z</time>
      </trkpt>
      <trkpt lat="44.28437" lon="6.35871">
        <ele>1229.3</ele>
        <time>2018-08-10T06:08:57Z</time>
      </trkpt>
      <trkpt lat="44.28441" lon="6.35872">
        <ele>1229.8</ele>
        <time>2018-08-10T06:09:00Z</time>
      </trkpt>
      <trkpt lat="44.28445" lon="6.35872">
        <ele>1230.2</ele>
        <time>2018-08-10T06:09:02Z</time>
      </trkpt>
      <trkpt lat="44.28448" lon="6.35874">
        <ele>1230.6</ele>
        <time>2018-08-10T06:09:05Z</time>
      </trkpt>
      <trkpt lat="44.28451" lon="6.35877">
        <ele>1230.9</ele>
        <time>2018-08-10T06:09:07Z</time>
      </trkpt>
      <trkpt lat="44.28453" lon="6.35881">
        <ele>1231.3</ele>
        <time>2018-08-10T06:09:09Z</time>
      </trkpt>
      <trkpt lat="44.28456" lon="6.35884">
        <ele>1231.7</ele>
        <time>2018-08-10T06:09:11Z</time>
      </trkpt>
      <trkpt lat="44.28457" lon="6.35888">
        <ele>1232</ele>
        <time>2018-08-10T06:09:13Z</time>
      </trkpt>
      <trkpt lat="44.2846" lon="6.35892">
        <ele>1232.4</ele>
        <time>2018-08-10T06:09:15Z</time>
      </trkpt>
      <trkpt lat="44.28462" lon="6.35896">
        <ele>1232.8</ele>
        <time>2018-08-10T06:09:17Z</time>
      </trkpt>
      <trkpt lat="44.28465" lon="6.359">
        <ele>1233.1</ele>
        <time>2018-08-10T06:09:19Z</time>
      </trkpt>
      <trkpt lat="44.28467" lon="6.35904">
        <ele>1233.4</ele>
        <time>2018-08-10T06:09:21Z</time>
      </trkpt>
      <trkpt lat="44.2847" lon="6.35908">
        <ele>1233.6</ele>
        <time>2018-08-10T06:09:23Z</time>
      </trkpt>
      <trkpt lat="44.28472" lon="6.35913">
        <ele>1233.9</ele>
        <time>2018-08-10T06:09:25Z</time>
      </trkpt>
      <trkpt lat="44.28475" lon="6.35917">
        <ele>1234.1</ele>
        <time>2018-08-10T06:09:27Z</time>
      </trkpt>
      <trkpt lat="44.28478" lon="6.3592">
        <ele>1234.3</ele>
        <time>2018-08-10T06:09:29Z</time>
      </trkpt>
      <trkpt lat="44.28482" lon="6.35925">
        <ele>1234.4</ele>
        <time>2018-08-10T06:09:31Z</time>
      </trkpt>
      <trkpt lat="44.28485" lon="6.3593">
        <ele>1234.6</ele>
        <time>2018-08-10T06:09:33Z</time>
      </trkpt>
      <trkpt lat="44.28488" lon="6.35937">
        <ele>1234.7</ele>
        <time>2018-08-10T06:09:35Z</time>
      </trkpt>
      <trkpt lat="44.28491" lon="6.35939">
        <ele>1234.7</ele>
        <time>2018-08-10T06:09:36Z</time>
      </trkpt>
      <trkpt lat="44.28492" lon="6.35942">
        <ele>1234.8</ele>
        <time>2018-08-10T06:09:37Z</time>
      </trkpt>
      <trkpt lat="44.28494" lon="6.35945">
        <ele>1234.9</ele>
        <time>2018-08-10T06:09:38Z</time>
      </trkpt>
      <trkpt lat="44.28496" lon="6.35948">
        <ele>1234.9</ele>
        <time>2018-08-10T06:09:39Z</time>
      </trkpt>
      <trkpt lat="44.28497" lon="6.35952">
        <ele>1235</ele>
        <time>2018-08-10T06:09:40Z</time>
      </trkpt>
      <trkpt lat="44.28498" lon="6.35956">
        <ele>1235.1</ele>
        <time>2018-08-10T06:09:41Z</time>
      </trkpt>
      <trkpt lat="44.285" lon="6.3596">
        <ele>1235.1</ele>
        <time>2018-08-10T06:09:42Z</time>
      </trkpt>
      <trkpt lat="44.28502" lon="6.35964">
        <ele>1235.2</ele>
        <time>2018-08-10T06:09:43Z</time>
      </trkpt>
      <trkpt lat="44.28504" lon="6.35968">
        <ele>1235.2</ele>
        <time>2018-08-10T06:09:44Z</time>
      </trkpt>
      <trkpt lat="44.28505" lon="6.35973">
        <ele>1235.3</ele>
        <time>2018-08-10T06:09:45Z</time>
      </trkpt>
      <trkpt lat="44.28507" lon="6.35977">
        <ele>1235.3</ele>
        <time>2018-08-10T06:09:46Z</time>
      </trkpt>
      <trkpt lat="44.28508" lon="6.3598">
        <ele>1235.3</ele>
        <time>2018-08-10T06:09:47Z</time>
      </trkpt>
      <trkpt lat="44.28511" lon="6.35987">
        <ele>1235.4</ele>
        <time>2018-08-10T06:09:49Z</time>
      </trkpt>
      <trkpt lat="44.28513" lon="6.35991">
        <ele>1235.4</ele>
        <time>2018-08-10T06:09:50Z</time>
      </trkpt>
      <trkpt lat="44.28516" lon="6.35997">
        <ele>1235.5</ele>
        <time>2018-08-10T06:09:52Z</time>
      </trkpt>
      <trkpt lat="44.28518" lon="6.36">
        <ele>1235.5</ele>
        <time>2018-08-10T06:09:53Z</time>
      </trkpt>
      <trkpt lat="44.28521" lon="6.36003">
        <ele>1235.6</ele>
        <time>2018-08-10T06:09:54Z</time>
      </trkpt>
      <trkpt lat="44.28523" lon="6.36006">
        <ele>1235.7</ele>
        <time>2018-08-10T06:09:55Z</time>
      </trkpt>
      <trkpt lat="44.28524" lon="6.36009">
        <ele>1235.8</ele>
        <time>2018-08-10T06:09:56Z</time>
      </trkpt>
      <trkpt lat="44.28525" lon="6.36013">
        <ele>1235.9</ele>
        <time>2018-08-10T06:09:57Z</time>
      </trkpt>
      <trkpt lat="44.28527" lon="6.36016">
        <ele>1236.1</ele>
        <time>2018-08-10T06:09:58Z</time>
      </trkpt>
      <trkpt lat="44.28528" lon="6.3602">
        <ele>1236.2</ele>
        <time>2018-08-10T06:09:59Z</time>
      </trkpt>
      <trkpt lat="44.2853" lon="6.36022">
        <ele>1236.3</ele>
        <time>2018-08-10T06:10:00Z</time>
      </trkpt>
      <trkpt lat="44.28531" lon="6.36026">
        <ele>1236.5</ele>
        <time>2018-08-10T06:10:01Z</time>
      </trkpt>
      <trkpt lat="44.28535" lon="6.36031">
        <ele>1236.8</ele>
        <time>2018-08-10T06:10:03Z</time>
      </trkpt>
      <trkpt lat="44.28538" lon="6.36033">
        <ele>1236.9</ele>
        <time>2018-08-10T06:10:04Z</time>
      </trkpt>
      <trkpt lat="44.2854" lon="6.36036">
        <ele>1237</ele>
        <time>2018-08-10T06:10:05Z</time>
      </trkpt>
      <trkpt lat="44.28543" lon="6.36037">
        <ele>1237.1</ele>
        <time>2018-08-10T06:10:06Z</time>
      </trkpt>
      <trkpt lat="44.28546" lon="6.36039">
        <ele>1237.1</ele>
        <time>2018-08-10T06:10:08Z</time>
      </trkpt>
      <trkpt lat="44.28549" lon="6.3604">
        <ele>1237.2</ele>
        <time>2018-08-10T06:10:09Z</time>
      </trkpt>
      <trkpt lat="44.28553" lon="6.36042">
        <ele>1237.3</ele>
        <time>2018-08-10T06:10:11Z</time>
      </trkpt>
      <trkpt lat="44.28557" lon="6.36042">
        <ele>1237.4</ele>
        <time>2018-08-10T06:10:13Z</time>
      </trkpt>
      <trkpt lat="44.28563" lon="6.36041">
        <ele>1237.5</ele>
        <time>2018-08-10T06:10:15Z</time>
      </trkpt>
      <trkpt lat="44.28567" lon="6.3604">
        <ele>1237.6</ele>
        <time>2018-08-10T06:10:17Z</time>
      </trkpt>
      <trkpt lat="44.28571" lon="6.36039">
        <ele>1237.7</ele>
        <time>2018-08-10T06:10:19Z</time>
      </trkpt>
      <trkpt lat="44.28576" lon="6.36038">
        <ele>1237.8</ele>
        <time>2018-08-10T06:10:21Z</time>
      </trkpt>
      <trkpt lat="44.28581" lon="6.36038">
        <ele>1237.9</ele>
        <time>2018-08-10T06:10:23Z</time>
      </trkpt>
      <trkpt lat="44.28586" lon="6.36037">
        <ele>1238.1</ele>
        <time>2018-08-10T06:10:25Z</time>
      </trkpt>
      <trkpt lat="44.2859" lon="6.36039">
        <ele>1238.2</ele>
        <time>2018-08-10T06:10:27Z</time>
      </trkpt>
      <trkpt lat="44.28595" lon="6.36042">
        <ele>1238.4</ele>
        <time>2018-08-10T06:10:29Z</time>
      </trkpt>
      <trkpt lat="44.28598" lon="6.36044">
        <ele>1238.7</ele>
        <time>2018-08-10T06:10:30Z</time>
      </trkpt>
      <trkpt lat="44.28601" lon="6.36046">
        <ele>1239</ele>
        <time>2018-08-10T06:10:31Z</time>
      </trkpt>
      <trkpt lat="44.28607" lon="6.36047">
        <ele>1239.8</ele>
        <time>2018-08-10T06:10:33Z</time>
      </trkpt>
      <trkpt lat="44.28612" lon="6.36048">
        <ele>1240.4</ele>
        <time>2018-08-10T06:10:35Z</time>
      </trkpt>
      <trkpt lat="44.28617" lon="6.36046">
        <ele>1241.1</ele>
        <time>2018-08-10T06:10:37Z</time>
      </trkpt>
      <trkpt lat="44.28621" lon="6.36043">
        <ele>1241.7</ele>
        <time>2018-08-10T06:10:39Z</time>
      </trkpt>
      <trkpt lat="44.28625" lon="6.36037">
        <ele>1242.2</ele>
        <time>2018-08-10T06:10:41Z</time>
      </trkpt>
      <trkpt lat="44.28627" lon="6.36032">
        <ele>1242.5</ele>
        <time>2018-08-10T06:10:43Z</time>
      </trkpt>
      <trkpt lat="44.28629" lon="6.36026">
        <ele>1242.7</ele>
        <time>2018-08-10T06:10:45Z</time>
      </trkpt>
      <trkpt lat="44.2863" lon="6.36022">
        <ele>1242.9</ele>
        <time>2018-08-10T06:10:46Z</time>
      </trkpt>
      <trkpt lat="44.28631" lon="6.36019">
        <ele>1243.1</ele>
        <time>2018-08-10T06:10:47Z</time>
      </trkpt>
      <trkpt lat="44.28634" lon="6.36015">
        <ele>1243.2</ele>
        <time>2018-08-10T06:10:50Z</time>
      </trkpt>
      <trkpt lat="44.28635" lon="6.36008">
        <ele>1243.6</ele>
        <time>2018-08-10T06:10:52Z</time>
      </trkpt>
      <trkpt lat="44.28638" lon="6.36005">
        <ele>1243.8</ele>
        <time>2018-08-10T06:10:54Z</time>
      </trkpt>
      <trkpt lat="44.2864" lon="6.36002">
        <ele>1244</ele>
        <time>2018-08-10T06:10:55Z</time>
      </trkpt>
      <trkpt lat="44.28643" lon="6.35998">
        <ele>1244.3</ele>
        <time>2018-08-10T06:10:57Z</time>
      </trkpt>
      <trkpt lat="44.28646" lon="6.35995">
        <ele>1244.6</ele>
        <time>2018-08-10T06:10:59Z</time>
      </trkpt>
      <trkpt lat="44.28649" lon="6.35998">
        <ele>1244.8</ele>
        <time>2018-08-10T06:11:01Z</time>
      </trkpt>
      <trkpt lat="44.28652" lon="6.35997">
        <ele>1245</ele>
        <time>2018-08-10T06:11:02Z</time>
      </trkpt>
      <trkpt lat="44.28654" lon="6.35994">
        <ele>1245.2</ele>
        <time>2018-08-10T06:11:03Z</time>
      </trkpt>
      <trkpt lat="44.2866" lon="6.35996">
        <ele>1245.5</ele>
        <time>2018-08-10T06:11:05Z</time>
      </trkpt>
      <trkpt lat="44.28664" lon="6.35998">
        <ele>1245.7</ele>
        <time>2018-08-10T06:11:07Z</time>
      </trkpt>
      <trkpt lat="44.28668" lon="6.35999">
        <ele>1246</ele>
        <time>2018-08-10T06:11:09Z</time>
      </trkpt>
      <trkpt lat="44.28671" lon="6.36">
        <ele>1246.1</ele>
        <time>2018-08-10T06:11:10Z</time>
      </trkpt>
      <trkpt lat="44.28672" lon="6.36003">
        <ele>1246.3</ele>
        <time>2018-08-10T06:11:11Z</time>
      </trkpt>
      <trkpt lat="44.28677" lon="6.36005">
        <ele>1246.6</ele>
        <time>2018-08-10T06:11:13Z</time>
      </trkpt>
      <trkpt lat="44.2868" lon="6.36004">
        <ele>1246.8</ele>
        <time>2018-08-10T06:11:14Z</time>
      </trkpt>
      <trkpt lat="44.28684" lon="6.36002">
        <ele>1247</ele>
        <time>2018-08-10T06:11:15Z</time>
      </trkpt>
      <trkpt lat="44.28687" lon="6.36002">
        <ele>1247.2</ele>
        <time>2018-08-10T06:11:16Z</time>
      </trkpt>
      <trkpt lat="44.28691" lon="6.36003">
        <ele>1247.4</ele>
        <time>2018-08-10T06:11:18Z</time>
      </trkpt>
      <trkpt lat="44.28695" lon="6.36004">
        <ele>1247.6</ele>
        <time>2018-08-10T06:11:20Z</time>
      </trkpt>
      <trkpt lat="44.28698" lon="6.36005">
        <ele>1247.8</ele>
        <time>2018-08-10T06:11:22Z</time>
      </trkpt>
      <trkpt lat="44.28702" lon="6.35999">
        <ele>1248</ele>
        <time>2018-08-10T06:11:24Z</time>
      </trkpt>
      <trkpt lat="44.28706" lon="6.35997">
        <ele>1248.1</ele>
        <time>2018-08-10T06:11:26Z</time>
      </trkpt>
      <trkpt lat="44.28709" lon="6.35995">
        <ele>1248.2</ele>
        <time>2018-08-10T06:11:27Z</time>
      </trkpt>
      <trkpt lat="44.28712" lon="6.3599">
        <ele>1248.3</ele>
        <time>2018-08-10T06:11:29Z</time>
      </trkpt>
      <trkpt lat="44.28716" lon="6.35989">
        <ele>1248.4</ele>
        <time>2018-08-10T06:11:32Z</time>
      </trkpt>
      <trkpt lat="44.28718" lon="6.35985">
        <ele>1248.6</ele>
        <time>2018-08-10T06:11:33Z</time>
      </trkpt>
      <trkpt lat="44.28721" lon="6.35982">
        <ele>1248.7</ele>
        <time>2018-08-10T06:11:34Z</time>
      </trkpt>
      <trkpt lat="44.28724" lon="6.35978">
        <ele>1249</ele>
        <time>2018-08-10T06:11:36Z</time>
      </trkpt>
      <trkpt lat="44.28728" lon="6.35976">
        <ele>1249.2</ele>
        <time>2018-08-10T06:11:38Z</time>
      </trkpt>
      <trkpt lat="44.28732" lon="6.35973">
        <ele>1249.5</ele>
        <time>2018-08-10T06:11:40Z</time>
      </trkpt>
      <trkpt lat="44.28736" lon="6.35972">
        <ele>1249.7</ele>
        <time>2018-08-10T06:11:42Z</time>
      </trkpt>
      <trkpt lat="44.28739" lon="6.35971">
        <ele>1249.9</ele>
        <time>2018-08-10T06:11:44Z</time>
      </trkpt>
      <trkpt lat="44.28743" lon="6.35972">
        <ele>1250.1</ele>
        <time>2018-08-10T06:11:46Z</time>
      </trkpt>
      <trkpt lat="44.28746" lon="6.35968">
        <ele>1250.3</ele>
        <time>2018-08-10T06:11:47Z</time>
      </trkpt>
      <trkpt lat="44.2875" lon="6.35966">
        <ele>1250.5</ele>
        <time>2018-08-10T06:11:48Z</time>
      </trkpt>
      <trkpt lat="44.28752" lon="6.35965">
        <ele>1250.6</ele>
        <time>2018-08-10T06:11:49Z</time>
      </trkpt>
      <trkpt lat="44.28757" lon="6.35966">
        <ele>1250.8</ele>
        <time>2018-08-10T06:11:51Z</time>
      </trkpt>
      <trkpt lat="44.28762" lon="6.35966">
        <ele>1251</ele>
        <time>2018-08-10T06:11:53Z</time>
      </trkpt>
      <trkpt lat="44.28765" lon="6.35967">
        <ele>1251.1</ele>
        <time>2018-08-10T06:11:55Z</time>
      </trkpt>
      <trkpt lat="44.28768" lon="6.35973">
        <ele>1251.2</ele>
        <time>2018-08-10T06:11:57Z</time>
      </trkpt>
      <trkpt lat="44.2877" lon="6.35976">
        <ele>1251.3</ele>
        <time>2018-08-10T06:11:58Z</time>
      </trkpt>
      <trkpt lat="44.28773" lon="6.35979">
        <ele>1251.4</ele>
        <time>2018-08-10T06:12:00Z</time>
      </trkpt>
      <trkpt lat="44.28774" lon="6.35983">
        <ele>1251.5</ele>
        <time>2018-08-10T06:12:02Z</time>
      </trkpt>
      <trkpt lat="44.28777" lon="6.35987">
        <ele>1251.8</ele>
        <time>2018-08-10T06:12:04Z</time>
      </trkpt>
      <trkpt lat="44.28779" lon="6.35991">
        <ele>1252.1</ele>
        <time>2018-08-10T06:12:06Z</time>
      </trkpt>
      <trkpt lat="44.28782" lon="6.35995">
        <ele>1252.4</ele>
        <time>2018-08-10T06:12:08Z</time>
      </trkpt>
      <trkpt lat="44.28785" lon="6.35999">
        <ele>1252.8</ele>
        <time>2018-08-10T06:12:10Z</time>
      </trkpt>
      <trkpt lat="44.28787" lon="6.36004">
        <ele>1253.2</ele>
        <time>2018-08-10T06:12:12Z</time>
      </trkpt>
      <trkpt lat="44.2879" lon="6.36009">
        <ele>1253.5</ele>
        <time>2018-08-10T06:12:14Z</time>
      </trkpt>
      <trkpt lat="44.28794" lon="6.36012">
        <ele>1253.8</ele>
        <time>2018-08-10T06:12:16Z</time>
      </trkpt>
      <trkpt lat="44.28799" lon="6.36014">
        <ele>1254</ele>
        <time>2018-08-10T06:12:18Z</time>
      </trkpt>
      <trkpt lat="44.28801" lon="6.36017">
        <ele>1254.2</ele>
        <time>2018-08-10T06:12:20Z</time>
      </trkpt>
      <trkpt lat="44.28805" lon="6.36019">
        <ele>1254.5</ele>
        <time>2018-08-10T06:12:22Z</time>
      </trkpt>
      <trkpt lat="44.28809" lon="6.36021">
        <ele>1254.8</ele>
        <time>2018-08-10T06:12:24Z</time>
      </trkpt>
      <trkpt lat="44.28812" lon="6.36024">
        <ele>1255</ele>
        <time>2018-08-10T06:12:26Z</time>
      </trkpt>
      <trkpt lat="44.28815" lon="6.36027">
        <ele>1255.3</ele>
        <time>2018-08-10T06:12:28Z</time>
      </trkpt>
      <trkpt lat="44.28819" lon="6.36029">
        <ele>1255.5</ele>
        <time>2018-08-10T06:12:30Z</time>
      </trkpt>
      <trkpt lat="44.28824" lon="6.3603">
        <ele>1255.8</ele>
        <time>2018-08-10T06:12:32Z</time>
      </trkpt>
      <trkpt lat="44.28827" lon="6.36033">
        <ele>1255.9</ele>
        <time>2018-08-10T06:12:34Z</time>
      </trkpt>
      <trkpt lat="44.28831" lon="6.36032">
        <ele>1256.1</ele>
        <time>2018-08-10T06:12:36Z</time>
      </trkpt>
      <trkpt lat="44.28835" lon="6.36033">
        <ele>1256.2</ele>
        <time>2018-08-10T06:12:38Z</time>
      </trkpt>
      <trkpt lat="44.28839" lon="6.36035">
        <ele>1256.3</ele>
        <time>2018-08-10T06:12:40Z</time>
      </trkpt>
      <trkpt lat="44.28842" lon="6.3604">
        <ele>1256.4</ele>
        <time>2018-08-10T06:12:42Z</time>
      </trkpt>
      <trkpt lat="44.28846" lon="6.36043">
        <ele>1256.5</ele>
        <time>2018-08-10T06:12:44Z</time>
      </trkpt>
      <trkpt lat="44.28848" lon="6.36046">
        <ele>1256.6</ele>
        <time>2018-08-10T06:12:45Z</time>
      </trkpt>
      <trkpt lat="44.28851" lon="6.36051">
        <ele>1256.7</ele>
        <time>2018-08-10T06:12:47Z</time>
      </trkpt>
      <trkpt lat="44.28853" lon="6.36054">
        <ele>1256.7</ele>
        <time>2018-08-10T06:12:48Z</time>
      </trkpt>
      <trkpt lat="44.28857" lon="6.36058">
        <ele>1256.8</ele>
        <time>2018-08-10T06:12:50Z</time>
      </trkpt>
      <trkpt lat="44.28861" lon="6.36062">
        <ele>1256.8</ele>
        <time>2018-08-10T06:12:52Z</time>
      </trkpt>
      <trkpt lat="44.28864" lon="6.36066">
        <ele>1256.9</ele>
        <time>2018-08-10T06:12:54Z</time>
      </trkpt>
      <trkpt lat="44.28867" lon="6.36072">
        <ele>1256.9</ele>
        <time>2018-08-10T06:12:56Z</time>
      </trkpt>
      <trkpt lat="44.28871" lon="6.36075">
        <ele>1257</ele>
        <time>2018-08-10T06:12:58Z</time>
      </trkpt>
      <trkpt lat="44.28875" lon="6.36078">
        <ele>1257</ele>
        <time>2018-08-10T06:13:00Z</time>
      </trkpt>
      <trkpt lat="44.28879" lon="6.36082">
        <ele>1257.1</ele>
        <time>2018-08-10T06:13:02Z</time>
      </trkpt>
      <trkpt lat="44.28883" lon="6.36085">
        <ele>1257.2</ele>
        <time>2018-08-10T06:13:04Z</time>
      </trkpt>
      <trkpt lat="44.28886" lon="6.36089">
        <ele>1257.2</ele>
        <time>2018-08-10T06:13:06Z</time>
      </trkpt>
      <trkpt lat="44.28889" lon="6.36094">
        <ele>1257.3</ele>
        <time>2018-08-10T06:13:08Z</time>
      </trkpt>
      <trkpt lat="44.28893" lon="6.36098">
        <ele>1257.5</ele>
        <time>2018-08-10T06:13:10Z</time>
      </trkpt>
      <trkpt lat="44.28896" lon="6.36102">
        <ele>1257.7</ele>
        <time>2018-08-10T06:13:12Z</time>
      </trkpt>
      <trkpt lat="44.289" lon="6.36108">
        <ele>1258</ele>
        <time>2018-08-10T06:13:14Z</time>
      </trkpt>
      <trkpt lat="44.28903" lon="6.36112">
        <ele>1258.3</ele>
        <time>2018-08-10T06:13:16Z</time>
      </trkpt>
      <trkpt lat="44.28904" lon="6.36116">
        <ele>1258.6</ele>
        <time>2018-08-10T06:13:18Z</time>
      </trkpt>
      <trkpt lat="44.28907" lon="6.36121">
        <ele>1259</ele>
        <time>2018-08-10T06:13:20Z</time>
      </trkpt>
      <trkpt lat="44.2891" lon="6.36125">
        <ele>1259.3</ele>
        <time>2018-08-10T06:13:22Z</time>
      </trkpt>
      <trkpt lat="44.28913" lon="6.36128">
        <ele>1259.6</ele>
        <time>2018-08-10T06:13:24Z</time>
      </trkpt>
      <trkpt lat="44.28917" lon="6.36131">
        <ele>1259.9</ele>
        <time>2018-08-10T06:13:26Z</time>
      </trkpt>
      <trkpt lat="44.28919" lon="6.36136">
        <ele>1260.3</ele>
        <time>2018-08-10T06:13:28Z</time>
      </trkpt>
      <trkpt lat="44.28921" lon="6.36142">
        <ele>1260.6</ele>
        <time>2018-08-10T06:13:30Z</time>
      </trkpt>
      <trkpt lat="44.28924" lon="6.36145">
        <ele>1260.9</ele>
        <time>2018-08-10T06:13:32Z</time>
      </trkpt>
      <trkpt lat="44.28926" lon="6.36149">
        <ele>1261.2</ele>
        <time>2018-08-10T06:13:34Z</time>
      </trkpt>
      <trkpt lat="44.28929" lon="6.36154">
        <ele>1261.5</ele>
        <time>2018-08-10T06:13:36Z</time>
      </trkpt>
      <trkpt lat="44.28932" lon="6.36157">
        <ele>1261.8</ele>
        <time>2018-08-10T06:13:38Z</time>
      </trkpt>
      <trkpt lat="44.28935" lon="6.36162">
        <ele>1262.1</ele>
        <time>2018-08-10T06:13:40Z</time>
      </trkpt>
      <trkpt lat="44.28938" lon="6.36167">
        <ele>1262.1</ele>
        <time>2018-08-10T06:13:42Z</time>
      </trkpt>
      <trkpt lat="44.28939" lon="6.36173">
        <ele>1262.2</ele>
        <time>2018-08-10T06:13:44Z</time>
      </trkpt>
      <trkpt lat="44.28943" lon="6.36178">
        <ele>1262.3</ele>
        <time>2018-08-10T06:13:46Z</time>
      </trkpt>
      <trkpt lat="44.28945" lon="6.36185">
        <ele>1262.4</ele>
        <time>2018-08-10T06:13:48Z</time>
      </trkpt>
      <trkpt lat="44.28947" lon="6.36191">
        <ele>1262.5</ele>
        <time>2018-08-10T06:13:50Z</time>
      </trkpt>
      <trkpt lat="44.28949" lon="6.36198">
        <ele>1262.6</ele>
        <time>2018-08-10T06:13:52Z</time>
      </trkpt>
      <trkpt lat="44.28951" lon="6.36201">
        <ele>1262.6</ele>
        <time>2018-08-10T06:13:53Z</time>
      </trkpt>
      <trkpt lat="44.28952" lon="6.36208">
        <ele>1262.7</ele>
        <time>2018-08-10T06:13:55Z</time>
      </trkpt>
      <trkpt lat="44.28954" lon="6.36214">
        <ele>1263</ele>
        <time>2018-08-10T06:13:57Z</time>
      </trkpt>
      <trkpt lat="44.28956" lon="6.36218">
        <ele>1263.1</ele>
        <time>2018-08-10T06:13:58Z</time>
      </trkpt>
      <trkpt lat="44.28957" lon="6.36222">
        <ele>1263.3</ele>
        <time>2018-08-10T06:13:59Z</time>
      </trkpt>
      <trkpt lat="44.28956" lon="6.36227">
        <ele>1263.6</ele>
        <time>2018-08-10T06:14:00Z</time>
      </trkpt>
      <trkpt lat="44.28957" lon="6.36231">
        <ele>1263.8</ele>
        <time>2018-08-10T06:14:01Z</time>
      </trkpt>
      <trkpt lat="44.28957" lon="6.36236">
        <ele>1264</ele>
        <time>2018-08-10T06:14:02Z</time>
      </trkpt>
      <trkpt lat="44.28958" lon="6.36239">
        <ele>1264.3</ele>
        <time>2018-08-10T06:14:03Z</time>
      </trkpt>
      <trkpt lat="44.2896" lon="6.36243">
        <ele>1264.5</ele>
        <time>2018-08-10T06:14:04Z</time>
      </trkpt>
      <trkpt lat="44.28962" lon="6.36246">
        <ele>1264.8</ele>
        <time>2018-08-10T06:14:05Z</time>
      </trkpt>
      <trkpt lat="44.28963" lon="6.3625">
        <ele>1265</ele>
        <time>2018-08-10T06:14:06Z</time>
      </trkpt>
      <trkpt lat="44.28963" lon="6.36255">
        <ele>1265.3</ele>
        <time>2018-08-10T06:14:07Z</time>
      </trkpt>
      <trkpt lat="44.28964" lon="6.36259">
        <ele>1265.5</ele>
        <time>2018-08-10T06:14:08Z</time>
      </trkpt>
      <trkpt lat="44.28967" lon="6.36262">
        <ele>1265.7</ele>
        <time>2018-08-10T06:14:09Z</time>
      </trkpt>
      <trkpt lat="44.28967" lon="6.36266">
        <ele>1265.8</ele>
        <time>2018-08-10T06:14:10Z</time>
      </trkpt>
      <trkpt lat="44.28967" lon="6.3627">
        <ele>1266</ele>
        <time>2018-08-10T06:14:11Z</time>
      </trkpt>
      <trkpt lat="44.28969" lon="6.36274">
        <ele>1266.2</ele>
        <time>2018-08-10T06:14:12Z</time>
      </trkpt>
      <trkpt lat="44.28971" lon="6.36277">
        <ele>1266.5</ele>
        <time>2018-08-10T06:14:13Z</time>
      </trkpt>
      <trkpt lat="44.28971" lon="6.36282">
        <ele>1266.8</ele>
        <time>2018-08-10T06:14:14Z</time>
      </trkpt>
      <trkpt lat="44.28973" lon="6.36285">
        <ele>1267.1</ele>
        <time>2018-08-10T06:14:15Z</time>
      </trkpt>
      <trkpt lat="44.28971" lon="6.3629">
        <ele>1267.4</ele>
        <time>2018-08-10T06:14:16Z</time>
      </trkpt>
      <trkpt lat="44.28971" lon="6.36294">
        <ele>1267.6</ele>
        <time>2018-08-10T06:14:17Z</time>
      </trkpt>
      <trkpt lat="44.28971" lon="6.36298">
        <ele>1267.9</ele>
        <time>2018-08-10T06:14:18Z</time>
      </trkpt>
      <trkpt lat="44.28973" lon="6.36301">
        <ele>1268.1</ele>
        <time>2018-08-10T06:14:19Z</time>
      </trkpt>
      <trkpt lat="44.28976" lon="6.36306">
        <ele>1268.4</ele>
        <time>2018-08-10T06:14:21Z</time>
      </trkpt>
      <trkpt lat="44.28978" lon="6.36309">
        <ele>1268.6</ele>
        <time>2018-08-10T06:14:22Z</time>
      </trkpt>
      <trkpt lat="44.2898" lon="6.36312">
        <ele>1268.7</ele>
        <time>2018-08-10T06:14:23Z</time>
      </trkpt>
      <trkpt lat="44.28981" lon="6.36316">
        <ele>1268.7</ele>
        <time>2018-08-10T06:14:24Z</time>
      </trkpt>
      <trkpt lat="44.28985" lon="6.36322">
        <ele>1268.9</ele>
        <time>2018-08-10T06:14:26Z</time>
      </trkpt>
      <trkpt lat="44.28987" lon="6.36324">
        <ele>1269</ele>
        <time>2018-08-10T06:14:27Z</time>
      </trkpt>
      <trkpt lat="44.28989" lon="6.36331">
        <ele>1269.1</ele>
        <time>2018-08-10T06:14:29Z</time>
      </trkpt>
      <trkpt lat="44.28993" lon="6.36337">
        <ele>1269.2</ele>
        <time>2018-08-10T06:14:31Z</time>
      </trkpt>
      <trkpt lat="44.28995" lon="6.36339">
        <ele>1269.3</ele>
        <time>2018-08-10T06:14:32Z</time>
      </trkpt>
      <trkpt lat="44.28999" lon="6.36344">
        <ele>1269.5</ele>
        <time>2018-08-10T06:14:34Z</time>
      </trkpt>
      <trkpt lat="44.29002" lon="6.36345">
        <ele>1269.6</ele>
        <time>2018-08-10T06:14:35Z</time>
      </trkpt>
      <trkpt lat="44.29005" lon="6.36348">
        <ele>1269.8</ele>
        <time>2018-08-10T06:14:36Z</time>
      </trkpt>
      <trkpt lat="44.29011" lon="6.3635">
        <ele>1269.9</ele>
        <time>2018-08-10T06:14:38Z</time>
      </trkpt>
      <trkpt lat="44.29013" lon="6.36353">
        <ele>1270</ele>
        <time>2018-08-10T06:14:39Z</time>
      </trkpt>
      <trkpt lat="44.29015" lon="6.36355">
        <ele>1270.1</ele>
        <time>2018-08-10T06:14:40Z</time>
      </trkpt>
      <trkpt lat="44.29018" lon="6.36359">
        <ele>1270.2</ele>
        <time>2018-08-10T06:14:41Z</time>
      </trkpt>
      <trkpt lat="44.29022" lon="6.36364">
        <ele>1270.3</ele>
        <time>2018-08-10T06:14:43Z</time>
      </trkpt>
      <trkpt lat="44.29026" lon="6.36369">
        <ele>1270.4</ele>
        <time>2018-08-10T06:14:45Z</time>
      </trkpt>
      <trkpt lat="44.29029" lon="6.36371">
        <ele>1270.5</ele>
        <time>2018-08-10T06:14:46Z</time>
      </trkpt>
      <trkpt lat="44.29034" lon="6.36374">
        <ele>1270.8</ele>
        <time>2018-08-10T06:14:48Z</time>
      </trkpt>
      <trkpt lat="44.29036" lon="6.36376">
        <ele>1271</ele>
        <time>2018-08-10T06:14:49Z</time>
      </trkpt>
      <trkpt lat="44.29039" lon="6.36376">
        <ele>1271.2</ele>
        <time>2018-08-10T06:14:50Z</time>
      </trkpt>
      <trkpt lat="44.29043" lon="6.36376">
        <ele>1271.5</ele>
        <time>2018-08-10T06:14:51Z</time>
      </trkpt>
      <trkpt lat="44.29048" lon="6.36378">
        <ele>1271.9</ele>
        <time>2018-08-10T06:14:53Z</time>
      </trkpt>
      <trkpt lat="44.29053" lon="6.36381">
        <ele>1272.4</ele>
        <time>2018-08-10T06:14:55Z</time>
      </trkpt>
      <trkpt lat="44.29056" lon="6.36381">
        <ele>1272.6</ele>
        <time>2018-08-10T06:14:56Z</time>
      </trkpt>
      <trkpt lat="44.2906" lon="6.36382">
        <ele>1272.9</ele>
        <time>2018-08-10T06:14:58Z</time>
      </trkpt>
      <trkpt lat="44.29063" lon="6.36384">
        <ele>1273.1</ele>
        <time>2018-08-10T06:15:00Z</time>
      </trkpt>
      <trkpt lat="44.29068" lon="6.36386">
        <ele>1273.3</ele>
        <time>2018-08-10T06:15:03Z</time>
      </trkpt>
      <trkpt lat="44.29073" lon="6.36386">
        <ele>1273.6</ele>
        <time>2018-08-10T06:15:05Z</time>
      </trkpt>
      <trkpt lat="44.29076" lon="6.36387">
        <ele>1273.7</ele>
        <time>2018-08-10T06:15:06Z</time>
      </trkpt>
      <trkpt lat="44.29079" lon="6.36387">
        <ele>1273.9</ele>
        <time>2018-08-10T06:15:07Z</time>
      </trkpt>
      <trkpt lat="44.29081" lon="6.3639">
        <ele>1274</ele>
        <time>2018-08-10T06:15:08Z</time>
      </trkpt>
      <trkpt lat="44.29085" lon="6.36394">
        <ele>1274.2</ele>
        <time>2018-08-10T06:15:10Z</time>
      </trkpt>
      <trkpt lat="44.29088" lon="6.36394">
        <ele>1274.3</ele>
        <time>2018-08-10T06:15:11Z</time>
      </trkpt>
      <trkpt lat="44.29093" lon="6.36396">
        <ele>1274.5</ele>
        <time>2018-08-10T06:15:13Z</time>
      </trkpt>
      <trkpt lat="44.29097" lon="6.36397">
        <ele>1274.7</ele>
        <time>2018-08-10T06:15:14Z</time>
      </trkpt>
      <trkpt lat="44.29099" lon="6.364">
        <ele>1274.9</ele>
        <time>2018-08-10T06:15:15Z</time>
      </trkpt>
      <trkpt lat="44.29103" lon="6.36404">
        <ele>1275.3</ele>
        <time>2018-08-10T06:15:17Z</time>
      </trkpt>
      <trkpt lat="44.29107" lon="6.36409">
        <ele>1275.7</ele>
        <time>2018-08-10T06:15:19Z</time>
      </trkpt>
      <trkpt lat="44.29111" lon="6.36414">
        <ele>1276.1</ele>
        <time>2018-08-10T06:15:21Z</time>
      </trkpt>
      <trkpt lat="44.29112" lon="6.36417">
        <ele>1276.3</ele>
        <time>2018-08-10T06:15:22Z</time>
      </trkpt>
      <trkpt lat="44.29115" lon="6.3642">
        <ele>1276.5</ele>
        <time>2018-08-10T06:15:23Z</time>
      </trkpt>
      <trkpt lat="44.29117" lon="6.36423">
        <ele>1276.7</ele>
        <time>2018-08-10T06:15:24Z</time>
      </trkpt>
      <trkpt lat="44.29119" lon="6.36427">
        <ele>1277</ele>
        <time>2018-08-10T06:15:25Z</time>
      </trkpt>
      <trkpt lat="44.29121" lon="6.3643">
        <ele>1277.2</ele>
        <time>2018-08-10T06:15:26Z</time>
      </trkpt>
      <trkpt lat="44.29123" lon="6.36432">
        <ele>1277.4</ele>
        <time>2018-08-10T06:15:27Z</time>
      </trkpt>
      <trkpt lat="44.29125" lon="6.3644">
        <ele>1277.7</ele>
        <time>2018-08-10T06:15:29Z</time>
      </trkpt>
      <trkpt lat="44.29125" lon="6.36444">
        <ele>1278</ele>
        <time>2018-08-10T06:15:30Z</time>
      </trkpt>
      <trkpt lat="44.29127" lon="6.3645">
        <ele>1278.3</ele>
        <time>2018-08-10T06:15:32Z</time>
      </trkpt>
      <trkpt lat="44.29129" lon="6.36457">
        <ele>1278.7</ele>
        <time>2018-08-10T06:15:34Z</time>
      </trkpt>
      <trkpt lat="44.2913" lon="6.3646">
        <ele>1278.9</ele>
        <time>2018-08-10T06:15:35Z</time>
      </trkpt>
      <trkpt lat="44.29131" lon="6.36463">
        <ele>1279</ele>
        <time>2018-08-10T06:15:36Z</time>
      </trkpt>
      <trkpt lat="44.29134" lon="6.3647">
        <ele>1279.4</ele>
        <time>2018-08-10T06:15:38Z</time>
      </trkpt>
      <trkpt lat="44.29135" lon="6.36473">
        <ele>1279.6</ele>
        <time>2018-08-10T06:15:39Z</time>
      </trkpt>
      <trkpt lat="44.29138" lon="6.36478">
        <ele>1279.9</ele>
        <time>2018-08-10T06:15:41Z</time>
      </trkpt>
      <trkpt lat="44.2914" lon="6.36485">
        <ele>1280.2</ele>
        <time>2018-08-10T06:15:43Z</time>
      </trkpt>
      <trkpt lat="44.29141" lon="6.3649">
        <ele>1280.4</ele>
        <time>2018-08-10T06:15:45Z</time>
      </trkpt>
      <trkpt lat="44.29142" lon="6.36496">
        <ele>1280.5</ele>
        <time>2018-08-10T06:15:47Z</time>
      </trkpt>
      <trkpt lat="44.29142" lon="6.365">
        <ele>1280.6</ele>
        <time>2018-08-10T06:15:48Z</time>
      </trkpt>
      <trkpt lat="44.29143" lon="6.36506">
        <ele>1280.7</ele>
        <time>2018-08-10T06:15:50Z</time>
      </trkpt>
      <trkpt lat="44.29145" lon="6.36512">
        <ele>1281</ele>
        <time>2018-08-10T06:15:52Z</time>
      </trkpt>
      <trkpt lat="44.29146" lon="6.36518">
        <ele>1281.2</ele>
        <time>2018-08-10T06:15:54Z</time>
      </trkpt>
      <trkpt lat="44.29149" lon="6.36525">
        <ele>1281.3</ele>
        <time>2018-08-10T06:15:56Z</time>
      </trkpt>
      <trkpt lat="44.2915" lon="6.36531">
        <ele>1281.5</ele>
        <time>2018-08-10T06:15:58Z</time>
      </trkpt>
      <trkpt lat="44.29153" lon="6.36537">
        <ele>1281.7</ele>
        <time>2018-08-10T06:16:00Z</time>
      </trkpt>
      <trkpt lat="44.29155" lon="6.36542">
        <ele>1281.9</ele>
        <time>2018-08-10T06:16:02Z</time>
      </trkpt>
      <trkpt lat="44.29157" lon="6.36548">
        <ele>1282.2</ele>
        <time>2018-08-10T06:16:04Z</time>
      </trkpt>
      <trkpt lat="44.29158" lon="6.36551">
        <ele>1282.4</ele>
        <time>2018-08-10T06:16:05Z</time>
      </trkpt>
      <trkpt lat="44.29159" lon="6.36555">
        <ele>1282.6</ele>
        <time>2018-08-10T06:16:06Z</time>
      </trkpt>
      <trkpt lat="44.2916" lon="6.36559">
        <ele>1282.8</ele>
        <time>2018-08-10T06:16:07Z</time>
      </trkpt>
      <trkpt lat="44.29163" lon="6.36565">
        <ele>1283.2</ele>
        <time>2018-08-10T06:16:09Z</time>
      </trkpt>
      <trkpt lat="44.29167" lon="6.3657">
        <ele>1283.6</ele>
        <time>2018-08-10T06:16:11Z</time>
      </trkpt>
      <trkpt lat="44.29169" lon="6.36573">
        <ele>1283.8</ele>
        <time>2018-08-10T06:16:12Z</time>
      </trkpt>
      <trkpt lat="44.29168" lon="6.36577">
        <ele>1284.1</ele>
        <time>2018-08-10T06:16:13Z</time>
      </trkpt>
      <trkpt lat="44.29169" lon="6.36584">
        <ele>1284.4</ele>
        <time>2018-08-10T06:16:15Z</time>
      </trkpt>
      <trkpt lat="44.29171" lon="6.36591">
        <ele>1284.8</ele>
        <time>2018-08-10T06:16:17Z</time>
      </trkpt>
      <trkpt lat="44.29171" lon="6.36595">
        <ele>1284.9</ele>
        <time>2018-08-10T06:16:18Z</time>
      </trkpt>
      <trkpt lat="44.29171" lon="6.36599">
        <ele>1285.2</ele>
        <time>2018-08-10T06:16:19Z</time>
      </trkpt>
      <trkpt lat="44.29171" lon="6.36606">
        <ele>1285.5</ele>
        <time>2018-08-10T06:16:21Z</time>
      </trkpt>
      <trkpt lat="44.29174" lon="6.36612">
        <ele>1285.8</ele>
        <time>2018-08-10T06:16:23Z</time>
      </trkpt>
      <trkpt lat="44.29173" lon="6.36619">
        <ele>1286.2</ele>
        <time>2018-08-10T06:16:25Z</time>
      </trkpt>
      <trkpt lat="44.29175" lon="6.36627">
        <ele>1286.6</ele>
        <time>2018-08-10T06:16:27Z</time>
      </trkpt>
      <trkpt lat="44.29177" lon="6.36634">
        <ele>1287</ele>
        <time>2018-08-10T06:16:29Z</time>
      </trkpt>
      <trkpt lat="44.2918" lon="6.3664">
        <ele>1287.4</ele>
        <time>2018-08-10T06:16:31Z</time>
      </trkpt>
      <trkpt lat="44.29181" lon="6.36644">
        <ele>1287.6</ele>
        <time>2018-08-10T06:16:32Z</time>
      </trkpt>
      <trkpt lat="44.29182" lon="6.36647">
        <ele>1287.7</ele>
        <time>2018-08-10T06:16:33Z</time>
      </trkpt>
      <trkpt lat="44.29186" lon="6.36652">
        <ele>1287.9</ele>
        <time>2018-08-10T06:16:35Z</time>
      </trkpt>
      <trkpt lat="44.29187" lon="6.36656">
        <ele>1288</ele>
        <time>2018-08-10T06:16:36Z</time>
      </trkpt>
      <trkpt lat="44.29188" lon="6.36659">
        <ele>1288.2</ele>
        <time>2018-08-10T06:16:37Z</time>
      </trkpt>
      <trkpt lat="44.2919" lon="6.36666">
        <ele>1288.4</ele>
        <time>2018-08-10T06:16:39Z</time>
      </trkpt>
      <trkpt lat="44.29192" lon="6.36671">
        <ele>1288.6</ele>
        <time>2018-08-10T06:16:41Z</time>
      </trkpt>
      <trkpt lat="44.29195" lon="6.36676">
        <ele>1288.9</ele>
        <time>2018-08-10T06:16:43Z</time>
      </trkpt>
      <trkpt lat="44.29197" lon="6.36681">
        <ele>1289.3</ele>
        <time>2018-08-10T06:16:45Z</time>
      </trkpt>
      <trkpt lat="44.29199" lon="6.36688">
        <ele>1289.7</ele>
        <time>2018-08-10T06:16:47Z</time>
      </trkpt>
      <trkpt lat="44.29202" lon="6.36693">
        <ele>1290</ele>
        <time>2018-08-10T06:16:49Z</time>
      </trkpt>
      <trkpt lat="44.29206" lon="6.36697">
        <ele>1290.4</ele>
        <time>2018-08-10T06:16:51Z</time>
      </trkpt>
      <trkpt lat="44.2921" lon="6.36701">
        <ele>1290.7</ele>
        <time>2018-08-10T06:16:53Z</time>
      </trkpt>
      <trkpt lat="44.29214" lon="6.36705">
        <ele>1291</ele>
        <time>2018-08-10T06:16:55Z</time>
      </trkpt>
      <trkpt lat="44.29217" lon="6.36709">
        <ele>1291.2</ele>
        <time>2018-08-10T06:16:57Z</time>
      </trkpt>
      <trkpt lat="44.29221" lon="6.36712">
        <ele>1291.3</ele>
        <time>2018-08-10T06:16:59Z</time>
      </trkpt>
      <trkpt lat="44.29225" lon="6.36711">
        <ele>1291.5</ele>
        <time>2018-08-10T06:17:00Z</time>
      </trkpt>
      <trkpt lat="44.29228" lon="6.36713">
        <ele>1291.6</ele>
        <time>2018-08-10T06:17:01Z</time>
      </trkpt>
      <trkpt lat="44.29231" lon="6.36716">
        <ele>1291.7</ele>
        <time>2018-08-10T06:17:03Z</time>
      </trkpt>
      <trkpt lat="44.29234" lon="6.36717">
        <ele>1291.8</ele>
        <time>2018-08-10T06:17:04Z</time>
      </trkpt>
      <trkpt lat="44.29236" lon="6.36719">
        <ele>1291.8</ele>
        <time>2018-08-10T06:17:05Z</time>
      </trkpt>
      <trkpt lat="44.2924" lon="6.3672">
        <ele>1291.9</ele>
        <time>2018-08-10T06:17:06Z</time>
      </trkpt>
      <trkpt lat="44.29244" lon="6.3672">
        <ele>1292</ele>
        <time>2018-08-10T06:17:07Z</time>
      </trkpt>
      <trkpt lat="44.29246" lon="6.36723">
        <ele>1292.1</ele>
        <time>2018-08-10T06:17:08Z</time>
      </trkpt>
      <trkpt lat="44.29249" lon="6.36723">
        <ele>1292.2</ele>
        <time>2018-08-10T06:17:09Z</time>
      </trkpt>
      <trkpt lat="44.29255" lon="6.36725">
        <ele>1292.5</ele>
        <time>2018-08-10T06:17:12Z</time>
      </trkpt>
      <trkpt lat="44.29263" lon="6.36726">
        <ele>1292.9</ele>
        <time>2018-08-10T06:17:14Z</time>
      </trkpt>
      <trkpt lat="44.29268" lon="6.36729">
        <ele>1293.2</ele>
        <time>2018-08-10T06:17:16Z</time>
      </trkpt>
      <trkpt lat="44.29271" lon="6.3673">
        <ele>1293.4</ele>
        <time>2018-08-10T06:17:17Z</time>
      </trkpt>
      <trkpt lat="44.29275" lon="6.36732">
        <ele>1293.7</ele>
        <time>2018-08-10T06:17:19Z</time>
      </trkpt>
      <trkpt lat="44.29278" lon="6.36733">
        <ele>1293.9</ele>
        <time>2018-08-10T06:17:20Z</time>
      </trkpt>
      <trkpt lat="44.29281" lon="6.36734">
        <ele>1294.1</ele>
        <time>2018-08-10T06:17:21Z</time>
      </trkpt>
      <trkpt lat="44.29284" lon="6.36736">
        <ele>1294.3</ele>
        <time>2018-08-10T06:17:22Z</time>
      </trkpt>
      <trkpt lat="44.29286" lon="6.36737">
        <ele>1294.5</ele>
        <time>2018-08-10T06:17:23Z</time>
      </trkpt>
      <trkpt lat="44.2929" lon="6.36742">
        <ele>1294.9</ele>
        <time>2018-08-10T06:17:25Z</time>
      </trkpt>
      <trkpt lat="44.29293" lon="6.36744">
        <ele>1295.1</ele>
        <time>2018-08-10T06:17:26Z</time>
      </trkpt>
      <trkpt lat="44.29296" lon="6.36748">
        <ele>1295.4</ele>
        <time>2018-08-10T06:17:28Z</time>
      </trkpt>
      <trkpt lat="44.29299" lon="6.3675">
        <ele>1295.6</ele>
        <time>2018-08-10T06:17:29Z</time>
      </trkpt>
      <trkpt lat="44.29302" lon="6.36755">
        <ele>1295.8</ele>
        <time>2018-08-10T06:17:31Z</time>
      </trkpt>
      <trkpt lat="44.29305" lon="6.3676">
        <ele>1296.1</ele>
        <time>2018-08-10T06:17:33Z</time>
      </trkpt>
      <trkpt lat="44.29309" lon="6.36765">
        <ele>1296.5</ele>
        <time>2018-08-10T06:17:35Z</time>
      </trkpt>
      <trkpt lat="44.29313" lon="6.3677">
        <ele>1297</ele>
        <time>2018-08-10T06:17:37Z</time>
      </trkpt>
      <trkpt lat="44.29317" lon="6.36774">
        <ele>1297.4</ele>
        <time>2018-08-10T06:17:39Z</time>
      </trkpt>
      <trkpt lat="44.2932" lon="6.36778">
        <ele>1297.7</ele>
        <time>2018-08-10T06:17:41Z</time>
      </trkpt>
      <trkpt lat="44.29325" lon="6.36779">
        <ele>1298.1</ele>
        <time>2018-08-10T06:17:43Z</time>
      </trkpt>
      <trkpt lat="44.29328" lon="6.36781">
        <ele>1298.3</ele>
        <time>2018-08-10T06:17:45Z</time>
      </trkpt>
      <trkpt lat="44.2933" lon="6.36781">
        <ele>1298.5</ele>
        <time>2018-08-10T06:17:46Z</time>
      </trkpt>
      <trkpt lat="44.29333" lon="6.36783">
        <ele>1298.7</ele>
        <time>2018-08-10T06:17:48Z</time>
      </trkpt>
      <trkpt lat="44.29336" lon="6.36785">
        <ele>1298.9</ele>
        <time>2018-08-10T06:17:50Z</time>
      </trkpt>
      <trkpt lat="44.29339" lon="6.36787">
        <ele>1299.1</ele>
        <time>2018-08-10T06:17:52Z</time>
      </trkpt>
      <trkpt lat="44.29342" lon="6.3679">
        <ele>1299.3</ele>
        <time>2018-08-10T06:17:55Z</time>
      </trkpt>
      <trkpt lat="44.29346" lon="6.36791">
        <ele>1299.5</ele>
        <time>2018-08-10T06:17:57Z</time>
      </trkpt>
      <trkpt lat="44.2935" lon="6.36792">
        <ele>1299.6</ele>
        <time>2018-08-10T06:17:59Z</time>
      </trkpt>
      <trkpt lat="44.29355" lon="6.36792">
        <ele>1299.8</ele>
        <time>2018-08-10T06:18:01Z</time>
      </trkpt>
      <trkpt lat="44.29358" lon="6.36792">
        <ele>1299.9</ele>
        <time>2018-08-10T06:18:02Z</time>
      </trkpt>
      <trkpt lat="44.29361" lon="6.36792">
        <ele>1300</ele>
        <time>2018-08-10T06:18:03Z</time>
      </trkpt>
      <trkpt lat="44.29365" lon="6.3679">
        <ele>1300.2</ele>
        <time>2018-08-10T06:18:04Z</time>
      </trkpt>
      <trkpt lat="44.29369" lon="6.36789">
        <ele>1300.4</ele>
        <time>2018-08-10T06:18:05Z</time>
      </trkpt>
      <trkpt lat="44.29372" lon="6.36788">
        <ele>1300.7</ele>
        <time>2018-08-10T06:18:06Z</time>
      </trkpt>
      <trkpt lat="44.29375" lon="6.36788">
        <ele>1300.9</ele>
        <time>2018-08-10T06:18:07Z</time>
      </trkpt>
      <trkpt lat="44.29378" lon="6.36788">
        <ele>1301.2</ele>
        <time>2018-08-10T06:18:08Z</time>
      </trkpt>
      <trkpt lat="44.29382" lon="6.36788">
        <ele>1301.6</ele>
        <time>2018-08-10T06:18:09Z</time>
      </trkpt>
      <trkpt lat="44.29385" lon="6.36788">
        <ele>1301.9</ele>
        <time>2018-08-10T06:18:10Z</time>
      </trkpt>
      <trkpt lat="44.29388" lon="6.36788">
        <ele>1302.3</ele>
        <time>2018-08-10T06:18:11Z</time>
      </trkpt>
      <trkpt lat="44.29392" lon="6.36788">
        <ele>1302.7</ele>
        <time>2018-08-10T06:18:12Z</time>
      </trkpt>
      <trkpt lat="44.29396" lon="6.36788">
        <ele>1303</ele>
        <time>2018-08-10T06:18:13Z</time>
      </trkpt>
      <trkpt lat="44.29399" lon="6.36787">
        <ele>1303.2</ele>
        <time>2018-08-10T06:18:14Z</time>
      </trkpt>
      <trkpt lat="44.29403" lon="6.36786">
        <ele>1303.4</ele>
        <time>2018-08-10T06:18:15Z</time>
      </trkpt>
      <trkpt lat="44.29406" lon="6.36785">
        <ele>1303.6</ele>
        <time>2018-08-10T06:18:16Z</time>
      </trkpt>
      <trkpt lat="44.29409" lon="6.36785">
        <ele>1303.6</ele>
        <time>2018-08-10T06:18:17Z</time>
      </trkpt>
      <trkpt lat="44.29412" lon="6.36784">
        <ele>1303.6</ele>
        <time>2018-08-10T06:18:18Z</time>
      </trkpt>
      <trkpt lat="44.29415" lon="6.36783">
        <ele>1303.7</ele>
        <time>2018-08-10T06:18:19Z</time>
      </trkpt>
      <trkpt lat="44.2942" lon="6.36781">
        <ele>1303.8</ele>
        <time>2018-08-10T06:18:21Z</time>
      </trkpt>
      <trkpt lat="44.29423" lon="6.3678">
        <ele>1303.8</ele>
        <time>2018-08-10T06:18:22Z</time>
      </trkpt>
      <trkpt lat="44.29426" lon="6.3678">
        <ele>1303.9</ele>
        <time>2018-08-10T06:18:23Z</time>
      </trkpt>
      <trkpt lat="44.29429" lon="6.36778">
        <ele>1303.9</ele>
        <time>2018-08-10T06:18:24Z</time>
      </trkpt>
      <trkpt lat="44.29432" lon="6.36777">
        <ele>1304</ele>
        <time>2018-08-10T06:18:25Z</time>
      </trkpt>
      <trkpt lat="44.29437" lon="6.36773">
        <ele>1304.1</ele>
        <time>2018-08-10T06:18:27Z</time>
      </trkpt>
      <trkpt lat="44.29441" lon="6.36771">
        <ele>1304.1</ele>
        <time>2018-08-10T06:18:29Z</time>
      </trkpt>
      <trkpt lat="44.29444" lon="6.3677">
        <ele>1304.2</ele>
        <time>2018-08-10T06:18:30Z</time>
      </trkpt>
      <trkpt lat="44.29447" lon="6.36769">
        <ele>1304.2</ele>
        <time>2018-08-10T06:18:31Z</time>
      </trkpt>
      <trkpt lat="44.2945" lon="6.36767">
        <ele>1304.3</ele>
        <time>2018-08-10T06:18:32Z</time>
      </trkpt>
      <trkpt lat="44.29454" lon="6.36763">
        <ele>1304.3</ele>
        <time>2018-08-10T06:18:34Z</time>
      </trkpt>
      <trkpt lat="44.29457" lon="6.3676">
        <ele>1304.4</ele>
        <time>2018-08-10T06:18:35Z</time>
      </trkpt>
      <trkpt lat="44.2946" lon="6.36757">
        <ele>1304.5</ele>
        <time>2018-08-10T06:18:36Z</time>
      </trkpt>
      <trkpt lat="44.29463" lon="6.36755">
        <ele>1304.5</ele>
        <time>2018-08-10T06:18:37Z</time>
      </trkpt>
      <trkpt lat="44.29467" lon="6.36754">
        <ele>1304.6</ele>
        <time>2018-08-10T06:18:40Z</time>
      </trkpt>
      <trkpt lat="44.2947" lon="6.36753">
        <ele>1304.7</ele>
        <time>2018-08-10T06:18:41Z</time>
      </trkpt>
      <trkpt lat="44.29475" lon="6.36752">
        <ele>1304.8</ele>
        <time>2018-08-10T06:18:43Z</time>
      </trkpt>
      <trkpt lat="44.29478" lon="6.36752">
        <ele>1304.8</ele>
        <time>2018-08-10T06:18:44Z</time>
      </trkpt>
      <trkpt lat="44.29481" lon="6.36751">
        <ele>1304.9</ele>
        <time>2018-08-10T06:18:45Z</time>
      </trkpt>
      <trkpt lat="44.29484" lon="6.36751">
        <ele>1304.9</ele>
        <time>2018-08-10T06:18:47Z</time>
      </trkpt>
      <trkpt lat="44.29487" lon="6.36753">
        <ele>1305</ele>
        <time>2018-08-10T06:18:49Z</time>
      </trkpt>
      <trkpt lat="44.29492" lon="6.36748">
        <ele>1305.1</ele>
        <time>2018-08-10T06:18:51Z</time>
      </trkpt>
      <trkpt lat="44.29496" lon="6.36745">
        <ele>1305.3</ele>
        <time>2018-08-10T06:18:53Z</time>
      </trkpt>
      <trkpt lat="44.295" lon="6.36741">
        <ele>1305.5</ele>
        <time>2018-08-10T06:18:55Z</time>
      </trkpt>
      <trkpt lat="44.29503" lon="6.36738">
        <ele>1305.6</ele>
        <time>2018-08-10T06:18:57Z</time>
      </trkpt>
      <trkpt lat="44.29505" lon="6.36736">
        <ele>1305.7</ele>
        <time>2018-08-10T06:18:58Z</time>
      </trkpt>
      <trkpt lat="44.29508" lon="6.36733">
        <ele>1305.9</ele>
        <time>2018-08-10T06:19:00Z</time>
      </trkpt>
      <trkpt lat="44.29511" lon="6.3673">
        <ele>1306.1</ele>
        <time>2018-08-10T06:19:02Z</time>
      </trkpt>
      <trkpt lat="44.29515" lon="6.3673">
        <ele>1306.5</ele>
        <time>2018-08-10T06:19:05Z</time>
      </trkpt>
      <trkpt lat="44.29519" lon="6.36729">
        <ele>1306.9</ele>
        <time>2018-08-10T06:19:09Z</time>
      </trkpt>
      <trkpt lat="44.2952" lon="6.36726">
        <ele>1307.4</ele>
        <time>2018-08-10T06:19:13Z</time>
      </trkpt>
      <trkpt lat="44.29522" lon="6.36722">
        <ele>1307.8</ele>
        <time>2018-08-10T06:19:15Z</time>
      </trkpt>
      <trkpt lat="44.29524" lon="6.36718">
        <ele>1308.3</ele>
        <time>2018-08-10T06:19:17Z</time>
      </trkpt>
      <trkpt lat="44.29526" lon="6.36714">
        <ele>1308.6</ele>
        <time>2018-08-10T06:19:19Z</time>
      </trkpt>
      <trkpt lat="44.29527" lon="6.36709">
        <ele>1308.8</ele>
        <time>2018-08-10T06:19:21Z</time>
      </trkpt>
      <trkpt lat="44.29527" lon="6.36706">
        <ele>1308.9</ele>
        <time>2018-08-10T06:19:23Z</time>
      </trkpt>
      <trkpt lat="44.2953" lon="6.36701">
        <ele>1309.2</ele>
        <time>2018-08-10T06:19:26Z</time>
      </trkpt>
      <trkpt lat="44.29532" lon="6.36699">
        <ele>1309.4</ele>
        <time>2018-08-10T06:19:28Z</time>
      </trkpt>
      <trkpt lat="44.29535" lon="6.36698">
        <ele>1309.6</ele>
        <time>2018-08-10T06:19:30Z</time>
      </trkpt>
      <trkpt lat="44.29539" lon="6.36696">
        <ele>1309.8</ele>
        <time>2018-08-10T06:19:32Z</time>
      </trkpt>
      <trkpt lat="44.29542" lon="6.36694">
        <ele>1310.1</ele>
        <time>2018-08-10T06:19:34Z</time>
      </trkpt>
      <trkpt lat="44.29545" lon="6.36693">
        <ele>1310.3</ele>
        <time>2018-08-10T06:19:36Z</time>
      </trkpt>
      <trkpt lat="44.29548" lon="6.36691">
        <ele>1310.6</ele>
        <time>2018-08-10T06:19:39Z</time>
      </trkpt>
      <trkpt lat="44.29551" lon="6.36689">
        <ele>1311.1</ele>
        <time>2018-08-10T06:19:42Z</time>
      </trkpt>
      <trkpt lat="44.29555" lon="6.36687">
        <ele>1311.6</ele>
        <time>2018-08-10T06:19:45Z</time>
      </trkpt>
      <trkpt lat="44.29557" lon="6.36685">
        <ele>1312.1</ele>
        <time>2018-08-10T06:19:48Z</time>
      </trkpt>
      <trkpt lat="44.2956" lon="6.36684">
        <ele>1312.4</ele>
        <time>2018-08-10T06:19:52Z</time>
      </trkpt>
      <trkpt lat="44.29563" lon="6.36684">
        <ele>1312.7</ele>
        <time>2018-08-10T06:19:54Z</time>
      </trkpt>
      <trkpt lat="44.29566" lon="6.36685">
        <ele>1312.9</ele>
        <time>2018-08-10T06:19:57Z</time>
      </trkpt>
      <trkpt lat="44.29568" lon="6.36688">
        <ele>1313.1</ele>
        <time>2018-08-10T06:20:00Z</time>
      </trkpt>
      <trkpt lat="44.29572" lon="6.36686">
        <ele>1313.4</ele>
        <time>2018-08-10T06:20:13Z</time>
      </trkpt>
      <trkpt lat="44.29575" lon="6.36687">
        <ele>1313.7</ele>
        <time>2018-08-10T06:20:15Z</time>
      </trkpt>
      <trkpt lat="44.29577" lon="6.36688">
        <ele>1313.9</ele>
        <time>2018-08-10T06:20:17Z</time>
      </trkpt>
      <trkpt lat="44.2958" lon="6.36689">
        <ele>1314</ele>
        <time>2018-08-10T06:20:19Z</time>
      </trkpt>
      <trkpt lat="44.29582" lon="6.36692">
        <ele>1314</ele>
        <time>2018-08-10T06:20:23Z</time>
      </trkpt>
      <trkpt lat="44.29585" lon="6.36695">
        <ele>1314</ele>
        <time>2018-08-10T06:20:26Z</time>
      </trkpt>
      <trkpt lat="44.29588" lon="6.36692">
        <ele>1314</ele>
        <time>2018-08-10T06:20:29Z</time>
      </trkpt>
      <trkpt lat="44.2959" lon="6.36688">
        <ele>1313.9</ele>
        <time>2018-08-10T06:20:31Z</time>
      </trkpt>
      <trkpt lat="44.2959" lon="6.36684">
        <ele>1313.8</ele>
        <time>2018-08-10T06:20:33Z</time>
      </trkpt>
      <trkpt lat="44.29593" lon="6.36682">
        <ele>1313.9</ele>
        <time>2018-08-10T06:20:35Z</time>
      </trkpt>
      <trkpt lat="44.29596" lon="6.3668">
        <ele>1313.9</ele>
        <time>2018-08-10T06:20:37Z</time>
      </trkpt>
      <trkpt lat="44.29599" lon="6.36676">
        <ele>1313.8</ele>
        <time>2018-08-10T06:20:40Z</time>
      </trkpt>
      <trkpt lat="44.29603" lon="6.36672">
        <ele>1313.4</ele>
        <time>2018-08-10T06:20:44Z</time>
      </trkpt>
      <trkpt lat="44.29606" lon="6.3667">
        <ele>1313.4</ele>
        <time>2018-08-10T06:20:47Z</time>
      </trkpt>
      <trkpt lat="44.2961" lon="6.36667">
        <ele>1313.4</ele>
        <time>2018-08-10T06:20:49Z</time>
      </trkpt>
      <trkpt lat="44.29613" lon="6.36665">
        <ele>1313.4</ele>
        <time>2018-08-10T06:20:51Z</time>
      </trkpt>
      <trkpt lat="44.29616" lon="6.36663">
        <ele>1313.4</ele>
        <time>2018-08-10T06:20:53Z</time>
      </trkpt>
      <trkpt lat="44.2962" lon="6.36662">
        <ele>1313.3</ele>
        <time>2018-08-10T06:20:56Z</time>
      </trkpt>
      <trkpt lat="44.29623" lon="6.3666">
        <ele>1313.4</ele>
        <time>2018-08-10T06:20:58Z</time>
      </trkpt>
      <trkpt lat="44.29626" lon="6.36657">
        <ele>1313.4</ele>
        <time>2018-08-10T06:21:01Z</time>
      </trkpt>
      <trkpt lat="44.29629" lon="6.36654">
        <ele>1313.5</ele>
        <time>2018-08-10T06:21:03Z</time>
      </trkpt>
      <trkpt lat="44.29633" lon="6.36651">
        <ele>1313.4</ele>
        <time>2018-08-10T06:21:05Z</time>
      </trkpt>
      <trkpt lat="44.29635" lon="6.36647">
        <ele>1313.3</ele>
        <time>2018-08-10T06:21:07Z</time>
      </trkpt>
      <trkpt lat="44.29638" lon="6.36644">
        <ele>1313.3</ele>
        <time>2018-08-10T06:21:09Z</time>
      </trkpt>
      <trkpt lat="44.29641" lon="6.36641">
        <ele>1313.3</ele>
        <time>2018-08-10T06:21:11Z</time>
      </trkpt>
      <trkpt lat="44.29644" lon="6.36637">
        <ele>1313.2</ele>
        <time>2018-08-10T06:21:14Z</time>
      </trkpt>
      <trkpt lat="44.29647" lon="6.36634">
        <ele>1313.1</ele>
        <time>2018-08-10T06:21:17Z</time>
      </trkpt>
      <trkpt lat="44.29651" lon="6.36634">
        <ele>1313</ele>
        <time>2018-08-10T06:21:20Z</time>
      </trkpt>
      <trkpt lat="44.29655" lon="6.36635">
        <ele>1312.5</ele>
        <time>2018-08-10T06:21:23Z</time>
      </trkpt>
      <trkpt lat="44.29659" lon="6.36634">
        <ele>1312</ele>
        <time>2018-08-10T06:21:27Z</time>
      </trkpt>
      <trkpt lat="44.29662" lon="6.36634">
        <ele>1311.5</ele>
        <time>2018-08-10T06:21:29Z</time>
      </trkpt>
      <trkpt lat="44.29665" lon="6.36637">
        <ele>1310.8</ele>
        <time>2018-08-10T06:21:40Z</time>
      </trkpt>
      <trkpt lat="44.29667" lon="6.36638">
        <ele>1310.3</ele>
        <time>2018-08-10T06:21:44Z</time>
      </trkpt>
      <trkpt lat="44.29671" lon="6.36639">
        <ele>1309.8</ele>
        <time>2018-08-10T06:21:52Z</time>
      </trkpt>
      <trkpt lat="44.29674" lon="6.36641">
        <ele>1309.4</ele>
        <time>2018-08-10T06:21:56Z</time>
      </trkpt>
      <trkpt lat="44.29677" lon="6.36639">
        <ele>1309</ele>
        <time>2018-08-10T06:21:58Z</time>
      </trkpt>
      <trkpt lat="44.2968" lon="6.36642">
        <ele>1308.8</ele>
        <time>2018-08-10T06:22:02Z</time>
      </trkpt>
      <trkpt lat="44.29683" lon="6.36641">
        <ele>1308.5</ele>
        <time>2018-08-10T06:22:07Z</time>
      </trkpt>
      <trkpt lat="44.29686" lon="6.36643">
        <ele>1308.5</ele>
        <time>2018-08-10T06:22:14Z</time>
      </trkpt>
      <trkpt lat="44.29689" lon="6.36643">
        <ele>1308.4</ele>
        <time>2018-08-10T06:22:16Z</time>
      </trkpt>
      <trkpt lat="44.29694" lon="6.36644">
        <ele>1308.5</ele>
        <time>2018-08-10T06:22:27Z</time>
      </trkpt>
      <trkpt lat="44.29696" lon="6.36646">
        <ele>1308.7</ele>
        <time>2018-08-10T06:22:29Z</time>
      </trkpt>
      <trkpt lat="44.29699" lon="6.36649">
        <ele>1308.9</ele>
        <time>2018-08-10T06:22:31Z</time>
      </trkpt>
      <trkpt lat="44.29703" lon="6.36652">
        <ele>1309.1</ele>
        <time>2018-08-10T06:22:34Z</time>
      </trkpt>
      <trkpt lat="44.29706" lon="6.36654">
        <ele>1309.2</ele>
        <time>2018-08-10T06:22:36Z</time>
      </trkpt>
      <trkpt lat="44.29709" lon="6.36655">
        <ele>1309.4</ele>
        <time>2018-08-10T06:22:40Z</time>
      </trkpt>
      <trkpt lat="44.29713" lon="6.36656">
        <ele>1309.5</ele>
        <time>2018-08-10T06:22:43Z</time>
      </trkpt>
      <trkpt lat="44.29716" lon="6.36658">
        <ele>1309.6</ele>
        <time>2018-08-10T06:22:46Z</time>
      </trkpt>
      <trkpt lat="44.29718" lon="6.36658">
        <ele>1309.6</ele>
        <time>2018-08-10T06:22:48Z</time>
      </trkpt>
      <trkpt lat="44.2972" lon="6.36661">
        <ele>1309.4</ele>
        <time>2018-08-10T06:22:50Z</time>
      </trkpt>
      <trkpt lat="44.29723" lon="6.36661">
        <ele>1309.3</ele>
        <time>2018-08-10T06:22:52Z</time>
      </trkpt>
      <trkpt lat="44.29726" lon="6.3666">
        <ele>1308.9</ele>
        <time>2018-08-10T06:22:55Z</time>
      </trkpt>
      <trkpt lat="44.29729" lon="6.36661">
        <ele>1308.3</ele>
        <time>2018-08-10T06:22:59Z</time>
      </trkpt>
      <trkpt lat="44.29732" lon="6.3666">
        <ele>1307.8</ele>
        <time>2018-08-10T06:23:01Z</time>
      </trkpt>
      <trkpt lat="44.29736" lon="6.36661">
        <ele>1307.2</ele>
        <time>2018-08-10T06:23:05Z</time>
      </trkpt>
      <trkpt lat="44.29739" lon="6.3666">
        <ele>1306.7</ele>
        <time>2018-08-10T06:23:08Z</time>
      </trkpt>
      <trkpt lat="44.29743" lon="6.36659">
        <ele>1306</ele>
        <time>2018-08-10T06:23:10Z</time>
      </trkpt>
      <trkpt lat="44.29746" lon="6.36657">
        <ele>1305</ele>
        <time>2018-08-10T06:23:12Z</time>
      </trkpt>
      <trkpt lat="44.2975" lon="6.36656">
        <ele>1304.4</ele>
        <time>2018-08-10T06:23:14Z</time>
      </trkpt>
      <trkpt lat="44.29753" lon="6.36657">
        <ele>1304</ele>
        <time>2018-08-10T06:23:16Z</time>
      </trkpt>
      <trkpt lat="44.29756" lon="6.36662">
        <ele>1303.6</ele>
        <time>2018-08-10T06:23:18Z</time>
      </trkpt>
      <trkpt lat="44.2976" lon="6.36664">
        <ele>1303.5</ele>
        <time>2018-08-10T06:23:20Z</time>
      </trkpt>
      <trkpt lat="44.29765" lon="6.36664">
        <ele>1303.7</ele>
        <time>2018-08-10T06:23:22Z</time>
      </trkpt>
      <trkpt lat="44.29768" lon="6.36666">
        <ele>1303.9</ele>
        <time>2018-08-10T06:23:24Z</time>
      </trkpt>
      <trkpt lat="44.29771" lon="6.36666">
        <ele>1304.5</ele>
        <time>2018-08-10T06:23:26Z</time>
      </trkpt>
      <trkpt lat="44.29775" lon="6.36662">
        <ele>1305.4</ele>
        <time>2018-08-10T06:23:28Z</time>
      </trkpt>
      <trkpt lat="44.29778" lon="6.36659">
        <ele>1306.2</ele>
        <time>2018-08-10T06:23:30Z</time>
      </trkpt>
      <trkpt lat="44.29781" lon="6.36656">
        <ele>1306.8</ele>
        <time>2018-08-10T06:23:32Z</time>
      </trkpt>
      <trkpt lat="44.29783" lon="6.36654">
        <ele>1307.3</ele>
        <time>2018-08-10T06:23:34Z</time>
      </trkpt>
      <trkpt lat="44.29792" lon="6.36643">
        <ele>1309.9</ele>
        <time>2018-08-10T06:23:37Z</time>
      </trkpt>
      <trkpt lat="44.29796" lon="6.36642">
        <ele>1310.5</ele>
        <time>2018-08-10T06:23:39Z</time>
      </trkpt>
      <trkpt lat="44.29797" lon="6.36646">
        <ele>1311</ele>
        <time>2018-08-10T06:23:41Z</time>
      </trkpt>
      <trkpt lat="44.29801" lon="6.36646">
        <ele>1312.1</ele>
        <time>2018-08-10T06:23:44Z</time>
      </trkpt>
      <trkpt lat="44.29804" lon="6.36646">
        <ele>1313</ele>
        <time>2018-08-10T06:23:47Z</time>
      </trkpt>
      <trkpt lat="44.29808" lon="6.36646">
        <ele>1314</ele>
        <time>2018-08-10T06:23:49Z</time>
      </trkpt>
      <trkpt lat="44.29812" lon="6.36645">
        <ele>1315.2</ele>
        <time>2018-08-10T06:23:52Z</time>
      </trkpt>
      <trkpt lat="44.29816" lon="6.36644">
        <ele>1316.1</ele>
        <time>2018-08-10T06:23:55Z</time>
      </trkpt>
      <trkpt lat="44.29819" lon="6.36642">
        <ele>1316.8</ele>
        <time>2018-08-10T06:23:57Z</time>
      </trkpt>
      <trkpt lat="44.29822" lon="6.36646">
        <ele>1317.7</ele>
        <time>2018-08-10T06:24:00Z</time>
      </trkpt>
      <trkpt lat="44.29826" lon="6.36647">
        <ele>1318.8</ele>
        <time>2018-08-10T06:24:02Z</time>
      </trkpt>
      <trkpt lat="44.29828" lon="6.36645">
        <ele>1319.7</ele>
        <time>2018-08-10T06:24:07Z</time>
      </trkpt>
      <trkpt lat="44.29832" lon="6.36644">
        <ele>1320.7</ele>
        <time>2018-08-10T06:24:09Z</time>
      </trkpt>
      <trkpt lat="44.29836" lon="6.36643">
        <ele>1321.6</ele>
        <time>2018-08-10T06:24:11Z</time>
      </trkpt>
      <trkpt lat="44.2984" lon="6.3664">
        <ele>1322.6</ele>
        <time>2018-08-10T06:24:13Z</time>
      </trkpt>
      <trkpt lat="44.29842" lon="6.36637">
        <ele>1323.3</ele>
        <time>2018-08-10T06:24:14Z</time>
      </trkpt>
      <trkpt lat="44.29846" lon="6.36636">
        <ele>1324.4</ele>
        <time>2018-08-10T06:24:16Z</time>
      </trkpt>
      <trkpt lat="44.29849" lon="6.36635">
        <ele>1325.2</ele>
        <time>2018-08-10T06:24:18Z</time>
      </trkpt>
      <trkpt lat="44.29852" lon="6.36637">
        <ele>1326.3</ele>
        <time>2018-08-10T06:24:20Z</time>
      </trkpt>
      <trkpt lat="44.29855" lon="6.36637">
        <ele>1327</ele>
        <time>2018-08-10T06:24:23Z</time>
      </trkpt>
      <trkpt lat="44.29859" lon="6.36635">
        <ele>1327.8</ele>
        <time>2018-08-10T06:24:25Z</time>
      </trkpt>
      <trkpt lat="44.29862" lon="6.36634">
        <ele>1328.3</ele>
        <time>2018-08-10T06:24:27Z</time>
      </trkpt>
      <trkpt lat="44.29865" lon="6.36633">
        <ele>1328.8</ele>
        <time>2018-08-10T06:24:29Z</time>
      </trkpt>
      <trkpt lat="44.29868" lon="6.36629">
        <ele>1329.4</ele>
        <time>2018-08-10T06:24:31Z</time>
      </trkpt>
      <trkpt lat="44.29871" lon="6.36627">
        <ele>1329.9</ele>
        <time>2018-08-10T06:24:32Z</time>
      </trkpt>
      <trkpt lat="44.29875" lon="6.36625">
        <ele>1330.6</ele>
        <time>2018-08-10T06:24:34Z</time>
      </trkpt>
      <trkpt lat="44.29877" lon="6.36621">
        <ele>1331.2</ele>
        <time>2018-08-10T06:24:36Z</time>
      </trkpt>
      <trkpt lat="44.29881" lon="6.36617">
        <ele>1331.9</ele>
        <time>2018-08-10T06:24:38Z</time>
      </trkpt>
      <trkpt lat="44.29885" lon="6.36616">
        <ele>1332.4</ele>
        <time>2018-08-10T06:24:40Z</time>
      </trkpt>
      <trkpt lat="44.29887" lon="6.36615">
        <ele>1332.8</ele>
        <time>2018-08-10T06:24:42Z</time>
      </trkpt>
      <trkpt lat="44.29892" lon="6.36612">
        <ele>1333.5</ele>
        <time>2018-08-10T06:24:44Z</time>
      </trkpt>
      <trkpt lat="44.29895" lon="6.36608">
        <ele>1334.4</ele>
        <time>2018-08-10T06:24:46Z</time>
      </trkpt>
      <trkpt lat="44.29899" lon="6.36606">
        <ele>1334.9</ele>
        <time>2018-08-10T06:24:48Z</time>
      </trkpt>
      <trkpt lat="44.29904" lon="6.36604">
        <ele>1335.2</ele>
        <time>2018-08-10T06:24:50Z</time>
      </trkpt>
      <trkpt lat="44.29907" lon="6.36603">
        <ele>1335.4</ele>
        <time>2018-08-10T06:24:51Z</time>
      </trkpt>
      <trkpt lat="44.29911" lon="6.36602">
        <ele>1335.9</ele>
        <time>2018-08-10T06:24:53Z</time>
      </trkpt>
      <trkpt lat="44.29914" lon="6.36604">
        <ele>1336.3</ele>
        <time>2018-08-10T06:24:54Z</time>
      </trkpt>
      <trkpt lat="44.29917" lon="6.36604">
        <ele>1336.7</ele>
        <time>2018-08-10T06:24:55Z</time>
      </trkpt>
      <trkpt lat="44.2992" lon="6.36604">
        <ele>1336.9</ele>
        <time>2018-08-10T06:24:56Z</time>
      </trkpt>
      <trkpt lat="44.29924" lon="6.36605">
        <ele>1337.2</ele>
        <time>2018-08-10T06:24:58Z</time>
      </trkpt>
      <trkpt lat="44.29929" lon="6.36608">
        <ele>1336.8</ele>
        <time>2018-08-10T06:25:01Z</time>
      </trkpt>
      <trkpt lat="44.29934" lon="6.36607">
        <ele>1336.4</ele>
        <time>2018-08-10T06:25:03Z</time>
      </trkpt>
      <trkpt lat="44.29937" lon="6.36605">
        <ele>1336.6</ele>
        <time>2018-08-10T06:25:04Z</time>
      </trkpt>
      <trkpt lat="44.29939" lon="6.36603">
        <ele>1336.7</ele>
        <time>2018-08-10T06:25:05Z</time>
      </trkpt>
      <trkpt lat="44.29942" lon="6.36599">
        <ele>1336.9</ele>
        <time>2018-08-10T06:25:06Z</time>
      </trkpt>
      <trkpt lat="44.29944" lon="6.36594">
        <ele>1336.9</ele>
        <time>2018-08-10T06:25:08Z</time>
      </trkpt>
      <trkpt lat="44.29946" lon="6.36591">
        <ele>1337</ele>
        <time>2018-08-10T06:25:10Z</time>
      </trkpt>
      <trkpt lat="44.29949" lon="6.36586">
        <ele>1337.1</ele>
        <time>2018-08-10T06:25:12Z</time>
      </trkpt>
      <trkpt lat="44.29952" lon="6.36583">
        <ele>1337.2</ele>
        <time>2018-08-10T06:25:15Z</time>
      </trkpt>
      <trkpt lat="44.29956" lon="6.36581">
        <ele>1337.2</ele>
        <time>2018-08-10T06:25:17Z</time>
      </trkpt>
      <trkpt lat="44.29958" lon="6.36579">
        <ele>1337</ele>
        <time>2018-08-10T06:25:18Z</time>
      </trkpt>
      <trkpt lat="44.29961" lon="6.36577">
        <ele>1336.8</ele>
        <time>2018-08-10T06:25:19Z</time>
      </trkpt>
      <trkpt lat="44.29964" lon="6.36574">
        <ele>1336.6</ele>
        <time>2018-08-10T06:25:20Z</time>
      </trkpt>
      <trkpt lat="44.29967" lon="6.36571">
        <ele>1336.4</ele>
        <time>2018-08-10T06:25:21Z</time>
      </trkpt>
      <trkpt lat="44.2997" lon="6.36569">
        <ele>1336.3</ele>
        <time>2018-08-10T06:25:22Z</time>
      </trkpt>
      <trkpt lat="44.29974" lon="6.36565">
        <ele>1336.2</ele>
        <time>2018-08-10T06:25:24Z</time>
      </trkpt>
      <trkpt lat="44.29978" lon="6.3656">
        <ele>1335.9</ele>
        <time>2018-08-10T06:25:26Z</time>
      </trkpt>
      <trkpt lat="44.2998" lon="6.36557">
        <ele>1335.6</ele>
        <time>2018-08-10T06:25:27Z</time>
      </trkpt>
      <trkpt lat="44.29982" lon="6.36554">
        <ele>1335.3</ele>
        <time>2018-08-10T06:25:28Z</time>
      </trkpt>
      <trkpt lat="44.29986" lon="6.3655">
        <ele>1334.8</ele>
        <time>2018-08-10T06:25:30Z</time>
      </trkpt>
      <trkpt lat="44.2999" lon="6.36545">
        <ele>1334.5</ele>
        <time>2018-08-10T06:25:32Z</time>
      </trkpt>
      <trkpt lat="44.29992" lon="6.36542">
        <ele>1334.4</ele>
        <time>2018-08-10T06:25:33Z</time>
      </trkpt>
      <trkpt lat="44.29996" lon="6.36539">
        <ele>1334.3</ele>
        <time>2018-08-10T06:25:35Z</time>
      </trkpt>
      <trkpt lat="44.30001" lon="6.36538">
        <ele>1334.2</ele>
        <time>2018-08-10T06:25:37Z</time>
      </trkpt>
      <trkpt lat="44.30006" lon="6.36536">
        <ele>1334.1</ele>
        <time>2018-08-10T06:25:39Z</time>
      </trkpt>
      <trkpt lat="44.3001" lon="6.36533">
        <ele>1334.1</ele>
        <time>2018-08-10T06:25:40Z</time>
      </trkpt>
      <trkpt lat="44.30016" lon="6.36529">
        <ele>1334.6</ele>
        <time>2018-08-10T06:25:41Z</time>
      </trkpt>
      <trkpt lat="44.30021" lon="6.36529">
        <ele>1335.1</ele>
        <time>2018-08-10T06:25:42Z</time>
      </trkpt>
      <trkpt lat="44.30024" lon="6.36527">
        <ele>1335.5</ele>
        <time>2018-08-10T06:25:43Z</time>
      </trkpt>
      <trkpt lat="44.30028" lon="6.36525">
        <ele>1336</ele>
        <time>2018-08-10T06:25:44Z</time>
      </trkpt>
      <trkpt lat="44.30031" lon="6.36523">
        <ele>1336.2</ele>
        <time>2018-08-10T06:25:45Z</time>
      </trkpt>
      <trkpt lat="44.30035" lon="6.36522">
        <ele>1336.4</ele>
        <time>2018-08-10T06:25:46Z</time>
      </trkpt>
      <trkpt lat="44.3004" lon="6.36518">
        <ele>1337.1</ele>
        <time>2018-08-10T06:25:47Z</time>
      </trkpt>
      <trkpt lat="44.30044" lon="6.36517">
        <ele>1337.5</ele>
        <time>2018-08-10T06:25:48Z</time>
      </trkpt>
      <trkpt lat="44.30049" lon="6.36515">
        <ele>1337.8</ele>
        <time>2018-08-10T06:25:49Z</time>
      </trkpt>
      <trkpt lat="44.30053" lon="6.36514">
        <ele>1338.1</ele>
        <time>2018-08-10T06:25:50Z</time>
      </trkpt>
      <trkpt lat="44.30055" lon="6.36511">
        <ele>1338.5</ele>
        <time>2018-08-10T06:25:58Z</time>
      </trkpt>
      <trkpt lat="44.30058" lon="6.36508">
        <ele>1338.7</ele>
        <time>2018-08-10T06:25:59Z</time>
      </trkpt>
      <trkpt lat="44.30062" lon="6.36504">
        <ele>1338.6</ele>
        <time>2018-08-10T06:26:02Z</time>
      </trkpt>
      <trkpt lat="44.30066" lon="6.36503">
        <ele>1338.7</ele>
        <time>2018-08-10T06:26:04Z</time>
      </trkpt>
      <trkpt lat="44.30069" lon="6.36503">
        <ele>1339.1</ele>
        <time>2018-08-10T06:26:06Z</time>
      </trkpt>
      <trkpt lat="44.30072" lon="6.365">
        <ele>1339.5</ele>
        <time>2018-08-10T06:26:08Z</time>
      </trkpt>
      <trkpt lat="44.30074" lon="6.36497">
        <ele>1339.8</ele>
        <time>2018-08-10T06:26:12Z</time>
      </trkpt>
      <trkpt lat="44.30077" lon="6.36495">
        <ele>1340.1</ele>
        <time>2018-08-10T06:26:14Z</time>
      </trkpt>
      <trkpt lat="44.30079" lon="6.36493">
        <ele>1340.4</ele>
        <time>2018-08-10T06:26:16Z</time>
      </trkpt>
      <trkpt lat="44.3008" lon="6.36489">
        <ele>1340.9</ele>
        <time>2018-08-10T06:26:20Z</time>
      </trkpt>
      <trkpt lat="44.30083" lon="6.36486">
        <ele>1341.5</ele>
        <time>2018-08-10T06:26:22Z</time>
      </trkpt>
      <trkpt lat="44.30085" lon="6.36481">
        <ele>1342.2</ele>
        <time>2018-08-10T06:26:24Z</time>
      </trkpt>
      <trkpt lat="44.30087" lon="6.36478">
        <ele>1342.8</ele>
        <time>2018-08-10T06:26:26Z</time>
      </trkpt>
      <trkpt lat="44.30084" lon="6.36476">
        <ele>1343.5</ele>
        <time>2018-08-10T06:26:32Z</time>
      </trkpt>
      <trkpt lat="44.30085" lon="6.36472">
        <ele>1344.1</ele>
        <time>2018-08-10T06:26:36Z</time>
      </trkpt>
      <trkpt lat="44.30086" lon="6.36468">
        <ele>1344.7</ele>
        <time>2018-08-10T06:26:40Z</time>
      </trkpt>
      <trkpt lat="44.30087" lon="6.36465">
        <ele>1345.2</ele>
        <time>2018-08-10T06:26:44Z</time>
      </trkpt>
      <trkpt lat="44.30087" lon="6.3646">
        <ele>1345.6</ele>
        <time>2018-08-10T06:26:48Z</time>
      </trkpt>
      <trkpt lat="44.30089" lon="6.36458">
        <ele>1346.1</ele>
        <time>2018-08-10T06:26:51Z</time>
      </trkpt>
      <trkpt lat="44.30092" lon="6.36455">
        <ele>1346.6</ele>
        <time>2018-08-10T06:26:59Z</time>
      </trkpt>
      <trkpt lat="44.30095" lon="6.36454">
        <ele>1347</ele>
        <time>2018-08-10T06:27:04Z</time>
      </trkpt>
      <trkpt lat="44.30097" lon="6.36451">
        <ele>1347.7</ele>
        <time>2018-08-10T06:27:08Z</time>
      </trkpt>
      <trkpt lat="44.30099" lon="6.36448">
        <ele>1348.3</ele>
        <time>2018-08-10T06:27:12Z</time>
      </trkpt>
      <trkpt lat="44.30101" lon="6.36444">
        <ele>1349</ele>
        <time>2018-08-10T06:27:17Z</time>
      </trkpt>
      <trkpt lat="44.30103" lon="6.36443">
        <ele>1349.4</ele>
        <time>2018-08-10T06:27:21Z</time>
      </trkpt>
      <trkpt lat="44.30104" lon="6.36438">
        <ele>1349.9</ele>
        <time>2018-08-10T06:27:29Z</time>
      </trkpt>
      <trkpt lat="44.30106" lon="6.36433">
        <ele>1350.8</ele>
        <time>2018-08-10T06:27:40Z</time>
      </trkpt>
      <trkpt lat="44.30108" lon="6.3643">
        <ele>1351.3</ele>
        <time>2018-08-10T06:27:42Z</time>
      </trkpt>
      <trkpt lat="44.30111" lon="6.36429">
        <ele>1351.7</ele>
        <time>2018-08-10T06:27:44Z</time>
      </trkpt>
      <trkpt lat="44.30113" lon="6.36425">
        <ele>1352.1</ele>
        <time>2018-08-10T06:27:47Z</time>
      </trkpt>
      <trkpt lat="44.30117" lon="6.36424">
        <ele>1352.7</ele>
        <time>2018-08-10T06:27:50Z</time>
      </trkpt>
      <trkpt lat="44.30122" lon="6.36424">
        <ele>1353.4</ele>
        <time>2018-08-10T06:27:53Z</time>
      </trkpt>
      <trkpt lat="44.30126" lon="6.36424">
        <ele>1353.8</ele>
        <time>2018-08-10T06:27:56Z</time>
      </trkpt>
      <trkpt lat="44.3013" lon="6.36422">
        <ele>1354.3</ele>
        <time>2018-08-10T06:27:59Z</time>
      </trkpt>
      <trkpt lat="44.30133" lon="6.36422">
        <ele>1354.8</ele>
        <time>2018-08-10T06:28:02Z</time>
      </trkpt>
      <trkpt lat="44.30137" lon="6.36421">
        <ele>1355.3</ele>
        <time>2018-08-10T06:28:05Z</time>
      </trkpt>
      <trkpt lat="44.3014" lon="6.36421">
        <ele>1355.6</ele>
        <time>2018-08-10T06:28:07Z</time>
      </trkpt>
      <trkpt lat="44.30143" lon="6.36421">
        <ele>1355.9</ele>
        <time>2018-08-10T06:28:10Z</time>
      </trkpt>
      <trkpt lat="44.30146" lon="6.36418">
        <ele>1356.2</ele>
        <time>2018-08-10T06:28:12Z</time>
      </trkpt>
      <trkpt lat="44.30151" lon="6.36415">
        <ele>1356.9</ele>
        <time>2018-08-10T06:28:15Z</time>
      </trkpt>
      <trkpt lat="44.30157" lon="6.36412">
        <ele>1357.6</ele>
        <time>2018-08-10T06:28:17Z</time>
      </trkpt>
      <trkpt lat="44.30161" lon="6.36409">
        <ele>1357.8</ele>
        <time>2018-08-10T06:28:19Z</time>
      </trkpt>
      <trkpt lat="44.30164" lon="6.36406">
        <ele>1358</ele>
        <time>2018-08-10T06:28:20Z</time>
      </trkpt>
      <trkpt lat="44.30171" lon="6.36402">
        <ele>1358.2</ele>
        <time>2018-08-10T06:28:22Z</time>
      </trkpt>
      <trkpt lat="44.30173" lon="6.36398">
        <ele>1358.2</ele>
        <time>2018-08-10T06:28:23Z</time>
      </trkpt>
      <trkpt lat="44.30176" lon="6.36393">
        <ele>1358.2</ele>
        <time>2018-08-10T06:28:25Z</time>
      </trkpt>
      <trkpt lat="44.30179" lon="6.36391">
        <ele>1358.3</ele>
        <time>2018-08-10T06:28:26Z</time>
      </trkpt>
      <trkpt lat="44.30183" lon="6.36384">
        <ele>1358.9</ele>
        <time>2018-08-10T06:28:27Z</time>
      </trkpt>
      <trkpt lat="44.30185" lon="6.36382">
        <ele>1359.3</ele>
        <time>2018-08-10T06:28:28Z</time>
      </trkpt>
      <trkpt lat="44.30186" lon="6.36378">
        <ele>1359.9</ele>
        <time>2018-08-10T06:28:30Z</time>
      </trkpt>
      <trkpt lat="44.30189" lon="6.36376">
        <ele>1360.6</ele>
        <time>2018-08-10T06:28:33Z</time>
      </trkpt>
      <trkpt lat="44.30193" lon="6.36377">
        <ele>1361.3</ele>
        <time>2018-08-10T06:28:40Z</time>
      </trkpt>
      <trkpt lat="44.30195" lon="6.36379">
        <ele>1361.8</ele>
        <time>2018-08-10T06:28:48Z</time>
      </trkpt>
      <trkpt lat="44.30191" lon="6.36363">
        <ele>1363.1</ele>
        <time>2018-08-10T06:30:10Z</time>
      </trkpt>
      <trkpt lat="44.30189" lon="6.36362">
        <ele>1363.3</ele>
        <time>2018-08-10T06:30:20Z</time>
      </trkpt>
      <trkpt lat="44.30187" lon="6.36366">
        <ele>1363.6</ele>
        <time>2018-08-10T06:30:34Z</time>
      </trkpt>
      <trkpt lat="44.30191" lon="6.36365">
        <ele>1363.8</ele>
        <time>2018-08-10T06:30:52Z</time>
      </trkpt>
      <trkpt lat="44.30194" lon="6.36366">
        <ele>1363.9</ele>
        <time>2018-08-10T06:31:10Z</time>
      </trkpt>
      <trkpt lat="44.30197" lon="6.36364">
        <ele>1364</ele>
        <time>2018-08-10T06:31:12Z</time>
      </trkpt>
      <trkpt lat="44.30201" lon="6.36363">
        <ele>1364</ele>
        <time>2018-08-10T06:31:13Z</time>
      </trkpt>
      <trkpt lat="44.30206" lon="6.36363">
        <ele>1363.9</ele>
        <time>2018-08-10T06:31:15Z</time>
      </trkpt>
      <trkpt lat="44.3021" lon="6.36362">
        <ele>1363.9</ele>
        <time>2018-08-10T06:31:16Z</time>
      </trkpt>
      <trkpt lat="44.30215" lon="6.36357">
        <ele>1363.8</ele>
        <time>2018-08-10T06:31:18Z</time>
      </trkpt>
      <trkpt lat="44.30219" lon="6.36354">
        <ele>1363.7</ele>
        <time>2018-08-10T06:31:19Z</time>
      </trkpt>
      <trkpt lat="44.30223" lon="6.36354">
        <ele>1363.6</ele>
        <time>2018-08-10T06:31:20Z</time>
      </trkpt>
      <trkpt lat="44.30226" lon="6.36354">
        <ele>1363.4</ele>
        <time>2018-08-10T06:31:21Z</time>
      </trkpt>
      <trkpt lat="44.30229" lon="6.36349">
        <ele>1363.1</ele>
        <time>2018-08-10T06:31:23Z</time>
      </trkpt>
      <trkpt lat="44.30233" lon="6.36347">
        <ele>1362.7</ele>
        <time>2018-08-10T06:31:24Z</time>
      </trkpt>
      <trkpt lat="44.30236" lon="6.36347">
        <ele>1362.5</ele>
        <time>2018-08-10T06:31:25Z</time>
      </trkpt>
      <trkpt lat="44.30239" lon="6.36345">
        <ele>1362.2</ele>
        <time>2018-08-10T06:31:26Z</time>
      </trkpt>
      <trkpt lat="44.30244" lon="6.36345">
        <ele>1361.9</ele>
        <time>2018-08-10T06:31:27Z</time>
      </trkpt>
      <trkpt lat="44.30249" lon="6.36343">
        <ele>1361.6</ele>
        <time>2018-08-10T06:31:28Z</time>
      </trkpt>
      <trkpt lat="44.30252" lon="6.36341">
        <ele>1361.2</ele>
        <time>2018-08-10T06:31:29Z</time>
      </trkpt>
      <trkpt lat="44.30255" lon="6.3634">
        <ele>1360.8</ele>
        <time>2018-08-10T06:31:30Z</time>
      </trkpt>
      <trkpt lat="44.30257" lon="6.36337">
        <ele>1360.3</ele>
        <time>2018-08-10T06:31:31Z</time>
      </trkpt>
      <trkpt lat="44.30262" lon="6.36333">
        <ele>1359.3</ele>
        <time>2018-08-10T06:31:33Z</time>
      </trkpt>
      <trkpt lat="44.30265" lon="6.36333">
        <ele>1358.7</ele>
        <time>2018-08-10T06:31:34Z</time>
      </trkpt>
      <trkpt lat="44.30268" lon="6.3633">
        <ele>1358</ele>
        <time>2018-08-10T06:31:35Z</time>
      </trkpt>
      <trkpt lat="44.30272" lon="6.36324">
        <ele>1357.1</ele>
        <time>2018-08-10T06:31:37Z</time>
      </trkpt>
      <trkpt lat="44.30277" lon="6.36322">
        <ele>1356.6</ele>
        <time>2018-08-10T06:31:38Z</time>
      </trkpt>
      <trkpt lat="44.3028" lon="6.36321">
        <ele>1356.1</ele>
        <time>2018-08-10T06:31:39Z</time>
      </trkpt>
      <trkpt lat="44.30285" lon="6.3632">
        <ele>1355.4</ele>
        <time>2018-08-10T06:31:41Z</time>
      </trkpt>
      <trkpt lat="44.30289" lon="6.36318">
        <ele>1354.7</ele>
        <time>2018-08-10T06:31:44Z</time>
      </trkpt>
      <trkpt lat="44.30292" lon="6.36316">
        <ele>1354.1</ele>
        <time>2018-08-10T06:31:45Z</time>
      </trkpt>
      <trkpt lat="44.30295" lon="6.36318">
        <ele>1353.3</ele>
        <time>2018-08-10T06:31:47Z</time>
      </trkpt>
      <trkpt lat="44.30298" lon="6.36321">
        <ele>1352.5</ele>
        <time>2018-08-10T06:31:48Z</time>
      </trkpt>
      <trkpt lat="44.30303" lon="6.36321">
        <ele>1351.6</ele>
        <time>2018-08-10T06:31:50Z</time>
      </trkpt>
      <trkpt lat="44.30306" lon="6.3632">
        <ele>1350.9</ele>
        <time>2018-08-10T06:31:51Z</time>
      </trkpt>
      <trkpt lat="44.30309" lon="6.36318">
        <ele>1350.4</ele>
        <time>2018-08-10T06:31:53Z</time>
      </trkpt>
      <trkpt lat="44.30312" lon="6.36316">
        <ele>1350.2</ele>
        <time>2018-08-10T06:31:55Z</time>
      </trkpt>
      <trkpt lat="44.30314" lon="6.36314">
        <ele>1350</ele>
        <time>2018-08-10T06:31:56Z</time>
      </trkpt>
      <trkpt lat="44.30317" lon="6.36312">
        <ele>1349.8</ele>
        <time>2018-08-10T06:31:58Z</time>
      </trkpt>
      <trkpt lat="44.30321" lon="6.36312">
        <ele>1349.7</ele>
        <time>2018-08-10T06:32:01Z</time>
      </trkpt>
      <trkpt lat="44.30325" lon="6.3631">
        <ele>1349.5</ele>
        <time>2018-08-10T06:32:03Z</time>
      </trkpt>
      <trkpt lat="44.30328" lon="6.36311">
        <ele>1349.3</ele>
        <time>2018-08-10T06:32:05Z</time>
      </trkpt>
      <trkpt lat="44.30331" lon="6.3631">
        <ele>1349.1</ele>
        <time>2018-08-10T06:32:06Z</time>
      </trkpt>
      <trkpt lat="44.30334" lon="6.36309">
        <ele>1349</ele>
        <time>2018-08-10T06:32:08Z</time>
      </trkpt>
      <trkpt lat="44.30338" lon="6.36308">
        <ele>1348.9</ele>
        <time>2018-08-10T06:32:10Z</time>
      </trkpt>
      <trkpt lat="44.30341" lon="6.36307">
        <ele>1348.8</ele>
        <time>2018-08-10T06:32:12Z</time>
      </trkpt>
      <trkpt lat="44.30344" lon="6.36307">
        <ele>1348.8</ele>
        <time>2018-08-10T06:32:13Z</time>
      </trkpt>
      <trkpt lat="44.30348" lon="6.36307">
        <ele>1348.7</ele>
        <time>2018-08-10T06:32:15Z</time>
      </trkpt>
      <trkpt lat="44.30351" lon="6.36306">
        <ele>1348.8</ele>
        <time>2018-08-10T06:32:16Z</time>
      </trkpt>
      <trkpt lat="44.30355" lon="6.36309">
        <ele>1348.9</ele>
        <time>2018-08-10T06:32:18Z</time>
      </trkpt>
      <trkpt lat="44.30359" lon="6.3631">
        <ele>1348.9</ele>
        <time>2018-08-10T06:32:20Z</time>
      </trkpt>
      <trkpt lat="44.30362" lon="6.36309">
        <ele>1349.1</ele>
        <time>2018-08-10T06:32:21Z</time>
      </trkpt>
      <trkpt lat="44.30367" lon="6.36311">
        <ele>1349.1</ele>
        <time>2018-08-10T06:32:23Z</time>
      </trkpt>
      <trkpt lat="44.30371" lon="6.36312">
        <ele>1349.2</ele>
        <time>2018-08-10T06:32:25Z</time>
      </trkpt>
      <trkpt lat="44.30374" lon="6.36314">
        <ele>1349.3</ele>
        <time>2018-08-10T06:32:27Z</time>
      </trkpt>
      <trkpt lat="44.30377" lon="6.36315">
        <ele>1349.4</ele>
        <time>2018-08-10T06:32:29Z</time>
      </trkpt>
      <trkpt lat="44.30384" lon="6.36312">
        <ele>1349.5</ele>
        <time>2018-08-10T06:32:32Z</time>
      </trkpt>
      <trkpt lat="44.30388" lon="6.36311">
        <ele>1349.6</ele>
        <time>2018-08-10T06:32:34Z</time>
      </trkpt>
      <trkpt lat="44.30392" lon="6.36309">
        <ele>1349.6</ele>
        <time>2018-08-10T06:32:36Z</time>
      </trkpt>
      <trkpt lat="44.30397" lon="6.36308">
        <ele>1349.7</ele>
        <time>2018-08-10T06:32:38Z</time>
      </trkpt>
      <trkpt lat="44.304" lon="6.36307">
        <ele>1349.8</ele>
        <time>2018-08-10T06:32:40Z</time>
      </trkpt>
      <trkpt lat="44.30404" lon="6.36306">
        <ele>1349.8</ele>
        <time>2018-08-10T06:32:42Z</time>
      </trkpt>
      <trkpt lat="44.30407" lon="6.36306">
        <ele>1349.7</ele>
        <time>2018-08-10T06:32:44Z</time>
      </trkpt>
      <trkpt lat="44.3041" lon="6.36308">
        <ele>1349.7</ele>
        <time>2018-08-10T06:32:46Z</time>
      </trkpt>
      <trkpt lat="44.30413" lon="6.36311">
        <ele>1349.7</ele>
        <time>2018-08-10T06:32:49Z</time>
      </trkpt>
      <trkpt lat="44.30416" lon="6.36311">
        <ele>1349.7</ele>
        <time>2018-08-10T06:32:51Z</time>
      </trkpt>
      <trkpt lat="44.3042" lon="6.36313">
        <ele>1349.7</ele>
        <time>2018-08-10T06:32:54Z</time>
      </trkpt>
      <trkpt lat="44.30423" lon="6.36313">
        <ele>1349.7</ele>
        <time>2018-08-10T06:32:56Z</time>
      </trkpt>
      <trkpt lat="44.30425" lon="6.3631">
        <ele>1349.7</ele>
        <time>2018-08-10T06:32:58Z</time>
      </trkpt>
      <trkpt lat="44.30428" lon="6.36312">
        <ele>1349.6</ele>
        <time>2018-08-10T06:33:01Z</time>
      </trkpt>
      <trkpt lat="44.3043" lon="6.36314">
        <ele>1349.6</ele>
        <time>2018-08-10T06:33:03Z</time>
      </trkpt>
      <trkpt lat="44.30435" lon="6.36315">
        <ele>1349.6</ele>
        <time>2018-08-10T06:33:05Z</time>
      </trkpt>
      <trkpt lat="44.30438" lon="6.36316">
        <ele>1349.7</ele>
        <time>2018-08-10T06:33:07Z</time>
      </trkpt>
      <trkpt lat="44.30442" lon="6.36316">
        <ele>1349.7</ele>
        <time>2018-08-10T06:33:09Z</time>
      </trkpt>
      <trkpt lat="44.30445" lon="6.36317">
        <ele>1349.8</ele>
        <time>2018-08-10T06:33:12Z</time>
      </trkpt>
      <trkpt lat="44.30449" lon="6.36317">
        <ele>1349.8</ele>
        <time>2018-08-10T06:33:15Z</time>
      </trkpt>
      <trkpt lat="44.30452" lon="6.36318">
        <ele>1350</ele>
        <time>2018-08-10T06:33:21Z</time>
      </trkpt>
      <trkpt lat="44.30454" lon="6.36323">
        <ele>1350.1</ele>
        <time>2018-08-10T06:33:25Z</time>
      </trkpt>
      <trkpt lat="44.30456" lon="6.36325">
        <ele>1350.1</ele>
        <time>2018-08-10T06:33:27Z</time>
      </trkpt>
      <trkpt lat="44.3046" lon="6.36325">
        <ele>1350.2</ele>
        <time>2018-08-10T06:33:30Z</time>
      </trkpt>
      <trkpt lat="44.30463" lon="6.36321">
        <ele>1350.4</ele>
        <time>2018-08-10T06:33:33Z</time>
      </trkpt>
      <trkpt lat="44.30465" lon="6.36317">
        <ele>1350.5</ele>
        <time>2018-08-10T06:33:35Z</time>
      </trkpt>
      <trkpt lat="44.30467" lon="6.36315">
        <ele>1350.7</ele>
        <time>2018-08-10T06:33:37Z</time>
      </trkpt>
      <trkpt lat="44.30469" lon="6.36311">
        <ele>1350.8</ele>
        <time>2018-08-10T06:33:40Z</time>
      </trkpt>
      <trkpt lat="44.30472" lon="6.36308">
        <ele>1350.9</ele>
        <time>2018-08-10T06:33:42Z</time>
      </trkpt>
      <trkpt lat="44.30473" lon="6.36305">
        <ele>1350.9</ele>
        <time>2018-08-10T06:33:44Z</time>
      </trkpt>
      <trkpt lat="44.30474" lon="6.36301">
        <ele>1351</ele>
        <time>2018-08-10T06:33:46Z</time>
      </trkpt>
      <trkpt lat="44.30475" lon="6.36297">
        <ele>1351.1</ele>
        <time>2018-08-10T06:33:49Z</time>
      </trkpt>
      <trkpt lat="44.30477" lon="6.36294">
        <ele>1351.3</ele>
        <time>2018-08-10T06:33:51Z</time>
      </trkpt>
      <trkpt lat="44.30478" lon="6.36289">
        <ele>1351.5</ele>
        <time>2018-08-10T06:33:54Z</time>
      </trkpt>
      <trkpt lat="44.30479" lon="6.36285">
        <ele>1351.8</ele>
        <time>2018-08-10T06:33:56Z</time>
      </trkpt>
      <trkpt lat="44.30481" lon="6.36281">
        <ele>1352.1</ele>
        <time>2018-08-10T06:33:59Z</time>
      </trkpt>
      <trkpt lat="44.30484" lon="6.36279">
        <ele>1352.4</ele>
        <time>2018-08-10T06:34:03Z</time>
      </trkpt>
      <trkpt lat="44.30487" lon="6.36277">
        <ele>1352.7</ele>
        <time>2018-08-10T06:34:06Z</time>
      </trkpt>
      <trkpt lat="44.3049" lon="6.36275">
        <ele>1353</ele>
        <time>2018-08-10T06:34:09Z</time>
      </trkpt>
      <trkpt lat="44.30493" lon="6.36275">
        <ele>1353.1</ele>
        <time>2018-08-10T06:34:12Z</time>
      </trkpt>
      <trkpt lat="44.30497" lon="6.36275">
        <ele>1353.8</ele>
        <time>2018-08-10T06:34:19Z</time>
      </trkpt>
      <trkpt lat="44.30502" lon="6.3627">
        <ele>1354.6</ele>
        <time>2018-08-10T06:34:22Z</time>
      </trkpt>
      <trkpt lat="44.30505" lon="6.36272">
        <ele>1354.9</ele>
        <time>2018-08-10T06:34:24Z</time>
      </trkpt>
      <trkpt lat="44.30508" lon="6.36271">
        <ele>1355.2</ele>
        <time>2018-08-10T06:34:26Z</time>
      </trkpt>
      <trkpt lat="44.3051" lon="6.36269">
        <ele>1355.6</ele>
        <time>2018-08-10T06:34:28Z</time>
      </trkpt>
      <trkpt lat="44.30514" lon="6.36269">
        <ele>1356.2</ele>
        <time>2018-08-10T06:34:38Z</time>
      </trkpt>
      <trkpt lat="44.30517" lon="6.36269">
        <ele>1356.8</ele>
        <time>2018-08-10T06:34:41Z</time>
      </trkpt>
      <trkpt lat="44.3052" lon="6.3627">
        <ele>1357.1</ele>
        <time>2018-08-10T06:34:45Z</time>
      </trkpt>
      <trkpt lat="44.30524" lon="6.36271">
        <ele>1357.6</ele>
        <time>2018-08-10T06:34:53Z</time>
      </trkpt>
      <trkpt lat="44.30527" lon="6.36271">
        <ele>1357.8</ele>
        <time>2018-08-10T06:34:56Z</time>
      </trkpt>
      <trkpt lat="44.3053" lon="6.36273">
        <ele>1358</ele>
        <time>2018-08-10T06:34:59Z</time>
      </trkpt>
      <trkpt lat="44.30533" lon="6.36276">
        <ele>1358.2</ele>
        <time>2018-08-10T06:35:02Z</time>
      </trkpt>
      <trkpt lat="44.30535" lon="6.36279">
        <ele>1358.6</ele>
        <time>2018-08-10T06:35:06Z</time>
      </trkpt>
      <trkpt lat="44.30538" lon="6.3628">
        <ele>1359.1</ele>
        <time>2018-08-10T06:35:09Z</time>
      </trkpt>
      <trkpt lat="44.3054" lon="6.36283">
        <ele>1359.5</ele>
        <time>2018-08-10T06:35:14Z</time>
      </trkpt>
      <trkpt lat="44.30544" lon="6.36284">
        <ele>1359.9</ele>
        <time>2018-08-10T06:35:17Z</time>
      </trkpt>
      <trkpt lat="44.30549" lon="6.36285">
        <ele>1360.3</ele>
        <time>2018-08-10T06:35:20Z</time>
      </trkpt>
      <trkpt lat="44.30552" lon="6.36286">
        <ele>1360.5</ele>
        <time>2018-08-10T06:35:22Z</time>
      </trkpt>
      <trkpt lat="44.30555" lon="6.36288">
        <ele>1360.7</ele>
        <time>2018-08-10T06:35:24Z</time>
      </trkpt>
      <trkpt lat="44.30559" lon="6.36289">
        <ele>1361.4</ele>
        <time>2018-08-10T06:35:26Z</time>
      </trkpt>
      <trkpt lat="44.30562" lon="6.36291">
        <ele>1361.9</ele>
        <time>2018-08-10T06:35:30Z</time>
      </trkpt>
      <trkpt lat="44.30565" lon="6.36294">
        <ele>1362.3</ele>
        <time>2018-08-10T06:35:33Z</time>
      </trkpt>
      <trkpt lat="44.3057" lon="6.36294">
        <ele>1362.7</ele>
        <time>2018-08-10T06:35:35Z</time>
      </trkpt>
      <trkpt lat="44.30574" lon="6.36295">
        <ele>1363.1</ele>
        <time>2018-08-10T06:35:38Z</time>
      </trkpt>
      <trkpt lat="44.30577" lon="6.36295">
        <ele>1363.4</ele>
        <time>2018-08-10T06:35:41Z</time>
      </trkpt>
      <trkpt lat="44.3058" lon="6.36295">
        <ele>1363.8</ele>
        <time>2018-08-10T06:35:45Z</time>
      </trkpt>
      <trkpt lat="44.30585" lon="6.36296">
        <ele>1364.4</ele>
        <time>2018-08-10T06:35:47Z</time>
      </trkpt>
      <trkpt lat="44.30588" lon="6.36297">
        <ele>1364.7</ele>
        <time>2018-08-10T06:35:50Z</time>
      </trkpt>
      <trkpt lat="44.30592" lon="6.36297">
        <ele>1365</ele>
        <time>2018-08-10T06:35:52Z</time>
      </trkpt>
      <trkpt lat="44.30595" lon="6.36294">
        <ele>1365.5</ele>
        <time>2018-08-10T06:35:54Z</time>
      </trkpt>
      <trkpt lat="44.30598" lon="6.36293">
        <ele>1365.8</ele>
        <time>2018-08-10T06:35:55Z</time>
      </trkpt>
      <trkpt lat="44.30602" lon="6.36293">
        <ele>1366.2</ele>
        <time>2018-08-10T06:35:57Z</time>
      </trkpt>
      <trkpt lat="44.30604" lon="6.36294">
        <ele>1366.5</ele>
        <time>2018-08-10T06:35:59Z</time>
      </trkpt>
      <trkpt lat="44.30608" lon="6.36296">
        <ele>1366.8</ele>
        <time>2018-08-10T06:36:02Z</time>
      </trkpt>
      <trkpt lat="44.30613" lon="6.36297">
        <ele>1367.4</ele>
        <time>2018-08-10T06:36:04Z</time>
      </trkpt>
      <trkpt lat="44.30617" lon="6.36299">
        <ele>1368.1</ele>
        <time>2018-08-10T06:36:06Z</time>
      </trkpt>
      <trkpt lat="44.3062" lon="6.36299">
        <ele>1368.4</ele>
        <time>2018-08-10T06:36:07Z</time>
      </trkpt>
      <trkpt lat="44.30624" lon="6.36298">
        <ele>1368.7</ele>
        <time>2018-08-10T06:36:08Z</time>
      </trkpt>
      <trkpt lat="44.30629" lon="6.36296">
        <ele>1369.1</ele>
        <time>2018-08-10T06:36:10Z</time>
      </trkpt>
      <trkpt lat="44.30632" lon="6.36295">
        <ele>1369.3</ele>
        <time>2018-08-10T06:36:12Z</time>
      </trkpt>
      <trkpt lat="44.30635" lon="6.36292">
        <ele>1369.6</ele>
        <time>2018-08-10T06:36:14Z</time>
      </trkpt>
      <trkpt lat="44.30638" lon="6.3629">
        <ele>1370</ele>
        <time>2018-08-10T06:36:16Z</time>
      </trkpt>
      <trkpt lat="44.30642" lon="6.36289">
        <ele>1370.4</ele>
        <time>2018-08-10T06:36:18Z</time>
      </trkpt>
      <trkpt lat="44.30645" lon="6.36288">
        <ele>1370.7</ele>
        <time>2018-08-10T06:36:20Z</time>
      </trkpt>
      <trkpt lat="44.30647" lon="6.36285">
        <ele>1370.9</ele>
        <time>2018-08-10T06:36:22Z</time>
      </trkpt>
      <trkpt lat="44.3065" lon="6.36284">
        <ele>1371.1</ele>
        <time>2018-08-10T06:36:25Z</time>
      </trkpt>
      <trkpt lat="44.30652" lon="6.3628">
        <ele>1371.3</ele>
        <time>2018-08-10T06:36:28Z</time>
      </trkpt>
      <trkpt lat="44.30654" lon="6.36278">
        <ele>1371.4</ele>
        <time>2018-08-10T06:36:30Z</time>
      </trkpt>
      <trkpt lat="44.30658" lon="6.36275">
        <ele>1371.5</ele>
        <time>2018-08-10T06:36:32Z</time>
      </trkpt>
      <trkpt lat="44.30661" lon="6.36275">
        <ele>1371.6</ele>
        <time>2018-08-10T06:36:34Z</time>
      </trkpt>
      <trkpt lat="44.30664" lon="6.36277">
        <ele>1371.7</ele>
        <time>2018-08-10T06:36:36Z</time>
      </trkpt>
      <trkpt lat="44.30666" lon="6.3628">
        <ele>1371.9</ele>
        <time>2018-08-10T06:36:40Z</time>
      </trkpt>
      <trkpt lat="44.30669" lon="6.36279">
        <ele>1372</ele>
        <time>2018-08-10T06:36:43Z</time>
      </trkpt>
      <trkpt lat="44.30672" lon="6.36277">
        <ele>1372.1</ele>
        <time>2018-08-10T06:36:45Z</time>
      </trkpt>
      <trkpt lat="44.30674" lon="6.36274">
        <ele>1372.2</ele>
        <time>2018-08-10T06:36:50Z</time>
      </trkpt>
      <trkpt lat="44.30677" lon="6.3627">
        <ele>1372.1</ele>
        <time>2018-08-10T06:36:52Z</time>
      </trkpt>
      <trkpt lat="44.30681" lon="6.36268">
        <ele>1372</ele>
        <time>2018-08-10T06:36:54Z</time>
      </trkpt>
      <trkpt lat="44.30684" lon="6.36263">
        <ele>1372.2</ele>
        <time>2018-08-10T06:36:57Z</time>
      </trkpt>
      <trkpt lat="44.30687" lon="6.36261">
        <ele>1372.4</ele>
        <time>2018-08-10T06:36:59Z</time>
      </trkpt>
      <trkpt lat="44.30687" lon="6.36257">
        <ele>1372.5</ele>
        <time>2018-08-10T06:37:10Z</time>
      </trkpt>
      <trkpt lat="44.3069" lon="6.36256">
        <ele>1372.5</ele>
        <time>2018-08-10T06:37:49Z</time>
      </trkpt>
      <trkpt lat="44.30693" lon="6.36251">
        <ele>1372.6</ele>
        <time>2018-08-10T06:37:52Z</time>
      </trkpt>
      <trkpt lat="44.30695" lon="6.36248">
        <ele>1372.7</ele>
        <time>2018-08-10T06:37:53Z</time>
      </trkpt>
      <trkpt lat="44.30698" lon="6.36245">
        <ele>1372.7</ele>
        <time>2018-08-10T06:37:54Z</time>
      </trkpt>
      <trkpt lat="44.30701" lon="6.36243">
        <ele>1372.7</ele>
        <time>2018-08-10T06:37:55Z</time>
      </trkpt>
      <trkpt lat="44.30705" lon="6.36238">
        <ele>1372.8</ele>
        <time>2018-08-10T06:37:57Z</time>
      </trkpt>
      <trkpt lat="44.30708" lon="6.36235">
        <ele>1372.9</ele>
        <time>2018-08-10T06:37:59Z</time>
      </trkpt>
      <trkpt lat="44.30714" lon="6.36233">
        <ele>1372.5</ele>
        <time>2018-08-10T06:38:01Z</time>
      </trkpt>
      <trkpt lat="44.30717" lon="6.36229">
        <ele>1372.1</ele>
        <time>2018-08-10T06:38:04Z</time>
      </trkpt>
      <trkpt lat="44.30719" lon="6.36225">
        <ele>1371.6</ele>
        <time>2018-08-10T06:38:06Z</time>
      </trkpt>
      <trkpt lat="44.30721" lon="6.36222">
        <ele>1371.3</ele>
        <time>2018-08-10T06:38:09Z</time>
      </trkpt>
      <trkpt lat="44.30724" lon="6.36219">
        <ele>1371.1</ele>
        <time>2018-08-10T06:38:11Z</time>
      </trkpt>
      <trkpt lat="44.30727" lon="6.36216">
        <ele>1370.8</ele>
        <time>2018-08-10T06:38:14Z</time>
      </trkpt>
      <trkpt lat="44.3073" lon="6.36214">
        <ele>1370.6</ele>
        <time>2018-08-10T06:38:16Z</time>
      </trkpt>
      <trkpt lat="44.30731" lon="6.3621">
        <ele>1370.4</ele>
        <time>2018-08-10T06:38:22Z</time>
      </trkpt>
      <trkpt lat="44.30734" lon="6.36208">
        <ele>1370.2</ele>
        <time>2018-08-10T06:38:23Z</time>
      </trkpt>
      <trkpt lat="44.30737" lon="6.36206">
        <ele>1370</ele>
        <time>2018-08-10T06:38:27Z</time>
      </trkpt>
      <trkpt lat="44.30735" lon="6.36202">
        <ele>1370</ele>
        <time>2018-08-10T06:38:29Z</time>
      </trkpt>
      <trkpt lat="44.30738" lon="6.36203">
        <ele>1370</ele>
        <time>2018-08-10T06:38:35Z</time>
      </trkpt>
      <trkpt lat="44.30742" lon="6.36203">
        <ele>1370</ele>
        <time>2018-08-10T06:38:40Z</time>
      </trkpt>
      <trkpt lat="44.30745" lon="6.36203">
        <ele>1370.1</ele>
        <time>2018-08-10T06:38:54Z</time>
      </trkpt>
      <trkpt lat="44.30746" lon="6.36199">
        <ele>1370.1</ele>
        <time>2018-08-10T06:38:57Z</time>
      </trkpt>
      <trkpt lat="44.30748" lon="6.36195">
        <ele>1370.2</ele>
        <time>2018-08-10T06:38:59Z</time>
      </trkpt>
      <trkpt lat="44.30749" lon="6.36191">
        <ele>1370.3</ele>
        <time>2018-08-10T06:39:05Z</time>
      </trkpt>
      <trkpt lat="44.30753" lon="6.36189">
        <ele>1370.3</ele>
        <time>2018-08-10T06:39:08Z</time>
      </trkpt>
      <trkpt lat="44.30756" lon="6.36188">
        <ele>1370.4</ele>
        <time>2018-08-10T06:39:11Z</time>
      </trkpt>
      <trkpt lat="44.30759" lon="6.36188">
        <ele>1370.4</ele>
        <time>2018-08-10T06:39:14Z</time>
      </trkpt>
      <trkpt lat="44.30762" lon="6.36188">
        <ele>1370.4</ele>
        <time>2018-08-10T06:39:17Z</time>
      </trkpt>
      <trkpt lat="44.30765" lon="6.36188">
        <ele>1370.4</ele>
        <time>2018-08-10T06:39:21Z</time>
      </trkpt>
      <trkpt lat="44.30769" lon="6.36188">
        <ele>1370.3</ele>
        <time>2018-08-10T06:39:28Z</time>
      </trkpt>
      <trkpt lat="44.30771" lon="6.3619">
        <ele>1370.3</ele>
        <time>2018-08-10T06:39:33Z</time>
      </trkpt>
      <trkpt lat="44.30774" lon="6.36189">
        <ele>1370.2</ele>
        <time>2018-08-10T06:39:38Z</time>
      </trkpt>
      <trkpt lat="44.30778" lon="6.3619">
        <ele>1370.2</ele>
        <time>2018-08-10T06:39:46Z</time>
      </trkpt>
      <trkpt lat="44.30782" lon="6.36188">
        <ele>1370.1</ele>
        <time>2018-08-10T06:39:50Z</time>
      </trkpt>
      <trkpt lat="44.30784" lon="6.36188">
        <ele>1370</ele>
        <time>2018-08-10T06:40:00Z</time>
      </trkpt>
      <trkpt lat="44.30787" lon="6.36185">
        <ele>1369.9</ele>
        <time>2018-08-10T06:40:02Z</time>
      </trkpt>
      <trkpt lat="44.3079" lon="6.36183">
        <ele>1369.8</ele>
        <time>2018-08-10T06:40:05Z</time>
      </trkpt>
      <trkpt lat="44.30793" lon="6.36185">
        <ele>1369.7</ele>
        <time>2018-08-10T06:40:13Z</time>
      </trkpt>
      <trkpt lat="44.30796" lon="6.36184">
        <ele>1369.6</ele>
        <time>2018-08-10T06:40:15Z</time>
      </trkpt>
      <trkpt lat="44.30798" lon="6.36186">
        <ele>1369.6</ele>
        <time>2018-08-10T06:40:20Z</time>
      </trkpt>
      <trkpt lat="44.30802" lon="6.36187">
        <ele>1369.5</ele>
        <time>2018-08-10T06:40:22Z</time>
      </trkpt>
      <trkpt lat="44.30806" lon="6.36189">
        <ele>1369.5</ele>
        <time>2018-08-10T06:40:25Z</time>
      </trkpt>
      <trkpt lat="44.30809" lon="6.36188">
        <ele>1369.5</ele>
        <time>2018-08-10T06:40:27Z</time>
      </trkpt>
      <trkpt lat="44.30813" lon="6.36188">
        <ele>1369.4</ele>
        <time>2018-08-10T06:40:29Z</time>
      </trkpt>
      <trkpt lat="44.30816" lon="6.36187">
        <ele>1369.5</ele>
        <time>2018-08-10T06:40:31Z</time>
      </trkpt>
      <trkpt lat="44.30819" lon="6.36186">
        <ele>1369.5</ele>
        <time>2018-08-10T06:40:32Z</time>
      </trkpt>
      <trkpt lat="44.30821" lon="6.36186">
        <ele>1369.5</ele>
        <time>2018-08-10T06:40:34Z</time>
      </trkpt>
      <trkpt lat="44.30825" lon="6.36185">
        <ele>1369.5</ele>
        <time>2018-08-10T06:40:37Z</time>
      </trkpt>
      <trkpt lat="44.30828" lon="6.36186">
        <ele>1369.6</ele>
        <time>2018-08-10T06:40:39Z</time>
      </trkpt>
      <trkpt lat="44.30831" lon="6.36185">
        <ele>1369.6</ele>
        <time>2018-08-10T06:40:42Z</time>
      </trkpt>
      <trkpt lat="44.30833" lon="6.36181">
        <ele>1369.7</ele>
        <time>2018-08-10T06:40:45Z</time>
      </trkpt>
      <trkpt lat="44.30836" lon="6.36179">
        <ele>1369.8</ele>
        <time>2018-08-10T06:40:47Z</time>
      </trkpt>
      <trkpt lat="44.3084" lon="6.36176">
        <ele>1369.9</ele>
        <time>2018-08-10T06:40:50Z</time>
      </trkpt>
      <trkpt lat="44.30843" lon="6.36172">
        <ele>1370</ele>
        <time>2018-08-10T06:40:53Z</time>
      </trkpt>
      <trkpt lat="44.30846" lon="6.36169">
        <ele>1370.2</ele>
        <time>2018-08-10T06:40:55Z</time>
      </trkpt>
      <trkpt lat="44.30848" lon="6.36168">
        <ele>1370.3</ele>
        <time>2018-08-10T06:40:57Z</time>
      </trkpt>
      <trkpt lat="44.30852" lon="6.36166">
        <ele>1370.4</ele>
        <time>2018-08-10T06:40:59Z</time>
      </trkpt>
      <trkpt lat="44.30854" lon="6.36164">
        <ele>1370.6</ele>
        <time>2018-08-10T06:41:01Z</time>
      </trkpt>
      <trkpt lat="44.30857" lon="6.36162">
        <ele>1370.8</ele>
        <time>2018-08-10T06:41:04Z</time>
      </trkpt>
      <trkpt lat="44.3086" lon="6.36162">
        <ele>1371.1</ele>
        <time>2018-08-10T06:41:06Z</time>
      </trkpt>
      <trkpt lat="44.30864" lon="6.36163">
        <ele>1371.3</ele>
        <time>2018-08-10T06:41:09Z</time>
      </trkpt>
      <trkpt lat="44.30867" lon="6.36163">
        <ele>1371.8</ele>
        <time>2018-08-10T06:41:12Z</time>
      </trkpt>
      <trkpt lat="44.30871" lon="6.36165">
        <ele>1372.3</ele>
        <time>2018-08-10T06:41:15Z</time>
      </trkpt>
      <trkpt lat="44.30874" lon="6.36166">
        <ele>1372.4</ele>
        <time>2018-08-10T06:41:18Z</time>
      </trkpt>
      <trkpt lat="44.30876" lon="6.36167">
        <ele>1372.4</ele>
        <time>2018-08-10T06:41:20Z</time>
      </trkpt>
      <trkpt lat="44.30879" lon="6.36168">
        <ele>1372.5</ele>
        <time>2018-08-10T06:41:22Z</time>
      </trkpt>
      <trkpt lat="44.30882" lon="6.36168">
        <ele>1372.7</ele>
        <time>2018-08-10T06:41:24Z</time>
      </trkpt>
      <trkpt lat="44.30886" lon="6.36167">
        <ele>1373</ele>
        <time>2018-08-10T06:41:27Z</time>
      </trkpt>
      <trkpt lat="44.3089" lon="6.36165">
        <ele>1373.2</ele>
        <time>2018-08-10T06:41:30Z</time>
      </trkpt>
      <trkpt lat="44.30893" lon="6.36167">
        <ele>1373.3</ele>
        <time>2018-08-10T06:41:32Z</time>
      </trkpt>
      <trkpt lat="44.30896" lon="6.36168">
        <ele>1373.4</ele>
        <time>2018-08-10T06:41:34Z</time>
      </trkpt>
      <trkpt lat="44.30899" lon="6.36167">
        <ele>1373.6</ele>
        <time>2018-08-10T06:41:36Z</time>
      </trkpt>
      <trkpt lat="44.30902" lon="6.36165">
        <ele>1373.7</ele>
        <time>2018-08-10T06:41:37Z</time>
      </trkpt>
      <trkpt lat="44.30905" lon="6.36163">
        <ele>1373.8</ele>
        <time>2018-08-10T06:41:39Z</time>
      </trkpt>
      <trkpt lat="44.30909" lon="6.36163">
        <ele>1373.8</ele>
        <time>2018-08-10T06:41:41Z</time>
      </trkpt>
      <trkpt lat="44.30914" lon="6.36164">
        <ele>1373.9</ele>
        <time>2018-08-10T06:41:43Z</time>
      </trkpt>
      <trkpt lat="44.30917" lon="6.36165">
        <ele>1374</ele>
        <time>2018-08-10T06:41:45Z</time>
      </trkpt>
      <trkpt lat="44.30921" lon="6.36166">
        <ele>1374</ele>
        <time>2018-08-10T06:41:47Z</time>
      </trkpt>
      <trkpt lat="44.30924" lon="6.36169">
        <ele>1374.1</ele>
        <time>2018-08-10T06:41:50Z</time>
      </trkpt>
      <trkpt lat="44.30928" lon="6.36172">
        <ele>1374.2</ele>
        <time>2018-08-10T06:41:53Z</time>
      </trkpt>
      <trkpt lat="44.30929" lon="6.36176">
        <ele>1374.2</ele>
        <time>2018-08-10T06:41:56Z</time>
      </trkpt>
      <trkpt lat="44.30932" lon="6.36181">
        <ele>1374.2</ele>
        <time>2018-08-10T06:41:58Z</time>
      </trkpt>
      <trkpt lat="44.30936" lon="6.36183">
        <ele>1374.2</ele>
        <time>2018-08-10T06:42:00Z</time>
      </trkpt>
      <trkpt lat="44.3094" lon="6.36181">
        <ele>1374.4</ele>
        <time>2018-08-10T06:42:02Z</time>
      </trkpt>
      <trkpt lat="44.30943" lon="6.36181">
        <ele>1374.5</ele>
        <time>2018-08-10T06:42:04Z</time>
      </trkpt>
      <trkpt lat="44.30946" lon="6.3618">
        <ele>1374.7</ele>
        <time>2018-08-10T06:42:06Z</time>
      </trkpt>
      <trkpt lat="44.30949" lon="6.36181">
        <ele>1374.8</ele>
        <time>2018-08-10T06:42:08Z</time>
      </trkpt>
      <trkpt lat="44.30953" lon="6.36181">
        <ele>1374.9</ele>
        <time>2018-08-10T06:42:10Z</time>
      </trkpt>
      <trkpt lat="44.30956" lon="6.36179">
        <ele>1374.9</ele>
        <time>2018-08-10T06:42:11Z</time>
      </trkpt>
      <trkpt lat="44.3096" lon="6.36176">
        <ele>1374.9</ele>
        <time>2018-08-10T06:42:13Z</time>
      </trkpt>
      <trkpt lat="44.30963" lon="6.36176">
        <ele>1375</ele>
        <time>2018-08-10T06:42:15Z</time>
      </trkpt>
      <trkpt lat="44.30969" lon="6.36175">
        <ele>1375.1</ele>
        <time>2018-08-10T06:42:17Z</time>
      </trkpt>
      <trkpt lat="44.30972" lon="6.36175">
        <ele>1375.2</ele>
        <time>2018-08-10T06:42:19Z</time>
      </trkpt>
      <trkpt lat="44.30976" lon="6.36176">
        <ele>1375.4</ele>
        <time>2018-08-10T06:42:21Z</time>
      </trkpt>
      <trkpt lat="44.3098" lon="6.36176">
        <ele>1375.6</ele>
        <time>2018-08-10T06:42:25Z</time>
      </trkpt>
      <trkpt lat="44.30982" lon="6.36177">
        <ele>1375.8</ele>
        <time>2018-08-10T06:42:26Z</time>
      </trkpt>
      <trkpt lat="44.30985" lon="6.36176">
        <ele>1375.9</ele>
        <time>2018-08-10T06:42:27Z</time>
      </trkpt>
      <trkpt lat="44.30989" lon="6.36177">
        <ele>1376.2</ele>
        <time>2018-08-10T06:42:30Z</time>
      </trkpt>
      <trkpt lat="44.30994" lon="6.36175">
        <ele>1376.6</ele>
        <time>2018-08-10T06:42:33Z</time>
      </trkpt>
      <trkpt lat="44.30998" lon="6.36175">
        <ele>1377</ele>
        <time>2018-08-10T06:42:35Z</time>
      </trkpt>
      <trkpt lat="44.31003" lon="6.36175">
        <ele>1377.7</ele>
        <time>2018-08-10T06:42:39Z</time>
      </trkpt>
      <trkpt lat="44.31008" lon="6.36174">
        <ele>1378.3</ele>
        <time>2018-08-10T06:42:41Z</time>
      </trkpt>
      <trkpt lat="44.31013" lon="6.36173">
        <ele>1378.7</ele>
        <time>2018-08-10T06:42:43Z</time>
      </trkpt>
      <trkpt lat="44.31016" lon="6.36174">
        <ele>1379</ele>
        <time>2018-08-10T06:42:45Z</time>
      </trkpt>
      <trkpt lat="44.31018" lon="6.36174">
        <ele>1379.2</ele>
        <time>2018-08-10T06:42:46Z</time>
      </trkpt>
      <trkpt lat="44.31021" lon="6.36174">
        <ele>1379.5</ele>
        <time>2018-08-10T06:42:47Z</time>
      </trkpt>
      <trkpt lat="44.31025" lon="6.36175">
        <ele>1379.7</ele>
        <time>2018-08-10T06:42:50Z</time>
      </trkpt>
      <trkpt lat="44.31029" lon="6.36176">
        <ele>1380.1</ele>
        <time>2018-08-10T06:42:52Z</time>
      </trkpt>
      <trkpt lat="44.31034" lon="6.36174">
        <ele>1380.5</ele>
        <time>2018-08-10T06:42:54Z</time>
      </trkpt>
      <trkpt lat="44.31037" lon="6.36173">
        <ele>1380.9</ele>
        <time>2018-08-10T06:42:56Z</time>
      </trkpt>
      <trkpt lat="44.31043" lon="6.36175">
        <ele>1381.3</ele>
        <time>2018-08-10T06:42:58Z</time>
      </trkpt>
      <trkpt lat="44.31048" lon="6.36177">
        <ele>1381.5</ele>
        <time>2018-08-10T06:43:00Z</time>
      </trkpt>
      <trkpt lat="44.31053" lon="6.36177">
        <ele>1381.7</ele>
        <time>2018-08-10T06:43:02Z</time>
      </trkpt>
      <trkpt lat="44.31055" lon="6.36178">
        <ele>1382</ele>
        <time>2018-08-10T06:43:04Z</time>
      </trkpt>
      <trkpt lat="44.31059" lon="6.36178">
        <ele>1382.2</ele>
        <time>2018-08-10T06:43:06Z</time>
      </trkpt>
      <trkpt lat="44.31063" lon="6.36176">
        <ele>1382.6</ele>
        <time>2018-08-10T06:43:08Z</time>
      </trkpt>
      <trkpt lat="44.31067" lon="6.36179">
        <ele>1382.9</ele>
        <time>2018-08-10T06:43:11Z</time>
      </trkpt>
      <trkpt lat="44.3107" lon="6.36177">
        <ele>1383.1</ele>
        <time>2018-08-10T06:43:15Z</time>
      </trkpt>
      <trkpt lat="44.31073" lon="6.36179">
        <ele>1383.3</ele>
        <time>2018-08-10T06:43:34Z</time>
      </trkpt>
      <trkpt lat="44.31071" lon="6.36182">
        <ele>1383.3</ele>
        <time>2018-08-10T06:43:40Z</time>
      </trkpt>
      <trkpt lat="44.31074" lon="6.36183">
        <ele>1383.4</ele>
        <time>2018-08-10T06:44:24Z</time>
      </trkpt>
      <trkpt lat="44.3107" lon="6.36181">
        <ele>1383.6</ele>
        <time>2018-08-10T06:44:38Z</time>
      </trkpt>
      <trkpt lat="44.31074" lon="6.36183">
        <ele>1383.8</ele>
        <time>2018-08-10T06:44:53Z</time>
      </trkpt>
      <trkpt lat="44.31077" lon="6.36183">
        <ele>1384</ele>
        <time>2018-08-10T06:44:57Z</time>
      </trkpt>
      <trkpt lat="44.31081" lon="6.36184">
        <ele>1384.3</ele>
        <time>2018-08-10T06:44:59Z</time>
      </trkpt>
      <trkpt lat="44.31084" lon="6.36184">
        <ele>1384.6</ele>
        <time>2018-08-10T06:45:01Z</time>
      </trkpt>
      <trkpt lat="44.31089" lon="6.36185">
        <ele>1385</ele>
        <time>2018-08-10T06:45:03Z</time>
      </trkpt>
      <trkpt lat="44.31094" lon="6.36185">
        <ele>1385.4</ele>
        <time>2018-08-10T06:45:05Z</time>
      </trkpt>
      <trkpt lat="44.31097" lon="6.36185">
        <ele>1385.7</ele>
        <time>2018-08-10T06:45:08Z</time>
      </trkpt>
      <trkpt lat="44.31101" lon="6.36185">
        <ele>1386</ele>
        <time>2018-08-10T06:45:11Z</time>
      </trkpt>
      <trkpt lat="44.31105" lon="6.36186">
        <ele>1386.3</ele>
        <time>2018-08-10T06:45:13Z</time>
      </trkpt>
      <trkpt lat="44.31109" lon="6.36185">
        <ele>1386.7</ele>
        <time>2018-08-10T06:45:15Z</time>
      </trkpt>
      <trkpt lat="44.31112" lon="6.36185">
        <ele>1387</ele>
        <time>2018-08-10T06:45:17Z</time>
      </trkpt>
      <trkpt lat="44.31115" lon="6.36186">
        <ele>1387.3</ele>
        <time>2018-08-10T06:45:19Z</time>
      </trkpt>
      <trkpt lat="44.31118" lon="6.36186">
        <ele>1387.4</ele>
        <time>2018-08-10T06:45:21Z</time>
      </trkpt>
      <trkpt lat="44.31121" lon="6.36185">
        <ele>1387.6</ele>
        <time>2018-08-10T06:45:23Z</time>
      </trkpt>
      <trkpt lat="44.31124" lon="6.36185">
        <ele>1387.7</ele>
        <time>2018-08-10T06:45:25Z</time>
      </trkpt>
      <trkpt lat="44.31127" lon="6.36185">
        <ele>1387.9</ele>
        <time>2018-08-10T06:45:27Z</time>
      </trkpt>
      <trkpt lat="44.3113" lon="6.36186">
        <ele>1388.1</ele>
        <time>2018-08-10T06:45:29Z</time>
      </trkpt>
      <trkpt lat="44.31133" lon="6.36187">
        <ele>1388.3</ele>
        <time>2018-08-10T06:45:31Z</time>
      </trkpt>
      <trkpt lat="44.31136" lon="6.36188">
        <ele>1388.5</ele>
        <time>2018-08-10T06:45:33Z</time>
      </trkpt>
      <trkpt lat="44.31139" lon="6.36188">
        <ele>1388.6</ele>
        <time>2018-08-10T06:45:35Z</time>
      </trkpt>
      <trkpt lat="44.31142" lon="6.36189">
        <ele>1388.9</ele>
        <time>2018-08-10T06:45:37Z</time>
      </trkpt>
      <trkpt lat="44.31145" lon="6.36189">
        <ele>1389.1</ele>
        <time>2018-08-10T06:45:39Z</time>
      </trkpt>
      <trkpt lat="44.31149" lon="6.36189">
        <ele>1389.4</ele>
        <time>2018-08-10T06:45:42Z</time>
      </trkpt>
      <trkpt lat="44.31152" lon="6.3619">
        <ele>1389.7</ele>
        <time>2018-08-10T06:45:44Z</time>
      </trkpt>
      <trkpt lat="44.31156" lon="6.3619">
        <ele>1390.1</ele>
        <time>2018-08-10T06:45:47Z</time>
      </trkpt>
      <trkpt lat="44.31159" lon="6.36191">
        <ele>1390.4</ele>
        <time>2018-08-10T06:45:49Z</time>
      </trkpt>
      <trkpt lat="44.31161" lon="6.36191">
        <ele>1390.7</ele>
        <time>2018-08-10T06:45:51Z</time>
      </trkpt>
      <trkpt lat="44.31165" lon="6.36191">
        <ele>1391</ele>
        <time>2018-08-10T06:45:53Z</time>
      </trkpt>
      <trkpt lat="44.31167" lon="6.3619">
        <ele>1391.4</ele>
        <time>2018-08-10T06:45:55Z</time>
      </trkpt>
      <trkpt lat="44.31171" lon="6.36191">
        <ele>1391.8</ele>
        <time>2018-08-10T06:45:58Z</time>
      </trkpt>
      <trkpt lat="44.31174" lon="6.36191">
        <ele>1392.2</ele>
        <time>2018-08-10T06:46:00Z</time>
      </trkpt>
      <trkpt lat="44.31178" lon="6.36192">
        <ele>1392.6</ele>
        <time>2018-08-10T06:46:03Z</time>
      </trkpt>
      <trkpt lat="44.31181" lon="6.36191">
        <ele>1392.9</ele>
        <time>2018-08-10T06:46:05Z</time>
      </trkpt>
      <trkpt lat="44.31184" lon="6.36191">
        <ele>1393.1</ele>
        <time>2018-08-10T06:46:07Z</time>
      </trkpt>
      <trkpt lat="44.31187" lon="6.36191">
        <ele>1393.3</ele>
        <time>2018-08-10T06:46:09Z</time>
      </trkpt>
      <trkpt lat="44.3119" lon="6.3619">
        <ele>1393.6</ele>
        <time>2018-08-10T06:46:11Z</time>
      </trkpt>
      <trkpt lat="44.31194" lon="6.36188">
        <ele>1393.9</ele>
        <time>2018-08-10T06:46:13Z</time>
      </trkpt>
      <trkpt lat="44.31198" lon="6.36187">
        <ele>1394.2</ele>
        <time>2018-08-10T06:46:16Z</time>
      </trkpt>
      <trkpt lat="44.31202" lon="6.36184">
        <ele>1394.4</ele>
        <time>2018-08-10T06:46:19Z</time>
      </trkpt>
      <trkpt lat="44.31205" lon="6.36183">
        <ele>1394.6</ele>
        <time>2018-08-10T06:46:21Z</time>
      </trkpt>
      <trkpt lat="44.31208" lon="6.3618">
        <ele>1394.7</ele>
        <time>2018-08-10T06:46:23Z</time>
      </trkpt>
      <trkpt lat="44.31211" lon="6.36177">
        <ele>1394.8</ele>
        <time>2018-08-10T06:46:25Z</time>
      </trkpt>
      <trkpt lat="44.31214" lon="6.36174">
        <ele>1395.1</ele>
        <time>2018-08-10T06:46:27Z</time>
      </trkpt>
      <trkpt lat="44.31218" lon="6.36172">
        <ele>1395.4</ele>
        <time>2018-08-10T06:46:29Z</time>
      </trkpt>
      <trkpt lat="44.31221" lon="6.36168">
        <ele>1395.6</ele>
        <time>2018-08-10T06:46:31Z</time>
      </trkpt>
      <trkpt lat="44.31224" lon="6.36166">
        <ele>1395.8</ele>
        <time>2018-08-10T06:46:33Z</time>
      </trkpt>
      <trkpt lat="44.31226" lon="6.36164">
        <ele>1395.9</ele>
        <time>2018-08-10T06:46:35Z</time>
      </trkpt>
      <trkpt lat="44.31229" lon="6.3616">
        <ele>1396.2</ele>
        <time>2018-08-10T06:46:37Z</time>
      </trkpt>
      <trkpt lat="44.31231" lon="6.36156">
        <ele>1396.4</ele>
        <time>2018-08-10T06:46:40Z</time>
      </trkpt>
      <trkpt lat="44.31234" lon="6.36152">
        <ele>1396.7</ele>
        <time>2018-08-10T06:46:42Z</time>
      </trkpt>
      <trkpt lat="44.31237" lon="6.36148">
        <ele>1396.8</ele>
        <time>2018-08-10T06:46:44Z</time>
      </trkpt>
      <trkpt lat="44.3124" lon="6.36145">
        <ele>1396.9</ele>
        <time>2018-08-10T06:46:47Z</time>
      </trkpt>
      <trkpt lat="44.31243" lon="6.36145">
        <ele>1397</ele>
        <time>2018-08-10T06:46:49Z</time>
      </trkpt>
      <trkpt lat="44.31246" lon="6.36144">
        <ele>1397.1</ele>
        <time>2018-08-10T06:46:52Z</time>
      </trkpt>
      <trkpt lat="44.31251" lon="6.36143">
        <ele>1397.2</ele>
        <time>2018-08-10T06:46:55Z</time>
      </trkpt>
      <trkpt lat="44.31255" lon="6.36143">
        <ele>1397.4</ele>
        <time>2018-08-10T06:46:57Z</time>
      </trkpt>
      <trkpt lat="44.31258" lon="6.36145">
        <ele>1397.4</ele>
        <time>2018-08-10T06:46:59Z</time>
      </trkpt>
      <trkpt lat="44.31262" lon="6.36145">
        <ele>1397.5</ele>
        <time>2018-08-10T06:47:01Z</time>
      </trkpt>
      <trkpt lat="44.31267" lon="6.36146">
        <ele>1397.7</ele>
        <time>2018-08-10T06:47:04Z</time>
      </trkpt>
      <trkpt lat="44.31271" lon="6.36145">
        <ele>1397.8</ele>
        <time>2018-08-10T06:47:06Z</time>
      </trkpt>
      <trkpt lat="44.31274" lon="6.36145">
        <ele>1397.9</ele>
        <time>2018-08-10T06:47:08Z</time>
      </trkpt>
      <trkpt lat="44.31278" lon="6.36144">
        <ele>1398.1</ele>
        <time>2018-08-10T06:47:10Z</time>
      </trkpt>
      <trkpt lat="44.31282" lon="6.36144">
        <ele>1398.3</ele>
        <time>2018-08-10T06:47:12Z</time>
      </trkpt>
      <trkpt lat="44.31285" lon="6.36144">
        <ele>1398.5</ele>
        <time>2018-08-10T06:47:14Z</time>
      </trkpt>
      <trkpt lat="44.31289" lon="6.36145">
        <ele>1398.7</ele>
        <time>2018-08-10T06:47:17Z</time>
      </trkpt>
      <trkpt lat="44.31293" lon="6.36146">
        <ele>1398.9</ele>
        <time>2018-08-10T06:47:20Z</time>
      </trkpt>
      <trkpt lat="44.31296" lon="6.36148">
        <ele>1399.1</ele>
        <time>2018-08-10T06:47:22Z</time>
      </trkpt>
      <trkpt lat="44.31299" lon="6.36149">
        <ele>1399.3</ele>
        <time>2018-08-10T06:47:27Z</time>
      </trkpt>
      <trkpt lat="44.31301" lon="6.36152">
        <ele>1399.5</ele>
        <time>2018-08-10T06:47:30Z</time>
      </trkpt>
      <trkpt lat="44.31305" lon="6.36154">
        <ele>1399.8</ele>
        <time>2018-08-10T06:47:33Z</time>
      </trkpt>
      <trkpt lat="44.31307" lon="6.36157">
        <ele>1400</ele>
        <time>2018-08-10T06:47:36Z</time>
      </trkpt>
      <trkpt lat="44.3131" lon="6.36159">
        <ele>1400.2</ele>
        <time>2018-08-10T06:47:39Z</time>
      </trkpt>
      <trkpt lat="44.31313" lon="6.36163">
        <ele>1400.3</ele>
        <time>2018-08-10T06:47:42Z</time>
      </trkpt>
      <trkpt lat="44.31313" lon="6.36167">
        <ele>1400.4</ele>
        <time>2018-08-10T06:47:50Z</time>
      </trkpt>
      <trkpt lat="44.31315" lon="6.3617">
        <ele>1400.6</ele>
        <time>2018-08-10T06:47:54Z</time>
      </trkpt>
      <trkpt lat="44.31317" lon="6.36174">
        <ele>1400.8</ele>
        <time>2018-08-10T06:47:57Z</time>
      </trkpt>
      <trkpt lat="44.31319" lon="6.36177">
        <ele>1400.9</ele>
        <time>2018-08-10T06:48:01Z</time>
      </trkpt>
      <trkpt lat="44.31322" lon="6.36179">
        <ele>1401.2</ele>
        <time>2018-08-10T06:48:03Z</time>
      </trkpt>
      <trkpt lat="44.31323" lon="6.36184">
        <ele>1401.4</ele>
        <time>2018-08-10T06:48:07Z</time>
      </trkpt>
      <trkpt lat="44.31327" lon="6.36185">
        <ele>1401.7</ele>
        <time>2018-08-10T06:48:11Z</time>
      </trkpt>
      <trkpt lat="44.31329" lon="6.36187">
        <ele>1401.8</ele>
        <time>2018-08-10T06:48:14Z</time>
      </trkpt>
      <trkpt lat="44.31332" lon="6.3619">
        <ele>1402.1</ele>
        <time>2018-08-10T06:48:17Z</time>
      </trkpt>
      <trkpt lat="44.31334" lon="6.36192">
        <ele>1402.4</ele>
        <time>2018-08-10T06:48:20Z</time>
      </trkpt>
      <trkpt lat="44.31337" lon="6.36193">
        <ele>1402.6</ele>
        <time>2018-08-10T06:48:24Z</time>
      </trkpt>
      <trkpt lat="44.3134" lon="6.36195">
        <ele>1402.8</ele>
        <time>2018-08-10T06:48:27Z</time>
      </trkpt>
      <trkpt lat="44.31342" lon="6.36193">
        <ele>1403</ele>
        <time>2018-08-10T06:48:29Z</time>
      </trkpt>
      <trkpt lat="44.31344" lon="6.36196">
        <ele>1403.1</ele>
        <time>2018-08-10T06:48:31Z</time>
      </trkpt>
      <trkpt lat="44.31347" lon="6.36199">
        <ele>1403.2</ele>
        <time>2018-08-10T06:48:34Z</time>
      </trkpt>
      <trkpt lat="44.3135" lon="6.36201">
        <ele>1403.3</ele>
        <time>2018-08-10T06:48:37Z</time>
      </trkpt>
      <trkpt lat="44.31352" lon="6.36203">
        <ele>1403.5</ele>
        <time>2018-08-10T06:48:40Z</time>
      </trkpt>
      <trkpt lat="44.31355" lon="6.36206">
        <ele>1403.6</ele>
        <time>2018-08-10T06:48:43Z</time>
      </trkpt>
      <trkpt lat="44.31358" lon="6.36209">
        <ele>1403.7</ele>
        <time>2018-08-10T06:48:46Z</time>
      </trkpt>
      <trkpt lat="44.31361" lon="6.36212">
        <ele>1403.8</ele>
        <time>2018-08-10T06:48:50Z</time>
      </trkpt>
      <trkpt lat="44.31364" lon="6.36215">
        <ele>1403.9</ele>
        <time>2018-08-10T06:48:53Z</time>
      </trkpt>
      <trkpt lat="44.31367" lon="6.36217">
        <ele>1404.1</ele>
        <time>2018-08-10T06:48:56Z</time>
      </trkpt>
      <trkpt lat="44.3137" lon="6.3622">
        <ele>1404.1</ele>
        <time>2018-08-10T06:49:00Z</time>
      </trkpt>
      <trkpt lat="44.31373" lon="6.36222">
        <ele>1404.2</ele>
        <time>2018-08-10T06:49:03Z</time>
      </trkpt>
      <trkpt lat="44.31376" lon="6.36223">
        <ele>1404.4</ele>
        <time>2018-08-10T06:49:06Z</time>
      </trkpt>
      <trkpt lat="44.31379" lon="6.36225">
        <ele>1404.5</ele>
        <time>2018-08-10T06:49:09Z</time>
      </trkpt>
      <trkpt lat="44.31382" lon="6.36227">
        <ele>1404.6</ele>
        <time>2018-08-10T06:49:13Z</time>
      </trkpt>
      <trkpt lat="44.31385" lon="6.36229">
        <ele>1404.8</ele>
        <time>2018-08-10T06:49:16Z</time>
      </trkpt>
      <trkpt lat="44.31388" lon="6.3623">
        <ele>1405</ele>
        <time>2018-08-10T06:49:18Z</time>
      </trkpt>
      <trkpt lat="44.3139" lon="6.36231">
        <ele>1405.2</ele>
        <time>2018-08-10T06:49:21Z</time>
      </trkpt>
      <trkpt lat="44.31394" lon="6.36233">
        <ele>1405.4</ele>
        <time>2018-08-10T06:49:24Z</time>
      </trkpt>
      <trkpt lat="44.31396" lon="6.36235">
        <ele>1405.5</ele>
        <time>2018-08-10T06:49:27Z</time>
      </trkpt>
      <trkpt lat="44.31398" lon="6.36238">
        <ele>1405.6</ele>
        <time>2018-08-10T06:49:30Z</time>
      </trkpt>
      <trkpt lat="44.31401" lon="6.36242">
        <ele>1405.8</ele>
        <time>2018-08-10T06:49:33Z</time>
      </trkpt>
      <trkpt lat="44.31403" lon="6.36243">
        <ele>1406</ele>
        <time>2018-08-10T06:49:36Z</time>
      </trkpt>
      <trkpt lat="44.31406" lon="6.36243">
        <ele>1406.1</ele>
        <time>2018-08-10T06:49:38Z</time>
      </trkpt>
      <trkpt lat="44.31411" lon="6.36244">
        <ele>1406.2</ele>
        <time>2018-08-10T06:49:40Z</time>
      </trkpt>
      <trkpt lat="44.31415" lon="6.36244">
        <ele>1406.3</ele>
        <time>2018-08-10T06:49:42Z</time>
      </trkpt>
      <trkpt lat="44.31419" lon="6.36243">
        <ele>1406.4</ele>
        <time>2018-08-10T06:49:44Z</time>
      </trkpt>
      <trkpt lat="44.31423" lon="6.36242">
        <ele>1406.5</ele>
        <time>2018-08-10T06:49:46Z</time>
      </trkpt>
      <trkpt lat="44.31427" lon="6.36241">
        <ele>1406.6</ele>
        <time>2018-08-10T06:49:48Z</time>
      </trkpt>
      <trkpt lat="44.31432" lon="6.36242">
        <ele>1406.7</ele>
        <time>2018-08-10T06:49:50Z</time>
      </trkpt>
      <trkpt lat="44.31437" lon="6.36242">
        <ele>1406.8</ele>
        <time>2018-08-10T06:49:52Z</time>
      </trkpt>
      <trkpt lat="44.31441" lon="6.36242">
        <ele>1406.9</ele>
        <time>2018-08-10T06:49:54Z</time>
      </trkpt>
      <trkpt lat="44.31445" lon="6.36242">
        <ele>1407</ele>
        <time>2018-08-10T06:49:56Z</time>
      </trkpt>
      <trkpt lat="44.31449" lon="6.36241">
        <ele>1407.1</ele>
        <time>2018-08-10T06:49:58Z</time>
      </trkpt>
      <trkpt lat="44.31452" lon="6.36242">
        <ele>1407.2</ele>
        <time>2018-08-10T06:50:00Z</time>
      </trkpt>
      <trkpt lat="44.31456" lon="6.36242">
        <ele>1407.5</ele>
        <time>2018-08-10T06:50:02Z</time>
      </trkpt>
      <trkpt lat="44.3146" lon="6.36246">
        <ele>1407.8</ele>
        <time>2018-08-10T06:50:04Z</time>
      </trkpt>
      <trkpt lat="44.31463" lon="6.36247">
        <ele>1408</ele>
        <time>2018-08-10T06:50:05Z</time>
      </trkpt>
      <trkpt lat="44.31467" lon="6.36248">
        <ele>1408.2</ele>
        <time>2018-08-10T06:50:06Z</time>
      </trkpt>
      <trkpt lat="44.3147" lon="6.36249">
        <ele>1408.3</ele>
        <time>2018-08-10T06:50:07Z</time>
      </trkpt>
      <trkpt lat="44.31474" lon="6.36248">
        <ele>1408.5</ele>
        <time>2018-08-10T06:50:08Z</time>
      </trkpt>
      <trkpt lat="44.31478" lon="6.36243">
        <ele>1408.9</ele>
        <time>2018-08-10T06:50:10Z</time>
      </trkpt>
      <trkpt lat="44.31479" lon="6.36239">
        <ele>1409.3</ele>
        <time>2018-08-10T06:50:11Z</time>
      </trkpt>
      <trkpt lat="44.3148" lon="6.36234">
        <ele>1409.7</ele>
        <time>2018-08-10T06:50:12Z</time>
      </trkpt>
      <trkpt lat="44.3148" lon="6.36229">
        <ele>1410</ele>
        <time>2018-08-10T06:50:13Z</time>
      </trkpt>
      <trkpt lat="44.31479" lon="6.36224">
        <ele>1410.4</ele>
        <time>2018-08-10T06:50:14Z</time>
      </trkpt>
      <trkpt lat="44.31478" lon="6.36218">
        <ele>1410.8</ele>
        <time>2018-08-10T06:50:15Z</time>
      </trkpt>
      <trkpt lat="44.31478" lon="6.36212">
        <ele>1411.1</ele>
        <time>2018-08-10T06:50:16Z</time>
      </trkpt>
      <trkpt lat="44.31479" lon="6.36206">
        <ele>1411.3</ele>
        <time>2018-08-10T06:50:17Z</time>
      </trkpt>
      <trkpt lat="44.3148" lon="6.36201">
        <ele>1411.5</ele>
        <time>2018-08-10T06:50:18Z</time>
      </trkpt>
      <trkpt lat="44.31482" lon="6.36198">
        <ele>1411.6</ele>
        <time>2018-08-10T06:50:19Z</time>
      </trkpt>
      <trkpt lat="44.31485" lon="6.36196">
        <ele>1411.7</ele>
        <time>2018-08-10T06:50:20Z</time>
      </trkpt>
      <trkpt lat="44.31488" lon="6.36193">
        <ele>1411.8</ele>
        <time>2018-08-10T06:50:21Z</time>
      </trkpt>
      <trkpt lat="44.31491" lon="6.36191">
        <ele>1411.9</ele>
        <time>2018-08-10T06:50:22Z</time>
      </trkpt>
      <trkpt lat="44.31494" lon="6.36189">
        <ele>1412</ele>
        <time>2018-08-10T06:50:23Z</time>
      </trkpt>
      <trkpt lat="44.31499" lon="6.36187">
        <ele>1412.2</ele>
        <time>2018-08-10T06:50:25Z</time>
      </trkpt>
      <trkpt lat="44.31503" lon="6.36186">
        <ele>1412.4</ele>
        <time>2018-08-10T06:50:26Z</time>
      </trkpt>
      <trkpt lat="44.31506" lon="6.36186">
        <ele>1412.7</ele>
        <time>2018-08-10T06:50:27Z</time>
      </trkpt>
      <trkpt lat="44.3151" lon="6.36184">
        <ele>1412.9</ele>
        <time>2018-08-10T06:50:28Z</time>
      </trkpt>
      <trkpt lat="44.31513" lon="6.36184">
        <ele>1413</ele>
        <time>2018-08-10T06:50:29Z</time>
      </trkpt>
      <trkpt lat="44.31518" lon="6.36184">
        <ele>1413.2</ele>
        <time>2018-08-10T06:50:31Z</time>
      </trkpt>
      <trkpt lat="44.31521" lon="6.36183">
        <ele>1413.3</ele>
        <time>2018-08-10T06:50:32Z</time>
      </trkpt>
      <trkpt lat="44.31524" lon="6.36182">
        <ele>1413.4</ele>
        <time>2018-08-10T06:50:33Z</time>
      </trkpt>
      <trkpt lat="44.3153" lon="6.36181">
        <ele>1413.5</ele>
        <time>2018-08-10T06:50:34Z</time>
      </trkpt>
      <trkpt lat="44.31533" lon="6.36181">
        <ele>1413.6</ele>
        <time>2018-08-10T06:50:36Z</time>
      </trkpt>
      <trkpt lat="44.31537" lon="6.36182">
        <ele>1413.9</ele>
        <time>2018-08-10T06:50:37Z</time>
      </trkpt>
      <trkpt lat="44.31543" lon="6.3618">
        <ele>1414.5</ele>
        <time>2018-08-10T06:50:39Z</time>
      </trkpt>
      <trkpt lat="44.31547" lon="6.3618">
        <ele>1414.8</ele>
        <time>2018-08-10T06:50:40Z</time>
      </trkpt>
      <trkpt lat="44.31551" lon="6.36179">
        <ele>1414.9</ele>
        <time>2018-08-10T06:50:41Z</time>
      </trkpt>
      <trkpt lat="44.31555" lon="6.36178">
        <ele>1414.6</ele>
        <time>2018-08-10T06:50:42Z</time>
      </trkpt>
      <trkpt lat="44.31559" lon="6.36179">
        <ele>1414.3</ele>
        <time>2018-08-10T06:50:43Z</time>
      </trkpt>
      <trkpt lat="44.31563" lon="6.36179">
        <ele>1414.1</ele>
        <time>2018-08-10T06:50:44Z</time>
      </trkpt>
      <trkpt lat="44.31568" lon="6.3618">
        <ele>1413.9</ele>
        <time>2018-08-10T06:50:45Z</time>
      </trkpt>
      <trkpt lat="44.31573" lon="6.36179">
        <ele>1413.8</ele>
        <time>2018-08-10T06:50:46Z</time>
      </trkpt>
      <trkpt lat="44.31576" lon="6.36178">
        <ele>1413.5</ele>
        <time>2018-08-10T06:50:47Z</time>
      </trkpt>
      <trkpt lat="44.31579" lon="6.36176">
        <ele>1413.2</ele>
        <time>2018-08-10T06:50:48Z</time>
      </trkpt>
      <trkpt lat="44.31582" lon="6.36173">
        <ele>1412.8</ele>
        <time>2018-08-10T06:50:49Z</time>
      </trkpt>
      <trkpt lat="44.31585" lon="6.3617">
        <ele>1412.5</ele>
        <time>2018-08-10T06:50:50Z</time>
      </trkpt>
      <trkpt lat="44.31589" lon="6.36167">
        <ele>1412.3</ele>
        <time>2018-08-10T06:50:51Z</time>
      </trkpt>
      <trkpt lat="44.3159" lon="6.36162">
        <ele>1411.9</ele>
        <time>2018-08-10T06:50:52Z</time>
      </trkpt>
      <trkpt lat="44.31592" lon="6.36158">
        <ele>1411.5</ele>
        <time>2018-08-10T06:50:53Z</time>
      </trkpt>
      <trkpt lat="44.31593" lon="6.36154">
        <ele>1411.1</ele>
        <time>2018-08-10T06:50:54Z</time>
      </trkpt>
      <trkpt lat="44.31595" lon="6.36149">
        <ele>1410.8</ele>
        <time>2018-08-10T06:50:55Z</time>
      </trkpt>
      <trkpt lat="44.31596" lon="6.36145">
        <ele>1410.5</ele>
        <time>2018-08-10T06:50:56Z</time>
      </trkpt>
      <trkpt lat="44.31598" lon="6.3614">
        <ele>1410</ele>
        <time>2018-08-10T06:50:57Z</time>
      </trkpt>
      <trkpt lat="44.31599" lon="6.36136">
        <ele>1409.7</ele>
        <time>2018-08-10T06:50:58Z</time>
      </trkpt>
      <trkpt lat="44.31601" lon="6.36131">
        <ele>1409.3</ele>
        <time>2018-08-10T06:50:59Z</time>
      </trkpt>
      <trkpt lat="44.31603" lon="6.36126">
        <ele>1409.1</ele>
        <time>2018-08-10T06:51:00Z</time>
      </trkpt>
      <trkpt lat="44.31606" lon="6.36122">
        <ele>1408.9</ele>
        <time>2018-08-10T06:51:01Z</time>
      </trkpt>
      <trkpt lat="44.31607" lon="6.36116">
        <ele>1408.6</ele>
        <time>2018-08-10T06:51:02Z</time>
      </trkpt>
      <trkpt lat="44.31609" lon="6.36111">
        <ele>1408.1</ele>
        <time>2018-08-10T06:51:03Z</time>
      </trkpt>
      <trkpt lat="44.31613" lon="6.3611">
        <ele>1407.7</ele>
        <time>2018-08-10T06:51:04Z</time>
      </trkpt>
      <trkpt lat="44.31617" lon="6.36109">
        <ele>1407.5</ele>
        <time>2018-08-10T06:51:05Z</time>
      </trkpt>
      <trkpt lat="44.3162" lon="6.36109">
        <ele>1407.4</ele>
        <time>2018-08-10T06:51:06Z</time>
      </trkpt>
      <trkpt lat="44.31624" lon="6.3611">
        <ele>1407.1</ele>
        <time>2018-08-10T06:51:07Z</time>
      </trkpt>
      <trkpt lat="44.31628" lon="6.3611">
        <ele>1406.7</ele>
        <time>2018-08-10T06:51:08Z</time>
      </trkpt>
      <trkpt lat="44.31632" lon="6.36111">
        <ele>1406.3</ele>
        <time>2018-08-10T06:51:09Z</time>
      </trkpt>
      <trkpt lat="44.31635" lon="6.36112">
        <ele>1406</ele>
        <time>2018-08-10T06:51:10Z</time>
      </trkpt>
      <trkpt lat="44.31639" lon="6.36113">
        <ele>1405.7</ele>
        <time>2018-08-10T06:51:11Z</time>
      </trkpt>
      <trkpt lat="44.31643" lon="6.36115">
        <ele>1405.4</ele>
        <time>2018-08-10T06:51:12Z</time>
      </trkpt>
      <trkpt lat="44.31649" lon="6.36116">
        <ele>1405.1</ele>
        <time>2018-08-10T06:51:13Z</time>
      </trkpt>
      <trkpt lat="44.31654" lon="6.36117">
        <ele>1404.8</ele>
        <time>2018-08-10T06:51:14Z</time>
      </trkpt>
      <trkpt lat="44.31657" lon="6.36118">
        <ele>1404.6</ele>
        <time>2018-08-10T06:51:15Z</time>
      </trkpt>
      <trkpt lat="44.31661" lon="6.3612">
        <ele>1404.3</ele>
        <time>2018-08-10T06:51:16Z</time>
      </trkpt>
      <trkpt lat="44.31664" lon="6.36119">
        <ele>1404.2</ele>
        <time>2018-08-10T06:51:17Z</time>
      </trkpt>
      <trkpt lat="44.31668" lon="6.36117">
        <ele>1404.1</ele>
        <time>2018-08-10T06:51:18Z</time>
      </trkpt>
      <trkpt lat="44.31672" lon="6.36119">
        <ele>1404</ele>
        <time>2018-08-10T06:51:19Z</time>
      </trkpt>
      <trkpt lat="44.31675" lon="6.36119">
        <ele>1403.9</ele>
        <time>2018-08-10T06:51:20Z</time>
      </trkpt>
      <trkpt lat="44.31681" lon="6.36119">
        <ele>1403.5</ele>
        <time>2018-08-10T06:51:22Z</time>
      </trkpt>
      <trkpt lat="44.31684" lon="6.36119">
        <ele>1403.3</ele>
        <time>2018-08-10T06:51:23Z</time>
      </trkpt>
      <trkpt lat="44.31679" lon="6.36116">
        <ele>1402.8</ele>
        <time>2018-08-10T06:51:25Z</time>
      </trkpt>
      <trkpt lat="44.31689" lon="6.36117">
        <ele>1402.3</ele>
        <time>2018-08-10T06:51:27Z</time>
      </trkpt>
      <trkpt lat="44.31692" lon="6.36116">
        <ele>1402.2</ele>
        <time>2018-08-10T06:51:28Z</time>
      </trkpt>
      <trkpt lat="44.31696" lon="6.36117">
        <ele>1402</ele>
        <time>2018-08-10T06:51:29Z</time>
      </trkpt>
      <trkpt lat="44.31699" lon="6.36117">
        <ele>1401.7</ele>
        <time>2018-08-10T06:51:30Z</time>
      </trkpt>
      <trkpt lat="44.31704" lon="6.36116">
        <ele>1401.3</ele>
        <time>2018-08-10T06:51:32Z</time>
      </trkpt>
      <trkpt lat="44.31709" lon="6.36116">
        <ele>1400.8</ele>
        <time>2018-08-10T06:51:33Z</time>
      </trkpt>
      <trkpt lat="44.31714" lon="6.36115">
        <ele>1400.6</ele>
        <time>2018-08-10T06:51:34Z</time>
      </trkpt>
      <trkpt lat="44.31717" lon="6.36115">
        <ele>1400.4</ele>
        <time>2018-08-10T06:51:35Z</time>
      </trkpt>
      <trkpt lat="44.31722" lon="6.36114">
        <ele>1400.2</ele>
        <time>2018-08-10T06:51:36Z</time>
      </trkpt>
      <trkpt lat="44.31726" lon="6.36116">
        <ele>1399.7</ele>
        <time>2018-08-10T06:51:37Z</time>
      </trkpt>
      <trkpt lat="44.31732" lon="6.36115">
        <ele>1399.3</ele>
        <time>2018-08-10T06:51:38Z</time>
      </trkpt>
      <trkpt lat="44.31738" lon="6.36115">
        <ele>1399.1</ele>
        <time>2018-08-10T06:51:39Z</time>
      </trkpt>
      <trkpt lat="44.31743" lon="6.36113">
        <ele>1398.8</ele>
        <time>2018-08-10T06:51:40Z</time>
      </trkpt>
      <trkpt lat="44.31748" lon="6.36113">
        <ele>1398.5</ele>
        <time>2018-08-10T06:51:41Z</time>
      </trkpt>
      <trkpt lat="44.31752" lon="6.36113">
        <ele>1398.3</ele>
        <time>2018-08-10T06:51:42Z</time>
      </trkpt>
      <trkpt lat="44.31755" lon="6.36112">
        <ele>1398.1</ele>
        <time>2018-08-10T06:51:50Z</time>
      </trkpt>
      <trkpt lat="44.31758" lon="6.36113">
        <ele>1398</ele>
        <time>2018-08-10T06:51:59Z</time>
      </trkpt>
      <trkpt lat="44.31762" lon="6.36114">
        <ele>1397.8</ele>
        <time>2018-08-10T06:52:01Z</time>
      </trkpt>
      <trkpt lat="44.31765" lon="6.36116">
        <ele>1397.5</ele>
        <time>2018-08-10T06:52:03Z</time>
      </trkpt>
      <trkpt lat="44.3177" lon="6.36118">
        <ele>1396.9</ele>
        <time>2018-08-10T06:52:05Z</time>
      </trkpt>
      <trkpt lat="44.31774" lon="6.36119">
        <ele>1396.3</ele>
        <time>2018-08-10T06:52:06Z</time>
      </trkpt>
      <trkpt lat="44.31778" lon="6.36121">
        <ele>1395</ele>
        <time>2018-08-10T06:52:08Z</time>
      </trkpt>
      <trkpt lat="44.31781" lon="6.36123">
        <ele>1393.7</ele>
        <time>2018-08-10T06:52:10Z</time>
      </trkpt>
      <trkpt lat="44.31786" lon="6.36122">
        <ele>1392.3</ele>
        <time>2018-08-10T06:52:15Z</time>
      </trkpt>
      <trkpt lat="44.31789" lon="6.36124">
        <ele>1391.7</ele>
        <time>2018-08-10T06:52:16Z</time>
      </trkpt>
      <trkpt lat="44.31794" lon="6.36126">
        <ele>1390.5</ele>
        <time>2018-08-10T06:52:18Z</time>
      </trkpt>
      <trkpt lat="44.31799" lon="6.36128">
        <ele>1389.2</ele>
        <time>2018-08-10T06:52:20Z</time>
      </trkpt>
      <trkpt lat="44.31802" lon="6.36129">
        <ele>1388.6</ele>
        <time>2018-08-10T06:52:21Z</time>
      </trkpt>
      <trkpt lat="44.31805" lon="6.36131">
        <ele>1387.3</ele>
        <time>2018-08-10T06:52:22Z</time>
      </trkpt>
      <trkpt lat="44.31811" lon="6.36138">
        <ele>1385.9</ele>
        <time>2018-08-10T06:52:24Z</time>
      </trkpt>
      <trkpt lat="44.31812" lon="6.36143">
        <ele>1384.5</ele>
        <time>2018-08-10T06:52:25Z</time>
      </trkpt>
      <trkpt lat="44.31814" lon="6.36146">
        <ele>1383.2</ele>
        <time>2018-08-10T06:52:26Z</time>
      </trkpt>
      <trkpt lat="44.31816" lon="6.36151">
        <ele>1382.6</ele>
        <time>2018-08-10T06:52:27Z</time>
      </trkpt>
      <trkpt lat="44.31817" lon="6.36155">
        <ele>1382</ele>
        <time>2018-08-10T06:52:28Z</time>
      </trkpt>
      <trkpt lat="44.31819" lon="6.36161">
        <ele>1380.3</ele>
        <time>2018-08-10T06:52:30Z</time>
      </trkpt>
      <trkpt lat="44.31819" lon="6.36166">
        <ele>1379.8</ele>
        <time>2018-08-10T06:52:31Z</time>
      </trkpt>
      <trkpt lat="44.3182" lon="6.3617">
        <ele>1378.9</ele>
        <time>2018-08-10T06:52:32Z</time>
      </trkpt>
      <trkpt lat="44.31825" lon="6.36175">
        <ele>1377.9</ele>
        <time>2018-08-10T06:52:34Z</time>
      </trkpt>
      <trkpt lat="44.31829" lon="6.36178">
        <ele>1377.6</ele>
        <time>2018-08-10T06:52:35Z</time>
      </trkpt>
      <trkpt lat="44.31832" lon="6.36181">
        <ele>1377.2</ele>
        <time>2018-08-10T06:52:36Z</time>
      </trkpt>
      <trkpt lat="44.31836" lon="6.36182">
        <ele>1376.9</ele>
        <time>2018-08-10T06:52:37Z</time>
      </trkpt>
      <trkpt lat="44.31839" lon="6.36184">
        <ele>1376.7</ele>
        <time>2018-08-10T06:52:38Z</time>
      </trkpt>
      <trkpt lat="44.31844" lon="6.36186">
        <ele>1376.5</ele>
        <time>2018-08-10T06:52:39Z</time>
      </trkpt>
      <trkpt lat="44.31846" lon="6.36188">
        <ele>1376.4</ele>
        <time>2018-08-10T06:52:40Z</time>
      </trkpt>
      <trkpt lat="44.31849" lon="6.3619">
        <ele>1376.3</ele>
        <time>2018-08-10T06:52:41Z</time>
      </trkpt>
      <trkpt lat="44.3185" lon="6.36193">
        <ele>1376.2</ele>
        <time>2018-08-10T06:52:42Z</time>
      </trkpt>
      <trkpt lat="44.31853" lon="6.36195">
        <ele>1376</ele>
        <time>2018-08-10T06:52:43Z</time>
      </trkpt>
      <trkpt lat="44.31859" lon="6.36191">
        <ele>1375.5</ele>
        <time>2018-08-10T06:52:45Z</time>
      </trkpt>
      <trkpt lat="44.31861" lon="6.36188">
        <ele>1375.2</ele>
        <time>2018-08-10T06:52:46Z</time>
      </trkpt>
      <trkpt lat="44.31863" lon="6.36184">
        <ele>1374.7</ele>
        <time>2018-08-10T06:52:47Z</time>
      </trkpt>
      <trkpt lat="44.31867" lon="6.3618">
        <ele>1374.1</ele>
        <time>2018-08-10T06:52:48Z</time>
      </trkpt>
      <trkpt lat="44.31869" lon="6.36176">
        <ele>1373.8</ele>
        <time>2018-08-10T06:52:49Z</time>
      </trkpt>
      <trkpt lat="44.31872" lon="6.36175">
        <ele>1373.6</ele>
        <time>2018-08-10T06:52:50Z</time>
      </trkpt>
      <trkpt lat="44.31876" lon="6.36172">
        <ele>1373.3</ele>
        <time>2018-08-10T06:52:52Z</time>
      </trkpt>
      <trkpt lat="44.3188" lon="6.3617">
        <ele>1372.7</ele>
        <time>2018-08-10T06:52:53Z</time>
      </trkpt>
      <trkpt lat="44.31883" lon="6.36168">
        <ele>1372.4</ele>
        <time>2018-08-10T06:52:54Z</time>
      </trkpt>
      <trkpt lat="44.31886" lon="6.36167">
        <ele>1372</ele>
        <time>2018-08-10T06:52:55Z</time>
      </trkpt>
      <trkpt lat="44.3189" lon="6.36166">
        <ele>1371.5</ele>
        <time>2018-08-10T06:52:57Z</time>
      </trkpt>
      <trkpt lat="44.3189" lon="6.3617">
        <ele>1371.4</ele>
        <time>2018-08-10T06:53:00Z</time>
      </trkpt>
      <trkpt lat="44.31891" lon="6.36176">
        <ele>1370.9</ele>
        <time>2018-08-10T06:53:02Z</time>
      </trkpt>
      <trkpt lat="44.3189" lon="6.36182">
        <ele>1371.3</ele>
        <time>2018-08-10T06:53:05Z</time>
      </trkpt>
      <trkpt lat="44.31887" lon="6.36186">
        <ele>1371.6</ele>
        <time>2018-08-10T06:53:07Z</time>
      </trkpt>
      <trkpt lat="44.31882" lon="6.36188">
        <ele>1371.9</ele>
        <time>2018-08-10T06:53:09Z</time>
      </trkpt>
      <trkpt lat="44.3188" lon="6.3619">
        <ele>1372.2</ele>
        <time>2018-08-10T06:53:10Z</time>
      </trkpt>
      <trkpt lat="44.31878" lon="6.36193">
        <ele>1372.5</ele>
        <time>2018-08-10T06:53:11Z</time>
      </trkpt>
      <trkpt lat="44.31877" lon="6.36196">
        <ele>1372.4</ele>
        <time>2018-08-10T06:53:12Z</time>
      </trkpt>
      <trkpt lat="44.31873" lon="6.36198">
        <ele>1372.7</ele>
        <time>2018-08-10T06:53:13Z</time>
      </trkpt>
      <trkpt lat="44.31869" lon="6.36205">
        <ele>1372.8</ele>
        <time>2018-08-10T06:53:15Z</time>
      </trkpt>
      <trkpt lat="44.31866" lon="6.36207">
        <ele>1373.1</ele>
        <time>2018-08-10T06:53:16Z</time>
      </trkpt>
      <trkpt lat="44.31863" lon="6.36208">
        <ele>1373.5</ele>
        <time>2018-08-10T06:53:17Z</time>
      </trkpt>
      <trkpt lat="44.31861" lon="6.36212">
        <ele>1373.4</ele>
        <time>2018-08-10T06:53:18Z</time>
      </trkpt>
      <trkpt lat="44.31859" lon="6.36216">
        <ele>1373.6</ele>
        <time>2018-08-10T06:53:19Z</time>
      </trkpt>
      <trkpt lat="44.31856" lon="6.3622">
        <ele>1373.8</ele>
        <time>2018-08-10T06:53:20Z</time>
      </trkpt>
      <trkpt lat="44.31853" lon="6.36227">
        <ele>1374</ele>
        <time>2018-08-10T06:53:21Z</time>
      </trkpt>
      <trkpt lat="44.31851" lon="6.36231">
        <ele>1373.9</ele>
        <time>2018-08-10T06:53:22Z</time>
      </trkpt>
      <trkpt lat="44.3185" lon="6.36236">
        <ele>1374.1</ele>
        <time>2018-08-10T06:53:23Z</time>
      </trkpt>
      <trkpt lat="44.31848" lon="6.36239">
        <ele>1374.1</ele>
        <time>2018-08-10T06:53:24Z</time>
      </trkpt>
      <trkpt lat="44.31843" lon="6.36245">
        <ele>1374.6</ele>
        <time>2018-08-10T06:53:25Z</time>
      </trkpt>
      <trkpt lat="44.31841" lon="6.36248">
        <ele>1374.9</ele>
        <time>2018-08-10T06:53:26Z</time>
      </trkpt>
      <trkpt lat="44.31837" lon="6.36249">
        <ele>1375.1</ele>
        <time>2018-08-10T06:53:27Z</time>
      </trkpt>
      <trkpt lat="44.31834" lon="6.36252">
        <ele>1375.6</ele>
        <time>2018-08-10T06:53:29Z</time>
      </trkpt>
      <trkpt lat="44.31833" lon="6.36255">
        <ele>1375.7</ele>
        <time>2018-08-10T06:53:32Z</time>
      </trkpt>
      <trkpt lat="44.3183" lon="6.3626">
        <ele>1376.2</ele>
        <time>2018-08-10T06:53:34Z</time>
      </trkpt>
      <trkpt lat="44.31829" lon="6.36264">
        <ele>1376.7</ele>
        <time>2018-08-10T06:53:35Z</time>
      </trkpt>
      <trkpt lat="44.31828" lon="6.36268">
        <ele>1376.9</ele>
        <time>2018-08-10T06:53:36Z</time>
      </trkpt>
      <trkpt lat="44.31828" lon="6.36272">
        <ele>1377.2</ele>
        <time>2018-08-10T06:53:37Z</time>
      </trkpt>
      <trkpt lat="44.3183" lon="6.36276">
        <ele>1377.1</ele>
        <time>2018-08-10T06:53:39Z</time>
      </trkpt>
      <trkpt lat="44.31832" lon="6.36279">
        <ele>1376.8</ele>
        <time>2018-08-10T06:53:41Z</time>
      </trkpt>
      <trkpt lat="44.31835" lon="6.36283">
        <ele>1377.1</ele>
        <time>2018-08-10T06:53:43Z</time>
      </trkpt>
      <trkpt lat="44.31837" lon="6.36286">
        <ele>1377.1</ele>
        <time>2018-08-10T06:53:45Z</time>
      </trkpt>
      <trkpt lat="44.31839" lon="6.3629">
        <ele>1377.2</ele>
        <time>2018-08-10T06:53:47Z</time>
      </trkpt>
      <trkpt lat="44.31841" lon="6.36295">
        <ele>1377.5</ele>
        <time>2018-08-10T06:53:49Z</time>
      </trkpt>
      <trkpt lat="44.31842" lon="6.363">
        <ele>1377.6</ele>
        <time>2018-08-10T06:53:51Z</time>
      </trkpt>
      <trkpt lat="44.31843" lon="6.36305">
        <ele>1377.9</ele>
        <time>2018-08-10T06:53:53Z</time>
      </trkpt>
      <trkpt lat="44.31844" lon="6.3631">
        <ele>1378.2</ele>
        <time>2018-08-10T06:53:55Z</time>
      </trkpt>
      <trkpt lat="44.31845" lon="6.36315">
        <ele>1378.7</ele>
        <time>2018-08-10T06:53:57Z</time>
      </trkpt>
      <trkpt lat="44.31848" lon="6.36318">
        <ele>1378.4</ele>
        <time>2018-08-10T06:53:59Z</time>
      </trkpt>
      <trkpt lat="44.3185" lon="6.36321">
        <ele>1378.8</ele>
        <time>2018-08-10T06:54:02Z</time>
      </trkpt>
      <trkpt lat="44.31856" lon="6.3632">
        <ele>1378.4</ele>
        <time>2018-08-10T06:54:04Z</time>
      </trkpt>
      <trkpt lat="44.31858" lon="6.36318">
        <ele>1377.6</ele>
        <time>2018-08-10T06:54:05Z</time>
      </trkpt>
      <trkpt lat="44.31864" lon="6.36313">
        <ele>1376.7</ele>
        <time>2018-08-10T06:54:07Z</time>
      </trkpt>
      <trkpt lat="44.31867" lon="6.36312">
        <ele>1376.5</ele>
        <time>2018-08-10T06:54:12Z</time>
      </trkpt>
      <trkpt lat="44.31871" lon="6.36312">
        <ele>1376.3</ele>
        <time>2018-08-10T06:54:14Z</time>
      </trkpt>
      <trkpt lat="44.31875" lon="6.36311">
        <ele>1376</ele>
        <time>2018-08-10T06:54:16Z</time>
      </trkpt>
      <trkpt lat="44.31878" lon="6.3631">
        <ele>1375.7</ele>
        <time>2018-08-10T06:54:18Z</time>
      </trkpt>
      <trkpt lat="44.31881" lon="6.36309">
        <ele>1375.1</ele>
        <time>2018-08-10T06:54:22Z</time>
      </trkpt>
      <trkpt lat="44.31885" lon="6.36308">
        <ele>1374.7</ele>
        <time>2018-08-10T06:54:24Z</time>
      </trkpt>
      <trkpt lat="44.31888" lon="6.3631">
        <ele>1374.4</ele>
        <time>2018-08-10T06:54:26Z</time>
      </trkpt>
      <trkpt lat="44.31891" lon="6.3631">
        <ele>1374.2</ele>
        <time>2018-08-10T06:54:28Z</time>
      </trkpt>
      <trkpt lat="44.31894" lon="6.36309">
        <ele>1374</ele>
        <time>2018-08-10T06:54:30Z</time>
      </trkpt>
      <trkpt lat="44.31899" lon="6.36309">
        <ele>1373.8</ele>
        <time>2018-08-10T06:54:32Z</time>
      </trkpt>
      <trkpt lat="44.31903" lon="6.36309">
        <ele>1373.5</ele>
        <time>2018-08-10T06:54:34Z</time>
      </trkpt>
      <trkpt lat="44.31906" lon="6.36308">
        <ele>1373.4</ele>
        <time>2018-08-10T06:54:37Z</time>
      </trkpt>
      <trkpt lat="44.3191" lon="6.3631">
        <ele>1373.3</ele>
        <time>2018-08-10T06:54:40Z</time>
      </trkpt>
      <trkpt lat="44.31914" lon="6.36312">
        <ele>1373.7</ele>
        <time>2018-08-10T06:54:43Z</time>
      </trkpt>
      <trkpt lat="44.31918" lon="6.36312">
        <ele>1373.6</ele>
        <time>2018-08-10T06:54:44Z</time>
      </trkpt>
      <trkpt lat="44.31921" lon="6.36313">
        <ele>1373.4</ele>
        <time>2018-08-10T06:54:45Z</time>
      </trkpt>
      <trkpt lat="44.31924" lon="6.36318">
        <ele>1374</ele>
        <time>2018-08-10T06:54:47Z</time>
      </trkpt>
      <trkpt lat="44.31927" lon="6.36321">
        <ele>1374.6</ele>
        <time>2018-08-10T06:54:48Z</time>
      </trkpt>
      <trkpt lat="44.3193" lon="6.36322">
        <ele>1374.5</ele>
        <time>2018-08-10T06:54:49Z</time>
      </trkpt>
      <trkpt lat="44.31934" lon="6.36322">
        <ele>1374.4</ele>
        <time>2018-08-10T06:54:51Z</time>
      </trkpt>
      <trkpt lat="44.31941" lon="6.36319">
        <ele>1374.3</ele>
        <time>2018-08-10T06:54:55Z</time>
      </trkpt>
      <trkpt lat="44.31944" lon="6.36318">
        <ele>1373.4</ele>
        <time>2018-08-10T06:54:56Z</time>
      </trkpt>
      <trkpt lat="44.31949" lon="6.36319">
        <ele>1373.2</ele>
        <time>2018-08-10T06:54:58Z</time>
      </trkpt>
      <trkpt lat="44.31952" lon="6.36318">
        <ele>1373</ele>
        <time>2018-08-10T06:55:00Z</time>
      </trkpt>
      <trkpt lat="44.31955" lon="6.36319">
        <ele>1373.4</ele>
        <time>2018-08-10T06:55:01Z</time>
      </trkpt>
      <trkpt lat="44.31959" lon="6.36318">
        <ele>1372.4</ele>
        <time>2018-08-10T06:55:02Z</time>
      </trkpt>
      <trkpt lat="44.31964" lon="6.36318">
        <ele>1372.1</ele>
        <time>2018-08-10T06:55:04Z</time>
      </trkpt>
      <trkpt lat="44.31966" lon="6.36322">
        <ele>1372.6</ele>
        <time>2018-08-10T06:55:07Z</time>
      </trkpt>
      <trkpt lat="44.31967" lon="6.36326">
        <ele>1373.2</ele>
        <time>2018-08-10T06:55:09Z</time>
      </trkpt>
      <trkpt lat="44.31965" lon="6.3633">
        <ele>1374</ele>
        <time>2018-08-10T06:55:12Z</time>
      </trkpt>
      <trkpt lat="44.31962" lon="6.36332">
        <ele>1374.7</ele>
        <time>2018-08-10T06:55:15Z</time>
      </trkpt>
      <trkpt lat="44.31959" lon="6.36332">
        <ele>1374.5</ele>
        <time>2018-08-10T06:55:17Z</time>
      </trkpt>
      <trkpt lat="44.31956" lon="6.36335">
        <ele>1374.3</ele>
        <time>2018-08-10T06:55:19Z</time>
      </trkpt>
      <trkpt lat="44.31953" lon="6.36338">
        <ele>1375</ele>
        <time>2018-08-10T06:55:21Z</time>
      </trkpt>
      <trkpt lat="44.31947" lon="6.36338">
        <ele>1374.7</ele>
        <time>2018-08-10T06:55:24Z</time>
      </trkpt>
      <trkpt lat="44.31944" lon="6.36338">
        <ele>1374.4</ele>
        <time>2018-08-10T06:55:25Z</time>
      </trkpt>
      <trkpt lat="44.3194" lon="6.36341">
        <ele>1374.9</ele>
        <time>2018-08-10T06:55:27Z</time>
      </trkpt>
      <trkpt lat="44.31936" lon="6.36343">
        <ele>1374.5</ele>
        <time>2018-08-10T06:55:29Z</time>
      </trkpt>
      <trkpt lat="44.31933" lon="6.36341">
        <ele>1374.2</ele>
        <time>2018-08-10T06:55:31Z</time>
      </trkpt>
      <trkpt lat="44.31929" lon="6.36341">
        <ele>1373.9</ele>
        <time>2018-08-10T06:55:33Z</time>
      </trkpt>
      <trkpt lat="44.31926" lon="6.36338">
        <ele>1372.8</ele>
        <time>2018-08-10T06:55:35Z</time>
      </trkpt>
      <trkpt lat="44.31922" lon="6.36336">
        <ele>1371.7</ele>
        <time>2018-08-10T06:55:37Z</time>
      </trkpt>
      <trkpt lat="44.31918" lon="6.36335">
        <ele>1371.4</ele>
        <time>2018-08-10T06:55:38Z</time>
      </trkpt>
      <trkpt lat="44.31914" lon="6.36335">
        <ele>1371.1</ele>
        <time>2018-08-10T06:55:40Z</time>
      </trkpt>
      <trkpt lat="44.31911" lon="6.36336">
        <ele>1371.6</ele>
        <time>2018-08-10T06:55:41Z</time>
      </trkpt>
      <trkpt lat="44.31908" lon="6.36335">
        <ele>1370.7</ele>
        <time>2018-08-10T06:55:42Z</time>
      </trkpt>
      <trkpt lat="44.31905" lon="6.36336">
        <ele>1370.5</ele>
        <time>2018-08-10T06:55:43Z</time>
      </trkpt>
      <trkpt lat="44.31902" lon="6.36338">
        <ele>1371</ele>
        <time>2018-08-10T06:55:45Z</time>
      </trkpt>
      <trkpt lat="44.31898" lon="6.36343">
        <ele>1371.5</ele>
        <time>2018-08-10T06:55:47Z</time>
      </trkpt>
      <trkpt lat="44.31895" lon="6.36348">
        <ele>1372</ele>
        <time>2018-08-10T06:55:49Z</time>
      </trkpt>
      <trkpt lat="44.31893" lon="6.36354">
        <ele>1373.2</ele>
        <time>2018-08-10T06:55:51Z</time>
      </trkpt>
      <trkpt lat="44.3189" lon="6.36358">
        <ele>1373.8</ele>
        <time>2018-08-10T06:55:53Z</time>
      </trkpt>
      <trkpt lat="44.31888" lon="6.36361">
        <ele>1373.7</ele>
        <time>2018-08-10T06:55:55Z</time>
      </trkpt>
      <trkpt lat="44.31886" lon="6.36366">
        <ele>1374.3</ele>
        <time>2018-08-10T06:55:58Z</time>
      </trkpt>
      <trkpt lat="44.31884" lon="6.36369">
        <ele>1375</ele>
        <time>2018-08-10T06:55:59Z</time>
      </trkpt>
      <trkpt lat="44.31883" lon="6.36374">
        <ele>1375.7</ele>
        <time>2018-08-10T06:56:01Z</time>
      </trkpt>
      <trkpt lat="44.31881" lon="6.36379">
        <ele>1377.1</ele>
        <time>2018-08-10T06:56:03Z</time>
      </trkpt>
      <trkpt lat="44.31879" lon="6.36383">
        <ele>1377</ele>
        <time>2018-08-10T06:56:05Z</time>
      </trkpt>
      <trkpt lat="44.31881" lon="6.36388">
        <ele>1378.3</ele>
        <time>2018-08-10T06:56:07Z</time>
      </trkpt>
      <trkpt lat="44.31882" lon="6.36393">
        <ele>1378.9</ele>
        <time>2018-08-10T06:56:09Z</time>
      </trkpt>
      <trkpt lat="44.31884" lon="6.36397">
        <ele>1379.4</ele>
        <time>2018-08-10T06:56:11Z</time>
      </trkpt>
      <trkpt lat="44.31887" lon="6.364">
        <ele>1379.3</ele>
        <time>2018-08-10T06:56:13Z</time>
      </trkpt>
      <trkpt lat="44.3189" lon="6.36399">
        <ele>1379.3</ele>
        <time>2018-08-10T06:56:19Z</time>
      </trkpt>
      <trkpt lat="44.31893" lon="6.36397">
        <ele>1379.2</ele>
        <time>2018-08-10T06:56:21Z</time>
      </trkpt>
      <trkpt lat="44.31897" lon="6.36395">
        <ele>1378.4</ele>
        <time>2018-08-10T06:56:23Z</time>
      </trkpt>
      <trkpt lat="44.31901" lon="6.36395">
        <ele>1378.4</ele>
        <time>2018-08-10T06:56:25Z</time>
      </trkpt>
      <trkpt lat="44.31905" lon="6.36396">
        <ele>1379.1</ele>
        <time>2018-08-10T06:56:27Z</time>
      </trkpt>
      <trkpt lat="44.31908" lon="6.36398">
        <ele>1379.1</ele>
        <time>2018-08-10T06:56:29Z</time>
      </trkpt>
      <trkpt lat="44.31911" lon="6.364">
        <ele>1379.8</ele>
        <time>2018-08-10T06:56:31Z</time>
      </trkpt>
      <trkpt lat="44.31913" lon="6.36404">
        <ele>1379.8</ele>
        <time>2018-08-10T06:56:34Z</time>
      </trkpt>
      <trkpt lat="44.31912" lon="6.36409">
        <ele>1381.2</ele>
        <time>2018-08-10T06:56:36Z</time>
      </trkpt>
      <trkpt lat="44.31913" lon="6.36414">
        <ele>1381.9</ele>
        <time>2018-08-10T06:56:39Z</time>
      </trkpt>
      <trkpt lat="44.31914" lon="6.36418">
        <ele>1382.7</ele>
        <time>2018-08-10T06:56:41Z</time>
      </trkpt>
      <trkpt lat="44.31913" lon="6.36421">
        <ele>1382.5</ele>
        <time>2018-08-10T06:56:44Z</time>
      </trkpt>
      <trkpt lat="44.31911" lon="6.36424">
        <ele>1383.1</ele>
        <time>2018-08-10T06:56:47Z</time>
      </trkpt>
      <trkpt lat="44.31908" lon="6.36428">
        <ele>1383.6</ele>
        <time>2018-08-10T06:56:51Z</time>
      </trkpt>
      <trkpt lat="44.31905" lon="6.3643">
        <ele>1383.3</ele>
        <time>2018-08-10T06:56:52Z</time>
      </trkpt>
      <trkpt lat="44.31903" lon="6.36434">
        <ele>1384</ele>
        <time>2018-08-10T06:56:55Z</time>
      </trkpt>
      <trkpt lat="44.31901" lon="6.36438">
        <ele>1384.5</ele>
        <time>2018-08-10T06:56:57Z</time>
      </trkpt>
      <trkpt lat="44.319" lon="6.36443">
        <ele>1385.1</ele>
        <time>2018-08-10T06:57:00Z</time>
      </trkpt>
      <trkpt lat="44.31897" lon="6.36445">
        <ele>1385.7</ele>
        <time>2018-08-10T06:57:03Z</time>
      </trkpt>
      <trkpt lat="44.31896" lon="6.36449">
        <ele>1386.3</ele>
        <time>2018-08-10T06:57:05Z</time>
      </trkpt>
      <trkpt lat="44.31894" lon="6.36453">
        <ele>1387</ele>
        <time>2018-08-10T06:57:08Z</time>
      </trkpt>
      <trkpt lat="44.31892" lon="6.3646">
        <ele>1387.6</ele>
        <time>2018-08-10T06:57:11Z</time>
      </trkpt>
      <trkpt lat="44.31891" lon="6.36466">
        <ele>1389</ele>
        <time>2018-08-10T06:57:14Z</time>
      </trkpt>
      <trkpt lat="44.31888" lon="6.36469">
        <ele>1389.6</ele>
        <time>2018-08-10T06:57:17Z</time>
      </trkpt>
      <trkpt lat="44.31887" lon="6.36474">
        <ele>1390</ele>
        <time>2018-08-10T06:57:20Z</time>
      </trkpt>
      <trkpt lat="44.31883" lon="6.36476">
        <ele>1389.7</ele>
        <time>2018-08-10T06:57:22Z</time>
      </trkpt>
      <trkpt lat="44.31879" lon="6.36478">
        <ele>1390.1</ele>
        <time>2018-08-10T06:57:24Z</time>
      </trkpt>
      <trkpt lat="44.31875" lon="6.3648">
        <ele>1389.8</ele>
        <time>2018-08-10T06:57:26Z</time>
      </trkpt>
      <trkpt lat="44.31873" lon="6.36483">
        <ele>1390</ele>
        <time>2018-08-10T06:57:28Z</time>
      </trkpt>
      <trkpt lat="44.31869" lon="6.36485">
        <ele>1389.7</ele>
        <time>2018-08-10T06:57:30Z</time>
      </trkpt>
      <trkpt lat="44.31866" lon="6.36487">
        <ele>1389.9</ele>
        <time>2018-08-10T06:57:31Z</time>
      </trkpt>
      <trkpt lat="44.31862" lon="6.3649">
        <ele>1389.6</ele>
        <time>2018-08-10T06:57:33Z</time>
      </trkpt>
      <trkpt lat="44.31858" lon="6.36492">
        <ele>1389.9</ele>
        <time>2018-08-10T06:57:35Z</time>
      </trkpt>
      <trkpt lat="44.31855" lon="6.36493">
        <ele>1389.6</ele>
        <time>2018-08-10T06:57:37Z</time>
      </trkpt>
      <trkpt lat="44.31851" lon="6.36493">
        <ele>1389.4</ele>
        <time>2018-08-10T06:57:40Z</time>
      </trkpt>
      <trkpt lat="44.31849" lon="6.36491">
        <ele>1389.1</ele>
        <time>2018-08-10T06:57:45Z</time>
      </trkpt>
      <trkpt lat="44.31845" lon="6.36489">
        <ele>1388.3</ele>
        <time>2018-08-10T06:57:48Z</time>
      </trkpt>
      <trkpt lat="44.31841" lon="6.3649">
        <ele>1388</ele>
        <time>2018-08-10T06:57:50Z</time>
      </trkpt>
      <trkpt lat="44.31837" lon="6.36491">
        <ele>1388.3</ele>
        <time>2018-08-10T06:57:52Z</time>
      </trkpt>
      <trkpt lat="44.31833" lon="6.36493">
        <ele>1388.1</ele>
        <time>2018-08-10T06:57:54Z</time>
      </trkpt>
      <trkpt lat="44.3183" lon="6.36495">
        <ele>1388.4</ele>
        <time>2018-08-10T06:57:56Z</time>
      </trkpt>
      <trkpt lat="44.31827" lon="6.36498">
        <ele>1388.1</ele>
        <time>2018-08-10T06:57:57Z</time>
      </trkpt>
      <trkpt lat="44.31824" lon="6.36502">
        <ele>1388.4</ele>
        <time>2018-08-10T06:57:59Z</time>
      </trkpt>
      <trkpt lat="44.31823" lon="6.36507">
        <ele>1388.6</ele>
        <time>2018-08-10T06:58:01Z</time>
      </trkpt>
      <trkpt lat="44.31821" lon="6.36511">
        <ele>1389</ele>
        <time>2018-08-10T06:58:03Z</time>
      </trkpt>
      <trkpt lat="44.31819" lon="6.36514">
        <ele>1389.2</ele>
        <time>2018-08-10T06:58:05Z</time>
      </trkpt>
      <trkpt lat="44.31817" lon="6.3652">
        <ele>1389.5</ele>
        <time>2018-08-10T06:58:07Z</time>
      </trkpt>
      <trkpt lat="44.31817" lon="6.36526">
        <ele>1390.3</ele>
        <time>2018-08-10T06:58:09Z</time>
      </trkpt>
      <trkpt lat="44.31817" lon="6.36532">
        <ele>1390.6</ele>
        <time>2018-08-10T06:58:11Z</time>
      </trkpt>
      <trkpt lat="44.31817" lon="6.36537">
        <ele>1390.9</ele>
        <time>2018-08-10T06:58:13Z</time>
      </trkpt>
      <trkpt lat="44.31818" lon="6.36543">
        <ele>1391.8</ele>
        <time>2018-08-10T06:58:15Z</time>
      </trkpt>
      <trkpt lat="44.31818" lon="6.36547">
        <ele>1392.2</ele>
        <time>2018-08-10T06:58:18Z</time>
      </trkpt>
      <trkpt lat="44.31816" lon="6.36552">
        <ele>1392.6</ele>
        <time>2018-08-10T06:58:21Z</time>
      </trkpt>
      <trkpt lat="44.31816" lon="6.36556">
        <ele>1393.1</ele>
        <time>2018-08-10T06:58:23Z</time>
      </trkpt>
      <trkpt lat="44.31815" lon="6.36562">
        <ele>1393.5</ele>
        <time>2018-08-10T06:58:25Z</time>
      </trkpt>
      <trkpt lat="44.31813" lon="6.36567">
        <ele>1393.9</ele>
        <time>2018-08-10T06:58:27Z</time>
      </trkpt>
      <trkpt lat="44.31814" lon="6.36572">
        <ele>1394.8</ele>
        <time>2018-08-10T06:58:29Z</time>
      </trkpt>
      <trkpt lat="44.31816" lon="6.36576">
        <ele>1395.2</ele>
        <time>2018-08-10T06:58:31Z</time>
      </trkpt>
      <trkpt lat="44.31819" lon="6.36575">
        <ele>1394.6</ele>
        <time>2018-08-10T06:58:34Z</time>
      </trkpt>
      <trkpt lat="44.31822" lon="6.36573">
        <ele>1394.6</ele>
        <time>2018-08-10T06:58:36Z</time>
      </trkpt>
      <trkpt lat="44.31824" lon="6.3657">
        <ele>1394.1</ele>
        <time>2018-08-10T06:58:38Z</time>
      </trkpt>
      <trkpt lat="44.31828" lon="6.36569">
        <ele>1394.1</ele>
        <time>2018-08-10T06:58:40Z</time>
      </trkpt>
      <trkpt lat="44.31832" lon="6.36571">
        <ele>1394.2</ele>
        <time>2018-08-10T06:58:43Z</time>
      </trkpt>
      <trkpt lat="44.31834" lon="6.36576">
        <ele>1395.3</ele>
        <time>2018-08-10T06:58:46Z</time>
      </trkpt>
      <trkpt lat="44.31837" lon="6.36578">
        <ele>1395.5</ele>
        <time>2018-08-10T06:58:48Z</time>
      </trkpt>
      <trkpt lat="44.31841" lon="6.36579">
        <ele>1395.7</ele>
        <time>2018-08-10T06:58:50Z</time>
      </trkpt>
      <trkpt lat="44.31843" lon="6.36577">
        <ele>1395.8</ele>
        <time>2018-08-10T06:58:52Z</time>
      </trkpt>
      <trkpt lat="44.31847" lon="6.36572">
        <ele>1395.5</ele>
        <time>2018-08-10T06:58:54Z</time>
      </trkpt>
      <trkpt lat="44.31852" lon="6.36568">
        <ele>1395.5</ele>
        <time>2018-08-10T06:58:56Z</time>
      </trkpt>
      <trkpt lat="44.31855" lon="6.36565">
        <ele>1395.2</ele>
        <time>2018-08-10T06:58:58Z</time>
      </trkpt>
      <trkpt lat="44.3186" lon="6.36563">
        <ele>1394.9</ele>
        <time>2018-08-10T06:59:00Z</time>
      </trkpt>
      <trkpt lat="44.31863" lon="6.36565">
        <ele>1395.8</ele>
        <time>2018-08-10T06:59:03Z</time>
      </trkpt>
      <trkpt lat="44.31866" lon="6.36566">
        <ele>1396.2</ele>
        <time>2018-08-10T06:59:05Z</time>
      </trkpt>
      <trkpt lat="44.31869" lon="6.36567">
        <ele>1396.5</ele>
        <time>2018-08-10T06:59:06Z</time>
      </trkpt>
      <trkpt lat="44.31872" lon="6.36569">
        <ele>1398.2</ele>
        <time>2018-08-10T06:59:09Z</time>
      </trkpt>
      <trkpt lat="44.31874" lon="6.36572">
        <ele>1398.8</ele>
        <time>2018-08-10T06:59:11Z</time>
      </trkpt>
      <trkpt lat="44.31878" lon="6.36574">
        <ele>1399.3</ele>
        <time>2018-08-10T06:59:13Z</time>
      </trkpt>
      <trkpt lat="44.31881" lon="6.36575">
        <ele>1399.7</ele>
        <time>2018-08-10T06:59:16Z</time>
      </trkpt>
      <trkpt lat="44.31884" lon="6.36576">
        <ele>1400.2</ele>
        <time>2018-08-10T06:59:18Z</time>
      </trkpt>
      <trkpt lat="44.31888" lon="6.36576">
        <ele>1401.2</ele>
        <time>2018-08-10T06:59:21Z</time>
      </trkpt>
      <trkpt lat="44.3189" lon="6.36579">
        <ele>1401.9</ele>
        <time>2018-08-10T06:59:23Z</time>
      </trkpt>
      <trkpt lat="44.31894" lon="6.36578">
        <ele>1403</ele>
        <time>2018-08-10T06:59:25Z</time>
      </trkpt>
      <trkpt lat="44.31898" lon="6.36579">
        <ele>1403.4</ele>
        <time>2018-08-10T06:59:27Z</time>
      </trkpt>
      <trkpt lat="44.31902" lon="6.36579">
        <ele>1403.8</ele>
        <time>2018-08-10T06:59:28Z</time>
      </trkpt>
      <trkpt lat="44.31905" lon="6.36579">
        <ele>1404.2</ele>
        <time>2018-08-10T06:59:30Z</time>
      </trkpt>
      <trkpt lat="44.31908" lon="6.36577">
        <ele>1404.5</ele>
        <time>2018-08-10T06:59:31Z</time>
      </trkpt>
      <trkpt lat="44.31912" lon="6.36576">
        <ele>1404.9</ele>
        <time>2018-08-10T06:59:33Z</time>
      </trkpt>
      <trkpt lat="44.31915" lon="6.36573">
        <ele>1404.8</ele>
        <time>2018-08-10T06:59:35Z</time>
      </trkpt>
      <trkpt lat="44.31919" lon="6.36571">
        <ele>1404.2</ele>
        <time>2018-08-10T06:59:37Z</time>
      </trkpt>
      <trkpt lat="44.31921" lon="6.36567">
        <ele>1403.1</ele>
        <time>2018-08-10T06:59:39Z</time>
      </trkpt>
      <trkpt lat="44.31922" lon="6.36563">
        <ele>1402.4</ele>
        <time>2018-08-10T06:59:40Z</time>
      </trkpt>
      <trkpt lat="44.31923" lon="6.36559">
        <ele>1401.2</ele>
        <time>2018-08-10T06:59:42Z</time>
      </trkpt>
      <trkpt lat="44.31926" lon="6.36555">
        <ele>1401.4</ele>
        <time>2018-08-10T06:59:44Z</time>
      </trkpt>
      <trkpt lat="44.31928" lon="6.36553">
        <ele>1400.5</ele>
        <time>2018-08-10T06:59:45Z</time>
      </trkpt>
      <trkpt lat="44.31932" lon="6.36549">
        <ele>1399.6</ele>
        <time>2018-08-10T06:59:47Z</time>
      </trkpt>
      <trkpt lat="44.31935" lon="6.36546">
        <ele>1398.7</ele>
        <time>2018-08-10T06:59:49Z</time>
      </trkpt>
      <trkpt lat="44.31939" lon="6.36544">
        <ele>1398.8</ele>
        <time>2018-08-10T06:59:52Z</time>
      </trkpt>
      <trkpt lat="44.31943" lon="6.36542">
        <ele>1399</ele>
        <time>2018-08-10T06:59:54Z</time>
      </trkpt>
      <trkpt lat="44.31946" lon="6.36542">
        <ele>1398.4</ele>
        <time>2018-08-10T06:59:56Z</time>
      </trkpt>
      <trkpt lat="44.31949" lon="6.36541">
        <ele>1398.5</ele>
        <time>2018-08-10T06:59:58Z</time>
      </trkpt>
      <trkpt lat="44.31952" lon="6.3654">
        <ele>1398.6</ele>
        <time>2018-08-10T07:00:00Z</time>
      </trkpt>
      <trkpt lat="44.31956" lon="6.36538">
        <ele>1398.6</ele>
        <time>2018-08-10T07:00:02Z</time>
      </trkpt>
      <trkpt lat="44.31961" lon="6.36537">
        <ele>1397.7</ele>
        <time>2018-08-10T07:00:05Z</time>
      </trkpt>
      <trkpt lat="44.31966" lon="6.36536">
        <ele>1397.7</ele>
        <time>2018-08-10T07:00:07Z</time>
      </trkpt>
      <trkpt lat="44.31969" lon="6.36535">
        <ele>1397.5</ele>
        <time>2018-08-10T07:00:09Z</time>
      </trkpt>
      <trkpt lat="44.31973" lon="6.36534">
        <ele>1397.4</ele>
        <time>2018-08-10T07:00:11Z</time>
      </trkpt>
      <trkpt lat="44.31977" lon="6.36532">
        <ele>1396.3</ele>
        <time>2018-08-10T07:00:13Z</time>
      </trkpt>
      <trkpt lat="44.31982" lon="6.36531">
        <ele>1396.1</ele>
        <time>2018-08-10T07:00:15Z</time>
      </trkpt>
      <trkpt lat="44.31987" lon="6.36528">
        <ele>1394.9</ele>
        <time>2018-08-10T07:00:17Z</time>
      </trkpt>
      <trkpt lat="44.31989" lon="6.36526">
        <ele>1394.7</ele>
        <time>2018-08-10T07:00:19Z</time>
      </trkpt>
      <trkpt lat="44.31994" lon="6.36524">
        <ele>1393.7</ele>
        <time>2018-08-10T07:00:21Z</time>
      </trkpt>
      <trkpt lat="44.31997" lon="6.3652">
        <ele>1393.4</ele>
        <time>2018-08-10T07:00:23Z</time>
      </trkpt>
      <trkpt lat="44.32" lon="6.36518">
        <ele>1392.3</ele>
        <time>2018-08-10T07:00:25Z</time>
      </trkpt>
      <trkpt lat="44.32003" lon="6.36516">
        <ele>1392</ele>
        <time>2018-08-10T07:00:27Z</time>
      </trkpt>
      <trkpt lat="44.32006" lon="6.36513">
        <ele>1390.9</ele>
        <time>2018-08-10T07:00:29Z</time>
      </trkpt>
      <trkpt lat="44.3201" lon="6.36512">
        <ele>1389.7</ele>
        <time>2018-08-10T07:00:31Z</time>
      </trkpt>
      <trkpt lat="44.32014" lon="6.36508">
        <ele>1389.2</ele>
        <time>2018-08-10T07:00:34Z</time>
      </trkpt>
      <trkpt lat="44.32017" lon="6.36507">
        <ele>1388</ele>
        <time>2018-08-10T07:00:36Z</time>
      </trkpt>
      <trkpt lat="44.3202" lon="6.36505">
        <ele>1387.6</ele>
        <time>2018-08-10T07:00:38Z</time>
      </trkpt>
      <trkpt lat="44.32023" lon="6.36506">
        <ele>1387.1</ele>
        <time>2018-08-10T07:00:40Z</time>
      </trkpt>
      <trkpt lat="44.32026" lon="6.36507">
        <ele>1386.6</ele>
        <time>2018-08-10T07:00:43Z</time>
      </trkpt>
      <trkpt lat="44.32029" lon="6.36512">
        <ele>1387.8</ele>
        <time>2018-08-10T07:00:46Z</time>
      </trkpt>
      <trkpt lat="44.3203" lon="6.36517">
        <ele>1388.5</ele>
        <time>2018-08-10T07:00:49Z</time>
      </trkpt>
      <trkpt lat="44.32033" lon="6.36522">
        <ele>1388.8</ele>
        <time>2018-08-10T07:00:51Z</time>
      </trkpt>
      <trkpt lat="44.32033" lon="6.36527">
        <ele>1389.4</ele>
        <time>2018-08-10T07:00:53Z</time>
      </trkpt>
      <trkpt lat="44.32032" lon="6.36532">
        <ele>1390.4</ele>
        <time>2018-08-10T07:00:55Z</time>
      </trkpt>
      <trkpt lat="44.32029" lon="6.36538">
        <ele>1391.7</ele>
        <time>2018-08-10T07:00:57Z</time>
      </trkpt>
      <trkpt lat="44.32027" lon="6.36543">
        <ele>1392.8</ele>
        <time>2018-08-10T07:00:59Z</time>
      </trkpt>
      <trkpt lat="44.32027" lon="6.36547">
        <ele>1393.5</ele>
        <time>2018-08-10T07:01:01Z</time>
      </trkpt>
      <trkpt lat="44.32027" lon="6.36553">
        <ele>1394.3</ele>
        <time>2018-08-10T07:01:03Z</time>
      </trkpt>
      <trkpt lat="44.32028" lon="6.36557">
        <ele>1395.1</ele>
        <time>2018-08-10T07:01:05Z</time>
      </trkpt>
      <trkpt lat="44.32031" lon="6.36562">
        <ele>1395.5</ele>
        <time>2018-08-10T07:01:07Z</time>
      </trkpt>
      <trkpt lat="44.32033" lon="6.36566">
        <ele>1395.8</ele>
        <time>2018-08-10T07:01:08Z</time>
      </trkpt>
      <trkpt lat="44.32033" lon="6.36571">
        <ele>1396.4</ele>
        <time>2018-08-10T07:01:10Z</time>
      </trkpt>
      <trkpt lat="44.32034" lon="6.36575">
        <ele>1397.1</ele>
        <time>2018-08-10T07:01:12Z</time>
      </trkpt>
      <trkpt lat="44.32035" lon="6.3658">
        <ele>1397.7</ele>
        <time>2018-08-10T07:01:14Z</time>
      </trkpt>
      <trkpt lat="44.32036" lon="6.36587">
        <ele>1398.7</ele>
        <time>2018-08-10T07:01:16Z</time>
      </trkpt>
      <trkpt lat="44.32037" lon="6.36591">
        <ele>1399.4</ele>
        <time>2018-08-10T07:01:18Z</time>
      </trkpt>
      <trkpt lat="44.32036" lon="6.36598">
        <ele>1400.9</ele>
        <time>2018-08-10T07:01:20Z</time>
      </trkpt>
      <trkpt lat="44.32037" lon="6.36603">
        <ele>1401.6</ele>
        <time>2018-08-10T07:01:22Z</time>
      </trkpt>
      <trkpt lat="44.32037" lon="6.36609">
        <ele>1402.4</ele>
        <time>2018-08-10T07:01:24Z</time>
      </trkpt>
      <trkpt lat="44.32038" lon="6.36614">
        <ele>1402.6</ele>
        <time>2018-08-10T07:01:26Z</time>
      </trkpt>
      <trkpt lat="44.3204" lon="6.36619">
        <ele>1403.2</ele>
        <time>2018-08-10T07:01:28Z</time>
      </trkpt>
      <trkpt lat="44.32041" lon="6.36625">
        <ele>1404.7</ele>
        <time>2018-08-10T07:01:30Z</time>
      </trkpt>
      <trkpt lat="44.32042" lon="6.3663">
        <ele>1404.9</ele>
        <time>2018-08-10T07:01:32Z</time>
      </trkpt>
      <trkpt lat="44.32044" lon="6.36636">
        <ele>1405.6</ele>
        <time>2018-08-10T07:01:34Z</time>
      </trkpt>
      <trkpt lat="44.32047" lon="6.36641">
        <ele>1407</ele>
        <time>2018-08-10T07:01:36Z</time>
      </trkpt>
      <trkpt lat="44.3205" lon="6.36646">
        <ele>1407.4</ele>
        <time>2018-08-10T07:01:38Z</time>
      </trkpt>
      <trkpt lat="44.32053" lon="6.3665">
        <ele>1407.5</ele>
        <time>2018-08-10T07:01:40Z</time>
      </trkpt>
      <trkpt lat="44.32057" lon="6.36654">
        <ele>1408</ele>
        <time>2018-08-10T07:01:42Z</time>
      </trkpt>
      <trkpt lat="44.3206" lon="6.36659">
        <ele>1408.5</ele>
        <time>2018-08-10T07:01:44Z</time>
      </trkpt>
      <trkpt lat="44.32061" lon="6.36663">
        <ele>1409.3</ele>
        <time>2018-08-10T07:01:47Z</time>
      </trkpt>
      <trkpt lat="44.32063" lon="6.36663">
        <ele>1408.9</ele>
        <time>2018-08-10T07:01:48Z</time>
      </trkpt>
      <trkpt lat="44.32067" lon="6.3666">
        <ele>1407.5</ele>
        <time>2018-08-10T07:01:50Z</time>
      </trkpt>
      <trkpt lat="44.32071" lon="6.36659">
        <ele>1407.1</ele>
        <time>2018-08-10T07:01:52Z</time>
      </trkpt>
      <trkpt lat="44.32076" lon="6.36659">
        <ele>1406.3</ele>
        <time>2018-08-10T07:01:56Z</time>
      </trkpt>
      <trkpt lat="44.32079" lon="6.36659">
        <ele>1405.8</ele>
        <time>2018-08-10T07:01:57Z</time>
      </trkpt>
      <trkpt lat="44.32083" lon="6.36661">
        <ele>1405.4</ele>
        <time>2018-08-10T07:01:59Z</time>
      </trkpt>
      <trkpt lat="44.32083" lon="6.36666">
        <ele>1406.2</ele>
        <time>2018-08-10T07:02:01Z</time>
      </trkpt>
      <trkpt lat="44.32082" lon="6.3667">
        <ele>1406.9</ele>
        <time>2018-08-10T07:02:03Z</time>
      </trkpt>
      <trkpt lat="44.32086" lon="6.36672">
        <ele>1407.4</ele>
        <time>2018-08-10T07:02:05Z</time>
      </trkpt>
      <trkpt lat="44.32089" lon="6.36677">
        <ele>1408</ele>
        <time>2018-08-10T07:02:07Z</time>
      </trkpt>
      <trkpt lat="44.32092" lon="6.36679">
        <ele>1407.7</ele>
        <time>2018-08-10T07:02:09Z</time>
      </trkpt>
      <trkpt lat="44.32098" lon="6.36683">
        <ele>1408.3</ele>
        <time>2018-08-10T07:02:11Z</time>
      </trkpt>
      <trkpt lat="44.32101" lon="6.36684">
        <ele>1409.1</ele>
        <time>2018-08-10T07:02:12Z</time>
      </trkpt>
      <trkpt lat="44.32104" lon="6.36688">
        <ele>1408.9</ele>
        <time>2018-08-10T07:02:14Z</time>
      </trkpt>
      <trkpt lat="44.32107" lon="6.36692">
        <ele>1411</ele>
        <time>2018-08-10T07:02:16Z</time>
      </trkpt>
      <trkpt lat="44.32108" lon="6.36698">
        <ele>1412</ele>
        <time>2018-08-10T07:02:18Z</time>
      </trkpt>
      <trkpt lat="44.32111" lon="6.36699">
        <ele>1411.9</ele>
        <time>2018-08-10T07:02:19Z</time>
      </trkpt>
      <trkpt lat="44.32114" lon="6.36703">
        <ele>1412.8</ele>
        <time>2018-08-10T07:02:21Z</time>
      </trkpt>
      <trkpt lat="44.32117" lon="6.36709">
        <ele>1413.7</ele>
        <time>2018-08-10T07:02:23Z</time>
      </trkpt>
      <trkpt lat="44.32119" lon="6.36714">
        <ele>1415.4</ele>
        <time>2018-08-10T07:02:25Z</time>
      </trkpt>
      <trkpt lat="44.32122" lon="6.36718">
        <ele>1416.3</ele>
        <time>2018-08-10T07:02:27Z</time>
      </trkpt>
      <trkpt lat="44.32126" lon="6.36719">
        <ele>1416.2</ele>
        <time>2018-08-10T07:02:29Z</time>
      </trkpt>
      <trkpt lat="44.32129" lon="6.36718">
        <ele>1416.2</ele>
        <time>2018-08-10T07:02:31Z</time>
      </trkpt>
      <trkpt lat="44.32132" lon="6.36716">
        <ele>1415.3</ele>
        <time>2018-08-10T07:02:32Z</time>
      </trkpt>
      <trkpt lat="44.32136" lon="6.36711">
        <ele>1414.6</ele>
        <time>2018-08-10T07:02:34Z</time>
      </trkpt>
      <trkpt lat="44.32138" lon="6.36707">
        <ele>1413.6</ele>
        <time>2018-08-10T07:02:36Z</time>
      </trkpt>
      <trkpt lat="44.32142" lon="6.36703">
        <ele>1412.7</ele>
        <time>2018-08-10T07:02:38Z</time>
      </trkpt>
      <trkpt lat="44.32147" lon="6.36699">
        <ele>1412.1</ele>
        <time>2018-08-10T07:02:40Z</time>
      </trkpt>
      <trkpt lat="44.3215" lon="6.36697">
        <ele>1412.2</ele>
        <time>2018-08-10T07:02:41Z</time>
      </trkpt>
      <trkpt lat="44.32153" lon="6.36694">
        <ele>1411.3</ele>
        <time>2018-08-10T07:02:43Z</time>
      </trkpt>
      <trkpt lat="44.32156" lon="6.36691">
        <ele>1410.3</ele>
        <time>2018-08-10T07:02:45Z</time>
      </trkpt>
      <trkpt lat="44.32162" lon="6.3669">
        <ele>1411.1</ele>
        <time>2018-08-10T07:02:47Z</time>
      </trkpt>
      <trkpt lat="44.32167" lon="6.3669">
        <ele>1411.9</ele>
        <time>2018-08-10T07:02:49Z</time>
      </trkpt>
      <trkpt lat="44.32172" lon="6.36688">
        <ele>1412.3</ele>
        <time>2018-08-10T07:02:51Z</time>
      </trkpt>
      <trkpt lat="44.32176" lon="6.36684">
        <ele>1411.9</ele>
        <time>2018-08-10T07:02:53Z</time>
      </trkpt>
      <trkpt lat="44.32179" lon="6.36682">
        <ele>1410.6</ele>
        <time>2018-08-10T07:02:54Z</time>
      </trkpt>
      <trkpt lat="44.32181" lon="6.36679">
        <ele>1409.8</ele>
        <time>2018-08-10T07:02:56Z</time>
      </trkpt>
      <trkpt lat="44.32184" lon="6.36677">
        <ele>1410.1</ele>
        <time>2018-08-10T07:02:57Z</time>
      </trkpt>
      <trkpt lat="44.32186" lon="6.36675">
        <ele>1410.4</ele>
        <time>2018-08-10T07:02:58Z</time>
      </trkpt>
      <trkpt lat="44.32191" lon="6.36672">
        <ele>1409.6</ele>
        <time>2018-08-10T07:03:00Z</time>
      </trkpt>
      <trkpt lat="44.32194" lon="6.36671">
        <ele>1409.9</ele>
        <time>2018-08-10T07:03:02Z</time>
      </trkpt>
      <trkpt lat="44.32198" lon="6.36671">
        <ele>1409.6</ele>
        <time>2018-08-10T07:03:04Z</time>
      </trkpt>
      <trkpt lat="44.32203" lon="6.36669">
        <ele>1409.9</ele>
        <time>2018-08-10T07:03:07Z</time>
      </trkpt>
      <trkpt lat="44.32208" lon="6.36668">
        <ele>1410.7</ele>
        <time>2018-08-10T07:03:09Z</time>
      </trkpt>
      <trkpt lat="44.32211" lon="6.36668">
        <ele>1411.1</ele>
        <time>2018-08-10T07:03:10Z</time>
      </trkpt>
      <trkpt lat="44.32215" lon="6.36667">
        <ele>1411.4</ele>
        <time>2018-08-10T07:03:12Z</time>
      </trkpt>
      <trkpt lat="44.32219" lon="6.36666">
        <ele>1410.7</ele>
        <time>2018-08-10T07:03:14Z</time>
      </trkpt>
      <trkpt lat="44.32223" lon="6.36667">
        <ele>1412.7</ele>
        <time>2018-08-10T07:03:16Z</time>
      </trkpt>
      <trkpt lat="44.32228" lon="6.36669">
        <ele>1413.1</ele>
        <time>2018-08-10T07:03:18Z</time>
      </trkpt>
      <trkpt lat="44.32231" lon="6.36671">
        <ele>1414.7</ele>
        <time>2018-08-10T07:03:20Z</time>
      </trkpt>
      <trkpt lat="44.32235" lon="6.3667">
        <ele>1414.3</ele>
        <time>2018-08-10T07:03:22Z</time>
      </trkpt>
      <trkpt lat="44.32238" lon="6.36671">
        <ele>1414.6</ele>
        <time>2018-08-10T07:03:24Z</time>
      </trkpt>
      <trkpt lat="44.32243" lon="6.36672">
        <ele>1416.2</ele>
        <time>2018-08-10T07:03:26Z</time>
      </trkpt>
      <trkpt lat="44.32246" lon="6.36675">
        <ele>1416.4</ele>
        <time>2018-08-10T07:03:28Z</time>
      </trkpt>
      <trkpt lat="44.32249" lon="6.36673">
        <ele>1416.7</ele>
        <time>2018-08-10T07:03:29Z</time>
      </trkpt>
      <trkpt lat="44.32252" lon="6.36672">
        <ele>1417</ele>
        <time>2018-08-10T07:03:31Z</time>
      </trkpt>
      <trkpt lat="44.32257" lon="6.36673">
        <ele>1418.1</ele>
        <time>2018-08-10T07:03:33Z</time>
      </trkpt>
      <trkpt lat="44.32261" lon="6.36673">
        <ele>1418.7</ele>
        <time>2018-08-10T07:03:35Z</time>
      </trkpt>
      <trkpt lat="44.32266" lon="6.36675">
        <ele>1419</ele>
        <time>2018-08-10T07:03:37Z</time>
      </trkpt>
      <trkpt lat="44.3227" lon="6.36676">
        <ele>1419.2</ele>
        <time>2018-08-10T07:03:39Z</time>
      </trkpt>
      <trkpt lat="44.32273" lon="6.36679">
        <ele>1419.4</ele>
        <time>2018-08-10T07:03:41Z</time>
      </trkpt>
      <trkpt lat="44.32278" lon="6.3668">
        <ele>1419.5</ele>
        <time>2018-08-10T07:03:43Z</time>
      </trkpt>
      <trkpt lat="44.32281" lon="6.36681">
        <ele>1419.6</ele>
        <time>2018-08-10T07:03:45Z</time>
      </trkpt>
      <trkpt lat="44.32285" lon="6.3668">
        <ele>1419.7</ele>
        <time>2018-08-10T07:03:47Z</time>
      </trkpt>
      <trkpt lat="44.32288" lon="6.36678">
        <ele>1419.8</ele>
        <time>2018-08-10T07:03:49Z</time>
      </trkpt>
      <trkpt lat="44.32292" lon="6.36678">
        <ele>1420</ele>
        <time>2018-08-10T07:03:51Z</time>
      </trkpt>
      <trkpt lat="44.32296" lon="6.36679">
        <ele>1420.5</ele>
        <time>2018-08-10T07:03:53Z</time>
      </trkpt>
      <trkpt lat="44.32301" lon="6.3668">
        <ele>1421.6</ele>
        <time>2018-08-10T07:03:55Z</time>
      </trkpt>
      <trkpt lat="44.32304" lon="6.3668">
        <ele>1422.9</ele>
        <time>2018-08-10T07:03:57Z</time>
      </trkpt>
      <trkpt lat="44.3231" lon="6.36686">
        <ele>1424.6</ele>
        <time>2018-08-10T07:03:59Z</time>
      </trkpt>
      <trkpt lat="44.32314" lon="6.3669">
        <ele>1425.6</ele>
        <time>2018-08-10T07:04:01Z</time>
      </trkpt>
      <trkpt lat="44.32316" lon="6.36693">
        <ele>1426.6</ele>
        <time>2018-08-10T07:04:02Z</time>
      </trkpt>
      <trkpt lat="44.3232" lon="6.36698">
        <ele>1428.4</ele>
        <time>2018-08-10T07:04:04Z</time>
      </trkpt>
      <trkpt lat="44.32323" lon="6.36704">
        <ele>1429.3</ele>
        <time>2018-08-10T07:04:06Z</time>
      </trkpt>
      <trkpt lat="44.32326" lon="6.36708">
        <ele>1429.6</ele>
        <time>2018-08-10T07:04:08Z</time>
      </trkpt>
      <trkpt lat="44.32331" lon="6.36709">
        <ele>1428.9</ele>
        <time>2018-08-10T07:04:10Z</time>
      </trkpt>
      <trkpt lat="44.32334" lon="6.36708">
        <ele>1428.5</ele>
        <time>2018-08-10T07:04:11Z</time>
      </trkpt>
      <trkpt lat="44.32339" lon="6.36707">
        <ele>1427.6</ele>
        <time>2018-08-10T07:04:13Z</time>
      </trkpt>
      <trkpt lat="44.32344" lon="6.36704">
        <ele>1426.2</ele>
        <time>2018-08-10T07:04:15Z</time>
      </trkpt>
      <trkpt lat="44.32347" lon="6.36701">
        <ele>1424.9</ele>
        <time>2018-08-10T07:04:17Z</time>
      </trkpt>
      <trkpt lat="44.3235" lon="6.36696">
        <ele>1424.7</ele>
        <time>2018-08-10T07:04:19Z</time>
      </trkpt>
      <trkpt lat="44.32352" lon="6.36693">
        <ele>1424.7</ele>
        <time>2018-08-10T07:04:20Z</time>
      </trkpt>
      <trkpt lat="44.32355" lon="6.36691">
        <ele>1424.6</ele>
        <time>2018-08-10T07:04:21Z</time>
      </trkpt>
      <trkpt lat="44.32356" lon="6.36687">
        <ele>1424.3</ele>
        <time>2018-08-10T07:04:23Z</time>
      </trkpt>
      <trkpt lat="44.32359" lon="6.36686">
        <ele>1423.9</ele>
        <time>2018-08-10T07:04:24Z</time>
      </trkpt>
      <trkpt lat="44.32364" lon="6.36683">
        <ele>1423.6</ele>
        <time>2018-08-10T07:04:26Z</time>
      </trkpt>
      <trkpt lat="44.32368" lon="6.36683">
        <ele>1423.7</ele>
        <time>2018-08-10T07:04:29Z</time>
      </trkpt>
      <trkpt lat="44.32371" lon="6.36683">
        <ele>1423.7</ele>
        <time>2018-08-10T07:04:31Z</time>
      </trkpt>
      <trkpt lat="44.32374" lon="6.36683">
        <ele>1423.5</ele>
        <time>2018-08-10T07:04:33Z</time>
      </trkpt>
      <trkpt lat="44.32378" lon="6.36683">
        <ele>1423.2</ele>
        <time>2018-08-10T07:04:35Z</time>
      </trkpt>
      <trkpt lat="44.32383" lon="6.36683">
        <ele>1423.3</ele>
        <time>2018-08-10T07:04:37Z</time>
      </trkpt>
      <trkpt lat="44.32388" lon="6.36684">
        <ele>1424.1</ele>
        <time>2018-08-10T07:04:39Z</time>
      </trkpt>
      <trkpt lat="44.32392" lon="6.36687">
        <ele>1424.2</ele>
        <time>2018-08-10T07:04:41Z</time>
      </trkpt>
      <trkpt lat="44.32395" lon="6.36687">
        <ele>1424.3</ele>
        <time>2018-08-10T07:04:42Z</time>
      </trkpt>
      <trkpt lat="44.324" lon="6.36687">
        <ele>1424.7</ele>
        <time>2018-08-10T07:04:44Z</time>
      </trkpt>
      <trkpt lat="44.32404" lon="6.36688">
        <ele>1425.2</ele>
        <time>2018-08-10T07:04:46Z</time>
      </trkpt>
      <trkpt lat="44.32405" lon="6.36692">
        <ele>1425.6</ele>
        <time>2018-08-10T07:04:48Z</time>
      </trkpt>
      <trkpt lat="44.32407" lon="6.36696">
        <ele>1426</ele>
        <time>2018-08-10T07:04:50Z</time>
      </trkpt>
      <trkpt lat="44.3241" lon="6.36695">
        <ele>1426.3</ele>
        <time>2018-08-10T07:04:52Z</time>
      </trkpt>
      <trkpt lat="44.32414" lon="6.36698">
        <ele>1426.7</ele>
        <time>2018-08-10T07:04:53Z</time>
      </trkpt>
      <trkpt lat="44.32417" lon="6.367">
        <ele>1427</ele>
        <time>2018-08-10T07:04:55Z</time>
      </trkpt>
      <trkpt lat="44.32422" lon="6.36703">
        <ele>1427</ele>
        <time>2018-08-10T07:04:57Z</time>
      </trkpt>
      <trkpt lat="44.32426" lon="6.36708">
        <ele>1426.8</ele>
        <time>2018-08-10T07:04:59Z</time>
      </trkpt>
      <trkpt lat="44.32432" lon="6.36709">
        <ele>1426.7</ele>
        <time>2018-08-10T07:05:01Z</time>
      </trkpt>
      <trkpt lat="44.32435" lon="6.3671">
        <ele>1426.8</ele>
        <time>2018-08-10T07:05:02Z</time>
      </trkpt>
      <trkpt lat="44.32437" lon="6.36714">
        <ele>1427.1</ele>
        <time>2018-08-10T07:05:04Z</time>
      </trkpt>
      <trkpt lat="44.3244" lon="6.3672">
        <ele>1428.2</ele>
        <time>2018-08-10T07:05:06Z</time>
      </trkpt>
      <trkpt lat="44.32441" lon="6.36723">
        <ele>1429.1</ele>
        <time>2018-08-10T07:05:07Z</time>
      </trkpt>
      <trkpt lat="44.32441" lon="6.36729">
        <ele>1430.3</ele>
        <time>2018-08-10T07:05:09Z</time>
      </trkpt>
      <trkpt lat="44.32441" lon="6.36734">
        <ele>1431.1</ele>
        <time>2018-08-10T07:05:11Z</time>
      </trkpt>
      <trkpt lat="44.32443" lon="6.36739">
        <ele>1431.9</ele>
        <time>2018-08-10T07:05:13Z</time>
      </trkpt>
      <trkpt lat="44.32445" lon="6.36744">
        <ele>1432.6</ele>
        <time>2018-08-10T07:05:15Z</time>
      </trkpt>
      <trkpt lat="44.32446" lon="6.3675">
        <ele>1433.9</ele>
        <time>2018-08-10T07:05:17Z</time>
      </trkpt>
      <trkpt lat="44.32449" lon="6.36755">
        <ele>1435.4</ele>
        <time>2018-08-10T07:05:19Z</time>
      </trkpt>
      <trkpt lat="44.32452" lon="6.3676">
        <ele>1435.9</ele>
        <time>2018-08-10T07:05:21Z</time>
      </trkpt>
      <trkpt lat="44.32455" lon="6.36762">
        <ele>1436.1</ele>
        <time>2018-08-10T07:05:22Z</time>
      </trkpt>
      <trkpt lat="44.32457" lon="6.36764">
        <ele>1436.3</ele>
        <time>2018-08-10T07:05:23Z</time>
      </trkpt>
      <trkpt lat="44.32459" lon="6.36768">
        <ele>1436.8</ele>
        <time>2018-08-10T07:05:25Z</time>
      </trkpt>
      <trkpt lat="44.32463" lon="6.36769">
        <ele>1437.3</ele>
        <time>2018-08-10T07:05:27Z</time>
      </trkpt>
      <trkpt lat="44.32467" lon="6.36773">
        <ele>1437.8</ele>
        <time>2018-08-10T07:05:30Z</time>
      </trkpt>
      <trkpt lat="44.3247" lon="6.36772">
        <ele>1438.1</ele>
        <time>2018-08-10T07:05:34Z</time>
      </trkpt>
      <trkpt lat="44.32472" lon="6.36772">
        <ele>1438.3</ele>
        <time>2018-08-10T07:05:35Z</time>
      </trkpt>
      <trkpt lat="44.32478" lon="6.36773">
        <ele>1438.4</ele>
        <time>2018-08-10T07:05:36Z</time>
      </trkpt>
      <trkpt lat="44.32481" lon="6.36771">
        <ele>1438.6</ele>
        <time>2018-08-10T07:05:38Z</time>
      </trkpt>
      <trkpt lat="44.32486" lon="6.36772">
        <ele>1438.8</ele>
        <time>2018-08-10T07:05:40Z</time>
      </trkpt>
      <trkpt lat="44.32489" lon="6.36773">
        <ele>1438.7</ele>
        <time>2018-08-10T07:05:41Z</time>
      </trkpt>
      <trkpt lat="44.32491" lon="6.36771">
        <ele>1438.2</ele>
        <time>2018-08-10T07:05:51Z</time>
      </trkpt>
      <trkpt lat="44.32496" lon="6.36771">
        <ele>1437.6</ele>
        <time>2018-08-10T07:05:53Z</time>
      </trkpt>
      <trkpt lat="44.32492" lon="6.3677">
        <ele>1438</ele>
        <time>2018-08-10T07:05:59Z</time>
      </trkpt>
      <trkpt lat="44.32486" lon="6.36771">
        <ele>1438.9</ele>
        <time>2018-08-10T07:06:01Z</time>
      </trkpt>
      <trkpt lat="44.32483" lon="6.36772">
        <ele>1438.7</ele>
        <time>2018-08-10T07:06:02Z</time>
      </trkpt>
      <trkpt lat="44.32479" lon="6.36771">
        <ele>1438.6</ele>
        <time>2018-08-10T07:06:03Z</time>
      </trkpt>
      <trkpt lat="44.32476" lon="6.36769">
        <ele>1438.4</ele>
        <time>2018-08-10T07:06:04Z</time>
      </trkpt>
      <trkpt lat="44.32471" lon="6.36764">
        <ele>1438.2</ele>
        <time>2018-08-10T07:06:05Z</time>
      </trkpt>
      <trkpt lat="44.3247" lon="6.3676">
        <ele>1437.9</ele>
        <time>2018-08-10T07:06:06Z</time>
      </trkpt>
      <trkpt lat="44.32462" lon="6.36754">
        <ele>1436.9</ele>
        <time>2018-08-10T07:06:07Z</time>
      </trkpt>
      <trkpt lat="44.32458" lon="6.36748">
        <ele>1436.2</ele>
        <time>2018-08-10T07:06:08Z</time>
      </trkpt>
      <trkpt lat="44.32456" lon="6.36741">
        <ele>1435.9</ele>
        <time>2018-08-10T07:06:09Z</time>
      </trkpt>
      <trkpt lat="44.32456" lon="6.36737">
        <ele>1435.7</ele>
        <time>2018-08-10T07:06:10Z</time>
      </trkpt>
      <trkpt lat="44.32456" lon="6.36732">
        <ele>1434.6</ele>
        <time>2018-08-10T07:06:11Z</time>
      </trkpt>
      <trkpt lat="44.32456" lon="6.36726">
        <ele>1433.3</ele>
        <time>2018-08-10T07:06:13Z</time>
      </trkpt>
      <trkpt lat="44.32456" lon="6.36721">
        <ele>1432.6</ele>
        <time>2018-08-10T07:06:15Z</time>
      </trkpt>
      <trkpt lat="44.32456" lon="6.36717">
        <ele>1432</ele>
        <time>2018-08-10T07:06:16Z</time>
      </trkpt>
      <trkpt lat="44.32455" lon="6.36714">
        <ele>1431.5</ele>
        <time>2018-08-10T07:06:17Z</time>
      </trkpt>
      <trkpt lat="44.32453" lon="6.36711">
        <ele>1431</ele>
        <time>2018-08-10T07:06:18Z</time>
      </trkpt>
      <trkpt lat="44.3245" lon="6.36708">
        <ele>1430.1</ele>
        <time>2018-08-10T07:06:19Z</time>
      </trkpt>
      <trkpt lat="44.32447" lon="6.36705">
        <ele>1429.3</ele>
        <time>2018-08-10T07:06:20Z</time>
      </trkpt>
      <trkpt lat="44.32442" lon="6.36702">
        <ele>1427.5</ele>
        <time>2018-08-10T07:06:21Z</time>
      </trkpt>
      <trkpt lat="44.32439" lon="6.36699">
        <ele>1427.1</ele>
        <time>2018-08-10T07:06:22Z</time>
      </trkpt>
      <trkpt lat="44.32433" lon="6.36694">
        <ele>1426.7</ele>
        <time>2018-08-10T07:06:24Z</time>
      </trkpt>
      <trkpt lat="44.32431" lon="6.36691">
        <ele>1426.8</ele>
        <time>2018-08-10T07:06:25Z</time>
      </trkpt>
      <trkpt lat="44.32426" lon="6.36689">
        <ele>1426.9</ele>
        <time>2018-08-10T07:06:26Z</time>
      </trkpt>
      <trkpt lat="44.32421" lon="6.36686">
        <ele>1427</ele>
        <time>2018-08-10T07:06:27Z</time>
      </trkpt>
      <trkpt lat="44.32416" lon="6.36685">
        <ele>1426.8</ele>
        <time>2018-08-10T07:06:28Z</time>
      </trkpt>
      <trkpt lat="44.32416" lon="6.36679">
        <ele>1426.4</ele>
        <time>2018-08-10T07:06:29Z</time>
      </trkpt>
      <trkpt lat="44.32413" lon="6.36676">
        <ele>1426</ele>
        <time>2018-08-10T07:06:30Z</time>
      </trkpt>
      <trkpt lat="44.32405" lon="6.36674">
        <ele>1425.1</ele>
        <time>2018-08-10T07:06:31Z</time>
      </trkpt>
      <trkpt lat="44.324" lon="6.36672">
        <ele>1424.6</ele>
        <time>2018-08-10T07:06:32Z</time>
      </trkpt>
      <trkpt lat="44.32396" lon="6.3667">
        <ele>1424.3</ele>
        <time>2018-08-10T07:06:33Z</time>
      </trkpt>
      <trkpt lat="44.3239" lon="6.3667">
        <ele>1424.2</ele>
        <time>2018-08-10T07:06:34Z</time>
      </trkpt>
      <trkpt lat="44.32386" lon="6.36669">
        <ele>1423.6</ele>
        <time>2018-08-10T07:06:35Z</time>
      </trkpt>
      <trkpt lat="44.32382" lon="6.36668">
        <ele>1423</ele>
        <time>2018-08-10T07:06:36Z</time>
      </trkpt>
      <trkpt lat="44.32377" lon="6.36666">
        <ele>1423.3</ele>
        <time>2018-08-10T07:06:38Z</time>
      </trkpt>
      <trkpt lat="44.32374" lon="6.36667">
        <ele>1423.6</ele>
        <time>2018-08-10T07:06:40Z</time>
      </trkpt>
      <trkpt lat="44.32369" lon="6.36668">
        <ele>1423.7</ele>
        <time>2018-08-10T07:06:42Z</time>
      </trkpt>
      <trkpt lat="44.32365" lon="6.36668">
        <ele>1423.6</ele>
        <time>2018-08-10T07:06:43Z</time>
      </trkpt>
      <trkpt lat="44.32362" lon="6.36671">
        <ele>1423.7</ele>
        <time>2018-08-10T07:06:44Z</time>
      </trkpt>
      <trkpt lat="44.32357" lon="6.36674">
        <ele>1424.3</ele>
        <time>2018-08-10T07:06:45Z</time>
      </trkpt>
      <trkpt lat="44.32353" lon="6.36678">
        <ele>1424.7</ele>
        <time>2018-08-10T07:06:46Z</time>
      </trkpt>
      <trkpt lat="44.32351" lon="6.36682">
        <ele>1424.7</ele>
        <time>2018-08-10T07:06:47Z</time>
      </trkpt>
      <trkpt lat="44.3235" lon="6.36686">
        <ele>1424.8</ele>
        <time>2018-08-10T07:06:48Z</time>
      </trkpt>
      <trkpt lat="44.32348" lon="6.36689">
        <ele>1425</ele>
        <time>2018-08-10T07:06:49Z</time>
      </trkpt>
      <trkpt lat="44.32345" lon="6.36691">
        <ele>1425.9</ele>
        <time>2018-08-10T07:06:50Z</time>
      </trkpt>
      <trkpt lat="44.32341" lon="6.36691">
        <ele>1427.2</ele>
        <time>2018-08-10T07:06:51Z</time>
      </trkpt>
      <trkpt lat="44.32338" lon="6.36687">
        <ele>1427.8</ele>
        <time>2018-08-10T07:06:52Z</time>
      </trkpt>
      <trkpt lat="44.32335" lon="6.36685">
        <ele>1428.4</ele>
        <time>2018-08-10T07:06:54Z</time>
      </trkpt>
      <trkpt lat="44.32331" lon="6.36683">
        <ele>1428.9</ele>
        <time>2018-08-10T07:06:56Z</time>
      </trkpt>
      <trkpt lat="44.32328" lon="6.3668">
        <ele>1429.4</ele>
        <time>2018-08-10T07:06:57Z</time>
      </trkpt>
      <trkpt lat="44.32324" lon="6.36677">
        <ele>1429.6</ele>
        <time>2018-08-10T07:06:59Z</time>
      </trkpt>
      <trkpt lat="44.32322" lon="6.36674">
        <ele>1429</ele>
        <time>2018-08-10T07:07:00Z</time>
      </trkpt>
      <trkpt lat="44.32318" lon="6.36668">
        <ele>1427.7</ele>
        <time>2018-08-10T07:07:02Z</time>
      </trkpt>
      <trkpt lat="44.32315" lon="6.36667">
        <ele>1426.6</ele>
        <time>2018-08-10T07:07:03Z</time>
      </trkpt>
      <trkpt lat="44.3231" lon="6.36667">
        <ele>1425.3</ele>
        <time>2018-08-10T07:07:04Z</time>
      </trkpt>
      <trkpt lat="44.32306" lon="6.36666">
        <ele>1424.5</ele>
        <time>2018-08-10T07:07:05Z</time>
      </trkpt>
      <trkpt lat="44.32302" lon="6.36666">
        <ele>1423.7</ele>
        <time>2018-08-10T07:07:06Z</time>
      </trkpt>
      <trkpt lat="44.32299" lon="6.36665">
        <ele>1422.7</ele>
        <time>2018-08-10T07:07:07Z</time>
      </trkpt>
      <trkpt lat="44.32295" lon="6.36667">
        <ele>1421.4</ele>
        <time>2018-08-10T07:07:08Z</time>
      </trkpt>
      <trkpt lat="44.32292" lon="6.36668">
        <ele>1420.8</ele>
        <time>2018-08-10T07:07:09Z</time>
      </trkpt>
      <trkpt lat="44.32289" lon="6.36669">
        <ele>1420.2</ele>
        <time>2018-08-10T07:07:10Z</time>
      </trkpt>
      <trkpt lat="44.32285" lon="6.36671">
        <ele>1419.8</ele>
        <time>2018-08-10T07:07:12Z</time>
      </trkpt>
      <trkpt lat="44.32282" lon="6.3667">
        <ele>1419.7</ele>
        <time>2018-08-10T07:07:13Z</time>
      </trkpt>
      <trkpt lat="44.3228" lon="6.36667">
        <ele>1419.7</ele>
        <time>2018-08-10T07:07:15Z</time>
      </trkpt>
      <trkpt lat="44.32278" lon="6.36671">
        <ele>1419.6</ele>
        <time>2018-08-10T07:08:35Z</time>
      </trkpt>
      <trkpt lat="44.32279" lon="6.36675">
        <ele>1419.5</ele>
        <time>2018-08-10T07:08:38Z</time>
      </trkpt>
      <trkpt lat="44.3228" lon="6.36679">
        <ele>1419.4</ele>
        <time>2018-08-10T07:08:42Z</time>
      </trkpt>
      <trkpt lat="44.3228" lon="6.36674">
        <ele>1419.4</ele>
        <time>2018-08-10T07:09:19Z</time>
      </trkpt>
      <trkpt lat="44.3228" lon="6.36669">
        <ele>1419.2</ele>
        <time>2018-08-10T07:09:32Z</time>
      </trkpt>
      <trkpt lat="44.32281" lon="6.36663">
        <ele>1419</ele>
        <time>2018-08-10T07:09:34Z</time>
      </trkpt>
      <trkpt lat="44.32283" lon="6.36658">
        <ele>1417.9</ele>
        <time>2018-08-10T07:09:36Z</time>
      </trkpt>
      <trkpt lat="44.32286" lon="6.36651">
        <ele>1415.6</ele>
        <time>2018-08-10T07:09:48Z</time>
      </trkpt>
      <trkpt lat="44.32287" lon="6.36649">
        <ele>1414.5</ele>
        <time>2018-08-10T07:09:49Z</time>
      </trkpt>
      <trkpt lat="44.32289" lon="6.36645">
        <ele>1413.3</ele>
        <time>2018-08-10T07:09:50Z</time>
      </trkpt>
      <trkpt lat="44.32291" lon="6.36641">
        <ele>1413.5</ele>
        <time>2018-08-10T07:09:51Z</time>
      </trkpt>
      <trkpt lat="44.32293" lon="6.36638">
        <ele>1412.3</ele>
        <time>2018-08-10T07:09:52Z</time>
      </trkpt>
      <trkpt lat="44.32296" lon="6.36633">
        <ele>1411.2</ele>
        <time>2018-08-10T07:09:53Z</time>
      </trkpt>
      <trkpt lat="44.323" lon="6.3663">
        <ele>1410.1</ele>
        <time>2018-08-10T07:09:54Z</time>
      </trkpt>
      <trkpt lat="44.32303" lon="6.36626">
        <ele>1409.2</ele>
        <time>2018-08-10T07:09:55Z</time>
      </trkpt>
      <trkpt lat="44.32303" lon="6.36621">
        <ele>1408.2</ele>
        <time>2018-08-10T07:09:56Z</time>
      </trkpt>
      <trkpt lat="44.32303" lon="6.36616">
        <ele>1407.3</ele>
        <time>2018-08-10T07:09:57Z</time>
      </trkpt>
      <trkpt lat="44.32305" lon="6.36611">
        <ele>1406.4</ele>
        <time>2018-08-10T07:09:58Z</time>
      </trkpt>
      <trkpt lat="44.32308" lon="6.36605">
        <ele>1404.2</ele>
        <time>2018-08-10T07:09:59Z</time>
      </trkpt>
      <trkpt lat="44.32304" lon="6.36601">
        <ele>1403.2</ele>
        <time>2018-08-10T07:10:00Z</time>
      </trkpt>
      <trkpt lat="44.32305" lon="6.36596">
        <ele>1402.2</ele>
        <time>2018-08-10T07:10:01Z</time>
      </trkpt>
      <trkpt lat="44.32307" lon="6.36591">
        <ele>1401.2</ele>
        <time>2018-08-10T07:10:02Z</time>
      </trkpt>
      <trkpt lat="44.32308" lon="6.36587">
        <ele>1400.3</ele>
        <time>2018-08-10T07:10:03Z</time>
      </trkpt>
      <trkpt lat="44.32309" lon="6.36582">
        <ele>1399.3</ele>
        <time>2018-08-10T07:10:04Z</time>
      </trkpt>
      <trkpt lat="44.32313" lon="6.36576">
        <ele>1397.4</ele>
        <time>2018-08-10T07:10:05Z</time>
      </trkpt>
      <trkpt lat="44.32315" lon="6.36569">
        <ele>1396.6</ele>
        <time>2018-08-10T07:10:06Z</time>
      </trkpt>
      <trkpt lat="44.32319" lon="6.36563">
        <ele>1394.7</ele>
        <time>2018-08-10T07:10:07Z</time>
      </trkpt>
      <trkpt lat="44.32324" lon="6.36558">
        <ele>1393.8</ele>
        <time>2018-08-10T07:10:08Z</time>
      </trkpt>
      <trkpt lat="44.32329" lon="6.36552">
        <ele>1392.9</ele>
        <time>2018-08-10T07:10:09Z</time>
      </trkpt>
      <trkpt lat="44.3233" lon="6.36546">
        <ele>1392</ele>
        <time>2018-08-10T07:10:10Z</time>
      </trkpt>
      <trkpt lat="44.32333" lon="6.36541">
        <ele>1390.3</ele>
        <time>2018-08-10T07:10:11Z</time>
      </trkpt>
      <trkpt lat="44.32335" lon="6.36538">
        <ele>1390.4</ele>
        <time>2018-08-10T07:10:12Z</time>
      </trkpt>
      <trkpt lat="44.32338" lon="6.36534">
        <ele>1389.7</ele>
        <time>2018-08-10T07:10:13Z</time>
      </trkpt>
      <trkpt lat="44.32339" lon="6.36528">
        <ele>1388.1</ele>
        <time>2018-08-10T07:10:14Z</time>
      </trkpt>
      <trkpt lat="44.32341" lon="6.36524">
        <ele>1387.4</ele>
        <time>2018-08-10T07:10:15Z</time>
      </trkpt>
      <trkpt lat="44.32345" lon="6.36517">
        <ele>1386.6</ele>
        <time>2018-08-10T07:10:16Z</time>
      </trkpt>
      <trkpt lat="44.32347" lon="6.36511">
        <ele>1384.9</ele>
        <time>2018-08-10T07:10:17Z</time>
      </trkpt>
      <trkpt lat="44.32349" lon="6.36507">
        <ele>1384.2</ele>
        <time>2018-08-10T07:10:18Z</time>
      </trkpt>
      <trkpt lat="44.3235" lon="6.36504">
        <ele>1384.3</ele>
        <time>2018-08-10T07:10:19Z</time>
      </trkpt>
      <trkpt lat="44.32349" lon="6.36498">
        <ele>1382.8</ele>
        <time>2018-08-10T07:10:21Z</time>
      </trkpt>
      <trkpt lat="44.3235" lon="6.36495">
        <ele>1382.9</ele>
        <time>2018-08-10T07:10:22Z</time>
      </trkpt>
      <trkpt lat="44.32351" lon="6.36489">
        <ele>1381.6</ele>
        <time>2018-08-10T07:10:24Z</time>
      </trkpt>
      <trkpt lat="44.32352" lon="6.36481">
        <ele>1380.4</ele>
        <time>2018-08-10T07:10:26Z</time>
      </trkpt>
      <trkpt lat="44.32353" lon="6.36477">
        <ele>1379.9</ele>
        <time>2018-08-10T07:10:27Z</time>
      </trkpt>
      <trkpt lat="44.32355" lon="6.36473">
        <ele>1379.3</ele>
        <time>2018-08-10T07:10:28Z</time>
      </trkpt>
      <trkpt lat="44.32358" lon="6.36467">
        <ele>1378.7</ele>
        <time>2018-08-10T07:10:29Z</time>
      </trkpt>
      <trkpt lat="44.3236" lon="6.36463">
        <ele>1378.1</ele>
        <time>2018-08-10T07:10:30Z</time>
      </trkpt>
      <trkpt lat="44.32363" lon="6.36458">
        <ele>1377.6</ele>
        <time>2018-08-10T07:10:31Z</time>
      </trkpt>
      <trkpt lat="44.32364" lon="6.36452">
        <ele>1377.1</ele>
        <time>2018-08-10T07:10:34Z</time>
      </trkpt>
      <trkpt lat="44.32366" lon="6.36449">
        <ele>1376.6</ele>
        <time>2018-08-10T07:10:39Z</time>
      </trkpt>
      <trkpt lat="44.32368" lon="6.36442">
        <ele>1375.6</ele>
        <time>2018-08-10T07:10:41Z</time>
      </trkpt>
      <trkpt lat="44.32369" lon="6.36439">
        <ele>1375.2</ele>
        <time>2018-08-10T07:10:42Z</time>
      </trkpt>
      <trkpt lat="44.32372" lon="6.36433">
        <ele>1374.8</ele>
        <time>2018-08-10T07:10:44Z</time>
      </trkpt>
      <trkpt lat="44.32376" lon="6.3643">
        <ele>1374.4</ele>
        <time>2018-08-10T07:10:46Z</time>
      </trkpt>
      <trkpt lat="44.32378" lon="6.36427">
        <ele>1374.6</ele>
        <time>2018-08-10T07:10:47Z</time>
      </trkpt>
      <trkpt lat="44.32382" lon="6.36422">
        <ele>1374.1</ele>
        <time>2018-08-10T07:10:49Z</time>
      </trkpt>
      <trkpt lat="44.32385" lon="6.36419">
        <ele>1373.8</ele>
        <time>2018-08-10T07:10:50Z</time>
      </trkpt>
      <trkpt lat="44.32387" lon="6.36417">
        <ele>1373.8</ele>
        <time>2018-08-10T07:10:51Z</time>
      </trkpt>
      <trkpt lat="44.32391" lon="6.36413">
        <ele>1373</ele>
        <time>2018-08-10T07:10:53Z</time>
      </trkpt>
      <trkpt lat="44.32393" lon="6.36408">
        <ele>1372.9</ele>
        <time>2018-08-10T07:10:54Z</time>
      </trkpt>
      <trkpt lat="44.324" lon="6.36402">
        <ele>1372.7</ele>
        <time>2018-08-10T07:10:56Z</time>
      </trkpt>
      <trkpt lat="44.32403" lon="6.36399">
        <ele>1372.6</ele>
        <time>2018-08-10T07:10:57Z</time>
      </trkpt>
      <trkpt lat="44.32406" lon="6.36396">
        <ele>1372.4</ele>
        <time>2018-08-10T07:10:58Z</time>
      </trkpt>
      <trkpt lat="44.32411" lon="6.36393">
        <ele>1372</ele>
        <time>2018-08-10T07:11:01Z</time>
      </trkpt>
      <trkpt lat="44.32414" lon="6.36388">
        <ele>1371.7</ele>
        <time>2018-08-10T07:11:02Z</time>
      </trkpt>
      <trkpt lat="44.32417" lon="6.36384">
        <ele>1371.4</ele>
        <time>2018-08-10T07:11:03Z</time>
      </trkpt>
      <trkpt lat="44.32421" lon="6.36378">
        <ele>1370.9</ele>
        <time>2018-08-10T07:11:04Z</time>
      </trkpt>
      <trkpt lat="44.32425" lon="6.36372">
        <ele>1370</ele>
        <time>2018-08-10T07:11:05Z</time>
      </trkpt>
      <trkpt lat="44.32429" lon="6.36366">
        <ele>1369.5</ele>
        <time>2018-08-10T07:11:06Z</time>
      </trkpt>
      <trkpt lat="44.32432" lon="6.36364">
        <ele>1369.1</ele>
        <time>2018-08-10T07:11:07Z</time>
      </trkpt>
      <trkpt lat="44.32434" lon="6.3636">
        <ele>1368.6</ele>
        <time>2018-08-10T07:11:08Z</time>
      </trkpt>
      <trkpt lat="44.32437" lon="6.36357">
        <ele>1368.8</ele>
        <time>2018-08-10T07:11:09Z</time>
      </trkpt>
      <trkpt lat="44.32437" lon="6.36353">
        <ele>1368.4</ele>
        <time>2018-08-10T07:11:10Z</time>
      </trkpt>
      <trkpt lat="44.32436" lon="6.36347">
        <ele>1369.2</ele>
        <time>2018-08-10T07:11:11Z</time>
      </trkpt>
      <trkpt lat="44.3244" lon="6.36343">
        <ele>1368.1</ele>
        <time>2018-08-10T07:11:13Z</time>
      </trkpt>
      <trkpt lat="44.32443" lon="6.36339">
        <ele>1368.3</ele>
        <time>2018-08-10T07:11:14Z</time>
      </trkpt>
      <trkpt lat="44.32447" lon="6.36335">
        <ele>1367.1</ele>
        <time>2018-08-10T07:11:16Z</time>
      </trkpt>
      <trkpt lat="44.32451" lon="6.36328">
        <ele>1366.7</ele>
        <time>2018-08-10T07:11:18Z</time>
      </trkpt>
      <trkpt lat="44.32454" lon="6.36324">
        <ele>1366.4</ele>
        <time>2018-08-10T07:11:20Z</time>
      </trkpt>
      <trkpt lat="44.32456" lon="6.3632">
        <ele>1366.2</ele>
        <time>2018-08-10T07:11:21Z</time>
      </trkpt>
      <trkpt lat="44.32458" lon="6.36316">
        <ele>1366.6</ele>
        <time>2018-08-10T07:11:22Z</time>
      </trkpt>
      <trkpt lat="44.3246" lon="6.36308">
        <ele>1366.7</ele>
        <time>2018-08-10T07:11:24Z</time>
      </trkpt>
      <trkpt lat="44.32462" lon="6.36304">
        <ele>1366.6</ele>
        <time>2018-08-10T07:11:25Z</time>
      </trkpt>
      <trkpt lat="44.32464" lon="6.363">
        <ele>1367</ele>
        <time>2018-08-10T07:11:26Z</time>
      </trkpt>
      <trkpt lat="44.32464" lon="6.36296">
        <ele>1367.4</ele>
        <time>2018-08-10T07:11:27Z</time>
      </trkpt>
      <trkpt lat="44.32465" lon="6.36293">
        <ele>1367.3</ele>
        <time>2018-08-10T07:11:28Z</time>
      </trkpt>
      <trkpt lat="44.32469" lon="6.36287">
        <ele>1367.2</ele>
        <time>2018-08-10T07:11:30Z</time>
      </trkpt>
      <trkpt lat="44.32472" lon="6.36281">
        <ele>1367.2</ele>
        <time>2018-08-10T07:11:32Z</time>
      </trkpt>
      <trkpt lat="44.32474" lon="6.36278">
        <ele>1367.2</ele>
        <time>2018-08-10T07:11:33Z</time>
      </trkpt>
      <trkpt lat="44.32478" lon="6.36272">
        <ele>1367.1</ele>
        <time>2018-08-10T07:11:35Z</time>
      </trkpt>
      <trkpt lat="44.3248" lon="6.36268">
        <ele>1367.1</ele>
        <time>2018-08-10T07:11:37Z</time>
      </trkpt>
      <trkpt lat="44.32482" lon="6.36265">
        <ele>1367.5</ele>
        <time>2018-08-10T07:11:38Z</time>
      </trkpt>
      <trkpt lat="44.32485" lon="6.36261">
        <ele>1367.4</ele>
        <time>2018-08-10T07:11:40Z</time>
      </trkpt>
      <trkpt lat="44.32488" lon="6.36258">
        <ele>1367.3</ele>
        <time>2018-08-10T07:11:41Z</time>
      </trkpt>
      <trkpt lat="44.32492" lon="6.36254">
        <ele>1367</ele>
        <time>2018-08-10T07:11:42Z</time>
      </trkpt>
      <trkpt lat="44.32496" lon="6.36247">
        <ele>1366.6</ele>
        <time>2018-08-10T07:11:44Z</time>
      </trkpt>
      <trkpt lat="44.325" lon="6.36244">
        <ele>1366.4</ele>
        <time>2018-08-10T07:11:45Z</time>
      </trkpt>
      <trkpt lat="44.32503" lon="6.36241">
        <ele>1366.2</ele>
        <time>2018-08-10T07:11:46Z</time>
      </trkpt>
      <trkpt lat="44.32502" lon="6.36238">
        <ele>1366.4</ele>
        <time>2018-08-10T07:11:47Z</time>
      </trkpt>
      <trkpt lat="44.32504" lon="6.36234">
        <ele>1366.6</ele>
        <time>2018-08-10T07:11:48Z</time>
      </trkpt>
      <trkpt lat="44.32508" lon="6.36231">
        <ele>1366.4</ele>
        <time>2018-08-10T07:11:49Z</time>
      </trkpt>
      <trkpt lat="44.3251" lon="6.36227">
        <ele>1366.1</ele>
        <time>2018-08-10T07:11:50Z</time>
      </trkpt>
      <trkpt lat="44.32513" lon="6.36223">
        <ele>1365.8</ele>
        <time>2018-08-10T07:11:51Z</time>
      </trkpt>
      <trkpt lat="44.32516" lon="6.3622">
        <ele>1365.4</ele>
        <time>2018-08-10T07:11:52Z</time>
      </trkpt>
      <trkpt lat="44.32518" lon="6.36216">
        <ele>1365</ele>
        <time>2018-08-10T07:11:53Z</time>
      </trkpt>
      <trkpt lat="44.3252" lon="6.36209">
        <ele>1365.1</ele>
        <time>2018-08-10T07:11:55Z</time>
      </trkpt>
      <trkpt lat="44.32522" lon="6.36206">
        <ele>1364.5</ele>
        <time>2018-08-10T07:11:56Z</time>
      </trkpt>
      <trkpt lat="44.32523" lon="6.362">
        <ele>1364</ele>
        <time>2018-08-10T07:11:58Z</time>
      </trkpt>
      <trkpt lat="44.32526" lon="6.36195">
        <ele>1363.3</ele>
        <time>2018-08-10T07:12:00Z</time>
      </trkpt>
      <trkpt lat="44.32529" lon="6.36192">
        <ele>1363.2</ele>
        <time>2018-08-10T07:12:02Z</time>
      </trkpt>
      <trkpt lat="44.3253" lon="6.36189">
        <ele>1362.5</ele>
        <time>2018-08-10T07:12:03Z</time>
      </trkpt>
      <trkpt lat="44.32531" lon="6.36185">
        <ele>1362.4</ele>
        <time>2018-08-10T07:12:04Z</time>
      </trkpt>
      <trkpt lat="44.32536" lon="6.36181">
        <ele>1361.2</ele>
        <time>2018-08-10T07:12:06Z</time>
      </trkpt>
      <trkpt lat="44.32539" lon="6.36178">
        <ele>1360.8</ele>
        <time>2018-08-10T07:12:07Z</time>
      </trkpt>
      <trkpt lat="44.32542" lon="6.36175">
        <ele>1360.1</ele>
        <time>2018-08-10T07:12:08Z</time>
      </trkpt>
      <trkpt lat="44.32547" lon="6.3617">
        <ele>1359.5</ele>
        <time>2018-08-10T07:12:09Z</time>
      </trkpt>
      <trkpt lat="44.32551" lon="6.36165">
        <ele>1358.2</ele>
        <time>2018-08-10T07:12:10Z</time>
      </trkpt>
      <trkpt lat="44.32554" lon="6.3616">
        <ele>1357.3</ele>
        <time>2018-08-10T07:12:11Z</time>
      </trkpt>
      <trkpt lat="44.32556" lon="6.36157">
        <ele>1357.2</ele>
        <time>2018-08-10T07:12:12Z</time>
      </trkpt>
      <trkpt lat="44.32561" lon="6.36152">
        <ele>1355.6</ele>
        <time>2018-08-10T07:12:14Z</time>
      </trkpt>
      <trkpt lat="44.32565" lon="6.3615">
        <ele>1354.7</ele>
        <time>2018-08-10T07:12:16Z</time>
      </trkpt>
      <trkpt lat="44.32569" lon="6.36145">
        <ele>1353.2</ele>
        <time>2018-08-10T07:12:18Z</time>
      </trkpt>
      <trkpt lat="44.3257" lon="6.36138">
        <ele>1352.4</ele>
        <time>2018-08-10T07:12:20Z</time>
      </trkpt>
      <trkpt lat="44.32572" lon="6.36134">
        <ele>1352.1</ele>
        <time>2018-08-10T07:12:21Z</time>
      </trkpt>
      <trkpt lat="44.32573" lon="6.3613">
        <ele>1351.6</ele>
        <time>2018-08-10T07:12:22Z</time>
      </trkpt>
      <trkpt lat="44.32574" lon="6.36127">
        <ele>1351.2</ele>
        <time>2018-08-10T07:12:23Z</time>
      </trkpt>
      <trkpt lat="44.32575" lon="6.36122">
        <ele>1350.9</ele>
        <time>2018-08-10T07:12:24Z</time>
      </trkpt>
      <trkpt lat="44.32576" lon="6.36117">
        <ele>1349.3</ele>
        <time>2018-08-10T07:12:25Z</time>
      </trkpt>
      <trkpt lat="44.32577" lon="6.36111">
        <ele>1348.7</ele>
        <time>2018-08-10T07:12:26Z</time>
      </trkpt>
      <trkpt lat="44.32577" lon="6.36104">
        <ele>1347.7</ele>
        <time>2018-08-10T07:12:27Z</time>
      </trkpt>
      <trkpt lat="44.32579" lon="6.36099">
        <ele>1345.7</ele>
        <time>2018-08-10T07:12:28Z</time>
      </trkpt>
      <trkpt lat="44.3258" lon="6.36094">
        <ele>1345</ele>
        <time>2018-08-10T07:12:29Z</time>
      </trkpt>
      <trkpt lat="44.32583" lon="6.36089">
        <ele>1343.9</ele>
        <time>2018-08-10T07:12:30Z</time>
      </trkpt>
      <trkpt lat="44.32585" lon="6.36085">
        <ele>1342.8</ele>
        <time>2018-08-10T07:12:31Z</time>
      </trkpt>
      <trkpt lat="44.32588" lon="6.3608">
        <ele>1341.7</ele>
        <time>2018-08-10T07:12:32Z</time>
      </trkpt>
      <trkpt lat="44.32591" lon="6.36076">
        <ele>1340.6</ele>
        <time>2018-08-10T07:12:33Z</time>
      </trkpt>
      <trkpt lat="44.32595" lon="6.3607">
        <ele>1339.5</ele>
        <time>2018-08-10T07:12:35Z</time>
      </trkpt>
      <trkpt lat="44.32597" lon="6.36067">
        <ele>1338.4</ele>
        <time>2018-08-10T07:12:36Z</time>
      </trkpt>
      <trkpt lat="44.32599" lon="6.36063">
        <ele>1337.6</ele>
        <time>2018-08-10T07:12:41Z</time>
      </trkpt>
      <trkpt lat="44.32602" lon="6.36058">
        <ele>1336.4</ele>
        <time>2018-08-10T07:12:43Z</time>
      </trkpt>
      <trkpt lat="44.32604" lon="6.36055">
        <ele>1335.2</ele>
        <time>2018-08-10T07:12:44Z</time>
      </trkpt>
      <trkpt lat="44.32606" lon="6.36052">
        <ele>1334.1</ele>
        <time>2018-08-10T07:12:45Z</time>
      </trkpt>
      <trkpt lat="44.3261" lon="6.36049">
        <ele>1334</ele>
        <time>2018-08-10T07:12:46Z</time>
      </trkpt>
      <trkpt lat="44.32614" lon="6.36044">
        <ele>1332.9</ele>
        <time>2018-08-10T07:12:47Z</time>
      </trkpt>
      <trkpt lat="44.32616" lon="6.36041">
        <ele>1331.7</ele>
        <time>2018-08-10T07:12:48Z</time>
      </trkpt>
      <trkpt lat="44.32619" lon="6.36038">
        <ele>1330.6</ele>
        <time>2018-08-10T07:12:49Z</time>
      </trkpt>
      <trkpt lat="44.32623" lon="6.36035">
        <ele>1329.5</ele>
        <time>2018-08-10T07:12:50Z</time>
      </trkpt>
      <trkpt lat="44.32626" lon="6.36031">
        <ele>1328.3</ele>
        <time>2018-08-10T07:12:51Z</time>
      </trkpt>
      <trkpt lat="44.32628" lon="6.36027">
        <ele>1328.1</ele>
        <time>2018-08-10T07:12:52Z</time>
      </trkpt>
      <trkpt lat="44.32632" lon="6.36024">
        <ele>1327</ele>
        <time>2018-08-10T07:12:53Z</time>
      </trkpt>
      <trkpt lat="44.32635" lon="6.36021">
        <ele>1325.8</ele>
        <time>2018-08-10T07:12:54Z</time>
      </trkpt>
      <trkpt lat="44.32637" lon="6.36019">
        <ele>1325.6</ele>
        <time>2018-08-10T07:12:55Z</time>
      </trkpt>
      <trkpt lat="44.3264" lon="6.36016">
        <ele>1324.8</ele>
        <time>2018-08-10T07:12:57Z</time>
      </trkpt>
      <trkpt lat="44.32643" lon="6.36016">
        <ele>1324.1</ele>
        <time>2018-08-10T07:13:16Z</time>
      </trkpt>
      <trkpt lat="44.32648" lon="6.36014">
        <ele>1323</ele>
        <time>2018-08-10T07:13:18Z</time>
      </trkpt>
      <trkpt lat="44.32652" lon="6.3601">
        <ele>1322.7</ele>
        <time>2018-08-10T07:13:20Z</time>
      </trkpt>
      <trkpt lat="44.32656" lon="6.36006">
        <ele>1321.3</ele>
        <time>2018-08-10T07:13:22Z</time>
      </trkpt>
      <trkpt lat="44.32659" lon="6.36004">
        <ele>1320.2</ele>
        <time>2018-08-10T07:13:23Z</time>
      </trkpt>
      <trkpt lat="44.32661" lon="6.36001">
        <ele>1319.9</ele>
        <time>2018-08-10T07:13:24Z</time>
      </trkpt>
      <trkpt lat="44.32663" lon="6.35997">
        <ele>1319.2</ele>
        <time>2018-08-10T07:13:26Z</time>
      </trkpt>
      <trkpt lat="44.32665" lon="6.35994">
        <ele>1318.2</ele>
        <time>2018-08-10T07:13:28Z</time>
      </trkpt>
      <trkpt lat="44.32668" lon="6.3599">
        <ele>1317.2</ele>
        <time>2018-08-10T07:13:31Z</time>
      </trkpt>
      <trkpt lat="44.3267" lon="6.35988">
        <ele>1316.2</ele>
        <time>2018-08-10T07:13:33Z</time>
      </trkpt>
      <trkpt lat="44.32673" lon="6.35988">
        <ele>1316.3</ele>
        <time>2018-08-10T07:13:35Z</time>
      </trkpt>
      <trkpt lat="44.32676" lon="6.35986">
        <ele>1316.1</ele>
        <time>2018-08-10T07:13:36Z</time>
      </trkpt>
      <trkpt lat="44.32679" lon="6.35985">
        <ele>1315.8</ele>
        <time>2018-08-10T07:13:37Z</time>
      </trkpt>
      <trkpt lat="44.32683" lon="6.35983">
        <ele>1314.4</ele>
        <time>2018-08-10T07:13:38Z</time>
      </trkpt>
      <trkpt lat="44.32688" lon="6.35981">
        <ele>1314.1</ele>
        <time>2018-08-10T07:13:40Z</time>
      </trkpt>
      <trkpt lat="44.32691" lon="6.35979">
        <ele>1312.9</ele>
        <time>2018-08-10T07:14:23Z</time>
      </trkpt>
      <trkpt lat="44.32695" lon="6.35978">
        <ele>1312.1</ele>
        <time>2018-08-10T07:14:25Z</time>
      </trkpt>
      <trkpt lat="44.32701" lon="6.35977">
        <ele>1311.7</ele>
        <time>2018-08-10T07:14:27Z</time>
      </trkpt>
      <trkpt lat="44.32705" lon="6.35977">
        <ele>1310.9</ele>
        <time>2018-08-10T07:14:28Z</time>
      </trkpt>
      <trkpt lat="44.32709" lon="6.35974">
        <ele>1309.9</ele>
        <time>2018-08-10T07:14:29Z</time>
      </trkpt>
      <trkpt lat="44.32712" lon="6.35972">
        <ele>1309.6</ele>
        <time>2018-08-10T07:14:30Z</time>
      </trkpt>
      <trkpt lat="44.32716" lon="6.35969">
        <ele>1308.7</ele>
        <time>2018-08-10T07:14:31Z</time>
      </trkpt>
      <trkpt lat="44.32719" lon="6.35965">
        <ele>1307.9</ele>
        <time>2018-08-10T07:14:32Z</time>
      </trkpt>
      <trkpt lat="44.32723" lon="6.35961">
        <ele>1307.2</ele>
        <time>2018-08-10T07:14:33Z</time>
      </trkpt>
      <trkpt lat="44.32727" lon="6.35957">
        <ele>1306.3</ele>
        <time>2018-08-10T07:14:34Z</time>
      </trkpt>
      <trkpt lat="44.3273" lon="6.35953">
        <ele>1305.8</ele>
        <time>2018-08-10T07:14:35Z</time>
      </trkpt>
      <trkpt lat="44.32734" lon="6.35948">
        <ele>1305.3</ele>
        <time>2018-08-10T07:14:36Z</time>
      </trkpt>
      <trkpt lat="44.32737" lon="6.35946">
        <ele>1305.2</ele>
        <time>2018-08-10T07:14:37Z</time>
      </trkpt>
      <trkpt lat="44.32741" lon="6.35944">
        <ele>1304.7</ele>
        <time>2018-08-10T07:14:38Z</time>
      </trkpt>
      <trkpt lat="44.32744" lon="6.35943">
        <ele>1304.7</ele>
        <time>2018-08-10T07:14:39Z</time>
      </trkpt>
      <trkpt lat="44.32747" lon="6.35941">
        <ele>1304.6</ele>
        <time>2018-08-10T07:14:40Z</time>
      </trkpt>
      <trkpt lat="44.3275" lon="6.3594">
        <ele>1304</ele>
        <time>2018-08-10T07:14:41Z</time>
      </trkpt>
      <trkpt lat="44.32753" lon="6.35939">
        <ele>1303.8</ele>
        <time>2018-08-10T07:14:42Z</time>
      </trkpt>
      <trkpt lat="44.32756" lon="6.35937">
        <ele>1303.7</ele>
        <time>2018-08-10T07:14:43Z</time>
      </trkpt>
      <trkpt lat="44.32759" lon="6.35935">
        <ele>1303.1</ele>
        <time>2018-08-10T07:14:44Z</time>
      </trkpt>
      <trkpt lat="44.32762" lon="6.35931">
        <ele>1302.5</ele>
        <time>2018-08-10T07:14:45Z</time>
      </trkpt>
      <trkpt lat="44.32766" lon="6.35929">
        <ele>1302.3</ele>
        <time>2018-08-10T07:14:46Z</time>
      </trkpt>
      <trkpt lat="44.32771" lon="6.35927">
        <ele>1301.7</ele>
        <time>2018-08-10T07:14:47Z</time>
      </trkpt>
      <trkpt lat="44.32776" lon="6.35925">
        <ele>1301.4</ele>
        <time>2018-08-10T07:14:48Z</time>
      </trkpt>
      <trkpt lat="44.32781" lon="6.35924">
        <ele>1300.8</ele>
        <time>2018-08-10T07:14:49Z</time>
      </trkpt>
      <trkpt lat="44.32786" lon="6.35923">
        <ele>1300.2</ele>
        <time>2018-08-10T07:14:50Z</time>
      </trkpt>
      <trkpt lat="44.32791" lon="6.35922">
        <ele>1299.8</ele>
        <time>2018-08-10T07:14:51Z</time>
      </trkpt>
      <trkpt lat="44.32796" lon="6.35922">
        <ele>1299.5</ele>
        <time>2018-08-10T07:14:52Z</time>
      </trkpt>
      <trkpt lat="44.32801" lon="6.3592">
        <ele>1298.3</ele>
        <time>2018-08-10T07:14:53Z</time>
      </trkpt>
      <trkpt lat="44.32806" lon="6.35916">
        <ele>1297.2</ele>
        <time>2018-08-10T07:14:54Z</time>
      </trkpt>
      <trkpt lat="44.32811" lon="6.35912">
        <ele>1296.3</ele>
        <time>2018-08-10T07:14:55Z</time>
      </trkpt>
      <trkpt lat="44.32814" lon="6.35907">
        <ele>1295.4</ele>
        <time>2018-08-10T07:14:56Z</time>
      </trkpt>
      <trkpt lat="44.32817" lon="6.35902">
        <ele>1294</ele>
        <time>2018-08-10T07:14:57Z</time>
      </trkpt>
      <trkpt lat="44.3282" lon="6.35897">
        <ele>1293</ele>
        <time>2018-08-10T07:14:58Z</time>
      </trkpt>
      <trkpt lat="44.32823" lon="6.35893">
        <ele>1291.8</ele>
        <time>2018-08-10T07:14:59Z</time>
      </trkpt>
      <trkpt lat="44.32825" lon="6.35888">
        <ele>1290.7</ele>
        <time>2018-08-10T07:15:00Z</time>
      </trkpt>
      <trkpt lat="44.32827" lon="6.35883">
        <ele>1289.5</ele>
        <time>2018-08-10T07:15:01Z</time>
      </trkpt>
      <trkpt lat="44.32827" lon="6.35878">
        <ele>1289.1</ele>
        <time>2018-08-10T07:15:02Z</time>
      </trkpt>
      <trkpt lat="44.32828" lon="6.35873">
        <ele>1288.7</ele>
        <time>2018-08-10T07:15:03Z</time>
      </trkpt>
      <trkpt lat="44.32829" lon="6.3587">
        <ele>1288.3</ele>
        <time>2018-08-10T07:15:04Z</time>
      </trkpt>
      <trkpt lat="44.32831" lon="6.35864">
        <ele>1287.2</ele>
        <time>2018-08-10T07:15:06Z</time>
      </trkpt>
      <trkpt lat="44.32833" lon="6.3586">
        <ele>1286.1</ele>
        <time>2018-08-10T07:15:08Z</time>
      </trkpt>
      <trkpt lat="44.32837" lon="6.35855">
        <ele>1284.9</ele>
        <time>2018-08-10T07:15:10Z</time>
      </trkpt>
      <trkpt lat="44.32841" lon="6.35851">
        <ele>1283.1</ele>
        <time>2018-08-10T07:15:12Z</time>
      </trkpt>
      <trkpt lat="44.32844" lon="6.35846">
        <ele>1281.9</ele>
        <time>2018-08-10T07:15:14Z</time>
      </trkpt>
      <trkpt lat="44.32847" lon="6.35842">
        <ele>1280.7</ele>
        <time>2018-08-10T07:15:16Z</time>
      </trkpt>
      <trkpt lat="44.32849" lon="6.35839">
        <ele>1280</ele>
        <time>2018-08-10T07:15:18Z</time>
      </trkpt>
      <trkpt lat="44.32853" lon="6.35835">
        <ele>1278.8</ele>
        <time>2018-08-10T07:15:20Z</time>
      </trkpt>
      <trkpt lat="44.32856" lon="6.35831">
        <ele>1277.5</ele>
        <time>2018-08-10T07:15:22Z</time>
      </trkpt>
      <trkpt lat="44.32858" lon="6.35829">
        <ele>1276.1</ele>
        <time>2018-08-10T07:15:23Z</time>
      </trkpt>
      <trkpt lat="44.32862" lon="6.35825">
        <ele>1274.6</ele>
        <time>2018-08-10T07:15:25Z</time>
      </trkpt>
      <trkpt lat="44.32866" lon="6.35822">
        <ele>1273.7</ele>
        <time>2018-08-10T07:15:27Z</time>
      </trkpt>
      <trkpt lat="44.3287" lon="6.35819">
        <ele>1271.3</ele>
        <time>2018-08-10T07:15:29Z</time>
      </trkpt>
      <trkpt lat="44.32874" lon="6.35818">
        <ele>1270.5</ele>
        <time>2018-08-10T07:15:31Z</time>
      </trkpt>
      <trkpt lat="44.32876" lon="6.35815">
        <ele>1269.2</ele>
        <time>2018-08-10T07:15:33Z</time>
      </trkpt>
      <trkpt lat="44.3288" lon="6.35815">
        <ele>1268.4</ele>
        <time>2018-08-10T07:15:35Z</time>
      </trkpt>
      <trkpt lat="44.32882" lon="6.35813">
        <ele>1267.5</ele>
        <time>2018-08-10T07:15:38Z</time>
      </trkpt>
      <trkpt lat="44.32885" lon="6.35811">
        <ele>1266</ele>
        <time>2018-08-10T07:15:40Z</time>
      </trkpt>
      <trkpt lat="44.32889" lon="6.35808">
        <ele>1265</ele>
        <time>2018-08-10T07:15:42Z</time>
      </trkpt>
      <trkpt lat="44.32892" lon="6.35804">
        <ele>1263.5</ele>
        <time>2018-08-10T07:15:47Z</time>
      </trkpt>
      <trkpt lat="44.32894" lon="6.35798">
        <ele>1262.5</ele>
        <time>2018-08-10T07:15:49Z</time>
      </trkpt>
      <trkpt lat="44.32897" lon="6.35792">
        <ele>1261</ele>
        <time>2018-08-10T07:15:51Z</time>
      </trkpt>
      <trkpt lat="44.32895" lon="6.3579">
        <ele>1260.6</ele>
        <time>2018-08-10T07:15:52Z</time>
      </trkpt>
      <trkpt lat="44.32894" lon="6.35786">
        <ele>1261.1</ele>
        <time>2018-08-10T07:15:55Z</time>
      </trkpt>
      <trkpt lat="44.32893" lon="6.35782">
        <ele>1260.6</ele>
        <time>2018-08-10T07:15:57Z</time>
      </trkpt>
      <trkpt lat="44.32891" lon="6.35779">
        <ele>1261.7</ele>
        <time>2018-08-10T07:15:59Z</time>
      </trkpt>
      <trkpt lat="44.32892" lon="6.35774">
        <ele>1260.2</ele>
        <time>2018-08-10T07:16:01Z</time>
      </trkpt>
      <trkpt lat="44.32893" lon="6.35769">
        <ele>1259.1</ele>
        <time>2018-08-10T07:16:04Z</time>
      </trkpt>
      <trkpt lat="44.32896" lon="6.35762">
        <ele>1257.9</ele>
        <time>2018-08-10T07:16:06Z</time>
      </trkpt>
      <trkpt lat="44.329" lon="6.35758">
        <ele>1256.7</ele>
        <time>2018-08-10T07:16:08Z</time>
      </trkpt>
      <trkpt lat="44.32903" lon="6.35754">
        <ele>1255.6</ele>
        <time>2018-08-10T07:16:10Z</time>
      </trkpt>
      <trkpt lat="44.32907" lon="6.35749">
        <ele>1254.4</ele>
        <time>2018-08-10T07:16:12Z</time>
      </trkpt>
      <trkpt lat="44.32909" lon="6.35747">
        <ele>1253.2</ele>
        <time>2018-08-10T07:16:13Z</time>
      </trkpt>
      <trkpt lat="44.32912" lon="6.35742">
        <ele>1252</ele>
        <time>2018-08-10T07:16:15Z</time>
      </trkpt>
      <trkpt lat="44.32912" lon="6.35738">
        <ele>1251.6</ele>
        <time>2018-08-10T07:16:17Z</time>
      </trkpt>
      <trkpt lat="44.32907" lon="6.35736">
        <ele>1252.4</ele>
        <time>2018-08-10T07:16:20Z</time>
      </trkpt>
      <trkpt lat="44.32908" lon="6.35731">
        <ele>1252</ele>
        <time>2018-08-10T07:16:24Z</time>
      </trkpt>
      <trkpt lat="44.32908" lon="6.35727">
        <ele>1251.5</ele>
        <time>2018-08-10T07:16:26Z</time>
      </trkpt>
      <trkpt lat="44.32909" lon="6.35721">
        <ele>1250.5</ele>
        <time>2018-08-10T07:16:28Z</time>
      </trkpt>
      <trkpt lat="44.3291" lon="6.35715">
        <ele>1249.3</ele>
        <time>2018-08-10T07:16:30Z</time>
      </trkpt>
      <trkpt lat="44.32911" lon="6.35709">
        <ele>1248.2</ele>
        <time>2018-08-10T07:16:32Z</time>
      </trkpt>
      <trkpt lat="44.32913" lon="6.35706">
        <ele>1248.3</ele>
        <time>2018-08-10T07:16:33Z</time>
      </trkpt>
      <trkpt lat="44.32912" lon="6.35701">
        <ele>1247</ele>
        <time>2018-08-10T07:16:35Z</time>
      </trkpt>
      <trkpt lat="44.32913" lon="6.35697">
        <ele>1247.1</ele>
        <time>2018-08-10T07:16:37Z</time>
      </trkpt>
      <trkpt lat="44.32915" lon="6.35693">
        <ele>1245.9</ele>
        <time>2018-08-10T07:16:39Z</time>
      </trkpt>
      <trkpt lat="44.32914" lon="6.35687">
        <ele>1244.6</ele>
        <time>2018-08-10T07:16:41Z</time>
      </trkpt>
      <trkpt lat="44.32914" lon="6.3568">
        <ele>1244</ele>
        <time>2018-08-10T07:16:43Z</time>
      </trkpt>
      <trkpt lat="44.32916" lon="6.35677">
        <ele>1243.8</ele>
        <time>2018-08-10T07:16:45Z</time>
      </trkpt>
      <trkpt lat="44.3292" lon="6.35679">
        <ele>1243.5</ele>
        <time>2018-08-10T07:16:48Z</time>
      </trkpt>
      <trkpt lat="44.32925" lon="6.35679">
        <ele>1242.9</ele>
        <time>2018-08-10T07:16:50Z</time>
      </trkpt>
      <trkpt lat="44.32931" lon="6.35679">
        <ele>1241.8</ele>
        <time>2018-08-10T07:16:52Z</time>
      </trkpt>
      <trkpt lat="44.32935" lon="6.3568">
        <ele>1241</ele>
        <time>2018-08-10T07:16:53Z</time>
      </trkpt>
      <trkpt lat="44.3294" lon="6.35679">
        <ele>1240</ele>
        <time>2018-08-10T07:16:54Z</time>
      </trkpt>
      <trkpt lat="44.32945" lon="6.35678">
        <ele>1239.2</ele>
        <time>2018-08-10T07:16:55Z</time>
      </trkpt>
      <trkpt lat="44.3295" lon="6.35678">
        <ele>1238.2</ele>
        <time>2018-08-10T07:16:56Z</time>
      </trkpt>
      <trkpt lat="44.32955" lon="6.35681">
        <ele>1236.9</ele>
        <time>2018-08-10T07:16:57Z</time>
      </trkpt>
      <trkpt lat="44.3296" lon="6.35683">
        <ele>1236.3</ele>
        <time>2018-08-10T07:16:58Z</time>
      </trkpt>
      <trkpt lat="44.32964" lon="6.35683">
        <ele>1235.5</ele>
        <time>2018-08-10T07:16:59Z</time>
      </trkpt>
      <trkpt lat="44.32968" lon="6.35682">
        <ele>1234.4</ele>
        <time>2018-08-10T07:17:00Z</time>
      </trkpt>
      <trkpt lat="44.32973" lon="6.35683">
        <ele>1233.7</ele>
        <time>2018-08-10T07:17:01Z</time>
      </trkpt>
      <trkpt lat="44.32978" lon="6.35683">
        <ele>1232.9</ele>
        <time>2018-08-10T07:17:02Z</time>
      </trkpt>
      <trkpt lat="44.32984" lon="6.35684">
        <ele>1231.8</ele>
        <time>2018-08-10T07:17:03Z</time>
      </trkpt>
      <trkpt lat="44.3299" lon="6.35684">
        <ele>1231</ele>
        <time>2018-08-10T07:17:04Z</time>
      </trkpt>
      <trkpt lat="44.32996" lon="6.35682">
        <ele>1229.8</ele>
        <time>2018-08-10T07:17:05Z</time>
      </trkpt>
      <trkpt lat="44.33001" lon="6.35675">
        <ele>1228.7</ele>
        <time>2018-08-10T07:17:06Z</time>
      </trkpt>
      <trkpt lat="44.33008" lon="6.35674">
        <ele>1227.7</ele>
        <time>2018-08-10T07:17:07Z</time>
      </trkpt>
      <trkpt lat="44.33017" lon="6.35675">
        <ele>1226.4</ele>
        <time>2018-08-10T07:17:08Z</time>
      </trkpt>
      <trkpt lat="44.33024" lon="6.35679">
        <ele>1225.4</ele>
        <time>2018-08-10T07:17:09Z</time>
      </trkpt>
      <trkpt lat="44.33032" lon="6.35677">
        <ele>1224.2</ele>
        <time>2018-08-10T07:17:10Z</time>
      </trkpt>
      <trkpt lat="44.3304" lon="6.35676">
        <ele>1222.8</ele>
        <time>2018-08-10T07:17:11Z</time>
      </trkpt>
      <trkpt lat="44.33047" lon="6.35673">
        <ele>1221.8</ele>
        <time>2018-08-10T07:17:12Z</time>
      </trkpt>
      <trkpt lat="44.33053" lon="6.35672">
        <ele>1221.4</ele>
        <time>2018-08-10T07:17:13Z</time>
      </trkpt>
      <trkpt lat="44.3306" lon="6.35669">
        <ele>1220.1</ele>
        <time>2018-08-10T07:17:14Z</time>
      </trkpt>
      <trkpt lat="44.33069" lon="6.35665">
        <ele>1219.1</ele>
        <time>2018-08-10T07:17:15Z</time>
      </trkpt>
      <trkpt lat="44.33073" lon="6.35661">
        <ele>1218.3</ele>
        <time>2018-08-10T07:17:16Z</time>
      </trkpt>
      <trkpt lat="44.33078" lon="6.35657">
        <ele>1217.2</ele>
        <time>2018-08-10T07:17:17Z</time>
      </trkpt>
      <trkpt lat="44.33084" lon="6.35654">
        <ele>1216.7</ele>
        <time>2018-08-10T07:17:18Z</time>
      </trkpt>
      <trkpt lat="44.33088" lon="6.35654">
        <ele>1216.4</ele>
        <time>2018-08-10T07:17:19Z</time>
      </trkpt>
      <trkpt lat="44.33094" lon="6.35651">
        <ele>1215.8</ele>
        <time>2018-08-10T07:17:20Z</time>
      </trkpt>
      <trkpt lat="44.33098" lon="6.35651">
        <ele>1214.9</ele>
        <time>2018-08-10T07:17:21Z</time>
      </trkpt>
      <trkpt lat="44.33102" lon="6.35653">
        <ele>1214.4</ele>
        <time>2018-08-10T07:17:22Z</time>
      </trkpt>
      <trkpt lat="44.33107" lon="6.35654">
        <ele>1213.9</ele>
        <time>2018-08-10T07:17:23Z</time>
      </trkpt>
      <trkpt lat="44.33113" lon="6.35656">
        <ele>1212.9</ele>
        <time>2018-08-10T07:17:25Z</time>
      </trkpt>
      <trkpt lat="44.33117" lon="6.35657">
        <ele>1212</ele>
        <time>2018-08-10T07:17:26Z</time>
      </trkpt>
      <trkpt lat="44.33123" lon="6.35659">
        <ele>1211.3</ele>
        <time>2018-08-10T07:17:27Z</time>
      </trkpt>
      <trkpt lat="44.33128" lon="6.35662">
        <ele>1210.1</ele>
        <time>2018-08-10T07:17:28Z</time>
      </trkpt>
      <trkpt lat="44.33133" lon="6.35664">
        <ele>1209.4</ele>
        <time>2018-08-10T07:17:29Z</time>
      </trkpt>
      <trkpt lat="44.33138" lon="6.35666">
        <ele>1208.3</ele>
        <time>2018-08-10T07:17:30Z</time>
      </trkpt>
      <trkpt lat="44.33144" lon="6.35667">
        <ele>1207.2</ele>
        <time>2018-08-10T07:17:31Z</time>
      </trkpt>
      <trkpt lat="44.3315" lon="6.35667">
        <ele>1206.3</ele>
        <time>2018-08-10T07:17:32Z</time>
      </trkpt>
      <trkpt lat="44.33155" lon="6.35665">
        <ele>1205.2</ele>
        <time>2018-08-10T07:17:33Z</time>
      </trkpt>
      <trkpt lat="44.3316" lon="6.35664">
        <ele>1204.6</ele>
        <time>2018-08-10T07:17:34Z</time>
      </trkpt>
      <trkpt lat="44.33166" lon="6.35663">
        <ele>1203.5</ele>
        <time>2018-08-10T07:17:35Z</time>
      </trkpt>
      <trkpt lat="44.33171" lon="6.35662">
        <ele>1202.6</ele>
        <time>2018-08-10T07:17:36Z</time>
      </trkpt>
      <trkpt lat="44.33175" lon="6.35662">
        <ele>1202.3</ele>
        <time>2018-08-10T07:17:37Z</time>
      </trkpt>
      <trkpt lat="44.3318" lon="6.35659">
        <ele>1202</ele>
        <time>2018-08-10T07:17:38Z</time>
      </trkpt>
      <trkpt lat="44.33185" lon="6.35654">
        <ele>1201.2</ele>
        <time>2018-08-10T07:17:39Z</time>
      </trkpt>
      <trkpt lat="44.33191" lon="6.35651">
        <ele>1200.3</ele>
        <time>2018-08-10T07:17:40Z</time>
      </trkpt>
      <trkpt lat="44.33197" lon="6.35648">
        <ele>1199.5</ele>
        <time>2018-08-10T07:17:41Z</time>
      </trkpt>
      <trkpt lat="44.33202" lon="6.35646">
        <ele>1198.8</ele>
        <time>2018-08-10T07:17:42Z</time>
      </trkpt>
      <trkpt lat="44.33207" lon="6.35638">
        <ele>1198</ele>
        <time>2018-08-10T07:17:43Z</time>
      </trkpt>
      <trkpt lat="44.33213" lon="6.35634">
        <ele>1197.5</ele>
        <time>2018-08-10T07:17:44Z</time>
      </trkpt>
      <trkpt lat="44.33219" lon="6.35632">
        <ele>1197.1</ele>
        <time>2018-08-10T07:17:45Z</time>
      </trkpt>
      <trkpt lat="44.33223" lon="6.3563">
        <ele>1196.8</ele>
        <time>2018-08-10T07:17:46Z</time>
      </trkpt>
      <trkpt lat="44.33227" lon="6.35626">
        <ele>1196.1</ele>
        <time>2018-08-10T07:17:47Z</time>
      </trkpt>
      <trkpt lat="44.33231" lon="6.35626">
        <ele>1195.6</ele>
        <time>2018-08-10T07:17:48Z</time>
      </trkpt>
      <trkpt lat="44.33234" lon="6.35627">
        <ele>1195.2</ele>
        <time>2018-08-10T07:17:49Z</time>
      </trkpt>
      <trkpt lat="44.33238" lon="6.35629">
        <ele>1194.6</ele>
        <time>2018-08-10T07:17:50Z</time>
      </trkpt>
      <trkpt lat="44.33242" lon="6.3563">
        <ele>1193.8</ele>
        <time>2018-08-10T07:17:51Z</time>
      </trkpt>
      <trkpt lat="44.33247" lon="6.35629">
        <ele>1192.9</ele>
        <time>2018-08-10T07:17:52Z</time>
      </trkpt>
      <trkpt lat="44.33251" lon="6.35628">
        <ele>1192.6</ele>
        <time>2018-08-10T07:17:53Z</time>
      </trkpt>
      <trkpt lat="44.33255" lon="6.35629">
        <ele>1192.3</ele>
        <time>2018-08-10T07:17:54Z</time>
      </trkpt>
      <trkpt lat="44.33259" lon="6.35629">
        <ele>1192</ele>
        <time>2018-08-10T07:17:55Z</time>
      </trkpt>
      <trkpt lat="44.33264" lon="6.35632">
        <ele>1190.9</ele>
        <time>2018-08-10T07:17:56Z</time>
      </trkpt>
      <trkpt lat="44.33271" lon="6.35633">
        <ele>1190.1</ele>
        <time>2018-08-10T07:17:57Z</time>
      </trkpt>
      <trkpt lat="44.33275" lon="6.35634">
        <ele>1189.3</ele>
        <time>2018-08-10T07:17:58Z</time>
      </trkpt>
      <trkpt lat="44.33281" lon="6.35634">
        <ele>1188.8</ele>
        <time>2018-08-10T07:17:59Z</time>
      </trkpt>
      <trkpt lat="44.33285" lon="6.35635">
        <ele>1188.5</ele>
        <time>2018-08-10T07:18:00Z</time>
      </trkpt>
      <trkpt lat="44.33289" lon="6.35636">
        <ele>1188.1</ele>
        <time>2018-08-10T07:18:01Z</time>
      </trkpt>
      <trkpt lat="44.33295" lon="6.35635">
        <ele>1187.2</ele>
        <time>2018-08-10T07:18:02Z</time>
      </trkpt>
      <trkpt lat="44.33301" lon="6.35634">
        <ele>1186.1</ele>
        <time>2018-08-10T07:18:03Z</time>
      </trkpt>
      <trkpt lat="44.33304" lon="6.35635">
        <ele>1185.6</ele>
        <time>2018-08-10T07:18:04Z</time>
      </trkpt>
      <trkpt lat="44.33309" lon="6.35636">
        <ele>1185.1</ele>
        <time>2018-08-10T07:18:05Z</time>
      </trkpt>
      <trkpt lat="44.33315" lon="6.35636">
        <ele>1184.6</ele>
        <time>2018-08-10T07:18:06Z</time>
      </trkpt>
      <trkpt lat="44.3332" lon="6.35636">
        <ele>1183.7</ele>
        <time>2018-08-10T07:18:07Z</time>
      </trkpt>
      <trkpt lat="44.33326" lon="6.35636">
        <ele>1182.4</ele>
        <time>2018-08-10T07:18:08Z</time>
      </trkpt>
      <trkpt lat="44.33332" lon="6.35638">
        <ele>1182</ele>
        <time>2018-08-10T07:18:09Z</time>
      </trkpt>
      <trkpt lat="44.33339" lon="6.35639">
        <ele>1181.5</ele>
        <time>2018-08-10T07:18:10Z</time>
      </trkpt>
      <trkpt lat="44.33345" lon="6.35639">
        <ele>1181</ele>
        <time>2018-08-10T07:18:11Z</time>
      </trkpt>
      <trkpt lat="44.33351" lon="6.35641">
        <ele>1180.4</ele>
        <time>2018-08-10T07:18:12Z</time>
      </trkpt>
      <trkpt lat="44.33357" lon="6.3564">
        <ele>1179.5</ele>
        <time>2018-08-10T07:18:13Z</time>
      </trkpt>
      <trkpt lat="44.33364" lon="6.35643">
        <ele>1178.9</ele>
        <time>2018-08-10T07:18:14Z</time>
      </trkpt>
      <trkpt lat="44.3337" lon="6.35645">
        <ele>1178.5</ele>
        <time>2018-08-10T07:18:15Z</time>
      </trkpt>
      <trkpt lat="44.33378" lon="6.35647">
        <ele>1178</ele>
        <time>2018-08-10T07:18:17Z</time>
      </trkpt>
      <trkpt lat="44.33382" lon="6.35652">
        <ele>1177.7</ele>
        <time>2018-08-10T07:18:18Z</time>
      </trkpt>
      <trkpt lat="44.33387" lon="6.35657">
        <ele>1177.4</ele>
        <time>2018-08-10T07:18:19Z</time>
      </trkpt>
      <trkpt lat="44.33391" lon="6.3566">
        <ele>1177.1</ele>
        <time>2018-08-10T07:18:20Z</time>
      </trkpt>
      <trkpt lat="44.33396" lon="6.35665">
        <ele>1176.4</ele>
        <time>2018-08-10T07:18:21Z</time>
      </trkpt>
      <trkpt lat="44.334" lon="6.3567">
        <ele>1175.7</ele>
        <time>2018-08-10T07:18:22Z</time>
      </trkpt>
      <trkpt lat="44.33403" lon="6.35675">
        <ele>1175.1</ele>
        <time>2018-08-10T07:18:23Z</time>
      </trkpt>
      <trkpt lat="44.33406" lon="6.35682">
        <ele>1174.9</ele>
        <time>2018-08-10T07:18:24Z</time>
      </trkpt>
      <trkpt lat="44.33408" lon="6.35686">
        <ele>1174.7</ele>
        <time>2018-08-10T07:18:25Z</time>
      </trkpt>
      <trkpt lat="44.33411" lon="6.35691">
        <ele>1174.5</ele>
        <time>2018-08-10T07:18:26Z</time>
      </trkpt>
      <trkpt lat="44.33413" lon="6.35696">
        <ele>1174.3</ele>
        <time>2018-08-10T07:18:27Z</time>
      </trkpt>
      <trkpt lat="44.33416" lon="6.35702">
        <ele>1174.2</ele>
        <time>2018-08-10T07:18:28Z</time>
      </trkpt>
      <trkpt lat="44.33419" lon="6.35707">
        <ele>1174</ele>
        <time>2018-08-10T07:18:29Z</time>
      </trkpt>
      <trkpt lat="44.33422" lon="6.35713">
        <ele>1173.8</ele>
        <time>2018-08-10T07:18:30Z</time>
      </trkpt>
      <trkpt lat="44.33424" lon="6.35719">
        <ele>1173.6</ele>
        <time>2018-08-10T07:18:31Z</time>
      </trkpt>
      <trkpt lat="44.33428" lon="6.35722">
        <ele>1173.4</ele>
        <time>2018-08-10T07:18:32Z</time>
      </trkpt>
      <trkpt lat="44.3343" lon="6.35728">
        <ele>1173.2</ele>
        <time>2018-08-10T07:18:34Z</time>
      </trkpt>
      <trkpt lat="44.33432" lon="6.35731">
        <ele>1173</ele>
        <time>2018-08-10T07:18:35Z</time>
      </trkpt>
      <trkpt lat="44.33439" lon="6.35741">
        <ele>1172</ele>
        <time>2018-08-10T07:18:36Z</time>
      </trkpt>
      <trkpt lat="44.33442" lon="6.35746">
        <ele>1171.4</ele>
        <time>2018-08-10T07:18:37Z</time>
      </trkpt>
      <trkpt lat="44.33449" lon="6.35746">
        <ele>1171</ele>
        <time>2018-08-10T07:18:38Z</time>
      </trkpt>
      <trkpt lat="44.33455" lon="6.35747">
        <ele>1170.8</ele>
        <time>2018-08-10T07:18:39Z</time>
      </trkpt>
      <trkpt lat="44.33459" lon="6.35748">
        <ele>1170.7</ele>
        <time>2018-08-10T07:18:40Z</time>
      </trkpt>
      <trkpt lat="44.33465" lon="6.35748">
        <ele>1170.6</ele>
        <time>2018-08-10T07:18:41Z</time>
      </trkpt>
      <trkpt lat="44.33469" lon="6.35749">
        <ele>1170.5</ele>
        <time>2018-08-10T07:18:42Z</time>
      </trkpt>
      <trkpt lat="44.33474" lon="6.35749">
        <ele>1170.4</ele>
        <time>2018-08-10T07:18:43Z</time>
      </trkpt>
      <trkpt lat="44.33478" lon="6.3575">
        <ele>1170.3</ele>
        <time>2018-08-10T07:18:44Z</time>
      </trkpt>
      <trkpt lat="44.33484" lon="6.3575">
        <ele>1170.1</ele>
        <time>2018-08-10T07:18:45Z</time>
      </trkpt>
      <trkpt lat="44.33489" lon="6.35751">
        <ele>1169.8</ele>
        <time>2018-08-10T07:18:46Z</time>
      </trkpt>
      <trkpt lat="44.33493" lon="6.35752">
        <ele>1169.5</ele>
        <time>2018-08-10T07:18:47Z</time>
      </trkpt>
      <trkpt lat="44.33497" lon="6.35753">
        <ele>1169.2</ele>
        <time>2018-08-10T07:18:48Z</time>
      </trkpt>
      <trkpt lat="44.33502" lon="6.35753">
        <ele>1169</ele>
        <time>2018-08-10T07:18:49Z</time>
      </trkpt>
      <trkpt lat="44.33506" lon="6.35753">
        <ele>1168.9</ele>
        <time>2018-08-10T07:18:50Z</time>
      </trkpt>
      <trkpt lat="44.3351" lon="6.35756">
        <ele>1168.8</ele>
        <time>2018-08-10T07:18:51Z</time>
      </trkpt>
      <trkpt lat="44.33514" lon="6.35757">
        <ele>1168.7</ele>
        <time>2018-08-10T07:18:52Z</time>
      </trkpt>
      <trkpt lat="44.33518" lon="6.35758">
        <ele>1168.6</ele>
        <time>2018-08-10T07:18:53Z</time>
      </trkpt>
      <trkpt lat="44.33523" lon="6.35757">
        <ele>1168.4</ele>
        <time>2018-08-10T07:18:54Z</time>
      </trkpt>
      <trkpt lat="44.33527" lon="6.35759">
        <ele>1168.3</ele>
        <time>2018-08-10T07:18:55Z</time>
      </trkpt>
      <trkpt lat="44.33531" lon="6.35761">
        <ele>1168.2</ele>
        <time>2018-08-10T07:18:56Z</time>
      </trkpt>
      <trkpt lat="44.33535" lon="6.35761">
        <ele>1168.1</ele>
        <time>2018-08-10T07:18:57Z</time>
      </trkpt>
      <trkpt lat="44.3354" lon="6.35763">
        <ele>1167.9</ele>
        <time>2018-08-10T07:18:58Z</time>
      </trkpt>
      <trkpt lat="44.33545" lon="6.35763">
        <ele>1167.7</ele>
        <time>2018-08-10T07:18:59Z</time>
      </trkpt>
      <trkpt lat="44.3355" lon="6.35764">
        <ele>1167.4</ele>
        <time>2018-08-10T07:19:00Z</time>
      </trkpt>
      <trkpt lat="44.33554" lon="6.35767">
        <ele>1167.2</ele>
        <time>2018-08-10T07:19:01Z</time>
      </trkpt>
      <trkpt lat="44.3356" lon="6.35769">
        <ele>1166.9</ele>
        <time>2018-08-10T07:19:02Z</time>
      </trkpt>
      <trkpt lat="44.33565" lon="6.3577">
        <ele>1166.5</ele>
        <time>2018-08-10T07:19:03Z</time>
      </trkpt>
      <trkpt lat="44.3357" lon="6.3577">
        <ele>1166</ele>
        <time>2018-08-10T07:19:04Z</time>
      </trkpt>
      <trkpt lat="44.33575" lon="6.35771">
        <ele>1165.5</ele>
        <time>2018-08-10T07:19:05Z</time>
      </trkpt>
      <trkpt lat="44.33579" lon="6.35774">
        <ele>1165.3</ele>
        <time>2018-08-10T07:19:06Z</time>
      </trkpt>
      <trkpt lat="44.33586" lon="6.35774">
        <ele>1165</ele>
        <time>2018-08-10T07:19:07Z</time>
      </trkpt>
      <trkpt lat="44.33591" lon="6.35775">
        <ele>1164.9</ele>
        <time>2018-08-10T07:19:08Z</time>
      </trkpt>
      <trkpt lat="44.33596" lon="6.35776">
        <ele>1164.7</ele>
        <time>2018-08-10T07:19:09Z</time>
      </trkpt>
      <trkpt lat="44.33599" lon="6.35781">
        <ele>1164.5</ele>
        <time>2018-08-10T07:19:10Z</time>
      </trkpt>
      <trkpt lat="44.33604" lon="6.35783">
        <ele>1164.2</ele>
        <time>2018-08-10T07:19:11Z</time>
      </trkpt>
      <trkpt lat="44.33609" lon="6.35786">
        <ele>1164</ele>
        <time>2018-08-10T07:19:12Z</time>
      </trkpt>
      <trkpt lat="44.33615" lon="6.35787">
        <ele>1163.6</ele>
        <time>2018-08-10T07:19:13Z</time>
      </trkpt>
      <trkpt lat="44.33622" lon="6.35787">
        <ele>1162.7</ele>
        <time>2018-08-10T07:19:14Z</time>
      </trkpt>
      <trkpt lat="44.33628" lon="6.35788">
        <ele>1162.1</ele>
        <time>2018-08-10T07:19:15Z</time>
      </trkpt>
      <trkpt lat="44.33634" lon="6.35789">
        <ele>1161.8</ele>
        <time>2018-08-10T07:19:16Z</time>
      </trkpt>
      <trkpt lat="44.33639" lon="6.35789">
        <ele>1161.6</ele>
        <time>2018-08-10T07:19:17Z</time>
      </trkpt>
      <trkpt lat="44.33644" lon="6.35789">
        <ele>1161.4</ele>
        <time>2018-08-10T07:19:18Z</time>
      </trkpt>
      <trkpt lat="44.33649" lon="6.35789">
        <ele>1161.2</ele>
        <time>2018-08-10T07:19:19Z</time>
      </trkpt>
      <trkpt lat="44.33653" lon="6.3579">
        <ele>1161.1</ele>
        <time>2018-08-10T07:19:20Z</time>
      </trkpt>
      <trkpt lat="44.33657" lon="6.35789">
        <ele>1161</ele>
        <time>2018-08-10T07:19:21Z</time>
      </trkpt>
      <trkpt lat="44.3366" lon="6.35791">
        <ele>1160.9</ele>
        <time>2018-08-10T07:19:22Z</time>
      </trkpt>
      <trkpt lat="44.33664" lon="6.35791">
        <ele>1160.8</ele>
        <time>2018-08-10T07:19:24Z</time>
      </trkpt>
      <trkpt lat="44.33659" lon="6.35786">
        <ele>1160.7</ele>
        <time>2018-08-10T07:19:47Z</time>
      </trkpt>
      <trkpt lat="44.33662" lon="6.35788">
        <ele>1160.6</ele>
        <time>2018-08-10T07:19:54Z</time>
      </trkpt>
      <trkpt lat="44.33664" lon="6.35791">
        <ele>1160.5</ele>
        <time>2018-08-10T07:19:58Z</time>
      </trkpt>
      <trkpt lat="44.33667" lon="6.35791">
        <ele>1160.4</ele>
        <time>2018-08-10T07:20:16Z</time>
      </trkpt>
      <trkpt lat="44.3367" lon="6.35792">
        <ele>1160.2</ele>
        <time>2018-08-10T07:20:19Z</time>
      </trkpt>
      <trkpt lat="44.33673" lon="6.35791">
        <ele>1159.9</ele>
        <time>2018-08-10T07:22:58Z</time>
      </trkpt>
      <trkpt lat="44.33676" lon="6.35792">
        <ele>1159.7</ele>
        <time>2018-08-10T07:23:00Z</time>
      </trkpt>
      <trkpt lat="44.33679" lon="6.35792">
        <ele>1159.5</ele>
        <time>2018-08-10T07:23:03Z</time>
      </trkpt>
      <trkpt lat="44.33681" lon="6.35794">
        <ele>1159.2</ele>
        <time>2018-08-10T07:26:20Z</time>
      </trkpt>
      <trkpt lat="44.33685" lon="6.35794">
        <ele>1158.9</ele>
        <time>2018-08-10T07:26:22Z</time>
      </trkpt>
      <trkpt lat="44.33688" lon="6.35796">
        <ele>1158.5</ele>
        <time>2018-08-10T07:26:24Z</time>
      </trkpt>
      <trkpt lat="44.33693" lon="6.35797">
        <ele>1158.3</ele>
        <time>2018-08-10T07:26:26Z</time>
      </trkpt>
      <trkpt lat="44.33698" lon="6.35799">
        <ele>1158</ele>
        <time>2018-08-10T07:26:28Z</time>
      </trkpt>
      <trkpt lat="44.33702" lon="6.358">
        <ele>1157.8</ele>
        <time>2018-08-10T07:26:29Z</time>
      </trkpt>
      <trkpt lat="44.33705" lon="6.358">
        <ele>1157.6</ele>
        <time>2018-08-10T07:26:30Z</time>
      </trkpt>
      <trkpt lat="44.3371" lon="6.35801">
        <ele>1157.4</ele>
        <time>2018-08-10T07:26:32Z</time>
      </trkpt>
      <trkpt lat="44.33713" lon="6.35802">
        <ele>1157.4</ele>
        <time>2018-08-10T07:26:33Z</time>
      </trkpt>
      <trkpt lat="44.33716" lon="6.35802">
        <ele>1157.3</ele>
        <time>2018-08-10T07:26:34Z</time>
      </trkpt>
      <trkpt lat="44.3372" lon="6.35802">
        <ele>1157.2</ele>
        <time>2018-08-10T07:26:35Z</time>
      </trkpt>
      <trkpt lat="44.33725" lon="6.35804">
        <ele>1157.1</ele>
        <time>2018-08-10T07:26:37Z</time>
      </trkpt>
      <trkpt lat="44.33728" lon="6.35803">
        <ele>1157</ele>
        <time>2018-08-10T07:26:38Z</time>
      </trkpt>
      <trkpt lat="44.33732" lon="6.35803">
        <ele>1156.9</ele>
        <time>2018-08-10T07:26:39Z</time>
      </trkpt>
      <trkpt lat="44.33735" lon="6.35804">
        <ele>1156.9</ele>
        <time>2018-08-10T07:26:40Z</time>
      </trkpt>
      <trkpt lat="44.33738" lon="6.35805">
        <ele>1156.8</ele>
        <time>2018-08-10T07:26:41Z</time>
      </trkpt>
      <trkpt lat="44.33742" lon="6.35806">
        <ele>1156.7</ele>
        <time>2018-08-10T07:26:42Z</time>
      </trkpt>
      <trkpt lat="44.33745" lon="6.35808">
        <ele>1156.7</ele>
        <time>2018-08-10T07:26:44Z</time>
      </trkpt>
      <trkpt lat="44.33748" lon="6.3581">
        <ele>1156.6</ele>
        <time>2018-08-10T07:26:45Z</time>
      </trkpt>
      <trkpt lat="44.33751" lon="6.3581">
        <ele>1156.6</ele>
        <time>2018-08-10T07:26:46Z</time>
      </trkpt>
      <trkpt lat="44.33756" lon="6.35811">
        <ele>1156.6</ele>
        <time>2018-08-10T07:26:47Z</time>
      </trkpt>
      <trkpt lat="44.33759" lon="6.35812">
        <ele>1156.5</ele>
        <time>2018-08-10T07:26:48Z</time>
      </trkpt>
      <trkpt lat="44.33764" lon="6.35812">
        <ele>1156.5</ele>
        <time>2018-08-10T07:26:49Z</time>
      </trkpt>
      <trkpt lat="44.3377" lon="6.35811">
        <ele>1156.4</ele>
        <time>2018-08-10T07:26:51Z</time>
      </trkpt>
      <trkpt lat="44.33776" lon="6.35811">
        <ele>1156.3</ele>
        <time>2018-08-10T07:26:53Z</time>
      </trkpt>
      <trkpt lat="44.33779" lon="6.35811">
        <ele>1156.3</ele>
        <time>2018-08-10T07:26:54Z</time>
      </trkpt>
      <trkpt lat="44.33783" lon="6.35811">
        <ele>1156.2</ele>
        <time>2018-08-10T07:26:55Z</time>
      </trkpt>
      <trkpt lat="44.33786" lon="6.35811">
        <ele>1156.2</ele>
        <time>2018-08-10T07:26:56Z</time>
      </trkpt>
      <trkpt lat="44.33789" lon="6.35811">
        <ele>1156.2</ele>
        <time>2018-08-10T07:26:57Z</time>
      </trkpt>
      <trkpt lat="44.33793" lon="6.35812">
        <ele>1156.1</ele>
        <time>2018-08-10T07:26:58Z</time>
      </trkpt>
      <trkpt lat="44.33798" lon="6.35813">
        <ele>1156</ele>
        <time>2018-08-10T07:26:59Z</time>
      </trkpt>
      <trkpt lat="44.33804" lon="6.35812">
        <ele>1156</ele>
        <time>2018-08-10T07:27:01Z</time>
      </trkpt>
      <trkpt lat="44.33808" lon="6.35812">
        <ele>1155.9</ele>
        <time>2018-08-10T07:27:02Z</time>
      </trkpt>
      <trkpt lat="44.33813" lon="6.35813">
        <ele>1155.9</ele>
        <time>2018-08-10T07:27:04Z</time>
      </trkpt>
      <trkpt lat="44.33817" lon="6.35814">
        <ele>1155.8</ele>
        <time>2018-08-10T07:27:05Z</time>
      </trkpt>
      <trkpt lat="44.33822" lon="6.35815">
        <ele>1155.8</ele>
        <time>2018-08-10T07:27:06Z</time>
      </trkpt>
      <trkpt lat="44.33826" lon="6.35815">
        <ele>1155.7</ele>
        <time>2018-08-10T07:27:07Z</time>
      </trkpt>
      <trkpt lat="44.33829" lon="6.35815">
        <ele>1155.7</ele>
        <time>2018-08-10T07:27:08Z</time>
      </trkpt>
      <trkpt lat="44.33833" lon="6.35816">
        <ele>1155.7</ele>
        <time>2018-08-10T07:27:09Z</time>
      </trkpt>
      <trkpt lat="44.33837" lon="6.35815">
        <ele>1155.6</ele>
        <time>2018-08-10T07:27:10Z</time>
      </trkpt>
      <trkpt lat="44.33844" lon="6.35816">
        <ele>1155.5</ele>
        <time>2018-08-10T07:27:12Z</time>
      </trkpt>
      <trkpt lat="44.33847" lon="6.35818">
        <ele>1155.5</ele>
        <time>2018-08-10T07:27:13Z</time>
      </trkpt>
      <trkpt lat="44.33849" lon="6.3582">
        <ele>1155.5</ele>
        <time>2018-08-10T07:27:14Z</time>
      </trkpt>
      <trkpt lat="44.33853" lon="6.35821">
        <ele>1155.4</ele>
        <time>2018-08-10T07:27:15Z</time>
      </trkpt>
      <trkpt lat="44.33857" lon="6.35822">
        <ele>1155.4</ele>
        <time>2018-08-10T07:27:16Z</time>
      </trkpt>
      <trkpt lat="44.33861" lon="6.35822">
        <ele>1155.4</ele>
        <time>2018-08-10T07:27:17Z</time>
      </trkpt>
      <trkpt lat="44.33865" lon="6.35824">
        <ele>1155.3</ele>
        <time>2018-08-10T07:27:18Z</time>
      </trkpt>
      <trkpt lat="44.33868" lon="6.35824">
        <ele>1155.3</ele>
        <time>2018-08-10T07:27:19Z</time>
      </trkpt>
      <trkpt lat="44.33873" lon="6.35826">
        <ele>1155.3</ele>
        <time>2018-08-10T07:27:20Z</time>
      </trkpt>
      <trkpt lat="44.33878" lon="6.35827">
        <ele>1155.2</ele>
        <time>2018-08-10T07:27:21Z</time>
      </trkpt>
      <trkpt lat="44.33882" lon="6.35828">
        <ele>1155.2</ele>
        <time>2018-08-10T07:27:22Z</time>
      </trkpt>
      <trkpt lat="44.33887" lon="6.35829">
        <ele>1155.2</ele>
        <time>2018-08-10T07:27:23Z</time>
      </trkpt>
      <trkpt lat="44.33892" lon="6.35829">
        <ele>1155.2</ele>
        <time>2018-08-10T07:27:24Z</time>
      </trkpt>
      <trkpt lat="44.33895" lon="6.35831">
        <ele>1155.1</ele>
        <time>2018-08-10T07:27:25Z</time>
      </trkpt>
      <trkpt lat="44.33899" lon="6.35832">
        <ele>1155.1</ele>
        <time>2018-08-10T07:27:26Z</time>
      </trkpt>
      <trkpt lat="44.33902" lon="6.35832">
        <ele>1155.1</ele>
        <time>2018-08-10T07:27:27Z</time>
      </trkpt>
      <trkpt lat="44.33906" lon="6.35834">
        <ele>1155.1</ele>
        <time>2018-08-10T07:27:28Z</time>
      </trkpt>
      <trkpt lat="44.3391" lon="6.35835">
        <ele>1155.1</ele>
        <time>2018-08-10T07:27:29Z</time>
      </trkpt>
      <trkpt lat="44.33914" lon="6.35837">
        <ele>1155</ele>
        <time>2018-08-10T07:27:30Z</time>
      </trkpt>
      <trkpt lat="44.33919" lon="6.3584">
        <ele>1155</ele>
        <time>2018-08-10T07:27:32Z</time>
      </trkpt>
      <trkpt lat="44.33924" lon="6.35839">
        <ele>1155</ele>
        <time>2018-08-10T07:27:34Z</time>
      </trkpt>
      <trkpt lat="44.33927" lon="6.35841">
        <ele>1155</ele>
        <time>2018-08-10T07:27:36Z</time>
      </trkpt>
      <trkpt lat="44.33929" lon="6.35844">
        <ele>1154.9</ele>
        <time>2018-08-10T07:27:37Z</time>
      </trkpt>
      <trkpt lat="44.33932" lon="6.35846">
        <ele>1154.9</ele>
        <time>2018-08-10T07:27:38Z</time>
      </trkpt>
      <trkpt lat="44.33937" lon="6.35846">
        <ele>1154.9</ele>
        <time>2018-08-10T07:27:39Z</time>
      </trkpt>
      <trkpt lat="44.3394" lon="6.35845">
        <ele>1154.9</ele>
        <time>2018-08-10T07:27:41Z</time>
      </trkpt>
      <trkpt lat="44.33944" lon="6.35845">
        <ele>1154.8</ele>
        <time>2018-08-10T07:27:42Z</time>
      </trkpt>
      <trkpt lat="44.33947" lon="6.35846">
        <ele>1154.8</ele>
        <time>2018-08-10T07:27:44Z</time>
      </trkpt>
      <trkpt lat="44.3395" lon="6.35845">
        <ele>1154.8</ele>
        <time>2018-08-10T07:27:45Z</time>
      </trkpt>
      <trkpt lat="44.33953" lon="6.35847">
        <ele>1154.8</ele>
        <time>2018-08-10T07:27:46Z</time>
      </trkpt>
      <trkpt lat="44.33956" lon="6.35851">
        <ele>1154.7</ele>
        <time>2018-08-10T07:27:48Z</time>
      </trkpt>
      <trkpt lat="44.33961" lon="6.35854">
        <ele>1154.7</ele>
        <time>2018-08-10T07:27:50Z</time>
      </trkpt>
      <trkpt lat="44.33965" lon="6.35856">
        <ele>1154.7</ele>
        <time>2018-08-10T07:27:51Z</time>
      </trkpt>
      <trkpt lat="44.33968" lon="6.35859">
        <ele>1154.7</ele>
        <time>2018-08-10T07:27:52Z</time>
      </trkpt>
      <trkpt lat="44.33972" lon="6.35861">
        <ele>1154.7</ele>
        <time>2018-08-10T07:27:53Z</time>
      </trkpt>
      <trkpt lat="44.33975" lon="6.35863">
        <ele>1154.7</ele>
        <time>2018-08-10T07:27:54Z</time>
      </trkpt>
      <trkpt lat="44.33978" lon="6.35865">
        <ele>1154.7</ele>
        <time>2018-08-10T07:27:55Z</time>
      </trkpt>
      <trkpt lat="44.33981" lon="6.35867">
        <ele>1154.7</ele>
        <time>2018-08-10T07:27:56Z</time>
      </trkpt>
      <trkpt lat="44.33983" lon="6.35872">
        <ele>1154.7</ele>
        <time>2018-08-10T07:27:57Z</time>
      </trkpt>
      <trkpt lat="44.33985" lon="6.35876">
        <ele>1154.7</ele>
        <time>2018-08-10T07:27:58Z</time>
      </trkpt>
      <trkpt lat="44.33987" lon="6.3588">
        <ele>1154.8</ele>
        <time>2018-08-10T07:27:59Z</time>
      </trkpt>
      <trkpt lat="44.33988" lon="6.35884">
        <ele>1154.9</ele>
        <time>2018-08-10T07:28:00Z</time>
      </trkpt>
      <trkpt lat="44.3399" lon="6.35887">
        <ele>1154.9</ele>
        <time>2018-08-10T07:28:01Z</time>
      </trkpt>
      <trkpt lat="44.33992" lon="6.35892">
        <ele>1155</ele>
        <time>2018-08-10T07:28:02Z</time>
      </trkpt>
      <trkpt lat="44.33993" lon="6.35896">
        <ele>1155.1</ele>
        <time>2018-08-10T07:28:03Z</time>
      </trkpt>
      <trkpt lat="44.33995" lon="6.359">
        <ele>1155.1</ele>
        <time>2018-08-10T07:28:04Z</time>
      </trkpt>
      <trkpt lat="44.33997" lon="6.35903">
        <ele>1155.1</ele>
        <time>2018-08-10T07:28:05Z</time>
      </trkpt>
      <trkpt lat="44.34003" lon="6.3591">
        <ele>1155.2</ele>
        <time>2018-08-10T07:28:07Z</time>
      </trkpt>
      <trkpt lat="44.34006" lon="6.35913">
        <ele>1155.2</ele>
        <time>2018-08-10T07:28:08Z</time>
      </trkpt>
      <trkpt lat="44.3401" lon="6.35917">
        <ele>1155.3</ele>
        <time>2018-08-10T07:28:10Z</time>
      </trkpt>
      <trkpt lat="44.34014" lon="6.3592">
        <ele>1155.3</ele>
        <time>2018-08-10T07:28:12Z</time>
      </trkpt>
      <trkpt lat="44.34021" lon="6.35923">
        <ele>1155.3</ele>
        <time>2018-08-10T07:28:14Z</time>
      </trkpt>
      <trkpt lat="44.34026" lon="6.35922">
        <ele>1155.2</ele>
        <time>2018-08-10T07:28:15Z</time>
      </trkpt>
      <trkpt lat="44.3403" lon="6.35922">
        <ele>1155.2</ele>
        <time>2018-08-10T07:28:16Z</time>
      </trkpt>
      <trkpt lat="44.34034" lon="6.35923">
        <ele>1155.1</ele>
        <time>2018-08-10T07:28:17Z</time>
      </trkpt>
      <trkpt lat="44.34038" lon="6.35921">
        <ele>1155.1</ele>
        <time>2018-08-10T07:28:18Z</time>
      </trkpt>
      <trkpt lat="44.34043" lon="6.3592">
        <ele>1155</ele>
        <time>2018-08-10T07:28:20Z</time>
      </trkpt>
      <trkpt lat="44.34047" lon="6.3592">
        <ele>1154.9</ele>
        <time>2018-08-10T07:28:21Z</time>
      </trkpt>
      <trkpt lat="44.3405" lon="6.35919">
        <ele>1154.9</ele>
        <time>2018-08-10T07:28:22Z</time>
      </trkpt>
      <trkpt lat="44.34054" lon="6.35919">
        <ele>1154.8</ele>
        <time>2018-08-10T07:28:23Z</time>
      </trkpt>
      <trkpt lat="44.3406" lon="6.35917">
        <ele>1154.7</ele>
        <time>2018-08-10T07:28:25Z</time>
      </trkpt>
      <trkpt lat="44.34063" lon="6.35917">
        <ele>1154.6</ele>
        <time>2018-08-10T07:28:26Z</time>
      </trkpt>
      <trkpt lat="44.34067" lon="6.35918">
        <ele>1154.5</ele>
        <time>2018-08-10T07:28:27Z</time>
      </trkpt>
      <trkpt lat="44.3407" lon="6.35917">
        <ele>1154.4</ele>
        <time>2018-08-10T07:28:28Z</time>
      </trkpt>
      <trkpt lat="44.34074" lon="6.35917">
        <ele>1154.3</ele>
        <time>2018-08-10T07:28:29Z</time>
      </trkpt>
      <trkpt lat="44.34079" lon="6.35915">
        <ele>1154.2</ele>
        <time>2018-08-10T07:28:31Z</time>
      </trkpt>
      <trkpt lat="44.34082" lon="6.35915">
        <ele>1154.1</ele>
        <time>2018-08-10T07:28:32Z</time>
      </trkpt>
      <trkpt lat="44.34085" lon="6.35914">
        <ele>1154.1</ele>
        <time>2018-08-10T07:28:33Z</time>
      </trkpt>
      <trkpt lat="44.34088" lon="6.35912">
        <ele>1154.1</ele>
        <time>2018-08-10T07:28:34Z</time>
      </trkpt>
      <trkpt lat="44.34091" lon="6.35911">
        <ele>1154</ele>
        <time>2018-08-10T07:28:35Z</time>
      </trkpt>
      <trkpt lat="44.34094" lon="6.35909">
        <ele>1154</ele>
        <time>2018-08-10T07:28:36Z</time>
      </trkpt>
      <trkpt lat="44.34099" lon="6.35907">
        <ele>1154</ele>
        <time>2018-08-10T07:28:38Z</time>
      </trkpt>
      <trkpt lat="44.34103" lon="6.35906">
        <ele>1153.9</ele>
        <time>2018-08-10T07:28:39Z</time>
      </trkpt>
      <trkpt lat="44.34107" lon="6.35906">
        <ele>1153.9</ele>
        <time>2018-08-10T07:28:40Z</time>
      </trkpt>
      <trkpt lat="44.34112" lon="6.35906">
        <ele>1153.8</ele>
        <time>2018-08-10T07:28:41Z</time>
      </trkpt>
      <trkpt lat="44.34117" lon="6.35907">
        <ele>1153.8</ele>
        <time>2018-08-10T07:28:42Z</time>
      </trkpt>
      <trkpt lat="44.34121" lon="6.35907">
        <ele>1153.7</ele>
        <time>2018-08-10T07:28:43Z</time>
      </trkpt>
      <trkpt lat="44.34125" lon="6.35907">
        <ele>1153.7</ele>
        <time>2018-08-10T07:28:44Z</time>
      </trkpt>
      <trkpt lat="44.34128" lon="6.35908">
        <ele>1153.6</ele>
        <time>2018-08-10T07:28:45Z</time>
      </trkpt>
      <trkpt lat="44.34133" lon="6.35909">
        <ele>1153.5</ele>
        <time>2018-08-10T07:28:46Z</time>
      </trkpt>
      <trkpt lat="44.34137" lon="6.3591">
        <ele>1153.4</ele>
        <time>2018-08-10T07:28:47Z</time>
      </trkpt>
      <trkpt lat="44.34141" lon="6.35911">
        <ele>1153.3</ele>
        <time>2018-08-10T07:28:48Z</time>
      </trkpt>
      <trkpt lat="44.34144" lon="6.35911">
        <ele>1153.3</ele>
        <time>2018-08-10T07:28:49Z</time>
      </trkpt>
      <trkpt lat="44.34151" lon="6.35911">
        <ele>1153.2</ele>
        <time>2018-08-10T07:28:51Z</time>
      </trkpt>
      <trkpt lat="44.34154" lon="6.35911">
        <ele>1153.1</ele>
        <time>2018-08-10T07:28:52Z</time>
      </trkpt>
      <trkpt lat="44.34158" lon="6.35912">
        <ele>1153.1</ele>
        <time>2018-08-10T07:28:53Z</time>
      </trkpt>
      <trkpt lat="44.34161" lon="6.35912">
        <ele>1153</ele>
        <time>2018-08-10T07:28:54Z</time>
      </trkpt>
      <trkpt lat="44.34165" lon="6.35914">
        <ele>1153.1</ele>
        <time>2018-08-10T07:28:55Z</time>
      </trkpt>
      <trkpt lat="44.3417" lon="6.35915">
        <ele>1153.3</ele>
        <time>2018-08-10T07:28:56Z</time>
      </trkpt>
      <trkpt lat="44.34175" lon="6.35914">
        <ele>1153.5</ele>
        <time>2018-08-10T07:28:57Z</time>
      </trkpt>
      <trkpt lat="44.34179" lon="6.35916">
        <ele>1153.6</ele>
        <time>2018-08-10T07:28:58Z</time>
      </trkpt>
      <trkpt lat="44.34184" lon="6.35915">
        <ele>1153.8</ele>
        <time>2018-08-10T07:28:59Z</time>
      </trkpt>
      <trkpt lat="44.34188" lon="6.35916">
        <ele>1153.9</ele>
        <time>2018-08-10T07:29:00Z</time>
      </trkpt>
      <trkpt lat="44.34191" lon="6.35918">
        <ele>1154</ele>
        <time>2018-08-10T07:29:01Z</time>
      </trkpt>
      <trkpt lat="44.34194" lon="6.35919">
        <ele>1154.2</ele>
        <time>2018-08-10T07:29:02Z</time>
      </trkpt>
      <trkpt lat="44.34197" lon="6.3592">
        <ele>1154.3</ele>
        <time>2018-08-10T07:29:03Z</time>
      </trkpt>
      <trkpt lat="44.34202" lon="6.35919">
        <ele>1154.5</ele>
        <time>2018-08-10T07:29:04Z</time>
      </trkpt>
      <trkpt lat="44.34206" lon="6.3592">
        <ele>1154.6</ele>
        <time>2018-08-10T07:29:05Z</time>
      </trkpt>
      <trkpt lat="44.34209" lon="6.35922">
        <ele>1154.9</ele>
        <time>2018-08-10T07:29:06Z</time>
      </trkpt>
      <trkpt lat="44.34212" lon="6.35922">
        <ele>1155</ele>
        <time>2018-08-10T07:29:07Z</time>
      </trkpt>
      <trkpt lat="44.34216" lon="6.35922">
        <ele>1155.3</ele>
        <time>2018-08-10T07:29:08Z</time>
      </trkpt>
      <trkpt lat="44.3422" lon="6.35922">
        <ele>1155.5</ele>
        <time>2018-08-10T07:29:09Z</time>
      </trkpt>
      <trkpt lat="44.34223" lon="6.35922">
        <ele>1155.6</ele>
        <time>2018-08-10T07:29:10Z</time>
      </trkpt>
      <trkpt lat="44.34227" lon="6.35925">
        <ele>1155.9</ele>
        <time>2018-08-10T07:29:11Z</time>
      </trkpt>
      <trkpt lat="44.34231" lon="6.35928">
        <ele>1156.1</ele>
        <time>2018-08-10T07:29:12Z</time>
      </trkpt>
      <trkpt lat="44.34235" lon="6.3593">
        <ele>1156.4</ele>
        <time>2018-08-10T07:29:13Z</time>
      </trkpt>
      <trkpt lat="44.34239" lon="6.35933">
        <ele>1156.8</ele>
        <time>2018-08-10T07:29:14Z</time>
      </trkpt>
      <trkpt lat="44.34242" lon="6.35935">
        <ele>1157</ele>
        <time>2018-08-10T07:29:15Z</time>
      </trkpt>
      <trkpt lat="44.34246" lon="6.35938">
        <ele>1157.2</ele>
        <time>2018-08-10T07:29:16Z</time>
      </trkpt>
      <trkpt lat="44.34248" lon="6.35941">
        <ele>1157.4</ele>
        <time>2018-08-10T07:29:17Z</time>
      </trkpt>
      <trkpt lat="44.34252" lon="6.35943">
        <ele>1157.7</ele>
        <time>2018-08-10T07:29:18Z</time>
      </trkpt>
      <trkpt lat="44.34256" lon="6.35945">
        <ele>1157.9</ele>
        <time>2018-08-10T07:29:19Z</time>
      </trkpt>
      <trkpt lat="44.34259" lon="6.35948">
        <ele>1158.2</ele>
        <time>2018-08-10T07:29:20Z</time>
      </trkpt>
      <trkpt lat="44.34263" lon="6.3595">
        <ele>1158.4</ele>
        <time>2018-08-10T07:29:21Z</time>
      </trkpt>
      <trkpt lat="44.34267" lon="6.3595">
        <ele>1158.7</ele>
        <time>2018-08-10T07:29:22Z</time>
      </trkpt>
      <trkpt lat="44.3427" lon="6.35951">
        <ele>1159</ele>
        <time>2018-08-10T07:29:23Z</time>
      </trkpt>
      <trkpt lat="44.34275" lon="6.35952">
        <ele>1158.9</ele>
        <time>2018-08-10T07:29:24Z</time>
      </trkpt>
      <trkpt lat="44.34279" lon="6.35953">
        <ele>1158.8</ele>
        <time>2018-08-10T07:29:25Z</time>
      </trkpt>
      <trkpt lat="44.34283" lon="6.35952">
        <ele>1158.7</ele>
        <time>2018-08-10T07:29:26Z</time>
      </trkpt>
      <trkpt lat="44.34287" lon="6.35953">
        <ele>1158.6</ele>
        <time>2018-08-10T07:29:27Z</time>
      </trkpt>
      <trkpt lat="44.34291" lon="6.35953">
        <ele>1158.6</ele>
        <time>2018-08-10T07:29:28Z</time>
      </trkpt>
      <trkpt lat="44.34295" lon="6.35954">
        <ele>1158.6</ele>
        <time>2018-08-10T07:29:29Z</time>
      </trkpt>
      <trkpt lat="44.34298" lon="6.35954">
        <ele>1158.5</ele>
        <time>2018-08-10T07:29:30Z</time>
      </trkpt>
      <trkpt lat="44.34302" lon="6.35954">
        <ele>1158.5</ele>
        <time>2018-08-10T07:29:31Z</time>
      </trkpt>
      <trkpt lat="44.34306" lon="6.35953">
        <ele>1158.5</ele>
        <time>2018-08-10T07:29:32Z</time>
      </trkpt>
      <trkpt lat="44.34309" lon="6.35954">
        <ele>1158.4</ele>
        <time>2018-08-10T07:29:33Z</time>
      </trkpt>
      <trkpt lat="44.34313" lon="6.35954">
        <ele>1158.4</ele>
        <time>2018-08-10T07:29:34Z</time>
      </trkpt>
      <trkpt lat="44.34316" lon="6.35954">
        <ele>1158.4</ele>
        <time>2018-08-10T07:29:35Z</time>
      </trkpt>
      <trkpt lat="44.34319" lon="6.35954">
        <ele>1158.3</ele>
        <time>2018-08-10T07:29:36Z</time>
      </trkpt>
      <trkpt lat="44.34323" lon="6.35955">
        <ele>1158.3</ele>
        <time>2018-08-10T07:29:37Z</time>
      </trkpt>
      <trkpt lat="44.34327" lon="6.35955">
        <ele>1158.3</ele>
        <time>2018-08-10T07:29:38Z</time>
      </trkpt>
      <trkpt lat="44.34331" lon="6.35956">
        <ele>1158.2</ele>
        <time>2018-08-10T07:29:39Z</time>
      </trkpt>
      <trkpt lat="44.34334" lon="6.35958">
        <ele>1158.2</ele>
        <time>2018-08-10T07:29:40Z</time>
      </trkpt>
      <trkpt lat="44.34338" lon="6.35961">
        <ele>1158.1</ele>
        <time>2018-08-10T07:29:41Z</time>
      </trkpt>
      <trkpt lat="44.34342" lon="6.35963">
        <ele>1158.1</ele>
        <time>2018-08-10T07:29:42Z</time>
      </trkpt>
      <trkpt lat="44.34345" lon="6.35966">
        <ele>1158</ele>
        <time>2018-08-10T07:29:43Z</time>
      </trkpt>
      <trkpt lat="44.34348" lon="6.35969">
        <ele>1158</ele>
        <time>2018-08-10T07:29:44Z</time>
      </trkpt>
      <trkpt lat="44.34352" lon="6.35971">
        <ele>1158</ele>
        <time>2018-08-10T07:29:45Z</time>
      </trkpt>
      <trkpt lat="44.34355" lon="6.35973">
        <ele>1157.9</ele>
        <time>2018-08-10T07:29:46Z</time>
      </trkpt>
      <trkpt lat="44.3436" lon="6.35974">
        <ele>1157.9</ele>
        <time>2018-08-10T07:29:47Z</time>
      </trkpt>
      <trkpt lat="44.34364" lon="6.35974">
        <ele>1157.8</ele>
        <time>2018-08-10T07:29:48Z</time>
      </trkpt>
      <trkpt lat="44.34368" lon="6.35971">
        <ele>1157.7</ele>
        <time>2018-08-10T07:29:49Z</time>
      </trkpt>
      <trkpt lat="44.34372" lon="6.35967">
        <ele>1157.6</ele>
        <time>2018-08-10T07:29:50Z</time>
      </trkpt>
      <trkpt lat="44.34374" lon="6.35963">
        <ele>1157.5</ele>
        <time>2018-08-10T07:29:51Z</time>
      </trkpt>
      <trkpt lat="44.34377" lon="6.35958">
        <ele>1157.4</ele>
        <time>2018-08-10T07:29:52Z</time>
      </trkpt>
      <trkpt lat="44.34379" lon="6.35953">
        <ele>1157.3</ele>
        <time>2018-08-10T07:29:53Z</time>
      </trkpt>
      <trkpt lat="44.34382" lon="6.35948">
        <ele>1157.2</ele>
        <time>2018-08-10T07:29:54Z</time>
      </trkpt>
      <trkpt lat="44.34383" lon="6.35943">
        <ele>1157.1</ele>
        <time>2018-08-10T07:29:55Z</time>
      </trkpt>
      <trkpt lat="44.34385" lon="6.35938">
        <ele>1157.1</ele>
        <time>2018-08-10T07:29:56Z</time>
      </trkpt>
      <trkpt lat="44.34386" lon="6.35933">
        <ele>1157</ele>
        <time>2018-08-10T07:29:57Z</time>
      </trkpt>
      <trkpt lat="44.34388" lon="6.35928">
        <ele>1156.9</ele>
        <time>2018-08-10T07:29:58Z</time>
      </trkpt>
      <trkpt lat="44.3439" lon="6.35923">
        <ele>1156.8</ele>
        <time>2018-08-10T07:29:59Z</time>
      </trkpt>
      <trkpt lat="44.3439" lon="6.35919">
        <ele>1156.7</ele>
        <time>2018-08-10T07:30:00Z</time>
      </trkpt>
      <trkpt lat="44.34392" lon="6.35914">
        <ele>1156.6</ele>
        <time>2018-08-10T07:30:01Z</time>
      </trkpt>
      <trkpt lat="44.34393" lon="6.35909">
        <ele>1156.5</ele>
        <time>2018-08-10T07:30:02Z</time>
      </trkpt>
      <trkpt lat="44.34395" lon="6.35904">
        <ele>1156.4</ele>
        <time>2018-08-10T07:30:03Z</time>
      </trkpt>
      <trkpt lat="44.34396" lon="6.35898">
        <ele>1156.3</ele>
        <time>2018-08-10T07:30:04Z</time>
      </trkpt>
      <trkpt lat="44.34398" lon="6.35893">
        <ele>1156.2</ele>
        <time>2018-08-10T07:30:05Z</time>
      </trkpt>
      <trkpt lat="44.344" lon="6.35889">
        <ele>1156.2</ele>
        <time>2018-08-10T07:30:06Z</time>
      </trkpt>
      <trkpt lat="44.34402" lon="6.35885">
        <ele>1156</ele>
        <time>2018-08-10T07:30:07Z</time>
      </trkpt>
      <trkpt lat="44.34404" lon="6.35882">
        <ele>1156</ele>
        <time>2018-08-10T07:30:08Z</time>
      </trkpt>
      <trkpt lat="44.34407" lon="6.35882">
        <ele>1156</ele>
        <time>2018-08-10T07:30:09Z</time>
      </trkpt>
      <trkpt lat="44.34413" lon="6.35884">
        <ele>1156</ele>
        <time>2018-08-10T07:30:11Z</time>
      </trkpt>
      <trkpt lat="44.34416" lon="6.35886">
        <ele>1156</ele>
        <time>2018-08-10T07:30:12Z</time>
      </trkpt>
      <trkpt lat="44.34419" lon="6.35889">
        <ele>1156</ele>
        <time>2018-08-10T07:30:13Z</time>
      </trkpt>
      <trkpt lat="44.34423" lon="6.35891">
        <ele>1156</ele>
        <time>2018-08-10T07:30:14Z</time>
      </trkpt>
      <trkpt lat="44.34426" lon="6.35893">
        <ele>1156</ele>
        <time>2018-08-10T07:30:15Z</time>
      </trkpt>
      <trkpt lat="44.34429" lon="6.35896">
        <ele>1156</ele>
        <time>2018-08-10T07:30:17Z</time>
      </trkpt>
      <trkpt lat="44.34432" lon="6.35894">
        <ele>1156</ele>
        <time>2018-08-10T07:30:22Z</time>
      </trkpt>
      <trkpt lat="44.34433" lon="6.35889">
        <ele>1156</ele>
        <time>2018-08-10T07:30:25Z</time>
      </trkpt>
      <trkpt lat="44.34433" lon="6.35885">
        <ele>1156</ele>
        <time>2018-08-10T07:30:33Z</time>
      </trkpt>
      <trkpt lat="44.34434" lon="6.35889">
        <ele>1156</ele>
        <time>2018-08-10T07:30:54Z</time>
      </trkpt>
      <trkpt lat="44.34432" lon="6.35892">
        <ele>1155.9</ele>
        <time>2018-08-10T07:30:58Z</time>
      </trkpt>
      <trkpt lat="44.34435" lon="6.35892">
        <ele>1155.9</ele>
        <time>2018-08-10T07:31:05Z</time>
      </trkpt>
      <trkpt lat="44.3444" lon="6.35892">
        <ele>1155.9</ele>
        <time>2018-08-10T07:31:07Z</time>
      </trkpt>
      <trkpt lat="44.34443" lon="6.35892">
        <ele>1155.9</ele>
        <time>2018-08-10T07:31:08Z</time>
      </trkpt>
      <trkpt lat="44.34446" lon="6.35892">
        <ele>1155.9</ele>
        <time>2018-08-10T07:31:09Z</time>
      </trkpt>
      <trkpt lat="44.34451" lon="6.35893">
        <ele>1155.8</ele>
        <time>2018-08-10T07:31:10Z</time>
      </trkpt>
      <trkpt lat="44.34454" lon="6.35892">
        <ele>1155.8</ele>
        <time>2018-08-10T07:31:11Z</time>
      </trkpt>
      <trkpt lat="44.34459" lon="6.35892">
        <ele>1155.8</ele>
        <time>2018-08-10T07:31:12Z</time>
      </trkpt>
      <trkpt lat="44.34463" lon="6.35892">
        <ele>1155.8</ele>
        <time>2018-08-10T07:31:13Z</time>
      </trkpt>
      <trkpt lat="44.34468" lon="6.35891">
        <ele>1155.8</ele>
        <time>2018-08-10T07:31:14Z</time>
      </trkpt>
      <trkpt lat="44.34472" lon="6.35891">
        <ele>1155.7</ele>
        <time>2018-08-10T07:31:15Z</time>
      </trkpt>
      <trkpt lat="44.34477" lon="6.3589">
        <ele>1155.7</ele>
        <time>2018-08-10T07:31:16Z</time>
      </trkpt>
      <trkpt lat="44.34482" lon="6.35891">
        <ele>1155.7</ele>
        <time>2018-08-10T07:31:17Z</time>
      </trkpt>
      <trkpt lat="44.34487" lon="6.3589">
        <ele>1155.7</ele>
        <time>2018-08-10T07:31:18Z</time>
      </trkpt>
      <trkpt lat="44.34492" lon="6.3589">
        <ele>1155.6</ele>
        <time>2018-08-10T07:31:19Z</time>
      </trkpt>
      <trkpt lat="44.34497" lon="6.3589">
        <ele>1155.6</ele>
        <time>2018-08-10T07:31:20Z</time>
      </trkpt>
      <trkpt lat="44.34501" lon="6.3589">
        <ele>1155.6</ele>
        <time>2018-08-10T07:31:21Z</time>
      </trkpt>
      <trkpt lat="44.34505" lon="6.35889">
        <ele>1155.6</ele>
        <time>2018-08-10T07:31:22Z</time>
      </trkpt>
      <trkpt lat="44.34509" lon="6.35888">
        <ele>1155.5</ele>
        <time>2018-08-10T07:31:23Z</time>
      </trkpt>
      <trkpt lat="44.34512" lon="6.35888">
        <ele>1155.5</ele>
        <time>2018-08-10T07:31:24Z</time>
      </trkpt>
      <trkpt lat="44.34515" lon="6.35888">
        <ele>1155.5</ele>
        <time>2018-08-10T07:31:25Z</time>
      </trkpt>
      <trkpt lat="44.34518" lon="6.35888">
        <ele>1155.5</ele>
        <time>2018-08-10T07:31:29Z</time>
      </trkpt>
      <trkpt lat="44.34516" lon="6.3589">
        <ele>1155.5</ele>
        <time>2018-08-10T07:31:34Z</time>
      </trkpt>
      <trkpt lat="44.34513" lon="6.35891">
        <ele>1155.5</ele>
        <time>2018-08-10T07:31:37Z</time>
      </trkpt>
      <trkpt lat="44.34517" lon="6.35891">
        <ele>1155.5</ele>
        <time>2018-08-10T07:32:06Z</time>
      </trkpt>
      <trkpt lat="44.3452" lon="6.35891">
        <ele>1155.4</ele>
        <time>2018-08-10T07:32:10Z</time>
      </trkpt>
      <trkpt lat="44.34523" lon="6.3589">
        <ele>1155.4</ele>
        <time>2018-08-10T07:32:12Z</time>
      </trkpt>
      <trkpt lat="44.34527" lon="6.35889">
        <ele>1155.4</ele>
        <time>2018-08-10T07:32:14Z</time>
      </trkpt>
      <trkpt lat="44.3453" lon="6.35889">
        <ele>1155.4</ele>
        <time>2018-08-10T07:32:15Z</time>
      </trkpt>
      <trkpt lat="44.34533" lon="6.35889">
        <ele>1155.4</ele>
        <time>2018-08-10T07:32:16Z</time>
      </trkpt>
      <trkpt lat="44.34537" lon="6.35889">
        <ele>1155.3</ele>
        <time>2018-08-10T07:32:17Z</time>
      </trkpt>
      <trkpt lat="44.34541" lon="6.35888">
        <ele>1155.3</ele>
        <time>2018-08-10T07:32:18Z</time>
      </trkpt>
      <trkpt lat="44.34546" lon="6.35888">
        <ele>1155.3</ele>
        <time>2018-08-10T07:32:19Z</time>
      </trkpt>
      <trkpt lat="44.3455" lon="6.35887">
        <ele>1155.3</ele>
        <time>2018-08-10T07:32:20Z</time>
      </trkpt>
      <trkpt lat="44.34554" lon="6.35886">
        <ele>1155.3</ele>
        <time>2018-08-10T07:32:21Z</time>
      </trkpt>
      <trkpt lat="44.34559" lon="6.35886">
        <ele>1155.2</ele>
        <time>2018-08-10T07:32:22Z</time>
      </trkpt>
      <trkpt lat="44.34563" lon="6.35885">
        <ele>1155.2</ele>
        <time>2018-08-10T07:32:23Z</time>
      </trkpt>
      <trkpt lat="44.34568" lon="6.35885">
        <ele>1155.2</ele>
        <time>2018-08-10T07:32:24Z</time>
      </trkpt>
      <trkpt lat="44.34572" lon="6.35885">
        <ele>1155.2</ele>
        <time>2018-08-10T07:32:25Z</time>
      </trkpt>
      <trkpt lat="44.34577" lon="6.35884">
        <ele>1155.1</ele>
        <time>2018-08-10T07:32:26Z</time>
      </trkpt>
      <trkpt lat="44.34581" lon="6.35884">
        <ele>1155.1</ele>
        <time>2018-08-10T07:32:27Z</time>
      </trkpt>
      <trkpt lat="44.34585" lon="6.35884">
        <ele>1155.1</ele>
        <time>2018-08-10T07:32:28Z</time>
      </trkpt>
      <trkpt lat="44.34588" lon="6.35884">
        <ele>1155.1</ele>
        <time>2018-08-10T07:32:29Z</time>
      </trkpt>
      <trkpt lat="44.34591" lon="6.35884">
        <ele>1155.1</ele>
        <time>2018-08-10T07:32:30Z</time>
      </trkpt>
      <trkpt lat="44.34594" lon="6.35885">
        <ele>1155</ele>
        <time>2018-08-10T07:32:31Z</time>
      </trkpt>
      <trkpt lat="44.346" lon="6.35885">
        <ele>1155</ele>
        <time>2018-08-10T07:32:33Z</time>
      </trkpt>
      <trkpt lat="44.34603" lon="6.35886">
        <ele>1155.1</ele>
        <time>2018-08-10T07:32:34Z</time>
      </trkpt>
      <trkpt lat="44.34606" lon="6.35886">
        <ele>1155.2</ele>
        <time>2018-08-10T07:32:35Z</time>
      </trkpt>
      <trkpt lat="44.34609" lon="6.35888">
        <ele>1155.4</ele>
        <time>2018-08-10T07:32:36Z</time>
      </trkpt>
      <trkpt lat="44.34612" lon="6.35889">
        <ele>1155.5</ele>
        <time>2018-08-10T07:32:37Z</time>
      </trkpt>
      <trkpt lat="44.34615" lon="6.35892">
        <ele>1155.7</ele>
        <time>2018-08-10T07:32:38Z</time>
      </trkpt>
      <trkpt lat="44.3462" lon="6.35892">
        <ele>1155.9</ele>
        <time>2018-08-10T07:32:39Z</time>
      </trkpt>
      <trkpt lat="44.34623" lon="6.35894">
        <ele>1156</ele>
        <time>2018-08-10T07:32:40Z</time>
      </trkpt>
      <trkpt lat="44.34626" lon="6.35896">
        <ele>1156.2</ele>
        <time>2018-08-10T07:32:41Z</time>
      </trkpt>
      <trkpt lat="44.34629" lon="6.35898">
        <ele>1156.3</ele>
        <time>2018-08-10T07:32:42Z</time>
      </trkpt>
      <trkpt lat="44.34633" lon="6.35899">
        <ele>1156.4</ele>
        <time>2018-08-10T07:32:43Z</time>
      </trkpt>
      <trkpt lat="44.34637" lon="6.35903">
        <ele>1156.6</ele>
        <time>2018-08-10T07:32:45Z</time>
      </trkpt>
      <trkpt lat="44.34641" lon="6.35906">
        <ele>1156.8</ele>
        <time>2018-08-10T07:32:46Z</time>
      </trkpt>
      <trkpt lat="44.34646" lon="6.35906">
        <ele>1156.9</ele>
        <time>2018-08-10T07:32:47Z</time>
      </trkpt>
      <trkpt lat="44.34651" lon="6.35907">
        <ele>1157</ele>
        <time>2018-08-10T07:32:48Z</time>
      </trkpt>
      <trkpt lat="44.34655" lon="6.35909">
        <ele>1157.1</ele>
        <time>2018-08-10T07:32:49Z</time>
      </trkpt>
      <trkpt lat="44.34662" lon="6.35911">
        <ele>1157.2</ele>
        <time>2018-08-10T07:32:50Z</time>
      </trkpt>
      <trkpt lat="44.34667" lon="6.35912">
        <ele>1157.3</ele>
        <time>2018-08-10T07:32:51Z</time>
      </trkpt>
      <trkpt lat="44.34672" lon="6.35914">
        <ele>1157.3</ele>
        <time>2018-08-10T07:32:52Z</time>
      </trkpt>
      <trkpt lat="44.34676" lon="6.35916">
        <ele>1157.3</ele>
        <time>2018-08-10T07:32:53Z</time>
      </trkpt>
      <trkpt lat="44.3468" lon="6.35918">
        <ele>1157.4</ele>
        <time>2018-08-10T07:32:54Z</time>
      </trkpt>
      <trkpt lat="44.34685" lon="6.35919">
        <ele>1157.4</ele>
        <time>2018-08-10T07:32:55Z</time>
      </trkpt>
      <trkpt lat="44.34688" lon="6.35921">
        <ele>1157.4</ele>
        <time>2018-08-10T07:32:56Z</time>
      </trkpt>
      <trkpt lat="44.34692" lon="6.35925">
        <ele>1157.4</ele>
        <time>2018-08-10T07:32:57Z</time>
      </trkpt>
      <trkpt lat="44.34695" lon="6.35927">
        <ele>1157.5</ele>
        <time>2018-08-10T07:32:58Z</time>
      </trkpt>
      <trkpt lat="44.34699" lon="6.35929">
        <ele>1157.5</ele>
        <time>2018-08-10T07:32:59Z</time>
      </trkpt>
      <trkpt lat="44.34701" lon="6.35929">
        <ele>1157.5</ele>
        <time>2018-08-10T07:33:00Z</time>
      </trkpt>
      <trkpt lat="44.34705" lon="6.3593">
        <ele>1157.6</ele>
        <time>2018-08-10T07:33:01Z</time>
      </trkpt>
      <trkpt lat="44.34708" lon="6.35931">
        <ele>1157.6</ele>
        <time>2018-08-10T07:33:02Z</time>
      </trkpt>
      <trkpt lat="44.34713" lon="6.35931">
        <ele>1157.8</ele>
        <time>2018-08-10T07:33:03Z</time>
      </trkpt>
      <trkpt lat="44.34718" lon="6.35932">
        <ele>1157.9</ele>
        <time>2018-08-10T07:33:04Z</time>
      </trkpt>
      <trkpt lat="44.34722" lon="6.35932">
        <ele>1158</ele>
        <time>2018-08-10T07:33:05Z</time>
      </trkpt>
      <trkpt lat="44.34726" lon="6.35932">
        <ele>1158.2</ele>
        <time>2018-08-10T07:33:06Z</time>
      </trkpt>
      <trkpt lat="44.3473" lon="6.35931">
        <ele>1158.3</ele>
        <time>2018-08-10T07:33:07Z</time>
      </trkpt>
      <trkpt lat="44.34734" lon="6.3593">
        <ele>1158.5</ele>
        <time>2018-08-10T07:33:08Z</time>
      </trkpt>
      <trkpt lat="44.34738" lon="6.35929">
        <ele>1158.7</ele>
        <time>2018-08-10T07:33:09Z</time>
      </trkpt>
      <trkpt lat="44.34742" lon="6.35928">
        <ele>1158.8</ele>
        <time>2018-08-10T07:33:10Z</time>
      </trkpt>
      <trkpt lat="44.34746" lon="6.35927">
        <ele>1159</ele>
        <time>2018-08-10T07:33:11Z</time>
      </trkpt>
      <trkpt lat="44.3475" lon="6.35926">
        <ele>1159.2</ele>
        <time>2018-08-10T07:33:12Z</time>
      </trkpt>
      <trkpt lat="44.34754" lon="6.35925">
        <ele>1159.4</ele>
        <time>2018-08-10T07:33:13Z</time>
      </trkpt>
      <trkpt lat="44.34758" lon="6.35925">
        <ele>1159.6</ele>
        <time>2018-08-10T07:33:14Z</time>
      </trkpt>
      <trkpt lat="44.34765" lon="6.35923">
        <ele>1159.8</ele>
        <time>2018-08-10T07:33:16Z</time>
      </trkpt>
      <trkpt lat="44.34769" lon="6.35922">
        <ele>1160</ele>
        <time>2018-08-10T07:33:17Z</time>
      </trkpt>
      <trkpt lat="44.34773" lon="6.3592">
        <ele>1160.1</ele>
        <time>2018-08-10T07:33:18Z</time>
      </trkpt>
      <trkpt lat="44.34777" lon="6.35919">
        <ele>1160.3</ele>
        <time>2018-08-10T07:33:19Z</time>
      </trkpt>
      <trkpt lat="44.34781" lon="6.35918">
        <ele>1160.5</ele>
        <time>2018-08-10T07:33:20Z</time>
      </trkpt>
      <trkpt lat="44.34785" lon="6.35917">
        <ele>1160.7</ele>
        <time>2018-08-10T07:33:21Z</time>
      </trkpt>
      <trkpt lat="44.34789" lon="6.35916">
        <ele>1160.8</ele>
        <time>2018-08-10T07:33:22Z</time>
      </trkpt>
      <trkpt lat="44.34793" lon="6.35915">
        <ele>1161</ele>
        <time>2018-08-10T07:33:23Z</time>
      </trkpt>
      <trkpt lat="44.34797" lon="6.35915">
        <ele>1161.1</ele>
        <time>2018-08-10T07:33:24Z</time>
      </trkpt>
      <trkpt lat="44.348" lon="6.35915">
        <ele>1161.3</ele>
        <time>2018-08-10T07:33:25Z</time>
      </trkpt>
      <trkpt lat="44.34804" lon="6.35914">
        <ele>1161.4</ele>
        <time>2018-08-10T07:33:26Z</time>
      </trkpt>
      <trkpt lat="44.34808" lon="6.35914">
        <ele>1161.5</ele>
        <time>2018-08-10T07:33:27Z</time>
      </trkpt>
      <trkpt lat="44.34812" lon="6.35913">
        <ele>1161.6</ele>
        <time>2018-08-10T07:33:28Z</time>
      </trkpt>
      <trkpt lat="44.34816" lon="6.35911">
        <ele>1161.7</ele>
        <time>2018-08-10T07:33:29Z</time>
      </trkpt>
      <trkpt lat="44.34819" lon="6.35912">
        <ele>1161.8</ele>
        <time>2018-08-10T07:33:30Z</time>
      </trkpt>
      <trkpt lat="44.34823" lon="6.35912">
        <ele>1161.8</ele>
        <time>2018-08-10T07:33:31Z</time>
      </trkpt>
      <trkpt lat="44.34826" lon="6.35913">
        <ele>1161.9</ele>
        <time>2018-08-10T07:33:32Z</time>
      </trkpt>
      <trkpt lat="44.34829" lon="6.35913">
        <ele>1161.9</ele>
        <time>2018-08-10T07:33:33Z</time>
      </trkpt>
      <trkpt lat="44.34832" lon="6.35916">
        <ele>1162</ele>
        <time>2018-08-10T07:33:34Z</time>
      </trkpt>
      <trkpt lat="44.34838" lon="6.35921">
        <ele>1162</ele>
        <time>2018-08-10T07:33:38Z</time>
      </trkpt>
      <trkpt lat="44.34841" lon="6.35921">
        <ele>1161.9</ele>
        <time>2018-08-10T07:33:39Z</time>
      </trkpt>
      <trkpt lat="44.34844" lon="6.35921">
        <ele>1161.9</ele>
        <time>2018-08-10T07:33:40Z</time>
      </trkpt>
      <trkpt lat="44.34848" lon="6.35921">
        <ele>1161.9</ele>
        <time>2018-08-10T07:33:42Z</time>
      </trkpt>
      <trkpt lat="44.34852" lon="6.35923">
        <ele>1161.8</ele>
        <time>2018-08-10T07:33:44Z</time>
      </trkpt>
      <trkpt lat="44.34856" lon="6.35924">
        <ele>1161.8</ele>
        <time>2018-08-10T07:33:45Z</time>
      </trkpt>
      <trkpt lat="44.34859" lon="6.35926">
        <ele>1161.8</ele>
        <time>2018-08-10T07:33:46Z</time>
      </trkpt>
      <trkpt lat="44.34864" lon="6.35928">
        <ele>1161.8</ele>
        <time>2018-08-10T07:33:48Z</time>
      </trkpt>
      <trkpt lat="44.34867" lon="6.35928">
        <ele>1161.7</ele>
        <time>2018-08-10T07:33:49Z</time>
      </trkpt>
      <trkpt lat="44.34873" lon="6.35927">
        <ele>1161.7</ele>
        <time>2018-08-10T07:33:51Z</time>
      </trkpt>
      <trkpt lat="44.34879" lon="6.35928">
        <ele>1161.7</ele>
        <time>2018-08-10T07:33:53Z</time>
      </trkpt>
      <trkpt lat="44.34884" lon="6.35931">
        <ele>1161.6</ele>
        <time>2018-08-10T07:33:55Z</time>
      </trkpt>
      <trkpt lat="44.34887" lon="6.35932">
        <ele>1161.6</ele>
        <time>2018-08-10T07:33:56Z</time>
      </trkpt>
      <trkpt lat="44.34891" lon="6.35932">
        <ele>1161.6</ele>
        <time>2018-08-10T07:33:58Z</time>
      </trkpt>
      <trkpt lat="44.34894" lon="6.35931">
        <ele>1161.6</ele>
        <time>2018-08-10T07:33:59Z</time>
      </trkpt>
      <trkpt lat="44.34897" lon="6.3593">
        <ele>1161.6</ele>
        <time>2018-08-10T07:34:00Z</time>
      </trkpt>
      <trkpt lat="44.349" lon="6.35928">
        <ele>1161.6</ele>
        <time>2018-08-10T07:34:01Z</time>
      </trkpt>
      <trkpt lat="44.34902" lon="6.35925">
        <ele>1161.6</ele>
        <time>2018-08-10T07:34:02Z</time>
      </trkpt>
      <trkpt lat="44.34905" lon="6.35923">
        <ele>1161.6</ele>
        <time>2018-08-10T07:34:03Z</time>
      </trkpt>
      <trkpt lat="44.34907" lon="6.35919">
        <ele>1161.6</ele>
        <time>2018-08-10T07:34:04Z</time>
      </trkpt>
      <trkpt lat="44.34909" lon="6.35915">
        <ele>1161.6</ele>
        <time>2018-08-10T07:34:05Z</time>
      </trkpt>
      <trkpt lat="44.34911" lon="6.3591">
        <ele>1161.7</ele>
        <time>2018-08-10T07:34:06Z</time>
      </trkpt>
      <trkpt lat="44.34914" lon="6.35905">
        <ele>1161.7</ele>
        <time>2018-08-10T07:34:07Z</time>
      </trkpt>
      <trkpt lat="44.34915" lon="6.359">
        <ele>1161.8</ele>
        <time>2018-08-10T07:34:08Z</time>
      </trkpt>
      <trkpt lat="44.34918" lon="6.35895">
        <ele>1161.9</ele>
        <time>2018-08-10T07:34:09Z</time>
      </trkpt>
      <trkpt lat="44.34921" lon="6.3589">
        <ele>1162.1</ele>
        <time>2018-08-10T07:34:10Z</time>
      </trkpt>
      <trkpt lat="44.34923" lon="6.35885">
        <ele>1162.2</ele>
        <time>2018-08-10T07:34:11Z</time>
      </trkpt>
      <trkpt lat="44.34924" lon="6.3588">
        <ele>1162.4</ele>
        <time>2018-08-10T07:34:12Z</time>
      </trkpt>
      <trkpt lat="44.34926" lon="6.35876">
        <ele>1162.5</ele>
        <time>2018-08-10T07:34:13Z</time>
      </trkpt>
      <trkpt lat="44.34927" lon="6.35872">
        <ele>1162.6</ele>
        <time>2018-08-10T07:34:14Z</time>
      </trkpt>
      <trkpt lat="44.3493" lon="6.35866">
        <ele>1162.7</ele>
        <time>2018-08-10T07:34:15Z</time>
      </trkpt>
      <trkpt lat="44.34932" lon="6.35862">
        <ele>1162.8</ele>
        <time>2018-08-10T07:34:16Z</time>
      </trkpt>
      <trkpt lat="44.34935" lon="6.35857">
        <ele>1162.9</ele>
        <time>2018-08-10T07:34:17Z</time>
      </trkpt>
      <trkpt lat="44.34935" lon="6.35853">
        <ele>1163</ele>
        <time>2018-08-10T07:34:18Z</time>
      </trkpt>
      <trkpt lat="44.34937" lon="6.35849">
        <ele>1163</ele>
        <time>2018-08-10T07:34:19Z</time>
      </trkpt>
      <trkpt lat="44.34939" lon="6.35844">
        <ele>1163.1</ele>
        <time>2018-08-10T07:34:20Z</time>
      </trkpt>
      <trkpt lat="44.3494" lon="6.3584">
        <ele>1163.1</ele>
        <time>2018-08-10T07:34:21Z</time>
      </trkpt>
      <trkpt lat="44.34942" lon="6.35836">
        <ele>1163.1</ele>
        <time>2018-08-10T07:34:22Z</time>
      </trkpt>
      <trkpt lat="44.34943" lon="6.35832">
        <ele>1163.1</ele>
        <time>2018-08-10T07:34:23Z</time>
      </trkpt>
      <trkpt lat="44.34945" lon="6.35828">
        <ele>1163.1</ele>
        <time>2018-08-10T07:34:24Z</time>
      </trkpt>
      <trkpt lat="44.34948" lon="6.35824">
        <ele>1163.1</ele>
        <time>2018-08-10T07:34:25Z</time>
      </trkpt>
      <trkpt lat="44.3495" lon="6.3582">
        <ele>1163.1</ele>
        <time>2018-08-10T07:34:26Z</time>
      </trkpt>
      <trkpt lat="44.34951" lon="6.35815">
        <ele>1163</ele>
        <time>2018-08-10T07:34:27Z</time>
      </trkpt>
      <trkpt lat="44.34952" lon="6.3581">
        <ele>1163</ele>
        <time>2018-08-10T07:34:28Z</time>
      </trkpt>
      <trkpt lat="44.34955" lon="6.35806">
        <ele>1163</ele>
        <time>2018-08-10T07:34:29Z</time>
      </trkpt>
      <trkpt lat="44.34957" lon="6.35799">
        <ele>1163</ele>
        <time>2018-08-10T07:34:31Z</time>
      </trkpt>
      <trkpt lat="44.34958" lon="6.35796">
        <ele>1163</ele>
        <time>2018-08-10T07:34:32Z</time>
      </trkpt>
      <trkpt lat="44.3496" lon="6.35792">
        <ele>1163</ele>
        <time>2018-08-10T07:34:33Z</time>
      </trkpt>
      <trkpt lat="44.34961" lon="6.35788">
        <ele>1163</ele>
        <time>2018-08-10T07:34:34Z</time>
      </trkpt>
      <trkpt lat="44.34964" lon="6.35781">
        <ele>1163</ele>
        <time>2018-08-10T07:34:36Z</time>
      </trkpt>
      <trkpt lat="44.34965" lon="6.35778">
        <ele>1163</ele>
        <time>2018-08-10T07:34:37Z</time>
      </trkpt>
      <trkpt lat="44.34967" lon="6.35774">
        <ele>1163</ele>
        <time>2018-08-10T07:34:38Z</time>
      </trkpt>
      <trkpt lat="44.34968" lon="6.3577">
        <ele>1163</ele>
        <time>2018-08-10T07:34:39Z</time>
      </trkpt>
      <trkpt lat="44.3497" lon="6.35766">
        <ele>1163</ele>
        <time>2018-08-10T07:34:41Z</time>
      </trkpt>
      <trkpt lat="44.34972" lon="6.35762">
        <ele>1163</ele>
        <time>2018-08-10T07:34:43Z</time>
      </trkpt>
      <trkpt lat="44.34973" lon="6.35757">
        <ele>1163</ele>
        <time>2018-08-10T07:34:45Z</time>
      </trkpt>
      <trkpt lat="44.34976" lon="6.35753">
        <ele>1163.3</ele>
        <time>2018-08-10T07:34:47Z</time>
      </trkpt>
      <trkpt lat="44.34977" lon="6.35748">
        <ele>1164.2</ele>
        <time>2018-08-10T07:34:49Z</time>
      </trkpt>
      <trkpt lat="44.34978" lon="6.35744">
        <ele>1164.9</ele>
        <time>2018-08-10T07:34:51Z</time>
      </trkpt>
      <trkpt lat="44.34979" lon="6.3574">
        <ele>1165.8</ele>
        <time>2018-08-10T07:34:53Z</time>
      </trkpt>
      <trkpt lat="44.34978" lon="6.35736">
        <ele>1166.5</ele>
        <time>2018-08-10T07:34:55Z</time>
      </trkpt>
      <trkpt lat="44.3498" lon="6.35732">
        <ele>1167.5</ele>
        <time>2018-08-10T07:34:57Z</time>
      </trkpt>
      <trkpt lat="44.34981" lon="6.35729">
        <ele>1168.4</ele>
        <time>2018-08-10T07:34:59Z</time>
      </trkpt>
      <trkpt lat="44.34983" lon="6.35725">
        <ele>1169.3</ele>
        <time>2018-08-10T07:35:01Z</time>
      </trkpt>
      <trkpt lat="44.34984" lon="6.35721">
        <ele>1170.3</ele>
        <time>2018-08-10T07:35:03Z</time>
      </trkpt>
      <trkpt lat="44.34987" lon="6.35719">
        <ele>1171.3</ele>
        <time>2018-08-10T07:35:05Z</time>
      </trkpt>
      <trkpt lat="44.34988" lon="6.35715">
        <ele>1172.4</ele>
        <time>2018-08-10T07:35:07Z</time>
      </trkpt>
      <trkpt lat="44.3499" lon="6.35712">
        <ele>1173.3</ele>
        <time>2018-08-10T07:35:09Z</time>
      </trkpt>
      <trkpt lat="44.34991" lon="6.35708">
        <ele>1174.4</ele>
        <time>2018-08-10T07:35:11Z</time>
      </trkpt>
      <trkpt lat="44.34992" lon="6.35704">
        <ele>1175.7</ele>
        <time>2018-08-10T07:35:13Z</time>
      </trkpt>
      <trkpt lat="44.34993" lon="6.35698">
        <ele>1177.5</ele>
        <time>2018-08-10T07:35:15Z</time>
      </trkpt>
      <trkpt lat="44.34993" lon="6.35689">
        <ele>1181.7</ele>
        <time>2018-08-10T07:35:17Z</time>
      </trkpt>
      <trkpt lat="44.34994" lon="6.35684">
        <ele>1185.3</ele>
        <time>2018-08-10T07:35:19Z</time>
      </trkpt>
      <trkpt lat="44.34996" lon="6.35681">
        <ele>1186.6</ele>
        <time>2018-08-10T07:35:21Z</time>
      </trkpt>
      <trkpt lat="44.34998" lon="6.35677">
        <ele>1187.8</ele>
        <time>2018-08-10T07:35:23Z</time>
      </trkpt>
      <trkpt lat="44.34999" lon="6.35674">
        <ele>1189</ele>
        <time>2018-08-10T07:35:26Z</time>
      </trkpt>
      <trkpt lat="44.34997" lon="6.3567">
        <ele>1189</ele>
        <time>2018-08-10T07:35:29Z</time>
      </trkpt>
      <trkpt lat="44.34996" lon="6.35665">
        <ele>1189</ele>
        <time>2018-08-10T07:35:33Z</time>
      </trkpt>
      <trkpt lat="44.34995" lon="6.3566">
        <ele>1189</ele>
        <time>2018-08-10T07:35:35Z</time>
      </trkpt>
      <trkpt lat="44.34993" lon="6.35654">
        <ele>1189</ele>
        <time>2018-08-10T07:35:37Z</time>
      </trkpt>
      <trkpt lat="44.34997" lon="6.35656">
        <ele>1189</ele>
        <time>2018-08-10T07:35:43Z</time>
      </trkpt>
      <trkpt lat="44.35" lon="6.35659">
        <ele>1189</ele>
        <time>2018-08-10T07:35:46Z</time>
      </trkpt>
      <trkpt lat="44.35003" lon="6.35662">
        <ele>1189</ele>
        <time>2018-08-10T07:35:49Z</time>
      </trkpt>
      <trkpt lat="44.35005" lon="6.35666">
        <ele>1189</ele>
        <time>2018-08-10T07:35:52Z</time>
      </trkpt>
      <trkpt lat="44.35002" lon="6.35668">
        <ele>1189</ele>
        <time>2018-08-10T07:35:56Z</time>
      </trkpt>
      <trkpt lat="44.35" lon="6.35663">
        <ele>1189</ele>
        <time>2018-08-10T07:36:03Z</time>
      </trkpt>
      <trkpt lat="44.34997" lon="6.35662">
        <ele>1189</ele>
        <time>2018-08-10T07:36:05Z</time>
      </trkpt>
      <trkpt lat="44.35" lon="6.35664">
        <ele>1189</ele>
        <time>2018-08-10T07:36:42Z</time>
      </trkpt>
      <trkpt lat="44.35003" lon="6.35666">
        <ele>1189</ele>
        <time>2018-08-10T07:36:45Z</time>
      </trkpt>
      <trkpt lat="44.35006" lon="6.35667">
        <ele>1189</ele>
        <time>2018-08-10T07:36:47Z</time>
      </trkpt>
      <trkpt lat="44.35009" lon="6.35669">
        <ele>1189</ele>
        <time>2018-08-10T07:36:50Z</time>
      </trkpt>
      <trkpt lat="44.35012" lon="6.35669">
        <ele>1189</ele>
        <time>2018-08-10T07:36:52Z</time>
      </trkpt>
      <trkpt lat="44.35015" lon="6.35671">
        <ele>1189</ele>
        <time>2018-08-10T07:36:54Z</time>
      </trkpt>
      <trkpt lat="44.35019" lon="6.35671">
        <ele>1189</ele>
        <time>2018-08-10T07:36:56Z</time>
      </trkpt>
      <trkpt lat="44.35027" lon="6.35673">
        <ele>1189</ele>
        <time>2018-08-10T07:36:58Z</time>
      </trkpt>
      <trkpt lat="44.3503" lon="6.35675">
        <ele>1190.7</ele>
        <time>2018-08-10T07:36:59Z</time>
      </trkpt>
      <trkpt lat="44.35033" lon="6.35676">
        <ele>1191.6</ele>
        <time>2018-08-10T07:37:00Z</time>
      </trkpt>
      <trkpt lat="44.35036" lon="6.35676">
        <ele>1192.4</ele>
        <time>2018-08-10T07:37:01Z</time>
      </trkpt>
      <trkpt lat="44.3504" lon="6.35676">
        <ele>1193.3</ele>
        <time>2018-08-10T07:37:03Z</time>
      </trkpt>
      <trkpt lat="44.35044" lon="6.35676">
        <ele>1194.5</ele>
        <time>2018-08-10T07:37:06Z</time>
      </trkpt>
      <trkpt lat="44.35047" lon="6.35675">
        <ele>1195.3</ele>
        <time>2018-08-10T07:37:08Z</time>
      </trkpt>
      <trkpt lat="44.35049" lon="6.35673">
        <ele>1196.1</ele>
        <time>2018-08-10T07:37:10Z</time>
      </trkpt>
      <trkpt lat="44.35052" lon="6.35672">
        <ele>1196.9</ele>
        <time>2018-08-10T07:37:13Z</time>
      </trkpt>
      <trkpt lat="44.35056" lon="6.3567">
        <ele>1197.9</ele>
        <time>2018-08-10T07:37:16Z</time>
      </trkpt>
      <trkpt lat="44.35058" lon="6.35671">
        <ele>1198.7</ele>
        <time>2018-08-10T07:37:17Z</time>
      </trkpt>
      <trkpt lat="44.35062" lon="6.35671">
        <ele>1199.6</ele>
        <time>2018-08-10T07:37:19Z</time>
      </trkpt>
      <trkpt lat="44.35064" lon="6.35669">
        <ele>1200.3</ele>
        <time>2018-08-10T07:37:21Z</time>
      </trkpt>
      <trkpt lat="44.35067" lon="6.35669">
        <ele>1201.1</ele>
        <time>2018-08-10T07:37:23Z</time>
      </trkpt>
      <trkpt lat="44.35071" lon="6.35668">
        <ele>1202.1</ele>
        <time>2018-08-10T07:37:25Z</time>
      </trkpt>
      <trkpt lat="44.35074" lon="6.35668">
        <ele>1202.9</ele>
        <time>2018-08-10T07:37:27Z</time>
      </trkpt>
      <trkpt lat="44.35077" lon="6.35667">
        <ele>1203.7</ele>
        <time>2018-08-10T07:37:29Z</time>
      </trkpt>
      <trkpt lat="44.35081" lon="6.35665">
        <ele>1204.7</ele>
        <time>2018-08-10T07:37:31Z</time>
      </trkpt>
      <trkpt lat="44.35083" lon="6.35662">
        <ele>1205.1</ele>
        <time>2018-08-10T07:37:32Z</time>
      </trkpt>
      <trkpt lat="44.35086" lon="6.3566">
        <ele>1205.5</ele>
        <time>2018-08-10T07:37:33Z</time>
      </trkpt>
      <trkpt lat="44.35089" lon="6.35655">
        <ele>1206.2</ele>
        <time>2018-08-10T07:37:35Z</time>
      </trkpt>
      <trkpt lat="44.35092" lon="6.35651">
        <ele>1206.8</ele>
        <time>2018-08-10T07:37:37Z</time>
      </trkpt>
      <trkpt lat="44.35095" lon="6.3565">
        <ele>1207.2</ele>
        <time>2018-08-10T07:37:39Z</time>
      </trkpt>
      <trkpt lat="44.35098" lon="6.35651">
        <ele>1207.7</ele>
        <time>2018-08-10T07:37:40Z</time>
      </trkpt>
      <trkpt lat="44.35103" lon="6.35651">
        <ele>1208.4</ele>
        <time>2018-08-10T07:37:42Z</time>
      </trkpt>
      <trkpt lat="44.35107" lon="6.3565">
        <ele>1209</ele>
        <time>2018-08-10T07:37:44Z</time>
      </trkpt>
      <trkpt lat="44.3511" lon="6.35648">
        <ele>1209</ele>
        <time>2018-08-10T07:37:46Z</time>
      </trkpt>
      <trkpt lat="44.35113" lon="6.35645">
        <ele>1209</ele>
        <time>2018-08-10T07:37:48Z</time>
      </trkpt>
      <trkpt lat="44.35117" lon="6.35644">
        <ele>1209</ele>
        <time>2018-08-10T07:37:50Z</time>
      </trkpt>
      <trkpt lat="44.35122" lon="6.35642">
        <ele>1209</ele>
        <time>2018-08-10T07:37:52Z</time>
      </trkpt>
      <trkpt lat="44.35124" lon="6.3564">
        <ele>1209</ele>
        <time>2018-08-10T07:37:54Z</time>
      </trkpt>
      <trkpt lat="44.35127" lon="6.35639">
        <ele>1209</ele>
        <time>2018-08-10T07:37:56Z</time>
      </trkpt>
      <trkpt lat="44.3513" lon="6.35639">
        <ele>1209</ele>
        <time>2018-08-10T07:38:03Z</time>
      </trkpt>
      <trkpt lat="44.35133" lon="6.35638">
        <ele>1209</ele>
        <time>2018-08-10T07:38:37Z</time>
      </trkpt>
      <trkpt lat="44.35134" lon="6.35634">
        <ele>1209</ele>
        <time>2018-08-10T07:38:39Z</time>
      </trkpt>
      <trkpt lat="44.35133" lon="6.35629">
        <ele>1209</ele>
        <time>2018-08-10T07:38:41Z</time>
      </trkpt>
      <trkpt lat="44.35134" lon="6.35625">
        <ele>1209</ele>
        <time>2018-08-10T07:38:43Z</time>
      </trkpt>
      <trkpt lat="44.35134" lon="6.3562">
        <ele>1209</ele>
        <time>2018-08-10T07:38:45Z</time>
      </trkpt>
      <trkpt lat="44.35136" lon="6.35616">
        <ele>1209</ele>
        <time>2018-08-10T07:38:47Z</time>
      </trkpt>
      <trkpt lat="44.35137" lon="6.35611">
        <ele>1209</ele>
        <time>2018-08-10T07:38:49Z</time>
      </trkpt>
      <trkpt lat="44.35138" lon="6.35606">
        <ele>1209</ele>
        <time>2018-08-10T07:38:51Z</time>
      </trkpt>
      <trkpt lat="44.35139" lon="6.35603">
        <ele>1209</ele>
        <time>2018-08-10T07:38:53Z</time>
      </trkpt>
      <trkpt lat="44.35143" lon="6.35599">
        <ele>1209</ele>
        <time>2018-08-10T07:38:55Z</time>
      </trkpt>
      <trkpt lat="44.35145" lon="6.35597">
        <ele>1209</ele>
        <time>2018-08-10T07:38:57Z</time>
      </trkpt>
      <trkpt lat="44.3515" lon="6.35596">
        <ele>1209</ele>
        <time>2018-08-10T07:38:58Z</time>
      </trkpt>
      <trkpt lat="44.35148" lon="6.35593">
        <ele>1209</ele>
        <time>2018-08-10T07:39:08Z</time>
      </trkpt>
      <trkpt lat="44.35146" lon="6.3559">
        <ele>1209</ele>
        <time>2018-08-10T07:39:19Z</time>
      </trkpt>
      <trkpt lat="44.35142" lon="6.3559">
        <ele>1209</ele>
        <time>2018-08-10T07:46:44Z</time>
      </trkpt>
      <trkpt lat="44.35141" lon="6.35586">
        <ele>1209</ele>
        <time>2018-08-10T07:46:47Z</time>
      </trkpt>
      <trkpt lat="44.35137" lon="6.35586">
        <ele>1209</ele>
        <time>2018-08-10T07:46:48Z</time>
      </trkpt>
      <trkpt lat="44.35139" lon="6.3559">
        <ele>1209</ele>
        <time>2018-08-10T07:46:53Z</time>
      </trkpt>
      <trkpt lat="44.35138" lon="6.35595">
        <ele>1209</ele>
        <time>2018-08-10T07:46:55Z</time>
      </trkpt>
      <trkpt lat="44.3514" lon="6.35598">
        <ele>1209</ele>
        <time>2018-08-10T07:47:03Z</time>
      </trkpt>
      <trkpt lat="44.35143" lon="6.35596">
        <ele>1209</ele>
        <time>2018-08-10T07:47:10Z</time>
      </trkpt>
      <trkpt lat="44.35146" lon="6.35596">
        <ele>1209</ele>
        <time>2018-08-10T07:47:12Z</time>
      </trkpt>
      <trkpt lat="44.3515" lon="6.35596">
        <ele>1209</ele>
        <time>2018-08-10T07:47:14Z</time>
      </trkpt>
      <trkpt lat="44.35154" lon="6.35597">
        <ele>1208.9</ele>
        <time>2018-08-10T07:47:16Z</time>
      </trkpt>
      <trkpt lat="44.35157" lon="6.35597">
        <ele>1208.9</ele>
        <time>2018-08-10T07:47:17Z</time>
      </trkpt>
      <trkpt lat="44.35161" lon="6.35597">
        <ele>1208.9</ele>
        <time>2018-08-10T07:47:18Z</time>
      </trkpt>
      <trkpt lat="44.35163" lon="6.35597">
        <ele>1208.8</ele>
        <time>2018-08-10T07:47:19Z</time>
      </trkpt>
      <trkpt lat="44.3517" lon="6.35598">
        <ele>1208.8</ele>
        <time>2018-08-10T07:47:21Z</time>
      </trkpt>
      <trkpt lat="44.35175" lon="6.35599">
        <ele>1208.8</ele>
        <time>2018-08-10T07:47:23Z</time>
      </trkpt>
      <trkpt lat="44.3518" lon="6.356">
        <ele>1208.8</ele>
        <time>2018-08-10T07:47:25Z</time>
      </trkpt>
      <trkpt lat="44.35183" lon="6.35601">
        <ele>1208.8</ele>
        <time>2018-08-10T07:47:26Z</time>
      </trkpt>
      <trkpt lat="44.35187" lon="6.35601">
        <ele>1208.8</ele>
        <time>2018-08-10T07:47:27Z</time>
      </trkpt>
      <trkpt lat="44.35191" lon="6.35603">
        <ele>1208.8</ele>
        <time>2018-08-10T07:47:29Z</time>
      </trkpt>
      <trkpt lat="44.35193" lon="6.35608">
        <ele>1208.8</ele>
        <time>2018-08-10T07:47:32Z</time>
      </trkpt>
      <trkpt lat="44.35196" lon="6.35611">
        <ele>1208.8</ele>
        <time>2018-08-10T07:47:35Z</time>
      </trkpt>
      <trkpt lat="44.352" lon="6.35613">
        <ele>1208.9</ele>
        <time>2018-08-10T07:47:37Z</time>
      </trkpt>
      <trkpt lat="44.35202" lon="6.35617">
        <ele>1209</ele>
        <time>2018-08-10T07:47:39Z</time>
      </trkpt>
      <trkpt lat="44.35202" lon="6.35621">
        <ele>1209</ele>
        <time>2018-08-10T07:47:41Z</time>
      </trkpt>
      <trkpt lat="44.35203" lon="6.35625">
        <ele>1209</ele>
        <time>2018-08-10T07:47:43Z</time>
      </trkpt>
      <trkpt lat="44.35205" lon="6.35628">
        <ele>1209</ele>
        <time>2018-08-10T07:47:45Z</time>
      </trkpt>
      <trkpt lat="44.35208" lon="6.35632">
        <ele>1209</ele>
        <time>2018-08-10T07:47:48Z</time>
      </trkpt>
      <trkpt lat="44.3521" lon="6.35635">
        <ele>1209</ele>
        <time>2018-08-10T07:47:51Z</time>
      </trkpt>
      <trkpt lat="44.35213" lon="6.35632">
        <ele>1209</ele>
        <time>2018-08-10T07:48:06Z</time>
      </trkpt>
      <trkpt lat="44.35208" lon="6.35637">
        <ele>1209</ele>
        <time>2018-08-10T07:50:53Z</time>
      </trkpt>
      <trkpt lat="44.35206" lon="6.35633">
        <ele>1209</ele>
        <time>2018-08-10T07:50:57Z</time>
      </trkpt>
      <trkpt lat="44.35207" lon="6.3563">
        <ele>1209</ele>
        <time>2018-08-10T07:51:04Z</time>
      </trkpt>
      <trkpt lat="44.3521" lon="6.35632">
        <ele>1209</ele>
        <time>2018-08-10T07:51:07Z</time>
      </trkpt>
      <trkpt lat="44.35213" lon="6.35634">
        <ele>1209</ele>
        <time>2018-08-10T07:51:11Z</time>
      </trkpt>
      <trkpt lat="44.35211" lon="6.3563">
        <ele>1209</ele>
        <time>2018-08-10T08:07:56Z</time>
      </trkpt>
      <trkpt lat="44.35212" lon="6.35633">
        <ele>1209</ele>
        <time>2018-08-10T08:08:02Z</time>
      </trkpt>
      <trkpt lat="44.35215" lon="6.35635">
        <ele>1209</ele>
        <time>2018-08-10T08:08:05Z</time>
      </trkpt>
      <trkpt lat="44.35217" lon="6.35636">
        <ele>1209</ele>
        <time>2018-08-10T08:08:20Z</time>
      </trkpt>
      <trkpt lat="44.35219" lon="6.35641">
        <ele>1209</ele>
        <time>2018-08-10T08:08:23Z</time>
      </trkpt>
      <trkpt lat="44.35222" lon="6.35645">
        <ele>1209</ele>
        <time>2018-08-10T08:08:25Z</time>
      </trkpt>
      <trkpt lat="44.35224" lon="6.35649">
        <ele>1208.2</ele>
        <time>2018-08-10T08:08:27Z</time>
      </trkpt>
      <trkpt lat="44.35226" lon="6.35652">
        <ele>1207</ele>
        <time>2018-08-10T08:08:29Z</time>
      </trkpt>
      <trkpt lat="44.35227" lon="6.35656">
        <ele>1206</ele>
        <time>2018-08-10T08:08:31Z</time>
      </trkpt>
      <trkpt lat="44.35229" lon="6.35661">
        <ele>1204.5</ele>
        <time>2018-08-10T08:08:34Z</time>
      </trkpt>
      <trkpt lat="44.3523" lon="6.35664">
        <ele>1203.4</ele>
        <time>2018-08-10T08:08:36Z</time>
      </trkpt>
      <trkpt lat="44.35233" lon="6.35667">
        <ele>1202.2</ele>
        <time>2018-08-10T08:08:38Z</time>
      </trkpt>
      <trkpt lat="44.35235" lon="6.35671">
        <ele>1201</ele>
        <time>2018-08-10T08:08:40Z</time>
      </trkpt>
      <trkpt lat="44.35237" lon="6.35675">
        <ele>1199.6</ele>
        <time>2018-08-10T08:08:42Z</time>
      </trkpt>
      <trkpt lat="44.35237" lon="6.35681">
        <ele>1198.2</ele>
        <time>2018-08-10T08:08:44Z</time>
      </trkpt>
      <trkpt lat="44.35237" lon="6.35685">
        <ele>1197</ele>
        <time>2018-08-10T08:08:46Z</time>
      </trkpt>
      <trkpt lat="44.35236" lon="6.3569">
        <ele>1197</ele>
        <time>2018-08-10T08:08:48Z</time>
      </trkpt>
      <trkpt lat="44.35236" lon="6.35696">
        <ele>1197</ele>
        <time>2018-08-10T08:08:50Z</time>
      </trkpt>
      <trkpt lat="44.35236" lon="6.357">
        <ele>1197</ele>
        <time>2018-08-10T08:08:52Z</time>
      </trkpt>
      <trkpt lat="44.35235" lon="6.35704">
        <ele>1197</ele>
        <time>2018-08-10T08:08:56Z</time>
      </trkpt>
      <trkpt lat="44.35236" lon="6.35709">
        <ele>1197</ele>
        <time>2018-08-10T08:08:59Z</time>
      </trkpt>
      <trkpt lat="44.35235" lon="6.35715">
        <ele>1197</ele>
        <time>2018-08-10T08:09:02Z</time>
      </trkpt>
      <trkpt lat="44.35232" lon="6.35719">
        <ele>1197</ele>
        <time>2018-08-10T08:09:05Z</time>
      </trkpt>
      <trkpt lat="44.35231" lon="6.35723">
        <ele>1197</ele>
        <time>2018-08-10T08:09:07Z</time>
      </trkpt>
      <trkpt lat="44.35228" lon="6.35728">
        <ele>1197</ele>
        <time>2018-08-10T08:09:10Z</time>
      </trkpt>
      <trkpt lat="44.35225" lon="6.35734">
        <ele>1196.9</ele>
        <time>2018-08-10T08:09:12Z</time>
      </trkpt>
      <trkpt lat="44.35222" lon="6.35739">
        <ele>1196.3</ele>
        <time>2018-08-10T08:09:14Z</time>
      </trkpt>
      <trkpt lat="44.35219" lon="6.35744">
        <ele>1195.7</ele>
        <time>2018-08-10T08:09:16Z</time>
      </trkpt>
      <trkpt lat="44.35217" lon="6.35749">
        <ele>1195.2</ele>
        <time>2018-08-10T08:09:18Z</time>
      </trkpt>
      <trkpt lat="44.35214" lon="6.35755">
        <ele>1194.6</ele>
        <time>2018-08-10T08:09:20Z</time>
      </trkpt>
      <trkpt lat="44.35211" lon="6.35757">
        <ele>1194.2</ele>
        <time>2018-08-10T08:09:21Z</time>
      </trkpt>
      <trkpt lat="44.35209" lon="6.35763">
        <ele>1193.6</ele>
        <time>2018-08-10T08:09:23Z</time>
      </trkpt>
      <trkpt lat="44.35206" lon="6.35768">
        <ele>1193</ele>
        <time>2018-08-10T08:09:25Z</time>
      </trkpt>
      <trkpt lat="44.35204" lon="6.35772">
        <ele>1192.7</ele>
        <time>2018-08-10T08:09:26Z</time>
      </trkpt>
      <trkpt lat="44.35202" lon="6.35777">
        <ele>1192.1</ele>
        <time>2018-08-10T08:09:27Z</time>
      </trkpt>
      <trkpt lat="44.352" lon="6.35781">
        <ele>1192</ele>
        <time>2018-08-10T08:09:28Z</time>
      </trkpt>
      <trkpt lat="44.35198" lon="6.35786">
        <ele>1192</ele>
        <time>2018-08-10T08:09:29Z</time>
      </trkpt>
      <trkpt lat="44.35195" lon="6.35789">
        <ele>1192</ele>
        <time>2018-08-10T08:09:30Z</time>
      </trkpt>
      <trkpt lat="44.35194" lon="6.35794">
        <ele>1192.1</ele>
        <time>2018-08-10T08:09:31Z</time>
      </trkpt>
      <trkpt lat="44.35192" lon="6.35798">
        <ele>1192.1</ele>
        <time>2018-08-10T08:09:32Z</time>
      </trkpt>
      <trkpt lat="44.35189" lon="6.35802">
        <ele>1192.1</ele>
        <time>2018-08-10T08:09:33Z</time>
      </trkpt>
      <trkpt lat="44.35188" lon="6.35806">
        <ele>1192.1</ele>
        <time>2018-08-10T08:09:34Z</time>
      </trkpt>
      <trkpt lat="44.35186" lon="6.3581">
        <ele>1192.1</ele>
        <time>2018-08-10T08:09:35Z</time>
      </trkpt>
      <trkpt lat="44.35184" lon="6.35813">
        <ele>1192.1</ele>
        <time>2018-08-10T08:09:36Z</time>
      </trkpt>
      <trkpt lat="44.35182" lon="6.35817">
        <ele>1192.2</ele>
        <time>2018-08-10T08:09:37Z</time>
      </trkpt>
      <trkpt lat="44.3518" lon="6.3582">
        <ele>1192.2</ele>
        <time>2018-08-10T08:09:38Z</time>
      </trkpt>
      <trkpt lat="44.35177" lon="6.35825">
        <ele>1192.2</ele>
        <time>2018-08-10T08:09:39Z</time>
      </trkpt>
      <trkpt lat="44.35175" lon="6.35832">
        <ele>1192.2</ele>
        <time>2018-08-10T08:09:41Z</time>
      </trkpt>
      <trkpt lat="44.35173" lon="6.35835">
        <ele>1192.2</ele>
        <time>2018-08-10T08:09:42Z</time>
      </trkpt>
      <trkpt lat="44.35171" lon="6.3584">
        <ele>1192.2</ele>
        <time>2018-08-10T08:09:43Z</time>
      </trkpt>
      <trkpt lat="44.35169" lon="6.35846">
        <ele>1192.3</ele>
        <time>2018-08-10T08:09:45Z</time>
      </trkpt>
      <trkpt lat="44.35167" lon="6.35852">
        <ele>1192.3</ele>
        <time>2018-08-10T08:09:47Z</time>
      </trkpt>
      <trkpt lat="44.35165" lon="6.35856">
        <ele>1192.3</ele>
        <time>2018-08-10T08:09:49Z</time>
      </trkpt>
      <trkpt lat="44.35163" lon="6.3586">
        <ele>1192.3</ele>
        <time>2018-08-10T08:09:52Z</time>
      </trkpt>
      <trkpt lat="44.35161" lon="6.35865">
        <ele>1192.3</ele>
        <time>2018-08-10T08:09:58Z</time>
      </trkpt>
      <trkpt lat="44.35157" lon="6.3587">
        <ele>1192.3</ele>
        <time>2018-08-10T08:10:00Z</time>
      </trkpt>
      <trkpt lat="44.35155" lon="6.35873">
        <ele>1192.3</ele>
        <time>2018-08-10T08:10:01Z</time>
      </trkpt>
      <trkpt lat="44.35154" lon="6.35877">
        <ele>1192.4</ele>
        <time>2018-08-10T08:10:02Z</time>
      </trkpt>
      <trkpt lat="44.35152" lon="6.35881">
        <ele>1192.4</ele>
        <time>2018-08-10T08:10:03Z</time>
      </trkpt>
      <trkpt lat="44.3515" lon="6.35885">
        <ele>1192.4</ele>
        <time>2018-08-10T08:10:04Z</time>
      </trkpt>
      <trkpt lat="44.35147" lon="6.3589">
        <ele>1192.4</ele>
        <time>2018-08-10T08:10:05Z</time>
      </trkpt>
      <trkpt lat="44.35145" lon="6.35894">
        <ele>1192.4</ele>
        <time>2018-08-10T08:10:06Z</time>
      </trkpt>
      <trkpt lat="44.35142" lon="6.35899">
        <ele>1192.4</ele>
        <time>2018-08-10T08:10:07Z</time>
      </trkpt>
      <trkpt lat="44.3514" lon="6.35903">
        <ele>1192.5</ele>
        <time>2018-08-10T08:10:08Z</time>
      </trkpt>
      <trkpt lat="44.35138" lon="6.35908">
        <ele>1192.5</ele>
        <time>2018-08-10T08:10:09Z</time>
      </trkpt>
      <trkpt lat="44.35135" lon="6.35912">
        <ele>1192.5</ele>
        <time>2018-08-10T08:10:10Z</time>
      </trkpt>
      <trkpt lat="44.35133" lon="6.35917">
        <ele>1192.5</ele>
        <time>2018-08-10T08:10:11Z</time>
      </trkpt>
      <trkpt lat="44.3513" lon="6.35921">
        <ele>1192.5</ele>
        <time>2018-08-10T08:10:12Z</time>
      </trkpt>
      <trkpt lat="44.35128" lon="6.35925">
        <ele>1192.5</ele>
        <time>2018-08-10T08:10:13Z</time>
      </trkpt>
      <trkpt lat="44.35125" lon="6.3593">
        <ele>1192.5</ele>
        <time>2018-08-10T08:10:14Z</time>
      </trkpt>
      <trkpt lat="44.35123" lon="6.35935">
        <ele>1192.6</ele>
        <time>2018-08-10T08:10:15Z</time>
      </trkpt>
      <trkpt lat="44.3512" lon="6.3594">
        <ele>1192.6</ele>
        <time>2018-08-10T08:10:16Z</time>
      </trkpt>
      <trkpt lat="44.35118" lon="6.35944">
        <ele>1192.6</ele>
        <time>2018-08-10T08:10:17Z</time>
      </trkpt>
      <trkpt lat="44.35116" lon="6.35949">
        <ele>1192.6</ele>
        <time>2018-08-10T08:10:18Z</time>
      </trkpt>
      <trkpt lat="44.35115" lon="6.35953">
        <ele>1192.6</ele>
        <time>2018-08-10T08:10:19Z</time>
      </trkpt>
      <trkpt lat="44.35113" lon="6.35957">
        <ele>1192.6</ele>
        <time>2018-08-10T08:10:20Z</time>
      </trkpt>
      <trkpt lat="44.35111" lon="6.35961">
        <ele>1192.7</ele>
        <time>2018-08-10T08:10:21Z</time>
      </trkpt>
      <trkpt lat="44.3511" lon="6.35965">
        <ele>1192.7</ele>
        <time>2018-08-10T08:10:22Z</time>
      </trkpt>
      <trkpt lat="44.3511" lon="6.35969">
        <ele>1192.7</ele>
        <time>2018-08-10T08:10:23Z</time>
      </trkpt>
      <trkpt lat="44.35109" lon="6.35973">
        <ele>1192.7</ele>
        <time>2018-08-10T08:10:24Z</time>
      </trkpt>
      <trkpt lat="44.35109" lon="6.35977">
        <ele>1192.7</ele>
        <time>2018-08-10T08:10:25Z</time>
      </trkpt>
      <trkpt lat="44.35108" lon="6.35981">
        <ele>1192.7</ele>
        <time>2018-08-10T08:10:26Z</time>
      </trkpt>
      <trkpt lat="44.35108" lon="6.35986">
        <ele>1192.7</ele>
        <time>2018-08-10T08:10:27Z</time>
      </trkpt>
      <trkpt lat="44.35108" lon="6.35992">
        <ele>1192.8</ele>
        <time>2018-08-10T08:10:28Z</time>
      </trkpt>
      <trkpt lat="44.35108" lon="6.35998">
        <ele>1192.8</ele>
        <time>2018-08-10T08:10:29Z</time>
      </trkpt>
      <trkpt lat="44.35108" lon="6.36004">
        <ele>1192.9</ele>
        <time>2018-08-10T08:10:30Z</time>
      </trkpt>
      <trkpt lat="44.3511" lon="6.3601">
        <ele>1192.9</ele>
        <time>2018-08-10T08:10:31Z</time>
      </trkpt>
      <trkpt lat="44.35111" lon="6.36016">
        <ele>1193</ele>
        <time>2018-08-10T08:10:32Z</time>
      </trkpt>
      <trkpt lat="44.35112" lon="6.36022">
        <ele>1193.1</ele>
        <time>2018-08-10T08:10:33Z</time>
      </trkpt>
      <trkpt lat="44.35113" lon="6.36029">
        <ele>1193.2</ele>
        <time>2018-08-10T08:10:34Z</time>
      </trkpt>
      <trkpt lat="44.35115" lon="6.36035">
        <ele>1193.4</ele>
        <time>2018-08-10T08:10:35Z</time>
      </trkpt>
      <trkpt lat="44.35116" lon="6.36042">
        <ele>1193.6</ele>
        <time>2018-08-10T08:10:36Z</time>
      </trkpt>
      <trkpt lat="44.35118" lon="6.36048">
        <ele>1193.7</ele>
        <time>2018-08-10T08:10:37Z</time>
      </trkpt>
      <trkpt lat="44.35119" lon="6.36054">
        <ele>1193.9</ele>
        <time>2018-08-10T08:10:38Z</time>
      </trkpt>
      <trkpt lat="44.3512" lon="6.36059">
        <ele>1194.1</ele>
        <time>2018-08-10T08:10:39Z</time>
      </trkpt>
      <trkpt lat="44.35122" lon="6.36065">
        <ele>1194.2</ele>
        <time>2018-08-10T08:10:40Z</time>
      </trkpt>
      <trkpt lat="44.35123" lon="6.36071">
        <ele>1194.4</ele>
        <time>2018-08-10T08:10:41Z</time>
      </trkpt>
      <trkpt lat="44.35124" lon="6.36077">
        <ele>1194.6</ele>
        <time>2018-08-10T08:10:42Z</time>
      </trkpt>
      <trkpt lat="44.35125" lon="6.36083">
        <ele>1194.7</ele>
        <time>2018-08-10T08:10:43Z</time>
      </trkpt>
      <trkpt lat="44.35126" lon="6.3609">
        <ele>1194.9</ele>
        <time>2018-08-10T08:10:44Z</time>
      </trkpt>
      <trkpt lat="44.35127" lon="6.36095">
        <ele>1195</ele>
        <time>2018-08-10T08:10:45Z</time>
      </trkpt>
      <trkpt lat="44.35128" lon="6.36101">
        <ele>1195</ele>
        <time>2018-08-10T08:10:46Z</time>
      </trkpt>
      <trkpt lat="44.35128" lon="6.36106">
        <ele>1195.1</ele>
        <time>2018-08-10T08:10:47Z</time>
      </trkpt>
      <trkpt lat="44.35127" lon="6.36112">
        <ele>1195.1</ele>
        <time>2018-08-10T08:10:48Z</time>
      </trkpt>
      <trkpt lat="44.35126" lon="6.36119">
        <ele>1195.7</ele>
        <time>2018-08-10T08:10:49Z</time>
      </trkpt>
      <trkpt lat="44.35125" lon="6.36126">
        <ele>1195.9</ele>
        <time>2018-08-10T08:10:50Z</time>
      </trkpt>
      <trkpt lat="44.35123" lon="6.36131">
        <ele>1195.9</ele>
        <time>2018-08-10T08:10:51Z</time>
      </trkpt>
      <trkpt lat="44.35121" lon="6.36136">
        <ele>1195.8</ele>
        <time>2018-08-10T08:10:52Z</time>
      </trkpt>
      <trkpt lat="44.35119" lon="6.36142">
        <ele>1196.2</ele>
        <time>2018-08-10T08:10:53Z</time>
      </trkpt>
      <trkpt lat="44.35116" lon="6.36146">
        <ele>1196</ele>
        <time>2018-08-10T08:10:54Z</time>
      </trkpt>
      <trkpt lat="44.35112" lon="6.36151">
        <ele>1195.3</ele>
        <time>2018-08-10T08:10:55Z</time>
      </trkpt>
      <trkpt lat="44.35109" lon="6.36155">
        <ele>1195.1</ele>
        <time>2018-08-10T08:10:56Z</time>
      </trkpt>
      <trkpt lat="44.35106" lon="6.3616">
        <ele>1195</ele>
        <time>2018-08-10T08:10:57Z</time>
      </trkpt>
      <trkpt lat="44.35104" lon="6.36164">
        <ele>1194.8</ele>
        <time>2018-08-10T08:10:58Z</time>
      </trkpt>
      <trkpt lat="44.351" lon="6.36169">
        <ele>1194.6</ele>
        <time>2018-08-10T08:10:59Z</time>
      </trkpt>
      <trkpt lat="44.35098" lon="6.36174">
        <ele>1194.5</ele>
        <time>2018-08-10T08:11:00Z</time>
      </trkpt>
      <trkpt lat="44.35096" lon="6.36179">
        <ele>1194.4</ele>
        <time>2018-08-10T08:11:01Z</time>
      </trkpt>
      <trkpt lat="44.35093" lon="6.36184">
        <ele>1194.2</ele>
        <time>2018-08-10T08:11:02Z</time>
      </trkpt>
      <trkpt lat="44.35091" lon="6.36189">
        <ele>1194.1</ele>
        <time>2018-08-10T08:11:03Z</time>
      </trkpt>
      <trkpt lat="44.35089" lon="6.36195">
        <ele>1194</ele>
        <time>2018-08-10T08:11:04Z</time>
      </trkpt>
      <trkpt lat="44.35088" lon="6.36201">
        <ele>1193.9</ele>
        <time>2018-08-10T08:11:05Z</time>
      </trkpt>
      <trkpt lat="44.35087" lon="6.36207">
        <ele>1193.8</ele>
        <time>2018-08-10T08:11:06Z</time>
      </trkpt>
      <trkpt lat="44.35087" lon="6.36214">
        <ele>1193.7</ele>
        <time>2018-08-10T08:11:07Z</time>
      </trkpt>
      <trkpt lat="44.35087" lon="6.3622">
        <ele>1193.5</ele>
        <time>2018-08-10T08:11:08Z</time>
      </trkpt>
      <trkpt lat="44.35087" lon="6.36227">
        <ele>1193.4</ele>
        <time>2018-08-10T08:11:09Z</time>
      </trkpt>
      <trkpt lat="44.35088" lon="6.36233">
        <ele>1193.3</ele>
        <time>2018-08-10T08:11:10Z</time>
      </trkpt>
      <trkpt lat="44.35089" lon="6.3624">
        <ele>1193.2</ele>
        <time>2018-08-10T08:11:11Z</time>
      </trkpt>
      <trkpt lat="44.35089" lon="6.36247">
        <ele>1193.1</ele>
        <time>2018-08-10T08:11:12Z</time>
      </trkpt>
      <trkpt lat="44.3509" lon="6.36253">
        <ele>1193</ele>
        <time>2018-08-10T08:11:13Z</time>
      </trkpt>
      <trkpt lat="44.35091" lon="6.36259">
        <ele>1192.8</ele>
        <time>2018-08-10T08:11:14Z</time>
      </trkpt>
      <trkpt lat="44.35091" lon="6.36265">
        <ele>1192.7</ele>
        <time>2018-08-10T08:11:15Z</time>
      </trkpt>
      <trkpt lat="44.35093" lon="6.36271">
        <ele>1192.6</ele>
        <time>2018-08-10T08:11:16Z</time>
      </trkpt>
      <trkpt lat="44.35094" lon="6.36277">
        <ele>1192.5</ele>
        <time>2018-08-10T08:11:17Z</time>
      </trkpt>
      <trkpt lat="44.35094" lon="6.36283">
        <ele>1192.4</ele>
        <time>2018-08-10T08:11:18Z</time>
      </trkpt>
      <trkpt lat="44.35095" lon="6.36289">
        <ele>1192.3</ele>
        <time>2018-08-10T08:11:19Z</time>
      </trkpt>
      <trkpt lat="44.35096" lon="6.36296">
        <ele>1192.2</ele>
        <time>2018-08-10T08:11:20Z</time>
      </trkpt>
      <trkpt lat="44.35096" lon="6.36303">
        <ele>1192.1</ele>
        <time>2018-08-10T08:11:21Z</time>
      </trkpt>
      <trkpt lat="44.35097" lon="6.36309">
        <ele>1192</ele>
        <time>2018-08-10T08:11:22Z</time>
      </trkpt>
      <trkpt lat="44.35099" lon="6.36315">
        <ele>1191.9</ele>
        <time>2018-08-10T08:11:23Z</time>
      </trkpt>
      <trkpt lat="44.35099" lon="6.36321">
        <ele>1191.8</ele>
        <time>2018-08-10T08:11:24Z</time>
      </trkpt>
      <trkpt lat="44.351" lon="6.36328">
        <ele>1191.7</ele>
        <time>2018-08-10T08:11:25Z</time>
      </trkpt>
      <trkpt lat="44.351" lon="6.36334">
        <ele>1191.7</ele>
        <time>2018-08-10T08:11:26Z</time>
      </trkpt>
      <trkpt lat="44.35101" lon="6.36341">
        <ele>1191.7</ele>
        <time>2018-08-10T08:11:27Z</time>
      </trkpt>
      <trkpt lat="44.351" lon="6.36348">
        <ele>1191.6</ele>
        <time>2018-08-10T08:11:28Z</time>
      </trkpt>
      <trkpt lat="44.35099" lon="6.36353">
        <ele>1191.7</ele>
        <time>2018-08-10T08:11:29Z</time>
      </trkpt>
      <trkpt lat="44.35098" lon="6.36359">
        <ele>1191.7</ele>
        <time>2018-08-10T08:11:30Z</time>
      </trkpt>
      <trkpt lat="44.35096" lon="6.36364">
        <ele>1191.8</ele>
        <time>2018-08-10T08:11:31Z</time>
      </trkpt>
      <trkpt lat="44.35094" lon="6.36368">
        <ele>1191.8</ele>
        <time>2018-08-10T08:11:32Z</time>
      </trkpt>
      <trkpt lat="44.35091" lon="6.36373">
        <ele>1191.9</ele>
        <time>2018-08-10T08:11:33Z</time>
      </trkpt>
      <trkpt lat="44.35088" lon="6.36376">
        <ele>1192</ele>
        <time>2018-08-10T08:11:34Z</time>
      </trkpt>
      <trkpt lat="44.35084" lon="6.3638">
        <ele>1192</ele>
        <time>2018-08-10T08:11:35Z</time>
      </trkpt>
      <trkpt lat="44.3508" lon="6.36383">
        <ele>1192.1</ele>
        <time>2018-08-10T08:11:36Z</time>
      </trkpt>
      <trkpt lat="44.35075" lon="6.36385">
        <ele>1192.1</ele>
        <time>2018-08-10T08:11:37Z</time>
      </trkpt>
      <trkpt lat="44.35071" lon="6.36387">
        <ele>1192.1</ele>
        <time>2018-08-10T08:11:38Z</time>
      </trkpt>
      <trkpt lat="44.35067" lon="6.36388">
        <ele>1192.1</ele>
        <time>2018-08-10T08:11:39Z</time>
      </trkpt>
      <trkpt lat="44.35062" lon="6.36387">
        <ele>1192.1</ele>
        <time>2018-08-10T08:11:41Z</time>
      </trkpt>
      <trkpt lat="44.3506" lon="6.36388">
        <ele>1192.1</ele>
        <time>2018-08-10T08:11:43Z</time>
      </trkpt>
      <trkpt lat="44.35056" lon="6.36389">
        <ele>1192</ele>
        <time>2018-08-10T08:11:45Z</time>
      </trkpt>
      <trkpt lat="44.35054" lon="6.36395">
        <ele>1192</ele>
        <time>2018-08-10T08:11:47Z</time>
      </trkpt>
      <trkpt lat="44.35058" lon="6.36395">
        <ele>1192</ele>
        <time>2018-08-10T08:11:48Z</time>
      </trkpt>
      <trkpt lat="44.35061" lon="6.36395">
        <ele>1192.1</ele>
        <time>2018-08-10T08:11:49Z</time>
      </trkpt>
      <trkpt lat="44.35065" lon="6.36395">
        <ele>1192.1</ele>
        <time>2018-08-10T08:11:50Z</time>
      </trkpt>
      <trkpt lat="44.35069" lon="6.36396">
        <ele>1192.1</ele>
        <time>2018-08-10T08:11:51Z</time>
      </trkpt>
      <trkpt lat="44.35073" lon="6.36396">
        <ele>1192.1</ele>
        <time>2018-08-10T08:11:52Z</time>
      </trkpt>
      <trkpt lat="44.35077" lon="6.36394">
        <ele>1192.1</ele>
        <time>2018-08-10T08:11:53Z</time>
      </trkpt>
      <trkpt lat="44.35081" lon="6.36394">
        <ele>1192.1</ele>
        <time>2018-08-10T08:11:54Z</time>
      </trkpt>
      <trkpt lat="44.35083" lon="6.36397">
        <ele>1192.1</ele>
        <time>2018-08-10T08:11:55Z</time>
      </trkpt>
      <trkpt lat="44.35086" lon="6.364">
        <ele>1192.1</ele>
        <time>2018-08-10T08:11:56Z</time>
      </trkpt>
      <trkpt lat="44.35087" lon="6.36404">
        <ele>1193.2</ele>
        <time>2018-08-10T08:11:57Z</time>
      </trkpt>
      <trkpt lat="44.35089" lon="6.36408">
        <ele>1193.7</ele>
        <time>2018-08-10T08:11:58Z</time>
      </trkpt>
      <trkpt lat="44.3509" lon="6.36412">
        <ele>1194.9</ele>
        <time>2018-08-10T08:11:59Z</time>
      </trkpt>
      <trkpt lat="44.35092" lon="6.36415">
        <ele>1195.9</ele>
        <time>2018-08-10T08:12:00Z</time>
      </trkpt>
      <trkpt lat="44.35093" lon="6.36419">
        <ele>1196.5</ele>
        <time>2018-08-10T08:12:01Z</time>
      </trkpt>
      <trkpt lat="44.35096" lon="6.36425">
        <ele>1197.5</ele>
        <time>2018-08-10T08:12:03Z</time>
      </trkpt>
      <trkpt lat="44.35099" lon="6.36429">
        <ele>1198.4</ele>
        <time>2018-08-10T08:12:05Z</time>
      </trkpt>
      <trkpt lat="44.35102" lon="6.36432">
        <ele>1199.2</ele>
        <time>2018-08-10T08:12:07Z</time>
      </trkpt>
      <trkpt lat="44.35106" lon="6.36436">
        <ele>1200</ele>
        <time>2018-08-10T08:12:09Z</time>
      </trkpt>
      <trkpt lat="44.3511" lon="6.36438">
        <ele>1200.3</ele>
        <time>2018-08-10T08:12:11Z</time>
      </trkpt>
      <trkpt lat="44.35114" lon="6.3644">
        <ele>1201.4</ele>
        <time>2018-08-10T08:12:13Z</time>
      </trkpt>
      <trkpt lat="44.35118" lon="6.36442">
        <ele>1201.6</ele>
        <time>2018-08-10T08:12:15Z</time>
      </trkpt>
      <trkpt lat="44.35122" lon="6.36443">
        <ele>1201.7</ele>
        <time>2018-08-10T08:12:17Z</time>
      </trkpt>
      <trkpt lat="44.35127" lon="6.36444">
        <ele>1202.4</ele>
        <time>2018-08-10T08:12:19Z</time>
      </trkpt>
      <trkpt lat="44.35131" lon="6.36447">
        <ele>1202.5</ele>
        <time>2018-08-10T08:12:21Z</time>
      </trkpt>
      <trkpt lat="44.35135" lon="6.36449">
        <ele>1203.2</ele>
        <time>2018-08-10T08:12:23Z</time>
      </trkpt>
      <trkpt lat="44.35138" lon="6.36454">
        <ele>1203.6</ele>
        <time>2018-08-10T08:12:25Z</time>
      </trkpt>
      <trkpt lat="44.35139" lon="6.36459">
        <ele>1204.1</ele>
        <time>2018-08-10T08:12:27Z</time>
      </trkpt>
      <trkpt lat="44.3514" lon="6.36464">
        <ele>1204.5</ele>
        <time>2018-08-10T08:12:29Z</time>
      </trkpt>
      <trkpt lat="44.35141" lon="6.36469">
        <ele>1205.1</ele>
        <time>2018-08-10T08:12:31Z</time>
      </trkpt>
      <trkpt lat="44.35141" lon="6.36474">
        <ele>1206</ele>
        <time>2018-08-10T08:12:33Z</time>
      </trkpt>
      <trkpt lat="44.35142" lon="6.36479">
        <ele>1206.4</ele>
        <time>2018-08-10T08:12:35Z</time>
      </trkpt>
      <trkpt lat="44.35143" lon="6.36484">
        <ele>1206.8</ele>
        <time>2018-08-10T08:12:37Z</time>
      </trkpt>
      <trkpt lat="44.35145" lon="6.36488">
        <ele>1207.2</ele>
        <time>2018-08-10T08:12:39Z</time>
      </trkpt>
      <trkpt lat="44.35146" lon="6.36493">
        <ele>1207.6</ele>
        <time>2018-08-10T08:12:41Z</time>
      </trkpt>
      <trkpt lat="44.35147" lon="6.36497">
        <ele>1208</ele>
        <time>2018-08-10T08:12:43Z</time>
      </trkpt>
      <trkpt lat="44.35148" lon="6.365">
        <ele>1208.5</ele>
        <time>2018-08-10T08:12:45Z</time>
      </trkpt>
      <trkpt lat="44.35151" lon="6.36504">
        <ele>1208.9</ele>
        <time>2018-08-10T08:12:47Z</time>
      </trkpt>
      <trkpt lat="44.35153" lon="6.36507">
        <ele>1208.9</ele>
        <time>2018-08-10T08:12:49Z</time>
      </trkpt>
      <trkpt lat="44.35155" lon="6.3651">
        <ele>1209.4</ele>
        <time>2018-08-10T08:12:51Z</time>
      </trkpt>
      <trkpt lat="44.35158" lon="6.36511">
        <ele>1209.3</ele>
        <time>2018-08-10T08:12:53Z</time>
      </trkpt>
      <trkpt lat="44.3516" lon="6.36514">
        <ele>1209.9</ele>
        <time>2018-08-10T08:12:56Z</time>
      </trkpt>
      <trkpt lat="44.35163" lon="6.36515">
        <ele>1209.9</ele>
        <time>2018-08-10T08:13:25Z</time>
      </trkpt>
      <trkpt lat="44.3516" lon="6.36514">
        <ele>1209.8</ele>
        <time>2018-08-10T08:13:35Z</time>
      </trkpt>
      <trkpt lat="44.35163" lon="6.36513">
        <ele>1209.8</ele>
        <time>2018-08-10T08:14:26Z</time>
      </trkpt>
      <trkpt lat="44.35167" lon="6.36514">
        <ele>1209.9</ele>
        <time>2018-08-10T08:14:29Z</time>
      </trkpt>
      <trkpt lat="44.3517" lon="6.36514">
        <ele>1210</ele>
        <time>2018-08-10T08:14:32Z</time>
      </trkpt>
      <trkpt lat="44.35172" lon="6.36513">
        <ele>1210.2</ele>
        <time>2018-08-10T08:14:36Z</time>
      </trkpt>
      <trkpt lat="44.35175" lon="6.36514">
        <ele>1210.4</ele>
        <time>2018-08-10T08:14:38Z</time>
      </trkpt>
      <trkpt lat="44.35178" lon="6.36514">
        <ele>1210.4</ele>
        <time>2018-08-10T08:14:40Z</time>
      </trkpt>
      <trkpt lat="44.35175" lon="6.36512">
        <ele>1210.1</ele>
        <time>2018-08-10T08:14:58Z</time>
      </trkpt>
      <trkpt lat="44.35172" lon="6.36512">
        <ele>1209.9</ele>
        <time>2018-08-10T08:15:02Z</time>
      </trkpt>
      <trkpt lat="44.35169" lon="6.36511">
        <ele>1209.5</ele>
        <time>2018-08-10T08:15:04Z</time>
      </trkpt>
      <trkpt lat="44.35165" lon="6.3651">
        <ele>1209.1</ele>
        <time>2018-08-10T08:15:06Z</time>
      </trkpt>
      <trkpt lat="44.35162" lon="6.36508">
        <ele>1209.1</ele>
        <time>2018-08-10T08:15:08Z</time>
      </trkpt>
      <trkpt lat="44.35159" lon="6.36506">
        <ele>1208.5</ele>
        <time>2018-08-10T08:15:10Z</time>
      </trkpt>
      <trkpt lat="44.35156" lon="6.36504">
        <ele>1208.5</ele>
        <time>2018-08-10T08:15:13Z</time>
      </trkpt>
      <trkpt lat="44.35152" lon="6.36501">
        <ele>1208</ele>
        <time>2018-08-10T08:15:16Z</time>
      </trkpt>
      <trkpt lat="44.35152" lon="6.36496">
        <ele>1207.5</ele>
        <time>2018-08-10T08:15:23Z</time>
      </trkpt>
      <trkpt lat="44.35149" lon="6.36489">
        <ele>1206.7</ele>
        <time>2018-08-10T08:15:25Z</time>
      </trkpt>
      <trkpt lat="44.35147" lon="6.36485">
        <ele>1206.2</ele>
        <time>2018-08-10T08:15:26Z</time>
      </trkpt>
      <trkpt lat="44.35146" lon="6.36479">
        <ele>1205.8</ele>
        <time>2018-08-10T08:15:27Z</time>
      </trkpt>
      <trkpt lat="44.35145" lon="6.36475">
        <ele>1205.4</ele>
        <time>2018-08-10T08:15:28Z</time>
      </trkpt>
      <trkpt lat="44.35144" lon="6.36469">
        <ele>1204.3</ele>
        <time>2018-08-10T08:15:30Z</time>
      </trkpt>
      <trkpt lat="44.35143" lon="6.36464">
        <ele>1203.9</ele>
        <time>2018-08-10T08:15:32Z</time>
      </trkpt>
      <trkpt lat="44.35142" lon="6.36459">
        <ele>1203.5</ele>
        <time>2018-08-10T08:15:34Z</time>
      </trkpt>
      <trkpt lat="44.35142" lon="6.36454">
        <ele>1203.1</ele>
        <time>2018-08-10T08:15:36Z</time>
      </trkpt>
      <trkpt lat="44.35139" lon="6.36449">
        <ele>1202.5</ele>
        <time>2018-08-10T08:15:38Z</time>
      </trkpt>
      <trkpt lat="44.35137" lon="6.36447">
        <ele>1201.9</ele>
        <time>2018-08-10T08:15:40Z</time>
      </trkpt>
      <trkpt lat="44.35134" lon="6.36445">
        <ele>1201.7</ele>
        <time>2018-08-10T08:15:42Z</time>
      </trkpt>
      <trkpt lat="44.35137" lon="6.36449">
        <ele>1202.2</ele>
        <time>2018-08-10T08:15:58Z</time>
      </trkpt>
      <trkpt lat="44.35138" lon="6.36453">
        <ele>1202.7</ele>
        <time>2018-08-10T08:16:00Z</time>
      </trkpt>
      <trkpt lat="44.35139" lon="6.36458">
        <ele>1203.1</ele>
        <time>2018-08-10T08:16:03Z</time>
      </trkpt>
      <trkpt lat="44.35139" lon="6.36463">
        <ele>1203.5</ele>
        <time>2018-08-10T08:16:06Z</time>
      </trkpt>
      <trkpt lat="44.35136" lon="6.36464">
        <ele>1203.3</ele>
        <time>2018-08-10T08:16:09Z</time>
      </trkpt>
      <trkpt lat="44.35134" lon="6.36461">
        <ele>1203.1</ele>
        <time>2018-08-10T08:16:11Z</time>
      </trkpt>
      <trkpt lat="44.35137" lon="6.36464">
        <ele>1203.2</ele>
        <time>2018-08-10T08:16:27Z</time>
      </trkpt>
      <trkpt lat="44.35139" lon="6.36467">
        <ele>1203.9</ele>
        <time>2018-08-10T08:16:31Z</time>
      </trkpt>
      <trkpt lat="44.35139" lon="6.36472">
        <ele>1204.3</ele>
        <time>2018-08-10T08:16:35Z</time>
      </trkpt>
      <trkpt lat="44.3514" lon="6.36476">
        <ele>1204.7</ele>
        <time>2018-08-10T08:16:39Z</time>
      </trkpt>
      <trkpt lat="44.35141" lon="6.36479">
        <ele>1205.3</ele>
        <time>2018-08-10T08:16:53Z</time>
      </trkpt>
      <trkpt lat="44.35144" lon="6.36483">
        <ele>1205.7</ele>
        <time>2018-08-10T08:16:58Z</time>
      </trkpt>
      <trkpt lat="44.35144" lon="6.36488">
        <ele>1206.1</ele>
        <time>2018-08-10T08:17:01Z</time>
      </trkpt>
      <trkpt lat="44.35145" lon="6.36493">
        <ele>1206.5</ele>
        <time>2018-08-10T08:17:04Z</time>
      </trkpt>
      <trkpt lat="44.35147" lon="6.36497">
        <ele>1206.9</ele>
        <time>2018-08-10T08:17:06Z</time>
      </trkpt>
      <trkpt lat="44.35149" lon="6.365">
        <ele>1207.3</ele>
        <time>2018-08-10T08:17:08Z</time>
      </trkpt>
      <trkpt lat="44.35152" lon="6.36502">
        <ele>1207.3</ele>
        <time>2018-08-10T08:17:10Z</time>
      </trkpt>
      <trkpt lat="44.35154" lon="6.36504">
        <ele>1207.8</ele>
        <time>2018-08-10T08:17:12Z</time>
      </trkpt>
      <trkpt lat="44.35156" lon="6.36507">
        <ele>1207.7</ele>
        <time>2018-08-10T08:17:14Z</time>
      </trkpt>
      <trkpt lat="44.35161" lon="6.36512">
        <ele>1208.2</ele>
        <time>2018-08-10T08:18:08Z</time>
      </trkpt>
      <trkpt lat="44.35164" lon="6.36512">
        <ele>1208.8</ele>
        <time>2018-08-10T08:18:13Z</time>
      </trkpt>
      <trkpt lat="44.35168" lon="6.36512">
        <ele>1208.4</ele>
        <time>2018-08-10T08:18:25Z</time>
      </trkpt>
      <trkpt lat="44.35171" lon="6.36511">
        <ele>1208.5</ele>
        <time>2018-08-10T08:18:29Z</time>
      </trkpt>
      <trkpt lat="44.35174" lon="6.36512">
        <ele>1209.1</ele>
        <time>2018-08-10T08:18:33Z</time>
      </trkpt>
      <trkpt lat="44.35177" lon="6.3651">
        <ele>1208.9</ele>
        <time>2018-08-10T08:19:14Z</time>
      </trkpt>
      <trkpt lat="44.35179" lon="6.36507">
        <ele>1208.8</ele>
        <time>2018-08-10T08:19:17Z</time>
      </trkpt>
      <trkpt lat="44.35181" lon="6.36505">
        <ele>1209.1</ele>
        <time>2018-08-10T08:19:25Z</time>
      </trkpt>
      <trkpt lat="44.35181" lon="6.36509">
        <ele>1209.1</ele>
        <time>2018-08-10T08:21:39Z</time>
      </trkpt>
      <trkpt lat="44.35181" lon="6.36505">
        <ele>1208.7</ele>
        <time>2018-08-10T08:22:26Z</time>
      </trkpt>
      <trkpt lat="44.35181" lon="6.36509">
        <ele>1209.1</ele>
        <time>2018-08-10T08:22:42Z</time>
      </trkpt>
      <trkpt lat="44.35178" lon="6.36514">
        <ele>1209.4</ele>
        <time>2018-08-10T08:24:03Z</time>
      </trkpt>
      <trkpt lat="44.35175" lon="6.36514">
        <ele>1209.2</ele>
        <time>2018-08-10T08:24:04Z</time>
      </trkpt>
      <trkpt lat="44.35172" lon="6.36514">
        <ele>1208.9</ele>
        <time>2018-08-10T08:24:05Z</time>
      </trkpt>
      <trkpt lat="44.3517" lon="6.36514">
        <ele>1208.7</ele>
        <time>2018-08-10T08:24:06Z</time>
      </trkpt>
      <trkpt lat="44.35166" lon="6.36513">
        <ele>1208.6</ele>
        <time>2018-08-10T08:24:07Z</time>
      </trkpt>
      <trkpt lat="44.35163" lon="6.36512">
        <ele>1208.4</ele>
        <time>2018-08-10T08:24:08Z</time>
      </trkpt>
      <trkpt lat="44.3516" lon="6.3651">
        <ele>1207.9</ele>
        <time>2018-08-10T08:24:09Z</time>
      </trkpt>
      <trkpt lat="44.35157" lon="6.36507">
        <ele>1207.3</ele>
        <time>2018-08-10T08:24:10Z</time>
      </trkpt>
      <trkpt lat="44.35154" lon="6.36504">
        <ele>1207.3</ele>
        <time>2018-08-10T08:24:11Z</time>
      </trkpt>
      <trkpt lat="44.35152" lon="6.36499">
        <ele>1206.8</ele>
        <time>2018-08-10T08:24:12Z</time>
      </trkpt>
      <trkpt lat="44.3515" lon="6.36494">
        <ele>1205.9</ele>
        <time>2018-08-10T08:24:13Z</time>
      </trkpt>
      <trkpt lat="44.35148" lon="6.36488">
        <ele>1205.5</ele>
        <time>2018-08-10T08:24:14Z</time>
      </trkpt>
      <trkpt lat="44.35147" lon="6.36482">
        <ele>1204.6</ele>
        <time>2018-08-10T08:24:15Z</time>
      </trkpt>
      <trkpt lat="44.35144" lon="6.36475">
        <ele>1204.1</ele>
        <time>2018-08-10T08:24:16Z</time>
      </trkpt>
      <trkpt lat="44.35143" lon="6.36468">
        <ele>1203.2</ele>
        <time>2018-08-10T08:24:17Z</time>
      </trkpt>
      <trkpt lat="44.35141" lon="6.36463">
        <ele>1202.5</ele>
        <time>2018-08-10T08:24:18Z</time>
      </trkpt>
      <trkpt lat="44.3514" lon="6.36457">
        <ele>1202.1</ele>
        <time>2018-08-10T08:24:19Z</time>
      </trkpt>
      <trkpt lat="44.35139" lon="6.36453">
        <ele>1201.7</ele>
        <time>2018-08-10T08:24:20Z</time>
      </trkpt>
      <trkpt lat="44.35136" lon="6.36448">
        <ele>1201.1</ele>
        <time>2018-08-10T08:24:22Z</time>
      </trkpt>
      <trkpt lat="44.35132" lon="6.36446">
        <ele>1200.5</ele>
        <time>2018-08-10T08:24:23Z</time>
      </trkpt>
      <trkpt lat="44.35129" lon="6.36445">
        <ele>1200.3</ele>
        <time>2018-08-10T08:24:24Z</time>
      </trkpt>
      <trkpt lat="44.35126" lon="6.36445">
        <ele>1200.1</ele>
        <time>2018-08-10T08:24:25Z</time>
      </trkpt>
      <trkpt lat="44.35123" lon="6.36444">
        <ele>1199.9</ele>
        <time>2018-08-10T08:24:26Z</time>
      </trkpt>
      <trkpt lat="44.3512" lon="6.36443">
        <ele>1199.4</ele>
        <time>2018-08-10T08:24:27Z</time>
      </trkpt>
      <trkpt lat="44.35117" lon="6.36442">
        <ele>1199.2</ele>
        <time>2018-08-10T08:24:28Z</time>
      </trkpt>
      <trkpt lat="44.35115" lon="6.3644">
        <ele>1198.9</ele>
        <time>2018-08-10T08:24:29Z</time>
      </trkpt>
      <trkpt lat="44.35112" lon="6.36438">
        <ele>1198.2</ele>
        <time>2018-08-10T08:24:30Z</time>
      </trkpt>
      <trkpt lat="44.35109" lon="6.36436">
        <ele>1197.8</ele>
        <time>2018-08-10T08:24:31Z</time>
      </trkpt>
      <trkpt lat="44.35106" lon="6.36434">
        <ele>1197</ele>
        <time>2018-08-10T08:24:32Z</time>
      </trkpt>
      <trkpt lat="44.35103" lon="6.3643">
        <ele>1196.1</ele>
        <time>2018-08-10T08:24:33Z</time>
      </trkpt>
      <trkpt lat="44.35099" lon="6.36426">
        <ele>1195.2</ele>
        <time>2018-08-10T08:24:34Z</time>
      </trkpt>
      <trkpt lat="44.35096" lon="6.36422">
        <ele>1194.8</ele>
        <time>2018-08-10T08:24:35Z</time>
      </trkpt>
      <trkpt lat="44.35094" lon="6.36418">
        <ele>1193.8</ele>
        <time>2018-08-10T08:24:36Z</time>
      </trkpt>
      <trkpt lat="44.35092" lon="6.36413">
        <ele>1192.1</ele>
        <time>2018-08-10T08:24:37Z</time>
      </trkpt>
      <trkpt lat="44.3509" lon="6.36408">
        <ele>1192</ele>
        <time>2018-08-10T08:24:38Z</time>
      </trkpt>
      <trkpt lat="44.35088" lon="6.36402">
        <ele>1192</ele>
        <time>2018-08-10T08:24:39Z</time>
      </trkpt>
      <trkpt lat="44.35087" lon="6.36396">
        <ele>1191.9</ele>
        <time>2018-08-10T08:24:40Z</time>
      </trkpt>
      <trkpt lat="44.35088" lon="6.36392">
        <ele>1191.9</ele>
        <time>2018-08-10T08:24:41Z</time>
      </trkpt>
      <trkpt lat="44.3509" lon="6.36388">
        <ele>1191.8</ele>
        <time>2018-08-10T08:24:43Z</time>
      </trkpt>
      <trkpt lat="44.35094" lon="6.36383">
        <ele>1191.7</ele>
        <time>2018-08-10T08:24:45Z</time>
      </trkpt>
      <trkpt lat="44.35097" lon="6.36381">
        <ele>1191.7</ele>
        <time>2018-08-10T08:24:46Z</time>
      </trkpt>
      <trkpt lat="44.35099" lon="6.36377">
        <ele>1191.7</ele>
        <time>2018-08-10T08:24:47Z</time>
      </trkpt>
      <trkpt lat="44.35101" lon="6.36373">
        <ele>1191.6</ele>
        <time>2018-08-10T08:24:48Z</time>
      </trkpt>
      <trkpt lat="44.35102" lon="6.36369">
        <ele>1191.6</ele>
        <time>2018-08-10T08:24:49Z</time>
      </trkpt>
      <trkpt lat="44.35104" lon="6.36363">
        <ele>1191.7</ele>
        <time>2018-08-10T08:24:50Z</time>
      </trkpt>
      <trkpt lat="44.35104" lon="6.36357">
        <ele>1191.7</ele>
        <time>2018-08-10T08:24:51Z</time>
      </trkpt>
      <trkpt lat="44.35105" lon="6.36352">
        <ele>1191.7</ele>
        <time>2018-08-10T08:24:52Z</time>
      </trkpt>
      <trkpt lat="44.35104" lon="6.36345">
        <ele>1191.8</ele>
        <time>2018-08-10T08:24:53Z</time>
      </trkpt>
      <trkpt lat="44.35104" lon="6.36339">
        <ele>1191.9</ele>
        <time>2018-08-10T08:24:54Z</time>
      </trkpt>
      <trkpt lat="44.35103" lon="6.36333">
        <ele>1191.9</ele>
        <time>2018-08-10T08:24:55Z</time>
      </trkpt>
      <trkpt lat="44.35102" lon="6.36327">
        <ele>1192</ele>
        <time>2018-08-10T08:24:56Z</time>
      </trkpt>
      <trkpt lat="44.35101" lon="6.36321">
        <ele>1192.1</ele>
        <time>2018-08-10T08:24:57Z</time>
      </trkpt>
      <trkpt lat="44.351" lon="6.36314">
        <ele>1192.2</ele>
        <time>2018-08-10T08:24:58Z</time>
      </trkpt>
      <trkpt lat="44.35099" lon="6.36308">
        <ele>1192.3</ele>
        <time>2018-08-10T08:24:59Z</time>
      </trkpt>
      <trkpt lat="44.35099" lon="6.36302">
        <ele>1192.4</ele>
        <time>2018-08-10T08:25:00Z</time>
      </trkpt>
      <trkpt lat="44.35098" lon="6.36296">
        <ele>1192.5</ele>
        <time>2018-08-10T08:25:01Z</time>
      </trkpt>
      <trkpt lat="44.35097" lon="6.36289">
        <ele>1192.6</ele>
        <time>2018-08-10T08:25:02Z</time>
      </trkpt>
      <trkpt lat="44.35096" lon="6.36283">
        <ele>1192.7</ele>
        <time>2018-08-10T08:25:03Z</time>
      </trkpt>
      <trkpt lat="44.35096" lon="6.36277">
        <ele>1192.8</ele>
        <time>2018-08-10T08:25:04Z</time>
      </trkpt>
      <trkpt lat="44.35095" lon="6.36271">
        <ele>1192.9</ele>
        <time>2018-08-10T08:25:05Z</time>
      </trkpt>
      <trkpt lat="44.35095" lon="6.36264">
        <ele>1193</ele>
        <time>2018-08-10T08:25:06Z</time>
      </trkpt>
      <trkpt lat="44.35094" lon="6.36258">
        <ele>1193.1</ele>
        <time>2018-08-10T08:25:07Z</time>
      </trkpt>
      <trkpt lat="44.35094" lon="6.36251">
        <ele>1193.2</ele>
        <time>2018-08-10T08:25:08Z</time>
      </trkpt>
      <trkpt lat="44.35093" lon="6.36244">
        <ele>1193.3</ele>
        <time>2018-08-10T08:25:09Z</time>
      </trkpt>
      <trkpt lat="44.35092" lon="6.36238">
        <ele>1193.4</ele>
        <time>2018-08-10T08:25:10Z</time>
      </trkpt>
      <trkpt lat="44.35092" lon="6.36231">
        <ele>1193.6</ele>
        <time>2018-08-10T08:25:11Z</time>
      </trkpt>
      <trkpt lat="44.35091" lon="6.36224">
        <ele>1193.7</ele>
        <time>2018-08-10T08:25:12Z</time>
      </trkpt>
      <trkpt lat="44.35091" lon="6.36217">
        <ele>1193.8</ele>
        <time>2018-08-10T08:25:13Z</time>
      </trkpt>
      <trkpt lat="44.35092" lon="6.3621">
        <ele>1193.9</ele>
        <time>2018-08-10T08:25:14Z</time>
      </trkpt>
      <trkpt lat="44.35093" lon="6.36203">
        <ele>1194</ele>
        <time>2018-08-10T08:25:15Z</time>
      </trkpt>
      <trkpt lat="44.35095" lon="6.36196">
        <ele>1194.2</ele>
        <time>2018-08-10T08:25:16Z</time>
      </trkpt>
      <trkpt lat="44.35097" lon="6.3619">
        <ele>1194.3</ele>
        <time>2018-08-10T08:25:17Z</time>
      </trkpt>
      <trkpt lat="44.35099" lon="6.36184">
        <ele>1194.4</ele>
        <time>2018-08-10T08:25:18Z</time>
      </trkpt>
      <trkpt lat="44.35101" lon="6.36178">
        <ele>1194.6</ele>
        <time>2018-08-10T08:25:19Z</time>
      </trkpt>
      <trkpt lat="44.35104" lon="6.36173">
        <ele>1194.7</ele>
        <time>2018-08-10T08:25:20Z</time>
      </trkpt>
      <trkpt lat="44.35107" lon="6.36168">
        <ele>1194.8</ele>
        <time>2018-08-10T08:25:21Z</time>
      </trkpt>
      <trkpt lat="44.3511" lon="6.36163">
        <ele>1195</ele>
        <time>2018-08-10T08:25:22Z</time>
      </trkpt>
      <trkpt lat="44.35113" lon="6.3616">
        <ele>1195.1</ele>
        <time>2018-08-10T08:25:23Z</time>
      </trkpt>
      <trkpt lat="44.35116" lon="6.36156">
        <ele>1195.2</ele>
        <time>2018-08-10T08:25:24Z</time>
      </trkpt>
      <trkpt lat="44.35118" lon="6.36153">
        <ele>1195.6</ele>
        <time>2018-08-10T08:25:25Z</time>
      </trkpt>
      <trkpt lat="44.35121" lon="6.3615">
        <ele>1196.1</ele>
        <time>2018-08-10T08:25:26Z</time>
      </trkpt>
      <trkpt lat="44.35123" lon="6.36145">
        <ele>1196.2</ele>
        <time>2018-08-10T08:25:27Z</time>
      </trkpt>
      <trkpt lat="44.35126" lon="6.36141">
        <ele>1195.7</ele>
        <time>2018-08-10T08:25:28Z</time>
      </trkpt>
      <trkpt lat="44.35128" lon="6.36137">
        <ele>1195.9</ele>
        <time>2018-08-10T08:25:29Z</time>
      </trkpt>
      <trkpt lat="44.35129" lon="6.36133">
        <ele>1195.9</ele>
        <time>2018-08-10T08:25:30Z</time>
      </trkpt>
      <trkpt lat="44.3513" lon="6.36127">
        <ele>1195.9</ele>
        <time>2018-08-10T08:25:31Z</time>
      </trkpt>
      <trkpt lat="44.35131" lon="6.36122">
        <ele>1195.7</ele>
        <time>2018-08-10T08:25:32Z</time>
      </trkpt>
      <trkpt lat="44.35131" lon="6.36116">
        <ele>1195.3</ele>
        <time>2018-08-10T08:25:33Z</time>
      </trkpt>
      <trkpt lat="44.35132" lon="6.36111">
        <ele>1195.1</ele>
        <time>2018-08-10T08:25:34Z</time>
      </trkpt>
      <trkpt lat="44.35133" lon="6.36106">
        <ele>1195</ele>
        <time>2018-08-10T08:25:35Z</time>
      </trkpt>
      <trkpt lat="44.35134" lon="6.36101">
        <ele>1195</ele>
        <time>2018-08-10T08:25:36Z</time>
      </trkpt>
      <trkpt lat="44.35136" lon="6.36097">
        <ele>1195.2</ele>
        <time>2018-08-10T08:25:37Z</time>
      </trkpt>
      <trkpt lat="44.35138" lon="6.36093">
        <ele>1196.2</ele>
        <time>2018-08-10T08:25:38Z</time>
      </trkpt>
      <trkpt lat="44.3514" lon="6.36089">
        <ele>1196.4</ele>
        <time>2018-08-10T08:25:39Z</time>
      </trkpt>
      <trkpt lat="44.35142" lon="6.36084">
        <ele>1196.5</ele>
        <time>2018-08-10T08:25:41Z</time>
      </trkpt>
      <trkpt lat="44.35144" lon="6.36083">
        <ele>1196.6</ele>
        <time>2018-08-10T08:25:59Z</time>
      </trkpt>
      <trkpt lat="44.35145" lon="6.36077">
        <ele>1196.6</ele>
        <time>2018-08-10T08:26:01Z</time>
      </trkpt>
      <trkpt lat="44.35145" lon="6.36072">
        <ele>1196.7</ele>
        <time>2018-08-10T08:26:03Z</time>
      </trkpt>
      <trkpt lat="44.35143" lon="6.36066">
        <ele>1196.8</ele>
        <time>2018-08-10T08:26:05Z</time>
      </trkpt>
      <trkpt lat="44.35142" lon="6.3606">
        <ele>1196.8</ele>
        <time>2018-08-10T08:26:07Z</time>
      </trkpt>
      <trkpt lat="44.35142" lon="6.36056">
        <ele>1196.7</ele>
        <time>2018-08-10T08:26:09Z</time>
      </trkpt>
      <trkpt lat="44.35142" lon="6.3605">
        <ele>1196.6</ele>
        <time>2018-08-10T08:26:11Z</time>
      </trkpt>
      <trkpt lat="44.3514" lon="6.36044">
        <ele>1196.5</ele>
        <time>2018-08-10T08:26:13Z</time>
      </trkpt>
      <trkpt lat="44.35139" lon="6.36038">
        <ele>1196.5</ele>
        <time>2018-08-10T08:26:15Z</time>
      </trkpt>
      <trkpt lat="44.3514" lon="6.36032">
        <ele>1196.5</ele>
        <time>2018-08-10T08:26:17Z</time>
      </trkpt>
      <trkpt lat="44.3514" lon="6.36025">
        <ele>1196.4</ele>
        <time>2018-08-10T08:26:19Z</time>
      </trkpt>
      <trkpt lat="44.35141" lon="6.36019">
        <ele>1196.4</ele>
        <time>2018-08-10T08:26:21Z</time>
      </trkpt>
      <trkpt lat="44.35141" lon="6.36012">
        <ele>1196.7</ele>
        <time>2018-08-10T08:26:23Z</time>
      </trkpt>
      <trkpt lat="44.35142" lon="6.36006">
        <ele>1196.9</ele>
        <time>2018-08-10T08:26:25Z</time>
      </trkpt>
      <trkpt lat="44.35144" lon="6.35999">
        <ele>1197.2</ele>
        <time>2018-08-10T08:26:27Z</time>
      </trkpt>
      <trkpt lat="44.35145" lon="6.35991">
        <ele>1197.3</ele>
        <time>2018-08-10T08:26:29Z</time>
      </trkpt>
      <trkpt lat="44.35145" lon="6.35984">
        <ele>1197.4</ele>
        <time>2018-08-10T08:26:31Z</time>
      </trkpt>
      <trkpt lat="44.35148" lon="6.35978">
        <ele>1198</ele>
        <time>2018-08-10T08:26:33Z</time>
      </trkpt>
      <trkpt lat="44.3515" lon="6.35972">
        <ele>1199</ele>
        <time>2018-08-10T08:26:35Z</time>
      </trkpt>
      <trkpt lat="44.35153" lon="6.35966">
        <ele>1199.7</ele>
        <time>2018-08-10T08:26:37Z</time>
      </trkpt>
      <trkpt lat="44.35156" lon="6.35961">
        <ele>1200.7</ele>
        <time>2018-08-10T08:26:39Z</time>
      </trkpt>
      <trkpt lat="44.35159" lon="6.35956">
        <ele>1201.8</ele>
        <time>2018-08-10T08:26:41Z</time>
      </trkpt>
      <trkpt lat="44.35163" lon="6.35952">
        <ele>1203</ele>
        <time>2018-08-10T08:26:43Z</time>
      </trkpt>
      <trkpt lat="44.35165" lon="6.35952">
        <ele>1203.7</ele>
        <time>2018-08-10T08:26:44Z</time>
      </trkpt>
      <trkpt lat="44.35168" lon="6.3595">
        <ele>1204.4</ele>
        <time>2018-08-10T08:26:45Z</time>
      </trkpt>
      <trkpt lat="44.35173" lon="6.35946">
        <ele>1205.6</ele>
        <time>2018-08-10T08:26:47Z</time>
      </trkpt>
      <trkpt lat="44.35177" lon="6.35944">
        <ele>1206.5</ele>
        <time>2018-08-10T08:26:49Z</time>
      </trkpt>
      <trkpt lat="44.35182" lon="6.35942">
        <ele>1207.4</ele>
        <time>2018-08-10T08:26:51Z</time>
      </trkpt>
      <trkpt lat="44.35186" lon="6.3594">
        <ele>1208.3</ele>
        <time>2018-08-10T08:26:53Z</time>
      </trkpt>
      <trkpt lat="44.35189" lon="6.35936">
        <ele>1209</ele>
        <time>2018-08-10T08:26:55Z</time>
      </trkpt>
      <trkpt lat="44.35192" lon="6.35931">
        <ele>1209</ele>
        <time>2018-08-10T08:26:57Z</time>
      </trkpt>
      <trkpt lat="44.35194" lon="6.35928">
        <ele>1208.5</ele>
        <time>2018-08-10T08:26:58Z</time>
      </trkpt>
      <trkpt lat="44.35196" lon="6.35921">
        <ele>1207.2</ele>
        <time>2018-08-10T08:27:00Z</time>
      </trkpt>
      <trkpt lat="44.35197" lon="6.35917">
        <ele>1206.8</ele>
        <time>2018-08-10T08:27:01Z</time>
      </trkpt>
      <trkpt lat="44.35198" lon="6.35911">
        <ele>1206.4</ele>
        <time>2018-08-10T08:27:02Z</time>
      </trkpt>
      <trkpt lat="44.35199" lon="6.35907">
        <ele>1206.1</ele>
        <time>2018-08-10T08:27:03Z</time>
      </trkpt>
      <trkpt lat="44.352" lon="6.35902">
        <ele>1205.9</ele>
        <time>2018-08-10T08:27:04Z</time>
      </trkpt>
      <trkpt lat="44.352" lon="6.35897">
        <ele>1205.4</ele>
        <time>2018-08-10T08:27:05Z</time>
      </trkpt>
      <trkpt lat="44.352" lon="6.35892">
        <ele>1204.6</ele>
        <time>2018-08-10T08:27:06Z</time>
      </trkpt>
      <trkpt lat="44.35201" lon="6.35886">
        <ele>1204</ele>
        <time>2018-08-10T08:27:07Z</time>
      </trkpt>
      <trkpt lat="44.35203" lon="6.3588">
        <ele>1203.5</ele>
        <time>2018-08-10T08:27:08Z</time>
      </trkpt>
      <trkpt lat="44.35204" lon="6.35875">
        <ele>1202.9</ele>
        <time>2018-08-10T08:27:09Z</time>
      </trkpt>
      <trkpt lat="44.35206" lon="6.35869">
        <ele>1202.3</ele>
        <time>2018-08-10T08:27:10Z</time>
      </trkpt>
      <trkpt lat="44.35207" lon="6.35862">
        <ele>1201.7</ele>
        <time>2018-08-10T08:27:11Z</time>
      </trkpt>
      <trkpt lat="44.35207" lon="6.35856">
        <ele>1201.1</ele>
        <time>2018-08-10T08:27:12Z</time>
      </trkpt>
      <trkpt lat="44.35208" lon="6.35849">
        <ele>1200.3</ele>
        <time>2018-08-10T08:27:13Z</time>
      </trkpt>
      <trkpt lat="44.35209" lon="6.35842">
        <ele>1199.3</ele>
        <time>2018-08-10T08:27:14Z</time>
      </trkpt>
      <trkpt lat="44.3521" lon="6.35835">
        <ele>1198.8</ele>
        <time>2018-08-10T08:27:15Z</time>
      </trkpt>
      <trkpt lat="44.35211" lon="6.35828">
        <ele>1198.2</ele>
        <time>2018-08-10T08:27:16Z</time>
      </trkpt>
      <trkpt lat="44.35212" lon="6.35822">
        <ele>1197.3</ele>
        <time>2018-08-10T08:27:17Z</time>
      </trkpt>
      <trkpt lat="44.35213" lon="6.35816">
        <ele>1196.7</ele>
        <time>2018-08-10T08:27:18Z</time>
      </trkpt>
      <trkpt lat="44.35213" lon="6.3581">
        <ele>1196.3</ele>
        <time>2018-08-10T08:27:19Z</time>
      </trkpt>
      <trkpt lat="44.35213" lon="6.35803">
        <ele>1195.7</ele>
        <time>2018-08-10T08:27:20Z</time>
      </trkpt>
      <trkpt lat="44.35213" lon="6.35795">
        <ele>1194.7</ele>
        <time>2018-08-10T08:27:21Z</time>
      </trkpt>
      <trkpt lat="44.35212" lon="6.35788">
        <ele>1193.8</ele>
        <time>2018-08-10T08:27:22Z</time>
      </trkpt>
      <trkpt lat="44.3521" lon="6.35784">
        <ele>1193.1</ele>
        <time>2018-08-10T08:27:23Z</time>
      </trkpt>
      <trkpt lat="44.3521" lon="6.35779">
        <ele>1192.5</ele>
        <time>2018-08-10T08:27:24Z</time>
      </trkpt>
      <trkpt lat="44.35211" lon="6.35773">
        <ele>1193.1</ele>
        <time>2018-08-10T08:27:26Z</time>
      </trkpt>
      <trkpt lat="44.35213" lon="6.35769">
        <ele>1193.5</ele>
        <time>2018-08-10T08:27:27Z</time>
      </trkpt>
      <trkpt lat="44.35215" lon="6.35761">
        <ele>1194.2</ele>
        <time>2018-08-10T08:27:29Z</time>
      </trkpt>
      <trkpt lat="44.35216" lon="6.35756">
        <ele>1194.7</ele>
        <time>2018-08-10T08:27:30Z</time>
      </trkpt>
      <trkpt lat="44.35218" lon="6.35752">
        <ele>1195.1</ele>
        <time>2018-08-10T08:27:31Z</time>
      </trkpt>
      <trkpt lat="44.3522" lon="6.35749">
        <ele>1195.5</ele>
        <time>2018-08-10T08:27:32Z</time>
      </trkpt>
      <trkpt lat="44.35223" lon="6.35746">
        <ele>1195.9</ele>
        <time>2018-08-10T08:27:33Z</time>
      </trkpt>
      <trkpt lat="44.35225" lon="6.35742">
        <ele>1196.4</ele>
        <time>2018-08-10T08:27:35Z</time>
      </trkpt>
      <trkpt lat="44.35229" lon="6.35736">
        <ele>1197</ele>
        <time>2018-08-10T08:27:37Z</time>
      </trkpt>
      <trkpt lat="44.35231" lon="6.35732">
        <ele>1197</ele>
        <time>2018-08-10T08:27:39Z</time>
      </trkpt>
      <trkpt lat="44.35234" lon="6.35728">
        <ele>1197</ele>
        <time>2018-08-10T08:27:41Z</time>
      </trkpt>
      <trkpt lat="44.35236" lon="6.35725">
        <ele>1197</ele>
        <time>2018-08-10T08:27:42Z</time>
      </trkpt>
      <trkpt lat="44.35238" lon="6.35718">
        <ele>1197</ele>
        <time>2018-08-10T08:27:44Z</time>
      </trkpt>
      <trkpt lat="44.3524" lon="6.35711">
        <ele>1197</ele>
        <time>2018-08-10T08:27:46Z</time>
      </trkpt>
      <trkpt lat="44.35241" lon="6.35707">
        <ele>1197</ele>
        <time>2018-08-10T08:27:47Z</time>
      </trkpt>
      <trkpt lat="44.35241" lon="6.35703">
        <ele>1197</ele>
        <time>2018-08-10T08:27:48Z</time>
      </trkpt>
      <trkpt lat="44.35244" lon="6.35697">
        <ele>1197</ele>
        <time>2018-08-10T08:27:50Z</time>
      </trkpt>
      <trkpt lat="44.35247" lon="6.35692">
        <ele>1198.6</ele>
        <time>2018-08-10T08:27:52Z</time>
      </trkpt>
      <trkpt lat="44.3525" lon="6.35691">
        <ele>1199.6</ele>
        <time>2018-08-10T08:27:53Z</time>
      </trkpt>
      <trkpt lat="44.35254" lon="6.35691">
        <ele>1200.4</ele>
        <time>2018-08-10T08:27:54Z</time>
      </trkpt>
      <trkpt lat="44.35257" lon="6.35691">
        <ele>1201.3</ele>
        <time>2018-08-10T08:27:55Z</time>
      </trkpt>
      <trkpt lat="44.3526" lon="6.35692">
        <ele>1202.1</ele>
        <time>2018-08-10T08:27:56Z</time>
      </trkpt>
      <trkpt lat="44.35265" lon="6.35694">
        <ele>1203.8</ele>
        <time>2018-08-10T08:27:58Z</time>
      </trkpt>
      <trkpt lat="44.35268" lon="6.35697">
        <ele>1204</ele>
        <time>2018-08-10T08:27:59Z</time>
      </trkpt>
      <trkpt lat="44.35269" lon="6.357">
        <ele>1204</ele>
        <time>2018-08-10T08:28:00Z</time>
      </trkpt>
      <trkpt lat="44.3527" lon="6.35706">
        <ele>1204.1</ele>
        <time>2018-08-10T08:28:02Z</time>
      </trkpt>
      <trkpt lat="44.35271" lon="6.35713">
        <ele>1204.1</ele>
        <time>2018-08-10T08:28:04Z</time>
      </trkpt>
      <trkpt lat="44.35271" lon="6.35717">
        <ele>1204.1</ele>
        <time>2018-08-10T08:28:05Z</time>
      </trkpt>
      <trkpt lat="44.3527" lon="6.35723">
        <ele>1204.2</ele>
        <time>2018-08-10T08:28:07Z</time>
      </trkpt>
      <trkpt lat="44.35268" lon="6.35729">
        <ele>1204.2</ele>
        <time>2018-08-10T08:28:09Z</time>
      </trkpt>
      <trkpt lat="44.35267" lon="6.35733">
        <ele>1204.3</ele>
        <time>2018-08-10T08:28:10Z</time>
      </trkpt>
      <trkpt lat="44.35264" lon="6.35739">
        <ele>1204.4</ele>
        <time>2018-08-10T08:28:12Z</time>
      </trkpt>
      <trkpt lat="44.35263" lon="6.35743">
        <ele>1204.4</ele>
        <time>2018-08-10T08:28:13Z</time>
      </trkpt>
      <trkpt lat="44.35261" lon="6.35746">
        <ele>1204.5</ele>
        <time>2018-08-10T08:28:14Z</time>
      </trkpt>
      <trkpt lat="44.35259" lon="6.3575">
        <ele>1204.6</ele>
        <time>2018-08-10T08:28:15Z</time>
      </trkpt>
      <trkpt lat="44.35258" lon="6.35754">
        <ele>1204.6</ele>
        <time>2018-08-10T08:28:16Z</time>
      </trkpt>
      <trkpt lat="44.35257" lon="6.35761">
        <ele>1204.8</ele>
        <time>2018-08-10T08:28:18Z</time>
      </trkpt>
      <trkpt lat="44.35257" lon="6.35765">
        <ele>1204.9</ele>
        <time>2018-08-10T08:28:19Z</time>
      </trkpt>
      <trkpt lat="44.35258" lon="6.35772">
        <ele>1205.1</ele>
        <time>2018-08-10T08:28:21Z</time>
      </trkpt>
      <trkpt lat="44.35261" lon="6.35779">
        <ele>1205.4</ele>
        <time>2018-08-10T08:28:23Z</time>
      </trkpt>
      <trkpt lat="44.35262" lon="6.35782">
        <ele>1205.5</ele>
        <time>2018-08-10T08:28:24Z</time>
      </trkpt>
      <trkpt lat="44.35264" lon="6.35786">
        <ele>1205.7</ele>
        <time>2018-08-10T08:28:27Z</time>
      </trkpt>
      <trkpt lat="44.35263" lon="6.3579">
        <ele>1205.8</ele>
        <time>2018-08-10T08:28:29Z</time>
      </trkpt>
      <trkpt lat="44.35261" lon="6.35793">
        <ele>1206</ele>
        <time>2018-08-10T08:28:34Z</time>
      </trkpt>
      <trkpt lat="44.35264" lon="6.35793">
        <ele>1206.2</ele>
        <time>2018-08-10T08:28:59Z</time>
      </trkpt>
      <trkpt lat="44.35261" lon="6.35794">
        <ele>1206.3</ele>
        <time>2018-08-10T08:29:21Z</time>
      </trkpt>
      <trkpt lat="44.3526" lon="6.358">
        <ele>1206.4</ele>
        <time>2018-08-10T08:29:23Z</time>
      </trkpt>
      <trkpt lat="44.35258" lon="6.35804">
        <ele>1206.5</ele>
        <time>2018-08-10T08:29:25Z</time>
      </trkpt>
      <trkpt lat="44.35258" lon="6.3581">
        <ele>1206.7</ele>
        <time>2018-08-10T08:29:27Z</time>
      </trkpt>
      <trkpt lat="44.35257" lon="6.35815">
        <ele>1207.1</ele>
        <time>2018-08-10T08:29:29Z</time>
      </trkpt>
      <trkpt lat="44.35257" lon="6.35821">
        <ele>1207.2</ele>
        <time>2018-08-10T08:29:31Z</time>
      </trkpt>
      <trkpt lat="44.35256" lon="6.35827">
        <ele>1207.3</ele>
        <time>2018-08-10T08:29:33Z</time>
      </trkpt>
      <trkpt lat="44.35255" lon="6.35831">
        <ele>1207.3</ele>
        <time>2018-08-10T08:29:35Z</time>
      </trkpt>
      <trkpt lat="44.35255" lon="6.35835">
        <ele>1207.5</ele>
        <time>2018-08-10T08:29:37Z</time>
      </trkpt>
      <trkpt lat="44.35255" lon="6.35841">
        <ele>1207.7</ele>
        <time>2018-08-10T08:29:39Z</time>
      </trkpt>
      <trkpt lat="44.35255" lon="6.35845">
        <ele>1207.9</ele>
        <time>2018-08-10T08:29:41Z</time>
      </trkpt>
      <trkpt lat="44.35254" lon="6.35849">
        <ele>1208.1</ele>
        <time>2018-08-10T08:29:43Z</time>
      </trkpt>
      <trkpt lat="44.35253" lon="6.35853">
        <ele>1208.2</ele>
        <time>2018-08-10T08:29:45Z</time>
      </trkpt>
      <trkpt lat="44.35252" lon="6.35859">
        <ele>1208.1</ele>
        <time>2018-08-10T08:29:48Z</time>
      </trkpt>
      <trkpt lat="44.35252" lon="6.35865">
        <ele>1208.1</ele>
        <time>2018-08-10T08:29:50Z</time>
      </trkpt>
      <trkpt lat="44.35252" lon="6.3587">
        <ele>1208</ele>
        <time>2018-08-10T08:29:52Z</time>
      </trkpt>
      <trkpt lat="44.35253" lon="6.35875">
        <ele>1208</ele>
        <time>2018-08-10T08:29:55Z</time>
      </trkpt>
      <trkpt lat="44.35253" lon="6.35879">
        <ele>1208.1</ele>
        <time>2018-08-10T08:29:58Z</time>
      </trkpt>
      <trkpt lat="44.35253" lon="6.35883">
        <ele>1208.2</ele>
        <time>2018-08-10T08:30:00Z</time>
      </trkpt>
      <trkpt lat="44.35252" lon="6.35887">
        <ele>1208.3</ele>
        <time>2018-08-10T08:30:03Z</time>
      </trkpt>
      <trkpt lat="44.35252" lon="6.35891">
        <ele>1208.3</ele>
        <time>2018-08-10T08:30:06Z</time>
      </trkpt>
      <trkpt lat="44.35253" lon="6.35896">
        <ele>1208.3</ele>
        <time>2018-08-10T08:30:09Z</time>
      </trkpt>
      <trkpt lat="44.35253" lon="6.359">
        <ele>1208.4</ele>
        <time>2018-08-10T08:30:13Z</time>
      </trkpt>
      <trkpt lat="44.35253" lon="6.35904">
        <ele>1208.4</ele>
        <time>2018-08-10T08:30:16Z</time>
      </trkpt>
      <trkpt lat="44.35252" lon="6.35908">
        <ele>1208.4</ele>
        <time>2018-08-10T08:30:18Z</time>
      </trkpt>
      <trkpt lat="44.35251" lon="6.35912">
        <ele>1208.4</ele>
        <time>2018-08-10T08:30:20Z</time>
      </trkpt>
      <trkpt lat="44.35253" lon="6.35916">
        <ele>1209.7</ele>
        <time>2018-08-10T08:30:23Z</time>
      </trkpt>
      <trkpt lat="44.35252" lon="6.3592">
        <ele>1210.5</ele>
        <time>2018-08-10T08:30:25Z</time>
      </trkpt>
      <trkpt lat="44.35253" lon="6.35926">
        <ele>1211.4</ele>
        <time>2018-08-10T08:30:28Z</time>
      </trkpt>
      <trkpt lat="44.35253" lon="6.35931">
        <ele>1212.2</ele>
        <time>2018-08-10T08:30:31Z</time>
      </trkpt>
      <trkpt lat="44.35253" lon="6.35934">
        <ele>1213</ele>
        <time>2018-08-10T08:30:33Z</time>
      </trkpt>
      <trkpt lat="44.35253" lon="6.35939">
        <ele>1213.8</ele>
        <time>2018-08-10T08:30:36Z</time>
      </trkpt>
      <trkpt lat="44.35254" lon="6.35945">
        <ele>1214.6</ele>
        <time>2018-08-10T08:30:39Z</time>
      </trkpt>
      <trkpt lat="44.35255" lon="6.35949">
        <ele>1216</ele>
        <time>2018-08-10T08:30:42Z</time>
      </trkpt>
      <trkpt lat="44.35255" lon="6.35954">
        <ele>1216.8</ele>
        <time>2018-08-10T08:30:45Z</time>
      </trkpt>
      <trkpt lat="44.35256" lon="6.35958">
        <ele>1217.7</ele>
        <time>2018-08-10T08:30:48Z</time>
      </trkpt>
      <trkpt lat="44.35256" lon="6.35962">
        <ele>1218.6</ele>
        <time>2018-08-10T08:30:50Z</time>
      </trkpt>
      <trkpt lat="44.35256" lon="6.35966">
        <ele>1219.5</ele>
        <time>2018-08-10T08:30:52Z</time>
      </trkpt>
      <trkpt lat="44.35256" lon="6.35971">
        <ele>1220.9</ele>
        <time>2018-08-10T08:30:55Z</time>
      </trkpt>
      <trkpt lat="44.35256" lon="6.35976">
        <ele>1221.8</ele>
        <time>2018-08-10T08:30:58Z</time>
      </trkpt>
      <trkpt lat="44.35256" lon="6.35981">
        <ele>1222.7</ele>
        <time>2018-08-10T08:31:01Z</time>
      </trkpt>
      <trkpt lat="44.35255" lon="6.35985">
        <ele>1223.5</ele>
        <time>2018-08-10T08:31:04Z</time>
      </trkpt>
      <trkpt lat="44.35255" lon="6.35991">
        <ele>1224.4</ele>
        <time>2018-08-10T08:31:07Z</time>
      </trkpt>
      <trkpt lat="44.35255" lon="6.35995">
        <ele>1225.2</ele>
        <time>2018-08-10T08:31:10Z</time>
      </trkpt>
      <trkpt lat="44.35256" lon="6.36">
        <ele>1226.1</ele>
        <time>2018-08-10T08:31:13Z</time>
      </trkpt>
      <trkpt lat="44.35256" lon="6.36005">
        <ele>1226.9</ele>
        <time>2018-08-10T08:31:16Z</time>
      </trkpt>
      <trkpt lat="44.35255" lon="6.36011">
        <ele>1228.3</ele>
        <time>2018-08-10T08:31:19Z</time>
      </trkpt>
      <trkpt lat="44.35256" lon="6.36016">
        <ele>1229.2</ele>
        <time>2018-08-10T08:31:22Z</time>
      </trkpt>
      <trkpt lat="44.35256" lon="6.3602">
        <ele>1230.1</ele>
        <time>2018-08-10T08:31:24Z</time>
      </trkpt>
      <trkpt lat="44.35257" lon="6.36025">
        <ele>1231</ele>
        <time>2018-08-10T08:31:26Z</time>
      </trkpt>
      <trkpt lat="44.35257" lon="6.36029">
        <ele>1231.2</ele>
        <time>2018-08-10T08:31:28Z</time>
      </trkpt>
      <trkpt lat="44.35258" lon="6.36033">
        <ele>1231.5</ele>
        <time>2018-08-10T08:31:31Z</time>
      </trkpt>
      <trkpt lat="44.35258" lon="6.36038">
        <ele>1231.8</ele>
        <time>2018-08-10T08:31:34Z</time>
      </trkpt>
      <trkpt lat="44.35258" lon="6.36043">
        <ele>1232</ele>
        <time>2018-08-10T08:31:37Z</time>
      </trkpt>
      <trkpt lat="44.35258" lon="6.36047">
        <ele>1232.1</ele>
        <time>2018-08-10T08:31:39Z</time>
      </trkpt>
      <trkpt lat="44.35258" lon="6.36053">
        <ele>1232.3</ele>
        <time>2018-08-10T08:31:42Z</time>
      </trkpt>
      <trkpt lat="44.35258" lon="6.36057">
        <ele>1232.4</ele>
        <time>2018-08-10T08:31:44Z</time>
      </trkpt>
      <trkpt lat="44.35257" lon="6.36061">
        <ele>1232.5</ele>
        <time>2018-08-10T08:31:46Z</time>
      </trkpt>
      <trkpt lat="44.35256" lon="6.36065">
        <ele>1232.7</ele>
        <time>2018-08-10T08:31:48Z</time>
      </trkpt>
      <trkpt lat="44.35256" lon="6.36071">
        <ele>1232.9</ele>
        <time>2018-08-10T08:31:51Z</time>
      </trkpt>
      <trkpt lat="44.35256" lon="6.36076">
        <ele>1233.1</ele>
        <time>2018-08-10T08:31:53Z</time>
      </trkpt>
      <trkpt lat="44.35256" lon="6.3608">
        <ele>1233.2</ele>
        <time>2018-08-10T08:31:55Z</time>
      </trkpt>
      <trkpt lat="44.35256" lon="6.36084">
        <ele>1233.3</ele>
        <time>2018-08-10T08:31:57Z</time>
      </trkpt>
      <trkpt lat="44.35255" lon="6.36088">
        <ele>1233.5</ele>
        <time>2018-08-10T08:31:59Z</time>
      </trkpt>
      <trkpt lat="44.35256" lon="6.36094">
        <ele>1233.6</ele>
        <time>2018-08-10T08:32:02Z</time>
      </trkpt>
      <trkpt lat="44.35256" lon="6.36098">
        <ele>1233.7</ele>
        <time>2018-08-10T08:32:04Z</time>
      </trkpt>
      <trkpt lat="44.35256" lon="6.36103">
        <ele>1233.8</ele>
        <time>2018-08-10T08:32:07Z</time>
      </trkpt>
      <trkpt lat="44.35256" lon="6.36107">
        <ele>1234</ele>
        <time>2018-08-10T08:32:09Z</time>
      </trkpt>
      <trkpt lat="44.35256" lon="6.36111">
        <ele>1234.2</ele>
        <time>2018-08-10T08:32:11Z</time>
      </trkpt>
      <trkpt lat="44.35256" lon="6.36116">
        <ele>1234.6</ele>
        <time>2018-08-10T08:32:14Z</time>
      </trkpt>
      <trkpt lat="44.35257" lon="6.36121">
        <ele>1234.9</ele>
        <time>2018-08-10T08:32:17Z</time>
      </trkpt>
      <trkpt lat="44.35257" lon="6.36127">
        <ele>1235.3</ele>
        <time>2018-08-10T08:32:20Z</time>
      </trkpt>
      <trkpt lat="44.35259" lon="6.36131">
        <ele>1235.7</ele>
        <time>2018-08-10T08:32:23Z</time>
      </trkpt>
      <trkpt lat="44.35262" lon="6.36135">
        <ele>1236.2</ele>
        <time>2018-08-10T08:32:26Z</time>
      </trkpt>
      <trkpt lat="44.35265" lon="6.36138">
        <ele>1236.6</ele>
        <time>2018-08-10T08:32:29Z</time>
      </trkpt>
      <trkpt lat="44.35268" lon="6.36142">
        <ele>1236.9</ele>
        <time>2018-08-10T08:32:32Z</time>
      </trkpt>
      <trkpt lat="44.35271" lon="6.36143">
        <ele>1237.1</ele>
        <time>2018-08-10T08:32:34Z</time>
      </trkpt>
      <trkpt lat="44.35273" lon="6.36147">
        <ele>1237.4</ele>
        <time>2018-08-10T08:32:37Z</time>
      </trkpt>
      <trkpt lat="44.35274" lon="6.36151">
        <ele>1237.9</ele>
        <time>2018-08-10T08:32:59Z</time>
      </trkpt>
      <trkpt lat="44.35277" lon="6.36155">
        <ele>1238.5</ele>
        <time>2018-08-10T08:33:02Z</time>
      </trkpt>
      <trkpt lat="44.35279" lon="6.36159">
        <ele>1239.1</ele>
        <time>2018-08-10T08:33:05Z</time>
      </trkpt>
      <trkpt lat="44.3528" lon="6.36162">
        <ele>1239.7</ele>
        <time>2018-08-10T08:33:08Z</time>
      </trkpt>
      <trkpt lat="44.3528" lon="6.36166">
        <ele>1240.2</ele>
        <time>2018-08-10T08:33:10Z</time>
      </trkpt>
      <trkpt lat="44.3528" lon="6.3617">
        <ele>1240.8</ele>
        <time>2018-08-10T08:33:12Z</time>
      </trkpt>
      <trkpt lat="44.35281" lon="6.36175">
        <ele>1241.3</ele>
        <time>2018-08-10T08:33:15Z</time>
      </trkpt>
      <trkpt lat="44.35281" lon="6.36181">
        <ele>1241.8</ele>
        <time>2018-08-10T08:33:18Z</time>
      </trkpt>
      <trkpt lat="44.35279" lon="6.36185">
        <ele>1242.3</ele>
        <time>2018-08-10T08:33:20Z</time>
      </trkpt>
      <trkpt lat="44.35279" lon="6.3619">
        <ele>1242.3</ele>
        <time>2018-08-10T08:33:22Z</time>
      </trkpt>
      <trkpt lat="44.35279" lon="6.36195">
        <ele>1242.8</ele>
        <time>2018-08-10T08:33:24Z</time>
      </trkpt>
      <trkpt lat="44.35279" lon="6.36199">
        <ele>1243.4</ele>
        <time>2018-08-10T08:33:26Z</time>
      </trkpt>
      <trkpt lat="44.35278" lon="6.36204">
        <ele>1243.9</ele>
        <time>2018-08-10T08:33:29Z</time>
      </trkpt>
      <trkpt lat="44.35277" lon="6.36209">
        <ele>1244.4</ele>
        <time>2018-08-10T08:33:31Z</time>
      </trkpt>
      <trkpt lat="44.35277" lon="6.36214">
        <ele>1244.9</ele>
        <time>2018-08-10T08:33:33Z</time>
      </trkpt>
      <trkpt lat="44.35276" lon="6.3622">
        <ele>1245.3</ele>
        <time>2018-08-10T08:33:36Z</time>
      </trkpt>
      <trkpt lat="44.35276" lon="6.36224">
        <ele>1244.7</ele>
        <time>2018-08-10T08:33:38Z</time>
      </trkpt>
      <trkpt lat="44.35275" lon="6.36228">
        <ele>1245.1</ele>
        <time>2018-08-10T08:33:40Z</time>
      </trkpt>
      <trkpt lat="44.35275" lon="6.36233">
        <ele>1245.8</ele>
        <time>2018-08-10T08:33:42Z</time>
      </trkpt>
      <trkpt lat="44.35276" lon="6.36237">
        <ele>1246.1</ele>
        <time>2018-08-10T08:33:44Z</time>
      </trkpt>
      <trkpt lat="44.35275" lon="6.36242">
        <ele>1246.4</ele>
        <time>2018-08-10T08:33:46Z</time>
      </trkpt>
      <trkpt lat="44.35276" lon="6.36246">
        <ele>1246.6</ele>
        <time>2018-08-10T08:33:48Z</time>
      </trkpt>
      <trkpt lat="44.35277" lon="6.3625">
        <ele>1247.6</ele>
        <time>2018-08-10T08:33:50Z</time>
      </trkpt>
      <trkpt lat="44.35277" lon="6.36254">
        <ele>1247.6</ele>
        <time>2018-08-10T08:33:52Z</time>
      </trkpt>
      <trkpt lat="44.35277" lon="6.36258">
        <ele>1247.7</ele>
        <time>2018-08-10T08:33:54Z</time>
      </trkpt>
      <trkpt lat="44.35277" lon="6.36263">
        <ele>1247.8</ele>
        <time>2018-08-10T08:33:56Z</time>
      </trkpt>
      <trkpt lat="44.35277" lon="6.36269">
        <ele>1247.8</ele>
        <time>2018-08-10T08:33:59Z</time>
      </trkpt>
      <trkpt lat="44.35278" lon="6.36273">
        <ele>1247.8</ele>
        <time>2018-08-10T08:34:01Z</time>
      </trkpt>
      <trkpt lat="44.35279" lon="6.36277">
        <ele>1247.7</ele>
        <time>2018-08-10T08:34:03Z</time>
      </trkpt>
      <trkpt lat="44.3528" lon="6.36282">
        <ele>1248.5</ele>
        <time>2018-08-10T08:34:05Z</time>
      </trkpt>
      <trkpt lat="44.35281" lon="6.36287">
        <ele>1248.5</ele>
        <time>2018-08-10T08:34:07Z</time>
      </trkpt>
      <trkpt lat="44.35282" lon="6.36292">
        <ele>1248.4</ele>
        <time>2018-08-10T08:34:09Z</time>
      </trkpt>
      <trkpt lat="44.35284" lon="6.36297">
        <ele>1249.1</ele>
        <time>2018-08-10T08:34:11Z</time>
      </trkpt>
      <trkpt lat="44.35286" lon="6.36301">
        <ele>1249.8</ele>
        <time>2018-08-10T08:34:13Z</time>
      </trkpt>
      <trkpt lat="44.35289" lon="6.36303">
        <ele>1250.5</ele>
        <time>2018-08-10T08:34:15Z</time>
      </trkpt>
      <trkpt lat="44.35291" lon="6.36308">
        <ele>1250.4</ele>
        <time>2018-08-10T08:34:17Z</time>
      </trkpt>
      <trkpt lat="44.35293" lon="6.36311">
        <ele>1251.1</ele>
        <time>2018-08-10T08:34:19Z</time>
      </trkpt>
      <trkpt lat="44.35295" lon="6.36315">
        <ele>1251.7</ele>
        <time>2018-08-10T08:34:22Z</time>
      </trkpt>
      <trkpt lat="44.35297" lon="6.36319">
        <ele>1251.7</ele>
        <time>2018-08-10T08:34:24Z</time>
      </trkpt>
      <trkpt lat="44.35299" lon="6.36324">
        <ele>1252.5</ele>
        <time>2018-08-10T08:34:26Z</time>
      </trkpt>
      <trkpt lat="44.353" lon="6.36328">
        <ele>1252.5</ele>
        <time>2018-08-10T08:34:28Z</time>
      </trkpt>
      <trkpt lat="44.35301" lon="6.36332">
        <ele>1253.4</ele>
        <time>2018-08-10T08:34:30Z</time>
      </trkpt>
      <trkpt lat="44.35302" lon="6.36336">
        <ele>1253.5</ele>
        <time>2018-08-10T08:34:32Z</time>
      </trkpt>
      <trkpt lat="44.35303" lon="6.3634">
        <ele>1253.5</ele>
        <time>2018-08-10T08:34:34Z</time>
      </trkpt>
      <trkpt lat="44.35303" lon="6.36345">
        <ele>1253.6</ele>
        <time>2018-08-10T08:34:36Z</time>
      </trkpt>
      <trkpt lat="44.35304" lon="6.36349">
        <ele>1254.7</ele>
        <time>2018-08-10T08:34:38Z</time>
      </trkpt>
      <trkpt lat="44.35303" lon="6.36353">
        <ele>1253.8</ele>
        <time>2018-08-10T08:34:41Z</time>
      </trkpt>
      <trkpt lat="44.35303" lon="6.36358">
        <ele>1254</ele>
        <time>2018-08-10T08:34:44Z</time>
      </trkpt>
      <trkpt lat="44.35301" lon="6.36363">
        <ele>1254.1</ele>
        <time>2018-08-10T08:34:47Z</time>
      </trkpt>
      <trkpt lat="44.353" lon="6.36366">
        <ele>1253.4</ele>
        <time>2018-08-10T08:34:49Z</time>
      </trkpt>
      <trkpt lat="44.35297" lon="6.36371">
        <ele>1252.7</ele>
        <time>2018-08-10T08:34:53Z</time>
      </trkpt>
      <trkpt lat="44.35298" lon="6.36376">
        <ele>1253.6</ele>
        <time>2018-08-10T08:34:57Z</time>
      </trkpt>
      <trkpt lat="44.353" lon="6.36381">
        <ele>1253.8</ele>
        <time>2018-08-10T08:35:00Z</time>
      </trkpt>
      <trkpt lat="44.35302" lon="6.36383">
        <ele>1254.8</ele>
        <time>2018-08-10T08:35:02Z</time>
      </trkpt>
      <trkpt lat="44.35304" lon="6.36387">
        <ele>1255.7</ele>
        <time>2018-08-10T08:35:04Z</time>
      </trkpt>
      <trkpt lat="44.35305" lon="6.36391">
        <ele>1255.9</ele>
        <time>2018-08-10T08:35:06Z</time>
      </trkpt>
      <trkpt lat="44.35306" lon="6.36395">
        <ele>1256</ele>
        <time>2018-08-10T08:35:08Z</time>
      </trkpt>
      <trkpt lat="44.35308" lon="6.36399">
        <ele>1257.2</ele>
        <time>2018-08-10T08:35:11Z</time>
      </trkpt>
      <trkpt lat="44.3531" lon="6.36403">
        <ele>1257.4</ele>
        <time>2018-08-10T08:35:14Z</time>
      </trkpt>
      <trkpt lat="44.35312" lon="6.36407">
        <ele>1258.6</ele>
        <time>2018-08-10T08:35:17Z</time>
      </trkpt>
      <trkpt lat="44.35314" lon="6.36411">
        <ele>1259.8</ele>
        <time>2018-08-10T08:35:20Z</time>
      </trkpt>
      <trkpt lat="44.35317" lon="6.36414">
        <ele>1260.9</ele>
        <time>2018-08-10T08:35:23Z</time>
      </trkpt>
      <trkpt lat="44.3532" lon="6.36416">
        <ele>1261.7</ele>
        <time>2018-08-10T08:35:26Z</time>
      </trkpt>
      <trkpt lat="44.35324" lon="6.36416">
        <ele>1262.6</ele>
        <time>2018-08-10T08:35:29Z</time>
      </trkpt>
      <trkpt lat="44.35327" lon="6.36417">
        <ele>1263.5</ele>
        <time>2018-08-10T08:35:31Z</time>
      </trkpt>
      <trkpt lat="44.3533" lon="6.36417">
        <ele>1264.4</ele>
        <time>2018-08-10T08:35:33Z</time>
      </trkpt>
      <trkpt lat="44.35333" lon="6.36418">
        <ele>1265.7</ele>
        <time>2018-08-10T08:35:35Z</time>
      </trkpt>
      <trkpt lat="44.35336" lon="6.36418">
        <ele>1266.7</ele>
        <time>2018-08-10T08:35:37Z</time>
      </trkpt>
      <trkpt lat="44.3534" lon="6.36419">
        <ele>1267.5</ele>
        <time>2018-08-10T08:35:40Z</time>
      </trkpt>
      <trkpt lat="44.35342" lon="6.36418">
        <ele>1268.3</ele>
        <time>2018-08-10T08:35:43Z</time>
      </trkpt>
      <trkpt lat="44.35345" lon="6.36415">
        <ele>1268.8</ele>
        <time>2018-08-10T08:35:46Z</time>
      </trkpt>
      <trkpt lat="44.35349" lon="6.36416">
        <ele>1269.5</ele>
        <time>2018-08-10T08:35:49Z</time>
      </trkpt>
      <trkpt lat="44.35352" lon="6.36415">
        <ele>1270.3</ele>
        <time>2018-08-10T08:35:51Z</time>
      </trkpt>
      <trkpt lat="44.35356" lon="6.36416">
        <ele>1271.1</ele>
        <time>2018-08-10T08:35:53Z</time>
      </trkpt>
      <trkpt lat="44.35359" lon="6.36415">
        <ele>1271.9</ele>
        <time>2018-08-10T08:35:55Z</time>
      </trkpt>
      <trkpt lat="44.35362" lon="6.36415">
        <ele>1272.7</ele>
        <time>2018-08-10T08:35:58Z</time>
      </trkpt>
      <trkpt lat="44.35365" lon="6.36412">
        <ele>1274.1</ele>
        <time>2018-08-10T08:36:00Z</time>
      </trkpt>
      <trkpt lat="44.35369" lon="6.36412">
        <ele>1274.8</ele>
        <time>2018-08-10T08:36:03Z</time>
      </trkpt>
      <trkpt lat="44.35372" lon="6.3641">
        <ele>1275.5</ele>
        <time>2018-08-10T08:36:05Z</time>
      </trkpt>
      <trkpt lat="44.35375" lon="6.3641">
        <ele>1276.1</ele>
        <time>2018-08-10T08:36:07Z</time>
      </trkpt>
      <trkpt lat="44.35378" lon="6.36413">
        <ele>1276.8</ele>
        <time>2018-08-10T08:36:10Z</time>
      </trkpt>
      <trkpt lat="44.35381" lon="6.36413">
        <ele>1277.3</ele>
        <time>2018-08-10T08:36:13Z</time>
      </trkpt>
      <trkpt lat="44.35384" lon="6.36414">
        <ele>1277.8</ele>
        <time>2018-08-10T08:36:16Z</time>
      </trkpt>
      <trkpt lat="44.35387" lon="6.36415">
        <ele>1278.4</ele>
        <time>2018-08-10T08:36:19Z</time>
      </trkpt>
      <trkpt lat="44.3539" lon="6.36415">
        <ele>1279</ele>
        <time>2018-08-10T08:36:22Z</time>
      </trkpt>
      <trkpt lat="44.35395" lon="6.36415">
        <ele>1279.5</ele>
        <time>2018-08-10T08:36:25Z</time>
      </trkpt>
      <trkpt lat="44.35396" lon="6.36418">
        <ele>1279.9</ele>
        <time>2018-08-10T08:36:28Z</time>
      </trkpt>
      <trkpt lat="44.354" lon="6.36418">
        <ele>1280.3</ele>
        <time>2018-08-10T08:36:31Z</time>
      </trkpt>
      <trkpt lat="44.35405" lon="6.36421">
        <ele>1280.8</ele>
        <time>2018-08-10T08:37:18Z</time>
      </trkpt>
      <trkpt lat="44.35408" lon="6.36422">
        <ele>1281.6</ele>
        <time>2018-08-10T08:37:22Z</time>
      </trkpt>
      <trkpt lat="44.35412" lon="6.36422">
        <ele>1281.8</ele>
        <time>2018-08-10T08:37:25Z</time>
      </trkpt>
      <trkpt lat="44.35414" lon="6.36423">
        <ele>1282.2</ele>
        <time>2018-08-10T08:37:28Z</time>
      </trkpt>
      <trkpt lat="44.35418" lon="6.36423">
        <ele>1282.7</ele>
        <time>2018-08-10T08:37:31Z</time>
      </trkpt>
      <trkpt lat="44.35422" lon="6.36424">
        <ele>1283.2</ele>
        <time>2018-08-10T08:37:34Z</time>
      </trkpt>
      <trkpt lat="44.35425" lon="6.36424">
        <ele>1283.6</ele>
        <time>2018-08-10T08:37:37Z</time>
      </trkpt>
      <trkpt lat="44.35428" lon="6.36424">
        <ele>1284</ele>
        <time>2018-08-10T08:37:40Z</time>
      </trkpt>
      <trkpt lat="44.35431" lon="6.36424">
        <ele>1284.3</ele>
        <time>2018-08-10T08:37:42Z</time>
      </trkpt>
      <trkpt lat="44.35434" lon="6.36425">
        <ele>1284.7</ele>
        <time>2018-08-10T08:37:45Z</time>
      </trkpt>
      <trkpt lat="44.35438" lon="6.36426">
        <ele>1285.1</ele>
        <time>2018-08-10T08:37:48Z</time>
      </trkpt>
      <trkpt lat="44.35441" lon="6.36426">
        <ele>1285.4</ele>
        <time>2018-08-10T08:37:51Z</time>
      </trkpt>
      <trkpt lat="44.35444" lon="6.36428">
        <ele>1285.7</ele>
        <time>2018-08-10T08:37:55Z</time>
      </trkpt>
      <trkpt lat="44.35448" lon="6.36429">
        <ele>1286.1</ele>
        <time>2018-08-10T08:37:58Z</time>
      </trkpt>
      <trkpt lat="44.3545" lon="6.36429">
        <ele>1286.4</ele>
        <time>2018-08-10T08:38:00Z</time>
      </trkpt>
      <trkpt lat="44.35453" lon="6.36429">
        <ele>1286.7</ele>
        <time>2018-08-10T08:38:02Z</time>
      </trkpt>
      <trkpt lat="44.35456" lon="6.3643">
        <ele>1287</ele>
        <time>2018-08-10T08:38:05Z</time>
      </trkpt>
      <trkpt lat="44.35459" lon="6.3643">
        <ele>1287.3</ele>
        <time>2018-08-10T08:38:07Z</time>
      </trkpt>
      <trkpt lat="44.35462" lon="6.36432">
        <ele>1287.6</ele>
        <time>2018-08-10T08:38:10Z</time>
      </trkpt>
      <trkpt lat="44.35465" lon="6.36433">
        <ele>1287.9</ele>
        <time>2018-08-10T08:38:12Z</time>
      </trkpt>
      <trkpt lat="44.35468" lon="6.36433">
        <ele>1288.2</ele>
        <time>2018-08-10T08:38:16Z</time>
      </trkpt>
      <trkpt lat="44.35471" lon="6.36433">
        <ele>1288.5</ele>
        <time>2018-08-10T08:38:19Z</time>
      </trkpt>
      <trkpt lat="44.35474" lon="6.36434">
        <ele>1288.8</ele>
        <time>2018-08-10T08:38:23Z</time>
      </trkpt>
      <trkpt lat="44.35478" lon="6.36434">
        <ele>1289.3</ele>
        <time>2018-08-10T08:38:27Z</time>
      </trkpt>
      <trkpt lat="44.35481" lon="6.36435">
        <ele>1289.6</ele>
        <time>2018-08-10T08:38:30Z</time>
      </trkpt>
      <trkpt lat="44.35484" lon="6.36433">
        <ele>1289.9</ele>
        <time>2018-08-10T08:38:33Z</time>
      </trkpt>
      <trkpt lat="44.35487" lon="6.36432">
        <ele>1290.2</ele>
        <time>2018-08-10T08:38:35Z</time>
      </trkpt>
      <trkpt lat="44.3549" lon="6.36431">
        <ele>1290.6</ele>
        <time>2018-08-10T08:38:38Z</time>
      </trkpt>
      <trkpt lat="44.35494" lon="6.3643">
        <ele>1290.9</ele>
        <time>2018-08-10T08:38:41Z</time>
      </trkpt>
      <trkpt lat="44.35498" lon="6.36427">
        <ele>1291.4</ele>
        <time>2018-08-10T08:38:44Z</time>
      </trkpt>
      <trkpt lat="44.35502" lon="6.36426">
        <ele>1291.8</ele>
        <time>2018-08-10T08:38:48Z</time>
      </trkpt>
      <trkpt lat="44.35505" lon="6.36424">
        <ele>1292.2</ele>
        <time>2018-08-10T08:38:51Z</time>
      </trkpt>
      <trkpt lat="44.35507" lon="6.36422">
        <ele>1292.5</ele>
        <time>2018-08-10T08:38:53Z</time>
      </trkpt>
      <trkpt lat="44.3551" lon="6.36422">
        <ele>1292.8</ele>
        <time>2018-08-10T08:38:55Z</time>
      </trkpt>
      <trkpt lat="44.35513" lon="6.36422">
        <ele>1293.1</ele>
        <time>2018-08-10T08:38:57Z</time>
      </trkpt>
      <trkpt lat="44.35517" lon="6.36421">
        <ele>1293.5</ele>
        <time>2018-08-10T08:38:59Z</time>
      </trkpt>
      <trkpt lat="44.3552" lon="6.36421">
        <ele>1293.8</ele>
        <time>2018-08-10T08:39:01Z</time>
      </trkpt>
      <trkpt lat="44.35524" lon="6.36421">
        <ele>1294.2</ele>
        <time>2018-08-10T08:39:04Z</time>
      </trkpt>
      <trkpt lat="44.35527" lon="6.3642">
        <ele>1294.6</ele>
        <time>2018-08-10T08:39:06Z</time>
      </trkpt>
      <trkpt lat="44.35531" lon="6.36419">
        <ele>1295</ele>
        <time>2018-08-10T08:39:08Z</time>
      </trkpt>
      <trkpt lat="44.35535" lon="6.36419">
        <ele>1295.4</ele>
        <time>2018-08-10T08:39:10Z</time>
      </trkpt>
      <trkpt lat="44.35538" lon="6.36419">
        <ele>1295.8</ele>
        <time>2018-08-10T08:39:12Z</time>
      </trkpt>
      <trkpt lat="44.35542" lon="6.3642">
        <ele>1296.2</ele>
        <time>2018-08-10T08:39:14Z</time>
      </trkpt>
      <trkpt lat="44.35545" lon="6.36419">
        <ele>1296.5</ele>
        <time>2018-08-10T08:39:16Z</time>
      </trkpt>
      <trkpt lat="44.35548" lon="6.3642">
        <ele>1296.9</ele>
        <time>2018-08-10T08:39:18Z</time>
      </trkpt>
      <trkpt lat="44.35551" lon="6.36422">
        <ele>1297.2</ele>
        <time>2018-08-10T08:39:20Z</time>
      </trkpt>
      <trkpt lat="44.35554" lon="6.36424">
        <ele>1297.6</ele>
        <time>2018-08-10T08:39:22Z</time>
      </trkpt>
      <trkpt lat="44.35558" lon="6.36426">
        <ele>1298</ele>
        <time>2018-08-10T08:39:24Z</time>
      </trkpt>
      <trkpt lat="44.35561" lon="6.36428">
        <ele>1298.4</ele>
        <time>2018-08-10T08:39:26Z</time>
      </trkpt>
      <trkpt lat="44.35564" lon="6.36428">
        <ele>1298.8</ele>
        <time>2018-08-10T08:39:28Z</time>
      </trkpt>
      <trkpt lat="44.35568" lon="6.3643">
        <ele>1299.2</ele>
        <time>2018-08-10T08:39:30Z</time>
      </trkpt>
      <trkpt lat="44.35571" lon="6.36431">
        <ele>1299.6</ele>
        <time>2018-08-10T08:39:32Z</time>
      </trkpt>
      <trkpt lat="44.35575" lon="6.36431">
        <ele>1300.1</ele>
        <time>2018-08-10T08:39:34Z</time>
      </trkpt>
      <trkpt lat="44.35578" lon="6.36432">
        <ele>1300.5</ele>
        <time>2018-08-10T08:39:36Z</time>
      </trkpt>
      <trkpt lat="44.35582" lon="6.36434">
        <ele>1300.9</ele>
        <time>2018-08-10T08:39:38Z</time>
      </trkpt>
      <trkpt lat="44.35586" lon="6.36437">
        <ele>1301.5</ele>
        <time>2018-08-10T08:39:40Z</time>
      </trkpt>
      <trkpt lat="44.35589" lon="6.36438">
        <ele>1301.9</ele>
        <time>2018-08-10T08:39:42Z</time>
      </trkpt>
      <trkpt lat="44.35593" lon="6.3644">
        <ele>1302.4</ele>
        <time>2018-08-10T08:39:45Z</time>
      </trkpt>
      <trkpt lat="44.35597" lon="6.36442">
        <ele>1302.8</ele>
        <time>2018-08-10T08:39:47Z</time>
      </trkpt>
      <trkpt lat="44.356" lon="6.36443">
        <ele>1303.2</ele>
        <time>2018-08-10T08:39:49Z</time>
      </trkpt>
      <trkpt lat="44.35603" lon="6.36445">
        <ele>1303.7</ele>
        <time>2018-08-10T08:39:51Z</time>
      </trkpt>
      <trkpt lat="44.35607" lon="6.36446">
        <ele>1304.2</ele>
        <time>2018-08-10T08:39:53Z</time>
      </trkpt>
      <trkpt lat="44.35611" lon="6.36446">
        <ele>1304.6</ele>
        <time>2018-08-10T08:39:55Z</time>
      </trkpt>
      <trkpt lat="44.35614" lon="6.36448">
        <ele>1305.1</ele>
        <time>2018-08-10T08:39:57Z</time>
      </trkpt>
      <trkpt lat="44.35617" lon="6.36449">
        <ele>1305.5</ele>
        <time>2018-08-10T08:39:59Z</time>
      </trkpt>
      <trkpt lat="44.35621" lon="6.3645">
        <ele>1306</ele>
        <time>2018-08-10T08:40:01Z</time>
      </trkpt>
      <trkpt lat="44.35624" lon="6.36452">
        <ele>1306.4</ele>
        <time>2018-08-10T08:40:03Z</time>
      </trkpt>
      <trkpt lat="44.35627" lon="6.36452">
        <ele>1306.9</ele>
        <time>2018-08-10T08:40:05Z</time>
      </trkpt>
      <trkpt lat="44.35631" lon="6.36453">
        <ele>1307.4</ele>
        <time>2018-08-10T08:40:07Z</time>
      </trkpt>
      <trkpt lat="44.35635" lon="6.36454">
        <ele>1308</ele>
        <time>2018-08-10T08:40:09Z</time>
      </trkpt>
      <trkpt lat="44.35638" lon="6.36457">
        <ele>1308.5</ele>
        <time>2018-08-10T08:40:11Z</time>
      </trkpt>
      <trkpt lat="44.35641" lon="6.36458">
        <ele>1308.9</ele>
        <time>2018-08-10T08:40:13Z</time>
      </trkpt>
      <trkpt lat="44.35644" lon="6.36461">
        <ele>1309.4</ele>
        <time>2018-08-10T08:40:15Z</time>
      </trkpt>
      <trkpt lat="44.35648" lon="6.36464">
        <ele>1309.8</ele>
        <time>2018-08-10T08:40:17Z</time>
      </trkpt>
      <trkpt lat="44.35651" lon="6.36468">
        <ele>1310.1</ele>
        <time>2018-08-10T08:40:19Z</time>
      </trkpt>
      <trkpt lat="44.35653" lon="6.36471">
        <ele>1310.3</ele>
        <time>2018-08-10T08:40:21Z</time>
      </trkpt>
      <trkpt lat="44.35655" lon="6.36475">
        <ele>1311</ele>
        <time>2018-08-10T08:40:23Z</time>
      </trkpt>
      <trkpt lat="44.35657" lon="6.36477">
        <ele>1311</ele>
        <time>2018-08-10T08:40:25Z</time>
      </trkpt>
      <trkpt lat="44.35658" lon="6.36481">
        <ele>1311</ele>
        <time>2018-08-10T08:40:27Z</time>
      </trkpt>
      <trkpt lat="44.35658" lon="6.36486">
        <ele>1311</ele>
        <time>2018-08-10T08:40:29Z</time>
      </trkpt>
      <trkpt lat="44.35659" lon="6.3649">
        <ele>1311</ele>
        <time>2018-08-10T08:40:31Z</time>
      </trkpt>
      <trkpt lat="44.35661" lon="6.36493">
        <ele>1311</ele>
        <time>2018-08-10T08:40:33Z</time>
      </trkpt>
      <trkpt lat="44.35661" lon="6.36488">
        <ele>1311</ele>
        <time>2018-08-10T08:40:46Z</time>
      </trkpt>
      <trkpt lat="44.35663" lon="6.36484">
        <ele>1311</ele>
        <time>2018-08-10T08:40:54Z</time>
      </trkpt>
      <trkpt lat="44.35659" lon="6.36484">
        <ele>1311.2</ele>
        <time>2018-08-10T08:40:55Z</time>
      </trkpt>
      <trkpt lat="44.35657" lon="6.36488">
        <ele>1311.5</ele>
        <time>2018-08-10T08:40:57Z</time>
      </trkpt>
      <trkpt lat="44.35656" lon="6.36492">
        <ele>1311.7</ele>
        <time>2018-08-10T08:40:59Z</time>
      </trkpt>
      <trkpt lat="44.35654" lon="6.36498">
        <ele>1312</ele>
        <time>2018-08-10T08:41:01Z</time>
      </trkpt>
      <trkpt lat="44.35652" lon="6.36503">
        <ele>1312.2</ele>
        <time>2018-08-10T08:41:03Z</time>
      </trkpt>
      <trkpt lat="44.35649" lon="6.36509">
        <ele>1312.5</ele>
        <time>2018-08-10T08:41:05Z</time>
      </trkpt>
      <trkpt lat="44.35647" lon="6.36512">
        <ele>1312.8</ele>
        <time>2018-08-10T08:41:06Z</time>
      </trkpt>
      <trkpt lat="44.35645" lon="6.36515">
        <ele>1313</ele>
        <time>2018-08-10T08:41:07Z</time>
      </trkpt>
      <trkpt lat="44.35642" lon="6.3652">
        <ele>1313.3</ele>
        <time>2018-08-10T08:41:09Z</time>
      </trkpt>
      <trkpt lat="44.35639" lon="6.36526">
        <ele>1313.6</ele>
        <time>2018-08-10T08:41:11Z</time>
      </trkpt>
      <trkpt lat="44.35634" lon="6.36531">
        <ele>1313.9</ele>
        <time>2018-08-10T08:41:13Z</time>
      </trkpt>
      <trkpt lat="44.35633" lon="6.36534">
        <ele>1314.1</ele>
        <time>2018-08-10T08:41:14Z</time>
      </trkpt>
      <trkpt lat="44.3563" lon="6.36536">
        <ele>1314.3</ele>
        <time>2018-08-10T08:41:15Z</time>
      </trkpt>
      <trkpt lat="44.35628" lon="6.36539">
        <ele>1314.4</ele>
        <time>2018-08-10T08:41:16Z</time>
      </trkpt>
      <trkpt lat="44.35623" lon="6.36544">
        <ele>1314.8</ele>
        <time>2018-08-10T08:41:18Z</time>
      </trkpt>
      <trkpt lat="44.35621" lon="6.36546">
        <ele>1315</ele>
        <time>2018-08-10T08:41:19Z</time>
      </trkpt>
      <trkpt lat="44.35618" lon="6.36548">
        <ele>1315.2</ele>
        <time>2018-08-10T08:41:20Z</time>
      </trkpt>
      <trkpt lat="44.35615" lon="6.36549">
        <ele>1315.4</ele>
        <time>2018-08-10T08:41:21Z</time>
      </trkpt>
      <trkpt lat="44.35611" lon="6.36552">
        <ele>1315.6</ele>
        <time>2018-08-10T08:41:23Z</time>
      </trkpt>
      <trkpt lat="44.35607" lon="6.36556">
        <ele>1315.8</ele>
        <time>2018-08-10T08:41:25Z</time>
      </trkpt>
      <trkpt lat="44.35602" lon="6.3656">
        <ele>1316.1</ele>
        <time>2018-08-10T08:41:27Z</time>
      </trkpt>
      <trkpt lat="44.356" lon="6.36561">
        <ele>1316.2</ele>
        <time>2018-08-10T08:41:28Z</time>
      </trkpt>
      <trkpt lat="44.35595" lon="6.36564">
        <ele>1316.5</ele>
        <time>2018-08-10T08:41:30Z</time>
      </trkpt>
      <trkpt lat="44.35591" lon="6.36567">
        <ele>1316.9</ele>
        <time>2018-08-10T08:41:32Z</time>
      </trkpt>
      <trkpt lat="44.35589" lon="6.36568">
        <ele>1317.1</ele>
        <time>2018-08-10T08:41:33Z</time>
      </trkpt>
      <trkpt lat="44.35584" lon="6.36571">
        <ele>1317.4</ele>
        <time>2018-08-10T08:41:35Z</time>
      </trkpt>
      <trkpt lat="44.3558" lon="6.36574">
        <ele>1317.7</ele>
        <time>2018-08-10T08:41:37Z</time>
      </trkpt>
      <trkpt lat="44.35577" lon="6.36578">
        <ele>1318</ele>
        <time>2018-08-10T08:41:39Z</time>
      </trkpt>
      <trkpt lat="44.35575" lon="6.36581">
        <ele>1318.2</ele>
        <time>2018-08-10T08:41:40Z</time>
      </trkpt>
      <trkpt lat="44.35573" lon="6.36583">
        <ele>1318.4</ele>
        <time>2018-08-10T08:41:41Z</time>
      </trkpt>
      <trkpt lat="44.35569" lon="6.36587">
        <ele>1318.7</ele>
        <time>2018-08-10T08:41:43Z</time>
      </trkpt>
      <trkpt lat="44.35566" lon="6.36593">
        <ele>1319.1</ele>
        <time>2018-08-10T08:41:45Z</time>
      </trkpt>
      <trkpt lat="44.35564" lon="6.36598">
        <ele>1319.4</ele>
        <time>2018-08-10T08:41:47Z</time>
      </trkpt>
      <trkpt lat="44.35561" lon="6.36604">
        <ele>1319.7</ele>
        <time>2018-08-10T08:41:49Z</time>
      </trkpt>
      <trkpt lat="44.35558" lon="6.3661">
        <ele>1319.9</ele>
        <time>2018-08-10T08:41:51Z</time>
      </trkpt>
      <trkpt lat="44.35556" lon="6.36617">
        <ele>1320.2</ele>
        <time>2018-08-10T08:41:53Z</time>
      </trkpt>
      <trkpt lat="44.35555" lon="6.36621">
        <ele>1320.4</ele>
        <time>2018-08-10T08:41:54Z</time>
      </trkpt>
      <trkpt lat="44.35554" lon="6.36625">
        <ele>1320.6</ele>
        <time>2018-08-10T08:41:55Z</time>
      </trkpt>
      <trkpt lat="44.35553" lon="6.36629">
        <ele>1320.8</ele>
        <time>2018-08-10T08:41:56Z</time>
      </trkpt>
      <trkpt lat="44.35553" lon="6.36634">
        <ele>1321</ele>
        <time>2018-08-10T08:41:58Z</time>
      </trkpt>
      <trkpt lat="44.35553" lon="6.36638">
        <ele>1321.1</ele>
        <time>2018-08-10T08:41:59Z</time>
      </trkpt>
      <trkpt lat="44.35554" lon="6.36645">
        <ele>1321.3</ele>
        <time>2018-08-10T08:42:01Z</time>
      </trkpt>
      <trkpt lat="44.35554" lon="6.36652">
        <ele>1321.6</ele>
        <time>2018-08-10T08:42:03Z</time>
      </trkpt>
      <trkpt lat="44.35554" lon="6.36659">
        <ele>1321.7</ele>
        <time>2018-08-10T08:42:05Z</time>
      </trkpt>
      <trkpt lat="44.35553" lon="6.36663">
        <ele>1321.8</ele>
        <time>2018-08-10T08:42:06Z</time>
      </trkpt>
      <trkpt lat="44.35552" lon="6.36667">
        <ele>1321.9</ele>
        <time>2018-08-10T08:42:07Z</time>
      </trkpt>
      <trkpt lat="44.35552" lon="6.36674">
        <ele>1322.1</ele>
        <time>2018-08-10T08:42:09Z</time>
      </trkpt>
      <trkpt lat="44.35552" lon="6.3668">
        <ele>1322.1</ele>
        <time>2018-08-10T08:42:11Z</time>
      </trkpt>
      <trkpt lat="44.3555" lon="6.36685">
        <ele>1322.2</ele>
        <time>2018-08-10T08:42:13Z</time>
      </trkpt>
      <trkpt lat="44.35547" lon="6.36692">
        <ele>1322.2</ele>
        <time>2018-08-10T08:42:15Z</time>
      </trkpt>
      <trkpt lat="44.35545" lon="6.36699">
        <ele>1322.3</ele>
        <time>2018-08-10T08:42:17Z</time>
      </trkpt>
      <trkpt lat="44.35543" lon="6.36705">
        <ele>1322.4</ele>
        <time>2018-08-10T08:42:19Z</time>
      </trkpt>
      <trkpt lat="44.3554" lon="6.36712">
        <ele>1322.4</ele>
        <time>2018-08-10T08:42:21Z</time>
      </trkpt>
      <trkpt lat="44.35537" lon="6.36717">
        <ele>1322.5</ele>
        <time>2018-08-10T08:42:23Z</time>
      </trkpt>
      <trkpt lat="44.35534" lon="6.36723">
        <ele>1322.5</ele>
        <time>2018-08-10T08:42:25Z</time>
      </trkpt>
      <trkpt lat="44.35532" lon="6.36728">
        <ele>1322.5</ele>
        <time>2018-08-10T08:42:27Z</time>
      </trkpt>
      <trkpt lat="44.35529" lon="6.36733">
        <ele>1322.6</ele>
        <time>2018-08-10T08:42:29Z</time>
      </trkpt>
      <trkpt lat="44.35527" lon="6.36737">
        <ele>1322.6</ele>
        <time>2018-08-10T08:42:30Z</time>
      </trkpt>
      <trkpt lat="44.35525" lon="6.3674">
        <ele>1322.6</ele>
        <time>2018-08-10T08:42:31Z</time>
      </trkpt>
      <trkpt lat="44.35523" lon="6.36744">
        <ele>1322.6</ele>
        <time>2018-08-10T08:42:32Z</time>
      </trkpt>
      <trkpt lat="44.35521" lon="6.36748">
        <ele>1322.6</ele>
        <time>2018-08-10T08:42:33Z</time>
      </trkpt>
      <trkpt lat="44.35519" lon="6.36752">
        <ele>1322.6</ele>
        <time>2018-08-10T08:42:34Z</time>
      </trkpt>
      <trkpt lat="44.35518" lon="6.36756">
        <ele>1322.7</ele>
        <time>2018-08-10T08:42:35Z</time>
      </trkpt>
      <trkpt lat="44.35517" lon="6.36759">
        <ele>1322.7</ele>
        <time>2018-08-10T08:42:36Z</time>
      </trkpt>
      <trkpt lat="44.35516" lon="6.36764">
        <ele>1322.7</ele>
        <time>2018-08-10T08:42:37Z</time>
      </trkpt>
      <trkpt lat="44.35515" lon="6.36769">
        <ele>1322.7</ele>
        <time>2018-08-10T08:42:38Z</time>
      </trkpt>
      <trkpt lat="44.35513" lon="6.36773">
        <ele>1322.7</ele>
        <time>2018-08-10T08:42:39Z</time>
      </trkpt>
      <trkpt lat="44.35512" lon="6.36777">
        <ele>1322.7</ele>
        <time>2018-08-10T08:42:40Z</time>
      </trkpt>
      <trkpt lat="44.35511" lon="6.36781">
        <ele>1322.7</ele>
        <time>2018-08-10T08:42:41Z</time>
      </trkpt>
      <trkpt lat="44.35509" lon="6.36784">
        <ele>1322.8</ele>
        <time>2018-08-10T08:42:42Z</time>
      </trkpt>
      <trkpt lat="44.35508" lon="6.36788">
        <ele>1322.8</ele>
        <time>2018-08-10T08:42:43Z</time>
      </trkpt>
      <trkpt lat="44.35507" lon="6.36791">
        <ele>1322.8</ele>
        <time>2018-08-10T08:42:44Z</time>
      </trkpt>
      <trkpt lat="44.35506" lon="6.36795">
        <ele>1322.8</ele>
        <time>2018-08-10T08:42:45Z</time>
      </trkpt>
      <trkpt lat="44.35504" lon="6.368">
        <ele>1322.8</ele>
        <time>2018-08-10T08:42:46Z</time>
      </trkpt>
      <trkpt lat="44.35503" lon="6.36804">
        <ele>1322.8</ele>
        <time>2018-08-10T08:42:47Z</time>
      </trkpt>
      <trkpt lat="44.35502" lon="6.36808">
        <ele>1322.8</ele>
        <time>2018-08-10T08:42:48Z</time>
      </trkpt>
      <trkpt lat="44.35501" lon="6.36812">
        <ele>1322.9</ele>
        <time>2018-08-10T08:42:49Z</time>
      </trkpt>
      <trkpt lat="44.35499" lon="6.36816">
        <ele>1322.9</ele>
        <time>2018-08-10T08:42:50Z</time>
      </trkpt>
      <trkpt lat="44.35498" lon="6.3682">
        <ele>1322.9</ele>
        <time>2018-08-10T08:42:51Z</time>
      </trkpt>
      <trkpt lat="44.35496" lon="6.36825">
        <ele>1322.9</ele>
        <time>2018-08-10T08:42:52Z</time>
      </trkpt>
      <trkpt lat="44.35495" lon="6.36828">
        <ele>1322.9</ele>
        <time>2018-08-10T08:42:53Z</time>
      </trkpt>
      <trkpt lat="44.35493" lon="6.36833">
        <ele>1322.9</ele>
        <time>2018-08-10T08:42:54Z</time>
      </trkpt>
      <trkpt lat="44.35492" lon="6.36837">
        <ele>1323</ele>
        <time>2018-08-10T08:42:55Z</time>
      </trkpt>
      <trkpt lat="44.35491" lon="6.36841">
        <ele>1323</ele>
        <time>2018-08-10T08:42:56Z</time>
      </trkpt>
      <trkpt lat="44.3549" lon="6.36844">
        <ele>1323</ele>
        <time>2018-08-10T08:42:57Z</time>
      </trkpt>
      <trkpt lat="44.35488" lon="6.36849">
        <ele>1323</ele>
        <time>2018-08-10T08:42:58Z</time>
      </trkpt>
      <trkpt lat="44.35486" lon="6.36853">
        <ele>1323</ele>
        <time>2018-08-10T08:42:59Z</time>
      </trkpt>
      <trkpt lat="44.35485" lon="6.36858">
        <ele>1323</ele>
        <time>2018-08-10T08:43:00Z</time>
      </trkpt>
      <trkpt lat="44.35483" lon="6.36864">
        <ele>1323.1</ele>
        <time>2018-08-10T08:43:02Z</time>
      </trkpt>
      <trkpt lat="44.35481" lon="6.36869">
        <ele>1323.1</ele>
        <time>2018-08-10T08:43:03Z</time>
      </trkpt>
      <trkpt lat="44.3548" lon="6.36873">
        <ele>1323.1</ele>
        <time>2018-08-10T08:43:04Z</time>
      </trkpt>
      <trkpt lat="44.35478" lon="6.36877">
        <ele>1323.1</ele>
        <time>2018-08-10T08:43:05Z</time>
      </trkpt>
      <trkpt lat="44.35477" lon="6.36882">
        <ele>1323.2</ele>
        <time>2018-08-10T08:43:06Z</time>
      </trkpt>
      <trkpt lat="44.35476" lon="6.36886">
        <ele>1323.2</ele>
        <time>2018-08-10T08:43:07Z</time>
      </trkpt>
      <trkpt lat="44.35475" lon="6.36891">
        <ele>1323.3</ele>
        <time>2018-08-10T08:43:08Z</time>
      </trkpt>
      <trkpt lat="44.35474" lon="6.36895">
        <ele>1323.4</ele>
        <time>2018-08-10T08:43:09Z</time>
      </trkpt>
      <trkpt lat="44.35472" lon="6.36899">
        <ele>1323.4</ele>
        <time>2018-08-10T08:43:10Z</time>
      </trkpt>
      <trkpt lat="44.3547" lon="6.36902">
        <ele>1323.5</ele>
        <time>2018-08-10T08:43:11Z</time>
      </trkpt>
      <trkpt lat="44.35469" lon="6.36907">
        <ele>1323.7</ele>
        <time>2018-08-10T08:43:12Z</time>
      </trkpt>
      <trkpt lat="44.35467" lon="6.36913">
        <ele>1323.8</ele>
        <time>2018-08-10T08:43:13Z</time>
      </trkpt>
      <trkpt lat="44.35466" lon="6.36917">
        <ele>1324</ele>
        <time>2018-08-10T08:43:14Z</time>
      </trkpt>
      <trkpt lat="44.35465" lon="6.3692">
        <ele>1324.1</ele>
        <time>2018-08-10T08:43:15Z</time>
      </trkpt>
      <trkpt lat="44.35464" lon="6.36924">
        <ele>1324.3</ele>
        <time>2018-08-10T08:43:16Z</time>
      </trkpt>
      <trkpt lat="44.35463" lon="6.36929">
        <ele>1324.4</ele>
        <time>2018-08-10T08:43:17Z</time>
      </trkpt>
      <trkpt lat="44.35462" lon="6.36933">
        <ele>1324.6</ele>
        <time>2018-08-10T08:43:18Z</time>
      </trkpt>
      <trkpt lat="44.35462" lon="6.36938">
        <ele>1324.8</ele>
        <time>2018-08-10T08:43:19Z</time>
      </trkpt>
      <trkpt lat="44.35462" lon="6.36943">
        <ele>1325</ele>
        <time>2018-08-10T08:43:20Z</time>
      </trkpt>
      <trkpt lat="44.35461" lon="6.36948">
        <ele>1325.2</ele>
        <time>2018-08-10T08:43:21Z</time>
      </trkpt>
      <trkpt lat="44.35462" lon="6.36953">
        <ele>1325.5</ele>
        <time>2018-08-10T08:43:22Z</time>
      </trkpt>
      <trkpt lat="44.35462" lon="6.36958">
        <ele>1325.7</ele>
        <time>2018-08-10T08:43:23Z</time>
      </trkpt>
      <trkpt lat="44.35461" lon="6.36962">
        <ele>1325.8</ele>
        <time>2018-08-10T08:43:24Z</time>
      </trkpt>
      <trkpt lat="44.35461" lon="6.36966">
        <ele>1326</ele>
        <time>2018-08-10T08:43:25Z</time>
      </trkpt>
      <trkpt lat="44.35461" lon="6.36971">
        <ele>1326.2</ele>
        <time>2018-08-10T08:43:26Z</time>
      </trkpt>
      <trkpt lat="44.35461" lon="6.36975">
        <ele>1326.4</ele>
        <time>2018-08-10T08:43:27Z</time>
      </trkpt>
      <trkpt lat="44.35462" lon="6.3698">
        <ele>1326.6</ele>
        <time>2018-08-10T08:43:28Z</time>
      </trkpt>
      <trkpt lat="44.35462" lon="6.36984">
        <ele>1326.8</ele>
        <time>2018-08-10T08:43:29Z</time>
      </trkpt>
      <trkpt lat="44.35462" lon="6.36988">
        <ele>1326.9</ele>
        <time>2018-08-10T08:43:30Z</time>
      </trkpt>
      <trkpt lat="44.35462" lon="6.36995">
        <ele>1327.2</ele>
        <time>2018-08-10T08:43:32Z</time>
      </trkpt>
      <trkpt lat="44.35461" lon="6.36999">
        <ele>1327.4</ele>
        <time>2018-08-10T08:43:33Z</time>
      </trkpt>
      <trkpt lat="44.35461" lon="6.37003">
        <ele>1327.6</ele>
        <time>2018-08-10T08:43:34Z</time>
      </trkpt>
      <trkpt lat="44.3546" lon="6.3701">
        <ele>1327.8</ele>
        <time>2018-08-10T08:43:36Z</time>
      </trkpt>
      <trkpt lat="44.35459" lon="6.37013">
        <ele>1328</ele>
        <time>2018-08-10T08:43:37Z</time>
      </trkpt>
      <trkpt lat="44.35457" lon="6.37017">
        <ele>1328.2</ele>
        <time>2018-08-10T08:43:38Z</time>
      </trkpt>
      <trkpt lat="44.35454" lon="6.37023">
        <ele>1328.5</ele>
        <time>2018-08-10T08:43:40Z</time>
      </trkpt>
      <trkpt lat="44.35452" lon="6.37026">
        <ele>1328.7</ele>
        <time>2018-08-10T08:43:41Z</time>
      </trkpt>
      <trkpt lat="44.3545" lon="6.3703">
        <ele>1328.9</ele>
        <time>2018-08-10T08:43:42Z</time>
      </trkpt>
      <trkpt lat="44.35448" lon="6.37033">
        <ele>1329</ele>
        <time>2018-08-10T08:43:43Z</time>
      </trkpt>
      <trkpt lat="44.35447" lon="6.37037">
        <ele>1329.2</ele>
        <time>2018-08-10T08:43:44Z</time>
      </trkpt>
      <trkpt lat="44.35444" lon="6.3704">
        <ele>1329.4</ele>
        <time>2018-08-10T08:43:45Z</time>
      </trkpt>
      <trkpt lat="44.35443" lon="6.37044">
        <ele>1329.5</ele>
        <time>2018-08-10T08:43:46Z</time>
      </trkpt>
      <trkpt lat="44.35441" lon="6.37047">
        <ele>1329.6</ele>
        <time>2018-08-10T08:43:47Z</time>
      </trkpt>
      <trkpt lat="44.3544" lon="6.37052">
        <ele>1329.8</ele>
        <time>2018-08-10T08:43:48Z</time>
      </trkpt>
      <trkpt lat="44.35439" lon="6.37055">
        <ele>1329.9</ele>
        <time>2018-08-10T08:43:49Z</time>
      </trkpt>
      <trkpt lat="44.35437" lon="6.37059">
        <ele>1330</ele>
        <time>2018-08-10T08:43:50Z</time>
      </trkpt>
      <trkpt lat="44.35436" lon="6.37063">
        <ele>1330.1</ele>
        <time>2018-08-10T08:43:51Z</time>
      </trkpt>
      <trkpt lat="44.35434" lon="6.37067">
        <ele>1330.1</ele>
        <time>2018-08-10T08:43:52Z</time>
      </trkpt>
      <trkpt lat="44.35432" lon="6.37074">
        <ele>1330.2</ele>
        <time>2018-08-10T08:43:54Z</time>
      </trkpt>
      <trkpt lat="44.35429" lon="6.37086">
        <ele>1330.3</ele>
        <time>2018-08-10T08:43:57Z</time>
      </trkpt>
      <trkpt lat="44.35427" lon="6.37091">
        <ele>1330.4</ele>
        <time>2018-08-10T08:43:58Z</time>
      </trkpt>
      <trkpt lat="44.35426" lon="6.37095">
        <ele>1330.4</ele>
        <time>2018-08-10T08:43:59Z</time>
      </trkpt>
      <trkpt lat="44.35425" lon="6.37099">
        <ele>1330.4</ele>
        <time>2018-08-10T08:44:00Z</time>
      </trkpt>
      <trkpt lat="44.35424" lon="6.37103">
        <ele>1330.4</ele>
        <time>2018-08-10T08:44:01Z</time>
      </trkpt>
      <trkpt lat="44.35422" lon="6.37106">
        <ele>1330.5</ele>
        <time>2018-08-10T08:44:02Z</time>
      </trkpt>
      <trkpt lat="44.35421" lon="6.3711">
        <ele>1330.5</ele>
        <time>2018-08-10T08:44:03Z</time>
      </trkpt>
      <trkpt lat="44.35419" lon="6.37113">
        <ele>1330.5</ele>
        <time>2018-08-10T08:44:04Z</time>
      </trkpt>
      <trkpt lat="44.35418" lon="6.37118">
        <ele>1330.5</ele>
        <time>2018-08-10T08:44:05Z</time>
      </trkpt>
      <trkpt lat="44.35415" lon="6.37122">
        <ele>1330.5</ele>
        <time>2018-08-10T08:44:06Z</time>
      </trkpt>
      <trkpt lat="44.35414" lon="6.37126">
        <ele>1330.5</ele>
        <time>2018-08-10T08:44:07Z</time>
      </trkpt>
      <trkpt lat="44.35411" lon="6.37129">
        <ele>1330.6</ele>
        <time>2018-08-10T08:44:08Z</time>
      </trkpt>
      <trkpt lat="44.3541" lon="6.37133">
        <ele>1330.6</ele>
        <time>2018-08-10T08:44:09Z</time>
      </trkpt>
      <trkpt lat="44.35407" lon="6.37136">
        <ele>1330.6</ele>
        <time>2018-08-10T08:44:10Z</time>
      </trkpt>
      <trkpt lat="44.35405" lon="6.3714">
        <ele>1330.6</ele>
        <time>2018-08-10T08:44:11Z</time>
      </trkpt>
      <trkpt lat="44.35404" lon="6.37144">
        <ele>1330.6</ele>
        <time>2018-08-10T08:44:12Z</time>
      </trkpt>
      <trkpt lat="44.35402" lon="6.37147">
        <ele>1330.6</ele>
        <time>2018-08-10T08:44:13Z</time>
      </trkpt>
      <trkpt lat="44.354" lon="6.37151">
        <ele>1330.7</ele>
        <time>2018-08-10T08:44:14Z</time>
      </trkpt>
      <trkpt lat="44.35398" lon="6.37154">
        <ele>1330.7</ele>
        <time>2018-08-10T08:44:15Z</time>
      </trkpt>
      <trkpt lat="44.35396" lon="6.37158">
        <ele>1330.7</ele>
        <time>2018-08-10T08:44:16Z</time>
      </trkpt>
      <trkpt lat="44.35394" lon="6.37161">
        <ele>1330.7</ele>
        <time>2018-08-10T08:44:17Z</time>
      </trkpt>
      <trkpt lat="44.35392" lon="6.37165">
        <ele>1330.7</ele>
        <time>2018-08-10T08:44:18Z</time>
      </trkpt>
      <trkpt lat="44.3539" lon="6.37168">
        <ele>1330.7</ele>
        <time>2018-08-10T08:44:19Z</time>
      </trkpt>
      <trkpt lat="44.35386" lon="6.37173">
        <ele>1330.8</ele>
        <time>2018-08-10T08:44:21Z</time>
      </trkpt>
      <trkpt lat="44.35384" lon="6.37177">
        <ele>1330.8</ele>
        <time>2018-08-10T08:44:22Z</time>
      </trkpt>
      <trkpt lat="44.35381" lon="6.3718">
        <ele>1330.9</ele>
        <time>2018-08-10T08:44:23Z</time>
      </trkpt>
      <trkpt lat="44.35379" lon="6.37184">
        <ele>1330.9</ele>
        <time>2018-08-10T08:44:24Z</time>
      </trkpt>
      <trkpt lat="44.35376" lon="6.37188">
        <ele>1331</ele>
        <time>2018-08-10T08:44:25Z</time>
      </trkpt>
      <trkpt lat="44.35374" lon="6.37191">
        <ele>1331.1</ele>
        <time>2018-08-10T08:44:26Z</time>
      </trkpt>
      <trkpt lat="44.35372" lon="6.37194">
        <ele>1331.2</ele>
        <time>2018-08-10T08:44:27Z</time>
      </trkpt>
      <trkpt lat="44.35369" lon="6.37198">
        <ele>1331.3</ele>
        <time>2018-08-10T08:44:28Z</time>
      </trkpt>
      <trkpt lat="44.35367" lon="6.37202">
        <ele>1331.4</ele>
        <time>2018-08-10T08:44:29Z</time>
      </trkpt>
      <trkpt lat="44.35366" lon="6.37206">
        <ele>1331.5</ele>
        <time>2018-08-10T08:44:30Z</time>
      </trkpt>
      <trkpt lat="44.35364" lon="6.3721">
        <ele>1331.7</ele>
        <time>2018-08-10T08:44:31Z</time>
      </trkpt>
      <trkpt lat="44.35363" lon="6.37214">
        <ele>1331.8</ele>
        <time>2018-08-10T08:44:32Z</time>
      </trkpt>
      <trkpt lat="44.35361" lon="6.37218">
        <ele>1331.9</ele>
        <time>2018-08-10T08:44:33Z</time>
      </trkpt>
      <trkpt lat="44.35359" lon="6.37222">
        <ele>1332.1</ele>
        <time>2018-08-10T08:44:34Z</time>
      </trkpt>
      <trkpt lat="44.35358" lon="6.37227">
        <ele>1332.2</ele>
        <time>2018-08-10T08:44:35Z</time>
      </trkpt>
      <trkpt lat="44.35355" lon="6.3723">
        <ele>1332.4</ele>
        <time>2018-08-10T08:44:36Z</time>
      </trkpt>
      <trkpt lat="44.35353" lon="6.37233">
        <ele>1332.5</ele>
        <time>2018-08-10T08:44:37Z</time>
      </trkpt>
      <trkpt lat="44.35351" lon="6.37237">
        <ele>1332.6</ele>
        <time>2018-08-10T08:44:38Z</time>
      </trkpt>
      <trkpt lat="44.35349" lon="6.3724">
        <ele>1332.7</ele>
        <time>2018-08-10T08:44:39Z</time>
      </trkpt>
      <trkpt lat="44.35346" lon="6.37242">
        <ele>1332.8</ele>
        <time>2018-08-10T08:44:40Z</time>
      </trkpt>
      <trkpt lat="44.35344" lon="6.37244">
        <ele>1332.9</ele>
        <time>2018-08-10T08:44:41Z</time>
      </trkpt>
      <trkpt lat="44.35342" lon="6.37247">
        <ele>1333</ele>
        <time>2018-08-10T08:44:42Z</time>
      </trkpt>
      <trkpt lat="44.35339" lon="6.37249">
        <ele>1333</ele>
        <time>2018-08-10T08:44:43Z</time>
      </trkpt>
      <trkpt lat="44.35336" lon="6.37251">
        <ele>1333.1</ele>
        <time>2018-08-10T08:44:44Z</time>
      </trkpt>
      <trkpt lat="44.35334" lon="6.37254">
        <ele>1333.2</ele>
        <time>2018-08-10T08:44:45Z</time>
      </trkpt>
      <trkpt lat="44.35331" lon="6.37257">
        <ele>1333.2</ele>
        <time>2018-08-10T08:44:46Z</time>
      </trkpt>
      <trkpt lat="44.35327" lon="6.37262">
        <ele>1333.3</ele>
        <time>2018-08-10T08:44:48Z</time>
      </trkpt>
      <trkpt lat="44.35325" lon="6.37264">
        <ele>1333.3</ele>
        <time>2018-08-10T08:44:49Z</time>
      </trkpt>
      <trkpt lat="44.35322" lon="6.37267">
        <ele>1333.3</ele>
        <time>2018-08-10T08:44:50Z</time>
      </trkpt>
      <trkpt lat="44.3532" lon="6.3727">
        <ele>1333.4</ele>
        <time>2018-08-10T08:44:51Z</time>
      </trkpt>
      <trkpt lat="44.35318" lon="6.37273">
        <ele>1333.4</ele>
        <time>2018-08-10T08:44:52Z</time>
      </trkpt>
      <trkpt lat="44.35315" lon="6.37276">
        <ele>1333.4</ele>
        <time>2018-08-10T08:44:53Z</time>
      </trkpt>
      <trkpt lat="44.35313" lon="6.37278">
        <ele>1333.4</ele>
        <time>2018-08-10T08:44:54Z</time>
      </trkpt>
      <trkpt lat="44.3531" lon="6.37281">
        <ele>1333.4</ele>
        <time>2018-08-10T08:44:55Z</time>
      </trkpt>
      <trkpt lat="44.35308" lon="6.37285">
        <ele>1333.5</ele>
        <time>2018-08-10T08:44:56Z</time>
      </trkpt>
      <trkpt lat="44.35305" lon="6.37287">
        <ele>1333.5</ele>
        <time>2018-08-10T08:44:57Z</time>
      </trkpt>
      <trkpt lat="44.35302" lon="6.3729">
        <ele>1333.5</ele>
        <time>2018-08-10T08:44:58Z</time>
      </trkpt>
      <trkpt lat="44.35299" lon="6.37293">
        <ele>1333.5</ele>
        <time>2018-08-10T08:44:59Z</time>
      </trkpt>
      <trkpt lat="44.35297" lon="6.37296">
        <ele>1333.5</ele>
        <time>2018-08-10T08:45:00Z</time>
      </trkpt>
      <trkpt lat="44.35294" lon="6.37298">
        <ele>1333.6</ele>
        <time>2018-08-10T08:45:01Z</time>
      </trkpt>
      <trkpt lat="44.35291" lon="6.37302">
        <ele>1333.6</ele>
        <time>2018-08-10T08:45:02Z</time>
      </trkpt>
      <trkpt lat="44.35289" lon="6.37304">
        <ele>1333.6</ele>
        <time>2018-08-10T08:45:03Z</time>
      </trkpt>
      <trkpt lat="44.35286" lon="6.37307">
        <ele>1333.6</ele>
        <time>2018-08-10T08:45:04Z</time>
      </trkpt>
      <trkpt lat="44.35284" lon="6.3731">
        <ele>1333.7</ele>
        <time>2018-08-10T08:45:05Z</time>
      </trkpt>
      <trkpt lat="44.35281" lon="6.37313">
        <ele>1333.7</ele>
        <time>2018-08-10T08:45:06Z</time>
      </trkpt>
      <trkpt lat="44.35279" lon="6.37316">
        <ele>1333.7</ele>
        <time>2018-08-10T08:45:07Z</time>
      </trkpt>
      <trkpt lat="44.35277" lon="6.37319">
        <ele>1333.8</ele>
        <time>2018-08-10T08:45:08Z</time>
      </trkpt>
      <trkpt lat="44.35275" lon="6.37322">
        <ele>1333.9</ele>
        <time>2018-08-10T08:45:09Z</time>
      </trkpt>
      <trkpt lat="44.35272" lon="6.37324">
        <ele>1333.9</ele>
        <time>2018-08-10T08:45:10Z</time>
      </trkpt>
      <trkpt lat="44.3527" lon="6.37328">
        <ele>1334</ele>
        <time>2018-08-10T08:45:11Z</time>
      </trkpt>
      <trkpt lat="44.35267" lon="6.37331">
        <ele>1334.1</ele>
        <time>2018-08-10T08:45:12Z</time>
      </trkpt>
      <trkpt lat="44.35265" lon="6.37334">
        <ele>1334.2</ele>
        <time>2018-08-10T08:45:13Z</time>
      </trkpt>
      <trkpt lat="44.35262" lon="6.37337">
        <ele>1334.3</ele>
        <time>2018-08-10T08:45:14Z</time>
      </trkpt>
      <trkpt lat="44.35259" lon="6.37339">
        <ele>1334.5</ele>
        <time>2018-08-10T08:45:15Z</time>
      </trkpt>
      <trkpt lat="44.35257" lon="6.37342">
        <ele>1334.6</ele>
        <time>2018-08-10T08:45:16Z</time>
      </trkpt>
      <trkpt lat="44.35254" lon="6.37344">
        <ele>1334.7</ele>
        <time>2018-08-10T08:45:17Z</time>
      </trkpt>
      <trkpt lat="44.35252" lon="6.37347">
        <ele>1334.9</ele>
        <time>2018-08-10T08:45:18Z</time>
      </trkpt>
      <trkpt lat="44.3525" lon="6.3735">
        <ele>1335</ele>
        <time>2018-08-10T08:45:19Z</time>
      </trkpt>
      <trkpt lat="44.35247" lon="6.37353">
        <ele>1335.2</ele>
        <time>2018-08-10T08:45:20Z</time>
      </trkpt>
      <trkpt lat="44.35245" lon="6.37355">
        <ele>1335.3</ele>
        <time>2018-08-10T08:45:21Z</time>
      </trkpt>
      <trkpt lat="44.35242" lon="6.37359">
        <ele>1335.5</ele>
        <time>2018-08-10T08:45:22Z</time>
      </trkpt>
      <trkpt lat="44.3524" lon="6.37361">
        <ele>1335.7</ele>
        <time>2018-08-10T08:45:23Z</time>
      </trkpt>
      <trkpt lat="44.35237" lon="6.37364">
        <ele>1335.8</ele>
        <time>2018-08-10T08:45:24Z</time>
      </trkpt>
      <trkpt lat="44.35235" lon="6.37367">
        <ele>1336</ele>
        <time>2018-08-10T08:45:25Z</time>
      </trkpt>
      <trkpt lat="44.35233" lon="6.37371">
        <ele>1336.2</ele>
        <time>2018-08-10T08:45:26Z</time>
      </trkpt>
      <trkpt lat="44.35231" lon="6.37374">
        <ele>1336.4</ele>
        <time>2018-08-10T08:45:27Z</time>
      </trkpt>
      <trkpt lat="44.35228" lon="6.37377">
        <ele>1336.6</ele>
        <time>2018-08-10T08:45:28Z</time>
      </trkpt>
      <trkpt lat="44.35226" lon="6.3738">
        <ele>1336.8</ele>
        <time>2018-08-10T08:45:29Z</time>
      </trkpt>
      <trkpt lat="44.35223" lon="6.37383">
        <ele>1337</ele>
        <time>2018-08-10T08:45:30Z</time>
      </trkpt>
      <trkpt lat="44.35221" lon="6.37386">
        <ele>1337.2</ele>
        <time>2018-08-10T08:45:31Z</time>
      </trkpt>
      <trkpt lat="44.35219" lon="6.37389">
        <ele>1337.4</ele>
        <time>2018-08-10T08:45:32Z</time>
      </trkpt>
      <trkpt lat="44.35216" lon="6.37392">
        <ele>1337.7</ele>
        <time>2018-08-10T08:45:33Z</time>
      </trkpt>
      <trkpt lat="44.35214" lon="6.37395">
        <ele>1337.9</ele>
        <time>2018-08-10T08:45:34Z</time>
      </trkpt>
      <trkpt lat="44.35212" lon="6.37397">
        <ele>1338.1</ele>
        <time>2018-08-10T08:45:35Z</time>
      </trkpt>
      <trkpt lat="44.35209" lon="6.37401">
        <ele>1338.3</ele>
        <time>2018-08-10T08:45:36Z</time>
      </trkpt>
      <trkpt lat="44.35207" lon="6.37404">
        <ele>1338.5</ele>
        <time>2018-08-10T08:45:37Z</time>
      </trkpt>
      <trkpt lat="44.35205" lon="6.37407">
        <ele>1338.7</ele>
        <time>2018-08-10T08:45:38Z</time>
      </trkpt>
      <trkpt lat="44.35201" lon="6.37412">
        <ele>1339.1</ele>
        <time>2018-08-10T08:45:40Z</time>
      </trkpt>
      <trkpt lat="44.35199" lon="6.37415">
        <ele>1339.3</ele>
        <time>2018-08-10T08:45:41Z</time>
      </trkpt>
      <trkpt lat="44.35197" lon="6.37418">
        <ele>1339.5</ele>
        <time>2018-08-10T08:45:42Z</time>
      </trkpt>
      <trkpt lat="44.35195" lon="6.37421">
        <ele>1339.7</ele>
        <time>2018-08-10T08:45:43Z</time>
      </trkpt>
      <trkpt lat="44.35192" lon="6.37426">
        <ele>1340</ele>
        <time>2018-08-10T08:45:45Z</time>
      </trkpt>
      <trkpt lat="44.3519" lon="6.37429">
        <ele>1340.1</ele>
        <time>2018-08-10T08:45:46Z</time>
      </trkpt>
      <trkpt lat="44.35187" lon="6.37434">
        <ele>1340.4</ele>
        <time>2018-08-10T08:45:48Z</time>
      </trkpt>
      <trkpt lat="44.35183" lon="6.37438">
        <ele>1340.6</ele>
        <time>2018-08-10T08:45:50Z</time>
      </trkpt>
      <trkpt lat="44.3518" lon="6.37444">
        <ele>1340.8</ele>
        <time>2018-08-10T08:45:52Z</time>
      </trkpt>
      <trkpt lat="44.35178" lon="6.37447">
        <ele>1340.9</ele>
        <time>2018-08-10T08:45:53Z</time>
      </trkpt>
      <trkpt lat="44.35174" lon="6.37451">
        <ele>1341.1</ele>
        <time>2018-08-10T08:45:55Z</time>
      </trkpt>
      <trkpt lat="44.3517" lon="6.37456">
        <ele>1341.3</ele>
        <time>2018-08-10T08:45:57Z</time>
      </trkpt>
      <trkpt lat="44.35167" lon="6.37459">
        <ele>1341.4</ele>
        <time>2018-08-10T08:45:59Z</time>
      </trkpt>
      <trkpt lat="44.35164" lon="6.37465">
        <ele>1341.5</ele>
        <time>2018-08-10T08:46:01Z</time>
      </trkpt>
      <trkpt lat="44.3516" lon="6.37468">
        <ele>1341.5</ele>
        <time>2018-08-10T08:46:03Z</time>
      </trkpt>
      <trkpt lat="44.35157" lon="6.37473">
        <ele>1341.6</ele>
        <time>2018-08-10T08:46:05Z</time>
      </trkpt>
      <trkpt lat="44.35154" lon="6.37479">
        <ele>1341.7</ele>
        <time>2018-08-10T08:46:07Z</time>
      </trkpt>
      <trkpt lat="44.35151" lon="6.37484">
        <ele>1341.7</ele>
        <time>2018-08-10T08:46:09Z</time>
      </trkpt>
      <trkpt lat="44.35149" lon="6.3749">
        <ele>1341.7</ele>
        <time>2018-08-10T08:46:11Z</time>
      </trkpt>
      <trkpt lat="44.35147" lon="6.37494">
        <ele>1341.8</ele>
        <time>2018-08-10T08:46:13Z</time>
      </trkpt>
      <trkpt lat="44.35144" lon="6.375">
        <ele>1341.8</ele>
        <time>2018-08-10T08:46:15Z</time>
      </trkpt>
      <trkpt lat="44.35143" lon="6.37504">
        <ele>1341.8</ele>
        <time>2018-08-10T08:46:16Z</time>
      </trkpt>
      <trkpt lat="44.35141" lon="6.37509">
        <ele>1341.8</ele>
        <time>2018-08-10T08:46:18Z</time>
      </trkpt>
      <trkpt lat="44.35139" lon="6.37515">
        <ele>1341.9</ele>
        <time>2018-08-10T08:46:20Z</time>
      </trkpt>
      <trkpt lat="44.35138" lon="6.37519">
        <ele>1341.9</ele>
        <time>2018-08-10T08:46:22Z</time>
      </trkpt>
      <trkpt lat="44.35137" lon="6.37522">
        <ele>1341.9</ele>
        <time>2018-08-10T08:46:25Z</time>
      </trkpt>
      <trkpt lat="44.35134" lon="6.37525">
        <ele>1341.9</ele>
        <time>2018-08-10T08:46:38Z</time>
      </trkpt>
      <trkpt lat="44.35133" lon="6.37528">
        <ele>1342</ele>
        <time>2018-08-10T08:46:40Z</time>
      </trkpt>
      <trkpt lat="44.3513" lon="6.37533">
        <ele>1342</ele>
        <time>2018-08-10T08:46:42Z</time>
      </trkpt>
      <trkpt lat="44.35128" lon="6.37535">
        <ele>1342</ele>
        <time>2018-08-10T08:46:43Z</time>
      </trkpt>
      <trkpt lat="44.35125" lon="6.37538">
        <ele>1342</ele>
        <time>2018-08-10T08:46:44Z</time>
      </trkpt>
      <trkpt lat="44.35121" lon="6.37542">
        <ele>1342</ele>
        <time>2018-08-10T08:46:46Z</time>
      </trkpt>
      <trkpt lat="44.35119" lon="6.37545">
        <ele>1342</ele>
        <time>2018-08-10T08:46:47Z</time>
      </trkpt>
      <trkpt lat="44.35116" lon="6.37547">
        <ele>1342</ele>
        <time>2018-08-10T08:46:48Z</time>
      </trkpt>
      <trkpt lat="44.35114" lon="6.37548">
        <ele>1342</ele>
        <time>2018-08-10T08:46:49Z</time>
      </trkpt>
      <trkpt lat="44.35111" lon="6.37549">
        <ele>1342</ele>
        <time>2018-08-10T08:46:50Z</time>
      </trkpt>
      <trkpt lat="44.35108" lon="6.3755">
        <ele>1342</ele>
        <time>2018-08-10T08:46:51Z</time>
      </trkpt>
      <trkpt lat="44.35105" lon="6.37551">
        <ele>1342</ele>
        <time>2018-08-10T08:46:52Z</time>
      </trkpt>
      <trkpt lat="44.35101" lon="6.37554">
        <ele>1342</ele>
        <time>2018-08-10T08:46:54Z</time>
      </trkpt>
      <trkpt lat="44.35097" lon="6.37556">
        <ele>1342</ele>
        <time>2018-08-10T08:46:56Z</time>
      </trkpt>
      <trkpt lat="44.35094" lon="6.37558">
        <ele>1342</ele>
        <time>2018-08-10T08:46:58Z</time>
      </trkpt>
      <trkpt lat="44.35091" lon="6.37559">
        <ele>1342</ele>
        <time>2018-08-10T08:47:01Z</time>
      </trkpt>
      <trkpt lat="44.35088" lon="6.3756">
        <ele>1342</ele>
        <time>2018-08-10T08:47:10Z</time>
      </trkpt>
      <trkpt lat="44.35085" lon="6.37563">
        <ele>1342</ele>
        <time>2018-08-10T08:47:12Z</time>
      </trkpt>
      <trkpt lat="44.35082" lon="6.37566">
        <ele>1342.1</ele>
        <time>2018-08-10T08:47:14Z</time>
      </trkpt>
      <trkpt lat="44.35078" lon="6.37569">
        <ele>1342.1</ele>
        <time>2018-08-10T08:47:16Z</time>
      </trkpt>
      <trkpt lat="44.35075" lon="6.37574">
        <ele>1342.2</ele>
        <time>2018-08-10T08:47:18Z</time>
      </trkpt>
      <trkpt lat="44.35071" lon="6.37579">
        <ele>1342.4</ele>
        <time>2018-08-10T08:47:20Z</time>
      </trkpt>
      <trkpt lat="44.35068" lon="6.37582">
        <ele>1342.5</ele>
        <time>2018-08-10T08:47:22Z</time>
      </trkpt>
      <trkpt lat="44.35065" lon="6.37587">
        <ele>1342.7</ele>
        <time>2018-08-10T08:47:24Z</time>
      </trkpt>
      <trkpt lat="44.35063" lon="6.37593">
        <ele>1343</ele>
        <time>2018-08-10T08:47:26Z</time>
      </trkpt>
      <trkpt lat="44.3506" lon="6.37599">
        <ele>1343.2</ele>
        <time>2018-08-10T08:47:28Z</time>
      </trkpt>
      <trkpt lat="44.35058" lon="6.37605">
        <ele>1343.4</ele>
        <time>2018-08-10T08:47:30Z</time>
      </trkpt>
      <trkpt lat="44.35057" lon="6.3761">
        <ele>1343.5</ele>
        <time>2018-08-10T08:47:33Z</time>
      </trkpt>
      <trkpt lat="44.35058" lon="6.37614">
        <ele>1343.6</ele>
        <time>2018-08-10T08:48:15Z</time>
      </trkpt>
      <trkpt lat="44.35057" lon="6.37619">
        <ele>1343.8</ele>
        <time>2018-08-10T08:48:18Z</time>
      </trkpt>
      <trkpt lat="44.35057" lon="6.37626">
        <ele>1343.9</ele>
        <time>2018-08-10T08:48:20Z</time>
      </trkpt>
      <trkpt lat="44.35058" lon="6.37632">
        <ele>1343.9</ele>
        <time>2018-08-10T08:48:22Z</time>
      </trkpt>
      <trkpt lat="44.35057" lon="6.3764">
        <ele>1344</ele>
        <time>2018-08-10T08:48:24Z</time>
      </trkpt>
      <trkpt lat="44.35057" lon="6.37647">
        <ele>1344.1</ele>
        <time>2018-08-10T08:48:26Z</time>
      </trkpt>
      <trkpt lat="44.35055" lon="6.37654">
        <ele>1344.1</ele>
        <time>2018-08-10T08:48:28Z</time>
      </trkpt>
      <trkpt lat="44.35054" lon="6.37658">
        <ele>1344.1</ele>
        <time>2018-08-10T08:48:29Z</time>
      </trkpt>
      <trkpt lat="44.35054" lon="6.37662">
        <ele>1344.1</ele>
        <time>2018-08-10T08:48:30Z</time>
      </trkpt>
      <trkpt lat="44.35053" lon="6.37669">
        <ele>1344.1</ele>
        <time>2018-08-10T08:48:32Z</time>
      </trkpt>
      <trkpt lat="44.35052" lon="6.37675">
        <ele>1344.1</ele>
        <time>2018-08-10T08:48:34Z</time>
      </trkpt>
      <trkpt lat="44.35051" lon="6.37682">
        <ele>1344.1</ele>
        <time>2018-08-10T08:48:36Z</time>
      </trkpt>
      <trkpt lat="44.35049" lon="6.37688">
        <ele>1344.1</ele>
        <time>2018-08-10T08:48:38Z</time>
      </trkpt>
      <trkpt lat="44.35048" lon="6.37693">
        <ele>1344.1</ele>
        <time>2018-08-10T08:48:39Z</time>
      </trkpt>
      <trkpt lat="44.35047" lon="6.37701">
        <ele>1344.1</ele>
        <time>2018-08-10T08:48:41Z</time>
      </trkpt>
      <trkpt lat="44.35047" lon="6.37704">
        <ele>1344.1</ele>
        <time>2018-08-10T08:48:42Z</time>
      </trkpt>
      <trkpt lat="44.35047" lon="6.37708">
        <ele>1344.1</ele>
        <time>2018-08-10T08:48:43Z</time>
      </trkpt>
      <trkpt lat="44.35046" lon="6.37716">
        <ele>1344.1</ele>
        <time>2018-08-10T08:48:45Z</time>
      </trkpt>
      <trkpt lat="44.35046" lon="6.3772">
        <ele>1344</ele>
        <time>2018-08-10T08:48:46Z</time>
      </trkpt>
      <trkpt lat="44.35046" lon="6.37724">
        <ele>1344</ele>
        <time>2018-08-10T08:48:47Z</time>
      </trkpt>
      <trkpt lat="44.35045" lon="6.37728">
        <ele>1344</ele>
        <time>2018-08-10T08:48:48Z</time>
      </trkpt>
      <trkpt lat="44.35044" lon="6.37735">
        <ele>1344</ele>
        <time>2018-08-10T08:48:50Z</time>
      </trkpt>
      <trkpt lat="44.35042" lon="6.37742">
        <ele>1344</ele>
        <time>2018-08-10T08:48:52Z</time>
      </trkpt>
      <trkpt lat="44.35042" lon="6.37746">
        <ele>1344</ele>
        <time>2018-08-10T08:48:53Z</time>
      </trkpt>
      <trkpt lat="44.35041" lon="6.3775">
        <ele>1344</ele>
        <time>2018-08-10T08:48:54Z</time>
      </trkpt>
      <trkpt lat="44.3504" lon="6.37753">
        <ele>1344</ele>
        <time>2018-08-10T08:48:55Z</time>
      </trkpt>
      <trkpt lat="44.35039" lon="6.37761">
        <ele>1344</ele>
        <time>2018-08-10T08:48:57Z</time>
      </trkpt>
      <trkpt lat="44.35038" lon="6.37765">
        <ele>1344</ele>
        <time>2018-08-10T08:48:58Z</time>
      </trkpt>
      <trkpt lat="44.35038" lon="6.37769">
        <ele>1344</ele>
        <time>2018-08-10T08:48:59Z</time>
      </trkpt>
      <trkpt lat="44.35037" lon="6.37774">
        <ele>1344</ele>
        <time>2018-08-10T08:49:00Z</time>
      </trkpt>
      <trkpt lat="44.35035" lon="6.37782">
        <ele>1344</ele>
        <time>2018-08-10T08:49:02Z</time>
      </trkpt>
      <trkpt lat="44.35034" lon="6.37787">
        <ele>1344</ele>
        <time>2018-08-10T08:49:03Z</time>
      </trkpt>
      <trkpt lat="44.35033" lon="6.37793">
        <ele>1344</ele>
        <time>2018-08-10T08:49:04Z</time>
      </trkpt>
      <trkpt lat="44.35032" lon="6.37798">
        <ele>1344</ele>
        <time>2018-08-10T08:49:05Z</time>
      </trkpt>
      <trkpt lat="44.35031" lon="6.37804">
        <ele>1344.1</ele>
        <time>2018-08-10T08:49:06Z</time>
      </trkpt>
      <trkpt lat="44.3503" lon="6.37808">
        <ele>1344.2</ele>
        <time>2018-08-10T08:49:07Z</time>
      </trkpt>
      <trkpt lat="44.3503" lon="6.37813">
        <ele>1344.2</ele>
        <time>2018-08-10T08:49:08Z</time>
      </trkpt>
      <trkpt lat="44.35029" lon="6.37818">
        <ele>1344.3</ele>
        <time>2018-08-10T08:49:09Z</time>
      </trkpt>
      <trkpt lat="44.35028" lon="6.37823">
        <ele>1344.4</ele>
        <time>2018-08-10T08:49:10Z</time>
      </trkpt>
      <trkpt lat="44.35028" lon="6.37828">
        <ele>1344.5</ele>
        <time>2018-08-10T08:49:11Z</time>
      </trkpt>
      <trkpt lat="44.35027" lon="6.37833">
        <ele>1344.7</ele>
        <time>2018-08-10T08:49:12Z</time>
      </trkpt>
      <trkpt lat="44.35027" lon="6.37838">
        <ele>1344.8</ele>
        <time>2018-08-10T08:49:13Z</time>
      </trkpt>
      <trkpt lat="44.35027" lon="6.37843">
        <ele>1345</ele>
        <time>2018-08-10T08:49:14Z</time>
      </trkpt>
      <trkpt lat="44.35026" lon="6.37847">
        <ele>1345.1</ele>
        <time>2018-08-10T08:49:15Z</time>
      </trkpt>
      <trkpt lat="44.35026" lon="6.37852">
        <ele>1345.2</ele>
        <time>2018-08-10T08:49:16Z</time>
      </trkpt>
      <trkpt lat="44.35025" lon="6.37856">
        <ele>1345.3</ele>
        <time>2018-08-10T08:49:17Z</time>
      </trkpt>
      <trkpt lat="44.35025" lon="6.3786">
        <ele>1345.4</ele>
        <time>2018-08-10T08:49:18Z</time>
      </trkpt>
      <trkpt lat="44.35024" lon="6.37864">
        <ele>1345.5</ele>
        <time>2018-08-10T08:49:19Z</time>
      </trkpt>
      <trkpt lat="44.35023" lon="6.37871">
        <ele>1345.7</ele>
        <time>2018-08-10T08:49:21Z</time>
      </trkpt>
      <trkpt lat="44.35022" lon="6.37878">
        <ele>1345.9</ele>
        <time>2018-08-10T08:49:23Z</time>
      </trkpt>
      <trkpt lat="44.35021" lon="6.37882">
        <ele>1345.9</ele>
        <time>2018-08-10T08:49:24Z</time>
      </trkpt>
      <trkpt lat="44.35021" lon="6.37886">
        <ele>1346</ele>
        <time>2018-08-10T08:49:25Z</time>
      </trkpt>
      <trkpt lat="44.3502" lon="6.37891">
        <ele>1346</ele>
        <time>2018-08-10T08:49:26Z</time>
      </trkpt>
      <trkpt lat="44.3502" lon="6.37895">
        <ele>1346</ele>
        <time>2018-08-10T08:49:27Z</time>
      </trkpt>
      <trkpt lat="44.35019" lon="6.37899">
        <ele>1346.2</ele>
        <time>2018-08-10T08:49:28Z</time>
      </trkpt>
      <trkpt lat="44.35019" lon="6.37903">
        <ele>1346.5</ele>
        <time>2018-08-10T08:49:29Z</time>
      </trkpt>
      <trkpt lat="44.35018" lon="6.37907">
        <ele>1346.8</ele>
        <time>2018-08-10T08:49:30Z</time>
      </trkpt>
      <trkpt lat="44.35017" lon="6.37911">
        <ele>1347.1</ele>
        <time>2018-08-10T08:49:31Z</time>
      </trkpt>
      <trkpt lat="44.35017" lon="6.37915">
        <ele>1347.3</ele>
        <time>2018-08-10T08:49:32Z</time>
      </trkpt>
      <trkpt lat="44.35016" lon="6.37919">
        <ele>1347.5</ele>
        <time>2018-08-10T08:49:33Z</time>
      </trkpt>
      <trkpt lat="44.35016" lon="6.37923">
        <ele>1347.8</ele>
        <time>2018-08-10T08:49:34Z</time>
      </trkpt>
      <trkpt lat="44.35016" lon="6.37928">
        <ele>1348.2</ele>
        <time>2018-08-10T08:49:35Z</time>
      </trkpt>
      <trkpt lat="44.35015" lon="6.37931">
        <ele>1348.5</ele>
        <time>2018-08-10T08:49:36Z</time>
      </trkpt>
      <trkpt lat="44.35014" lon="6.37936">
        <ele>1348.9</ele>
        <time>2018-08-10T08:49:37Z</time>
      </trkpt>
      <trkpt lat="44.35013" lon="6.3794">
        <ele>1349.2</ele>
        <time>2018-08-10T08:49:38Z</time>
      </trkpt>
      <trkpt lat="44.35013" lon="6.37944">
        <ele>1349.6</ele>
        <time>2018-08-10T08:49:39Z</time>
      </trkpt>
      <trkpt lat="44.35012" lon="6.37948">
        <ele>1349.8</ele>
        <time>2018-08-10T08:49:40Z</time>
      </trkpt>
      <trkpt lat="44.35011" lon="6.37952">
        <ele>1350</ele>
        <time>2018-08-10T08:49:41Z</time>
      </trkpt>
      <trkpt lat="44.35011" lon="6.37956">
        <ele>1350.3</ele>
        <time>2018-08-10T08:49:42Z</time>
      </trkpt>
      <trkpt lat="44.35011" lon="6.3796">
        <ele>1350.5</ele>
        <time>2018-08-10T08:49:43Z</time>
      </trkpt>
      <trkpt lat="44.35011" lon="6.37964">
        <ele>1350.8</ele>
        <time>2018-08-10T08:49:44Z</time>
      </trkpt>
      <trkpt lat="44.35008" lon="6.37971">
        <ele>1351.1</ele>
        <time>2018-08-10T08:49:46Z</time>
      </trkpt>
      <trkpt lat="44.35009" lon="6.37975">
        <ele>1351.2</ele>
        <time>2018-08-10T08:49:47Z</time>
      </trkpt>
      <trkpt lat="44.35007" lon="6.37982">
        <ele>1351.4</ele>
        <time>2018-08-10T08:49:49Z</time>
      </trkpt>
      <trkpt lat="44.35005" lon="6.37987">
        <ele>1351.6</ele>
        <time>2018-08-10T08:49:51Z</time>
      </trkpt>
      <trkpt lat="44.35004" lon="6.37991">
        <ele>1351.7</ele>
        <time>2018-08-10T08:49:53Z</time>
      </trkpt>
      <trkpt lat="44.35005" lon="6.37995">
        <ele>1351.8</ele>
        <time>2018-08-10T08:49:55Z</time>
      </trkpt>
      <trkpt lat="44.35005" lon="6.37999">
        <ele>1351.9</ele>
        <time>2018-08-10T08:49:56Z</time>
      </trkpt>
      <trkpt lat="44.35006" lon="6.38006">
        <ele>1352.2</ele>
        <time>2018-08-10T08:49:59Z</time>
      </trkpt>
      <trkpt lat="44.35007" lon="6.3801">
        <ele>1352.4</ele>
        <time>2018-08-10T08:50:01Z</time>
      </trkpt>
      <trkpt lat="44.35007" lon="6.38015">
        <ele>1352.6</ele>
        <time>2018-08-10T08:50:03Z</time>
      </trkpt>
      <trkpt lat="44.35006" lon="6.38021">
        <ele>1352.8</ele>
        <time>2018-08-10T08:50:05Z</time>
      </trkpt>
      <trkpt lat="44.35005" lon="6.38029">
        <ele>1353</ele>
        <time>2018-08-10T08:50:08Z</time>
      </trkpt>
      <trkpt lat="44.35003" lon="6.38035">
        <ele>1352.9</ele>
        <time>2018-08-10T08:50:10Z</time>
      </trkpt>
      <trkpt lat="44.35001" lon="6.38039">
        <ele>1353</ele>
        <time>2018-08-10T08:50:12Z</time>
      </trkpt>
      <trkpt lat="44.34997" lon="6.38042">
        <ele>1353.2</ele>
        <time>2018-08-10T08:50:14Z</time>
      </trkpt>
      <trkpt lat="44.34995" lon="6.38046">
        <ele>1353.4</ele>
        <time>2018-08-10T08:50:15Z</time>
      </trkpt>
      <trkpt lat="44.34992" lon="6.38048">
        <ele>1353.6</ele>
        <time>2018-08-10T08:50:16Z</time>
      </trkpt>
      <trkpt lat="44.3499" lon="6.38052">
        <ele>1353.8</ele>
        <time>2018-08-10T08:50:17Z</time>
      </trkpt>
      <trkpt lat="44.34987" lon="6.38055">
        <ele>1353.9</ele>
        <time>2018-08-10T08:50:18Z</time>
      </trkpt>
      <trkpt lat="44.34983" lon="6.38061">
        <ele>1354.1</ele>
        <time>2018-08-10T08:50:20Z</time>
      </trkpt>
      <trkpt lat="44.3498" lon="6.38067">
        <ele>1354.4</ele>
        <time>2018-08-10T08:50:22Z</time>
      </trkpt>
      <trkpt lat="44.34978" lon="6.38074">
        <ele>1354.6</ele>
        <time>2018-08-10T08:50:24Z</time>
      </trkpt>
      <trkpt lat="44.34976" lon="6.38078">
        <ele>1354.6</ele>
        <time>2018-08-10T08:50:25Z</time>
      </trkpt>
      <trkpt lat="44.34974" lon="6.38081">
        <ele>1354.6</ele>
        <time>2018-08-10T08:50:26Z</time>
      </trkpt>
      <trkpt lat="44.34972" lon="6.38085">
        <ele>1354.7</ele>
        <time>2018-08-10T08:50:27Z</time>
      </trkpt>
      <trkpt lat="44.34969" lon="6.38087">
        <ele>1354.8</ele>
        <time>2018-08-10T08:50:28Z</time>
      </trkpt>
      <trkpt lat="44.34966" lon="6.38091">
        <ele>1354.9</ele>
        <time>2018-08-10T08:50:29Z</time>
      </trkpt>
      <trkpt lat="44.34965" lon="6.38095">
        <ele>1354.9</ele>
        <time>2018-08-10T08:50:30Z</time>
      </trkpt>
      <trkpt lat="44.34962" lon="6.381">
        <ele>1355</ele>
        <time>2018-08-10T08:50:31Z</time>
      </trkpt>
      <trkpt lat="44.3496" lon="6.38105">
        <ele>1355</ele>
        <time>2018-08-10T08:50:32Z</time>
      </trkpt>
      <trkpt lat="44.34956" lon="6.38109">
        <ele>1354.9</ele>
        <time>2018-08-10T08:50:33Z</time>
      </trkpt>
      <trkpt lat="44.34952" lon="6.38114">
        <ele>1354.5</ele>
        <time>2018-08-10T08:50:34Z</time>
      </trkpt>
      <trkpt lat="44.34948" lon="6.38118">
        <ele>1354.2</ele>
        <time>2018-08-10T08:50:35Z</time>
      </trkpt>
      <trkpt lat="44.34944" lon="6.38122">
        <ele>1354</ele>
        <time>2018-08-10T08:50:36Z</time>
      </trkpt>
      <trkpt lat="44.34941" lon="6.38127">
        <ele>1353.6</ele>
        <time>2018-08-10T08:50:37Z</time>
      </trkpt>
      <trkpt lat="44.34939" lon="6.38133">
        <ele>1353.2</ele>
        <time>2018-08-10T08:50:38Z</time>
      </trkpt>
      <trkpt lat="44.34937" lon="6.38139">
        <ele>1352.8</ele>
        <time>2018-08-10T08:50:39Z</time>
      </trkpt>
      <trkpt lat="44.34935" lon="6.38145">
        <ele>1352.5</ele>
        <time>2018-08-10T08:50:40Z</time>
      </trkpt>
      <trkpt lat="44.34935" lon="6.38149">
        <ele>1352.3</ele>
        <time>2018-08-10T08:50:41Z</time>
      </trkpt>
      <trkpt lat="44.34934" lon="6.38154">
        <ele>1352.1</ele>
        <time>2018-08-10T08:50:42Z</time>
      </trkpt>
      <trkpt lat="44.34933" lon="6.38157">
        <ele>1352</ele>
        <time>2018-08-10T08:50:43Z</time>
      </trkpt>
      <trkpt lat="44.34931" lon="6.38161">
        <ele>1351.9</ele>
        <time>2018-08-10T08:50:44Z</time>
      </trkpt>
      <trkpt lat="44.3493" lon="6.38165">
        <ele>1351.9</ele>
        <time>2018-08-10T08:50:45Z</time>
      </trkpt>
      <trkpt lat="44.34928" lon="6.38168">
        <ele>1351.9</ele>
        <time>2018-08-10T08:50:46Z</time>
      </trkpt>
      <trkpt lat="44.34926" lon="6.38175">
        <ele>1351.7</ele>
        <time>2018-08-10T08:50:48Z</time>
      </trkpt>
      <trkpt lat="44.34925" lon="6.3818">
        <ele>1351.7</ele>
        <time>2018-08-10T08:50:49Z</time>
      </trkpt>
      <trkpt lat="44.34924" lon="6.38185">
        <ele>1351.6</ele>
        <time>2018-08-10T08:50:50Z</time>
      </trkpt>
      <trkpt lat="44.34924" lon="6.38189">
        <ele>1351.6</ele>
        <time>2018-08-10T08:50:51Z</time>
      </trkpt>
      <trkpt lat="44.34923" lon="6.38193">
        <ele>1351.4</ele>
        <time>2018-08-10T08:50:52Z</time>
      </trkpt>
      <trkpt lat="44.34923" lon="6.38198">
        <ele>1351.2</ele>
        <time>2018-08-10T08:50:53Z</time>
      </trkpt>
      <trkpt lat="44.34922" lon="6.38203">
        <ele>1351.1</ele>
        <time>2018-08-10T08:50:54Z</time>
      </trkpt>
      <trkpt lat="44.34922" lon="6.38207">
        <ele>1351.1</ele>
        <time>2018-08-10T08:50:55Z</time>
      </trkpt>
      <trkpt lat="44.34921" lon="6.38211">
        <ele>1351</ele>
        <time>2018-08-10T08:50:56Z</time>
      </trkpt>
      <trkpt lat="44.3492" lon="6.38216">
        <ele>1351</ele>
        <time>2018-08-10T08:50:57Z</time>
      </trkpt>
      <trkpt lat="44.3492" lon="6.3822">
        <ele>1351</ele>
        <time>2018-08-10T08:50:58Z</time>
      </trkpt>
      <trkpt lat="44.3492" lon="6.38224">
        <ele>1351</ele>
        <time>2018-08-10T08:50:59Z</time>
      </trkpt>
      <trkpt lat="44.3492" lon="6.38229">
        <ele>1350.9</ele>
        <time>2018-08-10T08:51:00Z</time>
      </trkpt>
      <trkpt lat="44.34919" lon="6.38237">
        <ele>1350.7</ele>
        <time>2018-08-10T08:51:02Z</time>
      </trkpt>
      <trkpt lat="44.34921" lon="6.38242">
        <ele>1350.6</ele>
        <time>2018-08-10T08:51:03Z</time>
      </trkpt>
      <trkpt lat="44.34921" lon="6.38246">
        <ele>1350.6</ele>
        <time>2018-08-10T08:51:04Z</time>
      </trkpt>
      <trkpt lat="44.34922" lon="6.3825">
        <ele>1350.5</ele>
        <time>2018-08-10T08:51:05Z</time>
      </trkpt>
      <trkpt lat="44.34922" lon="6.38255">
        <ele>1350.3</ele>
        <time>2018-08-10T08:51:06Z</time>
      </trkpt>
      <trkpt lat="44.34923" lon="6.38258">
        <ele>1350.2</ele>
        <time>2018-08-10T08:51:07Z</time>
      </trkpt>
      <trkpt lat="44.34923" lon="6.38262">
        <ele>1350.2</ele>
        <time>2018-08-10T08:51:08Z</time>
      </trkpt>
      <trkpt lat="44.34923" lon="6.38267">
        <ele>1350.1</ele>
        <time>2018-08-10T08:51:09Z</time>
      </trkpt>
      <trkpt lat="44.34923" lon="6.38272">
        <ele>1350.1</ele>
        <time>2018-08-10T08:51:10Z</time>
      </trkpt>
      <trkpt lat="44.34922" lon="6.38276">
        <ele>1350</ele>
        <time>2018-08-10T08:51:11Z</time>
      </trkpt>
      <trkpt lat="44.34922" lon="6.38281">
        <ele>1349.8</ele>
        <time>2018-08-10T08:51:12Z</time>
      </trkpt>
      <trkpt lat="44.34921" lon="6.38284">
        <ele>1349.7</ele>
        <time>2018-08-10T08:51:13Z</time>
      </trkpt>
      <trkpt lat="44.3492" lon="6.38288">
        <ele>1349.7</ele>
        <time>2018-08-10T08:51:14Z</time>
      </trkpt>
      <trkpt lat="44.34919" lon="6.38292">
        <ele>1349.7</ele>
        <time>2018-08-10T08:51:15Z</time>
      </trkpt>
      <trkpt lat="44.34918" lon="6.38296">
        <ele>1349.6</ele>
        <time>2018-08-10T08:51:16Z</time>
      </trkpt>
      <trkpt lat="44.34917" lon="6.383">
        <ele>1349.4</ele>
        <time>2018-08-10T08:51:17Z</time>
      </trkpt>
      <trkpt lat="44.34917" lon="6.38306">
        <ele>1349.1</ele>
        <time>2018-08-10T08:51:19Z</time>
      </trkpt>
      <trkpt lat="44.34915" lon="6.38314">
        <ele>1348.9</ele>
        <time>2018-08-10T08:51:21Z</time>
      </trkpt>
      <trkpt lat="44.34913" lon="6.3832">
        <ele>1348.7</ele>
        <time>2018-08-10T08:51:22Z</time>
      </trkpt>
      <trkpt lat="44.34911" lon="6.38326">
        <ele>1348.5</ele>
        <time>2018-08-10T08:51:23Z</time>
      </trkpt>
      <trkpt lat="44.34911" lon="6.38331">
        <ele>1348.6</ele>
        <time>2018-08-10T08:51:24Z</time>
      </trkpt>
      <trkpt lat="44.3491" lon="6.38336">
        <ele>1348.8</ele>
        <time>2018-08-10T08:51:25Z</time>
      </trkpt>
      <trkpt lat="44.34909" lon="6.38341">
        <ele>1348.9</ele>
        <time>2018-08-10T08:51:26Z</time>
      </trkpt>
      <trkpt lat="44.34908" lon="6.38346">
        <ele>1348.8</ele>
        <time>2018-08-10T08:51:27Z</time>
      </trkpt>
      <trkpt lat="44.34906" lon="6.3835">
        <ele>1348.8</ele>
        <time>2018-08-10T08:51:28Z</time>
      </trkpt>
      <trkpt lat="44.34903" lon="6.38355">
        <ele>1348.9</ele>
        <time>2018-08-10T08:51:29Z</time>
      </trkpt>
      <trkpt lat="44.34901" lon="6.38358">
        <ele>1349</ele>
        <time>2018-08-10T08:51:30Z</time>
      </trkpt>
      <trkpt lat="44.34898" lon="6.38365">
        <ele>1348.9</ele>
        <time>2018-08-10T08:51:32Z</time>
      </trkpt>
      <trkpt lat="44.34895" lon="6.3837">
        <ele>1348.9</ele>
        <time>2018-08-10T08:51:33Z</time>
      </trkpt>
      <trkpt lat="44.34894" lon="6.38374">
        <ele>1348.9</ele>
        <time>2018-08-10T08:51:34Z</time>
      </trkpt>
      <trkpt lat="44.34892" lon="6.38377">
        <ele>1348.9</ele>
        <time>2018-08-10T08:51:35Z</time>
      </trkpt>
      <trkpt lat="44.34891" lon="6.38381">
        <ele>1348.9</ele>
        <time>2018-08-10T08:51:36Z</time>
      </trkpt>
      <trkpt lat="44.34888" lon="6.38385">
        <ele>1348.8</ele>
        <time>2018-08-10T08:51:37Z</time>
      </trkpt>
      <trkpt lat="44.34886" lon="6.38389">
        <ele>1348.7</ele>
        <time>2018-08-10T08:51:38Z</time>
      </trkpt>
      <trkpt lat="44.34885" lon="6.38394">
        <ele>1348.7</ele>
        <time>2018-08-10T08:51:39Z</time>
      </trkpt>
      <trkpt lat="44.34882" lon="6.38401">
        <ele>1348.9</ele>
        <time>2018-08-10T08:51:41Z</time>
      </trkpt>
      <trkpt lat="44.34879" lon="6.38406">
        <ele>1349</ele>
        <time>2018-08-10T08:51:42Z</time>
      </trkpt>
      <trkpt lat="44.34876" lon="6.38409">
        <ele>1349.2</ele>
        <time>2018-08-10T08:51:43Z</time>
      </trkpt>
      <trkpt lat="44.34875" lon="6.38413">
        <ele>1349.2</ele>
        <time>2018-08-10T08:51:44Z</time>
      </trkpt>
      <trkpt lat="44.34873" lon="6.38416">
        <ele>1349.3</ele>
        <time>2018-08-10T08:51:45Z</time>
      </trkpt>
      <trkpt lat="44.3487" lon="6.38421">
        <ele>1349.2</ele>
        <time>2018-08-10T08:51:46Z</time>
      </trkpt>
      <trkpt lat="44.34868" lon="6.38425">
        <ele>1349.1</ele>
        <time>2018-08-10T08:51:47Z</time>
      </trkpt>
      <trkpt lat="44.34866" lon="6.38428">
        <ele>1349</ele>
        <time>2018-08-10T08:51:48Z</time>
      </trkpt>
      <trkpt lat="44.34865" lon="6.38432">
        <ele>1348.9</ele>
        <time>2018-08-10T08:51:49Z</time>
      </trkpt>
      <trkpt lat="44.34864" lon="6.38437">
        <ele>1348.8</ele>
        <time>2018-08-10T08:51:50Z</time>
      </trkpt>
      <trkpt lat="44.34863" lon="6.38441">
        <ele>1348.8</ele>
        <time>2018-08-10T08:51:51Z</time>
      </trkpt>
      <trkpt lat="44.34861" lon="6.38445">
        <ele>1349</ele>
        <time>2018-08-10T08:51:52Z</time>
      </trkpt>
      <trkpt lat="44.3486" lon="6.38449">
        <ele>1349.2</ele>
        <time>2018-08-10T08:51:53Z</time>
      </trkpt>
      <trkpt lat="44.34859" lon="6.38454">
        <ele>1349.2</ele>
        <time>2018-08-10T08:51:54Z</time>
      </trkpt>
      <trkpt lat="44.34859" lon="6.38458">
        <ele>1349.1</ele>
        <time>2018-08-10T08:51:55Z</time>
      </trkpt>
      <trkpt lat="44.34857" lon="6.38463">
        <ele>1349.5</ele>
        <time>2018-08-10T08:51:56Z</time>
      </trkpt>
      <trkpt lat="44.34858" lon="6.38471">
        <ele>1350</ele>
        <time>2018-08-10T08:51:58Z</time>
      </trkpt>
      <trkpt lat="44.34859" lon="6.38475">
        <ele>1350.4</ele>
        <time>2018-08-10T08:51:59Z</time>
      </trkpt>
      <trkpt lat="44.34859" lon="6.38479">
        <ele>1350.7</ele>
        <time>2018-08-10T08:52:00Z</time>
      </trkpt>
      <trkpt lat="44.3486" lon="6.38486">
        <ele>1351.2</ele>
        <time>2018-08-10T08:52:02Z</time>
      </trkpt>
      <trkpt lat="44.34862" lon="6.38491">
        <ele>1351.6</ele>
        <time>2018-08-10T08:52:04Z</time>
      </trkpt>
      <trkpt lat="44.34861" lon="6.38496">
        <ele>1351.8</ele>
        <time>2018-08-10T08:52:07Z</time>
      </trkpt>
      <trkpt lat="44.34862" lon="6.385">
        <ele>1352</ele>
        <time>2018-08-10T08:52:09Z</time>
      </trkpt>
      <trkpt lat="44.34865" lon="6.385">
        <ele>1352</ele>
        <time>2018-08-10T08:52:30Z</time>
      </trkpt>
      <trkpt lat="44.34867" lon="6.38503">
        <ele>1352</ele>
        <time>2018-08-10T08:52:34Z</time>
      </trkpt>
      <trkpt lat="44.34869" lon="6.38507">
        <ele>1352</ele>
        <time>2018-08-10T08:52:41Z</time>
      </trkpt>
      <trkpt lat="44.3487" lon="6.38511">
        <ele>1352.1</ele>
        <time>2018-08-10T08:52:43Z</time>
      </trkpt>
      <trkpt lat="44.34872" lon="6.38514">
        <ele>1352.3</ele>
        <time>2018-08-10T08:52:45Z</time>
      </trkpt>
      <trkpt lat="44.34873" lon="6.38518">
        <ele>1352.7</ele>
        <time>2018-08-10T08:52:47Z</time>
      </trkpt>
      <trkpt lat="44.34875" lon="6.38521">
        <ele>1353</ele>
        <time>2018-08-10T08:52:49Z</time>
      </trkpt>
      <trkpt lat="44.34878" lon="6.38524">
        <ele>1353.3</ele>
        <time>2018-08-10T08:52:51Z</time>
      </trkpt>
      <trkpt lat="44.34879" lon="6.38529">
        <ele>1353.6</ele>
        <time>2018-08-10T08:52:53Z</time>
      </trkpt>
      <trkpt lat="44.3488" lon="6.38533">
        <ele>1354</ele>
        <time>2018-08-10T08:52:55Z</time>
      </trkpt>
      <trkpt lat="44.34882" lon="6.38537">
        <ele>1354.7</ele>
        <time>2018-08-10T08:52:57Z</time>
      </trkpt>
      <trkpt lat="44.34883" lon="6.38541">
        <ele>1355.3</ele>
        <time>2018-08-10T08:52:59Z</time>
      </trkpt>
      <trkpt lat="44.34885" lon="6.38544">
        <ele>1355.8</ele>
        <time>2018-08-10T08:53:01Z</time>
      </trkpt>
      <trkpt lat="44.34887" lon="6.38548">
        <ele>1356.2</ele>
        <time>2018-08-10T08:53:03Z</time>
      </trkpt>
      <trkpt lat="44.34888" lon="6.38552">
        <ele>1356.7</ele>
        <time>2018-08-10T08:53:05Z</time>
      </trkpt>
      <trkpt lat="44.34889" lon="6.38555">
        <ele>1357.2</ele>
        <time>2018-08-10T08:53:07Z</time>
      </trkpt>
      <trkpt lat="44.34892" lon="6.3856">
        <ele>1358.1</ele>
        <time>2018-08-10T08:53:10Z</time>
      </trkpt>
      <trkpt lat="44.34894" lon="6.38563">
        <ele>1358.5</ele>
        <time>2018-08-10T08:53:12Z</time>
      </trkpt>
      <trkpt lat="44.34896" lon="6.38566">
        <ele>1359</ele>
        <time>2018-08-10T08:53:15Z</time>
      </trkpt>
      <trkpt lat="44.34898" lon="6.3857">
        <ele>1359.4</ele>
        <time>2018-08-10T08:53:18Z</time>
      </trkpt>
      <trkpt lat="44.34901" lon="6.38574">
        <ele>1360.3</ele>
        <time>2018-08-10T08:53:21Z</time>
      </trkpt>
      <trkpt lat="44.34902" lon="6.38578">
        <ele>1360.9</ele>
        <time>2018-08-10T08:53:23Z</time>
      </trkpt>
      <trkpt lat="44.34904" lon="6.38582">
        <ele>1361.4</ele>
        <time>2018-08-10T08:53:26Z</time>
      </trkpt>
      <trkpt lat="44.34906" lon="6.38586">
        <ele>1361.7</ele>
        <time>2018-08-10T08:53:29Z</time>
      </trkpt>
      <trkpt lat="44.34908" lon="6.3859">
        <ele>1362</ele>
        <time>2018-08-10T08:53:32Z</time>
      </trkpt>
      <trkpt lat="44.34911" lon="6.38592">
        <ele>1362</ele>
        <time>2018-08-10T08:53:34Z</time>
      </trkpt>
      <trkpt lat="44.34914" lon="6.38593">
        <ele>1362.1</ele>
        <time>2018-08-10T08:53:37Z</time>
      </trkpt>
      <trkpt lat="44.34917" lon="6.38596">
        <ele>1362.7</ele>
        <time>2018-08-10T08:53:48Z</time>
      </trkpt>
      <trkpt lat="44.34918" lon="6.38599">
        <ele>1363.2</ele>
        <time>2018-08-10T08:53:50Z</time>
      </trkpt>
      <trkpt lat="44.34921" lon="6.38601">
        <ele>1363.9</ele>
        <time>2018-08-10T08:53:52Z</time>
      </trkpt>
      <trkpt lat="44.34925" lon="6.38603">
        <ele>1364.8</ele>
        <time>2018-08-10T08:53:55Z</time>
      </trkpt>
      <trkpt lat="44.34928" lon="6.38605">
        <ele>1365.4</ele>
        <time>2018-08-10T08:53:58Z</time>
      </trkpt>
      <trkpt lat="44.34931" lon="6.38608">
        <ele>1366.1</ele>
        <time>2018-08-10T08:54:01Z</time>
      </trkpt>
      <trkpt lat="44.34933" lon="6.3861">
        <ele>1366.6</ele>
        <time>2018-08-10T08:54:04Z</time>
      </trkpt>
      <trkpt lat="44.34937" lon="6.38613">
        <ele>1367.3</ele>
        <time>2018-08-10T08:54:08Z</time>
      </trkpt>
      <trkpt lat="44.3494" lon="6.38615">
        <ele>1368</ele>
        <time>2018-08-10T08:54:11Z</time>
      </trkpt>
      <trkpt lat="44.34944" lon="6.38618">
        <ele>1368.8</ele>
        <time>2018-08-10T08:54:14Z</time>
      </trkpt>
      <trkpt lat="44.34947" lon="6.3862">
        <ele>1369.3</ele>
        <time>2018-08-10T08:54:17Z</time>
      </trkpt>
      <trkpt lat="44.3495" lon="6.38621">
        <ele>1369.7</ele>
        <time>2018-08-10T08:54:20Z</time>
      </trkpt>
      <trkpt lat="44.34953" lon="6.38624">
        <ele>1370.4</ele>
        <time>2018-08-10T08:54:23Z</time>
      </trkpt>
      <trkpt lat="44.34956" lon="6.38626">
        <ele>1370.9</ele>
        <time>2018-08-10T08:54:25Z</time>
      </trkpt>
      <trkpt lat="44.34959" lon="6.38626">
        <ele>1371.3</ele>
        <time>2018-08-10T08:54:27Z</time>
      </trkpt>
      <trkpt lat="44.34961" lon="6.38627">
        <ele>1371.6</ele>
        <time>2018-08-10T08:54:30Z</time>
      </trkpt>
      <trkpt lat="44.34965" lon="6.3863">
        <ele>1372.1</ele>
        <time>2018-08-10T08:54:33Z</time>
      </trkpt>
      <trkpt lat="44.34968" lon="6.38632">
        <ele>1372.6</ele>
        <time>2018-08-10T08:54:37Z</time>
      </trkpt>
      <trkpt lat="44.34971" lon="6.38635">
        <ele>1373.3</ele>
        <time>2018-08-10T08:54:40Z</time>
      </trkpt>
      <trkpt lat="44.34973" lon="6.38637">
        <ele>1373.7</ele>
        <time>2018-08-10T08:54:42Z</time>
      </trkpt>
      <trkpt lat="44.34976" lon="6.3864">
        <ele>1374</ele>
        <time>2018-08-10T08:54:45Z</time>
      </trkpt>
      <trkpt lat="44.3498" lon="6.38642">
        <ele>1374.5</ele>
        <time>2018-08-10T08:54:48Z</time>
      </trkpt>
      <trkpt lat="44.34982" lon="6.38646">
        <ele>1374.9</ele>
        <time>2018-08-10T08:54:51Z</time>
      </trkpt>
      <trkpt lat="44.34985" lon="6.38647">
        <ele>1375.3</ele>
        <time>2018-08-10T08:54:53Z</time>
      </trkpt>
      <trkpt lat="44.34988" lon="6.38651">
        <ele>1375.7</ele>
        <time>2018-08-10T08:54:56Z</time>
      </trkpt>
      <trkpt lat="44.3499" lon="6.38653">
        <ele>1376</ele>
        <time>2018-08-10T08:54:58Z</time>
      </trkpt>
      <trkpt lat="44.34993" lon="6.38656">
        <ele>1376.2</ele>
        <time>2018-08-10T08:55:00Z</time>
      </trkpt>
      <trkpt lat="44.34995" lon="6.38657">
        <ele>1376.6</ele>
        <time>2018-08-10T08:55:03Z</time>
      </trkpt>
      <trkpt lat="44.34999" lon="6.38659">
        <ele>1377</ele>
        <time>2018-08-10T08:55:06Z</time>
      </trkpt>
      <trkpt lat="44.35001" lon="6.38663">
        <ele>1377.4</ele>
        <time>2018-08-10T08:55:09Z</time>
      </trkpt>
      <trkpt lat="44.35004" lon="6.38666">
        <ele>1377.7</ele>
        <time>2018-08-10T08:55:13Z</time>
      </trkpt>
      <trkpt lat="44.35007" lon="6.38667">
        <ele>1377.9</ele>
        <time>2018-08-10T08:55:16Z</time>
      </trkpt>
      <trkpt lat="44.35009" lon="6.3867">
        <ele>1378.1</ele>
        <time>2018-08-10T08:55:19Z</time>
      </trkpt>
      <trkpt lat="44.35011" lon="6.38673">
        <ele>1378.2</ele>
        <time>2018-08-10T08:55:21Z</time>
      </trkpt>
      <trkpt lat="44.35013" lon="6.38677">
        <ele>1378.4</ele>
        <time>2018-08-10T08:55:23Z</time>
      </trkpt>
      <trkpt lat="44.35016" lon="6.38681">
        <ele>1378.6</ele>
        <time>2018-08-10T08:55:26Z</time>
      </trkpt>
      <trkpt lat="44.35018" lon="6.38684">
        <ele>1378.7</ele>
        <time>2018-08-10T08:55:29Z</time>
      </trkpt>
      <trkpt lat="44.3502" lon="6.38689">
        <ele>1379</ele>
        <time>2018-08-10T08:55:32Z</time>
      </trkpt>
      <trkpt lat="44.35022" lon="6.38693">
        <ele>1379.2</ele>
        <time>2018-08-10T08:55:35Z</time>
      </trkpt>
      <trkpt lat="44.35025" lon="6.38697">
        <ele>1379.4</ele>
        <time>2018-08-10T08:55:38Z</time>
      </trkpt>
      <trkpt lat="44.35027" lon="6.387">
        <ele>1379.5</ele>
        <time>2018-08-10T08:55:41Z</time>
      </trkpt>
      <trkpt lat="44.35029" lon="6.38703">
        <ele>1379.6</ele>
        <time>2018-08-10T08:55:44Z</time>
      </trkpt>
      <trkpt lat="44.35029" lon="6.38708">
        <ele>1379.8</ele>
        <time>2018-08-10T08:55:47Z</time>
      </trkpt>
      <trkpt lat="44.3503" lon="6.38711">
        <ele>1379.9</ele>
        <time>2018-08-10T08:55:51Z</time>
      </trkpt>
      <trkpt lat="44.35033" lon="6.38718">
        <ele>1380.2</ele>
        <time>2018-08-10T08:56:45Z</time>
      </trkpt>
      <trkpt lat="44.35033" lon="6.38723">
        <ele>1380.3</ele>
        <time>2018-08-10T08:56:47Z</time>
      </trkpt>
      <trkpt lat="44.35034" lon="6.38728">
        <ele>1380.5</ele>
        <time>2018-08-10T08:56:49Z</time>
      </trkpt>
      <trkpt lat="44.35035" lon="6.38731">
        <ele>1380.6</ele>
        <time>2018-08-10T08:56:51Z</time>
      </trkpt>
      <trkpt lat="44.35037" lon="6.38735">
        <ele>1380.7</ele>
        <time>2018-08-10T08:56:53Z</time>
      </trkpt>
      <trkpt lat="44.35036" lon="6.3874">
        <ele>1380.8</ele>
        <time>2018-08-10T08:56:56Z</time>
      </trkpt>
      <trkpt lat="44.35036" lon="6.38745">
        <ele>1380.8</ele>
        <time>2018-08-10T08:56:58Z</time>
      </trkpt>
      <trkpt lat="44.35037" lon="6.3875">
        <ele>1380.8</ele>
        <time>2018-08-10T08:57:00Z</time>
      </trkpt>
      <trkpt lat="44.35036" lon="6.38756">
        <ele>1380.8</ele>
        <time>2018-08-10T08:57:02Z</time>
      </trkpt>
      <trkpt lat="44.35037" lon="6.38761">
        <ele>1380.9</ele>
        <time>2018-08-10T08:57:05Z</time>
      </trkpt>
      <trkpt lat="44.35037" lon="6.38766">
        <ele>1381</ele>
        <time>2018-08-10T08:57:07Z</time>
      </trkpt>
      <trkpt lat="44.35038" lon="6.3877">
        <ele>1381</ele>
        <time>2018-08-10T08:57:09Z</time>
      </trkpt>
      <trkpt lat="44.35039" lon="6.38776">
        <ele>1381.3</ele>
        <time>2018-08-10T08:57:12Z</time>
      </trkpt>
      <trkpt lat="44.3504" lon="6.3878">
        <ele>1381.6</ele>
        <time>2018-08-10T08:57:14Z</time>
      </trkpt>
      <trkpt lat="44.35039" lon="6.38785">
        <ele>1381.8</ele>
        <time>2018-08-10T08:57:16Z</time>
      </trkpt>
      <trkpt lat="44.35039" lon="6.3879">
        <ele>1382</ele>
        <time>2018-08-10T08:57:18Z</time>
      </trkpt>
      <trkpt lat="44.35038" lon="6.38795">
        <ele>1382.1</ele>
        <time>2018-08-10T08:57:20Z</time>
      </trkpt>
      <trkpt lat="44.35037" lon="6.38799">
        <ele>1382.3</ele>
        <time>2018-08-10T08:57:21Z</time>
      </trkpt>
      <trkpt lat="44.35036" lon="6.38804">
        <ele>1382.4</ele>
        <time>2018-08-10T08:57:23Z</time>
      </trkpt>
      <trkpt lat="44.35035" lon="6.38808">
        <ele>1382.4</ele>
        <time>2018-08-10T08:57:24Z</time>
      </trkpt>
      <trkpt lat="44.35033" lon="6.38811">
        <ele>1382.4</ele>
        <time>2018-08-10T08:57:26Z</time>
      </trkpt>
      <trkpt lat="44.35032" lon="6.38815">
        <ele>1382.4</ele>
        <time>2018-08-10T08:57:28Z</time>
      </trkpt>
      <trkpt lat="44.3503" lon="6.3882">
        <ele>1382.5</ele>
        <time>2018-08-10T08:57:30Z</time>
      </trkpt>
      <trkpt lat="44.3503" lon="6.38824">
        <ele>1382.5</ele>
        <time>2018-08-10T08:57:32Z</time>
      </trkpt>
      <trkpt lat="44.3503" lon="6.38828">
        <ele>1382.5</ele>
        <time>2018-08-10T08:57:34Z</time>
      </trkpt>
      <trkpt lat="44.35028" lon="6.38831">
        <ele>1382.5</ele>
        <time>2018-08-10T08:57:36Z</time>
      </trkpt>
      <trkpt lat="44.35027" lon="6.38835">
        <ele>1382.5</ele>
        <time>2018-08-10T08:57:38Z</time>
      </trkpt>
      <trkpt lat="44.35026" lon="6.3884">
        <ele>1382.6</ele>
        <time>2018-08-10T08:57:41Z</time>
      </trkpt>
      <trkpt lat="44.35024" lon="6.38845">
        <ele>1382.7</ele>
        <time>2018-08-10T08:57:43Z</time>
      </trkpt>
      <trkpt lat="44.35021" lon="6.38851">
        <ele>1383</ele>
        <time>2018-08-10T08:57:45Z</time>
      </trkpt>
      <trkpt lat="44.35019" lon="6.38856">
        <ele>1383.3</ele>
        <time>2018-08-10T08:57:47Z</time>
      </trkpt>
      <trkpt lat="44.35017" lon="6.38859">
        <ele>1383.3</ele>
        <time>2018-08-10T08:57:49Z</time>
      </trkpt>
      <trkpt lat="44.35015" lon="6.38863">
        <ele>1383.2</ele>
        <time>2018-08-10T08:57:51Z</time>
      </trkpt>
      <trkpt lat="44.35012" lon="6.38867">
        <ele>1383.2</ele>
        <time>2018-08-10T08:57:53Z</time>
      </trkpt>
      <trkpt lat="44.3501" lon="6.38872">
        <ele>1383.2</ele>
        <time>2018-08-10T08:57:55Z</time>
      </trkpt>
      <trkpt lat="44.35008" lon="6.38877">
        <ele>1383.2</ele>
        <time>2018-08-10T08:57:57Z</time>
      </trkpt>
      <trkpt lat="44.35006" lon="6.38881">
        <ele>1383.1</ele>
        <time>2018-08-10T08:57:59Z</time>
      </trkpt>
      <trkpt lat="44.35004" lon="6.38887">
        <ele>1383.2</ele>
        <time>2018-08-10T08:58:01Z</time>
      </trkpt>
      <trkpt lat="44.35002" lon="6.38892">
        <ele>1383.4</ele>
        <time>2018-08-10T08:58:03Z</time>
      </trkpt>
      <trkpt lat="44.35" lon="6.38897">
        <ele>1383.5</ele>
        <time>2018-08-10T08:58:05Z</time>
      </trkpt>
      <trkpt lat="44.34999" lon="6.38901">
        <ele>1383.5</ele>
        <time>2018-08-10T08:58:07Z</time>
      </trkpt>
      <trkpt lat="44.34998" lon="6.38906">
        <ele>1383.6</ele>
        <time>2018-08-10T08:58:09Z</time>
      </trkpt>
      <trkpt lat="44.34996" lon="6.38909">
        <ele>1383.7</ele>
        <time>2018-08-10T08:58:11Z</time>
      </trkpt>
      <trkpt lat="44.34994" lon="6.38913">
        <ele>1383.9</ele>
        <time>2018-08-10T08:58:13Z</time>
      </trkpt>
      <trkpt lat="44.34993" lon="6.38918">
        <ele>1384.3</ele>
        <time>2018-08-10T08:58:15Z</time>
      </trkpt>
      <trkpt lat="44.34991" lon="6.38921">
        <ele>1384.6</ele>
        <time>2018-08-10T08:58:17Z</time>
      </trkpt>
      <trkpt lat="44.34989" lon="6.38925">
        <ele>1384.7</ele>
        <time>2018-08-10T08:58:19Z</time>
      </trkpt>
      <trkpt lat="44.34988" lon="6.38931">
        <ele>1384.6</ele>
        <time>2018-08-10T08:58:22Z</time>
      </trkpt>
      <trkpt lat="44.34987" lon="6.38935">
        <ele>1384.6</ele>
        <time>2018-08-10T08:58:24Z</time>
      </trkpt>
      <trkpt lat="44.34985" lon="6.38939">
        <ele>1385.1</ele>
        <time>2018-08-10T08:58:27Z</time>
      </trkpt>
      <trkpt lat="44.34985" lon="6.38943">
        <ele>1385.5</ele>
        <time>2018-08-10T08:58:29Z</time>
      </trkpt>
      <trkpt lat="44.34983" lon="6.38947">
        <ele>1385.8</ele>
        <time>2018-08-10T08:58:31Z</time>
      </trkpt>
      <trkpt lat="44.34982" lon="6.38951">
        <ele>1386</ele>
        <time>2018-08-10T08:58:33Z</time>
      </trkpt>
      <trkpt lat="44.3498" lon="6.38954">
        <ele>1386.3</ele>
        <time>2018-08-10T08:58:35Z</time>
      </trkpt>
      <trkpt lat="44.34978" lon="6.38959">
        <ele>1386.8</ele>
        <time>2018-08-10T08:58:37Z</time>
      </trkpt>
      <trkpt lat="44.34976" lon="6.38962">
        <ele>1387.2</ele>
        <time>2018-08-10T08:58:39Z</time>
      </trkpt>
      <trkpt lat="44.34975" lon="6.38966">
        <ele>1387.6</ele>
        <time>2018-08-10T08:58:41Z</time>
      </trkpt>
      <trkpt lat="44.34973" lon="6.38969">
        <ele>1387.8</ele>
        <time>2018-08-10T08:58:44Z</time>
      </trkpt>
      <trkpt lat="44.34973" lon="6.38973">
        <ele>1388</ele>
        <time>2018-08-10T08:58:47Z</time>
      </trkpt>
      <trkpt lat="44.34972" lon="6.38978">
        <ele>1388.2</ele>
        <time>2018-08-10T08:58:50Z</time>
      </trkpt>
      <trkpt lat="44.3497" lon="6.38982">
        <ele>1388.4</ele>
        <time>2018-08-10T08:58:53Z</time>
      </trkpt>
      <trkpt lat="44.34969" lon="6.38986">
        <ele>1388.5</ele>
        <time>2018-08-10T08:58:56Z</time>
      </trkpt>
      <trkpt lat="44.34968" lon="6.38991">
        <ele>1388.6</ele>
        <time>2018-08-10T08:58:58Z</time>
      </trkpt>
      <trkpt lat="44.34966" lon="6.38994">
        <ele>1388.7</ele>
        <time>2018-08-10T08:58:59Z</time>
      </trkpt>
      <trkpt lat="44.34965" lon="6.38998">
        <ele>1388.9</ele>
        <time>2018-08-10T08:59:02Z</time>
      </trkpt>
      <trkpt lat="44.34964" lon="6.39002">
        <ele>1389.1</ele>
        <time>2018-08-10T08:59:05Z</time>
      </trkpt>
      <trkpt lat="44.34962" lon="6.39007">
        <ele>1389.5</ele>
        <time>2018-08-10T08:59:08Z</time>
      </trkpt>
      <trkpt lat="44.34961" lon="6.3901">
        <ele>1389.7</ele>
        <time>2018-08-10T08:59:10Z</time>
      </trkpt>
      <trkpt lat="44.3496" lon="6.39015">
        <ele>1389.8</ele>
        <time>2018-08-10T08:59:14Z</time>
      </trkpt>
      <trkpt lat="44.34961" lon="6.3902">
        <ele>1390.1</ele>
        <time>2018-08-10T08:59:19Z</time>
      </trkpt>
      <trkpt lat="44.34961" lon="6.39026">
        <ele>1390.7</ele>
        <time>2018-08-10T08:59:22Z</time>
      </trkpt>
      <trkpt lat="44.34963" lon="6.39031">
        <ele>1391.3</ele>
        <time>2018-08-10T08:59:25Z</time>
      </trkpt>
      <trkpt lat="44.34961" lon="6.39035">
        <ele>1391.2</ele>
        <time>2018-08-10T08:59:28Z</time>
      </trkpt>
      <trkpt lat="44.3496" lon="6.3904">
        <ele>1391</ele>
        <time>2018-08-10T08:59:32Z</time>
      </trkpt>
      <trkpt lat="44.3496" lon="6.39044">
        <ele>1391.3</ele>
        <time>2018-08-10T08:59:35Z</time>
      </trkpt>
      <trkpt lat="44.3496" lon="6.39049">
        <ele>1392.2</ele>
        <time>2018-08-10T08:59:38Z</time>
      </trkpt>
      <trkpt lat="44.34961" lon="6.39054">
        <ele>1392.9</ele>
        <time>2018-08-10T08:59:42Z</time>
      </trkpt>
      <trkpt lat="44.34962" lon="6.39058">
        <ele>1393.4</ele>
        <time>2018-08-10T08:59:44Z</time>
      </trkpt>
      <trkpt lat="44.34963" lon="6.39062">
        <ele>1394.1</ele>
        <time>2018-08-10T08:59:46Z</time>
      </trkpt>
      <trkpt lat="44.34964" lon="6.39066">
        <ele>1395.2</ele>
        <time>2018-08-10T08:59:49Z</time>
      </trkpt>
      <trkpt lat="44.34966" lon="6.3907">
        <ele>1396.2</ele>
        <time>2018-08-10T08:59:52Z</time>
      </trkpt>
      <trkpt lat="44.34968" lon="6.39074">
        <ele>1397.5</ele>
        <time>2018-08-10T08:59:55Z</time>
      </trkpt>
      <trkpt lat="44.34969" lon="6.39079">
        <ele>1398.8</ele>
        <time>2018-08-10T08:59:58Z</time>
      </trkpt>
      <trkpt lat="44.3497" lon="6.39083">
        <ele>1400</ele>
        <time>2018-08-10T09:00:01Z</time>
      </trkpt>
      <trkpt lat="44.34973" lon="6.39086">
        <ele>1400</ele>
        <time>2018-08-10T09:00:05Z</time>
      </trkpt>
      <trkpt lat="44.34972" lon="6.3909">
        <ele>1400.1</ele>
        <time>2018-08-10T09:00:07Z</time>
      </trkpt>
      <trkpt lat="44.34973" lon="6.39095">
        <ele>1400.4</ele>
        <time>2018-08-10T09:00:11Z</time>
      </trkpt>
      <trkpt lat="44.34972" lon="6.39099">
        <ele>1400.7</ele>
        <time>2018-08-10T09:00:13Z</time>
      </trkpt>
      <trkpt lat="44.34972" lon="6.39104">
        <ele>1401.3</ele>
        <time>2018-08-10T09:00:16Z</time>
      </trkpt>
      <trkpt lat="44.34972" lon="6.39108">
        <ele>1401.9</ele>
        <time>2018-08-10T09:00:20Z</time>
      </trkpt>
      <trkpt lat="44.34971" lon="6.39113">
        <ele>1402.5</ele>
        <time>2018-08-10T09:00:23Z</time>
      </trkpt>
      <trkpt lat="44.3497" lon="6.39117">
        <ele>1402.8</ele>
        <time>2018-08-10T09:00:25Z</time>
      </trkpt>
      <trkpt lat="44.3497" lon="6.39122">
        <ele>1403.4</ele>
        <time>2018-08-10T09:00:28Z</time>
      </trkpt>
      <trkpt lat="44.34968" lon="6.39126">
        <ele>1403.9</ele>
        <time>2018-08-10T09:00:30Z</time>
      </trkpt>
      <trkpt lat="44.34967" lon="6.39131">
        <ele>1404.6</ele>
        <time>2018-08-10T09:00:34Z</time>
      </trkpt>
      <trkpt lat="44.34967" lon="6.39136">
        <ele>1404.9</ele>
        <time>2018-08-10T09:00:38Z</time>
      </trkpt>
      <trkpt lat="44.34968" lon="6.39141">
        <ele>1405.3</ele>
        <time>2018-08-10T09:00:41Z</time>
      </trkpt>
      <trkpt lat="44.3497" lon="6.39145">
        <ele>1405.8</ele>
        <time>2018-08-10T09:00:55Z</time>
      </trkpt>
      <trkpt lat="44.34972" lon="6.39149">
        <ele>1406.5</ele>
        <time>2018-08-10T09:00:58Z</time>
      </trkpt>
      <trkpt lat="44.34974" lon="6.39151">
        <ele>1407</ele>
        <time>2018-08-10T09:01:01Z</time>
      </trkpt>
      <trkpt lat="44.34977" lon="6.39154">
        <ele>1407</ele>
        <time>2018-08-10T09:01:05Z</time>
      </trkpt>
      <trkpt lat="44.34978" lon="6.39158">
        <ele>1407.4</ele>
        <time>2018-08-10T09:01:08Z</time>
      </trkpt>
      <trkpt lat="44.34978" lon="6.39161">
        <ele>1408.5</ele>
        <time>2018-08-10T09:01:11Z</time>
      </trkpt>
      <trkpt lat="44.34978" lon="6.39168">
        <ele>1410.4</ele>
        <time>2018-08-10T09:01:18Z</time>
      </trkpt>
      <trkpt lat="44.34979" lon="6.39172">
        <ele>1411.6</ele>
        <time>2018-08-10T09:01:22Z</time>
      </trkpt>
      <trkpt lat="44.34981" lon="6.39175">
        <ele>1412.8</ele>
        <time>2018-08-10T09:01:28Z</time>
      </trkpt>
      <trkpt lat="44.34984" lon="6.3918">
        <ele>1413.9</ele>
        <time>2018-08-10T09:01:33Z</time>
      </trkpt>
      <trkpt lat="44.34986" lon="6.39183">
        <ele>1414.5</ele>
        <time>2018-08-10T09:01:36Z</time>
      </trkpt>
      <trkpt lat="44.34988" lon="6.39186">
        <ele>1415.2</ele>
        <time>2018-08-10T09:01:40Z</time>
      </trkpt>
      <trkpt lat="44.34988" lon="6.3919">
        <ele>1416</ele>
        <time>2018-08-10T09:01:43Z</time>
      </trkpt>
      <trkpt lat="44.3499" lon="6.39193">
        <ele>1417</ele>
        <time>2018-08-10T09:01:46Z</time>
      </trkpt>
      <trkpt lat="44.34992" lon="6.39196">
        <ele>1418</ele>
        <time>2018-08-10T09:01:51Z</time>
      </trkpt>
      <trkpt lat="44.34993" lon="6.392">
        <ele>1418.5</ele>
        <time>2018-08-10T09:01:54Z</time>
      </trkpt>
      <trkpt lat="44.34995" lon="6.39203">
        <ele>1419</ele>
        <time>2018-08-10T09:01:57Z</time>
      </trkpt>
      <trkpt lat="44.34999" lon="6.39204">
        <ele>1419.5</ele>
        <time>2018-08-10T09:02:02Z</time>
      </trkpt>
      <trkpt lat="44.35001" lon="6.39202">
        <ele>1420.4</ele>
        <time>2018-08-10T09:02:06Z</time>
      </trkpt>
      <trkpt lat="44.35005" lon="6.39201">
        <ele>1421.3</ele>
        <time>2018-08-10T09:02:10Z</time>
      </trkpt>
      <trkpt lat="44.35008" lon="6.39199">
        <ele>1422.3</ele>
        <time>2018-08-10T09:02:17Z</time>
      </trkpt>
      <trkpt lat="44.35009" lon="6.39194">
        <ele>1423.5</ele>
        <time>2018-08-10T09:02:20Z</time>
      </trkpt>
      <trkpt lat="44.35013" lon="6.39191">
        <ele>1424.8</ele>
        <time>2018-08-10T09:02:24Z</time>
      </trkpt>
      <trkpt lat="44.35016" lon="6.39187">
        <ele>1425.8</ele>
        <time>2018-08-10T09:02:27Z</time>
      </trkpt>
      <trkpt lat="44.35019" lon="6.39185">
        <ele>1426.5</ele>
        <time>2018-08-10T09:02:30Z</time>
      </trkpt>
      <trkpt lat="44.35022" lon="6.39182">
        <ele>1427.5</ele>
        <time>2018-08-10T09:02:33Z</time>
      </trkpt>
      <trkpt lat="44.35025" lon="6.39179">
        <ele>1428.6</ele>
        <time>2018-08-10T09:02:36Z</time>
      </trkpt>
      <trkpt lat="44.35028" lon="6.39177">
        <ele>1429.6</ele>
        <time>2018-08-10T09:02:39Z</time>
      </trkpt>
      <trkpt lat="44.3503" lon="6.39174">
        <ele>1430.4</ele>
        <time>2018-08-10T09:02:42Z</time>
      </trkpt>
      <trkpt lat="44.35032" lon="6.39172">
        <ele>1431.2</ele>
        <time>2018-08-10T09:02:44Z</time>
      </trkpt>
      <trkpt lat="44.35036" lon="6.3917">
        <ele>1432.1</ele>
        <time>2018-08-10T09:02:47Z</time>
      </trkpt>
      <trkpt lat="44.35039" lon="6.39167">
        <ele>1432.8</ele>
        <time>2018-08-10T09:02:50Z</time>
      </trkpt>
      <trkpt lat="44.3504" lon="6.39164">
        <ele>1433.3</ele>
        <time>2018-08-10T09:02:53Z</time>
      </trkpt>
      <trkpt lat="44.35044" lon="6.39164">
        <ele>1433.8</ele>
        <time>2018-08-10T09:02:56Z</time>
      </trkpt>
      <trkpt lat="44.35047" lon="6.39164">
        <ele>1434.3</ele>
        <time>2018-08-10T09:02:59Z</time>
      </trkpt>
      <trkpt lat="44.35051" lon="6.39161">
        <ele>1434.7</ele>
        <time>2018-08-10T09:03:02Z</time>
      </trkpt>
      <trkpt lat="44.35053" lon="6.39159">
        <ele>1434.9</ele>
        <time>2018-08-10T09:03:06Z</time>
      </trkpt>
      <trkpt lat="44.35056" lon="6.39159">
        <ele>1435.1</ele>
        <time>2018-08-10T09:03:10Z</time>
      </trkpt>
      <trkpt lat="44.35054" lon="6.39164">
        <ele>1435.6</ele>
        <time>2018-08-10T09:03:18Z</time>
      </trkpt>
      <trkpt lat="44.35052" lon="6.39168">
        <ele>1436.2</ele>
        <time>2018-08-10T09:03:21Z</time>
      </trkpt>
      <trkpt lat="44.35051" lon="6.39173">
        <ele>1436.8</ele>
        <time>2018-08-10T09:03:23Z</time>
      </trkpt>
      <trkpt lat="44.3505" lon="6.39178">
        <ele>1437.1</ele>
        <time>2018-08-10T09:03:25Z</time>
      </trkpt>
      <trkpt lat="44.35049" lon="6.39182">
        <ele>1437.3</ele>
        <time>2018-08-10T09:03:27Z</time>
      </trkpt>
      <trkpt lat="44.35047" lon="6.39187">
        <ele>1437.5</ele>
        <time>2018-08-10T09:03:29Z</time>
      </trkpt>
      <trkpt lat="44.35045" lon="6.3919">
        <ele>1437.9</ele>
        <time>2018-08-10T09:03:31Z</time>
      </trkpt>
      <trkpt lat="44.35045" lon="6.39196">
        <ele>1438.4</ele>
        <time>2018-08-10T09:03:33Z</time>
      </trkpt>
      <trkpt lat="44.35044" lon="6.392">
        <ele>1438.7</ele>
        <time>2018-08-10T09:03:34Z</time>
      </trkpt>
      <trkpt lat="44.35042" lon="6.39204">
        <ele>1439</ele>
        <time>2018-08-10T09:03:36Z</time>
      </trkpt>
      <trkpt lat="44.35041" lon="6.3921">
        <ele>1439.5</ele>
        <time>2018-08-10T09:03:39Z</time>
      </trkpt>
      <trkpt lat="44.35041" lon="6.39215">
        <ele>1440.2</ele>
        <time>2018-08-10T09:03:41Z</time>
      </trkpt>
      <trkpt lat="44.35041" lon="6.3922">
        <ele>1441</ele>
        <time>2018-08-10T09:03:43Z</time>
      </trkpt>
      <trkpt lat="44.3504" lon="6.39225">
        <ele>1441.5</ele>
        <time>2018-08-10T09:03:45Z</time>
      </trkpt>
      <trkpt lat="44.35041" lon="6.3923">
        <ele>1442.1</ele>
        <time>2018-08-10T09:03:47Z</time>
      </trkpt>
      <trkpt lat="44.35043" lon="6.39234">
        <ele>1442.5</ele>
        <time>2018-08-10T09:03:50Z</time>
      </trkpt>
      <trkpt lat="44.35043" lon="6.39239">
        <ele>1442.8</ele>
        <time>2018-08-10T09:03:52Z</time>
      </trkpt>
      <trkpt lat="44.35045" lon="6.39243">
        <ele>1443.1</ele>
        <time>2018-08-10T09:03:55Z</time>
      </trkpt>
      <trkpt lat="44.35048" lon="6.39247">
        <ele>1443.6</ele>
        <time>2018-08-10T09:03:58Z</time>
      </trkpt>
      <trkpt lat="44.3505" lon="6.3925">
        <ele>1444</ele>
        <time>2018-08-10T09:04:01Z</time>
      </trkpt>
      <trkpt lat="44.35052" lon="6.39253">
        <ele>1444.3</ele>
        <time>2018-08-10T09:04:03Z</time>
      </trkpt>
      <trkpt lat="44.35054" lon="6.39256">
        <ele>1444.6</ele>
        <time>2018-08-10T09:04:06Z</time>
      </trkpt>
      <trkpt lat="44.35055" lon="6.39261">
        <ele>1445</ele>
        <time>2018-08-10T09:04:09Z</time>
      </trkpt>
      <trkpt lat="44.35055" lon="6.39266">
        <ele>1445.2</ele>
        <time>2018-08-10T09:04:12Z</time>
      </trkpt>
      <trkpt lat="44.35056" lon="6.39269">
        <ele>1445.4</ele>
        <time>2018-08-10T09:04:14Z</time>
      </trkpt>
      <trkpt lat="44.35057" lon="6.39275">
        <ele>1445.5</ele>
        <time>2018-08-10T09:04:18Z</time>
      </trkpt>
      <trkpt lat="44.35056" lon="6.39279">
        <ele>1445.6</ele>
        <time>2018-08-10T09:04:21Z</time>
      </trkpt>
      <trkpt lat="44.35057" lon="6.39283">
        <ele>1445.7</ele>
        <time>2018-08-10T09:04:24Z</time>
      </trkpt>
      <trkpt lat="44.35058" lon="6.39287">
        <ele>1445.8</ele>
        <time>2018-08-10T09:04:27Z</time>
      </trkpt>
      <trkpt lat="44.35059" lon="6.39292">
        <ele>1445.9</ele>
        <time>2018-08-10T09:04:30Z</time>
      </trkpt>
      <trkpt lat="44.35059" lon="6.39297">
        <ele>1445.9</ele>
        <time>2018-08-10T09:04:33Z</time>
      </trkpt>
      <trkpt lat="44.3506" lon="6.39301">
        <ele>1445.9</ele>
        <time>2018-08-10T09:04:35Z</time>
      </trkpt>
      <trkpt lat="44.35059" lon="6.39305">
        <ele>1445.8</ele>
        <time>2018-08-10T09:04:38Z</time>
      </trkpt>
      <trkpt lat="44.3506" lon="6.3931">
        <ele>1445.7</ele>
        <time>2018-08-10T09:04:41Z</time>
      </trkpt>
      <trkpt lat="44.35061" lon="6.39315">
        <ele>1445.6</ele>
        <time>2018-08-10T09:04:45Z</time>
      </trkpt>
      <trkpt lat="44.35062" lon="6.39319">
        <ele>1446.8</ele>
        <time>2018-08-10T09:04:59Z</time>
      </trkpt>
      <trkpt lat="44.35062" lon="6.39323">
        <ele>1447.9</ele>
        <time>2018-08-10T09:05:06Z</time>
      </trkpt>
      <trkpt lat="44.35063" lon="6.39328">
        <ele>1449.1</ele>
        <time>2018-08-10T09:05:09Z</time>
      </trkpt>
      <trkpt lat="44.35063" lon="6.39333">
        <ele>1449.6</ele>
        <time>2018-08-10T09:05:12Z</time>
      </trkpt>
      <trkpt lat="44.35064" lon="6.39337">
        <ele>1450</ele>
        <time>2018-08-10T09:05:14Z</time>
      </trkpt>
      <trkpt lat="44.35065" lon="6.39342">
        <ele>1450</ele>
        <time>2018-08-10T09:08:20Z</time>
      </trkpt>
      <trkpt lat="44.35067" lon="6.39339">
        <ele>1450</ele>
        <time>2018-08-10T09:08:58Z</time>
      </trkpt>
      <trkpt lat="44.35068" lon="6.39335">
        <ele>1450.3</ele>
        <time>2018-08-10T09:09:00Z</time>
      </trkpt>
      <trkpt lat="44.35069" lon="6.3933">
        <ele>1450.9</ele>
        <time>2018-08-10T09:09:03Z</time>
      </trkpt>
      <trkpt lat="44.35071" lon="6.39327">
        <ele>1451.1</ele>
        <time>2018-08-10T09:09:06Z</time>
      </trkpt>
      <trkpt lat="44.35073" lon="6.39323">
        <ele>1451.3</ele>
        <time>2018-08-10T09:09:09Z</time>
      </trkpt>
      <trkpt lat="44.35074" lon="6.39319">
        <ele>1451.3</ele>
        <time>2018-08-10T09:09:12Z</time>
      </trkpt>
      <trkpt lat="44.35075" lon="6.39315">
        <ele>1451.1</ele>
        <time>2018-08-10T09:09:15Z</time>
      </trkpt>
      <trkpt lat="44.35077" lon="6.39311">
        <ele>1451</ele>
        <time>2018-08-10T09:09:18Z</time>
      </trkpt>
      <trkpt lat="44.35078" lon="6.39307">
        <ele>1451.1</ele>
        <time>2018-08-10T09:09:21Z</time>
      </trkpt>
      <trkpt lat="44.35079" lon="6.39302">
        <ele>1451.2</ele>
        <time>2018-08-10T09:09:23Z</time>
      </trkpt>
      <trkpt lat="44.3508" lon="6.39297">
        <ele>1451.1</ele>
        <time>2018-08-10T09:09:26Z</time>
      </trkpt>
      <trkpt lat="44.3508" lon="6.39293">
        <ele>1450.9</ele>
        <time>2018-08-10T09:09:28Z</time>
      </trkpt>
      <trkpt lat="44.3508" lon="6.39289">
        <ele>1450.9</ele>
        <time>2018-08-10T09:09:30Z</time>
      </trkpt>
      <trkpt lat="44.35081" lon="6.39286">
        <ele>1450.9</ele>
        <time>2018-08-10T09:09:32Z</time>
      </trkpt>
      <trkpt lat="44.35082" lon="6.39282">
        <ele>1451</ele>
        <time>2018-08-10T09:09:34Z</time>
      </trkpt>
      <trkpt lat="44.35083" lon="6.39279">
        <ele>1451</ele>
        <time>2018-08-10T09:09:36Z</time>
      </trkpt>
      <trkpt lat="44.35084" lon="6.39274">
        <ele>1451.1</ele>
        <time>2018-08-10T09:09:40Z</time>
      </trkpt>
      <trkpt lat="44.35084" lon="6.3927">
        <ele>1451.2</ele>
        <time>2018-08-10T09:09:42Z</time>
      </trkpt>
      <trkpt lat="44.35086" lon="6.39265">
        <ele>1451.3</ele>
        <time>2018-08-10T09:09:45Z</time>
      </trkpt>
      <trkpt lat="44.35088" lon="6.39262">
        <ele>1451.5</ele>
        <time>2018-08-10T09:09:47Z</time>
      </trkpt>
      <trkpt lat="44.3509" lon="6.39258">
        <ele>1452.1</ele>
        <time>2018-08-10T09:09:49Z</time>
      </trkpt>
      <trkpt lat="44.35092" lon="6.39254">
        <ele>1452.4</ele>
        <time>2018-08-10T09:09:51Z</time>
      </trkpt>
      <trkpt lat="44.35094" lon="6.39252">
        <ele>1452.3</ele>
        <time>2018-08-10T09:09:53Z</time>
      </trkpt>
      <trkpt lat="44.35096" lon="6.39247">
        <ele>1452.3</ele>
        <time>2018-08-10T09:09:56Z</time>
      </trkpt>
      <trkpt lat="44.35099" lon="6.39247">
        <ele>1452.8</ele>
        <time>2018-08-10T09:09:58Z</time>
      </trkpt>
      <trkpt lat="44.35102" lon="6.39246">
        <ele>1453.3</ele>
        <time>2018-08-10T09:10:00Z</time>
      </trkpt>
      <trkpt lat="44.35105" lon="6.39246">
        <ele>1453.9</ele>
        <time>2018-08-10T09:10:02Z</time>
      </trkpt>
      <trkpt lat="44.35108" lon="6.39247">
        <ele>1454.6</ele>
        <time>2018-08-10T09:10:04Z</time>
      </trkpt>
      <trkpt lat="44.35111" lon="6.39248">
        <ele>1455</ele>
        <time>2018-08-10T09:10:08Z</time>
      </trkpt>
      <trkpt lat="44.35111" lon="6.39252">
        <ele>1455.4</ele>
        <time>2018-08-10T09:10:12Z</time>
      </trkpt>
      <trkpt lat="44.35108" lon="6.39255">
        <ele>1455.7</ele>
        <time>2018-08-10T09:10:15Z</time>
      </trkpt>
      <trkpt lat="44.35106" lon="6.39258">
        <ele>1455.9</ele>
        <time>2018-08-10T09:10:17Z</time>
      </trkpt>
      <trkpt lat="44.35103" lon="6.39261">
        <ele>1456</ele>
        <time>2018-08-10T09:10:20Z</time>
      </trkpt>
      <trkpt lat="44.35102" lon="6.39265">
        <ele>1456.3</ele>
        <time>2018-08-10T09:10:23Z</time>
      </trkpt>
      <trkpt lat="44.35101" lon="6.39269">
        <ele>1456.6</ele>
        <time>2018-08-10T09:10:26Z</time>
      </trkpt>
      <trkpt lat="44.351" lon="6.39274">
        <ele>1457.5</ele>
        <time>2018-08-10T09:10:30Z</time>
      </trkpt>
      <trkpt lat="44.35099" lon="6.39278">
        <ele>1458.2</ele>
        <time>2018-08-10T09:10:32Z</time>
      </trkpt>
      <trkpt lat="44.35099" lon="6.39283">
        <ele>1458.9</ele>
        <time>2018-08-10T09:10:35Z</time>
      </trkpt>
      <trkpt lat="44.351" lon="6.39288">
        <ele>1459.6</ele>
        <time>2018-08-10T09:10:39Z</time>
      </trkpt>
      <trkpt lat="44.35101" lon="6.39293">
        <ele>1460.3</ele>
        <time>2018-08-10T09:10:42Z</time>
      </trkpt>
      <trkpt lat="44.35102" lon="6.39297">
        <ele>1460.8</ele>
        <time>2018-08-10T09:10:45Z</time>
      </trkpt>
      <trkpt lat="44.35103" lon="6.39302">
        <ele>1461.2</ele>
        <time>2018-08-10T09:10:48Z</time>
      </trkpt>
      <trkpt lat="44.35104" lon="6.39307">
        <ele>1461.8</ele>
        <time>2018-08-10T09:10:51Z</time>
      </trkpt>
      <trkpt lat="44.35106" lon="6.3931">
        <ele>1462.6</ele>
        <time>2018-08-10T09:10:53Z</time>
      </trkpt>
      <trkpt lat="44.35108" lon="6.39315">
        <ele>1463.5</ele>
        <time>2018-08-10T09:10:56Z</time>
      </trkpt>
      <trkpt lat="44.35109" lon="6.39319">
        <ele>1464.3</ele>
        <time>2018-08-10T09:11:00Z</time>
      </trkpt>
      <trkpt lat="44.3511" lon="6.39324">
        <ele>1465.1</ele>
        <time>2018-08-10T09:11:04Z</time>
      </trkpt>
      <trkpt lat="44.35111" lon="6.39327">
        <ele>1465.7</ele>
        <time>2018-08-10T09:11:08Z</time>
      </trkpt>
      <trkpt lat="44.35113" lon="6.39331">
        <ele>1466.5</ele>
        <time>2018-08-10T09:11:11Z</time>
      </trkpt>
      <trkpt lat="44.35114" lon="6.39335">
        <ele>1467.5</ele>
        <time>2018-08-10T09:11:15Z</time>
      </trkpt>
      <trkpt lat="44.35115" lon="6.3934">
        <ele>1468.4</ele>
        <time>2018-08-10T09:11:18Z</time>
      </trkpt>
      <trkpt lat="44.35116" lon="6.39344">
        <ele>1469.3</ele>
        <time>2018-08-10T09:11:21Z</time>
      </trkpt>
      <trkpt lat="44.35117" lon="6.39348">
        <ele>1470.2</ele>
        <time>2018-08-10T09:11:24Z</time>
      </trkpt>
      <trkpt lat="44.35118" lon="6.39353">
        <ele>1470.9</ele>
        <time>2018-08-10T09:11:27Z</time>
      </trkpt>
      <trkpt lat="44.35117" lon="6.39357">
        <ele>1471.5</ele>
        <time>2018-08-10T09:11:29Z</time>
      </trkpt>
      <trkpt lat="44.35118" lon="6.39361">
        <ele>1472.1</ele>
        <time>2018-08-10T09:11:32Z</time>
      </trkpt>
      <trkpt lat="44.35119" lon="6.39366">
        <ele>1472.9</ele>
        <time>2018-08-10T09:11:36Z</time>
      </trkpt>
      <trkpt lat="44.35121" lon="6.39369">
        <ele>1473.5</ele>
        <time>2018-08-10T09:11:47Z</time>
      </trkpt>
      <trkpt lat="44.35123" lon="6.39372">
        <ele>1474.1</ele>
        <time>2018-08-10T09:11:50Z</time>
      </trkpt>
      <trkpt lat="44.35125" lon="6.39375">
        <ele>1474.6</ele>
        <time>2018-08-10T09:11:53Z</time>
      </trkpt>
      <trkpt lat="44.35126" lon="6.39379">
        <ele>1475.1</ele>
        <time>2018-08-10T09:11:56Z</time>
      </trkpt>
      <trkpt lat="44.35127" lon="6.39383">
        <ele>1475.7</ele>
        <time>2018-08-10T09:11:59Z</time>
      </trkpt>
      <trkpt lat="44.35129" lon="6.39386">
        <ele>1477</ele>
        <time>2018-08-10T09:12:02Z</time>
      </trkpt>
      <trkpt lat="44.35131" lon="6.3939">
        <ele>1477</ele>
        <time>2018-08-10T09:12:12Z</time>
      </trkpt>
      <trkpt lat="44.35133" lon="6.39387">
        <ele>1477.3</ele>
        <time>2018-08-10T09:12:16Z</time>
      </trkpt>
      <trkpt lat="44.35136" lon="6.39385">
        <ele>1477.7</ele>
        <time>2018-08-10T09:12:21Z</time>
      </trkpt>
      <trkpt lat="44.3514" lon="6.39385">
        <ele>1478.2</ele>
        <time>2018-08-10T09:12:32Z</time>
      </trkpt>
      <trkpt lat="44.35143" lon="6.39386">
        <ele>1478.7</ele>
        <time>2018-08-10T09:12:36Z</time>
      </trkpt>
      <trkpt lat="44.35146" lon="6.39387">
        <ele>1479.2</ele>
        <time>2018-08-10T09:12:41Z</time>
      </trkpt>
      <trkpt lat="44.35148" lon="6.3939">
        <ele>1479.6</ele>
        <time>2018-08-10T09:12:47Z</time>
      </trkpt>
      <trkpt lat="44.35151" lon="6.3939">
        <ele>1480.4</ele>
        <time>2018-08-10T09:12:49Z</time>
      </trkpt>
      <trkpt lat="44.35154" lon="6.3939">
        <ele>1481.2</ele>
        <time>2018-08-10T09:12:51Z</time>
      </trkpt>
      <trkpt lat="44.35158" lon="6.39391">
        <ele>1482.2</ele>
        <time>2018-08-10T09:12:55Z</time>
      </trkpt>
      <trkpt lat="44.3516" lon="6.39392">
        <ele>1482.9</ele>
        <time>2018-08-10T09:12:57Z</time>
      </trkpt>
      <trkpt lat="44.35164" lon="6.39393">
        <ele>1483.8</ele>
        <time>2018-08-10T09:12:59Z</time>
      </trkpt>
      <trkpt lat="44.35166" lon="6.3939">
        <ele>1484.5</ele>
        <time>2018-08-10T09:13:01Z</time>
      </trkpt>
      <trkpt lat="44.35169" lon="6.3939">
        <ele>1485.4</ele>
        <time>2018-08-10T09:13:03Z</time>
      </trkpt>
      <trkpt lat="44.35172" lon="6.39389">
        <ele>1486.1</ele>
        <time>2018-08-10T09:13:06Z</time>
      </trkpt>
      <trkpt lat="44.35175" lon="6.39389">
        <ele>1487</ele>
        <time>2018-08-10T09:13:10Z</time>
      </trkpt>
      <trkpt lat="44.35178" lon="6.39392">
        <ele>1487.9</ele>
        <time>2018-08-10T09:13:14Z</time>
      </trkpt>
      <trkpt lat="44.35181" lon="6.39392">
        <ele>1488.6</ele>
        <time>2018-08-10T09:13:16Z</time>
      </trkpt>
      <trkpt lat="44.35185" lon="6.39391">
        <ele>1489.7</ele>
        <time>2018-08-10T09:13:20Z</time>
      </trkpt>
      <trkpt lat="44.35188" lon="6.39392">
        <ele>1490.7</ele>
        <time>2018-08-10T09:13:22Z</time>
      </trkpt>
      <trkpt lat="44.3519" lon="6.39394">
        <ele>1491.6</ele>
        <time>2018-08-10T09:13:24Z</time>
      </trkpt>
      <trkpt lat="44.35194" lon="6.39394">
        <ele>1492.4</ele>
        <time>2018-08-10T09:13:28Z</time>
      </trkpt>
      <trkpt lat="44.35197" lon="6.39395">
        <ele>1493</ele>
        <time>2018-08-10T09:13:32Z</time>
      </trkpt>
      <trkpt lat="44.352" lon="6.39395">
        <ele>1493.8</ele>
        <time>2018-08-10T09:13:35Z</time>
      </trkpt>
      <trkpt lat="44.35204" lon="6.39397">
        <ele>1494.6</ele>
        <time>2018-08-10T09:13:39Z</time>
      </trkpt>
      <trkpt lat="44.35207" lon="6.39396">
        <ele>1495.2</ele>
        <time>2018-08-10T09:13:42Z</time>
      </trkpt>
      <trkpt lat="44.35211" lon="6.39398">
        <ele>1496.2</ele>
        <time>2018-08-10T09:13:45Z</time>
      </trkpt>
      <trkpt lat="44.35214" lon="6.39401">
        <ele>1497.5</ele>
        <time>2018-08-10T09:13:48Z</time>
      </trkpt>
      <trkpt lat="44.35218" lon="6.39402">
        <ele>1498.5</ele>
        <time>2018-08-10T09:13:52Z</time>
      </trkpt>
      <trkpt lat="44.35221" lon="6.39401">
        <ele>1499</ele>
        <time>2018-08-10T09:13:56Z</time>
      </trkpt>
      <trkpt lat="44.35223" lon="6.39403">
        <ele>1499.6</ele>
        <time>2018-08-10T09:13:59Z</time>
      </trkpt>
      <trkpt lat="44.35226" lon="6.39404">
        <ele>1500.2</ele>
        <time>2018-08-10T09:14:02Z</time>
      </trkpt>
      <trkpt lat="44.35228" lon="6.39407">
        <ele>1501</ele>
        <time>2018-08-10T09:14:04Z</time>
      </trkpt>
      <trkpt lat="44.35231" lon="6.39408">
        <ele>1501.7</ele>
        <time>2018-08-10T09:14:24Z</time>
      </trkpt>
      <trkpt lat="44.35233" lon="6.39411">
        <ele>1502.6</ele>
        <time>2018-08-10T09:14:28Z</time>
      </trkpt>
      <trkpt lat="44.35234" lon="6.39416">
        <ele>1503.6</ele>
        <time>2018-08-10T09:14:32Z</time>
      </trkpt>
      <trkpt lat="44.35235" lon="6.39419">
        <ele>1504.4</ele>
        <time>2018-08-10T09:14:35Z</time>
      </trkpt>
      <trkpt lat="44.35238" lon="6.39419">
        <ele>1504.8</ele>
        <time>2018-08-10T09:14:42Z</time>
      </trkpt>
      <trkpt lat="44.35241" lon="6.39421">
        <ele>1505.4</ele>
        <time>2018-08-10T09:14:46Z</time>
      </trkpt>
      <trkpt lat="44.35241" lon="6.39427">
        <ele>1506.2</ele>
        <time>2018-08-10T09:14:49Z</time>
      </trkpt>
      <trkpt lat="44.35244" lon="6.39432">
        <ele>1507.2</ele>
        <time>2018-08-10T09:14:54Z</time>
      </trkpt>
      <trkpt lat="44.35247" lon="6.39436">
        <ele>1508</ele>
        <time>2018-08-10T09:14:58Z</time>
      </trkpt>
      <trkpt lat="44.35249" lon="6.39439">
        <ele>1508.4</ele>
        <time>2018-08-10T09:15:01Z</time>
      </trkpt>
      <trkpt lat="44.35251" lon="6.39443">
        <ele>1508.8</ele>
        <time>2018-08-10T09:15:04Z</time>
      </trkpt>
      <trkpt lat="44.35253" lon="6.39446">
        <ele>1509.2</ele>
        <time>2018-08-10T09:15:07Z</time>
      </trkpt>
      <trkpt lat="44.35254" lon="6.39451">
        <ele>1509.5</ele>
        <time>2018-08-10T09:15:11Z</time>
      </trkpt>
      <trkpt lat="44.35255" lon="6.39456">
        <ele>1509.7</ele>
        <time>2018-08-10T09:15:15Z</time>
      </trkpt>
      <trkpt lat="44.35257" lon="6.39458">
        <ele>1509.9</ele>
        <time>2018-08-10T09:15:21Z</time>
      </trkpt>
      <trkpt lat="44.35258" lon="6.39462">
        <ele>1510</ele>
        <time>2018-08-10T09:15:31Z</time>
      </trkpt>
      <trkpt lat="44.3526" lon="6.39468">
        <ele>1510</ele>
        <time>2018-08-10T09:15:35Z</time>
      </trkpt>
      <trkpt lat="44.35262" lon="6.39471">
        <ele>1510.2</ele>
        <time>2018-08-10T09:15:39Z</time>
      </trkpt>
      <trkpt lat="44.35263" lon="6.39475">
        <ele>1510.5</ele>
        <time>2018-08-10T09:15:43Z</time>
      </trkpt>
      <trkpt lat="44.35265" lon="6.39479">
        <ele>1510.7</ele>
        <time>2018-08-10T09:15:46Z</time>
      </trkpt>
      <trkpt lat="44.35267" lon="6.39481">
        <ele>1510.7</ele>
        <time>2018-08-10T09:15:49Z</time>
      </trkpt>
      <trkpt lat="44.3527" lon="6.39483">
        <ele>1510.8</ele>
        <time>2018-08-10T09:15:52Z</time>
      </trkpt>
      <trkpt lat="44.35274" lon="6.39486">
        <ele>1510.8</ele>
        <time>2018-08-10T09:15:56Z</time>
      </trkpt>
      <trkpt lat="44.35276" lon="6.39489">
        <ele>1510.8</ele>
        <time>2018-08-10T09:16:00Z</time>
      </trkpt>
      <trkpt lat="44.35279" lon="6.3949">
        <ele>1510.8</ele>
        <time>2018-08-10T09:16:03Z</time>
      </trkpt>
      <trkpt lat="44.35283" lon="6.3949">
        <ele>1510.6</ele>
        <time>2018-08-10T09:16:06Z</time>
      </trkpt>
      <trkpt lat="44.35286" lon="6.3949">
        <ele>1510.4</ele>
        <time>2018-08-10T09:16:09Z</time>
      </trkpt>
      <trkpt lat="44.35289" lon="6.39491">
        <ele>1511.1</ele>
        <time>2018-08-10T09:16:11Z</time>
      </trkpt>
      <trkpt lat="44.35292" lon="6.39492">
        <ele>1511.8</ele>
        <time>2018-08-10T09:16:14Z</time>
      </trkpt>
      <trkpt lat="44.35296" lon="6.39491">
        <ele>1512.4</ele>
        <time>2018-08-10T09:16:17Z</time>
      </trkpt>
      <trkpt lat="44.35299" lon="6.3949">
        <ele>1512.9</ele>
        <time>2018-08-10T09:16:20Z</time>
      </trkpt>
      <trkpt lat="44.35302" lon="6.3949">
        <ele>1513.2</ele>
        <time>2018-08-10T09:16:23Z</time>
      </trkpt>
      <trkpt lat="44.35305" lon="6.39489">
        <ele>1513.5</ele>
        <time>2018-08-10T09:16:26Z</time>
      </trkpt>
      <trkpt lat="44.35308" lon="6.39489">
        <ele>1513.7</ele>
        <time>2018-08-10T09:16:30Z</time>
      </trkpt>
      <trkpt lat="44.35311" lon="6.39487">
        <ele>1514.1</ele>
        <time>2018-08-10T09:16:33Z</time>
      </trkpt>
      <trkpt lat="44.35314" lon="6.39483">
        <ele>1514.6</ele>
        <time>2018-08-10T09:16:36Z</time>
      </trkpt>
      <trkpt lat="44.35316" lon="6.3948">
        <ele>1515.3</ele>
        <time>2018-08-10T09:16:39Z</time>
      </trkpt>
      <trkpt lat="44.35317" lon="6.39476">
        <ele>1515.9</ele>
        <time>2018-08-10T09:16:41Z</time>
      </trkpt>
      <trkpt lat="44.35317" lon="6.39472">
        <ele>1516.6</ele>
        <time>2018-08-10T09:16:43Z</time>
      </trkpt>
      <trkpt lat="44.35319" lon="6.39469">
        <ele>1517.1</ele>
        <time>2018-08-10T09:16:46Z</time>
      </trkpt>
      <trkpt lat="44.35322" lon="6.39466">
        <ele>1517.7</ele>
        <time>2018-08-10T09:16:49Z</time>
      </trkpt>
      <trkpt lat="44.35325" lon="6.39464">
        <ele>1518.2</ele>
        <time>2018-08-10T09:16:52Z</time>
      </trkpt>
      <trkpt lat="44.35328" lon="6.39461">
        <ele>1519</ele>
        <time>2018-08-10T09:16:55Z</time>
      </trkpt>
      <trkpt lat="44.35332" lon="6.39459">
        <ele>1519.8</ele>
        <time>2018-08-10T09:16:58Z</time>
      </trkpt>
      <trkpt lat="44.35333" lon="6.39455">
        <ele>1520.3</ele>
        <time>2018-08-10T09:17:01Z</time>
      </trkpt>
      <trkpt lat="44.35336" lon="6.39452">
        <ele>1520.7</ele>
        <time>2018-08-10T09:17:04Z</time>
      </trkpt>
      <trkpt lat="44.35339" lon="6.39451">
        <ele>1521.3</ele>
        <time>2018-08-10T09:17:07Z</time>
      </trkpt>
      <trkpt lat="44.35342" lon="6.39449">
        <ele>1521.8</ele>
        <time>2018-08-10T09:17:10Z</time>
      </trkpt>
      <trkpt lat="44.35344" lon="6.39447">
        <ele>1522.3</ele>
        <time>2018-08-10T09:17:12Z</time>
      </trkpt>
      <trkpt lat="44.35347" lon="6.39445">
        <ele>1522.8</ele>
        <time>2018-08-10T09:17:14Z</time>
      </trkpt>
      <trkpt lat="44.35349" lon="6.39444">
        <ele>1523.2</ele>
        <time>2018-08-10T09:17:16Z</time>
      </trkpt>
      <trkpt lat="44.35352" lon="6.39442">
        <ele>1523.7</ele>
        <time>2018-08-10T09:17:18Z</time>
      </trkpt>
      <trkpt lat="44.35354" lon="6.39438">
        <ele>1524</ele>
        <time>2018-08-10T09:17:20Z</time>
      </trkpt>
      <trkpt lat="44.35356" lon="6.39434">
        <ele>1524.4</ele>
        <time>2018-08-10T09:17:23Z</time>
      </trkpt>
      <trkpt lat="44.3536" lon="6.39432">
        <ele>1524.8</ele>
        <time>2018-08-10T09:17:26Z</time>
      </trkpt>
      <trkpt lat="44.35362" lon="6.39429">
        <ele>1525.1</ele>
        <time>2018-08-10T09:17:29Z</time>
      </trkpt>
      <trkpt lat="44.35364" lon="6.39426">
        <ele>1525.4</ele>
        <time>2018-08-10T09:17:32Z</time>
      </trkpt>
      <trkpt lat="44.35365" lon="6.39421">
        <ele>1525.8</ele>
        <time>2018-08-10T09:17:36Z</time>
      </trkpt>
      <trkpt lat="44.35367" lon="6.39417">
        <ele>1526.2</ele>
        <time>2018-08-10T09:17:39Z</time>
      </trkpt>
      <trkpt lat="44.35369" lon="6.39413">
        <ele>1526.6</ele>
        <time>2018-08-10T09:17:42Z</time>
      </trkpt>
      <trkpt lat="44.35371" lon="6.39409">
        <ele>1527</ele>
        <time>2018-08-10T09:17:45Z</time>
      </trkpt>
      <trkpt lat="44.35372" lon="6.39406">
        <ele>1527.3</ele>
        <time>2018-08-10T09:18:03Z</time>
      </trkpt>
      <trkpt lat="44.35375" lon="6.39405">
        <ele>1527.7</ele>
        <time>2018-08-10T09:18:09Z</time>
      </trkpt>
      <trkpt lat="44.35377" lon="6.39402">
        <ele>1528</ele>
        <time>2018-08-10T09:18:15Z</time>
      </trkpt>
      <trkpt lat="44.35381" lon="6.39401">
        <ele>1528.3</ele>
        <time>2018-08-10T09:18:18Z</time>
      </trkpt>
      <trkpt lat="44.35383" lon="6.39401">
        <ele>1528.6</ele>
        <time>2018-08-10T09:18:20Z</time>
      </trkpt>
      <trkpt lat="44.35386" lon="6.39397">
        <ele>1529</ele>
        <time>2018-08-10T09:18:24Z</time>
      </trkpt>
      <trkpt lat="44.35388" lon="6.39394">
        <ele>1529.4</ele>
        <time>2018-08-10T09:18:29Z</time>
      </trkpt>
      <trkpt lat="44.35392" lon="6.39393">
        <ele>1530.2</ele>
        <time>2018-08-10T09:18:33Z</time>
      </trkpt>
      <trkpt lat="44.35395" lon="6.39392">
        <ele>1530.9</ele>
        <time>2018-08-10T09:18:37Z</time>
      </trkpt>
      <trkpt lat="44.35397" lon="6.39387">
        <ele>1531.6</ele>
        <time>2018-08-10T09:18:41Z</time>
      </trkpt>
      <trkpt lat="44.35399" lon="6.39386">
        <ele>1532.2</ele>
        <time>2018-08-10T09:18:44Z</time>
      </trkpt>
      <trkpt lat="44.35403" lon="6.39385">
        <ele>1533.2</ele>
        <time>2018-08-10T09:18:48Z</time>
      </trkpt>
      <trkpt lat="44.35405" lon="6.39382">
        <ele>1533.9</ele>
        <time>2018-08-10T09:18:58Z</time>
      </trkpt>
      <trkpt lat="44.35402" lon="6.39381">
        <ele>1534.2</ele>
        <time>2018-08-10T09:22:03Z</time>
      </trkpt>
      <trkpt lat="44.35405" lon="6.39381">
        <ele>1534.5</ele>
        <time>2018-08-10T09:22:16Z</time>
      </trkpt>
      <trkpt lat="44.35409" lon="6.39379">
        <ele>1534.9</ele>
        <time>2018-08-10T09:22:19Z</time>
      </trkpt>
      <trkpt lat="44.35412" lon="6.39374">
        <ele>1535.3</ele>
        <time>2018-08-10T09:22:21Z</time>
      </trkpt>
      <trkpt lat="44.35415" lon="6.39372">
        <ele>1535.7</ele>
        <time>2018-08-10T09:22:22Z</time>
      </trkpt>
      <trkpt lat="44.35417" lon="6.39369">
        <ele>1536.1</ele>
        <time>2018-08-10T09:22:23Z</time>
      </trkpt>
      <trkpt lat="44.35419" lon="6.39367">
        <ele>1536.5</ele>
        <time>2018-08-10T09:22:24Z</time>
      </trkpt>
      <trkpt lat="44.35421" lon="6.39365">
        <ele>1536.9</ele>
        <time>2018-08-10T09:22:25Z</time>
      </trkpt>
      <trkpt lat="44.35424" lon="6.39363">
        <ele>1537.4</ele>
        <time>2018-08-10T09:22:26Z</time>
      </trkpt>
      <trkpt lat="44.35427" lon="6.3936">
        <ele>1537.8</ele>
        <time>2018-08-10T09:22:27Z</time>
      </trkpt>
      <trkpt lat="44.35432" lon="6.39356">
        <ele>1538.5</ele>
        <time>2018-08-10T09:22:29Z</time>
      </trkpt>
      <trkpt lat="44.35434" lon="6.39354">
        <ele>1538.9</ele>
        <time>2018-08-10T09:22:30Z</time>
      </trkpt>
      <trkpt lat="44.35439" lon="6.3935">
        <ele>1540.2</ele>
        <time>2018-08-10T09:22:32Z</time>
      </trkpt>
      <trkpt lat="44.35442" lon="6.39347">
        <ele>1541</ele>
        <time>2018-08-10T09:22:33Z</time>
      </trkpt>
      <trkpt lat="44.35444" lon="6.39345">
        <ele>1541.3</ele>
        <time>2018-08-10T09:22:34Z</time>
      </trkpt>
      <trkpt lat="44.35449" lon="6.39342">
        <ele>1541.8</ele>
        <time>2018-08-10T09:22:36Z</time>
      </trkpt>
      <trkpt lat="44.35451" lon="6.3934">
        <ele>1542.3</ele>
        <time>2018-08-10T09:22:37Z</time>
      </trkpt>
      <trkpt lat="44.35454" lon="6.39337">
        <ele>1542.8</ele>
        <time>2018-08-10T09:22:38Z</time>
      </trkpt>
      <trkpt lat="44.35458" lon="6.39332">
        <ele>1543.8</ele>
        <time>2018-08-10T09:22:40Z</time>
      </trkpt>
      <trkpt lat="44.35461" lon="6.39329">
        <ele>1544.5</ele>
        <time>2018-08-10T09:22:41Z</time>
      </trkpt>
      <trkpt lat="44.35464" lon="6.39327">
        <ele>1545</ele>
        <time>2018-08-10T09:22:42Z</time>
      </trkpt>
      <trkpt lat="44.35467" lon="6.39325">
        <ele>1545.3</ele>
        <time>2018-08-10T09:22:43Z</time>
      </trkpt>
      <trkpt lat="44.3547" lon="6.39323">
        <ele>1545.5</ele>
        <time>2018-08-10T09:22:44Z</time>
      </trkpt>
      <trkpt lat="44.35473" lon="6.39321">
        <ele>1546</ele>
        <time>2018-08-10T09:22:45Z</time>
      </trkpt>
      <trkpt lat="44.35476" lon="6.39319">
        <ele>1546.5</ele>
        <time>2018-08-10T09:22:46Z</time>
      </trkpt>
      <trkpt lat="44.35479" lon="6.39318">
        <ele>1547</ele>
        <time>2018-08-10T09:22:47Z</time>
      </trkpt>
      <trkpt lat="44.35484" lon="6.39316">
        <ele>1548.4</ele>
        <time>2018-08-10T09:22:49Z</time>
      </trkpt>
      <trkpt lat="44.35487" lon="6.39315">
        <ele>1549.1</ele>
        <time>2018-08-10T09:22:50Z</time>
      </trkpt>
      <trkpt lat="44.35491" lon="6.39314">
        <ele>1549.7</ele>
        <time>2018-08-10T09:22:51Z</time>
      </trkpt>
      <trkpt lat="44.35495" lon="6.39312">
        <ele>1550.2</ele>
        <time>2018-08-10T09:22:52Z</time>
      </trkpt>
      <trkpt lat="44.35498" lon="6.39309">
        <ele>1550.5</ele>
        <time>2018-08-10T09:22:53Z</time>
      </trkpt>
      <trkpt lat="44.355" lon="6.39305">
        <ele>1550.8</ele>
        <time>2018-08-10T09:22:54Z</time>
      </trkpt>
      <trkpt lat="44.35502" lon="6.39301">
        <ele>1551</ele>
        <time>2018-08-10T09:22:55Z</time>
      </trkpt>
      <trkpt lat="44.35504" lon="6.39298">
        <ele>1551.3</ele>
        <time>2018-08-10T09:22:56Z</time>
      </trkpt>
      <trkpt lat="44.35506" lon="6.39295">
        <ele>1551.3</ele>
        <time>2018-08-10T09:22:57Z</time>
      </trkpt>
      <trkpt lat="44.35507" lon="6.3929">
        <ele>1551.3</ele>
        <time>2018-08-10T09:22:58Z</time>
      </trkpt>
      <trkpt lat="44.35509" lon="6.39286">
        <ele>1551.2</ele>
        <time>2018-08-10T09:22:59Z</time>
      </trkpt>
      <trkpt lat="44.35511" lon="6.39283">
        <ele>1551.2</ele>
        <time>2018-08-10T09:23:00Z</time>
      </trkpt>
      <trkpt lat="44.35514" lon="6.39279">
        <ele>1551.1</ele>
        <time>2018-08-10T09:23:01Z</time>
      </trkpt>
      <trkpt lat="44.35516" lon="6.39276">
        <ele>1551.6</ele>
        <time>2018-08-10T09:23:02Z</time>
      </trkpt>
      <trkpt lat="44.35519" lon="6.39273">
        <ele>1552.2</ele>
        <time>2018-08-10T09:23:03Z</time>
      </trkpt>
      <trkpt lat="44.35522" lon="6.3927">
        <ele>1552.5</ele>
        <time>2018-08-10T09:23:04Z</time>
      </trkpt>
      <trkpt lat="44.35526" lon="6.39267">
        <ele>1552.5</ele>
        <time>2018-08-10T09:23:05Z</time>
      </trkpt>
      <trkpt lat="44.35529" lon="6.39266">
        <ele>1552.7</ele>
        <time>2018-08-10T09:23:06Z</time>
      </trkpt>
      <trkpt lat="44.35532" lon="6.39265">
        <ele>1553.2</ele>
        <time>2018-08-10T09:23:07Z</time>
      </trkpt>
      <trkpt lat="44.35538" lon="6.39263">
        <ele>1553.8</ele>
        <time>2018-08-10T09:23:09Z</time>
      </trkpt>
      <trkpt lat="44.35541" lon="6.39263">
        <ele>1554.2</ele>
        <time>2018-08-10T09:23:10Z</time>
      </trkpt>
      <trkpt lat="44.35545" lon="6.39264">
        <ele>1554.8</ele>
        <time>2018-08-10T09:23:11Z</time>
      </trkpt>
      <trkpt lat="44.35549" lon="6.39265">
        <ele>1555.2</ele>
        <time>2018-08-10T09:23:12Z</time>
      </trkpt>
      <trkpt lat="44.35554" lon="6.39268">
        <ele>1555.7</ele>
        <time>2018-08-10T09:23:14Z</time>
      </trkpt>
      <trkpt lat="44.35557" lon="6.3927">
        <ele>1556.2</ele>
        <time>2018-08-10T09:23:15Z</time>
      </trkpt>
      <trkpt lat="44.3556" lon="6.39272">
        <ele>1556.8</ele>
        <time>2018-08-10T09:23:16Z</time>
      </trkpt>
      <trkpt lat="44.35564" lon="6.39273">
        <ele>1557.3</ele>
        <time>2018-08-10T09:23:17Z</time>
      </trkpt>
      <trkpt lat="44.35568" lon="6.39271">
        <ele>1557.9</ele>
        <time>2018-08-10T09:23:18Z</time>
      </trkpt>
      <trkpt lat="44.35571" lon="6.39269">
        <ele>1558.6</ele>
        <time>2018-08-10T09:23:19Z</time>
      </trkpt>
      <trkpt lat="44.35574" lon="6.39266">
        <ele>1559.2</ele>
        <time>2018-08-10T09:23:20Z</time>
      </trkpt>
      <trkpt lat="44.35576" lon="6.39262">
        <ele>1559.3</ele>
        <time>2018-08-10T09:23:21Z</time>
      </trkpt>
      <trkpt lat="44.35578" lon="6.39258">
        <ele>1559.3</ele>
        <time>2018-08-10T09:23:22Z</time>
      </trkpt>
      <trkpt lat="44.3558" lon="6.39255">
        <ele>1559.5</ele>
        <time>2018-08-10T09:23:23Z</time>
      </trkpt>
      <trkpt lat="44.35582" lon="6.39249">
        <ele>1558.9</ele>
        <time>2018-08-10T09:23:25Z</time>
      </trkpt>
      <trkpt lat="44.35583" lon="6.39245">
        <ele>1558.3</ele>
        <time>2018-08-10T09:23:26Z</time>
      </trkpt>
      <trkpt lat="44.35583" lon="6.39241">
        <ele>1557.7</ele>
        <time>2018-08-10T09:23:27Z</time>
      </trkpt>
      <trkpt lat="44.35584" lon="6.39236">
        <ele>1557.3</ele>
        <time>2018-08-10T09:23:28Z</time>
      </trkpt>
      <trkpt lat="44.35585" lon="6.39229">
        <ele>1556.6</ele>
        <time>2018-08-10T09:23:30Z</time>
      </trkpt>
      <trkpt lat="44.35584" lon="6.39222">
        <ele>1555.6</ele>
        <time>2018-08-10T09:23:32Z</time>
      </trkpt>
      <trkpt lat="44.35584" lon="6.39217">
        <ele>1554.9</ele>
        <time>2018-08-10T09:23:33Z</time>
      </trkpt>
      <trkpt lat="44.35584" lon="6.39213">
        <ele>1554.2</ele>
        <time>2018-08-10T09:23:34Z</time>
      </trkpt>
      <trkpt lat="44.35584" lon="6.39208">
        <ele>1553.5</ele>
        <time>2018-08-10T09:23:35Z</time>
      </trkpt>
      <trkpt lat="44.35582" lon="6.39203">
        <ele>1552.5</ele>
        <time>2018-08-10T09:23:37Z</time>
      </trkpt>
      <trkpt lat="44.35584" lon="6.39199">
        <ele>1551.6</ele>
        <time>2018-08-10T09:23:38Z</time>
      </trkpt>
      <trkpt lat="44.35587" lon="6.39195">
        <ele>1550.6</ele>
        <time>2018-08-10T09:23:39Z</time>
      </trkpt>
      <trkpt lat="44.35589" lon="6.39192">
        <ele>1549.7</ele>
        <time>2018-08-10T09:23:40Z</time>
      </trkpt>
      <trkpt lat="44.35592" lon="6.39189">
        <ele>1548.8</ele>
        <time>2018-08-10T09:23:41Z</time>
      </trkpt>
      <trkpt lat="44.35596" lon="6.39189">
        <ele>1547.7</ele>
        <time>2018-08-10T09:23:43Z</time>
      </trkpt>
      <trkpt lat="44.35601" lon="6.39188">
        <ele>1546.6</ele>
        <time>2018-08-10T09:23:45Z</time>
      </trkpt>
      <trkpt lat="44.35605" lon="6.39186">
        <ele>1545.7</ele>
        <time>2018-08-10T09:23:47Z</time>
      </trkpt>
      <trkpt lat="44.35609" lon="6.39185">
        <ele>1545.6</ele>
        <time>2018-08-10T09:23:49Z</time>
      </trkpt>
      <trkpt lat="44.35612" lon="6.39183">
        <ele>1545.4</ele>
        <time>2018-08-10T09:23:51Z</time>
      </trkpt>
      <trkpt lat="44.35616" lon="6.39182">
        <ele>1545.1</ele>
        <time>2018-08-10T09:23:53Z</time>
      </trkpt>
      <trkpt lat="44.35618" lon="6.3918">
        <ele>1544.9</ele>
        <time>2018-08-10T09:23:55Z</time>
      </trkpt>
      <trkpt lat="44.35622" lon="6.39181">
        <ele>1544.6</ele>
        <time>2018-08-10T09:23:57Z</time>
      </trkpt>
      <trkpt lat="44.35626" lon="6.3918">
        <ele>1545.3</ele>
        <time>2018-08-10T09:23:59Z</time>
      </trkpt>
      <trkpt lat="44.35629" lon="6.39179">
        <ele>1546</ele>
        <time>2018-08-10T09:24:01Z</time>
      </trkpt>
      <trkpt lat="44.35632" lon="6.39178">
        <ele>1546.6</ele>
        <time>2018-08-10T09:24:03Z</time>
      </trkpt>
      <trkpt lat="44.35637" lon="6.3918">
        <ele>1547</ele>
        <time>2018-08-10T09:24:06Z</time>
      </trkpt>
      <trkpt lat="44.35641" lon="6.3918">
        <ele>1547.3</ele>
        <time>2018-08-10T09:24:08Z</time>
      </trkpt>
      <trkpt lat="44.35643" lon="6.39182">
        <ele>1548</ele>
        <time>2018-08-10T09:24:10Z</time>
      </trkpt>
      <trkpt lat="44.35646" lon="6.39185">
        <ele>1548.9</ele>
        <time>2018-08-10T09:24:13Z</time>
      </trkpt>
      <trkpt lat="44.35649" lon="6.39188">
        <ele>1549.4</ele>
        <time>2018-08-10T09:24:16Z</time>
      </trkpt>
      <trkpt lat="44.35651" lon="6.39193">
        <ele>1549.9</ele>
        <time>2018-08-10T09:24:19Z</time>
      </trkpt>
      <trkpt lat="44.35654" lon="6.39196">
        <ele>1550.5</ele>
        <time>2018-08-10T09:24:21Z</time>
      </trkpt>
      <trkpt lat="44.35657" lon="6.39199">
        <ele>1551.3</ele>
        <time>2018-08-10T09:24:23Z</time>
      </trkpt>
      <trkpt lat="44.3566" lon="6.39202">
        <ele>1552.2</ele>
        <time>2018-08-10T09:24:26Z</time>
      </trkpt>
      <trkpt lat="44.35661" lon="6.39206">
        <ele>1552.6</ele>
        <time>2018-08-10T09:24:28Z</time>
      </trkpt>
      <trkpt lat="44.35665" lon="6.39208">
        <ele>1553.1</ele>
        <time>2018-08-10T09:24:30Z</time>
      </trkpt>
      <trkpt lat="44.35668" lon="6.3921">
        <ele>1554</ele>
        <time>2018-08-10T09:24:32Z</time>
      </trkpt>
      <trkpt lat="44.35671" lon="6.39213">
        <ele>1555.1</ele>
        <time>2018-08-10T09:24:34Z</time>
      </trkpt>
      <trkpt lat="44.35675" lon="6.39215">
        <ele>1556.1</ele>
        <time>2018-08-10T09:24:36Z</time>
      </trkpt>
      <trkpt lat="44.35678" lon="6.39216">
        <ele>1556.9</ele>
        <time>2018-08-10T09:24:39Z</time>
      </trkpt>
      <trkpt lat="44.35682" lon="6.39213">
        <ele>1557.9</ele>
        <time>2018-08-10T09:24:42Z</time>
      </trkpt>
      <trkpt lat="44.35684" lon="6.39209">
        <ele>1558.6</ele>
        <time>2018-08-10T09:24:44Z</time>
      </trkpt>
      <trkpt lat="44.35687" lon="6.39205">
        <ele>1559.5</ele>
        <time>2018-08-10T09:24:46Z</time>
      </trkpt>
      <trkpt lat="44.35691" lon="6.39202">
        <ele>1559.9</ele>
        <time>2018-08-10T09:24:48Z</time>
      </trkpt>
      <trkpt lat="44.35694" lon="6.39198">
        <ele>1560.3</ele>
        <time>2018-08-10T09:24:51Z</time>
      </trkpt>
      <trkpt lat="44.35695" lon="6.39195">
        <ele>1560.5</ele>
        <time>2018-08-10T09:24:53Z</time>
      </trkpt>
      <trkpt lat="44.35698" lon="6.39193">
        <ele>1560.7</ele>
        <time>2018-08-10T09:24:55Z</time>
      </trkpt>
      <trkpt lat="44.35701" lon="6.3919">
        <ele>1560.9</ele>
        <time>2018-08-10T09:24:57Z</time>
      </trkpt>
      <trkpt lat="44.35704" lon="6.39186">
        <ele>1561.5</ele>
        <time>2018-08-10T09:24:59Z</time>
      </trkpt>
      <trkpt lat="44.35707" lon="6.39184">
        <ele>1562</ele>
        <time>2018-08-10T09:25:01Z</time>
      </trkpt>
      <trkpt lat="44.35708" lon="6.3918">
        <ele>1562.4</ele>
        <time>2018-08-10T09:25:03Z</time>
      </trkpt>
      <trkpt lat="44.35711" lon="6.39177">
        <ele>1562.6</ele>
        <time>2018-08-10T09:25:05Z</time>
      </trkpt>
      <trkpt lat="44.35714" lon="6.39175">
        <ele>1562.8</ele>
        <time>2018-08-10T09:25:07Z</time>
      </trkpt>
      <trkpt lat="44.35717" lon="6.39173">
        <ele>1563.2</ele>
        <time>2018-08-10T09:25:10Z</time>
      </trkpt>
      <trkpt lat="44.35719" lon="6.39172">
        <ele>1563.6</ele>
        <time>2018-08-10T09:25:13Z</time>
      </trkpt>
      <trkpt lat="44.35722" lon="6.39171">
        <ele>1564</ele>
        <time>2018-08-10T09:25:15Z</time>
      </trkpt>
      <trkpt lat="44.35725" lon="6.39169">
        <ele>1564.2</ele>
        <time>2018-08-10T09:25:17Z</time>
      </trkpt>
      <trkpt lat="44.35728" lon="6.39168">
        <ele>1564.5</ele>
        <time>2018-08-10T09:25:20Z</time>
      </trkpt>
      <trkpt lat="44.35731" lon="6.3917">
        <ele>1564.9</ele>
        <time>2018-08-10T09:25:23Z</time>
      </trkpt>
      <trkpt lat="44.35734" lon="6.39167">
        <ele>1565.8</ele>
        <time>2018-08-10T09:25:26Z</time>
      </trkpt>
      <trkpt lat="44.35738" lon="6.39168">
        <ele>1566.6</ele>
        <time>2018-08-10T09:25:28Z</time>
      </trkpt>
      <trkpt lat="44.35741" lon="6.39167">
        <ele>1567.1</ele>
        <time>2018-08-10T09:25:30Z</time>
      </trkpt>
      <trkpt lat="44.35745" lon="6.39168">
        <ele>1567.6</ele>
        <time>2018-08-10T09:25:32Z</time>
      </trkpt>
      <trkpt lat="44.35749" lon="6.39167">
        <ele>1568.7</ele>
        <time>2018-08-10T09:25:34Z</time>
      </trkpt>
      <trkpt lat="44.35753" lon="6.39169">
        <ele>1570.1</ele>
        <time>2018-08-10T09:25:38Z</time>
      </trkpt>
      <trkpt lat="44.35756" lon="6.39169">
        <ele>1571.3</ele>
        <time>2018-08-10T09:25:42Z</time>
      </trkpt>
      <trkpt lat="44.35759" lon="6.39171">
        <ele>1572.4</ele>
        <time>2018-08-10T09:25:44Z</time>
      </trkpt>
      <trkpt lat="44.35762" lon="6.39172">
        <ele>1573.5</ele>
        <time>2018-08-10T09:25:46Z</time>
      </trkpt>
      <trkpt lat="44.35765" lon="6.39172">
        <ele>1574.7</ele>
        <time>2018-08-10T09:25:49Z</time>
      </trkpt>
      <trkpt lat="44.35768" lon="6.39173">
        <ele>1575.8</ele>
        <time>2018-08-10T09:25:52Z</time>
      </trkpt>
      <trkpt lat="44.35772" lon="6.39173">
        <ele>1577</ele>
        <time>2018-08-10T09:25:55Z</time>
      </trkpt>
      <trkpt lat="44.35776" lon="6.39174">
        <ele>1578.2</ele>
        <time>2018-08-10T09:25:57Z</time>
      </trkpt>
      <trkpt lat="44.3578" lon="6.39173">
        <ele>1579.4</ele>
        <time>2018-08-10T09:26:00Z</time>
      </trkpt>
      <trkpt lat="44.35784" lon="6.39171">
        <ele>1580.7</ele>
        <time>2018-08-10T09:26:02Z</time>
      </trkpt>
      <trkpt lat="44.35787" lon="6.3917">
        <ele>1581.5</ele>
        <time>2018-08-10T09:26:04Z</time>
      </trkpt>
      <trkpt lat="44.3579" lon="6.39167">
        <ele>1582.2</ele>
        <time>2018-08-10T09:26:05Z</time>
      </trkpt>
      <trkpt lat="44.35793" lon="6.39163">
        <ele>1583.2</ele>
        <time>2018-08-10T09:26:07Z</time>
      </trkpt>
      <trkpt lat="44.35795" lon="6.39161">
        <ele>1584</ele>
        <time>2018-08-10T09:26:08Z</time>
      </trkpt>
      <trkpt lat="44.35797" lon="6.39158">
        <ele>1584.7</ele>
        <time>2018-08-10T09:26:10Z</time>
      </trkpt>
      <trkpt lat="44.358" lon="6.39155">
        <ele>1585.5</ele>
        <time>2018-08-10T09:26:12Z</time>
      </trkpt>
      <trkpt lat="44.35803" lon="6.39153">
        <ele>1586.4</ele>
        <time>2018-08-10T09:26:14Z</time>
      </trkpt>
      <trkpt lat="44.35805" lon="6.39148">
        <ele>1587.2</ele>
        <time>2018-08-10T09:26:16Z</time>
      </trkpt>
      <trkpt lat="44.35807" lon="6.39144">
        <ele>1587.8</ele>
        <time>2018-08-10T09:26:19Z</time>
      </trkpt>
      <trkpt lat="44.35809" lon="6.3914">
        <ele>1588.2</ele>
        <time>2018-08-10T09:26:20Z</time>
      </trkpt>
      <trkpt lat="44.35812" lon="6.39137">
        <ele>1589</ele>
        <time>2018-08-10T09:26:22Z</time>
      </trkpt>
      <trkpt lat="44.35815" lon="6.39134">
        <ele>1589.7</ele>
        <time>2018-08-10T09:26:24Z</time>
      </trkpt>
      <trkpt lat="44.35818" lon="6.39135">
        <ele>1590.2</ele>
        <time>2018-08-10T09:26:28Z</time>
      </trkpt>
      <trkpt lat="44.35822" lon="6.39132">
        <ele>1590.7</ele>
        <time>2018-08-10T09:26:30Z</time>
      </trkpt>
      <trkpt lat="44.35825" lon="6.39131">
        <ele>1591</ele>
        <time>2018-08-10T09:26:32Z</time>
      </trkpt>
      <trkpt lat="44.35828" lon="6.39131">
        <ele>1591.3</ele>
        <time>2018-08-10T09:26:34Z</time>
      </trkpt>
      <trkpt lat="44.35831" lon="6.39132">
        <ele>1591.5</ele>
        <time>2018-08-10T09:26:36Z</time>
      </trkpt>
      <trkpt lat="44.35834" lon="6.3913">
        <ele>1591.7</ele>
        <time>2018-08-10T09:26:38Z</time>
      </trkpt>
      <trkpt lat="44.35837" lon="6.39128">
        <ele>1591.9</ele>
        <time>2018-08-10T09:26:40Z</time>
      </trkpt>
      <trkpt lat="44.35841" lon="6.39126">
        <ele>1592.1</ele>
        <time>2018-08-10T09:26:42Z</time>
      </trkpt>
      <trkpt lat="44.35844" lon="6.39123">
        <ele>1592.4</ele>
        <time>2018-08-10T09:26:44Z</time>
      </trkpt>
      <trkpt lat="44.35848" lon="6.39119">
        <ele>1592.9</ele>
        <time>2018-08-10T09:26:46Z</time>
      </trkpt>
      <trkpt lat="44.35851" lon="6.39116">
        <ele>1596.6</ele>
        <time>2018-08-10T09:26:48Z</time>
      </trkpt>
      <trkpt lat="44.35854" lon="6.39113">
        <ele>1600.9</ele>
        <time>2018-08-10T09:26:50Z</time>
      </trkpt>
      <trkpt lat="44.35857" lon="6.39113">
        <ele>1601.3</ele>
        <time>2018-08-10T09:26:53Z</time>
      </trkpt>
      <trkpt lat="44.35861" lon="6.39116">
        <ele>1601.7</ele>
        <time>2018-08-10T09:26:55Z</time>
      </trkpt>
      <trkpt lat="44.35864" lon="6.39116">
        <ele>1602</ele>
        <time>2018-08-10T09:26:58Z</time>
      </trkpt>
      <trkpt lat="44.35867" lon="6.39114">
        <ele>1602.4</ele>
        <time>2018-08-10T09:27:00Z</time>
      </trkpt>
      <trkpt lat="44.35872" lon="6.39114">
        <ele>1602.9</ele>
        <time>2018-08-10T09:27:02Z</time>
      </trkpt>
      <trkpt lat="44.35875" lon="6.39113">
        <ele>1603.3</ele>
        <time>2018-08-10T09:27:04Z</time>
      </trkpt>
      <trkpt lat="44.35878" lon="6.39112">
        <ele>1603.6</ele>
        <time>2018-08-10T09:27:07Z</time>
      </trkpt>
      <trkpt lat="44.35881" lon="6.39109">
        <ele>1603.9</ele>
        <time>2018-08-10T09:27:09Z</time>
      </trkpt>
      <trkpt lat="44.35883" lon="6.39108">
        <ele>1604.2</ele>
        <time>2018-08-10T09:27:11Z</time>
      </trkpt>
      <trkpt lat="44.35886" lon="6.39105">
        <ele>1604.5</ele>
        <time>2018-08-10T09:27:13Z</time>
      </trkpt>
      <trkpt lat="44.35888" lon="6.39103">
        <ele>1604.8</ele>
        <time>2018-08-10T09:27:15Z</time>
      </trkpt>
      <trkpt lat="44.3589" lon="6.39107">
        <ele>1605.2</ele>
        <time>2018-08-10T09:27:19Z</time>
      </trkpt>
      <trkpt lat="44.35897" lon="6.39098">
        <ele>1606.2</ele>
        <time>2018-08-10T09:28:54Z</time>
      </trkpt>
      <trkpt lat="44.359" lon="6.39096">
        <ele>1606.4</ele>
        <time>2018-08-10T09:28:56Z</time>
      </trkpt>
      <trkpt lat="44.35903" lon="6.39092">
        <ele>1606.8</ele>
        <time>2018-08-10T09:28:59Z</time>
      </trkpt>
      <trkpt lat="44.35908" lon="6.39091">
        <ele>1607.2</ele>
        <time>2018-08-10T09:29:01Z</time>
      </trkpt>
      <trkpt lat="44.35911" lon="6.3909">
        <ele>1607.5</ele>
        <time>2018-08-10T09:29:03Z</time>
      </trkpt>
      <trkpt lat="44.35914" lon="6.3909">
        <ele>1607.8</ele>
        <time>2018-08-10T09:29:05Z</time>
      </trkpt>
      <trkpt lat="44.35918" lon="6.3909">
        <ele>1608</ele>
        <time>2018-08-10T09:29:07Z</time>
      </trkpt>
      <trkpt lat="44.35921" lon="6.39092">
        <ele>1608.3</ele>
        <time>2018-08-10T09:29:09Z</time>
      </trkpt>
      <trkpt lat="44.35924" lon="6.39094">
        <ele>1608.6</ele>
        <time>2018-08-10T09:29:12Z</time>
      </trkpt>
      <trkpt lat="44.35927" lon="6.39095">
        <ele>1608.9</ele>
        <time>2018-08-10T09:29:14Z</time>
      </trkpt>
      <trkpt lat="44.35931" lon="6.39095">
        <ele>1609.2</ele>
        <time>2018-08-10T09:29:16Z</time>
      </trkpt>
      <trkpt lat="44.35934" lon="6.39096">
        <ele>1609.4</ele>
        <time>2018-08-10T09:29:18Z</time>
      </trkpt>
      <trkpt lat="44.35938" lon="6.39099">
        <ele>1609.8</ele>
        <time>2018-08-10T09:29:22Z</time>
      </trkpt>
      <trkpt lat="44.35942" lon="6.39102">
        <ele>1610.1</ele>
        <time>2018-08-10T09:29:24Z</time>
      </trkpt>
      <trkpt lat="44.35944" lon="6.39105">
        <ele>1610.4</ele>
        <time>2018-08-10T09:29:26Z</time>
      </trkpt>
      <trkpt lat="44.35946" lon="6.39109">
        <ele>1610.7</ele>
        <time>2018-08-10T09:29:28Z</time>
      </trkpt>
      <trkpt lat="44.3595" lon="6.39107">
        <ele>1611</ele>
        <time>2018-08-10T09:29:30Z</time>
      </trkpt>
      <trkpt lat="44.35951" lon="6.39111">
        <ele>1611.2</ele>
        <time>2018-08-10T09:29:36Z</time>
      </trkpt>
      <trkpt lat="44.35951" lon="6.39107">
        <ele>1611.1</ele>
        <time>2018-08-10T09:30:00Z</time>
      </trkpt>
      <trkpt lat="44.35947" lon="6.39106">
        <ele>1610.9</ele>
        <time>2018-08-10T09:30:02Z</time>
      </trkpt>
      <trkpt lat="44.35943" lon="6.39103">
        <ele>1610.5</ele>
        <time>2018-08-10T09:30:04Z</time>
      </trkpt>
      <trkpt lat="44.3594" lon="6.39101">
        <ele>1610.3</ele>
        <time>2018-08-10T09:30:06Z</time>
      </trkpt>
      <trkpt lat="44.35935" lon="6.39099">
        <ele>1609.9</ele>
        <time>2018-08-10T09:30:08Z</time>
      </trkpt>
      <trkpt lat="44.35932" lon="6.39097">
        <ele>1609.7</ele>
        <time>2018-08-10T09:30:09Z</time>
      </trkpt>
      <trkpt lat="44.3593" lon="6.39095">
        <ele>1609.5</ele>
        <time>2018-08-10T09:30:10Z</time>
      </trkpt>
      <trkpt lat="44.35927" lon="6.39095">
        <ele>1609.3</ele>
        <time>2018-08-10T09:30:11Z</time>
      </trkpt>
      <trkpt lat="44.35923" lon="6.39093">
        <ele>1609</ele>
        <time>2018-08-10T09:30:12Z</time>
      </trkpt>
      <trkpt lat="44.3592" lon="6.39091">
        <ele>1608.8</ele>
        <time>2018-08-10T09:30:13Z</time>
      </trkpt>
      <trkpt lat="44.35915" lon="6.39091">
        <ele>1608.4</ele>
        <time>2018-08-10T09:30:14Z</time>
      </trkpt>
      <trkpt lat="44.3591" lon="6.39093">
        <ele>1608.1</ele>
        <time>2018-08-10T09:30:16Z</time>
      </trkpt>
      <trkpt lat="44.35905" lon="6.39093">
        <ele>1607.7</ele>
        <time>2018-08-10T09:30:17Z</time>
      </trkpt>
      <trkpt lat="44.35901" lon="6.39097">
        <ele>1607.4</ele>
        <time>2018-08-10T09:30:18Z</time>
      </trkpt>
      <trkpt lat="44.35898" lon="6.39098">
        <ele>1607.2</ele>
        <time>2018-08-10T09:30:19Z</time>
      </trkpt>
      <trkpt lat="44.35896" lon="6.39099">
        <ele>1607</ele>
        <time>2018-08-10T09:30:20Z</time>
      </trkpt>
      <trkpt lat="44.35892" lon="6.39103">
        <ele>1606.6</ele>
        <time>2018-08-10T09:30:22Z</time>
      </trkpt>
      <trkpt lat="44.3589" lon="6.39108">
        <ele>1606.3</ele>
        <time>2018-08-10T09:30:24Z</time>
      </trkpt>
      <trkpt lat="44.3589" lon="6.39113">
        <ele>1606</ele>
        <time>2018-08-10T09:30:27Z</time>
      </trkpt>
      <trkpt lat="44.35889" lon="6.39118">
        <ele>1605.7</ele>
        <time>2018-08-10T09:30:29Z</time>
      </trkpt>
      <trkpt lat="44.35888" lon="6.39125">
        <ele>1605.2</ele>
        <time>2018-08-10T09:30:31Z</time>
      </trkpt>
      <trkpt lat="44.35888" lon="6.3913">
        <ele>1604.9</ele>
        <time>2018-08-10T09:30:33Z</time>
      </trkpt>
      <trkpt lat="44.35888" lon="6.39135">
        <ele>1604.6</ele>
        <time>2018-08-10T09:30:36Z</time>
      </trkpt>
      <trkpt lat="44.35887" lon="6.3914">
        <ele>1604</ele>
        <time>2018-08-10T09:30:39Z</time>
      </trkpt>
      <trkpt lat="44.35886" lon="6.39144">
        <ele>1603</ele>
        <time>2018-08-10T09:30:43Z</time>
      </trkpt>
      <trkpt lat="44.35885" lon="6.39148">
        <ele>1603.8</ele>
        <time>2018-08-10T09:30:51Z</time>
      </trkpt>
      <trkpt lat="44.35884" lon="6.39152">
        <ele>1604.5</ele>
        <time>2018-08-10T09:30:57Z</time>
      </trkpt>
      <trkpt lat="44.35881" lon="6.39156">
        <ele>1605.3</ele>
        <time>2018-08-10T09:31:00Z</time>
      </trkpt>
      <trkpt lat="44.35879" lon="6.39159">
        <ele>1605.9</ele>
        <time>2018-08-10T09:31:02Z</time>
      </trkpt>
      <trkpt lat="44.35876" lon="6.39161">
        <ele>1606.3</ele>
        <time>2018-08-10T09:31:05Z</time>
      </trkpt>
      <trkpt lat="44.35873" lon="6.39163">
        <ele>1606.7</ele>
        <time>2018-08-10T09:31:08Z</time>
      </trkpt>
      <trkpt lat="44.35872" lon="6.39167">
        <ele>1607.2</ele>
        <time>2018-08-10T09:31:10Z</time>
      </trkpt>
      <trkpt lat="44.35872" lon="6.39171">
        <ele>1607.9</ele>
        <time>2018-08-10T09:31:12Z</time>
      </trkpt>
      <trkpt lat="44.35869" lon="6.39177">
        <ele>1609.2</ele>
        <time>2018-08-10T09:31:15Z</time>
      </trkpt>
      <trkpt lat="44.35867" lon="6.3918">
        <ele>1609.5</ele>
        <time>2018-08-10T09:31:17Z</time>
      </trkpt>
      <trkpt lat="44.35868" lon="6.39184">
        <ele>1609.8</ele>
        <time>2018-08-10T09:31:20Z</time>
      </trkpt>
      <trkpt lat="44.35867" lon="6.39188">
        <ele>1610.2</ele>
        <time>2018-08-10T09:31:23Z</time>
      </trkpt>
      <trkpt lat="44.35866" lon="6.39194">
        <ele>1611.5</ele>
        <time>2018-08-10T09:31:26Z</time>
      </trkpt>
      <trkpt lat="44.35867" lon="6.39199">
        <ele>1612.6</ele>
        <time>2018-08-10T09:31:28Z</time>
      </trkpt>
      <trkpt lat="44.35865" lon="6.39202">
        <ele>1612.8</ele>
        <time>2018-08-10T09:31:33Z</time>
      </trkpt>
      <trkpt lat="44.35861" lon="6.39202">
        <ele>1612.7</ele>
        <time>2018-08-10T09:31:36Z</time>
      </trkpt>
      <trkpt lat="44.35862" lon="6.39207">
        <ele>1612.6</ele>
        <time>2018-08-10T09:31:37Z</time>
      </trkpt>
      <trkpt lat="44.3586" lon="6.39211">
        <ele>1612.5</ele>
        <time>2018-08-10T09:31:40Z</time>
      </trkpt>
      <trkpt lat="44.35859" lon="6.39214">
        <ele>1612.5</ele>
        <time>2018-08-10T09:31:42Z</time>
      </trkpt>
      <trkpt lat="44.35857" lon="6.39217">
        <ele>1612.6</ele>
        <time>2018-08-10T09:31:45Z</time>
      </trkpt>
      <trkpt lat="44.35855" lon="6.39221">
        <ele>1612.8</ele>
        <time>2018-08-10T09:31:51Z</time>
      </trkpt>
      <trkpt lat="44.35855" lon="6.39226">
        <ele>1612.8</ele>
        <time>2018-08-10T09:31:53Z</time>
      </trkpt>
      <trkpt lat="44.35857" lon="6.39229">
        <ele>1612.6</ele>
        <time>2018-08-10T09:31:56Z</time>
      </trkpt>
      <trkpt lat="44.35859" lon="6.3923">
        <ele>1612.5</ele>
        <time>2018-08-10T09:32:05Z</time>
      </trkpt>
      <trkpt lat="44.35861" lon="6.39234">
        <ele>1612.9</ele>
        <time>2018-08-10T09:32:06Z</time>
      </trkpt>
      <trkpt lat="44.35865" lon="6.39237">
        <ele>1614.2</ele>
        <time>2018-08-10T09:32:10Z</time>
      </trkpt>
      <trkpt lat="44.35869" lon="6.39238">
        <ele>1615.1</ele>
        <time>2018-08-10T09:32:14Z</time>
      </trkpt>
      <trkpt lat="44.35871" lon="6.39238">
        <ele>1615.9</ele>
        <time>2018-08-10T09:32:22Z</time>
      </trkpt>
      <trkpt lat="44.35872" lon="6.39242">
        <ele>1616.7</ele>
        <time>2018-08-10T09:32:26Z</time>
      </trkpt>
      <trkpt lat="44.35871" lon="6.39247">
        <ele>1617.7</ele>
        <time>2018-08-10T09:32:32Z</time>
      </trkpt>
      <trkpt lat="44.35872" lon="6.39251">
        <ele>1618.6</ele>
        <time>2018-08-10T09:32:37Z</time>
      </trkpt>
      <trkpt lat="44.35871" lon="6.39255">
        <ele>1619.4</ele>
        <time>2018-08-10T09:32:43Z</time>
      </trkpt>
      <trkpt lat="44.3587" lon="6.39259">
        <ele>1620.2</ele>
        <time>2018-08-10T09:32:46Z</time>
      </trkpt>
      <trkpt lat="44.3587" lon="6.39263">
        <ele>1620.9</ele>
        <time>2018-08-10T09:32:49Z</time>
      </trkpt>
      <trkpt lat="44.35871" lon="6.39267">
        <ele>1621.7</ele>
        <time>2018-08-10T09:32:52Z</time>
      </trkpt>
      <trkpt lat="44.35872" lon="6.39272">
        <ele>1622.7</ele>
        <time>2018-08-10T09:32:55Z</time>
      </trkpt>
      <trkpt lat="44.35871" lon="6.39276">
        <ele>1623.7</ele>
        <time>2018-08-10T09:32:57Z</time>
      </trkpt>
      <trkpt lat="44.35869" lon="6.39279">
        <ele>1624.7</ele>
        <time>2018-08-10T09:33:01Z</time>
      </trkpt>
      <trkpt lat="44.35868" lon="6.39283">
        <ele>1625.6</ele>
        <time>2018-08-10T09:33:05Z</time>
      </trkpt>
      <trkpt lat="44.35865" lon="6.39285">
        <ele>1626.2</ele>
        <time>2018-08-10T09:33:08Z</time>
      </trkpt>
      <trkpt lat="44.35862" lon="6.39284">
        <ele>1626.7</ele>
        <time>2018-08-10T09:33:11Z</time>
      </trkpt>
      <trkpt lat="44.35858" lon="6.39286">
        <ele>1626.8</ele>
        <time>2018-08-10T09:33:16Z</time>
      </trkpt>
      <trkpt lat="44.35856" lon="6.39289">
        <ele>1627.1</ele>
        <time>2018-08-10T09:33:19Z</time>
      </trkpt>
      <trkpt lat="44.35859" lon="6.39292">
        <ele>1628.8</ele>
        <time>2018-08-10T09:33:23Z</time>
      </trkpt>
      <trkpt lat="44.35862" lon="6.39295">
        <ele>1630.3</ele>
        <time>2018-08-10T09:33:26Z</time>
      </trkpt>
      <trkpt lat="44.35865" lon="6.39296">
        <ele>1631.5</ele>
        <time>2018-08-10T09:33:28Z</time>
      </trkpt>
      <trkpt lat="44.35868" lon="6.39295">
        <ele>1632.6</ele>
        <time>2018-08-10T09:33:31Z</time>
      </trkpt>
      <trkpt lat="44.3587" lon="6.39299">
        <ele>1633.8</ele>
        <time>2018-08-10T09:33:35Z</time>
      </trkpt>
      <trkpt lat="44.35874" lon="6.39303">
        <ele>1635.5</ele>
        <time>2018-08-10T09:33:38Z</time>
      </trkpt>
      <trkpt lat="44.35877" lon="6.393">
        <ele>1636.9</ele>
        <time>2018-08-10T09:33:47Z</time>
      </trkpt>
      <trkpt lat="44.35881" lon="6.39298">
        <ele>1637.8</ele>
        <time>2018-08-10T09:33:52Z</time>
      </trkpt>
      <trkpt lat="44.35886" lon="6.39298">
        <ele>1638.6</ele>
        <time>2018-08-10T09:33:54Z</time>
      </trkpt>
      <trkpt lat="44.35889" lon="6.39297">
        <ele>1639.4</ele>
        <time>2018-08-10T09:33:56Z</time>
      </trkpt>
      <trkpt lat="44.35892" lon="6.39301">
        <ele>1640.8</ele>
        <time>2018-08-10T09:33:58Z</time>
      </trkpt>
      <trkpt lat="44.35895" lon="6.39302">
        <ele>1641.5</ele>
        <time>2018-08-10T09:34:01Z</time>
      </trkpt>
      <trkpt lat="44.35896" lon="6.39306">
        <ele>1642.3</ele>
        <time>2018-08-10T09:34:05Z</time>
      </trkpt>
      <trkpt lat="44.35898" lon="6.3931">
        <ele>1643.2</ele>
        <time>2018-08-10T09:34:07Z</time>
      </trkpt>
      <trkpt lat="44.35899" lon="6.39314">
        <ele>1644.3</ele>
        <time>2018-08-10T09:34:10Z</time>
      </trkpt>
      <trkpt lat="44.35899" lon="6.39318">
        <ele>1645.6</ele>
        <time>2018-08-10T09:34:13Z</time>
      </trkpt>
      <trkpt lat="44.35901" lon="6.39322">
        <ele>1646.7</ele>
        <time>2018-08-10T09:34:20Z</time>
      </trkpt>
      <trkpt lat="44.35901" lon="6.39327">
        <ele>1647.8</ele>
        <time>2018-08-10T09:34:24Z</time>
      </trkpt>
      <trkpt lat="44.35901" lon="6.39332">
        <ele>1649.1</ele>
        <time>2018-08-10T09:34:33Z</time>
      </trkpt>
      <trkpt lat="44.35902" lon="6.39336">
        <ele>1650.3</ele>
        <time>2018-08-10T09:34:37Z</time>
      </trkpt>
      <trkpt lat="44.35902" lon="6.3934">
        <ele>1651.4</ele>
        <time>2018-08-10T09:34:41Z</time>
      </trkpt>
      <trkpt lat="44.35902" lon="6.39344">
        <ele>1652.7</ele>
        <time>2018-08-10T09:34:44Z</time>
      </trkpt>
      <trkpt lat="44.35903" lon="6.39349">
        <ele>1653.8</ele>
        <time>2018-08-10T09:34:47Z</time>
      </trkpt>
      <trkpt lat="44.35904" lon="6.39354">
        <ele>1655</ele>
        <time>2018-08-10T09:34:50Z</time>
      </trkpt>
      <trkpt lat="44.35904" lon="6.39359">
        <ele>1655.8</ele>
        <time>2018-08-10T09:34:54Z</time>
      </trkpt>
      <trkpt lat="44.35903" lon="6.39363">
        <ele>1656.6</ele>
        <time>2018-08-10T09:34:58Z</time>
      </trkpt>
      <trkpt lat="44.35902" lon="6.39367">
        <ele>1657.1</ele>
        <time>2018-08-10T09:35:00Z</time>
      </trkpt>
      <trkpt lat="44.359" lon="6.39373">
        <ele>1656.9</ele>
        <time>2018-08-10T09:35:04Z</time>
      </trkpt>
      <trkpt lat="44.35899" lon="6.39376">
        <ele>1656.9</ele>
        <time>2018-08-10T09:35:06Z</time>
      </trkpt>
      <trkpt lat="44.35895" lon="6.39378">
        <ele>1657.5</ele>
        <time>2018-08-10T09:35:10Z</time>
      </trkpt>
      <trkpt lat="44.35891" lon="6.39379">
        <ele>1657.7</ele>
        <time>2018-08-10T09:35:13Z</time>
      </trkpt>
      <trkpt lat="44.35888" lon="6.39379">
        <ele>1657</ele>
        <time>2018-08-10T09:35:14Z</time>
      </trkpt>
      <trkpt lat="44.35884" lon="6.39379">
        <ele>1656.2</ele>
        <time>2018-08-10T09:35:16Z</time>
      </trkpt>
      <trkpt lat="44.3588" lon="6.39379">
        <ele>1655.4</ele>
        <time>2018-08-10T09:35:21Z</time>
      </trkpt>
      <trkpt lat="44.35876" lon="6.39378">
        <ele>1654.9</ele>
        <time>2018-08-10T09:35:24Z</time>
      </trkpt>
      <trkpt lat="44.35873" lon="6.3938">
        <ele>1654.3</ele>
        <time>2018-08-10T09:35:27Z</time>
      </trkpt>
      <trkpt lat="44.35869" lon="6.39382">
        <ele>1653.7</ele>
        <time>2018-08-10T09:35:30Z</time>
      </trkpt>
      <trkpt lat="44.35866" lon="6.39383">
        <ele>1653.1</ele>
        <time>2018-08-10T09:35:33Z</time>
      </trkpt>
      <trkpt lat="44.35862" lon="6.39384">
        <ele>1652.3</ele>
        <time>2018-08-10T09:35:36Z</time>
      </trkpt>
      <trkpt lat="44.35861" lon="6.39389">
        <ele>1651.6</ele>
        <time>2018-08-10T09:35:37Z</time>
      </trkpt>
      <trkpt lat="44.35858" lon="6.39386">
        <ele>1650.8</ele>
        <time>2018-08-10T09:35:39Z</time>
      </trkpt>
      <trkpt lat="44.35854" lon="6.39389">
        <ele>1650.1</ele>
        <time>2018-08-10T09:35:42Z</time>
      </trkpt>
      <trkpt lat="44.35851" lon="6.39393">
        <ele>1649.4</ele>
        <time>2018-08-10T09:35:45Z</time>
      </trkpt>
      <trkpt lat="44.3585" lon="6.39396">
        <ele>1648.7</ele>
        <time>2018-08-10T09:35:47Z</time>
      </trkpt>
      <trkpt lat="44.35847" lon="6.39398">
        <ele>1647.9</ele>
        <time>2018-08-10T09:35:50Z</time>
      </trkpt>
      <trkpt lat="44.35843" lon="6.39396">
        <ele>1646.8</ele>
        <time>2018-08-10T09:35:53Z</time>
      </trkpt>
      <trkpt lat="44.3584" lon="6.39396">
        <ele>1646.2</ele>
        <time>2018-08-10T09:35:56Z</time>
      </trkpt>
      <trkpt lat="44.35837" lon="6.39398">
        <ele>1645.9</ele>
        <time>2018-08-10T09:35:59Z</time>
      </trkpt>
      <trkpt lat="44.35833" lon="6.39398">
        <ele>1645.5</ele>
        <time>2018-08-10T09:36:02Z</time>
      </trkpt>
      <trkpt lat="44.35832" lon="6.39402">
        <ele>1645</ele>
        <time>2018-08-10T09:36:04Z</time>
      </trkpt>
      <trkpt lat="44.3583" lon="6.39405">
        <ele>1644.4</ele>
        <time>2018-08-10T09:36:07Z</time>
      </trkpt>
      <trkpt lat="44.35829" lon="6.39409">
        <ele>1644.2</ele>
        <time>2018-08-10T09:36:09Z</time>
      </trkpt>
      <trkpt lat="44.35828" lon="6.39412">
        <ele>1644.3</ele>
        <time>2018-08-10T09:36:11Z</time>
      </trkpt>
      <trkpt lat="44.35825" lon="6.39414">
        <ele>1644.7</ele>
        <time>2018-08-10T09:36:13Z</time>
      </trkpt>
      <trkpt lat="44.35822" lon="6.39418">
        <ele>1645.7</ele>
        <time>2018-08-10T09:36:16Z</time>
      </trkpt>
      <trkpt lat="44.35822" lon="6.39422">
        <ele>1646.6</ele>
        <time>2018-08-10T09:36:19Z</time>
      </trkpt>
      <trkpt lat="44.35822" lon="6.39427">
        <ele>1647.6</ele>
        <time>2018-08-10T09:36:40Z</time>
      </trkpt>
      <trkpt lat="44.35821" lon="6.39431">
        <ele>1648.4</ele>
        <time>2018-08-10T09:36:43Z</time>
      </trkpt>
      <trkpt lat="44.35822" lon="6.39434">
        <ele>1649</ele>
        <time>2018-08-10T09:36:56Z</time>
      </trkpt>
      <trkpt lat="44.35825" lon="6.39433">
        <ele>1649.7</ele>
        <time>2018-08-10T09:37:06Z</time>
      </trkpt>
      <trkpt lat="44.35828" lon="6.39435">
        <ele>1650.5</ele>
        <time>2018-08-10T09:37:09Z</time>
      </trkpt>
      <trkpt lat="44.35832" lon="6.39434">
        <ele>1651.6</ele>
        <time>2018-08-10T09:37:12Z</time>
      </trkpt>
      <trkpt lat="44.35835" lon="6.39437">
        <ele>1652.9</ele>
        <time>2018-08-10T09:37:15Z</time>
      </trkpt>
      <trkpt lat="44.35838" lon="6.39437">
        <ele>1654</ele>
        <time>2018-08-10T09:37:18Z</time>
      </trkpt>
      <trkpt lat="44.35842" lon="6.39437">
        <ele>1655.4</ele>
        <time>2018-08-10T09:37:21Z</time>
      </trkpt>
      <trkpt lat="44.35845" lon="6.39438">
        <ele>1656.7</ele>
        <time>2018-08-10T09:37:24Z</time>
      </trkpt>
      <trkpt lat="44.35849" lon="6.39439">
        <ele>1657.8</ele>
        <time>2018-08-10T09:37:27Z</time>
      </trkpt>
      <trkpt lat="44.35852" lon="6.39439">
        <ele>1658.8</ele>
        <time>2018-08-10T09:37:29Z</time>
      </trkpt>
      <trkpt lat="44.35855" lon="6.39441">
        <ele>1659.8</ele>
        <time>2018-08-10T09:37:32Z</time>
      </trkpt>
      <trkpt lat="44.35857" lon="6.39441">
        <ele>1660.8</ele>
        <time>2018-08-10T09:37:34Z</time>
      </trkpt>
      <trkpt lat="44.3586" lon="6.3944">
        <ele>1661.8</ele>
        <time>2018-08-10T09:37:36Z</time>
      </trkpt>
      <trkpt lat="44.35863" lon="6.39441">
        <ele>1663</ele>
        <time>2018-08-10T09:37:38Z</time>
      </trkpt>
      <trkpt lat="44.35866" lon="6.39444">
        <ele>1664.3</ele>
        <time>2018-08-10T09:37:42Z</time>
      </trkpt>
      <trkpt lat="44.3587" lon="6.39445">
        <ele>1665.7</ele>
        <time>2018-08-10T09:37:45Z</time>
      </trkpt>
      <trkpt lat="44.35874" lon="6.39449">
        <ele>1667</ele>
        <time>2018-08-10T09:37:48Z</time>
      </trkpt>
      <trkpt lat="44.35878" lon="6.3945">
        <ele>1668.3</ele>
        <time>2018-08-10T09:37:51Z</time>
      </trkpt>
      <trkpt lat="44.35881" lon="6.39451">
        <ele>1669.3</ele>
        <time>2018-08-10T09:37:53Z</time>
      </trkpt>
      <trkpt lat="44.35884" lon="6.3945">
        <ele>1670.2</ele>
        <time>2018-08-10T09:37:56Z</time>
      </trkpt>
      <trkpt lat="44.35888" lon="6.39452">
        <ele>1671.1</ele>
        <time>2018-08-10T09:38:00Z</time>
      </trkpt>
      <trkpt lat="44.35887" lon="6.39455">
        <ele>1670.9</ele>
        <time>2018-08-10T09:38:10Z</time>
      </trkpt>
      <trkpt lat="44.35885" lon="6.39457">
        <ele>1670.7</ele>
        <time>2018-08-10T09:38:13Z</time>
      </trkpt>
      <trkpt lat="44.35881" lon="6.39458">
        <ele>1670.3</ele>
        <time>2018-08-10T09:38:15Z</time>
      </trkpt>
      <trkpt lat="44.35878" lon="6.39462">
        <ele>1669.8</ele>
        <time>2018-08-10T09:38:18Z</time>
      </trkpt>
      <trkpt lat="44.35875" lon="6.39465">
        <ele>1669.4</ele>
        <time>2018-08-10T09:38:21Z</time>
      </trkpt>
      <trkpt lat="44.35872" lon="6.39468">
        <ele>1669</ele>
        <time>2018-08-10T09:38:24Z</time>
      </trkpt>
      <trkpt lat="44.35869" lon="6.39471">
        <ele>1668.5</ele>
        <time>2018-08-10T09:38:27Z</time>
      </trkpt>
      <trkpt lat="44.35869" lon="6.39476">
        <ele>1668.1</ele>
        <time>2018-08-10T09:38:30Z</time>
      </trkpt>
      <trkpt lat="44.35872" lon="6.39477">
        <ele>1667.7</ele>
        <time>2018-08-10T09:38:32Z</time>
      </trkpt>
      <trkpt lat="44.35875" lon="6.39479">
        <ele>1668.4</ele>
        <time>2018-08-10T09:38:34Z</time>
      </trkpt>
      <trkpt lat="44.35879" lon="6.3948">
        <ele>1669.5</ele>
        <time>2018-08-10T09:38:37Z</time>
      </trkpt>
      <trkpt lat="44.35882" lon="6.39481">
        <ele>1670.4</ele>
        <time>2018-08-10T09:38:40Z</time>
      </trkpt>
      <trkpt lat="44.35885" lon="6.39481">
        <ele>1671.2</ele>
        <time>2018-08-10T09:38:44Z</time>
      </trkpt>
      <trkpt lat="44.35887" lon="6.39478">
        <ele>1671.9</ele>
        <time>2018-08-10T09:38:47Z</time>
      </trkpt>
      <trkpt lat="44.35891" lon="6.39477">
        <ele>1672.9</ele>
        <time>2018-08-10T09:38:50Z</time>
      </trkpt>
      <trkpt lat="44.35894" lon="6.39474">
        <ele>1674.2</ele>
        <time>2018-08-10T09:38:52Z</time>
      </trkpt>
      <trkpt lat="44.35898" lon="6.39474">
        <ele>1675.6</ele>
        <time>2018-08-10T09:38:54Z</time>
      </trkpt>
      <trkpt lat="44.35902" lon="6.39474">
        <ele>1676.7</ele>
        <time>2018-08-10T09:38:56Z</time>
      </trkpt>
      <trkpt lat="44.35904" lon="6.39472">
        <ele>1677.5</ele>
        <time>2018-08-10T09:38:58Z</time>
      </trkpt>
      <trkpt lat="44.35907" lon="6.39471">
        <ele>1678.2</ele>
        <time>2018-08-10T09:39:00Z</time>
      </trkpt>
      <trkpt lat="44.3591" lon="6.3947">
        <ele>1678.7</ele>
        <time>2018-08-10T09:39:02Z</time>
      </trkpt>
      <trkpt lat="44.35913" lon="6.3947">
        <ele>1679.1</ele>
        <time>2018-08-10T09:39:04Z</time>
      </trkpt>
      <trkpt lat="44.35916" lon="6.39469">
        <ele>1679.7</ele>
        <time>2018-08-10T09:39:07Z</time>
      </trkpt>
      <trkpt lat="44.35919" lon="6.39467">
        <ele>1680.1</ele>
        <time>2018-08-10T09:39:10Z</time>
      </trkpt>
      <trkpt lat="44.35922" lon="6.39464">
        <ele>1680.7</ele>
        <time>2018-08-10T09:39:13Z</time>
      </trkpt>
      <trkpt lat="44.35924" lon="6.39463">
        <ele>1681.2</ele>
        <time>2018-08-10T09:39:15Z</time>
      </trkpt>
      <trkpt lat="44.35927" lon="6.39461">
        <ele>1681.6</ele>
        <time>2018-08-10T09:39:18Z</time>
      </trkpt>
      <trkpt lat="44.35929" lon="6.39457">
        <ele>1682.1</ele>
        <time>2018-08-10T09:39:21Z</time>
      </trkpt>
      <trkpt lat="44.35932" lon="6.39453">
        <ele>1682.5</ele>
        <time>2018-08-10T09:39:23Z</time>
      </trkpt>
      <trkpt lat="44.35935" lon="6.39452">
        <ele>1682.8</ele>
        <time>2018-08-10T09:39:25Z</time>
      </trkpt>
      <trkpt lat="44.35938" lon="6.3945">
        <ele>1682.9</ele>
        <time>2018-08-10T09:39:27Z</time>
      </trkpt>
      <trkpt lat="44.35941" lon="6.39447">
        <ele>1683</ele>
        <time>2018-08-10T09:39:29Z</time>
      </trkpt>
      <trkpt lat="44.35943" lon="6.39445">
        <ele>1683.1</ele>
        <time>2018-08-10T09:39:31Z</time>
      </trkpt>
      <trkpt lat="44.35946" lon="6.39442">
        <ele>1683.5</ele>
        <time>2018-08-10T09:39:33Z</time>
      </trkpt>
      <trkpt lat="44.35948" lon="6.3944">
        <ele>1683.7</ele>
        <time>2018-08-10T09:39:35Z</time>
      </trkpt>
      <trkpt lat="44.35952" lon="6.39436">
        <ele>1683.4</ele>
        <time>2018-08-10T09:39:37Z</time>
      </trkpt>
      <trkpt lat="44.35954" lon="6.39433">
        <ele>1683.1</ele>
        <time>2018-08-10T09:39:39Z</time>
      </trkpt>
      <trkpt lat="44.35957" lon="6.39429">
        <ele>1682.8</ele>
        <time>2018-08-10T09:39:41Z</time>
      </trkpt>
      <trkpt lat="44.3596" lon="6.39425">
        <ele>1682.6</ele>
        <time>2018-08-10T09:39:43Z</time>
      </trkpt>
      <trkpt lat="44.35962" lon="6.39421">
        <ele>1682.2</ele>
        <time>2018-08-10T09:39:45Z</time>
      </trkpt>
      <trkpt lat="44.35965" lon="6.39418">
        <ele>1681.4</ele>
        <time>2018-08-10T09:39:47Z</time>
      </trkpt>
      <trkpt lat="44.35968" lon="6.39414">
        <ele>1681</ele>
        <time>2018-08-10T09:39:49Z</time>
      </trkpt>
      <trkpt lat="44.3597" lon="6.39411">
        <ele>1680.8</ele>
        <time>2018-08-10T09:39:51Z</time>
      </trkpt>
      <trkpt lat="44.35972" lon="6.39405">
        <ele>1680.5</ele>
        <time>2018-08-10T09:39:53Z</time>
      </trkpt>
      <trkpt lat="44.35975" lon="6.394">
        <ele>1679.7</ele>
        <time>2018-08-10T09:39:55Z</time>
      </trkpt>
      <trkpt lat="44.35978" lon="6.39396">
        <ele>1678.8</ele>
        <time>2018-08-10T09:39:57Z</time>
      </trkpt>
      <trkpt lat="44.3598" lon="6.39391">
        <ele>1677.9</ele>
        <time>2018-08-10T09:39:59Z</time>
      </trkpt>
      <trkpt lat="44.35983" lon="6.39386">
        <ele>1677</ele>
        <time>2018-08-10T09:40:01Z</time>
      </trkpt>
      <trkpt lat="44.35986" lon="6.39382">
        <ele>1676.2</ele>
        <time>2018-08-10T09:40:03Z</time>
      </trkpt>
      <trkpt lat="44.35989" lon="6.39379">
        <ele>1675.6</ele>
        <time>2018-08-10T09:40:05Z</time>
      </trkpt>
      <trkpt lat="44.35992" lon="6.39377">
        <ele>1675.2</ele>
        <time>2018-08-10T09:40:07Z</time>
      </trkpt>
      <trkpt lat="44.35996" lon="6.39375">
        <ele>1675.1</ele>
        <time>2018-08-10T09:40:09Z</time>
      </trkpt>
      <trkpt lat="44.36" lon="6.39373">
        <ele>1675.9</ele>
        <time>2018-08-10T09:40:11Z</time>
      </trkpt>
      <trkpt lat="44.36004" lon="6.39372">
        <ele>1676.1</ele>
        <time>2018-08-10T09:40:13Z</time>
      </trkpt>
      <trkpt lat="44.36007" lon="6.39371">
        <ele>1676.1</ele>
        <time>2018-08-10T09:40:16Z</time>
      </trkpt>
      <trkpt lat="44.3601" lon="6.39368">
        <ele>1676.5</ele>
        <time>2018-08-10T09:40:19Z</time>
      </trkpt>
      <trkpt lat="44.36012" lon="6.39371">
        <ele>1677</ele>
        <time>2018-08-10T09:40:23Z</time>
      </trkpt>
      <trkpt lat="44.36016" lon="6.39373">
        <ele>1677.7</ele>
        <time>2018-08-10T09:40:25Z</time>
      </trkpt>
      <trkpt lat="44.36018" lon="6.39371">
        <ele>1678.2</ele>
        <time>2018-08-10T09:40:26Z</time>
      </trkpt>
      <trkpt lat="44.36021" lon="6.39371">
        <ele>1678.7</ele>
        <time>2018-08-10T09:40:28Z</time>
      </trkpt>
      <trkpt lat="44.36025" lon="6.39373">
        <ele>1679.3</ele>
        <time>2018-08-10T09:40:31Z</time>
      </trkpt>
      <trkpt lat="44.36029" lon="6.39372">
        <ele>1680.1</ele>
        <time>2018-08-10T09:40:33Z</time>
      </trkpt>
      <trkpt lat="44.36033" lon="6.39371">
        <ele>1681.1</ele>
        <time>2018-08-10T09:40:35Z</time>
      </trkpt>
      <trkpt lat="44.36037" lon="6.39368">
        <ele>1682.3</ele>
        <time>2018-08-10T09:40:37Z</time>
      </trkpt>
      <trkpt lat="44.36039" lon="6.39365">
        <ele>1683</ele>
        <time>2018-08-10T09:40:39Z</time>
      </trkpt>
      <trkpt lat="44.36041" lon="6.39365">
        <ele>1683.3</ele>
        <time>2018-08-10T09:40:40Z</time>
      </trkpt>
      <trkpt lat="44.36046" lon="6.39365">
        <ele>1683.8</ele>
        <time>2018-08-10T09:40:42Z</time>
      </trkpt>
      <trkpt lat="44.3605" lon="6.39364">
        <ele>1684.3</ele>
        <time>2018-08-10T09:40:44Z</time>
      </trkpt>
      <trkpt lat="44.36052" lon="6.39366">
        <ele>1684.7</ele>
        <time>2018-08-10T09:40:46Z</time>
      </trkpt>
      <trkpt lat="44.36055" lon="6.39365">
        <ele>1685.2</ele>
        <time>2018-08-10T09:40:49Z</time>
      </trkpt>
      <trkpt lat="44.36059" lon="6.39365">
        <ele>1685.7</ele>
        <time>2018-08-10T09:40:51Z</time>
      </trkpt>
      <trkpt lat="44.36062" lon="6.39364">
        <ele>1686.2</ele>
        <time>2018-08-10T09:40:53Z</time>
      </trkpt>
      <trkpt lat="44.36065" lon="6.39368">
        <ele>1686.9</ele>
        <time>2018-08-10T09:40:55Z</time>
      </trkpt>
      <trkpt lat="44.36068" lon="6.39366">
        <ele>1687.4</ele>
        <time>2018-08-10T09:41:12Z</time>
      </trkpt>
      <trkpt lat="44.36072" lon="6.39366">
        <ele>1688</ele>
        <time>2018-08-10T09:41:14Z</time>
      </trkpt>
      <trkpt lat="44.36075" lon="6.39365">
        <ele>1688.5</ele>
        <time>2018-08-10T09:41:16Z</time>
      </trkpt>
      <trkpt lat="44.36079" lon="6.39365">
        <ele>1689.1</ele>
        <time>2018-08-10T09:41:18Z</time>
      </trkpt>
      <trkpt lat="44.36082" lon="6.39363">
        <ele>1689.9</ele>
        <time>2018-08-10T09:41:20Z</time>
      </trkpt>
      <trkpt lat="44.36085" lon="6.39362">
        <ele>1690.6</ele>
        <time>2018-08-10T09:41:22Z</time>
      </trkpt>
      <trkpt lat="44.36088" lon="6.3936">
        <ele>1691.5</ele>
        <time>2018-08-10T09:41:24Z</time>
      </trkpt>
      <trkpt lat="44.36091" lon="6.39362">
        <ele>1692.2</ele>
        <time>2018-08-10T09:41:26Z</time>
      </trkpt>
      <trkpt lat="44.36094" lon="6.3936">
        <ele>1692.9</ele>
        <time>2018-08-10T09:41:28Z</time>
      </trkpt>
      <trkpt lat="44.36097" lon="6.39359">
        <ele>1693.4</ele>
        <time>2018-08-10T09:41:30Z</time>
      </trkpt>
      <trkpt lat="44.36099" lon="6.39354">
        <ele>1694.1</ele>
        <time>2018-08-10T09:41:34Z</time>
      </trkpt>
      <trkpt lat="44.36102" lon="6.39351">
        <ele>1694.8</ele>
        <time>2018-08-10T09:41:37Z</time>
      </trkpt>
      <trkpt lat="44.36103" lon="6.39355">
        <ele>1695.3</ele>
        <time>2018-08-10T09:41:45Z</time>
      </trkpt>
      <trkpt lat="44.36103" lon="6.39359">
        <ele>1695.4</ele>
        <time>2018-08-10T09:42:25Z</time>
      </trkpt>
      <trkpt lat="44.36102" lon="6.39364">
        <ele>1695.1</ele>
        <time>2018-08-10T09:42:28Z</time>
      </trkpt>
      <trkpt lat="44.361" lon="6.39366">
        <ele>1695</ele>
        <time>2018-08-10T09:42:30Z</time>
      </trkpt>
      <trkpt lat="44.36098" lon="6.39371">
        <ele>1694.7</ele>
        <time>2018-08-10T09:42:33Z</time>
      </trkpt>
      <trkpt lat="44.36095" lon="6.39372">
        <ele>1694.5</ele>
        <time>2018-08-10T09:42:36Z</time>
      </trkpt>
      <trkpt lat="44.36095" lon="6.39379">
        <ele>1694.1</ele>
        <time>2018-08-10T09:42:39Z</time>
      </trkpt>
      <trkpt lat="44.36093" lon="6.39385">
        <ele>1698.8</ele>
        <time>2018-08-10T09:42:42Z</time>
      </trkpt>
      <trkpt lat="44.36091" lon="6.39391">
        <ele>1702.9</ele>
        <time>2018-08-10T09:42:45Z</time>
      </trkpt>
      <trkpt lat="44.36091" lon="6.39395">
        <ele>1703</ele>
        <time>2018-08-10T09:42:49Z</time>
      </trkpt>
      <trkpt lat="44.36088" lon="6.39398">
        <ele>1702.8</ele>
        <time>2018-08-10T09:42:52Z</time>
      </trkpt>
      <trkpt lat="44.36088" lon="6.39404">
        <ele>1702.6</ele>
        <time>2018-08-10T09:42:55Z</time>
      </trkpt>
      <trkpt lat="44.36085" lon="6.39407">
        <ele>1702.7</ele>
        <time>2018-08-10T09:42:58Z</time>
      </trkpt>
      <trkpt lat="44.36083" lon="6.39409">
        <ele>1703</ele>
        <time>2018-08-10T09:43:01Z</time>
      </trkpt>
      <trkpt lat="44.36081" lon="6.39415">
        <ele>1703.3</ele>
        <time>2018-08-10T09:43:04Z</time>
      </trkpt>
      <trkpt lat="44.36081" lon="6.39419">
        <ele>1703.8</ele>
        <time>2018-08-10T09:43:06Z</time>
      </trkpt>
      <trkpt lat="44.36081" lon="6.39424">
        <ele>1704.3</ele>
        <time>2018-08-10T09:43:08Z</time>
      </trkpt>
      <trkpt lat="44.36078" lon="6.39427">
        <ele>1705</ele>
        <time>2018-08-10T09:43:11Z</time>
      </trkpt>
      <trkpt lat="44.36075" lon="6.39429">
        <ele>1705.7</ele>
        <time>2018-08-10T09:43:14Z</time>
      </trkpt>
      <trkpt lat="44.36074" lon="6.39433">
        <ele>1706.4</ele>
        <time>2018-08-10T09:43:17Z</time>
      </trkpt>
      <trkpt lat="44.36073" lon="6.39438">
        <ele>1707.1</ele>
        <time>2018-08-10T09:43:20Z</time>
      </trkpt>
      <trkpt lat="44.36073" lon="6.39441">
        <ele>1707.4</ele>
        <time>2018-08-10T09:43:22Z</time>
      </trkpt>
      <trkpt lat="44.36071" lon="6.39446">
        <ele>1707.9</ele>
        <time>2018-08-10T09:43:25Z</time>
      </trkpt>
      <trkpt lat="44.3607" lon="6.3945">
        <ele>1708.4</ele>
        <time>2018-08-10T09:43:27Z</time>
      </trkpt>
      <trkpt lat="44.3607" lon="6.39454">
        <ele>1709.1</ele>
        <time>2018-08-10T09:43:33Z</time>
      </trkpt>
      <trkpt lat="44.36069" lon="6.39462">
        <ele>1710.2</ele>
        <time>2018-08-10T09:47:29Z</time>
      </trkpt>
      <trkpt lat="44.36068" lon="6.39458">
        <ele>1710.6</ele>
        <time>2018-08-10T09:47:42Z</time>
      </trkpt>
      <trkpt lat="44.36067" lon="6.39454">
        <ele>1711</ele>
        <time>2018-08-10T10:00:20Z</time>
      </trkpt>
      <trkpt lat="44.36064" lon="6.39464">
        <ele>1711.9</ele>
        <time>2018-08-10T10:02:59Z</time>
      </trkpt>
      <trkpt lat="44.36063" lon="6.39469">
        <ele>1712.4</ele>
        <time>2018-08-10T10:03:02Z</time>
      </trkpt>
      <trkpt lat="44.36061" lon="6.39473">
        <ele>1712.9</ele>
        <time>2018-08-10T10:03:05Z</time>
      </trkpt>
      <trkpt lat="44.36061" lon="6.39479">
        <ele>1713.5</ele>
        <time>2018-08-10T10:03:07Z</time>
      </trkpt>
      <trkpt lat="44.36058" lon="6.39482">
        <ele>1714</ele>
        <time>2018-08-10T10:03:10Z</time>
      </trkpt>
      <trkpt lat="44.36056" lon="6.39486">
        <ele>1714.3</ele>
        <time>2018-08-10T10:03:13Z</time>
      </trkpt>
      <trkpt lat="44.36053" lon="6.3949">
        <ele>1714.7</ele>
        <time>2018-08-10T10:03:16Z</time>
      </trkpt>
      <trkpt lat="44.36052" lon="6.39494">
        <ele>1714.8</ele>
        <time>2018-08-10T10:03:19Z</time>
      </trkpt>
      <trkpt lat="44.36051" lon="6.39497">
        <ele>1715</ele>
        <time>2018-08-10T10:03:22Z</time>
      </trkpt>
      <trkpt lat="44.36049" lon="6.39501">
        <ele>1715.2</ele>
        <time>2018-08-10T10:03:24Z</time>
      </trkpt>
      <trkpt lat="44.36046" lon="6.39503">
        <ele>1715.8</ele>
        <time>2018-08-10T10:03:26Z</time>
      </trkpt>
      <trkpt lat="44.36046" lon="6.39508">
        <ele>1716.6</ele>
        <time>2018-08-10T10:03:29Z</time>
      </trkpt>
      <trkpt lat="44.36044" lon="6.39511">
        <ele>1717.2</ele>
        <time>2018-08-10T10:03:31Z</time>
      </trkpt>
      <trkpt lat="44.36042" lon="6.39515">
        <ele>1717.3</ele>
        <time>2018-08-10T10:03:34Z</time>
      </trkpt>
      <trkpt lat="44.3604" lon="6.39519">
        <ele>1717.4</ele>
        <time>2018-08-10T10:03:37Z</time>
      </trkpt>
      <trkpt lat="44.36039" lon="6.39523">
        <ele>1717.6</ele>
        <time>2018-08-10T10:03:40Z</time>
      </trkpt>
      <trkpt lat="44.36039" lon="6.39527">
        <ele>1717.8</ele>
        <time>2018-08-10T10:03:43Z</time>
      </trkpt>
      <trkpt lat="44.36036" lon="6.3953">
        <ele>1718</ele>
        <time>2018-08-10T10:03:46Z</time>
      </trkpt>
      <trkpt lat="44.36035" lon="6.39534">
        <ele>1718.3</ele>
        <time>2018-08-10T10:03:50Z</time>
      </trkpt>
      <trkpt lat="44.36033" lon="6.39538">
        <ele>1718.7</ele>
        <time>2018-08-10T10:03:53Z</time>
      </trkpt>
      <trkpt lat="44.36032" lon="6.39543">
        <ele>1719.1</ele>
        <time>2018-08-10T10:03:56Z</time>
      </trkpt>
      <trkpt lat="44.3603" lon="6.39546">
        <ele>1719.4</ele>
        <time>2018-08-10T10:03:59Z</time>
      </trkpt>
      <trkpt lat="44.36028" lon="6.39549">
        <ele>1719.7</ele>
        <time>2018-08-10T10:04:02Z</time>
      </trkpt>
      <trkpt lat="44.36029" lon="6.39554">
        <ele>1720</ele>
        <time>2018-08-10T10:04:05Z</time>
      </trkpt>
      <trkpt lat="44.36026" lon="6.39557">
        <ele>1720.4</ele>
        <time>2018-08-10T10:04:08Z</time>
      </trkpt>
      <trkpt lat="44.36025" lon="6.39562">
        <ele>1721</ele>
        <time>2018-08-10T10:04:11Z</time>
      </trkpt>
      <trkpt lat="44.36023" lon="6.39565">
        <ele>1721.6</ele>
        <time>2018-08-10T10:04:14Z</time>
      </trkpt>
      <trkpt lat="44.36021" lon="6.39569">
        <ele>1721.5</ele>
        <time>2018-08-10T10:04:17Z</time>
      </trkpt>
      <trkpt lat="44.36018" lon="6.39572">
        <ele>1721.4</ele>
        <time>2018-08-10T10:04:21Z</time>
      </trkpt>
      <trkpt lat="44.36017" lon="6.39576">
        <ele>1721.3</ele>
        <time>2018-08-10T10:04:25Z</time>
      </trkpt>
      <trkpt lat="44.36015" lon="6.39579">
        <ele>1721.6</ele>
        <time>2018-08-10T10:04:28Z</time>
      </trkpt>
      <trkpt lat="44.36014" lon="6.39583">
        <ele>1721.9</ele>
        <time>2018-08-10T10:04:32Z</time>
      </trkpt>
      <trkpt lat="44.36013" lon="6.39587">
        <ele>1722.2</ele>
        <time>2018-08-10T10:04:35Z</time>
      </trkpt>
      <trkpt lat="44.36012" lon="6.39591">
        <ele>1722.3</ele>
        <time>2018-08-10T10:04:38Z</time>
      </trkpt>
      <trkpt lat="44.36012" lon="6.39595">
        <ele>1722.4</ele>
        <time>2018-08-10T10:04:40Z</time>
      </trkpt>
      <trkpt lat="44.3601" lon="6.39598">
        <ele>1722.4</ele>
        <time>2018-08-10T10:04:43Z</time>
      </trkpt>
      <trkpt lat="44.36008" lon="6.39603">
        <ele>1722.8</ele>
        <time>2018-08-10T10:04:47Z</time>
      </trkpt>
      <trkpt lat="44.36005" lon="6.39605">
        <ele>1723.2</ele>
        <time>2018-08-10T10:04:50Z</time>
      </trkpt>
      <trkpt lat="44.36002" lon="6.39608">
        <ele>1723.4</ele>
        <time>2018-08-10T10:04:55Z</time>
      </trkpt>
      <trkpt lat="44.35999" lon="6.39612">
        <ele>1723.3</ele>
        <time>2018-08-10T10:04:58Z</time>
      </trkpt>
      <trkpt lat="44.35999" lon="6.39616">
        <ele>1723.3</ele>
        <time>2018-08-10T10:05:01Z</time>
      </trkpt>
      <trkpt lat="44.35998" lon="6.3962">
        <ele>1723.2</ele>
        <time>2018-08-10T10:05:04Z</time>
      </trkpt>
      <trkpt lat="44.35997" lon="6.39624">
        <ele>1723.1</ele>
        <time>2018-08-10T10:05:06Z</time>
      </trkpt>
      <trkpt lat="44.35997" lon="6.39628">
        <ele>1722.9</ele>
        <time>2018-08-10T10:05:09Z</time>
      </trkpt>
      <trkpt lat="44.35997" lon="6.39632">
        <ele>1723.2</ele>
        <time>2018-08-10T10:05:11Z</time>
      </trkpt>
      <trkpt lat="44.35997" lon="6.39636">
        <ele>1724</ele>
        <time>2018-08-10T10:05:13Z</time>
      </trkpt>
      <trkpt lat="44.35997" lon="6.39641">
        <ele>1724.7</ele>
        <time>2018-08-10T10:05:16Z</time>
      </trkpt>
      <trkpt lat="44.35997" lon="6.39645">
        <ele>1724.9</ele>
        <time>2018-08-10T10:05:19Z</time>
      </trkpt>
      <trkpt lat="44.35997" lon="6.3965">
        <ele>1725.1</ele>
        <time>2018-08-10T10:05:23Z</time>
      </trkpt>
      <trkpt lat="44.35997" lon="6.39655">
        <ele>1725.2</ele>
        <time>2018-08-10T10:05:26Z</time>
      </trkpt>
      <trkpt lat="44.35997" lon="6.39659">
        <ele>1725.6</ele>
        <time>2018-08-10T10:05:29Z</time>
      </trkpt>
      <trkpt lat="44.36" lon="6.39662">
        <ele>1726.1</ele>
        <time>2018-08-10T10:05:32Z</time>
      </trkpt>
      <trkpt lat="44.36" lon="6.39666">
        <ele>1726.5</ele>
        <time>2018-08-10T10:05:34Z</time>
      </trkpt>
      <trkpt lat="44.36002" lon="6.3967">
        <ele>1726.7</ele>
        <time>2018-08-10T10:05:37Z</time>
      </trkpt>
      <trkpt lat="44.36004" lon="6.39673">
        <ele>1726.9</ele>
        <time>2018-08-10T10:05:40Z</time>
      </trkpt>
      <trkpt lat="44.36005" lon="6.39678">
        <ele>1727</ele>
        <time>2018-08-10T10:05:44Z</time>
      </trkpt>
      <trkpt lat="44.36006" lon="6.39681">
        <ele>1727.1</ele>
        <time>2018-08-10T10:05:47Z</time>
      </trkpt>
      <trkpt lat="44.36005" lon="6.39685">
        <ele>1727.2</ele>
        <time>2018-08-10T10:05:49Z</time>
      </trkpt>
      <trkpt lat="44.36008" lon="6.39687">
        <ele>1727.3</ele>
        <time>2018-08-10T10:05:52Z</time>
      </trkpt>
      <trkpt lat="44.36009" lon="6.39691">
        <ele>1727.3</ele>
        <time>2018-08-10T10:05:56Z</time>
      </trkpt>
      <trkpt lat="44.3601" lon="6.39695">
        <ele>1727.3</ele>
        <time>2018-08-10T10:05:59Z</time>
      </trkpt>
      <trkpt lat="44.36012" lon="6.39697">
        <ele>1727.3</ele>
        <time>2018-08-10T10:06:01Z</time>
      </trkpt>
      <trkpt lat="44.36013" lon="6.39701">
        <ele>1727.3</ele>
        <time>2018-08-10T10:06:04Z</time>
      </trkpt>
      <trkpt lat="44.36015" lon="6.39704">
        <ele>1727.2</ele>
        <time>2018-08-10T10:06:07Z</time>
      </trkpt>
      <trkpt lat="44.36017" lon="6.39708">
        <ele>1727</ele>
        <time>2018-08-10T10:06:10Z</time>
      </trkpt>
      <trkpt lat="44.36018" lon="6.39714">
        <ele>1726.8</ele>
        <time>2018-08-10T10:06:13Z</time>
      </trkpt>
      <trkpt lat="44.36018" lon="6.39718">
        <ele>1726.6</ele>
        <time>2018-08-10T10:06:16Z</time>
      </trkpt>
      <trkpt lat="44.36018" lon="6.39722">
        <ele>1726.5</ele>
        <time>2018-08-10T10:06:19Z</time>
      </trkpt>
      <trkpt lat="44.3602" lon="6.39725">
        <ele>1726.3</ele>
        <time>2018-08-10T10:06:23Z</time>
      </trkpt>
      <trkpt lat="44.36021" lon="6.39728">
        <ele>1726.4</ele>
        <time>2018-08-10T10:06:25Z</time>
      </trkpt>
      <trkpt lat="44.36023" lon="6.39731">
        <ele>1726.7</ele>
        <time>2018-08-10T10:06:28Z</time>
      </trkpt>
      <trkpt lat="44.36024" lon="6.39736">
        <ele>1727.1</ele>
        <time>2018-08-10T10:06:32Z</time>
      </trkpt>
      <trkpt lat="44.36027" lon="6.39739">
        <ele>1727.3</ele>
        <time>2018-08-10T10:06:35Z</time>
      </trkpt>
      <trkpt lat="44.36028" lon="6.39742">
        <ele>1727.5</ele>
        <time>2018-08-10T10:06:37Z</time>
      </trkpt>
      <trkpt lat="44.36031" lon="6.39743">
        <ele>1727.7</ele>
        <time>2018-08-10T10:06:39Z</time>
      </trkpt>
      <trkpt lat="44.36033" lon="6.39747">
        <ele>1728.2</ele>
        <time>2018-08-10T10:06:42Z</time>
      </trkpt>
      <trkpt lat="44.36036" lon="6.3975">
        <ele>1728.7</ele>
        <time>2018-08-10T10:06:45Z</time>
      </trkpt>
      <trkpt lat="44.36039" lon="6.39753">
        <ele>1728.9</ele>
        <time>2018-08-10T10:06:49Z</time>
      </trkpt>
      <trkpt lat="44.36041" lon="6.39755">
        <ele>1729.1</ele>
        <time>2018-08-10T10:06:52Z</time>
      </trkpt>
      <trkpt lat="44.36044" lon="6.39758">
        <ele>1729.3</ele>
        <time>2018-08-10T10:06:56Z</time>
      </trkpt>
      <trkpt lat="44.36047" lon="6.3976">
        <ele>1729.7</ele>
        <time>2018-08-10T10:06:58Z</time>
      </trkpt>
      <trkpt lat="44.3605" lon="6.39765">
        <ele>1730</ele>
        <time>2018-08-10T10:07:01Z</time>
      </trkpt>
      <trkpt lat="44.36053" lon="6.39767">
        <ele>1730.6</ele>
        <time>2018-08-10T10:07:05Z</time>
      </trkpt>
      <trkpt lat="44.36057" lon="6.39769">
        <ele>1731.2</ele>
        <time>2018-08-10T10:07:09Z</time>
      </trkpt>
      <trkpt lat="44.3606" lon="6.39772">
        <ele>1731.7</ele>
        <time>2018-08-10T10:07:12Z</time>
      </trkpt>
      <trkpt lat="44.36062" lon="6.39774">
        <ele>1732.2</ele>
        <time>2018-08-10T10:07:16Z</time>
      </trkpt>
      <trkpt lat="44.36065" lon="6.39777">
        <ele>1732.9</ele>
        <time>2018-08-10T10:07:20Z</time>
      </trkpt>
      <trkpt lat="44.36067" lon="6.3978">
        <ele>1733.5</ele>
        <time>2018-08-10T10:07:24Z</time>
      </trkpt>
      <trkpt lat="44.36068" lon="6.39784">
        <ele>1734.1</ele>
        <time>2018-08-10T10:07:26Z</time>
      </trkpt>
      <trkpt lat="44.36071" lon="6.39787">
        <ele>1734.6</ele>
        <time>2018-08-10T10:07:29Z</time>
      </trkpt>
      <trkpt lat="44.36074" lon="6.39789">
        <ele>1734.9</ele>
        <time>2018-08-10T10:07:31Z</time>
      </trkpt>
      <trkpt lat="44.36077" lon="6.39789">
        <ele>1735</ele>
        <time>2018-08-10T10:07:34Z</time>
      </trkpt>
      <trkpt lat="44.3608" lon="6.39788">
        <ele>1735</ele>
        <time>2018-08-10T10:07:37Z</time>
      </trkpt>
      <trkpt lat="44.36082" lon="6.39783">
        <ele>1735.6</ele>
        <time>2018-08-10T10:07:40Z</time>
      </trkpt>
      <trkpt lat="44.36084" lon="6.39779">
        <ele>1736.2</ele>
        <time>2018-08-10T10:07:43Z</time>
      </trkpt>
      <trkpt lat="44.36085" lon="6.39775">
        <ele>1736.7</ele>
        <time>2018-08-10T10:07:46Z</time>
      </trkpt>
      <trkpt lat="44.36088" lon="6.39771">
        <ele>1736.9</ele>
        <time>2018-08-10T10:07:49Z</time>
      </trkpt>
      <trkpt lat="44.36088" lon="6.39767">
        <ele>1737.1</ele>
        <time>2018-08-10T10:07:51Z</time>
      </trkpt>
      <trkpt lat="44.36089" lon="6.39763">
        <ele>1737.4</ele>
        <time>2018-08-10T10:07:55Z</time>
      </trkpt>
      <trkpt lat="44.36089" lon="6.39758">
        <ele>1737.9</ele>
        <time>2018-08-10T10:07:58Z</time>
      </trkpt>
      <trkpt lat="44.36086" lon="6.39753">
        <ele>1738.5</ele>
        <time>2018-08-10T10:08:01Z</time>
      </trkpt>
      <trkpt lat="44.36086" lon="6.39748">
        <ele>1738.7</ele>
        <time>2018-08-10T10:08:04Z</time>
      </trkpt>
      <trkpt lat="44.36087" lon="6.39744">
        <ele>1738.8</ele>
        <time>2018-08-10T10:08:08Z</time>
      </trkpt>
      <trkpt lat="44.36088" lon="6.39739">
        <ele>1739</ele>
        <time>2018-08-10T10:08:10Z</time>
      </trkpt>
      <trkpt lat="44.36088" lon="6.39734">
        <ele>1739.4</ele>
        <time>2018-08-10T10:08:13Z</time>
      </trkpt>
      <trkpt lat="44.36087" lon="6.39729">
        <ele>1739.8</ele>
        <time>2018-08-10T10:08:15Z</time>
      </trkpt>
      <trkpt lat="44.36088" lon="6.39725">
        <ele>1739.9</ele>
        <time>2018-08-10T10:08:17Z</time>
      </trkpt>
      <trkpt lat="44.3609" lon="6.39722">
        <ele>1739.9</ele>
        <time>2018-08-10T10:08:20Z</time>
      </trkpt>
      <trkpt lat="44.36092" lon="6.39719">
        <ele>1740</ele>
        <time>2018-08-10T10:08:22Z</time>
      </trkpt>
      <trkpt lat="44.36093" lon="6.39714">
        <ele>1740.2</ele>
        <time>2018-08-10T10:08:25Z</time>
      </trkpt>
      <trkpt lat="44.36094" lon="6.39711">
        <ele>1740.4</ele>
        <time>2018-08-10T10:08:27Z</time>
      </trkpt>
      <trkpt lat="44.36097" lon="6.39706">
        <ele>1740.5</ele>
        <time>2018-08-10T10:08:30Z</time>
      </trkpt>
      <trkpt lat="44.36098" lon="6.39702">
        <ele>1740.3</ele>
        <time>2018-08-10T10:08:32Z</time>
      </trkpt>
      <trkpt lat="44.36098" lon="6.39695">
        <ele>1740.1</ele>
        <time>2018-08-10T10:08:34Z</time>
      </trkpt>
      <trkpt lat="44.361" lon="6.39692">
        <ele>1740.2</ele>
        <time>2018-08-10T10:08:37Z</time>
      </trkpt>
      <trkpt lat="44.36101" lon="6.39689">
        <ele>1740.3</ele>
        <time>2018-08-10T10:08:39Z</time>
      </trkpt>
      <trkpt lat="44.36104" lon="6.39687">
        <ele>1740.5</ele>
        <time>2018-08-10T10:08:41Z</time>
      </trkpt>
      <trkpt lat="44.36105" lon="6.39683">
        <ele>1740.4</ele>
        <time>2018-08-10T10:08:43Z</time>
      </trkpt>
      <trkpt lat="44.36107" lon="6.39679">
        <ele>1740.1</ele>
        <time>2018-08-10T10:08:45Z</time>
      </trkpt>
      <trkpt lat="44.3611" lon="6.39676">
        <ele>1739.9</ele>
        <time>2018-08-10T10:08:47Z</time>
      </trkpt>
      <trkpt lat="44.36112" lon="6.39672">
        <ele>1740.4</ele>
        <time>2018-08-10T10:08:50Z</time>
      </trkpt>
      <trkpt lat="44.36115" lon="6.39668">
        <ele>1740.8</ele>
        <time>2018-08-10T10:08:52Z</time>
      </trkpt>
      <trkpt lat="44.36116" lon="6.39664">
        <ele>1741.1</ele>
        <time>2018-08-10T10:08:54Z</time>
      </trkpt>
      <trkpt lat="44.36118" lon="6.3966">
        <ele>1741.2</ele>
        <time>2018-08-10T10:08:56Z</time>
      </trkpt>
      <trkpt lat="44.36119" lon="6.39656">
        <ele>1741.4</ele>
        <time>2018-08-10T10:08:58Z</time>
      </trkpt>
      <trkpt lat="44.36121" lon="6.39651">
        <ele>1741.4</ele>
        <time>2018-08-10T10:09:01Z</time>
      </trkpt>
      <trkpt lat="44.36122" lon="6.39647">
        <ele>1741.4</ele>
        <time>2018-08-10T10:09:03Z</time>
      </trkpt>
      <trkpt lat="44.36125" lon="6.39644">
        <ele>1741.4</ele>
        <time>2018-08-10T10:09:06Z</time>
      </trkpt>
      <trkpt lat="44.36126" lon="6.3964">
        <ele>1741.6</ele>
        <time>2018-08-10T10:09:08Z</time>
      </trkpt>
      <trkpt lat="44.36129" lon="6.39637">
        <ele>1741.8</ele>
        <time>2018-08-10T10:09:10Z</time>
      </trkpt>
      <trkpt lat="44.36131" lon="6.39635">
        <ele>1742</ele>
        <time>2018-08-10T10:09:12Z</time>
      </trkpt>
      <trkpt lat="44.36134" lon="6.39633">
        <ele>1742</ele>
        <time>2018-08-10T10:09:14Z</time>
      </trkpt>
      <trkpt lat="44.36137" lon="6.3963">
        <ele>1741.8</ele>
        <time>2018-08-10T10:09:16Z</time>
      </trkpt>
      <trkpt lat="44.36138" lon="6.39626">
        <ele>1741.7</ele>
        <time>2018-08-10T10:09:18Z</time>
      </trkpt>
      <trkpt lat="44.36141" lon="6.39621">
        <ele>1741.6</ele>
        <time>2018-08-10T10:09:21Z</time>
      </trkpt>
      <trkpt lat="44.36143" lon="6.39618">
        <ele>1741.6</ele>
        <time>2018-08-10T10:09:23Z</time>
      </trkpt>
      <trkpt lat="44.36146" lon="6.39614">
        <ele>1741.6</ele>
        <time>2018-08-10T10:09:25Z</time>
      </trkpt>
      <trkpt lat="44.36146" lon="6.39609">
        <ele>1741.6</ele>
        <time>2018-08-10T10:09:27Z</time>
      </trkpt>
      <trkpt lat="44.36147" lon="6.39605">
        <ele>1741.6</ele>
        <time>2018-08-10T10:09:29Z</time>
      </trkpt>
      <trkpt lat="44.36149" lon="6.396">
        <ele>1741.7</ele>
        <time>2018-08-10T10:09:32Z</time>
      </trkpt>
      <trkpt lat="44.3615" lon="6.39595">
        <ele>1742</ele>
        <time>2018-08-10T10:09:34Z</time>
      </trkpt>
      <trkpt lat="44.36151" lon="6.3959">
        <ele>1742.3</ele>
        <time>2018-08-10T10:09:36Z</time>
      </trkpt>
      <trkpt lat="44.36152" lon="6.39586">
        <ele>1743</ele>
        <time>2018-08-10T10:09:38Z</time>
      </trkpt>
      <trkpt lat="44.36154" lon="6.39582">
        <ele>1743.6</ele>
        <time>2018-08-10T10:09:40Z</time>
      </trkpt>
      <trkpt lat="44.36157" lon="6.39582">
        <ele>1744.1</ele>
        <time>2018-08-10T10:09:42Z</time>
      </trkpt>
      <trkpt lat="44.3616" lon="6.39579">
        <ele>1744.8</ele>
        <time>2018-08-10T10:09:44Z</time>
      </trkpt>
      <trkpt lat="44.36163" lon="6.39576">
        <ele>1745.5</ele>
        <time>2018-08-10T10:09:47Z</time>
      </trkpt>
      <trkpt lat="44.36167" lon="6.39577">
        <ele>1746.2</ele>
        <time>2018-08-10T10:09:49Z</time>
      </trkpt>
      <trkpt lat="44.3617" lon="6.39573">
        <ele>1747.1</ele>
        <time>2018-08-10T10:09:51Z</time>
      </trkpt>
      <trkpt lat="44.36174" lon="6.39571">
        <ele>1748.6</ele>
        <time>2018-08-10T10:09:53Z</time>
      </trkpt>
      <trkpt lat="44.36177" lon="6.39569">
        <ele>1749.8</ele>
        <time>2018-08-10T10:09:55Z</time>
      </trkpt>
      <trkpt lat="44.36179" lon="6.39564">
        <ele>1750.5</ele>
        <time>2018-08-10T10:09:58Z</time>
      </trkpt>
      <trkpt lat="44.36181" lon="6.39562">
        <ele>1751.1</ele>
        <time>2018-08-10T10:10:00Z</time>
      </trkpt>
      <trkpt lat="44.36184" lon="6.39562">
        <ele>1751.6</ele>
        <time>2018-08-10T10:10:02Z</time>
      </trkpt>
      <trkpt lat="44.36187" lon="6.39561">
        <ele>1752</ele>
        <time>2018-08-10T10:10:04Z</time>
      </trkpt>
      <trkpt lat="44.3619" lon="6.39559">
        <ele>1752.6</ele>
        <time>2018-08-10T10:10:06Z</time>
      </trkpt>
      <trkpt lat="44.36193" lon="6.39558">
        <ele>1753.5</ele>
        <time>2018-08-10T10:10:09Z</time>
      </trkpt>
      <trkpt lat="44.36196" lon="6.39556">
        <ele>1755.1</ele>
        <time>2018-08-10T10:10:12Z</time>
      </trkpt>
      <trkpt lat="44.362" lon="6.39555">
        <ele>1756.6</ele>
        <time>2018-08-10T10:10:14Z</time>
      </trkpt>
      <trkpt lat="44.36203" lon="6.39555">
        <ele>1757.1</ele>
        <time>2018-08-10T10:10:17Z</time>
      </trkpt>
      <trkpt lat="44.36205" lon="6.39551">
        <ele>1757.6</ele>
        <time>2018-08-10T10:10:21Z</time>
      </trkpt>
      <trkpt lat="44.36208" lon="6.39555">
        <ele>1758.5</ele>
        <time>2018-08-10T10:10:24Z</time>
      </trkpt>
      <trkpt lat="44.3621" lon="6.39559">
        <ele>1759.3</ele>
        <time>2018-08-10T10:10:27Z</time>
      </trkpt>
      <trkpt lat="44.36211" lon="6.39564">
        <ele>1760</ele>
        <time>2018-08-10T10:10:45Z</time>
      </trkpt>
      <trkpt lat="44.36213" lon="6.39567">
        <ele>1760.3</ele>
        <time>2018-08-10T10:10:47Z</time>
      </trkpt>
      <trkpt lat="44.36216" lon="6.39571">
        <ele>1760.8</ele>
        <time>2018-08-10T10:10:50Z</time>
      </trkpt>
      <trkpt lat="44.36216" lon="6.39576">
        <ele>1762.2</ele>
        <time>2018-08-10T10:10:53Z</time>
      </trkpt>
      <trkpt lat="44.36216" lon="6.3958">
        <ele>1763.5</ele>
        <time>2018-08-10T10:10:56Z</time>
      </trkpt>
      <trkpt lat="44.36214" lon="6.39583">
        <ele>1763.7</ele>
        <time>2018-08-10T10:10:58Z</time>
      </trkpt>
      <trkpt lat="44.36214" lon="6.39589">
        <ele>1764.9</ele>
        <time>2018-08-10T10:11:00Z</time>
      </trkpt>
      <trkpt lat="44.36213" lon="6.39593">
        <ele>1766.1</ele>
        <time>2018-08-10T10:11:03Z</time>
      </trkpt>
      <trkpt lat="44.36209" lon="6.39596">
        <ele>1766.2</ele>
        <time>2018-08-10T10:11:05Z</time>
      </trkpt>
      <trkpt lat="44.36207" lon="6.39599">
        <ele>1766.3</ele>
        <time>2018-08-10T10:11:07Z</time>
      </trkpt>
      <trkpt lat="44.36205" lon="6.39602">
        <ele>1766.3</ele>
        <time>2018-08-10T10:11:10Z</time>
      </trkpt>
      <trkpt lat="44.36205" lon="6.39607">
        <ele>1767.6</ele>
        <time>2018-08-10T10:11:14Z</time>
      </trkpt>
      <trkpt lat="44.36205" lon="6.39611">
        <ele>1768.9</ele>
        <time>2018-08-10T10:11:16Z</time>
      </trkpt>
      <trkpt lat="44.36202" lon="6.39615">
        <ele>1768.9</ele>
        <time>2018-08-10T10:11:19Z</time>
      </trkpt>
      <trkpt lat="44.36202" lon="6.39621">
        <ele>1770</ele>
        <time>2018-08-10T10:11:22Z</time>
      </trkpt>
      <trkpt lat="44.36203" lon="6.39626">
        <ele>1771.1</ele>
        <time>2018-08-10T10:11:26Z</time>
      </trkpt>
      <trkpt lat="44.36203" lon="6.39631">
        <ele>1772.1</ele>
        <time>2018-08-10T10:11:30Z</time>
      </trkpt>
      <trkpt lat="44.36204" lon="6.39635">
        <ele>1774.4</ele>
        <time>2018-08-10T10:11:33Z</time>
      </trkpt>
      <trkpt lat="44.36203" lon="6.39639">
        <ele>1774.2</ele>
        <time>2018-08-10T10:11:37Z</time>
      </trkpt>
      <trkpt lat="44.36203" lon="6.39643">
        <ele>1776.6</ele>
        <time>2018-08-10T10:11:42Z</time>
      </trkpt>
      <trkpt lat="44.36205" lon="6.3964">
        <ele>1775.5</ele>
        <time>2018-08-10T10:11:47Z</time>
      </trkpt>
      <trkpt lat="44.36206" lon="6.39636">
        <ele>1774.5</ele>
        <time>2018-08-10T10:11:51Z</time>
      </trkpt>
      <trkpt lat="44.36208" lon="6.39634">
        <ele>1775.8</ele>
        <time>2018-08-10T10:11:54Z</time>
      </trkpt>
      <trkpt lat="44.36211" lon="6.39632">
        <ele>1776</ele>
        <time>2018-08-10T10:11:57Z</time>
      </trkpt>
      <trkpt lat="44.36214" lon="6.39629">
        <ele>1777.3</ele>
        <time>2018-08-10T10:12:01Z</time>
      </trkpt>
      <trkpt lat="44.36216" lon="6.39624">
        <ele>1777.6</ele>
        <time>2018-08-10T10:12:06Z</time>
      </trkpt>
      <trkpt lat="44.36219" lon="6.39623">
        <ele>1779</ele>
        <time>2018-08-10T10:12:12Z</time>
      </trkpt>
      <trkpt lat="44.3622" lon="6.39628">
        <ele>1780.1</ele>
        <time>2018-08-10T10:12:15Z</time>
      </trkpt>
      <trkpt lat="44.3622" lon="6.39632">
        <ele>1781.3</ele>
        <time>2018-08-10T10:12:17Z</time>
      </trkpt>
      <trkpt lat="44.3622" lon="6.39638">
        <ele>1782.4</ele>
        <time>2018-08-10T10:12:20Z</time>
      </trkpt>
      <trkpt lat="44.36222" lon="6.39643">
        <ele>1785.1</ele>
        <time>2018-08-10T10:12:23Z</time>
      </trkpt>
      <trkpt lat="44.36222" lon="6.39647">
        <ele>1786.3</ele>
        <time>2018-08-10T10:12:27Z</time>
      </trkpt>
      <trkpt lat="44.3622" lon="6.3965">
        <ele>1786</ele>
        <time>2018-08-10T10:12:30Z</time>
      </trkpt>
      <trkpt lat="44.3622" lon="6.39655">
        <ele>1787.2</ele>
        <time>2018-08-10T10:12:34Z</time>
      </trkpt>
      <trkpt lat="44.36219" lon="6.3966">
        <ele>1788.4</ele>
        <time>2018-08-10T10:12:38Z</time>
      </trkpt>
      <trkpt lat="44.36218" lon="6.39663">
        <ele>1788</ele>
        <time>2018-08-10T10:12:41Z</time>
      </trkpt>
      <trkpt lat="44.36214" lon="6.39665">
        <ele>1786.5</ele>
        <time>2018-08-10T10:12:46Z</time>
      </trkpt>
      <trkpt lat="44.36212" lon="6.39668">
        <ele>1787.6</ele>
        <time>2018-08-10T10:12:50Z</time>
      </trkpt>
      <trkpt lat="44.36213" lon="6.39672">
        <ele>1788.5</ele>
        <time>2018-08-10T10:12:52Z</time>
      </trkpt>
      <trkpt lat="44.36212" lon="6.39676">
        <ele>1789.4</ele>
        <time>2018-08-10T10:12:54Z</time>
      </trkpt>
      <trkpt lat="44.36209" lon="6.39677">
        <ele>1787.9</ele>
        <time>2018-08-10T10:12:56Z</time>
      </trkpt>
      <trkpt lat="44.36208" lon="6.39682">
        <ele>1787.3</ele>
        <time>2018-08-10T10:12:59Z</time>
      </trkpt>
      <trkpt lat="44.36206" lon="6.39687">
        <ele>1786.7</ele>
        <time>2018-08-10T10:13:02Z</time>
      </trkpt>
      <trkpt lat="44.36205" lon="6.39691">
        <ele>1787.5</ele>
        <time>2018-08-10T10:13:05Z</time>
      </trkpt>
      <trkpt lat="44.36207" lon="6.39694">
        <ele>1789.8</ele>
        <time>2018-08-10T10:13:08Z</time>
      </trkpt>
      <trkpt lat="44.3621" lon="6.39691">
        <ele>1790.4</ele>
        <time>2018-08-10T10:13:11Z</time>
      </trkpt>
      <trkpt lat="44.36213" lon="6.3969">
        <ele>1792</ele>
        <time>2018-08-10T10:13:14Z</time>
      </trkpt>
      <trkpt lat="44.36215" lon="6.39686">
        <ele>1791.1</ele>
        <time>2018-08-10T10:13:19Z</time>
      </trkpt>
      <trkpt lat="44.36219" lon="6.39685">
        <ele>1794.3</ele>
        <time>2018-08-10T10:13:23Z</time>
      </trkpt>
      <trkpt lat="44.36222" lon="6.39683">
        <ele>1795.9</ele>
        <time>2018-08-10T10:13:26Z</time>
      </trkpt>
      <trkpt lat="44.36224" lon="6.3968">
        <ele>1795.1</ele>
        <time>2018-08-10T10:13:30Z</time>
      </trkpt>
      <trkpt lat="44.36228" lon="6.39679">
        <ele>1797.4</ele>
        <time>2018-08-10T10:13:33Z</time>
      </trkpt>
      <trkpt lat="44.3623" lon="6.39676">
        <ele>1797.4</ele>
        <time>2018-08-10T10:13:35Z</time>
      </trkpt>
      <trkpt lat="44.36231" lon="6.39672">
        <ele>1798</ele>
        <time>2018-08-10T10:13:39Z</time>
      </trkpt>
      <trkpt lat="44.36235" lon="6.39669">
        <ele>1798.4</ele>
        <time>2018-08-10T10:13:42Z</time>
      </trkpt>
      <trkpt lat="44.36239" lon="6.39667">
        <ele>1799.8</ele>
        <time>2018-08-10T10:13:46Z</time>
      </trkpt>
      <trkpt lat="44.36242" lon="6.39665">
        <ele>1799.9</ele>
        <time>2018-08-10T10:13:49Z</time>
      </trkpt>
      <trkpt lat="44.36244" lon="6.39661">
        <ele>1800</ele>
        <time>2018-08-10T10:13:52Z</time>
      </trkpt>
      <trkpt lat="44.36246" lon="6.39657">
        <ele>1800.1</ele>
        <time>2018-08-10T10:13:55Z</time>
      </trkpt>
      <trkpt lat="44.3625" lon="6.39655">
        <ele>1801.4</ele>
        <time>2018-08-10T10:13:57Z</time>
      </trkpt>
      <trkpt lat="44.36253" lon="6.39654">
        <ele>1802.7</ele>
        <time>2018-08-10T10:13:59Z</time>
      </trkpt>
      <trkpt lat="44.36255" lon="6.3965">
        <ele>1801.5</ele>
        <time>2018-08-10T10:14:03Z</time>
      </trkpt>
      <trkpt lat="44.36255" lon="6.39642">
        <ele>1799</ele>
        <time>2018-08-10T10:14:06Z</time>
      </trkpt>
      <trkpt lat="44.36256" lon="6.39638">
        <ele>1799</ele>
        <time>2018-08-10T10:14:09Z</time>
      </trkpt>
      <trkpt lat="44.36259" lon="6.39635">
        <ele>1799</ele>
        <time>2018-08-10T10:14:12Z</time>
      </trkpt>
      <trkpt lat="44.36262" lon="6.39633">
        <ele>1800.1</ele>
        <time>2018-08-10T10:14:14Z</time>
      </trkpt>
      <trkpt lat="44.36264" lon="6.3963">
        <ele>1798.9</ele>
        <time>2018-08-10T10:14:16Z</time>
      </trkpt>
      <trkpt lat="44.36266" lon="6.39626">
        <ele>1798.7</ele>
        <time>2018-08-10T10:14:19Z</time>
      </trkpt>
      <trkpt lat="44.36268" lon="6.39623">
        <ele>1798.4</ele>
        <time>2018-08-10T10:14:21Z</time>
      </trkpt>
      <trkpt lat="44.3627" lon="6.3962">
        <ele>1798.4</ele>
        <time>2018-08-10T10:14:23Z</time>
      </trkpt>
      <trkpt lat="44.36273" lon="6.39617">
        <ele>1798</ele>
        <time>2018-08-10T10:14:25Z</time>
      </trkpt>
      <trkpt lat="44.36275" lon="6.39617">
        <ele>1799.2</ele>
        <time>2018-08-10T10:14:27Z</time>
      </trkpt>
      <trkpt lat="44.36277" lon="6.39614">
        <ele>1798.9</ele>
        <time>2018-08-10T10:14:29Z</time>
      </trkpt>
      <trkpt lat="44.3628" lon="6.39611">
        <ele>1800</ele>
        <time>2018-08-10T10:14:31Z</time>
      </trkpt>
      <trkpt lat="44.36284" lon="6.39609">
        <ele>1799.6</ele>
        <time>2018-08-10T10:14:34Z</time>
      </trkpt>
      <trkpt lat="44.36288" lon="6.39606">
        <ele>1800.6</ele>
        <time>2018-08-10T10:14:37Z</time>
      </trkpt>
      <trkpt lat="44.3629" lon="6.39602">
        <ele>1799.9</ele>
        <time>2018-08-10T10:14:40Z</time>
      </trkpt>
      <trkpt lat="44.36293" lon="6.39598">
        <ele>1799.3</ele>
        <time>2018-08-10T10:14:43Z</time>
      </trkpt>
      <trkpt lat="44.36296" lon="6.39597">
        <ele>1798.7</ele>
        <time>2018-08-10T10:14:47Z</time>
      </trkpt>
      <trkpt lat="44.36299" lon="6.39596">
        <ele>1799.4</ele>
        <time>2018-08-10T10:14:49Z</time>
      </trkpt>
      <trkpt lat="44.36302" lon="6.39594">
        <ele>1800.2</ele>
        <time>2018-08-10T10:15:00Z</time>
      </trkpt>
      <trkpt lat="44.36304" lon="6.39593">
        <ele>1800.9</ele>
        <time>2018-08-10T10:15:13Z</time>
      </trkpt>
      <trkpt lat="44.36309" lon="6.39594">
        <ele>1801.6</ele>
        <time>2018-08-10T10:15:16Z</time>
      </trkpt>
      <trkpt lat="44.36311" lon="6.39591">
        <ele>1800.8</ele>
        <time>2018-08-10T10:15:18Z</time>
      </trkpt>
      <trkpt lat="44.36314" lon="6.39589">
        <ele>1801.6</ele>
        <time>2018-08-10T10:15:20Z</time>
      </trkpt>
      <trkpt lat="44.36319" lon="6.39589">
        <ele>1802</ele>
        <time>2018-08-10T10:15:23Z</time>
      </trkpt>
      <trkpt lat="44.36322" lon="6.39589">
        <ele>1801</ele>
        <time>2018-08-10T10:15:25Z</time>
      </trkpt>
      <trkpt lat="44.36326" lon="6.39588">
        <ele>1801.7</ele>
        <time>2018-08-10T10:15:28Z</time>
      </trkpt>
      <trkpt lat="44.3633" lon="6.39586">
        <ele>1802</ele>
        <time>2018-08-10T10:15:31Z</time>
      </trkpt>
      <trkpt lat="44.36333" lon="6.39584">
        <ele>1800.8</ele>
        <time>2018-08-10T10:15:34Z</time>
      </trkpt>
      <trkpt lat="44.36336" lon="6.39582">
        <ele>1801.5</ele>
        <time>2018-08-10T10:15:36Z</time>
      </trkpt>
      <trkpt lat="44.36339" lon="6.39582">
        <ele>1802.1</ele>
        <time>2018-08-10T10:15:38Z</time>
      </trkpt>
      <trkpt lat="44.36342" lon="6.3958">
        <ele>1802.7</ele>
        <time>2018-08-10T10:15:41Z</time>
      </trkpt>
      <trkpt lat="44.36345" lon="6.39579">
        <ele>1803.4</ele>
        <time>2018-08-10T10:15:44Z</time>
      </trkpt>
      <trkpt lat="44.36347" lon="6.39576">
        <ele>1804.3</ele>
        <time>2018-08-10T10:15:46Z</time>
      </trkpt>
      <trkpt lat="44.3635" lon="6.39576">
        <ele>1805.1</ele>
        <time>2018-08-10T10:15:48Z</time>
      </trkpt>
      <trkpt lat="44.36353" lon="6.39577">
        <ele>1806.1</ele>
        <time>2018-08-10T10:15:50Z</time>
      </trkpt>
      <trkpt lat="44.36356" lon="6.39577">
        <ele>1806.9</ele>
        <time>2018-08-10T10:15:53Z</time>
      </trkpt>
      <trkpt lat="44.3636" lon="6.39578">
        <ele>1807.3</ele>
        <time>2018-08-10T10:15:56Z</time>
      </trkpt>
      <trkpt lat="44.36364" lon="6.39578">
        <ele>1807.7</ele>
        <time>2018-08-10T10:16:01Z</time>
      </trkpt>
      <trkpt lat="44.36367" lon="6.39578">
        <ele>1808.2</ele>
        <time>2018-08-10T10:16:05Z</time>
      </trkpt>
      <trkpt lat="44.36372" lon="6.3958">
        <ele>1809.3</ele>
        <time>2018-08-10T10:16:08Z</time>
      </trkpt>
      <trkpt lat="44.36374" lon="6.39582">
        <ele>1810</ele>
        <time>2018-08-10T10:16:10Z</time>
      </trkpt>
      <trkpt lat="44.36379" lon="6.39584">
        <ele>1810.3</ele>
        <time>2018-08-10T10:16:12Z</time>
      </trkpt>
      <trkpt lat="44.36382" lon="6.39584">
        <ele>1810.3</ele>
        <time>2018-08-10T10:16:16Z</time>
      </trkpt>
      <trkpt lat="44.36385" lon="6.39587">
        <ele>1810.4</ele>
        <time>2018-08-10T10:16:20Z</time>
      </trkpt>
      <trkpt lat="44.36387" lon="6.39589">
        <ele>1810.8</ele>
        <time>2018-08-10T10:16:22Z</time>
      </trkpt>
      <trkpt lat="44.3639" lon="6.39591">
        <ele>1811.2</ele>
        <time>2018-08-10T10:16:24Z</time>
      </trkpt>
      <trkpt lat="44.36392" lon="6.39594">
        <ele>1811.7</ele>
        <time>2018-08-10T10:16:27Z</time>
      </trkpt>
      <trkpt lat="44.36395" lon="6.39597">
        <ele>1811.8</ele>
        <time>2018-08-10T10:16:30Z</time>
      </trkpt>
      <trkpt lat="44.36396" lon="6.396">
        <ele>1811.6</ele>
        <time>2018-08-10T10:16:33Z</time>
      </trkpt>
      <trkpt lat="44.364" lon="6.39604">
        <ele>1811.3</ele>
        <time>2018-08-10T10:16:36Z</time>
      </trkpt>
      <trkpt lat="44.36401" lon="6.39607">
        <ele>1811.1</ele>
        <time>2018-08-10T10:16:38Z</time>
      </trkpt>
      <trkpt lat="44.36404" lon="6.39612">
        <ele>1811</ele>
        <time>2018-08-10T10:16:41Z</time>
      </trkpt>
      <trkpt lat="44.36406" lon="6.39616">
        <ele>1811</ele>
        <time>2018-08-10T10:16:43Z</time>
      </trkpt>
      <trkpt lat="44.36409" lon="6.3962">
        <ele>1811.8</ele>
        <time>2018-08-10T10:16:46Z</time>
      </trkpt>
      <trkpt lat="44.36411" lon="6.39625">
        <ele>1813.3</ele>
        <time>2018-08-10T10:16:50Z</time>
      </trkpt>
      <trkpt lat="44.36413" lon="6.39628">
        <ele>1814.4</ele>
        <time>2018-08-10T10:16:52Z</time>
      </trkpt>
      <trkpt lat="44.3641" lon="6.3963">
        <ele>1815.5</ele>
        <time>2018-08-10T10:16:56Z</time>
      </trkpt>
      <trkpt lat="44.36405" lon="6.39628">
        <ele>1815.2</ele>
        <time>2018-08-10T10:16:58Z</time>
      </trkpt>
      <trkpt lat="44.36403" lon="6.39626">
        <ele>1813.8</ele>
        <time>2018-08-10T10:17:00Z</time>
      </trkpt>
      <trkpt lat="44.36401" lon="6.39624">
        <ele>1812.7</ele>
        <time>2018-08-10T10:17:02Z</time>
      </trkpt>
      <trkpt lat="44.36398" lon="6.39622">
        <ele>1811.4</ele>
        <time>2018-08-10T10:17:04Z</time>
      </trkpt>
      <trkpt lat="44.36394" lon="6.39622">
        <ele>1811</ele>
        <time>2018-08-10T10:17:10Z</time>
      </trkpt>
      <trkpt lat="44.36391" lon="6.39619">
        <ele>1811.1</ele>
        <time>2018-08-10T10:17:12Z</time>
      </trkpt>
      <trkpt lat="44.36388" lon="6.39616">
        <ele>1811.2</ele>
        <time>2018-08-10T10:17:15Z</time>
      </trkpt>
      <trkpt lat="44.36385" lon="6.39618">
        <ele>1811.5</ele>
        <time>2018-08-10T10:17:18Z</time>
      </trkpt>
      <trkpt lat="44.36381" lon="6.39616">
        <ele>1811.8</ele>
        <time>2018-08-10T10:17:21Z</time>
      </trkpt>
      <trkpt lat="44.36379" lon="6.39615">
        <ele>1811.6</ele>
        <time>2018-08-10T10:17:23Z</time>
      </trkpt>
      <trkpt lat="44.36376" lon="6.39617">
        <ele>1811.1</ele>
        <time>2018-08-10T10:17:27Z</time>
      </trkpt>
      <trkpt lat="44.36373" lon="6.39619">
        <ele>1810.6</ele>
        <time>2018-08-10T10:17:30Z</time>
      </trkpt>
      <trkpt lat="44.36371" lon="6.39622">
        <ele>1812.8</ele>
        <time>2018-08-10T10:17:33Z</time>
      </trkpt>
      <trkpt lat="44.36368" lon="6.39625">
        <ele>1814.9</ele>
        <time>2018-08-10T10:17:36Z</time>
      </trkpt>
      <trkpt lat="44.36365" lon="6.39627">
        <ele>1815.7</ele>
        <time>2018-08-10T10:17:38Z</time>
      </trkpt>
      <trkpt lat="44.36366" lon="6.39633">
        <ele>1818.2</ele>
        <time>2018-08-10T10:18:03Z</time>
      </trkpt>
      <trkpt lat="44.36367" lon="6.39637">
        <ele>1819.8</ele>
        <time>2018-08-10T10:18:06Z</time>
      </trkpt>
      <trkpt lat="44.36368" lon="6.3964">
        <ele>1820.2</ele>
        <time>2018-08-10T10:18:08Z</time>
      </trkpt>
      <trkpt lat="44.3637" lon="6.39644">
        <ele>1821.5</ele>
        <time>2018-08-10T10:18:11Z</time>
      </trkpt>
      <trkpt lat="44.36371" lon="6.39649">
        <ele>1823.1</ele>
        <time>2018-08-10T10:18:14Z</time>
      </trkpt>
      <trkpt lat="44.36374" lon="6.39653">
        <ele>1824.2</ele>
        <time>2018-08-10T10:18:17Z</time>
      </trkpt>
      <trkpt lat="44.36376" lon="6.39657">
        <ele>1825.3</ele>
        <time>2018-08-10T10:18:19Z</time>
      </trkpt>
      <trkpt lat="44.36379" lon="6.39659">
        <ele>1826.2</ele>
        <time>2018-08-10T10:18:22Z</time>
      </trkpt>
      <trkpt lat="44.36381" lon="6.39663">
        <ele>1827</ele>
        <time>2018-08-10T10:18:26Z</time>
      </trkpt>
      <trkpt lat="44.36382" lon="6.39666">
        <ele>1828.2</ele>
        <time>2018-08-10T10:18:29Z</time>
      </trkpt>
      <trkpt lat="44.36385" lon="6.3967">
        <ele>1829.5</ele>
        <time>2018-08-10T10:18:31Z</time>
      </trkpt>
      <trkpt lat="44.36386" lon="6.39673">
        <ele>1830.6</ele>
        <time>2018-08-10T10:18:33Z</time>
      </trkpt>
      <trkpt lat="44.36387" lon="6.39677">
        <ele>1831.7</ele>
        <time>2018-08-10T10:18:44Z</time>
      </trkpt>
      <trkpt lat="44.36384" lon="6.39676">
        <ele>1832.8</ele>
        <time>2018-08-10T10:18:53Z</time>
      </trkpt>
      <trkpt lat="44.36387" lon="6.39679">
        <ele>1834.4</ele>
        <time>2018-08-10T10:19:05Z</time>
      </trkpt>
      <trkpt lat="44.36388" lon="6.39683">
        <ele>1835.9</ele>
        <time>2018-08-10T10:19:07Z</time>
      </trkpt>
      <trkpt lat="44.36389" lon="6.39687">
        <ele>1837</ele>
        <time>2018-08-10T10:19:09Z</time>
      </trkpt>
      <trkpt lat="44.3639" lon="6.39691">
        <ele>1838.1</ele>
        <time>2018-08-10T10:19:11Z</time>
      </trkpt>
      <trkpt lat="44.36393" lon="6.39693">
        <ele>1839.2</ele>
        <time>2018-08-10T10:19:14Z</time>
      </trkpt>
      <trkpt lat="44.36393" lon="6.39698">
        <ele>1840.3</ele>
        <time>2018-08-10T10:19:17Z</time>
      </trkpt>
      <trkpt lat="44.36395" lon="6.39704">
        <ele>1841.5</ele>
        <time>2018-08-10T10:19:20Z</time>
      </trkpt>
      <trkpt lat="44.36396" lon="6.3971">
        <ele>1842.6</ele>
        <time>2018-08-10T10:19:23Z</time>
      </trkpt>
      <trkpt lat="44.36396" lon="6.39714">
        <ele>1843.2</ele>
        <time>2018-08-10T10:19:28Z</time>
      </trkpt>
      <trkpt lat="44.36396" lon="6.39719">
        <ele>1844.1</ele>
        <time>2018-08-10T10:19:31Z</time>
      </trkpt>
      <trkpt lat="44.36396" lon="6.39723">
        <ele>1844.7</ele>
        <time>2018-08-10T10:19:34Z</time>
      </trkpt>
      <trkpt lat="44.36396" lon="6.39728">
        <ele>1845.3</ele>
        <time>2018-08-10T10:19:37Z</time>
      </trkpt>
      <trkpt lat="44.36395" lon="6.39731">
        <ele>1845.8</ele>
        <time>2018-08-10T10:19:41Z</time>
      </trkpt>
      <trkpt lat="44.36396" lon="6.39735">
        <ele>1846.6</ele>
        <time>2018-08-10T10:19:44Z</time>
      </trkpt>
      <trkpt lat="44.36397" lon="6.39739">
        <ele>1847.2</ele>
        <time>2018-08-10T10:19:46Z</time>
      </trkpt>
      <trkpt lat="44.36398" lon="6.39742">
        <ele>1847.8</ele>
        <time>2018-08-10T10:19:48Z</time>
      </trkpt>
      <trkpt lat="44.36399" lon="6.39746">
        <ele>1848</ele>
        <time>2018-08-10T10:19:51Z</time>
      </trkpt>
      <trkpt lat="44.36398" lon="6.3975">
        <ele>1848.1</ele>
        <time>2018-08-10T10:19:55Z</time>
      </trkpt>
      <trkpt lat="44.36397" lon="6.39754">
        <ele>1848.5</ele>
        <time>2018-08-10T10:19:58Z</time>
      </trkpt>
      <trkpt lat="44.36397" lon="6.39759">
        <ele>1849.1</ele>
        <time>2018-08-10T10:20:01Z</time>
      </trkpt>
      <trkpt lat="44.36398" lon="6.39764">
        <ele>1849.8</ele>
        <time>2018-08-10T10:20:04Z</time>
      </trkpt>
      <trkpt lat="44.36396" lon="6.39767">
        <ele>1850.4</ele>
        <time>2018-08-10T10:20:08Z</time>
      </trkpt>
      <trkpt lat="44.36395" lon="6.39772">
        <ele>1850.9</ele>
        <time>2018-08-10T10:20:11Z</time>
      </trkpt>
      <trkpt lat="44.36395" lon="6.39778">
        <ele>1851.6</ele>
        <time>2018-08-10T10:20:15Z</time>
      </trkpt>
      <trkpt lat="44.36395" lon="6.39782">
        <ele>1852.1</ele>
        <time>2018-08-10T10:20:18Z</time>
      </trkpt>
      <trkpt lat="44.36394" lon="6.39786">
        <ele>1852.6</ele>
        <time>2018-08-10T10:20:21Z</time>
      </trkpt>
      <trkpt lat="44.36394" lon="6.39791">
        <ele>1853.1</ele>
        <time>2018-08-10T10:20:25Z</time>
      </trkpt>
      <trkpt lat="44.36395" lon="6.39795">
        <ele>1853.8</ele>
        <time>2018-08-10T10:20:28Z</time>
      </trkpt>
      <trkpt lat="44.36393" lon="6.398">
        <ele>1854.5</ele>
        <time>2018-08-10T10:20:31Z</time>
      </trkpt>
      <trkpt lat="44.36393" lon="6.39804">
        <ele>1855.1</ele>
        <time>2018-08-10T10:20:33Z</time>
      </trkpt>
      <trkpt lat="44.36392" lon="6.39807">
        <ele>1855.4</ele>
        <time>2018-08-10T10:20:36Z</time>
      </trkpt>
      <trkpt lat="44.36393" lon="6.39811">
        <ele>1855.8</ele>
        <time>2018-08-10T10:20:38Z</time>
      </trkpt>
      <trkpt lat="44.36393" lon="6.39815">
        <ele>1856.2</ele>
        <time>2018-08-10T10:20:40Z</time>
      </trkpt>
      <trkpt lat="44.36391" lon="6.39818">
        <ele>1856.9</ele>
        <time>2018-08-10T10:20:43Z</time>
      </trkpt>
      <trkpt lat="44.36392" lon="6.39822">
        <ele>1857.6</ele>
        <time>2018-08-10T10:20:46Z</time>
      </trkpt>
      <trkpt lat="44.36392" lon="6.39827">
        <ele>1858.4</ele>
        <time>2018-08-10T10:20:48Z</time>
      </trkpt>
      <trkpt lat="44.36393" lon="6.39831">
        <ele>1858.9</ele>
        <time>2018-08-10T10:20:50Z</time>
      </trkpt>
      <trkpt lat="44.36394" lon="6.39836">
        <ele>1859.7</ele>
        <time>2018-08-10T10:20:53Z</time>
      </trkpt>
      <trkpt lat="44.36393" lon="6.39839">
        <ele>1860.3</ele>
        <time>2018-08-10T10:20:57Z</time>
      </trkpt>
      <trkpt lat="44.36395" lon="6.39844">
        <ele>1861.1</ele>
        <time>2018-08-10T10:20:59Z</time>
      </trkpt>
      <trkpt lat="44.36395" lon="6.39848">
        <ele>1861.8</ele>
        <time>2018-08-10T10:21:04Z</time>
      </trkpt>
      <trkpt lat="44.36394" lon="6.39852">
        <ele>1862.5</ele>
        <time>2018-08-10T10:21:09Z</time>
      </trkpt>
      <trkpt lat="44.36393" lon="6.39856">
        <ele>1863.3</ele>
        <time>2018-08-10T10:21:12Z</time>
      </trkpt>
      <trkpt lat="44.3639" lon="6.39857">
        <ele>1864.1</ele>
        <time>2018-08-10T10:21:16Z</time>
      </trkpt>
      <trkpt lat="44.36386" lon="6.3986">
        <ele>1865.1</ele>
        <time>2018-08-10T10:21:19Z</time>
      </trkpt>
      <trkpt lat="44.36383" lon="6.39859">
        <ele>1865.9</ele>
        <time>2018-08-10T10:21:22Z</time>
      </trkpt>
      <trkpt lat="44.3638" lon="6.3986">
        <ele>1866.7</ele>
        <time>2018-08-10T10:21:24Z</time>
      </trkpt>
      <trkpt lat="44.36376" lon="6.39861">
        <ele>1867.5</ele>
        <time>2018-08-10T10:21:26Z</time>
      </trkpt>
      <trkpt lat="44.36372" lon="6.3986">
        <ele>1868.3</ele>
        <time>2018-08-10T10:21:29Z</time>
      </trkpt>
      <trkpt lat="44.36369" lon="6.39861">
        <ele>1869</ele>
        <time>2018-08-10T10:21:32Z</time>
      </trkpt>
      <trkpt lat="44.36365" lon="6.39862">
        <ele>1869.7</ele>
        <time>2018-08-10T10:21:35Z</time>
      </trkpt>
      <trkpt lat="44.36362" lon="6.39864">
        <ele>1870.4</ele>
        <time>2018-08-10T10:21:38Z</time>
      </trkpt>
      <trkpt lat="44.36359" lon="6.39866">
        <ele>1870.9</ele>
        <time>2018-08-10T10:21:40Z</time>
      </trkpt>
      <trkpt lat="44.36357" lon="6.39869">
        <ele>1871.4</ele>
        <time>2018-08-10T10:21:43Z</time>
      </trkpt>
      <trkpt lat="44.36354" lon="6.39871">
        <ele>1871.9</ele>
        <time>2018-08-10T10:21:45Z</time>
      </trkpt>
      <trkpt lat="44.36351" lon="6.39873">
        <ele>1872.5</ele>
        <time>2018-08-10T10:21:47Z</time>
      </trkpt>
      <trkpt lat="44.36349" lon="6.39875">
        <ele>1872.9</ele>
        <time>2018-08-10T10:21:49Z</time>
      </trkpt>
      <trkpt lat="44.36345" lon="6.39874">
        <ele>1873.4</ele>
        <time>2018-08-10T10:21:52Z</time>
      </trkpt>
      <trkpt lat="44.36344" lon="6.39878">
        <ele>1873.9</ele>
        <time>2018-08-10T10:21:55Z</time>
      </trkpt>
      <trkpt lat="44.36342" lon="6.39881">
        <ele>1874.4</ele>
        <time>2018-08-10T10:21:58Z</time>
      </trkpt>
      <trkpt lat="44.36338" lon="6.39883">
        <ele>1875.2</ele>
        <time>2018-08-10T10:22:00Z</time>
      </trkpt>
      <trkpt lat="44.36335" lon="6.39886">
        <ele>1875.8</ele>
        <time>2018-08-10T10:22:02Z</time>
      </trkpt>
      <trkpt lat="44.36332" lon="6.39888">
        <ele>1876.1</ele>
        <time>2018-08-10T10:22:04Z</time>
      </trkpt>
      <trkpt lat="44.36331" lon="6.39892">
        <ele>1876.4</ele>
        <time>2018-08-10T10:22:07Z</time>
      </trkpt>
      <trkpt lat="44.36332" lon="6.39896">
        <ele>1876.6</ele>
        <time>2018-08-10T10:22:09Z</time>
      </trkpt>
      <trkpt lat="44.3633" lon="6.39898">
        <ele>1876.8</ele>
        <time>2018-08-10T10:22:48Z</time>
      </trkpt>
      <trkpt lat="44.3633" lon="6.39903">
        <ele>1877.2</ele>
        <time>2018-08-10T10:22:53Z</time>
      </trkpt>
      <trkpt lat="44.3633" lon="6.39907">
        <ele>1877.5</ele>
        <time>2018-08-10T10:22:56Z</time>
      </trkpt>
      <trkpt lat="44.36331" lon="6.39911">
        <ele>1877.7</ele>
        <time>2018-08-10T10:22:58Z</time>
      </trkpt>
      <trkpt lat="44.3633" lon="6.39915">
        <ele>1877.9</ele>
        <time>2018-08-10T10:23:01Z</time>
      </trkpt>
      <trkpt lat="44.36331" lon="6.39919">
        <ele>1878.2</ele>
        <time>2018-08-10T10:23:05Z</time>
      </trkpt>
      <trkpt lat="44.36333" lon="6.39923">
        <ele>1878.8</ele>
        <time>2018-08-10T10:23:08Z</time>
      </trkpt>
      <trkpt lat="44.36334" lon="6.39928">
        <ele>1879.4</ele>
        <time>2018-08-10T10:23:11Z</time>
      </trkpt>
      <trkpt lat="44.36335" lon="6.39932">
        <ele>1879.9</ele>
        <time>2018-08-10T10:23:14Z</time>
      </trkpt>
      <trkpt lat="44.36335" lon="6.39936">
        <ele>1880.8</ele>
        <time>2018-08-10T10:23:17Z</time>
      </trkpt>
      <trkpt lat="44.36336" lon="6.3994">
        <ele>1881.6</ele>
        <time>2018-08-10T10:23:20Z</time>
      </trkpt>
      <trkpt lat="44.36337" lon="6.39945">
        <ele>1882.6</ele>
        <time>2018-08-10T10:23:23Z</time>
      </trkpt>
      <trkpt lat="44.36338" lon="6.39949">
        <ele>1883.2</ele>
        <time>2018-08-10T10:23:25Z</time>
      </trkpt>
      <trkpt lat="44.36337" lon="6.39954">
        <ele>1883.8</ele>
        <time>2018-08-10T10:23:28Z</time>
      </trkpt>
      <trkpt lat="44.36337" lon="6.39958">
        <ele>1884.5</ele>
        <time>2018-08-10T10:23:33Z</time>
      </trkpt>
      <trkpt lat="44.36339" lon="6.39963">
        <ele>1885.1</ele>
        <time>2018-08-10T10:23:35Z</time>
      </trkpt>
      <trkpt lat="44.3634" lon="6.39967">
        <ele>1885.6</ele>
        <time>2018-08-10T10:23:38Z</time>
      </trkpt>
      <trkpt lat="44.3634" lon="6.39972">
        <ele>1886.5</ele>
        <time>2018-08-10T10:23:42Z</time>
      </trkpt>
      <trkpt lat="44.36341" lon="6.39976">
        <ele>1887.3</ele>
        <time>2018-08-10T10:23:46Z</time>
      </trkpt>
      <trkpt lat="44.36341" lon="6.3998">
        <ele>1888.1</ele>
        <time>2018-08-10T10:23:48Z</time>
      </trkpt>
      <trkpt lat="44.36341" lon="6.39984">
        <ele>1888.8</ele>
        <time>2018-08-10T10:23:51Z</time>
      </trkpt>
      <trkpt lat="44.36343" lon="6.39989">
        <ele>1889.5</ele>
        <time>2018-08-10T10:23:54Z</time>
      </trkpt>
      <trkpt lat="44.36344" lon="6.39994">
        <ele>1890.2</ele>
        <time>2018-08-10T10:23:57Z</time>
      </trkpt>
      <trkpt lat="44.36346" lon="6.39997">
        <ele>1890.7</ele>
        <time>2018-08-10T10:23:59Z</time>
      </trkpt>
      <trkpt lat="44.36347" lon="6.40001">
        <ele>1891.1</ele>
        <time>2018-08-10T10:24:01Z</time>
      </trkpt>
      <trkpt lat="44.36347" lon="6.40005">
        <ele>1891.6</ele>
        <time>2018-08-10T10:24:04Z</time>
      </trkpt>
      <trkpt lat="44.36345" lon="6.40008">
        <ele>1892.4</ele>
        <time>2018-08-10T10:24:09Z</time>
      </trkpt>
      <trkpt lat="44.36347" lon="6.40012">
        <ele>1893.1</ele>
        <time>2018-08-10T10:24:10Z</time>
      </trkpt>
      <trkpt lat="44.36348" lon="6.40018">
        <ele>1894.4</ele>
        <time>2018-08-10T10:24:14Z</time>
      </trkpt>
      <trkpt lat="44.36351" lon="6.40021">
        <ele>1895.2</ele>
        <time>2018-08-10T10:24:17Z</time>
      </trkpt>
      <trkpt lat="44.36354" lon="6.40023">
        <ele>1896.2</ele>
        <time>2018-08-10T10:24:20Z</time>
      </trkpt>
      <trkpt lat="44.36357" lon="6.40025">
        <ele>1896.9</ele>
        <time>2018-08-10T10:24:23Z</time>
      </trkpt>
      <trkpt lat="44.3636" lon="6.40025">
        <ele>1897.6</ele>
        <time>2018-08-10T10:24:26Z</time>
      </trkpt>
      <trkpt lat="44.36364" lon="6.40027">
        <ele>1898.4</ele>
        <time>2018-08-10T10:24:29Z</time>
      </trkpt>
      <trkpt lat="44.36365" lon="6.40029">
        <ele>1899.3</ele>
        <time>2018-08-10T10:24:31Z</time>
      </trkpt>
      <trkpt lat="44.36368" lon="6.40032">
        <ele>1900.3</ele>
        <time>2018-08-10T10:24:34Z</time>
      </trkpt>
      <trkpt lat="44.3637" lon="6.40034">
        <ele>1901.3</ele>
        <time>2018-08-10T10:24:39Z</time>
      </trkpt>
      <trkpt lat="44.36373" lon="6.40037">
        <ele>1902.2</ele>
        <time>2018-08-10T10:24:41Z</time>
      </trkpt>
      <trkpt lat="44.36375" lon="6.40042">
        <ele>1903.1</ele>
        <time>2018-08-10T10:24:44Z</time>
      </trkpt>
      <trkpt lat="44.36378" lon="6.40046">
        <ele>1903.8</ele>
        <time>2018-08-10T10:24:49Z</time>
      </trkpt>
      <trkpt lat="44.3638" lon="6.4005">
        <ele>1904.3</ele>
        <time>2018-08-10T10:24:53Z</time>
      </trkpt>
      <trkpt lat="44.36382" lon="6.40053">
        <ele>1904.7</ele>
        <time>2018-08-10T10:24:57Z</time>
      </trkpt>
      <trkpt lat="44.36382" lon="6.40057">
        <ele>1905.3</ele>
        <time>2018-08-10T10:25:04Z</time>
      </trkpt>
      <trkpt lat="44.36384" lon="6.40061">
        <ele>1906.1</ele>
        <time>2018-08-10T10:25:16Z</time>
      </trkpt>
      <trkpt lat="44.36385" lon="6.40065">
        <ele>1906.9</ele>
        <time>2018-08-10T10:25:22Z</time>
      </trkpt>
      <trkpt lat="44.36385" lon="6.40069">
        <ele>1907.6</ele>
        <time>2018-08-10T10:25:26Z</time>
      </trkpt>
      <trkpt lat="44.36385" lon="6.40074">
        <ele>1908.4</ele>
        <time>2018-08-10T10:25:34Z</time>
      </trkpt>
      <trkpt lat="44.36386" lon="6.40078">
        <ele>1909.1</ele>
        <time>2018-08-10T10:25:38Z</time>
      </trkpt>
      <trkpt lat="44.36385" lon="6.40082">
        <ele>1909.3</ele>
        <time>2018-08-10T10:25:42Z</time>
      </trkpt>
      <trkpt lat="44.36386" lon="6.40088">
        <ele>1909.3</ele>
        <time>2018-08-10T10:25:46Z</time>
      </trkpt>
      <trkpt lat="44.36386" lon="6.40092">
        <ele>1909.5</ele>
        <time>2018-08-10T10:25:51Z</time>
      </trkpt>
      <trkpt lat="44.36387" lon="6.40096">
        <ele>1910.1</ele>
        <time>2018-08-10T10:25:54Z</time>
      </trkpt>
      <trkpt lat="44.36387" lon="6.40101">
        <ele>1910.8</ele>
        <time>2018-08-10T10:25:57Z</time>
      </trkpt>
      <trkpt lat="44.36387" lon="6.40105">
        <ele>1911.3</ele>
        <time>2018-08-10T10:26:01Z</time>
      </trkpt>
      <trkpt lat="44.36385" lon="6.4011">
        <ele>1911.8</ele>
        <time>2018-08-10T10:26:06Z</time>
      </trkpt>
      <trkpt lat="44.36384" lon="6.40115">
        <ele>1912.3</ele>
        <time>2018-08-10T10:26:10Z</time>
      </trkpt>
      <trkpt lat="44.36384" lon="6.40119">
        <ele>1912.9</ele>
        <time>2018-08-10T10:27:01Z</time>
      </trkpt>
      <trkpt lat="44.36382" lon="6.40122">
        <ele>1913.5</ele>
        <time>2018-08-10T10:27:04Z</time>
      </trkpt>
      <trkpt lat="44.36379" lon="6.40126">
        <ele>1914.4</ele>
        <time>2018-08-10T10:27:08Z</time>
      </trkpt>
      <trkpt lat="44.36377" lon="6.40127">
        <ele>1914.4</ele>
        <time>2018-08-10T10:27:11Z</time>
      </trkpt>
      <trkpt lat="44.36375" lon="6.40131">
        <ele>1914.4</ele>
        <time>2018-08-10T10:27:15Z</time>
      </trkpt>
      <trkpt lat="44.36373" lon="6.40136">
        <ele>1914.4</ele>
        <time>2018-08-10T10:27:19Z</time>
      </trkpt>
      <trkpt lat="44.36371" lon="6.4014">
        <ele>1915.1</ele>
        <time>2018-08-10T10:27:23Z</time>
      </trkpt>
      <trkpt lat="44.3637" lon="6.40144">
        <ele>1915.5</ele>
        <time>2018-08-10T10:27:26Z</time>
      </trkpt>
      <trkpt lat="44.3637" lon="6.40148">
        <ele>1915.9</ele>
        <time>2018-08-10T10:27:29Z</time>
      </trkpt>
      <trkpt lat="44.3637" lon="6.40152">
        <ele>1916.1</ele>
        <time>2018-08-10T10:27:36Z</time>
      </trkpt>
      <trkpt lat="44.36369" lon="6.40157">
        <ele>1916.4</ele>
        <time>2018-08-10T10:27:39Z</time>
      </trkpt>
      <trkpt lat="44.36367" lon="6.4016">
        <ele>1917</ele>
        <time>2018-08-10T10:27:42Z</time>
      </trkpt>
      <trkpt lat="44.36366" lon="6.40163">
        <ele>1918.3</ele>
        <time>2018-08-10T10:27:45Z</time>
      </trkpt>
      <trkpt lat="44.36364" lon="6.40166">
        <ele>1919.5</ele>
        <time>2018-08-10T10:27:47Z</time>
      </trkpt>
      <trkpt lat="44.36366" lon="6.40169">
        <ele>1920.8</ele>
        <time>2018-08-10T10:27:48Z</time>
      </trkpt>
      <trkpt lat="44.36368" lon="6.40175">
        <ele>1922.1</ele>
        <time>2018-08-10T10:27:52Z</time>
      </trkpt>
      <trkpt lat="44.36369" lon="6.40172">
        <ele>1922.9</ele>
        <time>2018-08-10T10:28:07Z</time>
      </trkpt>
      <trkpt lat="44.36372" lon="6.4017">
        <ele>1923.7</ele>
        <time>2018-08-10T10:28:16Z</time>
      </trkpt>
      <trkpt lat="44.36374" lon="6.40168">
        <ele>1924.5</ele>
        <time>2018-08-10T10:28:18Z</time>
      </trkpt>
      <trkpt lat="44.36377" lon="6.40166">
        <ele>1925.4</ele>
        <time>2018-08-10T10:28:22Z</time>
      </trkpt>
      <trkpt lat="44.36381" lon="6.40165">
        <ele>1926.3</ele>
        <time>2018-08-10T10:28:25Z</time>
      </trkpt>
      <trkpt lat="44.36383" lon="6.40166">
        <ele>1926.9</ele>
        <time>2018-08-10T10:28:27Z</time>
      </trkpt>
      <trkpt lat="44.36386" lon="6.40164">
        <ele>1927.5</ele>
        <time>2018-08-10T10:28:29Z</time>
      </trkpt>
      <trkpt lat="44.36389" lon="6.40162">
        <ele>1928.5</ele>
        <time>2018-08-10T10:28:32Z</time>
      </trkpt>
      <trkpt lat="44.36393" lon="6.40163">
        <ele>1929.5</ele>
        <time>2018-08-10T10:28:35Z</time>
      </trkpt>
      <trkpt lat="44.36397" lon="6.4016">
        <ele>1930.9</ele>
        <time>2018-08-10T10:28:38Z</time>
      </trkpt>
      <trkpt lat="44.364" lon="6.40157">
        <ele>1932.1</ele>
        <time>2018-08-10T10:28:41Z</time>
      </trkpt>
      <trkpt lat="44.36403" lon="6.40156">
        <ele>1933</ele>
        <time>2018-08-10T10:28:43Z</time>
      </trkpt>
      <trkpt lat="44.36405" lon="6.40153">
        <ele>1933.4</ele>
        <time>2018-08-10T10:28:45Z</time>
      </trkpt>
      <trkpt lat="44.36408" lon="6.40151">
        <ele>1933.7</ele>
        <time>2018-08-10T10:28:47Z</time>
      </trkpt>
      <trkpt lat="44.36411" lon="6.40148">
        <ele>1934</ele>
        <time>2018-08-10T10:28:51Z</time>
      </trkpt>
      <trkpt lat="44.36414" lon="6.4015">
        <ele>1934.4</ele>
        <time>2018-08-10T10:28:53Z</time>
      </trkpt>
      <trkpt lat="44.36417" lon="6.40149">
        <ele>1934.8</ele>
        <time>2018-08-10T10:28:55Z</time>
      </trkpt>
      <trkpt lat="44.36421" lon="6.40149">
        <ele>1935.2</ele>
        <time>2018-08-10T10:28:58Z</time>
      </trkpt>
      <trkpt lat="44.36424" lon="6.40152">
        <ele>1935.4</ele>
        <time>2018-08-10T10:29:01Z</time>
      </trkpt>
      <trkpt lat="44.36428" lon="6.40154">
        <ele>1935.6</ele>
        <time>2018-08-10T10:29:03Z</time>
      </trkpt>
      <trkpt lat="44.36431" lon="6.40156">
        <ele>1936.1</ele>
        <time>2018-08-10T10:29:05Z</time>
      </trkpt>
      <trkpt lat="44.36433" lon="6.40157">
        <ele>1936.6</ele>
        <time>2018-08-10T10:29:07Z</time>
      </trkpt>
      <trkpt lat="44.36436" lon="6.40158">
        <ele>1937.1</ele>
        <time>2018-08-10T10:29:09Z</time>
      </trkpt>
      <trkpt lat="44.36439" lon="6.40161">
        <ele>1937.3</ele>
        <time>2018-08-10T10:29:12Z</time>
      </trkpt>
      <trkpt lat="44.36441" lon="6.40164">
        <ele>1937.3</ele>
        <time>2018-08-10T10:29:15Z</time>
      </trkpt>
      <trkpt lat="44.36443" lon="6.40168">
        <ele>1937.4</ele>
        <time>2018-08-10T10:29:17Z</time>
      </trkpt>
      <trkpt lat="44.36446" lon="6.4017">
        <ele>1938.1</ele>
        <time>2018-08-10T10:29:20Z</time>
      </trkpt>
      <trkpt lat="44.3645" lon="6.40173">
        <ele>1938.7</ele>
        <time>2018-08-10T10:29:23Z</time>
      </trkpt>
      <trkpt lat="44.36453" lon="6.40175">
        <ele>1939.1</ele>
        <time>2018-08-10T10:29:25Z</time>
      </trkpt>
      <trkpt lat="44.36455" lon="6.4018">
        <ele>1939.3</ele>
        <time>2018-08-10T10:29:28Z</time>
      </trkpt>
      <trkpt lat="44.36458" lon="6.40183">
        <ele>1939.6</ele>
        <time>2018-08-10T10:29:38Z</time>
      </trkpt>
      <trkpt lat="44.36461" lon="6.40184">
        <ele>1939.9</ele>
        <time>2018-08-10T10:29:42Z</time>
      </trkpt>
      <trkpt lat="44.36465" lon="6.40183">
        <ele>1940.5</ele>
        <time>2018-08-10T10:29:45Z</time>
      </trkpt>
      <trkpt lat="44.36466" lon="6.40179">
        <ele>1940.7</ele>
        <time>2018-08-10T10:29:49Z</time>
      </trkpt>
      <trkpt lat="44.36469" lon="6.4018">
        <ele>1940.9</ele>
        <time>2018-08-10T10:29:51Z</time>
      </trkpt>
      <trkpt lat="44.36472" lon="6.40177">
        <ele>1941</ele>
        <time>2018-08-10T10:29:56Z</time>
      </trkpt>
      <trkpt lat="44.36471" lon="6.40172">
        <ele>1941.7</ele>
        <time>2018-08-10T10:30:05Z</time>
      </trkpt>
      <trkpt lat="44.36474" lon="6.40167">
        <ele>1942.8</ele>
        <time>2018-08-10T10:31:00Z</time>
      </trkpt>
      <trkpt lat="44.36477" lon="6.40167">
        <ele>1943.2</ele>
        <time>2018-08-10T10:31:03Z</time>
      </trkpt>
      <trkpt lat="44.3648" lon="6.40168">
        <ele>1943.3</ele>
        <time>2018-08-10T10:31:05Z</time>
      </trkpt>
      <trkpt lat="44.36483" lon="6.40166">
        <ele>1943.5</ele>
        <time>2018-08-10T10:31:07Z</time>
      </trkpt>
      <trkpt lat="44.36486" lon="6.40164">
        <ele>1944</ele>
        <time>2018-08-10T10:31:10Z</time>
      </trkpt>
      <trkpt lat="44.36489" lon="6.40162">
        <ele>1944.8</ele>
        <time>2018-08-10T10:31:13Z</time>
      </trkpt>
      <trkpt lat="44.36494" lon="6.4016">
        <ele>1945.6</ele>
        <time>2018-08-10T10:31:16Z</time>
      </trkpt>
      <trkpt lat="44.36497" lon="6.4016">
        <ele>1946</ele>
        <time>2018-08-10T10:31:18Z</time>
      </trkpt>
      <trkpt lat="44.365" lon="6.4016">
        <ele>1946.6</ele>
        <time>2018-08-10T10:31:21Z</time>
      </trkpt>
      <trkpt lat="44.36503" lon="6.40159">
        <ele>1946.7</ele>
        <time>2018-08-10T10:31:25Z</time>
      </trkpt>
      <trkpt lat="44.36506" lon="6.40158">
        <ele>1946.7</ele>
        <time>2018-08-10T10:31:28Z</time>
      </trkpt>
      <trkpt lat="44.3651" lon="6.40159">
        <ele>1946.7</ele>
        <time>2018-08-10T10:31:30Z</time>
      </trkpt>
      <trkpt lat="44.36513" lon="6.40161">
        <ele>1947.4</ele>
        <time>2018-08-10T10:31:36Z</time>
      </trkpt>
      <trkpt lat="44.36516" lon="6.40162">
        <ele>1947.9</ele>
        <time>2018-08-10T10:31:38Z</time>
      </trkpt>
      <trkpt lat="44.36518" lon="6.40161">
        <ele>1948.5</ele>
        <time>2018-08-10T10:31:40Z</time>
      </trkpt>
      <trkpt lat="44.36522" lon="6.40161">
        <ele>1948.7</ele>
        <time>2018-08-10T10:31:42Z</time>
      </trkpt>
      <trkpt lat="44.36525" lon="6.4016">
        <ele>1948.7</ele>
        <time>2018-08-10T10:31:47Z</time>
      </trkpt>
      <trkpt lat="44.36528" lon="6.40158">
        <ele>1948.9</ele>
        <time>2018-08-10T10:31:50Z</time>
      </trkpt>
      <trkpt lat="44.36532" lon="6.40155">
        <ele>1949.8</ele>
        <time>2018-08-10T10:31:54Z</time>
      </trkpt>
      <trkpt lat="44.36535" lon="6.40154">
        <ele>1950.5</ele>
        <time>2018-08-10T10:31:57Z</time>
      </trkpt>
      <trkpt lat="44.36538" lon="6.40152">
        <ele>1950.6</ele>
        <time>2018-08-10T10:31:59Z</time>
      </trkpt>
      <trkpt lat="44.36542" lon="6.40153">
        <ele>1950.5</ele>
        <time>2018-08-10T10:32:02Z</time>
      </trkpt>
      <trkpt lat="44.36545" lon="6.40153">
        <ele>1950.4</ele>
        <time>2018-08-10T10:32:05Z</time>
      </trkpt>
      <trkpt lat="44.36548" lon="6.40151">
        <ele>1950.7</ele>
        <time>2018-08-10T10:32:07Z</time>
      </trkpt>
      <trkpt lat="44.3655" lon="6.40151">
        <ele>1951</ele>
        <time>2018-08-10T10:32:13Z</time>
      </trkpt>
      <trkpt lat="44.36554" lon="6.40147">
        <ele>1951.2</ele>
        <time>2018-08-10T10:32:16Z</time>
      </trkpt>
      <trkpt lat="44.36555" lon="6.40144">
        <ele>1951</ele>
        <time>2018-08-10T10:32:19Z</time>
      </trkpt>
      <trkpt lat="44.36559" lon="6.40144">
        <ele>1950.7</ele>
        <time>2018-08-10T10:32:23Z</time>
      </trkpt>
      <trkpt lat="44.36562" lon="6.40147">
        <ele>1950.9</ele>
        <time>2018-08-10T10:32:25Z</time>
      </trkpt>
      <trkpt lat="44.36565" lon="6.40149">
        <ele>1951.2</ele>
        <time>2018-08-10T10:32:27Z</time>
      </trkpt>
      <trkpt lat="44.36568" lon="6.40151">
        <ele>1951.5</ele>
        <time>2018-08-10T10:32:30Z</time>
      </trkpt>
      <trkpt lat="44.36571" lon="6.4015">
        <ele>1951.2</ele>
        <time>2018-08-10T10:32:34Z</time>
      </trkpt>
      <trkpt lat="44.36575" lon="6.4015">
        <ele>1950.9</ele>
        <time>2018-08-10T10:32:38Z</time>
      </trkpt>
      <trkpt lat="44.36579" lon="6.4015">
        <ele>1950.8</ele>
        <time>2018-08-10T10:32:41Z</time>
      </trkpt>
      <trkpt lat="44.36581" lon="6.40149">
        <ele>1951.1</ele>
        <time>2018-08-10T10:32:45Z</time>
      </trkpt>
      <trkpt lat="44.36585" lon="6.4015">
        <ele>1951.5</ele>
        <time>2018-08-10T10:32:48Z</time>
      </trkpt>
      <trkpt lat="44.36589" lon="6.40151">
        <ele>1952.4</ele>
        <time>2018-08-10T10:32:51Z</time>
      </trkpt>
      <trkpt lat="44.36592" lon="6.40152">
        <ele>1953.2</ele>
        <time>2018-08-10T10:32:53Z</time>
      </trkpt>
      <trkpt lat="44.36595" lon="6.40153">
        <ele>1953.9</ele>
        <time>2018-08-10T10:32:55Z</time>
      </trkpt>
      <trkpt lat="44.36598" lon="6.40156">
        <ele>1954.8</ele>
        <time>2018-08-10T10:32:58Z</time>
      </trkpt>
      <trkpt lat="44.36601" lon="6.40158">
        <ele>1955.8</ele>
        <time>2018-08-10T10:33:01Z</time>
      </trkpt>
      <trkpt lat="44.36604" lon="6.40159">
        <ele>1956.7</ele>
        <time>2018-08-10T10:33:04Z</time>
      </trkpt>
      <trkpt lat="44.36606" lon="6.40162">
        <ele>1957.5</ele>
        <time>2018-08-10T10:33:07Z</time>
      </trkpt>
      <trkpt lat="44.36609" lon="6.40165">
        <ele>1958.4</ele>
        <time>2018-08-10T10:33:10Z</time>
      </trkpt>
      <trkpt lat="44.36612" lon="6.40168">
        <ele>1959.3</ele>
        <time>2018-08-10T10:33:16Z</time>
      </trkpt>
      <trkpt lat="44.36615" lon="6.4017">
        <ele>1960</ele>
        <time>2018-08-10T10:33:18Z</time>
      </trkpt>
      <trkpt lat="44.36617" lon="6.40173">
        <ele>1960.7</ele>
        <time>2018-08-10T10:33:20Z</time>
      </trkpt>
      <trkpt lat="44.36619" lon="6.40176">
        <ele>1961.4</ele>
        <time>2018-08-10T10:33:23Z</time>
      </trkpt>
      <trkpt lat="44.36621" lon="6.40177">
        <ele>1961.9</ele>
        <time>2018-08-10T10:33:25Z</time>
      </trkpt>
      <trkpt lat="44.36624" lon="6.40181">
        <ele>1962.1</ele>
        <time>2018-08-10T10:33:31Z</time>
      </trkpt>
      <trkpt lat="44.36625" lon="6.40185">
        <ele>1963.5</ele>
        <time>2018-08-10T10:33:34Z</time>
      </trkpt>
      <trkpt lat="44.36628" lon="6.40189">
        <ele>1965</ele>
        <time>2018-08-10T10:33:50Z</time>
      </trkpt>
      <trkpt lat="44.36629" lon="6.40192">
        <ele>1966.5</ele>
        <time>2018-08-10T10:33:53Z</time>
      </trkpt>
      <trkpt lat="44.36631" lon="6.40196">
        <ele>1968</ele>
        <time>2018-08-10T10:33:56Z</time>
      </trkpt>
      <trkpt lat="44.36633" lon="6.40198">
        <ele>1968.2</ele>
        <time>2018-08-10T10:33:59Z</time>
      </trkpt>
      <trkpt lat="44.36636" lon="6.40198">
        <ele>1968.3</ele>
        <time>2018-08-10T10:34:06Z</time>
      </trkpt>
      <trkpt lat="44.3664" lon="6.40195">
        <ele>1968.5</ele>
        <time>2018-08-10T10:34:12Z</time>
      </trkpt>
      <trkpt lat="44.36643" lon="6.40195">
        <ele>1968.6</ele>
        <time>2018-08-10T10:34:14Z</time>
      </trkpt>
      <trkpt lat="44.36642" lon="6.40191">
        <ele>1967.3</ele>
        <time>2018-08-10T10:34:17Z</time>
      </trkpt>
      <trkpt lat="44.36645" lon="6.4019">
        <ele>1966</ele>
        <time>2018-08-10T10:34:19Z</time>
      </trkpt>
      <trkpt lat="44.36648" lon="6.40189">
        <ele>1966.2</ele>
        <time>2018-08-10T10:34:20Z</time>
      </trkpt>
      <trkpt lat="44.36651" lon="6.40188">
        <ele>1966.1</ele>
        <time>2018-08-10T10:34:23Z</time>
      </trkpt>
      <trkpt lat="44.36655" lon="6.40188">
        <ele>1966.2</ele>
        <time>2018-08-10T10:34:25Z</time>
      </trkpt>
      <trkpt lat="44.36658" lon="6.40188">
        <ele>1966.5</ele>
        <time>2018-08-10T10:34:28Z</time>
      </trkpt>
      <trkpt lat="44.36661" lon="6.40189">
        <ele>1966.7</ele>
        <time>2018-08-10T10:34:30Z</time>
      </trkpt>
      <trkpt lat="44.36664" lon="6.4019">
        <ele>1966.9</ele>
        <time>2018-08-10T10:34:33Z</time>
      </trkpt>
      <trkpt lat="44.36667" lon="6.40189">
        <ele>1967.2</ele>
        <time>2018-08-10T10:34:37Z</time>
      </trkpt>
      <trkpt lat="44.3667" lon="6.4019">
        <ele>1967.5</ele>
        <time>2018-08-10T10:34:39Z</time>
      </trkpt>
      <trkpt lat="44.36667" lon="6.40191">
        <ele>1967.8</ele>
        <time>2018-08-10T10:35:13Z</time>
      </trkpt>
      <trkpt lat="44.36669" lon="6.40192">
        <ele>1967.9</ele>
        <time>2018-08-10T10:40:40Z</time>
      </trkpt>
      <trkpt lat="44.3667" lon="6.40188">
        <ele>1968.1</ele>
        <time>2018-08-10T10:40:45Z</time>
      </trkpt>
      <trkpt lat="44.36676" lon="6.40186">
        <ele>1968.5</ele>
        <time>2018-08-10T10:42:36Z</time>
      </trkpt>
      <trkpt lat="44.36679" lon="6.40186">
        <ele>1968.6</ele>
        <time>2018-08-10T10:42:38Z</time>
      </trkpt>
      <trkpt lat="44.36683" lon="6.40187">
        <ele>1968.8</ele>
        <time>2018-08-10T10:42:43Z</time>
      </trkpt>
      <trkpt lat="44.36686" lon="6.4019">
        <ele>1969</ele>
        <time>2018-08-10T10:42:45Z</time>
      </trkpt>
      <trkpt lat="44.36689" lon="6.40191">
        <ele>1969.1</ele>
        <time>2018-08-10T10:42:49Z</time>
      </trkpt>
      <trkpt lat="44.36693" lon="6.40191">
        <ele>1969.3</ele>
        <time>2018-08-10T10:42:55Z</time>
      </trkpt>
      <trkpt lat="44.36696" lon="6.40191">
        <ele>1969.6</ele>
        <time>2018-08-10T10:42:59Z</time>
      </trkpt>
      <trkpt lat="44.36698" lon="6.40188">
        <ele>1969.9</ele>
        <time>2018-08-10T10:43:06Z</time>
      </trkpt>
      <trkpt lat="44.36701" lon="6.40189">
        <ele>1970.3</ele>
        <time>2018-08-10T10:43:09Z</time>
      </trkpt>
      <trkpt lat="44.36704" lon="6.40191">
        <ele>1970.5</ele>
        <time>2018-08-10T10:43:11Z</time>
      </trkpt>
      <trkpt lat="44.36706" lon="6.40193">
        <ele>1970.7</ele>
        <time>2018-08-10T10:43:17Z</time>
      </trkpt>
      <trkpt lat="44.3671" lon="6.40195">
        <ele>1971</ele>
        <time>2018-08-10T10:43:22Z</time>
      </trkpt>
      <trkpt lat="44.36713" lon="6.40196">
        <ele>1971.1</ele>
        <time>2018-08-10T10:43:24Z</time>
      </trkpt>
      <trkpt lat="44.36717" lon="6.40197">
        <ele>1971.3</ele>
        <time>2018-08-10T10:43:27Z</time>
      </trkpt>
      <trkpt lat="44.36719" lon="6.40199">
        <ele>1971.4</ele>
        <time>2018-08-10T10:43:30Z</time>
      </trkpt>
      <trkpt lat="44.36723" lon="6.40201">
        <ele>1971.5</ele>
        <time>2018-08-10T10:43:33Z</time>
      </trkpt>
      <trkpt lat="44.36725" lon="6.40203">
        <ele>1971.6</ele>
        <time>2018-08-10T10:43:36Z</time>
      </trkpt>
      <trkpt lat="44.36729" lon="6.40206">
        <ele>1971.6</ele>
        <time>2018-08-10T10:43:39Z</time>
      </trkpt>
      <trkpt lat="44.3673" lon="6.40209">
        <ele>1972.8</ele>
        <time>2018-08-10T10:43:42Z</time>
      </trkpt>
      <trkpt lat="44.36733" lon="6.40211">
        <ele>1974.2</ele>
        <time>2018-08-10T10:43:51Z</time>
      </trkpt>
      <trkpt lat="44.36735" lon="6.40214">
        <ele>1975.6</ele>
        <time>2018-08-10T10:43:54Z</time>
      </trkpt>
      <trkpt lat="44.36738" lon="6.40218">
        <ele>1976.5</ele>
        <time>2018-08-10T10:43:57Z</time>
      </trkpt>
      <trkpt lat="44.36741" lon="6.40222">
        <ele>1977.5</ele>
        <time>2018-08-10T10:44:01Z</time>
      </trkpt>
      <trkpt lat="44.36741" lon="6.40228">
        <ele>1978.7</ele>
        <time>2018-08-10T10:44:05Z</time>
      </trkpt>
      <trkpt lat="44.36741" lon="6.40232">
        <ele>1980</ele>
        <time>2018-08-10T10:44:24Z</time>
      </trkpt>
      <trkpt lat="44.3674" lon="6.40237">
        <ele>1981.4</ele>
        <time>2018-08-10T10:44:28Z</time>
      </trkpt>
      <trkpt lat="44.36741" lon="6.40241">
        <ele>1982.7</ele>
        <time>2018-08-10T10:44:33Z</time>
      </trkpt>
      <trkpt lat="44.3674" lon="6.40246">
        <ele>1984</ele>
        <time>2018-08-10T10:44:37Z</time>
      </trkpt>
      <trkpt lat="44.3674" lon="6.4025">
        <ele>1985.3</ele>
        <time>2018-08-10T10:44:40Z</time>
      </trkpt>
      <trkpt lat="44.36739" lon="6.40254">
        <ele>1986.4</ele>
        <time>2018-08-10T10:44:45Z</time>
      </trkpt>
      <trkpt lat="44.36739" lon="6.40259">
        <ele>1987.8</ele>
        <time>2018-08-10T10:44:49Z</time>
      </trkpt>
      <trkpt lat="44.36739" lon="6.40263">
        <ele>1989.3</ele>
        <time>2018-08-10T10:44:52Z</time>
      </trkpt>
      <trkpt lat="44.3674" lon="6.40268">
        <ele>1990.4</ele>
        <time>2018-08-10T10:44:56Z</time>
      </trkpt>
      <trkpt lat="44.3674" lon="6.40273">
        <ele>1991.3</ele>
        <time>2018-08-10T10:45:00Z</time>
      </trkpt>
      <trkpt lat="44.36741" lon="6.40277">
        <ele>1992</ele>
        <time>2018-08-10T10:45:03Z</time>
      </trkpt>
      <trkpt lat="44.36743" lon="6.40281">
        <ele>1993.3</ele>
        <time>2018-08-10T10:45:06Z</time>
      </trkpt>
      <trkpt lat="44.36744" lon="6.40285">
        <ele>1994.5</ele>
        <time>2018-08-10T10:45:09Z</time>
      </trkpt>
      <trkpt lat="44.36745" lon="6.40288">
        <ele>1995.7</ele>
        <time>2018-08-10T10:45:13Z</time>
      </trkpt>
      <trkpt lat="44.36745" lon="6.40293">
        <ele>1997.1</ele>
        <time>2018-08-10T10:45:17Z</time>
      </trkpt>
      <trkpt lat="44.36745" lon="6.40297">
        <ele>1998.5</ele>
        <time>2018-08-10T10:45:20Z</time>
      </trkpt>
      <trkpt lat="44.36746" lon="6.403">
        <ele>1999.8</ele>
        <time>2018-08-10T10:45:23Z</time>
      </trkpt>
      <trkpt lat="44.36748" lon="6.40302">
        <ele>2001</ele>
        <time>2018-08-10T10:45:27Z</time>
      </trkpt>
      <trkpt lat="44.36751" lon="6.40305">
        <ele>2001.2</ele>
        <time>2018-08-10T10:45:34Z</time>
      </trkpt>
      <trkpt lat="44.36752" lon="6.40308">
        <ele>2001.3</ele>
        <time>2018-08-10T10:45:38Z</time>
      </trkpt>
      <trkpt lat="44.36754" lon="6.40312">
        <ele>2001.4</ele>
        <time>2018-08-10T10:45:42Z</time>
      </trkpt>
      <trkpt lat="44.36756" lon="6.40315">
        <ele>2001.6</ele>
        <time>2018-08-10T10:45:46Z</time>
      </trkpt>
      <trkpt lat="44.36759" lon="6.40318">
        <ele>2001.8</ele>
        <time>2018-08-10T10:45:49Z</time>
      </trkpt>
      <trkpt lat="44.36763" lon="6.4032">
        <ele>2002.1</ele>
        <time>2018-08-10T10:45:52Z</time>
      </trkpt>
      <trkpt lat="44.36765" lon="6.40323">
        <ele>2002.4</ele>
        <time>2018-08-10T10:45:57Z</time>
      </trkpt>
      <trkpt lat="44.36767" lon="6.40326">
        <ele>2002.6</ele>
        <time>2018-08-10T10:46:02Z</time>
      </trkpt>
      <trkpt lat="44.36769" lon="6.40329">
        <ele>2002.8</ele>
        <time>2018-08-10T10:46:05Z</time>
      </trkpt>
      <trkpt lat="44.36771" lon="6.40332">
        <ele>2003.1</ele>
        <time>2018-08-10T10:46:08Z</time>
      </trkpt>
      <trkpt lat="44.36775" lon="6.40334">
        <ele>2003.6</ele>
        <time>2018-08-10T10:46:13Z</time>
      </trkpt>
      <trkpt lat="44.36778" lon="6.40337">
        <ele>2004</ele>
        <time>2018-08-10T10:46:16Z</time>
      </trkpt>
      <trkpt lat="44.36781" lon="6.4034">
        <ele>2004.4</ele>
        <time>2018-08-10T10:46:30Z</time>
      </trkpt>
      <trkpt lat="44.36783" lon="6.40342">
        <ele>2004.7</ele>
        <time>2018-08-10T10:46:34Z</time>
      </trkpt>
      <trkpt lat="44.36787" lon="6.40344">
        <ele>2005.2</ele>
        <time>2018-08-10T10:46:41Z</time>
      </trkpt>
      <trkpt lat="44.3679" lon="6.40347">
        <ele>2007.2</ele>
        <time>2018-08-10T10:46:44Z</time>
      </trkpt>
      <trkpt lat="44.36792" lon="6.40349">
        <ele>2009.3</ele>
        <time>2018-08-10T10:46:47Z</time>
      </trkpt>
      <trkpt lat="44.36794" lon="6.40352">
        <ele>2009.7</ele>
        <time>2018-08-10T10:46:50Z</time>
      </trkpt>
      <trkpt lat="44.36796" lon="6.40354">
        <ele>2011.7</ele>
        <time>2018-08-10T10:46:54Z</time>
      </trkpt>
      <trkpt lat="44.36799" lon="6.40357">
        <ele>2012</ele>
        <time>2018-08-10T10:46:59Z</time>
      </trkpt>
      <trkpt lat="44.36802" lon="6.40359">
        <ele>2014</ele>
        <time>2018-08-10T10:47:03Z</time>
      </trkpt>
      <trkpt lat="44.36801" lon="6.40355">
        <ele>2013.1</ele>
        <time>2018-08-10T10:47:50Z</time>
      </trkpt>
      <trkpt lat="44.36804" lon="6.40355">
        <ele>2013.4</ele>
        <time>2018-08-10T10:47:59Z</time>
      </trkpt>
      <trkpt lat="44.36806" lon="6.40358">
        <ele>2015.4</ele>
        <time>2018-08-10T10:48:04Z</time>
      </trkpt>
      <trkpt lat="44.36803" lon="6.40354">
        <ele>2014.5</ele>
        <time>2018-08-10T10:49:18Z</time>
      </trkpt>
      <trkpt lat="44.36804" lon="6.40358">
        <ele>2016.5</ele>
        <time>2018-08-10T10:49:28Z</time>
      </trkpt>
      <trkpt lat="44.36807" lon="6.40361">
        <ele>2017</ele>
        <time>2018-08-10T10:49:36Z</time>
      </trkpt>
      <trkpt lat="44.3681" lon="6.40362">
        <ele>2019</ele>
        <time>2018-08-10T10:49:40Z</time>
      </trkpt>
      <trkpt lat="44.36813" lon="6.40364">
        <ele>2019.4</ele>
        <time>2018-08-10T10:49:43Z</time>
      </trkpt>
      <trkpt lat="44.36815" lon="6.40366">
        <ele>2021.5</ele>
        <time>2018-08-10T10:49:47Z</time>
      </trkpt>
      <trkpt lat="44.36819" lon="6.40368">
        <ele>2021.9</ele>
        <time>2018-08-10T10:49:51Z</time>
      </trkpt>
      <trkpt lat="44.36822" lon="6.40368">
        <ele>2022.4</ele>
        <time>2018-08-10T10:49:56Z</time>
      </trkpt>
      <trkpt lat="44.36825" lon="6.40371">
        <ele>2024.7</ele>
        <time>2018-08-10T10:54:17Z</time>
      </trkpt>
      <trkpt lat="44.36828" lon="6.40373">
        <ele>2025.3</ele>
        <time>2018-08-10T10:54:20Z</time>
      </trkpt>
      <trkpt lat="44.36831" lon="6.40374">
        <ele>2027.6</ele>
        <time>2018-08-10T10:54:29Z</time>
      </trkpt>
      <trkpt lat="44.36834" lon="6.40377">
        <ele>2028.3</ele>
        <time>2018-08-10T10:54:34Z</time>
      </trkpt>
      <trkpt lat="44.36836" lon="6.40379">
        <ele>2030.7</ele>
        <time>2018-08-10T10:54:39Z</time>
      </trkpt>
      <trkpt lat="44.36839" lon="6.40379">
        <ele>2031.5</ele>
        <time>2018-08-10T10:54:45Z</time>
      </trkpt>
      <trkpt lat="44.36842" lon="6.40379">
        <ele>2032.3</ele>
        <time>2018-08-10T10:54:48Z</time>
      </trkpt>
      <trkpt lat="44.36845" lon="6.40381">
        <ele>2033.1</ele>
        <time>2018-08-10T10:54:53Z</time>
      </trkpt>
      <trkpt lat="44.36848" lon="6.4038">
        <ele>2034</ele>
        <time>2018-08-10T10:54:58Z</time>
      </trkpt>
      <trkpt lat="44.3685" lon="6.40382">
        <ele>2034.5</ele>
        <time>2018-08-10T10:55:03Z</time>
      </trkpt>
      <trkpt lat="44.36853" lon="6.40384">
        <ele>2033.9</ele>
        <time>2018-08-10T10:55:09Z</time>
      </trkpt>
      <trkpt lat="44.36856" lon="6.40384">
        <ele>2033.5</ele>
        <time>2018-08-10T10:55:16Z</time>
      </trkpt>
      <trkpt lat="44.36858" lon="6.40382">
        <ele>2033.1</ele>
        <time>2018-08-10T10:55:35Z</time>
      </trkpt>
      <trkpt lat="44.36861" lon="6.40383">
        <ele>2032.7</ele>
        <time>2018-08-10T10:55:41Z</time>
      </trkpt>
      <trkpt lat="44.36864" lon="6.40382">
        <ele>2032.3</ele>
        <time>2018-08-10T10:57:04Z</time>
      </trkpt>
      <trkpt lat="44.36866" lon="6.40379">
        <ele>2031.9</ele>
        <time>2018-08-10T10:57:17Z</time>
      </trkpt>
      <trkpt lat="44.3687" lon="6.40377">
        <ele>2031.1</ele>
        <time>2018-08-10T10:57:21Z</time>
      </trkpt>
      <trkpt lat="44.36872" lon="6.40376">
        <ele>2030.4</ele>
        <time>2018-08-10T10:57:30Z</time>
      </trkpt>
      <trkpt lat="44.36875" lon="6.40377">
        <ele>2029.7</ele>
        <time>2018-08-10T10:57:37Z</time>
      </trkpt>
      <trkpt lat="44.36878" lon="6.40375">
        <ele>2028.8</ele>
        <time>2018-08-10T10:57:41Z</time>
      </trkpt>
      <trkpt lat="44.36881" lon="6.40374">
        <ele>2028</ele>
        <time>2018-08-10T10:57:45Z</time>
      </trkpt>
      <trkpt lat="44.36884" lon="6.40374">
        <ele>2027.2</ele>
        <time>2018-08-10T10:57:49Z</time>
      </trkpt>
      <trkpt lat="44.36887" lon="6.40373">
        <ele>2027.3</ele>
        <time>2018-08-10T10:58:00Z</time>
      </trkpt>
      <trkpt lat="44.36889" lon="6.40371">
        <ele>2027.9</ele>
        <time>2018-08-10T10:58:05Z</time>
      </trkpt>
      <trkpt lat="44.36892" lon="6.4037">
        <ele>2028.5</ele>
        <time>2018-08-10T10:58:09Z</time>
      </trkpt>
      <trkpt lat="44.36896" lon="6.40371">
        <ele>2029.1</ele>
        <time>2018-08-10T10:58:15Z</time>
      </trkpt>
      <trkpt lat="44.36898" lon="6.40372">
        <ele>2029.6</ele>
        <time>2018-08-10T10:58:20Z</time>
      </trkpt>
      <trkpt lat="44.36901" lon="6.40373">
        <ele>2030.1</ele>
        <time>2018-08-10T10:58:26Z</time>
      </trkpt>
      <trkpt lat="44.36905" lon="6.40375">
        <ele>2032</ele>
        <time>2018-08-10T10:58:30Z</time>
      </trkpt>
      <trkpt lat="44.36909" lon="6.40377">
        <ele>2033.3</ele>
        <time>2018-08-10T10:58:36Z</time>
      </trkpt>
      <trkpt lat="44.36911" lon="6.40375">
        <ele>2033.3</ele>
        <time>2018-08-10T10:58:39Z</time>
      </trkpt>
      <trkpt lat="44.36914" lon="6.40378">
        <ele>2034.2</ele>
        <time>2018-08-10T10:58:44Z</time>
      </trkpt>
      <trkpt lat="44.36916" lon="6.40377">
        <ele>2035.1</ele>
        <time>2018-08-10T10:59:05Z</time>
      </trkpt>
      <trkpt lat="44.36919" lon="6.40375">
        <ele>2036.1</ele>
        <time>2018-08-10T10:59:08Z</time>
      </trkpt>
      <trkpt lat="44.36922" lon="6.40375">
        <ele>2037.1</ele>
        <time>2018-08-10T10:59:14Z</time>
      </trkpt>
      <trkpt lat="44.36926" lon="6.40377">
        <ele>2038</ele>
        <time>2018-08-10T10:59:18Z</time>
      </trkpt>
      <trkpt lat="44.36929" lon="6.40376">
        <ele>2039</ele>
        <time>2018-08-10T10:59:23Z</time>
      </trkpt>
      <trkpt lat="44.36932" lon="6.40375">
        <ele>2039.9</ele>
        <time>2018-08-10T10:59:28Z</time>
      </trkpt>
      <trkpt lat="44.36935" lon="6.40375">
        <ele>2041</ele>
        <time>2018-08-10T10:59:32Z</time>
      </trkpt>
      <trkpt lat="44.36938" lon="6.40375">
        <ele>2042.2</ele>
        <time>2018-08-10T10:59:36Z</time>
      </trkpt>
      <trkpt lat="44.36941" lon="6.40373">
        <ele>2042.2</ele>
        <time>2018-08-10T10:59:42Z</time>
      </trkpt>
      <trkpt lat="44.36944" lon="6.40372">
        <ele>2043.5</ele>
        <time>2018-08-10T10:59:45Z</time>
      </trkpt>
      <trkpt lat="44.36947" lon="6.40373">
        <ele>2044.9</ele>
        <time>2018-08-10T10:59:50Z</time>
      </trkpt>
      <trkpt lat="44.36949" lon="6.40374">
        <ele>2047.6</ele>
        <time>2018-08-10T10:59:52Z</time>
      </trkpt>
      <trkpt lat="44.36952" lon="6.40373">
        <ele>2047.8</ele>
        <time>2018-08-10T10:59:55Z</time>
      </trkpt>
      <trkpt lat="44.36955" lon="6.4037">
        <ele>2049.3</ele>
        <time>2018-08-10T11:00:23Z</time>
      </trkpt>
      <trkpt lat="44.36959" lon="6.40369">
        <ele>2049.5</ele>
        <time>2018-08-10T11:00:29Z</time>
      </trkpt>
      <trkpt lat="44.36961" lon="6.40366">
        <ele>2051.1</ele>
        <time>2018-08-10T11:00:31Z</time>
      </trkpt>
      <trkpt lat="44.36963" lon="6.40365">
        <ele>2049.9</ele>
        <time>2018-08-10T11:00:35Z</time>
      </trkpt>
      <trkpt lat="44.36966" lon="6.40363">
        <ele>2051.5</ele>
        <time>2018-08-10T11:00:37Z</time>
      </trkpt>
      <trkpt lat="44.36969" lon="6.4036">
        <ele>2052</ele>
        <time>2018-08-10T11:00:41Z</time>
      </trkpt>
      <trkpt lat="44.36972" lon="6.4036">
        <ele>2053.8</ele>
        <time>2018-08-10T11:00:44Z</time>
      </trkpt>
      <trkpt lat="44.36976" lon="6.40358">
        <ele>2055.7</ele>
        <time>2018-08-10T11:00:48Z</time>
      </trkpt>
      <trkpt lat="44.36979" lon="6.40358">
        <ele>2059.5</ele>
        <time>2018-08-10T11:00:51Z</time>
      </trkpt>
      <trkpt lat="44.36982" lon="6.40355">
        <ele>2058.4</ele>
        <time>2018-08-10T11:00:56Z</time>
      </trkpt>
      <trkpt lat="44.36985" lon="6.40353">
        <ele>2061.9</ele>
        <time>2018-08-10T11:00:59Z</time>
      </trkpt>
      <trkpt lat="44.36988" lon="6.40351">
        <ele>2060.8</ele>
        <time>2018-08-10T11:01:03Z</time>
      </trkpt>
      <trkpt lat="44.3699" lon="6.40348">
        <ele>2061.2</ele>
        <time>2018-08-10T11:01:08Z</time>
      </trkpt>
      <trkpt lat="44.36992" lon="6.40345">
        <ele>2062.9</ele>
        <time>2018-08-10T11:01:13Z</time>
      </trkpt>
      <trkpt lat="44.36995" lon="6.40344">
        <ele>2063.4</ele>
        <time>2018-08-10T11:01:22Z</time>
      </trkpt>
      <trkpt lat="44.36997" lon="6.40341">
        <ele>2063.5</ele>
        <time>2018-08-10T11:01:44Z</time>
      </trkpt>
      <trkpt lat="44.36998" lon="6.40338">
        <ele>2064.1</ele>
        <time>2018-08-10T11:01:49Z</time>
      </trkpt>
      <trkpt lat="44.37002" lon="6.40337">
        <ele>2066.1</ele>
        <time>2018-08-10T11:01:51Z</time>
      </trkpt>
      <trkpt lat="44.37003" lon="6.40333">
        <ele>2064.8</ele>
        <time>2018-08-10T11:01:56Z</time>
      </trkpt>
      <trkpt lat="44.37005" lon="6.4033">
        <ele>2065.3</ele>
        <time>2018-08-10T11:02:01Z</time>
      </trkpt>
      <trkpt lat="44.37008" lon="6.40328">
        <ele>2067.2</ele>
        <time>2018-08-10T11:02:07Z</time>
      </trkpt>
      <trkpt lat="44.3701" lon="6.40325">
        <ele>2065.9</ele>
        <time>2018-08-10T11:02:16Z</time>
      </trkpt>
      <trkpt lat="44.37012" lon="6.40323">
        <ele>2067.6</ele>
        <time>2018-08-10T11:02:28Z</time>
      </trkpt>
      <trkpt lat="44.37015" lon="6.40322">
        <ele>2068</ele>
        <time>2018-08-10T11:02:32Z</time>
      </trkpt>
      <trkpt lat="44.37018" lon="6.4032">
        <ele>2067.6</ele>
        <time>2018-08-10T11:02:36Z</time>
      </trkpt>
      <trkpt lat="44.3702" lon="6.40317">
        <ele>2068</ele>
        <time>2018-08-10T11:02:42Z</time>
      </trkpt>
      <trkpt lat="44.37023" lon="6.40315">
        <ele>2068.3</ele>
        <time>2018-08-10T11:02:48Z</time>
      </trkpt>
      <trkpt lat="44.37025" lon="6.40312">
        <ele>2068.2</ele>
        <time>2018-08-10T11:02:56Z</time>
      </trkpt>
      <trkpt lat="44.37027" lon="6.4031">
        <ele>2067.9</ele>
        <time>2018-08-10T11:03:00Z</time>
      </trkpt>
      <trkpt lat="44.3703" lon="6.40307">
        <ele>2067.6</ele>
        <time>2018-08-10T11:03:04Z</time>
      </trkpt>
      <trkpt lat="44.37032" lon="6.40303">
        <ele>2066.8</ele>
        <time>2018-08-10T11:03:08Z</time>
      </trkpt>
      <trkpt lat="44.37034" lon="6.40299">
        <ele>2066</ele>
        <time>2018-08-10T11:03:12Z</time>
      </trkpt>
      <trkpt lat="44.37034" lon="6.40295">
        <ele>2065.5</ele>
        <time>2018-08-10T11:03:16Z</time>
      </trkpt>
      <trkpt lat="44.37038" lon="6.4029">
        <ele>2065.1</ele>
        <time>2018-08-10T11:03:38Z</time>
      </trkpt>
      <trkpt lat="44.3704" lon="6.4029">
        <ele>2064.9</ele>
        <time>2018-08-10T11:03:41Z</time>
      </trkpt>
      <trkpt lat="44.37043" lon="6.40288">
        <ele>2064.2</ele>
        <time>2018-08-10T11:03:46Z</time>
      </trkpt>
      <trkpt lat="44.37046" lon="6.40285">
        <ele>2063.5</ele>
        <time>2018-08-10T11:03:51Z</time>
      </trkpt>
      <trkpt lat="44.37047" lon="6.40282">
        <ele>2062.8</ele>
        <time>2018-08-10T11:03:57Z</time>
      </trkpt>
      <trkpt lat="44.37049" lon="6.40279">
        <ele>2062.2</ele>
        <time>2018-08-10T11:04:07Z</time>
      </trkpt>
      <trkpt lat="44.37051" lon="6.40276">
        <ele>2061.7</ele>
        <time>2018-08-10T11:04:12Z</time>
      </trkpt>
      <trkpt lat="44.37052" lon="6.40272">
        <ele>2061.1</ele>
        <time>2018-08-10T11:04:16Z</time>
      </trkpt>
      <trkpt lat="44.37052" lon="6.40267">
        <ele>2060.2</ele>
        <time>2018-08-10T11:04:20Z</time>
      </trkpt>
      <trkpt lat="44.37053" lon="6.40263">
        <ele>2059.2</ele>
        <time>2018-08-10T11:04:24Z</time>
      </trkpt>
      <trkpt lat="44.37055" lon="6.4026">
        <ele>2058.4</ele>
        <time>2018-08-10T11:04:28Z</time>
      </trkpt>
      <trkpt lat="44.37056" lon="6.40256">
        <ele>2057.7</ele>
        <time>2018-08-10T11:04:32Z</time>
      </trkpt>
      <trkpt lat="44.37058" lon="6.40252">
        <ele>2057</ele>
        <time>2018-08-10T11:04:36Z</time>
      </trkpt>
      <trkpt lat="44.37058" lon="6.40248">
        <ele>2056.4</ele>
        <time>2018-08-10T11:04:40Z</time>
      </trkpt>
      <trkpt lat="44.3706" lon="6.40242">
        <ele>2055.4</ele>
        <time>2018-08-10T11:04:44Z</time>
      </trkpt>
      <trkpt lat="44.37062" lon="6.40236">
        <ele>2054.6</ele>
        <time>2018-08-10T11:04:50Z</time>
      </trkpt>
      <trkpt lat="44.37064" lon="6.40231">
        <ele>2054.3</ele>
        <time>2018-08-10T11:04:52Z</time>
      </trkpt>
      <trkpt lat="44.37065" lon="6.40224">
        <ele>2053.7</ele>
        <time>2018-08-10T11:04:54Z</time>
      </trkpt>
      <trkpt lat="44.37066" lon="6.40216">
        <ele>2052.6</ele>
        <time>2018-08-10T11:04:56Z</time>
      </trkpt>
      <trkpt lat="44.37067" lon="6.40213">
        <ele>2052.2</ele>
        <time>2018-08-10T11:04:57Z</time>
      </trkpt>
      <trkpt lat="44.37067" lon="6.40209">
        <ele>2051.9</ele>
        <time>2018-08-10T11:04:58Z</time>
      </trkpt>
      <trkpt lat="44.37068" lon="6.40205">
        <ele>2051.5</ele>
        <time>2018-08-10T11:04:59Z</time>
      </trkpt>
      <trkpt lat="44.3707" lon="6.40199">
        <ele>2050.5</ele>
        <time>2018-08-10T11:05:01Z</time>
      </trkpt>
      <trkpt lat="44.37072" lon="6.40194">
        <ele>2049.2</ele>
        <time>2018-08-10T11:05:03Z</time>
      </trkpt>
      <trkpt lat="44.37075" lon="6.4019">
        <ele>2047.8</ele>
        <time>2018-08-10T11:05:05Z</time>
      </trkpt>
      <trkpt lat="44.37077" lon="6.40188">
        <ele>2046.4</ele>
        <time>2018-08-10T11:05:09Z</time>
      </trkpt>
      <trkpt lat="44.37079" lon="6.40184">
        <ele>2044.8</ele>
        <time>2018-08-10T11:05:12Z</time>
      </trkpt>
      <trkpt lat="44.37079" lon="6.40177">
        <ele>2043.1</ele>
        <time>2018-08-10T11:05:14Z</time>
      </trkpt>
      <trkpt lat="44.37078" lon="6.40171">
        <ele>2041.6</ele>
        <time>2018-08-10T11:05:16Z</time>
      </trkpt>
      <trkpt lat="44.37077" lon="6.40165">
        <ele>2039.4</ele>
        <time>2018-08-10T11:05:18Z</time>
      </trkpt>
      <trkpt lat="44.37078" lon="6.40157">
        <ele>2036.2</ele>
        <time>2018-08-10T11:05:20Z</time>
      </trkpt>
      <trkpt lat="44.37077" lon="6.40152">
        <ele>2034.3</ele>
        <time>2018-08-10T11:05:21Z</time>
      </trkpt>
      <trkpt lat="44.37076" lon="6.40145">
        <ele>2031.4</ele>
        <time>2018-08-10T11:05:23Z</time>
      </trkpt>
      <trkpt lat="44.37075" lon="6.40141">
        <ele>2029.6</ele>
        <time>2018-08-10T11:05:24Z</time>
      </trkpt>
      <trkpt lat="44.37074" lon="6.40137">
        <ele>2028</ele>
        <time>2018-08-10T11:05:25Z</time>
      </trkpt>
      <trkpt lat="44.37073" lon="6.40133">
        <ele>2027.6</ele>
        <time>2018-08-10T11:05:27Z</time>
      </trkpt>
      <trkpt lat="44.37071" lon="6.40128">
        <ele>2027.2</ele>
        <time>2018-08-10T11:05:39Z</time>
      </trkpt>
      <trkpt lat="44.37071" lon="6.40123">
        <ele>2026.7</ele>
        <time>2018-08-10T11:05:41Z</time>
      </trkpt>
      <trkpt lat="44.37074" lon="6.40118">
        <ele>2025.9</ele>
        <time>2018-08-10T11:05:43Z</time>
      </trkpt>
      <trkpt lat="44.37075" lon="6.40113">
        <ele>2024.9</ele>
        <time>2018-08-10T11:05:45Z</time>
      </trkpt>
      <trkpt lat="44.37076" lon="6.40109">
        <ele>2023.8</ele>
        <time>2018-08-10T11:05:46Z</time>
      </trkpt>
      <trkpt lat="44.37078" lon="6.40105">
        <ele>2022.6</ele>
        <time>2018-08-10T11:05:47Z</time>
      </trkpt>
      <trkpt lat="44.37081" lon="6.40097">
        <ele>2022.1</ele>
        <time>2018-08-10T11:05:49Z</time>
      </trkpt>
      <trkpt lat="44.37087" lon="6.40085">
        <ele>2019.7</ele>
        <time>2018-08-10T11:05:52Z</time>
      </trkpt>
      <trkpt lat="44.37089" lon="6.40082">
        <ele>2018.7</ele>
        <time>2018-08-10T11:05:53Z</time>
      </trkpt>
      <trkpt lat="44.37092" lon="6.40076">
        <ele>2018.4</ele>
        <time>2018-08-10T11:05:55Z</time>
      </trkpt>
      <trkpt lat="44.37094" lon="6.40073">
        <ele>2018.2</ele>
        <time>2018-08-10T11:05:56Z</time>
      </trkpt>
      <trkpt lat="44.37097" lon="6.40067">
        <ele>2016.4</ele>
        <time>2018-08-10T11:05:58Z</time>
      </trkpt>
      <trkpt lat="44.37099" lon="6.40064">
        <ele>2015.5</ele>
        <time>2018-08-10T11:05:59Z</time>
      </trkpt>
      <trkpt lat="44.37101" lon="6.40061">
        <ele>2015</ele>
        <time>2018-08-10T11:06:00Z</time>
      </trkpt>
      <trkpt lat="44.37103" lon="6.40059">
        <ele>2014.7</ele>
        <time>2018-08-10T11:06:01Z</time>
      </trkpt>
      <trkpt lat="44.37105" lon="6.40055">
        <ele>2014.3</ele>
        <time>2018-08-10T11:06:02Z</time>
      </trkpt>
      <trkpt lat="44.37109" lon="6.40051">
        <ele>2013.4</ele>
        <time>2018-08-10T11:06:04Z</time>
      </trkpt>
      <trkpt lat="44.37113" lon="6.40048">
        <ele>2012.8</ele>
        <time>2018-08-10T11:06:06Z</time>
      </trkpt>
      <trkpt lat="44.37115" lon="6.40044">
        <ele>2011.6</ele>
        <time>2018-08-10T11:06:09Z</time>
      </trkpt>
      <trkpt lat="44.37117" lon="6.4004">
        <ele>2010.4</ele>
        <time>2018-08-10T11:06:11Z</time>
      </trkpt>
      <trkpt lat="44.37121" lon="6.40036">
        <ele>2009.3</ele>
        <time>2018-08-10T11:06:13Z</time>
      </trkpt>
      <trkpt lat="44.37123" lon="6.40033">
        <ele>2008.6</ele>
        <time>2018-08-10T11:06:14Z</time>
      </trkpt>
      <trkpt lat="44.37125" lon="6.40029">
        <ele>2007.7</ele>
        <time>2018-08-10T11:06:15Z</time>
      </trkpt>
      <trkpt lat="44.37128" lon="6.40026">
        <ele>2006.7</ele>
        <time>2018-08-10T11:06:16Z</time>
      </trkpt>
      <trkpt lat="44.3713" lon="6.40024">
        <ele>2006</ele>
        <time>2018-08-10T11:06:17Z</time>
      </trkpt>
      <trkpt lat="44.37133" lon="6.40022">
        <ele>2005.9</ele>
        <time>2018-08-10T11:06:18Z</time>
      </trkpt>
      <trkpt lat="44.37135" lon="6.40019">
        <ele>2005.8</ele>
        <time>2018-08-10T11:06:19Z</time>
      </trkpt>
      <trkpt lat="44.37138" lon="6.40017">
        <ele>2005.3</ele>
        <time>2018-08-10T11:06:20Z</time>
      </trkpt>
      <trkpt lat="44.3714" lon="6.40014">
        <ele>2004.5</ele>
        <time>2018-08-10T11:06:21Z</time>
      </trkpt>
      <trkpt lat="44.37142" lon="6.4001">
        <ele>2003.8</ele>
        <time>2018-08-10T11:06:22Z</time>
      </trkpt>
      <trkpt lat="44.37144" lon="6.40007">
        <ele>2003.2</ele>
        <time>2018-08-10T11:06:23Z</time>
      </trkpt>
      <trkpt lat="44.37147" lon="6.40004">
        <ele>2002.3</ele>
        <time>2018-08-10T11:06:25Z</time>
      </trkpt>
      <trkpt lat="44.3715" lon="6.40003">
        <ele>2002.2</ele>
        <time>2018-08-10T11:06:27Z</time>
      </trkpt>
      <trkpt lat="44.37153" lon="6.4">
        <ele>2002.3</ele>
        <time>2018-08-10T11:06:29Z</time>
      </trkpt>
      <trkpt lat="44.37155" lon="6.39997">
        <ele>2002.3</ele>
        <time>2018-08-10T11:06:30Z</time>
      </trkpt>
      <trkpt lat="44.3716" lon="6.39993">
        <ele>2001.4</ele>
        <time>2018-08-10T11:06:32Z</time>
      </trkpt>
      <trkpt lat="44.37162" lon="6.39991">
        <ele>2000.8</ele>
        <time>2018-08-10T11:06:33Z</time>
      </trkpt>
      <trkpt lat="44.37165" lon="6.39988">
        <ele>2000.2</ele>
        <time>2018-08-10T11:06:34Z</time>
      </trkpt>
      <trkpt lat="44.37168" lon="6.39985">
        <ele>1999.5</ele>
        <time>2018-08-10T11:06:35Z</time>
      </trkpt>
      <trkpt lat="44.37171" lon="6.39983">
        <ele>1999.4</ele>
        <time>2018-08-10T11:06:36Z</time>
      </trkpt>
      <trkpt lat="44.37173" lon="6.39981">
        <ele>1999.6</ele>
        <time>2018-08-10T11:06:37Z</time>
      </trkpt>
      <trkpt lat="44.37177" lon="6.39976">
        <ele>1999.4</ele>
        <time>2018-08-10T11:06:39Z</time>
      </trkpt>
      <trkpt lat="44.3718" lon="6.39972">
        <ele>1998.7</ele>
        <time>2018-08-10T11:06:40Z</time>
      </trkpt>
      <trkpt lat="44.37183" lon="6.39969">
        <ele>1998.2</ele>
        <time>2018-08-10T11:06:41Z</time>
      </trkpt>
      <trkpt lat="44.37186" lon="6.39967">
        <ele>1998</ele>
        <time>2018-08-10T11:06:42Z</time>
      </trkpt>
      <trkpt lat="44.37188" lon="6.39964">
        <ele>1997.9</ele>
        <time>2018-08-10T11:06:43Z</time>
      </trkpt>
      <trkpt lat="44.3719" lon="6.39961">
        <ele>1997.9</ele>
        <time>2018-08-10T11:06:44Z</time>
      </trkpt>
      <trkpt lat="44.37194" lon="6.39956">
        <ele>1998.1</ele>
        <time>2018-08-10T11:06:46Z</time>
      </trkpt>
      <trkpt lat="44.37196" lon="6.39953">
        <ele>1998.1</ele>
        <time>2018-08-10T11:06:47Z</time>
      </trkpt>
      <trkpt lat="44.37199" lon="6.39951">
        <ele>1997.7</ele>
        <time>2018-08-10T11:06:48Z</time>
      </trkpt>
      <trkpt lat="44.37201" lon="6.39948">
        <ele>1997.3</ele>
        <time>2018-08-10T11:06:49Z</time>
      </trkpt>
      <trkpt lat="44.37204" lon="6.39945">
        <ele>1996.8</ele>
        <time>2018-08-10T11:06:50Z</time>
      </trkpt>
      <trkpt lat="44.37208" lon="6.39943">
        <ele>1996.3</ele>
        <time>2018-08-10T11:06:51Z</time>
      </trkpt>
      <trkpt lat="44.37212" lon="6.3994">
        <ele>1995.7</ele>
        <time>2018-08-10T11:06:52Z</time>
      </trkpt>
      <trkpt lat="44.37215" lon="6.39936">
        <ele>1994.8</ele>
        <time>2018-08-10T11:06:53Z</time>
      </trkpt>
      <trkpt lat="44.37218" lon="6.39931">
        <ele>1993.9</ele>
        <time>2018-08-10T11:06:54Z</time>
      </trkpt>
      <trkpt lat="44.37222" lon="6.39929">
        <ele>1993.3</ele>
        <time>2018-08-10T11:06:55Z</time>
      </trkpt>
      <trkpt lat="44.37226" lon="6.39925">
        <ele>1992.8</ele>
        <time>2018-08-10T11:06:56Z</time>
      </trkpt>
      <trkpt lat="44.3723" lon="6.39921">
        <ele>1992.8</ele>
        <time>2018-08-10T11:06:57Z</time>
      </trkpt>
      <trkpt lat="44.37232" lon="6.39918">
        <ele>1992.8</ele>
        <time>2018-08-10T11:06:58Z</time>
      </trkpt>
      <trkpt lat="44.37235" lon="6.39915">
        <ele>1992.4</ele>
        <time>2018-08-10T11:06:59Z</time>
      </trkpt>
      <trkpt lat="44.37238" lon="6.39911">
        <ele>1991.6</ele>
        <time>2018-08-10T11:07:00Z</time>
      </trkpt>
      <trkpt lat="44.3724" lon="6.39908">
        <ele>1990.8</ele>
        <time>2018-08-10T11:07:01Z</time>
      </trkpt>
      <trkpt lat="44.37244" lon="6.39905">
        <ele>1989.9</ele>
        <time>2018-08-10T11:07:02Z</time>
      </trkpt>
      <trkpt lat="44.37246" lon="6.39902">
        <ele>1988.9</ele>
        <time>2018-08-10T11:07:03Z</time>
      </trkpt>
      <trkpt lat="44.3725" lon="6.39897">
        <ele>1988.1</ele>
        <time>2018-08-10T11:07:04Z</time>
      </trkpt>
      <trkpt lat="44.37253" lon="6.39893">
        <ele>1987.3</ele>
        <time>2018-08-10T11:07:05Z</time>
      </trkpt>
      <trkpt lat="44.37256" lon="6.39888">
        <ele>1987</ele>
        <time>2018-08-10T11:07:06Z</time>
      </trkpt>
      <trkpt lat="44.37259" lon="6.39884">
        <ele>1986.7</ele>
        <time>2018-08-10T11:07:07Z</time>
      </trkpt>
      <trkpt lat="44.37262" lon="6.39881">
        <ele>1986.4</ele>
        <time>2018-08-10T11:07:08Z</time>
      </trkpt>
      <trkpt lat="44.37266" lon="6.39878">
        <ele>1986.1</ele>
        <time>2018-08-10T11:07:09Z</time>
      </trkpt>
      <trkpt lat="44.37269" lon="6.39876">
        <ele>1985.7</ele>
        <time>2018-08-10T11:07:10Z</time>
      </trkpt>
      <trkpt lat="44.37273" lon="6.39873">
        <ele>1985.2</ele>
        <time>2018-08-10T11:07:11Z</time>
      </trkpt>
      <trkpt lat="44.37277" lon="6.39869">
        <ele>1984.7</ele>
        <time>2018-08-10T11:07:12Z</time>
      </trkpt>
      <trkpt lat="44.37281" lon="6.39865">
        <ele>1983.6</ele>
        <time>2018-08-10T11:07:13Z</time>
      </trkpt>
      <trkpt lat="44.37284" lon="6.39861">
        <ele>1982</ele>
        <time>2018-08-10T11:07:14Z</time>
      </trkpt>
      <trkpt lat="44.37287" lon="6.39859">
        <ele>1981.5</ele>
        <time>2018-08-10T11:07:15Z</time>
      </trkpt>
      <trkpt lat="44.3729" lon="6.39856">
        <ele>1981.5</ele>
        <time>2018-08-10T11:07:16Z</time>
      </trkpt>
      <trkpt lat="44.37293" lon="6.39853">
        <ele>1981.3</ele>
        <time>2018-08-10T11:07:17Z</time>
      </trkpt>
      <trkpt lat="44.37296" lon="6.39852">
        <ele>1981</ele>
        <time>2018-08-10T11:07:18Z</time>
      </trkpt>
      <trkpt lat="44.37299" lon="6.3985">
        <ele>1980.6</ele>
        <time>2018-08-10T11:07:19Z</time>
      </trkpt>
      <trkpt lat="44.37302" lon="6.39848">
        <ele>1980.2</ele>
        <time>2018-08-10T11:07:20Z</time>
      </trkpt>
      <trkpt lat="44.37305" lon="6.39846">
        <ele>1979.8</ele>
        <time>2018-08-10T11:07:21Z</time>
      </trkpt>
      <trkpt lat="44.37308" lon="6.39844">
        <ele>1979.4</ele>
        <time>2018-08-10T11:07:22Z</time>
      </trkpt>
      <trkpt lat="44.37311" lon="6.39843">
        <ele>1979.3</ele>
        <time>2018-08-10T11:07:23Z</time>
      </trkpt>
      <trkpt lat="44.37315" lon="6.39842">
        <ele>1979.2</ele>
        <time>2018-08-10T11:07:24Z</time>
      </trkpt>
      <trkpt lat="44.37319" lon="6.39842">
        <ele>1979.6</ele>
        <time>2018-08-10T11:07:25Z</time>
      </trkpt>
      <trkpt lat="44.37322" lon="6.39842">
        <ele>1980.1</ele>
        <time>2018-08-10T11:07:26Z</time>
      </trkpt>
      <trkpt lat="44.37325" lon="6.39842">
        <ele>1980</ele>
        <time>2018-08-10T11:07:27Z</time>
      </trkpt>
      <trkpt lat="44.37329" lon="6.39841">
        <ele>1979.5</ele>
        <time>2018-08-10T11:07:29Z</time>
      </trkpt>
      <trkpt lat="44.37333" lon="6.39842">
        <ele>1979</ele>
        <time>2018-08-10T11:07:31Z</time>
      </trkpt>
      <trkpt lat="44.37335" lon="6.3984">
        <ele>1978.5</ele>
        <time>2018-08-10T11:07:34Z</time>
      </trkpt>
      <trkpt lat="44.37339" lon="6.39837">
        <ele>1977.5</ele>
        <time>2018-08-10T11:07:37Z</time>
      </trkpt>
      <trkpt lat="44.37344" lon="6.39833">
        <ele>1975.6</ele>
        <time>2018-08-10T11:07:39Z</time>
      </trkpt>
      <trkpt lat="44.37347" lon="6.39829">
        <ele>1974.8</ele>
        <time>2018-08-10T11:07:41Z</time>
      </trkpt>
      <trkpt lat="44.37352" lon="6.39824">
        <ele>1974.5</ele>
        <time>2018-08-10T11:07:43Z</time>
      </trkpt>
      <trkpt lat="44.37355" lon="6.3982">
        <ele>1974.5</ele>
        <time>2018-08-10T11:07:45Z</time>
      </trkpt>
      <trkpt lat="44.3736" lon="6.3982">
        <ele>1974</ele>
        <time>2018-08-10T11:07:47Z</time>
      </trkpt>
      <trkpt lat="44.37363" lon="6.39816">
        <ele>1972.8</ele>
        <time>2018-08-10T11:07:49Z</time>
      </trkpt>
      <trkpt lat="44.37368" lon="6.39812">
        <ele>1971.8</ele>
        <time>2018-08-10T11:07:51Z</time>
      </trkpt>
      <trkpt lat="44.37371" lon="6.3981">
        <ele>1971.5</ele>
        <time>2018-08-10T11:07:52Z</time>
      </trkpt>
      <trkpt lat="44.37373" lon="6.39809">
        <ele>1971.3</ele>
        <time>2018-08-10T11:07:53Z</time>
      </trkpt>
      <trkpt lat="44.37376" lon="6.39808">
        <ele>1971</ele>
        <time>2018-08-10T11:07:54Z</time>
      </trkpt>
      <trkpt lat="44.37379" lon="6.39806">
        <ele>1970.6</ele>
        <time>2018-08-10T11:07:55Z</time>
      </trkpt>
      <trkpt lat="44.37382" lon="6.39803">
        <ele>1970.1</ele>
        <time>2018-08-10T11:07:56Z</time>
      </trkpt>
      <trkpt lat="44.37384" lon="6.398">
        <ele>1969.4</ele>
        <time>2018-08-10T11:07:57Z</time>
      </trkpt>
      <trkpt lat="44.37386" lon="6.39797">
        <ele>1968.6</ele>
        <time>2018-08-10T11:07:58Z</time>
      </trkpt>
      <trkpt lat="44.37389" lon="6.39794">
        <ele>1967.6</ele>
        <time>2018-08-10T11:07:59Z</time>
      </trkpt>
      <trkpt lat="44.37393" lon="6.39793">
        <ele>1966.5</ele>
        <time>2018-08-10T11:08:00Z</time>
      </trkpt>
      <trkpt lat="44.37396" lon="6.39791">
        <ele>1965.5</ele>
        <time>2018-08-10T11:08:01Z</time>
      </trkpt>
      <trkpt lat="44.37399" lon="6.3979">
        <ele>1965.2</ele>
        <time>2018-08-10T11:08:02Z</time>
      </trkpt>
      <trkpt lat="44.37402" lon="6.39789">
        <ele>1964.8</ele>
        <time>2018-08-10T11:08:03Z</time>
      </trkpt>
      <trkpt lat="44.37406" lon="6.39786">
        <ele>1964.1</ele>
        <time>2018-08-10T11:08:04Z</time>
      </trkpt>
      <trkpt lat="44.37408" lon="6.39784">
        <ele>1963</ele>
        <time>2018-08-10T11:08:05Z</time>
      </trkpt>
      <trkpt lat="44.37412" lon="6.39778">
        <ele>1964.4</ele>
        <time>2018-08-10T11:08:07Z</time>
      </trkpt>
      <trkpt lat="44.37414" lon="6.39775">
        <ele>1964.3</ele>
        <time>2018-08-10T11:08:08Z</time>
      </trkpt>
      <trkpt lat="44.37417" lon="6.3977">
        <ele>1965.3</ele>
        <time>2018-08-10T11:08:09Z</time>
      </trkpt>
      <trkpt lat="44.3742" lon="6.39766">
        <ele>1966.4</ele>
        <time>2018-08-10T11:08:10Z</time>
      </trkpt>
      <trkpt lat="44.37424" lon="6.39763">
        <ele>1968.5</ele>
        <time>2018-08-10T11:08:11Z</time>
      </trkpt>
      <trkpt lat="44.37427" lon="6.3976">
        <ele>1968.7</ele>
        <time>2018-08-10T11:08:12Z</time>
      </trkpt>
      <trkpt lat="44.3743" lon="6.39755">
        <ele>1969.7</ele>
        <time>2018-08-10T11:08:13Z</time>
      </trkpt>
      <trkpt lat="44.37432" lon="6.3975">
        <ele>1970.6</ele>
        <time>2018-08-10T11:08:14Z</time>
      </trkpt>
      <trkpt lat="44.37435" lon="6.39746">
        <ele>1971.6</ele>
        <time>2018-08-10T11:08:15Z</time>
      </trkpt>
      <trkpt lat="44.37439" lon="6.39743">
        <ele>1972.6</ele>
        <time>2018-08-10T11:08:16Z</time>
      </trkpt>
      <trkpt lat="44.37441" lon="6.3974">
        <ele>1975.2</ele>
        <time>2018-08-10T11:08:17Z</time>
      </trkpt>
      <trkpt lat="44.37444" lon="6.39737">
        <ele>1976.3</ele>
        <time>2018-08-10T11:08:18Z</time>
      </trkpt>
      <trkpt lat="44.37447" lon="6.39734">
        <ele>1977.4</ele>
        <time>2018-08-10T11:08:19Z</time>
      </trkpt>
      <trkpt lat="44.37449" lon="6.39733">
        <ele>1979.9</ele>
        <time>2018-08-10T11:08:20Z</time>
      </trkpt>
      <trkpt lat="44.37451" lon="6.39728">
        <ele>1980.1</ele>
        <time>2018-08-10T11:08:21Z</time>
      </trkpt>
      <trkpt lat="44.37452" lon="6.39725">
        <ele>1981.1</ele>
        <time>2018-08-10T11:08:22Z</time>
      </trkpt>
      <trkpt lat="44.37455" lon="6.39722">
        <ele>1983.5</ele>
        <time>2018-08-10T11:08:23Z</time>
      </trkpt>
      <trkpt lat="44.37458" lon="6.3972">
        <ele>1984.5</ele>
        <time>2018-08-10T11:08:24Z</time>
      </trkpt>
      <trkpt lat="44.3746" lon="6.39717">
        <ele>1984.8</ele>
        <time>2018-08-10T11:08:25Z</time>
      </trkpt>
      <trkpt lat="44.37463" lon="6.39714">
        <ele>1985.4</ele>
        <time>2018-08-10T11:08:26Z</time>
      </trkpt>
      <trkpt lat="44.37466" lon="6.39712">
        <ele>1986.4</ele>
        <time>2018-08-10T11:08:27Z</time>
      </trkpt>
      <trkpt lat="44.37469" lon="6.39711">
        <ele>1987.3</ele>
        <time>2018-08-10T11:08:28Z</time>
      </trkpt>
      <trkpt lat="44.37472" lon="6.39708">
        <ele>1987.9</ele>
        <time>2018-08-10T11:08:29Z</time>
      </trkpt>
      <trkpt lat="44.37474" lon="6.39705">
        <ele>1988.5</ele>
        <time>2018-08-10T11:08:30Z</time>
      </trkpt>
      <trkpt lat="44.37478" lon="6.39702">
        <ele>1989.2</ele>
        <time>2018-08-10T11:08:32Z</time>
      </trkpt>
      <trkpt lat="44.37481" lon="6.39703">
        <ele>1989.7</ele>
        <time>2018-08-10T11:08:38Z</time>
      </trkpt>
      <trkpt lat="44.37483" lon="6.39706">
        <ele>1990.2</ele>
        <time>2018-08-10T11:08:54Z</time>
      </trkpt>
      <trkpt lat="44.37486" lon="6.39707">
        <ele>1990.3</ele>
        <time>2018-08-10T11:08:56Z</time>
      </trkpt>
      <trkpt lat="44.37489" lon="6.39708">
        <ele>1990.3</ele>
        <time>2018-08-10T11:08:58Z</time>
      </trkpt>
      <trkpt lat="44.37491" lon="6.39707">
        <ele>1990.4</ele>
        <time>2018-08-10T11:09:00Z</time>
      </trkpt>
      <trkpt lat="44.37494" lon="6.39705">
        <ele>1990.5</ele>
        <time>2018-08-10T11:09:02Z</time>
      </trkpt>
      <trkpt lat="44.37496" lon="6.39701">
        <ele>1990.5</ele>
        <time>2018-08-10T11:09:05Z</time>
      </trkpt>
      <trkpt lat="44.375" lon="6.39699">
        <ele>1990.6</ele>
        <time>2018-08-10T11:09:08Z</time>
      </trkpt>
      <trkpt lat="44.37503" lon="6.39696">
        <ele>1991.2</ele>
        <time>2018-08-10T11:09:10Z</time>
      </trkpt>
      <trkpt lat="44.37506" lon="6.39695">
        <ele>1991.7</ele>
        <time>2018-08-10T11:09:12Z</time>
      </trkpt>
      <trkpt lat="44.37509" lon="6.39693">
        <ele>1991.9</ele>
        <time>2018-08-10T11:09:14Z</time>
      </trkpt>
      <trkpt lat="44.37512" lon="6.39691">
        <ele>1991.7</ele>
        <time>2018-08-10T11:09:16Z</time>
      </trkpt>
      <trkpt lat="44.37514" lon="6.3969">
        <ele>1991.5</ele>
        <time>2018-08-10T11:09:18Z</time>
      </trkpt>
      <trkpt lat="44.37517" lon="6.39688">
        <ele>1991.3</ele>
        <time>2018-08-10T11:09:20Z</time>
      </trkpt>
      <trkpt lat="44.37521" lon="6.39689">
        <ele>1991.3</ele>
        <time>2018-08-10T11:09:24Z</time>
      </trkpt>
      <trkpt lat="44.37525" lon="6.39689">
        <ele>1991.3</ele>
        <time>2018-08-10T11:09:27Z</time>
      </trkpt>
      <trkpt lat="44.37528" lon="6.39688">
        <ele>1991.7</ele>
        <time>2018-08-10T11:09:29Z</time>
      </trkpt>
      <trkpt lat="44.37532" lon="6.3969">
        <ele>1992.4</ele>
        <time>2018-08-10T11:09:31Z</time>
      </trkpt>
      <trkpt lat="44.37534" lon="6.3969">
        <ele>1992.7</ele>
        <time>2018-08-10T11:09:33Z</time>
      </trkpt>
      <trkpt lat="44.37538" lon="6.3969">
        <ele>1992.6</ele>
        <time>2018-08-10T11:09:35Z</time>
      </trkpt>
      <trkpt lat="44.37541" lon="6.3969">
        <ele>1992.4</ele>
        <time>2018-08-10T11:09:38Z</time>
      </trkpt>
      <trkpt lat="44.37544" lon="6.39687">
        <ele>1992.4</ele>
        <time>2018-08-10T11:09:41Z</time>
      </trkpt>
      <trkpt lat="44.37547" lon="6.39689">
        <ele>1992.7</ele>
        <time>2018-08-10T11:09:43Z</time>
      </trkpt>
      <trkpt lat="44.3755" lon="6.39688">
        <ele>1992.9</ele>
        <time>2018-08-10T11:09:46Z</time>
      </trkpt>
      <trkpt lat="44.37553" lon="6.39687">
        <ele>1993.3</ele>
        <time>2018-08-10T11:09:48Z</time>
      </trkpt>
      <trkpt lat="44.37556" lon="6.39685">
        <ele>1993.7</ele>
        <time>2018-08-10T11:09:51Z</time>
      </trkpt>
      <trkpt lat="44.37559" lon="6.39684">
        <ele>1994.2</ele>
        <time>2018-08-10T11:09:53Z</time>
      </trkpt>
      <trkpt lat="44.37563" lon="6.39682">
        <ele>1993.9</ele>
        <time>2018-08-10T11:09:56Z</time>
      </trkpt>
      <trkpt lat="44.37566" lon="6.3968">
        <ele>1993.6</ele>
        <time>2018-08-10T11:09:58Z</time>
      </trkpt>
      <trkpt lat="44.37569" lon="6.39678">
        <ele>1993.4</ele>
        <time>2018-08-10T11:10:01Z</time>
      </trkpt>
      <trkpt lat="44.37572" lon="6.39678">
        <ele>1993.7</ele>
        <time>2018-08-10T11:10:04Z</time>
      </trkpt>
      <trkpt lat="44.37575" lon="6.39679">
        <ele>1993.8</ele>
        <time>2018-08-10T11:10:06Z</time>
      </trkpt>
      <trkpt lat="44.37579" lon="6.39679">
        <ele>1994.1</ele>
        <time>2018-08-10T11:10:08Z</time>
      </trkpt>
      <trkpt lat="44.37583" lon="6.39679">
        <ele>1994.6</ele>
        <time>2018-08-10T11:10:11Z</time>
      </trkpt>
      <trkpt lat="44.37587" lon="6.39678">
        <ele>1995</ele>
        <time>2018-08-10T11:10:13Z</time>
      </trkpt>
      <trkpt lat="44.3759" lon="6.39677">
        <ele>1995.3</ele>
        <time>2018-08-10T11:10:15Z</time>
      </trkpt>
      <trkpt lat="44.37593" lon="6.39676">
        <ele>1995.7</ele>
        <time>2018-08-10T11:10:18Z</time>
      </trkpt>
      <trkpt lat="44.37596" lon="6.39674">
        <ele>1995.6</ele>
        <time>2018-08-10T11:10:20Z</time>
      </trkpt>
      <trkpt lat="44.376" lon="6.39672">
        <ele>1995.1</ele>
        <time>2018-08-10T11:10:23Z</time>
      </trkpt>
      <trkpt lat="44.37603" lon="6.39671">
        <ele>1994.8</ele>
        <time>2018-08-10T11:10:25Z</time>
      </trkpt>
      <trkpt lat="44.37606" lon="6.39668">
        <ele>1995</ele>
        <time>2018-08-10T11:10:28Z</time>
      </trkpt>
      <trkpt lat="44.37608" lon="6.39665">
        <ele>1995.2</ele>
        <time>2018-08-10T11:10:31Z</time>
      </trkpt>
      <trkpt lat="44.37612" lon="6.39663">
        <ele>1995.6</ele>
        <time>2018-08-10T11:10:34Z</time>
      </trkpt>
      <trkpt lat="44.37616" lon="6.39664">
        <ele>1996</ele>
        <time>2018-08-10T11:10:36Z</time>
      </trkpt>
      <trkpt lat="44.37619" lon="6.39664">
        <ele>1996.4</ele>
        <time>2018-08-10T11:10:38Z</time>
      </trkpt>
      <trkpt lat="44.37622" lon="6.39664">
        <ele>1996.1</ele>
        <time>2018-08-10T11:10:40Z</time>
      </trkpt>
      <trkpt lat="44.37626" lon="6.39662">
        <ele>1995.6</ele>
        <time>2018-08-10T11:10:43Z</time>
      </trkpt>
      <trkpt lat="44.37629" lon="6.39661">
        <ele>1995.4</ele>
        <time>2018-08-10T11:10:46Z</time>
      </trkpt>
      <trkpt lat="44.37633" lon="6.39661">
        <ele>1995.9</ele>
        <time>2018-08-10T11:10:49Z</time>
      </trkpt>
      <trkpt lat="44.37636" lon="6.39659">
        <ele>1996.2</ele>
        <time>2018-08-10T11:10:52Z</time>
      </trkpt>
      <trkpt lat="44.37639" lon="6.39658">
        <ele>1996.6</ele>
        <time>2018-08-10T11:10:54Z</time>
      </trkpt>
      <trkpt lat="44.37643" lon="6.39657">
        <ele>1997</ele>
        <time>2018-08-10T11:10:56Z</time>
      </trkpt>
      <trkpt lat="44.37647" lon="6.39658">
        <ele>1997.4</ele>
        <time>2018-08-10T11:10:59Z</time>
      </trkpt>
      <trkpt lat="44.3765" lon="6.39657">
        <ele>1997.6</ele>
        <time>2018-08-10T11:11:01Z</time>
      </trkpt>
      <trkpt lat="44.37653" lon="6.39656">
        <ele>1997.8</ele>
        <time>2018-08-10T11:11:03Z</time>
      </trkpt>
      <trkpt lat="44.37657" lon="6.39659">
        <ele>1998.2</ele>
        <time>2018-08-10T11:11:05Z</time>
      </trkpt>
      <trkpt lat="44.3766" lon="6.39659">
        <ele>1998.6</ele>
        <time>2018-08-10T11:11:08Z</time>
      </trkpt>
      <trkpt lat="44.37662" lon="6.39659">
        <ele>1999</ele>
        <time>2018-08-10T11:11:11Z</time>
      </trkpt>
      <trkpt lat="44.37666" lon="6.39662">
        <ele>1999.5</ele>
        <time>2018-08-10T11:11:14Z</time>
      </trkpt>
      <trkpt lat="44.37668" lon="6.39664">
        <ele>2000</ele>
        <time>2018-08-10T11:11:16Z</time>
      </trkpt>
      <trkpt lat="44.37672" lon="6.39666">
        <ele>2000.6</ele>
        <time>2018-08-10T11:11:20Z</time>
      </trkpt>
      <trkpt lat="44.37674" lon="6.39667">
        <ele>2001.5</ele>
        <time>2018-08-10T11:11:22Z</time>
      </trkpt>
      <trkpt lat="44.37678" lon="6.39668">
        <ele>2002.8</ele>
        <time>2018-08-10T11:11:25Z</time>
      </trkpt>
      <trkpt lat="44.37682" lon="6.3967">
        <ele>2004.2</ele>
        <time>2018-08-10T11:11:28Z</time>
      </trkpt>
      <trkpt lat="44.37684" lon="6.39673">
        <ele>2004.9</ele>
        <time>2018-08-10T11:11:30Z</time>
      </trkpt>
      <trkpt lat="44.37687" lon="6.39673">
        <ele>2005.8</ele>
        <time>2018-08-10T11:11:32Z</time>
      </trkpt>
      <trkpt lat="44.3769" lon="6.39675">
        <ele>2006.2</ele>
        <time>2018-08-10T11:11:36Z</time>
      </trkpt>
      <trkpt lat="44.37692" lon="6.39677">
        <ele>2006.3</ele>
        <time>2018-08-10T11:11:37Z</time>
      </trkpt>
      <trkpt lat="44.37695" lon="6.39679">
        <ele>2006.5</ele>
        <time>2018-08-10T11:11:39Z</time>
      </trkpt>
      <trkpt lat="44.37698" lon="6.3968">
        <ele>2007.4</ele>
        <time>2018-08-10T11:11:41Z</time>
      </trkpt>
      <trkpt lat="44.37702" lon="6.3968">
        <ele>2008.5</ele>
        <time>2018-08-10T11:11:44Z</time>
      </trkpt>
      <trkpt lat="44.37705" lon="6.39681">
        <ele>2009.5</ele>
        <time>2018-08-10T11:11:46Z</time>
      </trkpt>
      <trkpt lat="44.3771" lon="6.39682">
        <ele>2010.6</ele>
        <time>2018-08-10T11:11:49Z</time>
      </trkpt>
      <trkpt lat="44.37713" lon="6.39684">
        <ele>2011.2</ele>
        <time>2018-08-10T11:11:51Z</time>
      </trkpt>
      <trkpt lat="44.37716" lon="6.39687">
        <ele>2011.6</ele>
        <time>2018-08-10T11:11:54Z</time>
      </trkpt>
      <trkpt lat="44.37719" lon="6.39689">
        <ele>2011.9</ele>
        <time>2018-08-10T11:11:57Z</time>
      </trkpt>
      <trkpt lat="44.37721" lon="6.3969">
        <ele>2012.7</ele>
        <time>2018-08-10T11:11:59Z</time>
      </trkpt>
      <trkpt lat="44.37725" lon="6.39691">
        <ele>2013.7</ele>
        <time>2018-08-10T11:12:02Z</time>
      </trkpt>
      <trkpt lat="44.37728" lon="6.39694">
        <ele>2014.8</ele>
        <time>2018-08-10T11:12:05Z</time>
      </trkpt>
      <trkpt lat="44.37731" lon="6.39694">
        <ele>2016.1</ele>
        <time>2018-08-10T11:12:08Z</time>
      </trkpt>
      <trkpt lat="44.37734" lon="6.39695">
        <ele>2017.3</ele>
        <time>2018-08-10T11:12:10Z</time>
      </trkpt>
      <trkpt lat="44.37737" lon="6.39696">
        <ele>2018</ele>
        <time>2018-08-10T11:12:12Z</time>
      </trkpt>
      <trkpt lat="44.37741" lon="6.39696">
        <ele>2018.6</ele>
        <time>2018-08-10T11:12:16Z</time>
      </trkpt>
      <trkpt lat="44.37745" lon="6.39698">
        <ele>2019.2</ele>
        <time>2018-08-10T11:12:18Z</time>
      </trkpt>
      <trkpt lat="44.37749" lon="6.39697">
        <ele>2019.7</ele>
        <time>2018-08-10T11:12:21Z</time>
      </trkpt>
      <trkpt lat="44.37752" lon="6.39696">
        <ele>2020.1</ele>
        <time>2018-08-10T11:12:23Z</time>
      </trkpt>
      <trkpt lat="44.37755" lon="6.39695">
        <ele>2020.9</ele>
        <time>2018-08-10T11:12:25Z</time>
      </trkpt>
      <trkpt lat="44.37758" lon="6.39693">
        <ele>2021.1</ele>
        <time>2018-08-10T11:12:27Z</time>
      </trkpt>
      <trkpt lat="44.37762" lon="6.39692">
        <ele>2020.2</ele>
        <time>2018-08-10T11:12:30Z</time>
      </trkpt>
      <trkpt lat="44.37765" lon="6.3969">
        <ele>2019.9</ele>
        <time>2018-08-10T11:12:33Z</time>
      </trkpt>
      <trkpt lat="44.37769" lon="6.39688">
        <ele>2019.7</ele>
        <time>2018-08-10T11:12:35Z</time>
      </trkpt>
      <trkpt lat="44.3777" lon="6.39684">
        <ele>2019.1</ele>
        <time>2018-08-10T11:12:38Z</time>
      </trkpt>
      <trkpt lat="44.37772" lon="6.39681">
        <ele>2018.3</ele>
        <time>2018-08-10T11:12:41Z</time>
      </trkpt>
      <trkpt lat="44.37774" lon="6.39678">
        <ele>2017.6</ele>
        <time>2018-08-10T11:12:43Z</time>
      </trkpt>
      <trkpt lat="44.37776" lon="6.39674">
        <ele>2017.2</ele>
        <time>2018-08-10T11:12:46Z</time>
      </trkpt>
      <trkpt lat="44.37779" lon="6.3967">
        <ele>2016.9</ele>
        <time>2018-08-10T11:12:49Z</time>
      </trkpt>
      <trkpt lat="44.37783" lon="6.39667">
        <ele>2016.1</ele>
        <time>2018-08-10T11:12:52Z</time>
      </trkpt>
      <trkpt lat="44.37785" lon="6.39663">
        <ele>2015.1</ele>
        <time>2018-08-10T11:12:55Z</time>
      </trkpt>
      <trkpt lat="44.37788" lon="6.3966">
        <ele>2014</ele>
        <time>2018-08-10T11:12:58Z</time>
      </trkpt>
      <trkpt lat="44.37789" lon="6.39656">
        <ele>2013.1</ele>
        <time>2018-08-10T11:13:00Z</time>
      </trkpt>
      <trkpt lat="44.3779" lon="6.39652">
        <ele>2012.2</ele>
        <time>2018-08-10T11:13:03Z</time>
      </trkpt>
      <trkpt lat="44.37791" lon="6.39648">
        <ele>2011.7</ele>
        <time>2018-08-10T11:13:05Z</time>
      </trkpt>
      <trkpt lat="44.37792" lon="6.39643">
        <ele>2011.4</ele>
        <time>2018-08-10T11:13:08Z</time>
      </trkpt>
      <trkpt lat="44.37793" lon="6.39638">
        <ele>2011</ele>
        <time>2018-08-10T11:13:11Z</time>
      </trkpt>
      <trkpt lat="44.37795" lon="6.39635">
        <ele>2011</ele>
        <time>2018-08-10T11:13:14Z</time>
      </trkpt>
      <trkpt lat="44.37799" lon="6.39633">
        <ele>2011</ele>
        <time>2018-08-10T11:13:17Z</time>
      </trkpt>
      <trkpt lat="44.37803" lon="6.39634">
        <ele>2011.7</ele>
        <time>2018-08-10T11:13:20Z</time>
      </trkpt>
      <trkpt lat="44.37806" lon="6.39637">
        <ele>2012.7</ele>
        <time>2018-08-10T11:13:23Z</time>
      </trkpt>
      <trkpt lat="44.37809" lon="6.3964">
        <ele>2013.2</ele>
        <time>2018-08-10T11:13:26Z</time>
      </trkpt>
      <trkpt lat="44.37812" lon="6.39641">
        <ele>2013.4</ele>
        <time>2018-08-10T11:13:28Z</time>
      </trkpt>
      <trkpt lat="44.37815" lon="6.39641">
        <ele>2013.7</ele>
        <time>2018-08-10T11:13:30Z</time>
      </trkpt>
      <trkpt lat="44.37818" lon="6.39641">
        <ele>2014.5</ele>
        <time>2018-08-10T11:13:34Z</time>
      </trkpt>
      <trkpt lat="44.37822" lon="6.3964">
        <ele>2015.5</ele>
        <time>2018-08-10T11:13:37Z</time>
      </trkpt>
      <trkpt lat="44.37825" lon="6.39639">
        <ele>2015.8</ele>
        <time>2018-08-10T11:13:40Z</time>
      </trkpt>
      <trkpt lat="44.37829" lon="6.39641">
        <ele>2015.9</ele>
        <time>2018-08-10T11:13:43Z</time>
      </trkpt>
      <trkpt lat="44.37832" lon="6.39643">
        <ele>2016.3</ele>
        <time>2018-08-10T11:13:45Z</time>
      </trkpt>
      <trkpt lat="44.37834" lon="6.39646">
        <ele>2017</ele>
        <time>2018-08-10T11:13:47Z</time>
      </trkpt>
      <trkpt lat="44.37837" lon="6.39649">
        <ele>2018.1</ele>
        <time>2018-08-10T11:13:51Z</time>
      </trkpt>
      <trkpt lat="44.37839" lon="6.39653">
        <ele>2019.6</ele>
        <time>2018-08-10T11:13:53Z</time>
      </trkpt>
      <trkpt lat="44.37841" lon="6.39658">
        <ele>2021.1</ele>
        <time>2018-08-10T11:13:56Z</time>
      </trkpt>
      <trkpt lat="44.37842" lon="6.39662">
        <ele>2022.6</ele>
        <time>2018-08-10T11:13:59Z</time>
      </trkpt>
      <trkpt lat="44.37844" lon="6.39666">
        <ele>2023.9</ele>
        <time>2018-08-10T11:14:01Z</time>
      </trkpt>
      <trkpt lat="44.37845" lon="6.3967">
        <ele>2025.1</ele>
        <time>2018-08-10T11:14:03Z</time>
      </trkpt>
      <trkpt lat="44.37845" lon="6.39674">
        <ele>2025.9</ele>
        <time>2018-08-10T11:14:05Z</time>
      </trkpt>
      <trkpt lat="44.37847" lon="6.39677">
        <ele>2026.4</ele>
        <time>2018-08-10T11:14:08Z</time>
      </trkpt>
      <trkpt lat="44.37849" lon="6.39681">
        <ele>2026.9</ele>
        <time>2018-08-10T11:14:11Z</time>
      </trkpt>
      <trkpt lat="44.37852" lon="6.39684">
        <ele>2028.1</ele>
        <time>2018-08-10T11:14:14Z</time>
      </trkpt>
      <trkpt lat="44.37853" lon="6.39688">
        <ele>2029.4</ele>
        <time>2018-08-10T11:14:16Z</time>
      </trkpt>
      <trkpt lat="44.37857" lon="6.39689">
        <ele>2030.9</ele>
        <time>2018-08-10T11:14:19Z</time>
      </trkpt>
      <trkpt lat="44.3786" lon="6.39692">
        <ele>2032.4</ele>
        <time>2018-08-10T11:14:22Z</time>
      </trkpt>
      <trkpt lat="44.37862" lon="6.39695">
        <ele>2033.8</ele>
        <time>2018-08-10T11:14:24Z</time>
      </trkpt>
      <trkpt lat="44.37864" lon="6.39697">
        <ele>2035</ele>
        <time>2018-08-10T11:14:26Z</time>
      </trkpt>
      <trkpt lat="44.37866" lon="6.397">
        <ele>2035.7</ele>
        <time>2018-08-10T11:14:28Z</time>
      </trkpt>
      <trkpt lat="44.37869" lon="6.39702">
        <ele>2036.4</ele>
        <time>2018-08-10T11:14:31Z</time>
      </trkpt>
      <trkpt lat="44.37872" lon="6.39705">
        <ele>2037.1</ele>
        <time>2018-08-10T11:14:34Z</time>
      </trkpt>
      <trkpt lat="44.37875" lon="6.39705">
        <ele>2037.5</ele>
        <time>2018-08-10T11:14:36Z</time>
      </trkpt>
      <trkpt lat="44.37878" lon="6.39705">
        <ele>2038</ele>
        <time>2018-08-10T11:14:38Z</time>
      </trkpt>
      <trkpt lat="44.37881" lon="6.39704">
        <ele>2038.6</ele>
        <time>2018-08-10T11:14:40Z</time>
      </trkpt>
      <trkpt lat="44.37884" lon="6.39704">
        <ele>2039.1</ele>
        <time>2018-08-10T11:14:42Z</time>
      </trkpt>
      <trkpt lat="44.37887" lon="6.39704">
        <ele>2039.8</ele>
        <time>2018-08-10T11:14:45Z</time>
      </trkpt>
      <trkpt lat="44.37891" lon="6.39704">
        <ele>2040.4</ele>
        <time>2018-08-10T11:14:48Z</time>
      </trkpt>
      <trkpt lat="44.37893" lon="6.39706">
        <ele>2040.8</ele>
        <time>2018-08-10T11:14:50Z</time>
      </trkpt>
      <trkpt lat="44.37896" lon="6.39708">
        <ele>2040.8</ele>
        <time>2018-08-10T11:14:53Z</time>
      </trkpt>
      <trkpt lat="44.37898" lon="6.39711">
        <ele>2040.4</ele>
        <time>2018-08-10T11:14:55Z</time>
      </trkpt>
      <trkpt lat="44.37901" lon="6.39713">
        <ele>2040</ele>
        <time>2018-08-10T11:14:57Z</time>
      </trkpt>
      <trkpt lat="44.37904" lon="6.39715">
        <ele>2040.2</ele>
        <time>2018-08-10T11:15:00Z</time>
      </trkpt>
      <trkpt lat="44.37907" lon="6.39716">
        <ele>2040.7</ele>
        <time>2018-08-10T11:15:02Z</time>
      </trkpt>
      <trkpt lat="44.37911" lon="6.39717">
        <ele>2041.4</ele>
        <time>2018-08-10T11:15:05Z</time>
      </trkpt>
      <trkpt lat="44.37914" lon="6.39718">
        <ele>2040.9</ele>
        <time>2018-08-10T11:15:07Z</time>
      </trkpt>
      <trkpt lat="44.37918" lon="6.39717">
        <ele>2040.2</ele>
        <time>2018-08-10T11:15:10Z</time>
      </trkpt>
      <trkpt lat="44.37921" lon="6.39716">
        <ele>2040</ele>
        <time>2018-08-10T11:15:13Z</time>
      </trkpt>
      <trkpt lat="44.37924" lon="6.39715">
        <ele>2040.3</ele>
        <time>2018-08-10T11:15:16Z</time>
      </trkpt>
      <trkpt lat="44.37927" lon="6.39713">
        <ele>2040.6</ele>
        <time>2018-08-10T11:15:18Z</time>
      </trkpt>
      <trkpt lat="44.37931" lon="6.39712">
        <ele>2040.3</ele>
        <time>2018-08-10T11:15:21Z</time>
      </trkpt>
      <trkpt lat="44.37934" lon="6.39714">
        <ele>2039.7</ele>
        <time>2018-08-10T11:15:23Z</time>
      </trkpt>
      <trkpt lat="44.37937" lon="6.39717">
        <ele>2038.9</ele>
        <time>2018-08-10T11:15:26Z</time>
      </trkpt>
      <trkpt lat="44.3794" lon="6.39719">
        <ele>2040.3</ele>
        <time>2018-08-10T11:15:28Z</time>
      </trkpt>
      <trkpt lat="44.37943" lon="6.39721">
        <ele>2042</ele>
        <time>2018-08-10T11:15:30Z</time>
      </trkpt>
      <trkpt lat="44.37946" lon="6.39724">
        <ele>2043.2</ele>
        <time>2018-08-10T11:15:33Z</time>
      </trkpt>
      <trkpt lat="44.37949" lon="6.39726">
        <ele>2044.1</ele>
        <time>2018-08-10T11:15:35Z</time>
      </trkpt>
      <trkpt lat="44.37952" lon="6.39729">
        <ele>2044.7</ele>
        <time>2018-08-10T11:15:37Z</time>
      </trkpt>
      <trkpt lat="44.37954" lon="6.39731">
        <ele>2045.3</ele>
        <time>2018-08-10T11:15:39Z</time>
      </trkpt>
      <trkpt lat="44.37957" lon="6.39733">
        <ele>2045.8</ele>
        <time>2018-08-10T11:15:41Z</time>
      </trkpt>
      <trkpt lat="44.37959" lon="6.39736">
        <ele>2046.2</ele>
        <time>2018-08-10T11:15:43Z</time>
      </trkpt>
      <trkpt lat="44.37961" lon="6.39739">
        <ele>2046.7</ele>
        <time>2018-08-10T11:15:45Z</time>
      </trkpt>
      <trkpt lat="44.37963" lon="6.39741">
        <ele>2047.6</ele>
        <time>2018-08-10T11:15:47Z</time>
      </trkpt>
      <trkpt lat="44.37966" lon="6.39745">
        <ele>2048.9</ele>
        <time>2018-08-10T11:15:50Z</time>
      </trkpt>
      <trkpt lat="44.37969" lon="6.39748">
        <ele>2049.8</ele>
        <time>2018-08-10T11:15:53Z</time>
      </trkpt>
      <trkpt lat="44.37971" lon="6.3975">
        <ele>2050.2</ele>
        <time>2018-08-10T11:15:55Z</time>
      </trkpt>
      <trkpt lat="44.37974" lon="6.39752">
        <ele>2050.6</ele>
        <time>2018-08-10T11:15:57Z</time>
      </trkpt>
      <trkpt lat="44.37976" lon="6.39753">
        <ele>2050.9</ele>
        <time>2018-08-10T11:15:59Z</time>
      </trkpt>
      <trkpt lat="44.3798" lon="6.39755">
        <ele>2051.1</ele>
        <time>2018-08-10T11:16:02Z</time>
      </trkpt>
      <trkpt lat="44.37984" lon="6.39758">
        <ele>2051.2</ele>
        <time>2018-08-10T11:16:05Z</time>
      </trkpt>
      <trkpt lat="44.37987" lon="6.3976">
        <ele>2051.5</ele>
        <time>2018-08-10T11:16:07Z</time>
      </trkpt>
      <trkpt lat="44.3799" lon="6.3976">
        <ele>2051.8</ele>
        <time>2018-08-10T11:16:10Z</time>
      </trkpt>
      <trkpt lat="44.37993" lon="6.39763">
        <ele>2052.2</ele>
        <time>2018-08-10T11:16:12Z</time>
      </trkpt>
      <trkpt lat="44.37995" lon="6.39766">
        <ele>2053</ele>
        <time>2018-08-10T11:16:14Z</time>
      </trkpt>
      <trkpt lat="44.37997" lon="6.39768">
        <ele>2053.7</ele>
        <time>2018-08-10T11:16:16Z</time>
      </trkpt>
      <trkpt lat="44.37999" lon="6.3977">
        <ele>2054.4</ele>
        <time>2018-08-10T11:16:18Z</time>
      </trkpt>
      <trkpt lat="44.38003" lon="6.39772">
        <ele>2054.7</ele>
        <time>2018-08-10T11:16:21Z</time>
      </trkpt>
      <trkpt lat="44.38005" lon="6.39773">
        <ele>2055</ele>
        <time>2018-08-10T11:16:23Z</time>
      </trkpt>
      <trkpt lat="44.38009" lon="6.39775">
        <ele>2055.3</ele>
        <time>2018-08-10T11:16:26Z</time>
      </trkpt>
      <trkpt lat="44.38011" lon="6.39777">
        <ele>2055.4</ele>
        <time>2018-08-10T11:16:28Z</time>
      </trkpt>
      <trkpt lat="44.38014" lon="6.39778">
        <ele>2055.4</ele>
        <time>2018-08-10T11:16:30Z</time>
      </trkpt>
      <trkpt lat="44.38018" lon="6.39781">
        <ele>2055.6</ele>
        <time>2018-08-10T11:16:33Z</time>
      </trkpt>
      <trkpt lat="44.38021" lon="6.39782">
        <ele>2055.9</ele>
        <time>2018-08-10T11:16:36Z</time>
      </trkpt>
      <trkpt lat="44.38025" lon="6.39785">
        <ele>2056.4</ele>
        <time>2018-08-10T11:16:39Z</time>
      </trkpt>
      <trkpt lat="44.38027" lon="6.39787">
        <ele>2057.1</ele>
        <time>2018-08-10T11:16:41Z</time>
      </trkpt>
      <trkpt lat="44.3803" lon="6.3979">
        <ele>2057.9</ele>
        <time>2018-08-10T11:16:44Z</time>
      </trkpt>
      <trkpt lat="44.38032" lon="6.39792">
        <ele>2058.5</ele>
        <time>2018-08-10T11:16:46Z</time>
      </trkpt>
      <trkpt lat="44.38035" lon="6.39794">
        <ele>2058.9</ele>
        <time>2018-08-10T11:16:49Z</time>
      </trkpt>
      <trkpt lat="44.38038" lon="6.39797">
        <ele>2059.2</ele>
        <time>2018-08-10T11:16:51Z</time>
      </trkpt>
      <trkpt lat="44.3804" lon="6.39799">
        <ele>2059.4</ele>
        <time>2018-08-10T11:16:53Z</time>
      </trkpt>
      <trkpt lat="44.38043" lon="6.39801">
        <ele>2059.4</ele>
        <time>2018-08-10T11:16:56Z</time>
      </trkpt>
      <trkpt lat="44.38047" lon="6.39803">
        <ele>2059.5</ele>
        <time>2018-08-10T11:16:59Z</time>
      </trkpt>
      <trkpt lat="44.38049" lon="6.39804">
        <ele>2059.6</ele>
        <time>2018-08-10T11:17:01Z</time>
      </trkpt>
      <trkpt lat="44.38052" lon="6.39807">
        <ele>2059.9</ele>
        <time>2018-08-10T11:17:04Z</time>
      </trkpt>
      <trkpt lat="44.38054" lon="6.39809">
        <ele>2060.1</ele>
        <time>2018-08-10T11:17:06Z</time>
      </trkpt>
      <trkpt lat="44.38057" lon="6.39812">
        <ele>2060.9</ele>
        <time>2018-08-10T11:17:09Z</time>
      </trkpt>
      <trkpt lat="44.38061" lon="6.39813">
        <ele>2061.8</ele>
        <time>2018-08-10T11:17:11Z</time>
      </trkpt>
      <trkpt lat="44.38064" lon="6.39815">
        <ele>2062.6</ele>
        <time>2018-08-10T11:17:14Z</time>
      </trkpt>
      <trkpt lat="44.38067" lon="6.39816">
        <ele>2063</ele>
        <time>2018-08-10T11:17:17Z</time>
      </trkpt>
      <trkpt lat="44.3807" lon="6.39817">
        <ele>2063.3</ele>
        <time>2018-08-10T11:17:19Z</time>
      </trkpt>
      <trkpt lat="44.38073" lon="6.39819">
        <ele>2063.5</ele>
        <time>2018-08-10T11:17:21Z</time>
      </trkpt>
      <trkpt lat="44.38076" lon="6.3982">
        <ele>2063.6</ele>
        <time>2018-08-10T11:17:24Z</time>
      </trkpt>
      <trkpt lat="44.38081" lon="6.39822">
        <ele>2063.8</ele>
        <time>2018-08-10T11:17:27Z</time>
      </trkpt>
      <trkpt lat="44.38083" lon="6.39825">
        <ele>2064.2</ele>
        <time>2018-08-10T11:17:29Z</time>
      </trkpt>
      <trkpt lat="44.38087" lon="6.39827">
        <ele>2064.6</ele>
        <time>2018-08-10T11:17:32Z</time>
      </trkpt>
      <trkpt lat="44.38089" lon="6.3983">
        <ele>2065.4</ele>
        <time>2018-08-10T11:17:34Z</time>
      </trkpt>
      <trkpt lat="44.38093" lon="6.39833">
        <ele>2066.8</ele>
        <time>2018-08-10T11:17:37Z</time>
      </trkpt>
      <trkpt lat="44.38096" lon="6.39835">
        <ele>2067.9</ele>
        <time>2018-08-10T11:17:39Z</time>
      </trkpt>
      <trkpt lat="44.38098" lon="6.39837">
        <ele>2068.5</ele>
        <time>2018-08-10T11:17:41Z</time>
      </trkpt>
      <trkpt lat="44.381" lon="6.3984">
        <ele>2069.1</ele>
        <time>2018-08-10T11:17:43Z</time>
      </trkpt>
      <trkpt lat="44.38102" lon="6.39842">
        <ele>2069.8</ele>
        <time>2018-08-10T11:17:45Z</time>
      </trkpt>
      <trkpt lat="44.38105" lon="6.39846">
        <ele>2070</ele>
        <time>2018-08-10T11:17:47Z</time>
      </trkpt>
      <trkpt lat="44.38107" lon="6.3985">
        <ele>2070.2</ele>
        <time>2018-08-10T11:17:49Z</time>
      </trkpt>
      <trkpt lat="44.38109" lon="6.39855">
        <ele>2070.8</ele>
        <time>2018-08-10T11:17:51Z</time>
      </trkpt>
      <trkpt lat="44.3811" lon="6.3986">
        <ele>2071.6</ele>
        <time>2018-08-10T11:17:53Z</time>
      </trkpt>
      <trkpt lat="44.38113" lon="6.39864">
        <ele>2072.2</ele>
        <time>2018-08-10T11:17:55Z</time>
      </trkpt>
      <trkpt lat="44.38115" lon="6.39866">
        <ele>2072.3</ele>
        <time>2018-08-10T11:17:57Z</time>
      </trkpt>
      <trkpt lat="44.38117" lon="6.3987">
        <ele>2072.4</ele>
        <time>2018-08-10T11:17:59Z</time>
      </trkpt>
      <trkpt lat="44.38119" lon="6.39873">
        <ele>2072.7</ele>
        <time>2018-08-10T11:18:01Z</time>
      </trkpt>
      <trkpt lat="44.38122" lon="6.39875">
        <ele>2073.1</ele>
        <time>2018-08-10T11:18:03Z</time>
      </trkpt>
      <trkpt lat="44.38125" lon="6.39877">
        <ele>2073.6</ele>
        <time>2018-08-10T11:18:06Z</time>
      </trkpt>
      <trkpt lat="44.38129" lon="6.39879">
        <ele>2073.9</ele>
        <time>2018-08-10T11:18:08Z</time>
      </trkpt>
      <trkpt lat="44.38132" lon="6.39879">
        <ele>2074.1</ele>
        <time>2018-08-10T11:18:10Z</time>
      </trkpt>
      <trkpt lat="44.38136" lon="6.3988">
        <ele>2074.5</ele>
        <time>2018-08-10T11:18:12Z</time>
      </trkpt>
      <trkpt lat="44.3814" lon="6.39883">
        <ele>2075.3</ele>
        <time>2018-08-10T11:18:14Z</time>
      </trkpt>
      <trkpt lat="44.38143" lon="6.39886">
        <ele>2076.1</ele>
        <time>2018-08-10T11:18:16Z</time>
      </trkpt>
      <trkpt lat="44.38146" lon="6.39889">
        <ele>2076.7</ele>
        <time>2018-08-10T11:18:18Z</time>
      </trkpt>
      <trkpt lat="44.38148" lon="6.39891">
        <ele>2077.2</ele>
        <time>2018-08-10T11:18:20Z</time>
      </trkpt>
      <trkpt lat="44.38151" lon="6.39893">
        <ele>2077.7</ele>
        <time>2018-08-10T11:18:23Z</time>
      </trkpt>
      <trkpt lat="44.38154" lon="6.39894">
        <ele>2078</ele>
        <time>2018-08-10T11:18:25Z</time>
      </trkpt>
      <trkpt lat="44.38157" lon="6.39896">
        <ele>2078.3</ele>
        <time>2018-08-10T11:18:28Z</time>
      </trkpt>
      <trkpt lat="44.3816" lon="6.39899">
        <ele>2078.9</ele>
        <time>2018-08-10T11:18:30Z</time>
      </trkpt>
      <trkpt lat="44.38163" lon="6.39903">
        <ele>2079.8</ele>
        <time>2018-08-10T11:18:32Z</time>
      </trkpt>
      <trkpt lat="44.38165" lon="6.39908">
        <ele>2080.3</ele>
        <time>2018-08-10T11:18:34Z</time>
      </trkpt>
      <trkpt lat="44.38168" lon="6.39912">
        <ele>2080.6</ele>
        <time>2018-08-10T11:18:37Z</time>
      </trkpt>
      <trkpt lat="44.3817" lon="6.39913">
        <ele>2080.8</ele>
        <time>2018-08-10T11:18:39Z</time>
      </trkpt>
      <trkpt lat="44.38173" lon="6.39914">
        <ele>2080.7</ele>
        <time>2018-08-10T11:18:41Z</time>
      </trkpt>
      <trkpt lat="44.38177" lon="6.39914">
        <ele>2080.6</ele>
        <time>2018-08-10T11:18:44Z</time>
      </trkpt>
      <trkpt lat="44.3818" lon="6.39912">
        <ele>2080.7</ele>
        <time>2018-08-10T11:18:46Z</time>
      </trkpt>
      <trkpt lat="44.38184" lon="6.39914">
        <ele>2081.1</ele>
        <time>2018-08-10T11:18:49Z</time>
      </trkpt>
      <trkpt lat="44.38187" lon="6.39914">
        <ele>2081.2</ele>
        <time>2018-08-10T11:18:51Z</time>
      </trkpt>
      <trkpt lat="44.38191" lon="6.39915">
        <ele>2081.1</ele>
        <time>2018-08-10T11:18:54Z</time>
      </trkpt>
      <trkpt lat="44.38194" lon="6.39917">
        <ele>2081</ele>
        <time>2018-08-10T11:18:56Z</time>
      </trkpt>
      <trkpt lat="44.38198" lon="6.39916">
        <ele>2080.9</ele>
        <time>2018-08-10T11:18:58Z</time>
      </trkpt>
      <trkpt lat="44.382" lon="6.39917">
        <ele>2080.8</ele>
        <time>2018-08-10T11:19:00Z</time>
      </trkpt>
      <trkpt lat="44.38204" lon="6.39916">
        <ele>2080.5</ele>
        <time>2018-08-10T11:19:02Z</time>
      </trkpt>
      <trkpt lat="44.38207" lon="6.39916">
        <ele>2080.2</ele>
        <time>2018-08-10T11:19:04Z</time>
      </trkpt>
      <trkpt lat="44.3821" lon="6.39917">
        <ele>2079.9</ele>
        <time>2018-08-10T11:19:06Z</time>
      </trkpt>
      <trkpt lat="44.38212" lon="6.39917">
        <ele>2080</ele>
        <time>2018-08-10T11:19:08Z</time>
      </trkpt>
      <trkpt lat="44.38216" lon="6.39917">
        <ele>2080</ele>
        <time>2018-08-10T11:19:10Z</time>
      </trkpt>
      <trkpt lat="44.3822" lon="6.39916">
        <ele>2079.9</ele>
        <time>2018-08-10T11:19:13Z</time>
      </trkpt>
      <trkpt lat="44.38223" lon="6.39915">
        <ele>2079.8</ele>
        <time>2018-08-10T11:19:15Z</time>
      </trkpt>
      <trkpt lat="44.38226" lon="6.39915">
        <ele>2079.7</ele>
        <time>2018-08-10T11:19:17Z</time>
      </trkpt>
      <trkpt lat="44.38229" lon="6.39912">
        <ele>2079.8</ele>
        <time>2018-08-10T11:19:19Z</time>
      </trkpt>
      <trkpt lat="44.38232" lon="6.39912">
        <ele>2079.9</ele>
        <time>2018-08-10T11:19:21Z</time>
      </trkpt>
      <trkpt lat="44.38236" lon="6.39912">
        <ele>2080</ele>
        <time>2018-08-10T11:19:24Z</time>
      </trkpt>
      <trkpt lat="44.3824" lon="6.39912">
        <ele>2080.1</ele>
        <time>2018-08-10T11:19:26Z</time>
      </trkpt>
      <trkpt lat="44.38243" lon="6.3991">
        <ele>2080.1</ele>
        <time>2018-08-10T11:19:29Z</time>
      </trkpt>
      <trkpt lat="44.38246" lon="6.3991">
        <ele>2080.5</ele>
        <time>2018-08-10T11:19:31Z</time>
      </trkpt>
      <trkpt lat="44.38249" lon="6.3991">
        <ele>2080.8</ele>
        <time>2018-08-10T11:19:33Z</time>
      </trkpt>
      <trkpt lat="44.38252" lon="6.39909">
        <ele>2081.1</ele>
        <time>2018-08-10T11:19:35Z</time>
      </trkpt>
      <trkpt lat="44.38255" lon="6.39909">
        <ele>2081.2</ele>
        <time>2018-08-10T11:19:37Z</time>
      </trkpt>
      <trkpt lat="44.38257" lon="6.39908">
        <ele>2081.3</ele>
        <time>2018-08-10T11:19:39Z</time>
      </trkpt>
      <trkpt lat="44.3826" lon="6.39907">
        <ele>2081.5</ele>
        <time>2018-08-10T11:19:41Z</time>
      </trkpt>
      <trkpt lat="44.38264" lon="6.39907">
        <ele>2082</ele>
        <time>2018-08-10T11:19:44Z</time>
      </trkpt>
      <trkpt lat="44.38267" lon="6.39905">
        <ele>2082.4</ele>
        <time>2018-08-10T11:19:46Z</time>
      </trkpt>
      <trkpt lat="44.3827" lon="6.39904">
        <ele>2082.9</ele>
        <time>2018-08-10T11:19:48Z</time>
      </trkpt>
      <trkpt lat="44.38273" lon="6.39903">
        <ele>2083.4</ele>
        <time>2018-08-10T11:19:50Z</time>
      </trkpt>
      <trkpt lat="44.38276" lon="6.39903">
        <ele>2083.9</ele>
        <time>2018-08-10T11:19:52Z</time>
      </trkpt>
      <trkpt lat="44.38279" lon="6.39902">
        <ele>2084.4</ele>
        <time>2018-08-10T11:19:54Z</time>
      </trkpt>
      <trkpt lat="44.38282" lon="6.39901">
        <ele>2085</ele>
        <time>2018-08-10T11:19:56Z</time>
      </trkpt>
      <trkpt lat="44.38286" lon="6.39901">
        <ele>2085.6</ele>
        <time>2018-08-10T11:19:58Z</time>
      </trkpt>
      <trkpt lat="44.3829" lon="6.39901">
        <ele>2086.2</ele>
        <time>2018-08-10T11:20:00Z</time>
      </trkpt>
      <trkpt lat="44.38294" lon="6.39902">
        <ele>2086.8</ele>
        <time>2018-08-10T11:20:02Z</time>
      </trkpt>
      <trkpt lat="44.38297" lon="6.39902">
        <ele>2087</ele>
        <time>2018-08-10T11:20:04Z</time>
      </trkpt>
      <trkpt lat="44.38301" lon="6.39903">
        <ele>2087</ele>
        <time>2018-08-10T11:20:06Z</time>
      </trkpt>
      <trkpt lat="44.38304" lon="6.39902">
        <ele>2087</ele>
        <time>2018-08-10T11:20:08Z</time>
      </trkpt>
      <trkpt lat="44.38307" lon="6.399">
        <ele>2087.6</ele>
        <time>2018-08-10T11:20:10Z</time>
      </trkpt>
      <trkpt lat="44.38311" lon="6.399">
        <ele>2088.1</ele>
        <time>2018-08-10T11:20:12Z</time>
      </trkpt>
      <trkpt lat="44.38313" lon="6.39898">
        <ele>2088.6</ele>
        <time>2018-08-10T11:20:14Z</time>
      </trkpt>
      <trkpt lat="44.38316" lon="6.39896">
        <ele>2089.1</ele>
        <time>2018-08-10T11:20:16Z</time>
      </trkpt>
      <trkpt lat="44.38319" lon="6.39896">
        <ele>2089.6</ele>
        <time>2018-08-10T11:20:18Z</time>
      </trkpt>
      <trkpt lat="44.38321" lon="6.39898">
        <ele>2090</ele>
        <time>2018-08-10T11:20:20Z</time>
      </trkpt>
      <trkpt lat="44.38325" lon="6.399">
        <ele>2090.6</ele>
        <time>2018-08-10T11:20:22Z</time>
      </trkpt>
      <trkpt lat="44.38327" lon="6.39898">
        <ele>2090.9</ele>
        <time>2018-08-10T11:20:24Z</time>
      </trkpt>
      <trkpt lat="44.38331" lon="6.39898">
        <ele>2091.4</ele>
        <time>2018-08-10T11:20:26Z</time>
      </trkpt>
      <trkpt lat="44.38334" lon="6.39898">
        <ele>2091.8</ele>
        <time>2018-08-10T11:20:28Z</time>
      </trkpt>
      <trkpt lat="44.38337" lon="6.39899">
        <ele>2092.2</ele>
        <time>2018-08-10T11:20:30Z</time>
      </trkpt>
      <trkpt lat="44.38341" lon="6.39899">
        <ele>2092.8</ele>
        <time>2018-08-10T11:20:32Z</time>
      </trkpt>
      <trkpt lat="44.38344" lon="6.39901">
        <ele>2093.3</ele>
        <time>2018-08-10T11:20:35Z</time>
      </trkpt>
      <trkpt lat="44.38347" lon="6.39902">
        <ele>2093.7</ele>
        <time>2018-08-10T11:20:39Z</time>
      </trkpt>
      <trkpt lat="44.38347" lon="6.39907">
        <ele>2094.1</ele>
        <time>2018-08-10T11:21:02Z</time>
      </trkpt>
      <trkpt lat="44.38347" lon="6.39911">
        <ele>2094.5</ele>
        <time>2018-08-10T11:21:05Z</time>
      </trkpt>
      <trkpt lat="44.38346" lon="6.39915">
        <ele>2094.9</ele>
        <time>2018-08-10T11:21:08Z</time>
      </trkpt>
      <trkpt lat="44.38346" lon="6.3992">
        <ele>2095.3</ele>
        <time>2018-08-10T11:21:11Z</time>
      </trkpt>
      <trkpt lat="44.38344" lon="6.39925">
        <ele>2095.9</ele>
        <time>2018-08-10T11:37:40Z</time>
      </trkpt>
      <trkpt lat="44.38343" lon="6.3993">
        <ele>2096.4</ele>
        <time>2018-08-10T11:37:41Z</time>
      </trkpt>
      <trkpt lat="44.38343" lon="6.39922">
        <ele>2097</ele>
        <time>2018-08-10T11:37:44Z</time>
      </trkpt>
      <trkpt lat="44.38346" lon="6.39923">
        <ele>2097.4</ele>
        <time>2018-08-10T11:37:51Z</time>
      </trkpt>
      <trkpt lat="44.38349" lon="6.39924">
        <ele>2097.8</ele>
        <time>2018-08-10T11:38:08Z</time>
      </trkpt>
      <trkpt lat="44.38345" lon="6.39926">
        <ele>2098.4</ele>
        <time>2018-08-10T11:38:14Z</time>
      </trkpt>
      <trkpt lat="44.3835" lon="6.39924">
        <ele>2099</ele>
        <time>2018-08-10T11:40:32Z</time>
      </trkpt>
      <trkpt lat="44.38354" lon="6.39922">
        <ele>2099.5</ele>
        <time>2018-08-10T11:40:34Z</time>
      </trkpt>
      <trkpt lat="44.38356" lon="6.39917">
        <ele>2099.9</ele>
        <time>2018-08-10T11:40:36Z</time>
      </trkpt>
      <trkpt lat="44.38358" lon="6.39914">
        <ele>2100.2</ele>
        <time>2018-08-10T11:40:37Z</time>
      </trkpt>
      <trkpt lat="44.38361" lon="6.39912">
        <ele>2100.5</ele>
        <time>2018-08-10T11:40:38Z</time>
      </trkpt>
      <trkpt lat="44.38364" lon="6.39911">
        <ele>2100.9</ele>
        <time>2018-08-10T11:40:39Z</time>
      </trkpt>
      <trkpt lat="44.38371" lon="6.39912">
        <ele>2101.7</ele>
        <time>2018-08-10T11:40:41Z</time>
      </trkpt>
      <trkpt lat="44.38376" lon="6.39915">
        <ele>2102.5</ele>
        <time>2018-08-10T11:40:42Z</time>
      </trkpt>
      <trkpt lat="44.38381" lon="6.39918">
        <ele>2103</ele>
        <time>2018-08-10T11:40:43Z</time>
      </trkpt>
      <trkpt lat="44.38386" lon="6.3992">
        <ele>2103.5</ele>
        <time>2018-08-10T11:40:44Z</time>
      </trkpt>
      <trkpt lat="44.38391" lon="6.39923">
        <ele>2104</ele>
        <time>2018-08-10T11:40:45Z</time>
      </trkpt>
      <trkpt lat="44.38396" lon="6.39926">
        <ele>2104.6</ele>
        <time>2018-08-10T11:40:46Z</time>
      </trkpt>
      <trkpt lat="44.38401" lon="6.3993">
        <ele>2105</ele>
        <time>2018-08-10T11:40:47Z</time>
      </trkpt>
      <trkpt lat="44.38406" lon="6.39933">
        <ele>2105.4</ele>
        <time>2018-08-10T11:40:48Z</time>
      </trkpt>
      <trkpt lat="44.38411" lon="6.39936">
        <ele>2105.8</ele>
        <time>2018-08-10T11:40:49Z</time>
      </trkpt>
      <trkpt lat="44.38415" lon="6.3994">
        <ele>2106.3</ele>
        <time>2018-08-10T11:40:50Z</time>
      </trkpt>
      <trkpt lat="44.38419" lon="6.39942">
        <ele>2106.6</ele>
        <time>2018-08-10T11:40:51Z</time>
      </trkpt>
      <trkpt lat="44.38423" lon="6.39945">
        <ele>2106.9</ele>
        <time>2018-08-10T11:40:52Z</time>
      </trkpt>
      <trkpt lat="44.38426" lon="6.39948">
        <ele>2107.3</ele>
        <time>2018-08-10T11:40:53Z</time>
      </trkpt>
      <trkpt lat="44.38429" lon="6.39951">
        <ele>2107.7</ele>
        <time>2018-08-10T11:40:54Z</time>
      </trkpt>
      <trkpt lat="44.38432" lon="6.39954">
        <ele>2108</ele>
        <time>2018-08-10T11:40:55Z</time>
      </trkpt>
      <trkpt lat="44.38437" lon="6.39957">
        <ele>2108.4</ele>
        <time>2018-08-10T11:40:57Z</time>
      </trkpt>
      <trkpt lat="44.38439" lon="6.3996">
        <ele>2108.7</ele>
        <time>2018-08-10T11:40:58Z</time>
      </trkpt>
      <trkpt lat="44.38441" lon="6.39962">
        <ele>2108.9</ele>
        <time>2018-08-10T11:40:59Z</time>
      </trkpt>
      <trkpt lat="44.38444" lon="6.39965">
        <ele>2109</ele>
        <time>2018-08-10T11:41:00Z</time>
      </trkpt>
      <trkpt lat="44.38447" lon="6.39968">
        <ele>2109</ele>
        <time>2018-08-10T11:41:01Z</time>
      </trkpt>
      <trkpt lat="44.38449" lon="6.39971">
        <ele>2109</ele>
        <time>2018-08-10T11:41:02Z</time>
      </trkpt>
      <trkpt lat="44.38453" lon="6.39975">
        <ele>2109</ele>
        <time>2018-08-10T11:41:04Z</time>
      </trkpt>
      <trkpt lat="44.38455" lon="6.39977">
        <ele>2109</ele>
        <time>2018-08-10T11:41:05Z</time>
      </trkpt>
      <trkpt lat="44.3846" lon="6.3998">
        <ele>2109.1</ele>
        <time>2018-08-10T11:41:07Z</time>
      </trkpt>
      <trkpt lat="44.38462" lon="6.39983">
        <ele>2109.2</ele>
        <time>2018-08-10T11:41:08Z</time>
      </trkpt>
      <trkpt lat="44.38464" lon="6.39985">
        <ele>2109.2</ele>
        <time>2018-08-10T11:41:09Z</time>
      </trkpt>
      <trkpt lat="44.38468" lon="6.39989">
        <ele>2109.2</ele>
        <time>2018-08-10T11:41:11Z</time>
      </trkpt>
      <trkpt lat="44.38471" lon="6.39993">
        <ele>2109.1</ele>
        <time>2018-08-10T11:41:13Z</time>
      </trkpt>
      <trkpt lat="44.38475" lon="6.39998">
        <ele>2109.2</ele>
        <time>2018-08-10T11:41:15Z</time>
      </trkpt>
      <trkpt lat="44.38478" lon="6.40001">
        <ele>2109.3</ele>
        <time>2018-08-10T11:41:17Z</time>
      </trkpt>
      <trkpt lat="44.38482" lon="6.40005">
        <ele>2109.3</ele>
        <time>2018-08-10T11:41:19Z</time>
      </trkpt>
      <trkpt lat="44.38486" lon="6.40007">
        <ele>2109.4</ele>
        <time>2018-08-10T11:41:21Z</time>
      </trkpt>
      <trkpt lat="44.38488" lon="6.40009">
        <ele>2109.4</ele>
        <time>2018-08-10T11:41:22Z</time>
      </trkpt>
      <trkpt lat="44.38493" lon="6.40012">
        <ele>2109.3</ele>
        <time>2018-08-10T11:41:24Z</time>
      </trkpt>
      <trkpt lat="44.38495" lon="6.40014">
        <ele>2109.4</ele>
        <time>2018-08-10T11:41:25Z</time>
      </trkpt>
      <trkpt lat="44.38499" lon="6.40017">
        <ele>2109.6</ele>
        <time>2018-08-10T11:41:27Z</time>
      </trkpt>
      <trkpt lat="44.38503" lon="6.4002">
        <ele>2109.8</ele>
        <time>2018-08-10T11:41:29Z</time>
      </trkpt>
      <trkpt lat="44.38507" lon="6.40023">
        <ele>2110.2</ele>
        <time>2018-08-10T11:41:31Z</time>
      </trkpt>
      <trkpt lat="44.38511" lon="6.40025">
        <ele>2110.4</ele>
        <time>2018-08-10T11:41:33Z</time>
      </trkpt>
      <trkpt lat="44.38515" lon="6.40027">
        <ele>2110.6</ele>
        <time>2018-08-10T11:41:35Z</time>
      </trkpt>
      <trkpt lat="44.38519" lon="6.40028">
        <ele>2110.9</ele>
        <time>2018-08-10T11:41:37Z</time>
      </trkpt>
      <trkpt lat="44.38524" lon="6.40031">
        <ele>2111.4</ele>
        <time>2018-08-10T11:41:39Z</time>
      </trkpt>
      <trkpt lat="44.38527" lon="6.40033">
        <ele>2111.7</ele>
        <time>2018-08-10T11:41:41Z</time>
      </trkpt>
      <trkpt lat="44.3853" lon="6.40036">
        <ele>2111.9</ele>
        <time>2018-08-10T11:41:43Z</time>
      </trkpt>
      <trkpt lat="44.38534" lon="6.4004">
        <ele>2112</ele>
        <time>2018-08-10T11:41:45Z</time>
      </trkpt>
      <trkpt lat="44.38538" lon="6.40045">
        <ele>2112.1</ele>
        <time>2018-08-10T11:41:47Z</time>
      </trkpt>
      <trkpt lat="44.38541" lon="6.4005">
        <ele>2112.1</ele>
        <time>2018-08-10T11:41:49Z</time>
      </trkpt>
      <trkpt lat="44.38544" lon="6.40054">
        <ele>2111.9</ele>
        <time>2018-08-10T11:41:51Z</time>
      </trkpt>
      <trkpt lat="44.38545" lon="6.40059">
        <ele>2111.8</ele>
        <time>2018-08-10T11:41:53Z</time>
      </trkpt>
      <trkpt lat="44.38548" lon="6.40064">
        <ele>2111.7</ele>
        <time>2018-08-10T11:41:55Z</time>
      </trkpt>
      <trkpt lat="44.3855" lon="6.40067">
        <ele>2111.6</ele>
        <time>2018-08-10T11:41:57Z</time>
      </trkpt>
      <trkpt lat="44.38552" lon="6.40071">
        <ele>2111.4</ele>
        <time>2018-08-10T11:41:59Z</time>
      </trkpt>
      <trkpt lat="44.38554" lon="6.40075">
        <ele>2111.3</ele>
        <time>2018-08-10T11:42:01Z</time>
      </trkpt>
      <trkpt lat="44.38556" lon="6.40079">
        <ele>2111.2</ele>
        <time>2018-08-10T11:42:23Z</time>
      </trkpt>
      <trkpt lat="44.38559" lon="6.40084">
        <ele>2111.1</ele>
        <time>2018-08-10T11:42:25Z</time>
      </trkpt>
      <trkpt lat="44.38561" lon="6.4009">
        <ele>2111</ele>
        <time>2018-08-10T11:42:27Z</time>
      </trkpt>
      <trkpt lat="44.38563" lon="6.40096">
        <ele>2111</ele>
        <time>2018-08-10T11:42:29Z</time>
      </trkpt>
      <trkpt lat="44.38565" lon="6.401">
        <ele>2110.8</ele>
        <time>2018-08-10T11:42:30Z</time>
      </trkpt>
      <trkpt lat="44.38567" lon="6.40103">
        <ele>2110.6</ele>
        <time>2018-08-10T11:42:31Z</time>
      </trkpt>
      <trkpt lat="44.38569" lon="6.40106">
        <ele>2110.4</ele>
        <time>2018-08-10T11:42:32Z</time>
      </trkpt>
      <trkpt lat="44.38572" lon="6.40111">
        <ele>2110.3</ele>
        <time>2018-08-10T11:42:33Z</time>
      </trkpt>
      <trkpt lat="44.38575" lon="6.40114">
        <ele>2110.2</ele>
        <time>2018-08-10T11:42:34Z</time>
      </trkpt>
      <trkpt lat="44.38578" lon="6.40118">
        <ele>2110.1</ele>
        <time>2018-08-10T11:42:35Z</time>
      </trkpt>
      <trkpt lat="44.38581" lon="6.4012">
        <ele>2109.9</ele>
        <time>2018-08-10T11:42:36Z</time>
      </trkpt>
      <trkpt lat="44.38585" lon="6.40122">
        <ele>2109.6</ele>
        <time>2018-08-10T11:42:37Z</time>
      </trkpt>
      <trkpt lat="44.38589" lon="6.40125">
        <ele>2109.3</ele>
        <time>2018-08-10T11:42:39Z</time>
      </trkpt>
      <trkpt lat="44.38593" lon="6.40127">
        <ele>2109.2</ele>
        <time>2018-08-10T11:42:41Z</time>
      </trkpt>
      <trkpt lat="44.38596" lon="6.40128">
        <ele>2109.2</ele>
        <time>2018-08-10T11:42:42Z</time>
      </trkpt>
      <trkpt lat="44.38599" lon="6.4013">
        <ele>2109.3</ele>
        <time>2018-08-10T11:42:43Z</time>
      </trkpt>
      <trkpt lat="44.38602" lon="6.40132">
        <ele>2109.3</ele>
        <time>2018-08-10T11:42:45Z</time>
      </trkpt>
      <trkpt lat="44.38606" lon="6.40133">
        <ele>2109.3</ele>
        <time>2018-08-10T11:42:48Z</time>
      </trkpt>
      <trkpt lat="44.38609" lon="6.40131">
        <ele>2109.4</ele>
        <time>2018-08-10T11:43:11Z</time>
      </trkpt>
      <trkpt lat="44.38609" lon="6.40127">
        <ele>2109.3</ele>
        <time>2018-08-10T11:43:13Z</time>
      </trkpt>
      <trkpt lat="44.38606" lon="6.40126">
        <ele>2109.3</ele>
        <time>2018-08-10T11:43:15Z</time>
      </trkpt>
      <trkpt lat="44.38603" lon="6.40125">
        <ele>2109.3</ele>
        <time>2018-08-10T11:43:17Z</time>
      </trkpt>
      <trkpt lat="44.386" lon="6.40125">
        <ele>2109.2</ele>
        <time>2018-08-10T11:43:19Z</time>
      </trkpt>
      <trkpt lat="44.38597" lon="6.40125">
        <ele>2109.2</ele>
        <time>2018-08-10T11:43:21Z</time>
      </trkpt>
      <trkpt lat="44.38593" lon="6.40124">
        <ele>2109.3</ele>
        <time>2018-08-10T11:43:23Z</time>
      </trkpt>
      <trkpt lat="44.38589" lon="6.40124">
        <ele>2109.3</ele>
        <time>2018-08-10T11:43:26Z</time>
      </trkpt>
      <trkpt lat="44.38586" lon="6.40122">
        <ele>2109.6</ele>
        <time>2018-08-10T11:43:29Z</time>
      </trkpt>
      <trkpt lat="44.38583" lon="6.40119">
        <ele>2109.8</ele>
        <time>2018-08-10T11:43:31Z</time>
      </trkpt>
      <trkpt lat="44.38581" lon="6.40116">
        <ele>2110</ele>
        <time>2018-08-10T11:43:34Z</time>
      </trkpt>
      <trkpt lat="44.38578" lon="6.40114">
        <ele>2110.1</ele>
        <time>2018-08-10T11:43:36Z</time>
      </trkpt>
      <trkpt lat="44.38575" lon="6.40112">
        <ele>2110.2</ele>
        <time>2018-08-10T11:43:38Z</time>
      </trkpt>
      <trkpt lat="44.38572" lon="6.40109">
        <ele>2110.3</ele>
        <time>2018-08-10T11:43:40Z</time>
      </trkpt>
      <trkpt lat="44.3857" lon="6.40104">
        <ele>2110.4</ele>
        <time>2018-08-10T11:43:43Z</time>
      </trkpt>
      <trkpt lat="44.38569" lon="6.401">
        <ele>2110.5</ele>
        <time>2018-08-10T11:43:45Z</time>
      </trkpt>
      <trkpt lat="44.38566" lon="6.40097">
        <ele>2110.8</ele>
        <time>2018-08-10T11:43:48Z</time>
      </trkpt>
      <trkpt lat="44.38564" lon="6.40093">
        <ele>2111</ele>
        <time>2018-08-10T11:43:50Z</time>
      </trkpt>
      <trkpt lat="44.38563" lon="6.40089">
        <ele>2111</ele>
        <time>2018-08-10T11:43:53Z</time>
      </trkpt>
      <trkpt lat="44.38561" lon="6.40084">
        <ele>2111</ele>
        <time>2018-08-10T11:43:56Z</time>
      </trkpt>
      <trkpt lat="44.38559" lon="6.40082">
        <ele>2111</ele>
        <time>2018-08-10T11:43:58Z</time>
      </trkpt>
      <trkpt lat="44.38559" lon="6.40077">
        <ele>2111</ele>
        <time>2018-08-10T11:44:02Z</time>
      </trkpt>
      <trkpt lat="44.38561" lon="6.40074">
        <ele>2111</ele>
        <time>2018-08-10T11:44:04Z</time>
      </trkpt>
      <trkpt lat="44.38563" lon="6.40071">
        <ele>2111</ele>
        <time>2018-08-10T11:44:07Z</time>
      </trkpt>
      <trkpt lat="44.38564" lon="6.40066">
        <ele>2111.3</ele>
        <time>2018-08-10T11:44:10Z</time>
      </trkpt>
      <trkpt lat="44.38566" lon="6.40062">
        <ele>2111.5</ele>
        <time>2018-08-10T11:44:13Z</time>
      </trkpt>
      <trkpt lat="44.38568" lon="6.40059">
        <ele>2111.8</ele>
        <time>2018-08-10T11:44:16Z</time>
      </trkpt>
      <trkpt lat="44.38572" lon="6.40058">
        <ele>2112.3</ele>
        <time>2018-08-10T11:44:24Z</time>
      </trkpt>
      <trkpt lat="44.38575" lon="6.40056">
        <ele>2112.7</ele>
        <time>2018-08-10T11:44:29Z</time>
      </trkpt>
      <trkpt lat="44.38578" lon="6.40057">
        <ele>2113</ele>
        <time>2018-08-10T11:44:32Z</time>
      </trkpt>
      <trkpt lat="44.38581" lon="6.40057">
        <ele>2113.2</ele>
        <time>2018-08-10T11:44:34Z</time>
      </trkpt>
      <trkpt lat="44.38584" lon="6.40058">
        <ele>2113.4</ele>
        <time>2018-08-10T11:44:40Z</time>
      </trkpt>
      <trkpt lat="44.38586" lon="6.40058">
        <ele>2113.6</ele>
        <time>2018-08-10T11:44:42Z</time>
      </trkpt>
      <trkpt lat="44.38589" lon="6.40062">
        <ele>2113.8</ele>
        <time>2018-08-10T11:44:47Z</time>
      </trkpt>
      <trkpt lat="44.38592" lon="6.40065">
        <ele>2114.1</ele>
        <time>2018-08-10T11:44:50Z</time>
      </trkpt>
      <trkpt lat="44.38595" lon="6.40067">
        <ele>2114.3</ele>
        <time>2018-08-10T11:44:52Z</time>
      </trkpt>
      <trkpt lat="44.38598" lon="6.4007">
        <ele>2114.5</ele>
        <time>2018-08-10T11:44:54Z</time>
      </trkpt>
      <trkpt lat="44.38603" lon="6.4007">
        <ele>2114.7</ele>
        <time>2018-08-10T11:44:56Z</time>
      </trkpt>
      <trkpt lat="44.38606" lon="6.4007">
        <ele>2114.9</ele>
        <time>2018-08-10T11:44:57Z</time>
      </trkpt>
      <trkpt lat="44.3861" lon="6.40068">
        <ele>2115.1</ele>
        <time>2018-08-10T11:44:59Z</time>
      </trkpt>
      <trkpt lat="44.38614" lon="6.40067">
        <ele>2115.3</ele>
        <time>2018-08-10T11:45:01Z</time>
      </trkpt>
      <trkpt lat="44.38616" lon="6.40064">
        <ele>2115.4</ele>
        <time>2018-08-10T11:45:14Z</time>
      </trkpt>
      <trkpt lat="44.38619" lon="6.40063">
        <ele>2115.5</ele>
        <time>2018-08-10T11:45:16Z</time>
      </trkpt>
      <trkpt lat="44.38622" lon="6.4006">
        <ele>2115.7</ele>
        <time>2018-08-10T11:45:18Z</time>
      </trkpt>
      <trkpt lat="44.38625" lon="6.40056">
        <ele>2115.9</ele>
        <time>2018-08-10T11:45:20Z</time>
      </trkpt>
      <trkpt lat="44.38627" lon="6.40052">
        <ele>2116</ele>
        <time>2018-08-10T11:45:22Z</time>
      </trkpt>
      <trkpt lat="44.3863" lon="6.40049">
        <ele>2116.1</ele>
        <time>2018-08-10T11:45:24Z</time>
      </trkpt>
      <trkpt lat="44.38632" lon="6.40046">
        <ele>2116.2</ele>
        <time>2018-08-10T11:45:26Z</time>
      </trkpt>
      <trkpt lat="44.38635" lon="6.40041">
        <ele>2116.3</ele>
        <time>2018-08-10T11:45:28Z</time>
      </trkpt>
      <trkpt lat="44.38637" lon="6.40038">
        <ele>2116.4</ele>
        <time>2018-08-10T11:45:30Z</time>
      </trkpt>
      <trkpt lat="44.3864" lon="6.40035">
        <ele>2116.6</ele>
        <time>2018-08-10T11:45:32Z</time>
      </trkpt>
      <trkpt lat="44.38643" lon="6.40031">
        <ele>2116.7</ele>
        <time>2018-08-10T11:45:34Z</time>
      </trkpt>
      <trkpt lat="44.38645" lon="6.4003">
        <ele>2116.8</ele>
        <time>2018-08-10T11:45:37Z</time>
      </trkpt>
      <trkpt lat="44.38648" lon="6.40029">
        <ele>2116.9</ele>
        <time>2018-08-10T11:45:39Z</time>
      </trkpt>
      <trkpt lat="44.38652" lon="6.40026">
        <ele>2117.1</ele>
        <time>2018-08-10T11:45:41Z</time>
      </trkpt>
      <trkpt lat="44.38656" lon="6.40024">
        <ele>2117.3</ele>
        <time>2018-08-10T11:45:43Z</time>
      </trkpt>
      <trkpt lat="44.3866" lon="6.40023">
        <ele>2117.4</ele>
        <time>2018-08-10T11:45:45Z</time>
      </trkpt>
      <trkpt lat="44.38665" lon="6.40021">
        <ele>2117.7</ele>
        <time>2018-08-10T11:45:47Z</time>
      </trkpt>
      <trkpt lat="44.38669" lon="6.40019">
        <ele>2117.9</ele>
        <time>2018-08-10T11:45:49Z</time>
      </trkpt>
      <trkpt lat="44.38672" lon="6.40017">
        <ele>2118.1</ele>
        <time>2018-08-10T11:45:51Z</time>
      </trkpt>
      <trkpt lat="44.38675" lon="6.40015">
        <ele>2118.3</ele>
        <time>2018-08-10T11:45:53Z</time>
      </trkpt>
      <trkpt lat="44.38679" lon="6.40013">
        <ele>2118.6</ele>
        <time>2018-08-10T11:45:55Z</time>
      </trkpt>
      <trkpt lat="44.38683" lon="6.4001">
        <ele>2118.9</ele>
        <time>2018-08-10T11:45:57Z</time>
      </trkpt>
      <trkpt lat="44.38687" lon="6.40009">
        <ele>2119.2</ele>
        <time>2018-08-10T11:45:59Z</time>
      </trkpt>
      <trkpt lat="44.38691" lon="6.40009">
        <ele>2119.6</ele>
        <time>2018-08-10T11:46:01Z</time>
      </trkpt>
      <trkpt lat="44.38694" lon="6.40007">
        <ele>2119.9</ele>
        <time>2018-08-10T11:46:03Z</time>
      </trkpt>
      <trkpt lat="44.38698" lon="6.40005">
        <ele>2120.1</ele>
        <time>2018-08-10T11:46:05Z</time>
      </trkpt>
      <trkpt lat="44.38702" lon="6.40004">
        <ele>2120.2</ele>
        <time>2018-08-10T11:46:07Z</time>
      </trkpt>
      <trkpt lat="44.38706" lon="6.40002">
        <ele>2120.3</ele>
        <time>2018-08-10T11:46:09Z</time>
      </trkpt>
      <trkpt lat="44.38709" lon="6.4">
        <ele>2120.6</ele>
        <time>2018-08-10T11:46:11Z</time>
      </trkpt>
      <trkpt lat="44.38712" lon="6.39999">
        <ele>2121</ele>
        <time>2018-08-10T11:46:13Z</time>
      </trkpt>
      <trkpt lat="44.38714" lon="6.39997">
        <ele>2121.3</ele>
        <time>2018-08-10T11:46:15Z</time>
      </trkpt>
      <trkpt lat="44.38717" lon="6.39996">
        <ele>2121.6</ele>
        <time>2018-08-10T11:46:17Z</time>
      </trkpt>
      <trkpt lat="44.38721" lon="6.39994">
        <ele>2122</ele>
        <time>2018-08-10T11:46:20Z</time>
      </trkpt>
      <trkpt lat="44.38724" lon="6.39993">
        <ele>2122.3</ele>
        <time>2018-08-10T11:46:22Z</time>
      </trkpt>
      <trkpt lat="44.38727" lon="6.39993">
        <ele>2122.7</ele>
        <time>2018-08-10T11:46:24Z</time>
      </trkpt>
      <trkpt lat="44.3873" lon="6.39992">
        <ele>2123.1</ele>
        <time>2018-08-10T11:46:27Z</time>
      </trkpt>
      <trkpt lat="44.38734" lon="6.39991">
        <ele>2123.6</ele>
        <time>2018-08-10T11:46:30Z</time>
      </trkpt>
      <trkpt lat="44.38737" lon="6.3999">
        <ele>2124</ele>
        <time>2018-08-10T11:46:32Z</time>
      </trkpt>
      <trkpt lat="44.3874" lon="6.39991">
        <ele>2124.3</ele>
        <time>2018-08-10T11:46:34Z</time>
      </trkpt>
      <trkpt lat="44.38743" lon="6.39989">
        <ele>2124.7</ele>
        <time>2018-08-10T11:46:36Z</time>
      </trkpt>
      <trkpt lat="44.38746" lon="6.39987">
        <ele>2124.8</ele>
        <time>2018-08-10T11:46:38Z</time>
      </trkpt>
      <trkpt lat="44.3875" lon="6.39987">
        <ele>2125</ele>
        <time>2018-08-10T11:46:40Z</time>
      </trkpt>
      <trkpt lat="44.38753" lon="6.39985">
        <ele>2125.4</ele>
        <time>2018-08-10T11:46:46Z</time>
      </trkpt>
      <trkpt lat="44.38756" lon="6.39986">
        <ele>2125.8</ele>
        <time>2018-08-10T11:46:50Z</time>
      </trkpt>
      <trkpt lat="44.38759" lon="6.39983">
        <ele>2126.2</ele>
        <time>2018-08-10T11:46:55Z</time>
      </trkpt>
      <trkpt lat="44.38761" lon="6.39983">
        <ele>2126.4</ele>
        <time>2018-08-10T11:46:59Z</time>
      </trkpt>
      <trkpt lat="44.38765" lon="6.39984">
        <ele>2126.7</ele>
        <time>2018-08-10T11:47:03Z</time>
      </trkpt>
      <trkpt lat="44.38767" lon="6.39985">
        <ele>2126.9</ele>
        <time>2018-08-10T11:47:06Z</time>
      </trkpt>
      <trkpt lat="44.38771" lon="6.39986">
        <ele>2127.1</ele>
        <time>2018-08-10T11:47:09Z</time>
      </trkpt>
      <trkpt lat="44.38774" lon="6.39988">
        <ele>2127.4</ele>
        <time>2018-08-10T11:47:14Z</time>
      </trkpt>
      <trkpt lat="44.38777" lon="6.39988">
        <ele>2127.7</ele>
        <time>2018-08-10T11:47:17Z</time>
      </trkpt>
      <trkpt lat="44.38779" lon="6.39987">
        <ele>2128</ele>
        <time>2018-08-10T11:47:20Z</time>
      </trkpt>
      <trkpt lat="44.38783" lon="6.39987">
        <ele>2128.5</ele>
        <time>2018-08-10T11:47:24Z</time>
      </trkpt>
      <trkpt lat="44.38785" lon="6.39985">
        <ele>2128.8</ele>
        <time>2018-08-10T11:47:27Z</time>
      </trkpt>
      <trkpt lat="44.38789" lon="6.39985">
        <ele>2129.1</ele>
        <time>2018-08-10T11:47:31Z</time>
      </trkpt>
      <trkpt lat="44.38792" lon="6.39987">
        <ele>2129.3</ele>
        <time>2018-08-10T11:47:35Z</time>
      </trkpt>
      <trkpt lat="44.38796" lon="6.39987">
        <ele>2129.6</ele>
        <time>2018-08-10T11:47:38Z</time>
      </trkpt>
      <trkpt lat="44.38798" lon="6.39985">
        <ele>2129.9</ele>
        <time>2018-08-10T11:47:41Z</time>
      </trkpt>
      <trkpt lat="44.38802" lon="6.39984">
        <ele>2130.2</ele>
        <time>2018-08-10T11:47:46Z</time>
      </trkpt>
      <trkpt lat="44.38804" lon="6.39986">
        <ele>2130.6</ele>
        <time>2018-08-10T11:47:48Z</time>
      </trkpt>
      <trkpt lat="44.38807" lon="6.39986">
        <ele>2131.1</ele>
        <time>2018-08-10T11:47:53Z</time>
      </trkpt>
      <trkpt lat="44.38811" lon="6.39985">
        <ele>2131.7</ele>
        <time>2018-08-10T11:47:57Z</time>
      </trkpt>
      <trkpt lat="44.38814" lon="6.39981">
        <ele>2132.2</ele>
        <time>2018-08-10T11:48:01Z</time>
      </trkpt>
      <trkpt lat="44.38817" lon="6.3998">
        <ele>2132.6</ele>
        <time>2018-08-10T11:48:06Z</time>
      </trkpt>
      <trkpt lat="44.3882" lon="6.39979">
        <ele>2132.9</ele>
        <time>2018-08-10T11:48:09Z</time>
      </trkpt>
      <trkpt lat="44.38823" lon="6.3998">
        <ele>2133.3</ele>
        <time>2018-08-10T11:48:14Z</time>
      </trkpt>
      <trkpt lat="44.38825" lon="6.3998">
        <ele>2133.6</ele>
        <time>2018-08-10T11:48:17Z</time>
      </trkpt>
      <trkpt lat="44.38828" lon="6.39981">
        <ele>2133.9</ele>
        <time>2018-08-10T11:48:20Z</time>
      </trkpt>
      <trkpt lat="44.38831" lon="6.3998">
        <ele>2134.2</ele>
        <time>2018-08-10T11:48:24Z</time>
      </trkpt>
      <trkpt lat="44.38834" lon="6.3998">
        <ele>2134.4</ele>
        <time>2018-08-10T11:48:27Z</time>
      </trkpt>
      <trkpt lat="44.38838" lon="6.39981">
        <ele>2134.7</ele>
        <time>2018-08-10T11:48:33Z</time>
      </trkpt>
      <trkpt lat="44.38841" lon="6.39981">
        <ele>2135.2</ele>
        <time>2018-08-10T11:48:36Z</time>
      </trkpt>
      <trkpt lat="44.38845" lon="6.39982">
        <ele>2135.8</ele>
        <time>2018-08-10T11:48:38Z</time>
      </trkpt>
      <trkpt lat="44.38848" lon="6.39982">
        <ele>2136.4</ele>
        <time>2018-08-10T11:48:39Z</time>
      </trkpt>
      <trkpt lat="44.38852" lon="6.39984">
        <ele>2137.1</ele>
        <time>2018-08-10T11:48:40Z</time>
      </trkpt>
      <trkpt lat="44.38856" lon="6.39985">
        <ele>2137.7</ele>
        <time>2018-08-10T11:48:41Z</time>
      </trkpt>
      <trkpt lat="44.3886" lon="6.39986">
        <ele>2138.5</ele>
        <time>2018-08-10T11:48:42Z</time>
      </trkpt>
      <trkpt lat="44.38865" lon="6.39985">
        <ele>2139.3</ele>
        <time>2018-08-10T11:48:43Z</time>
      </trkpt>
      <trkpt lat="44.3887" lon="6.39984">
        <ele>2140.1</ele>
        <time>2018-08-10T11:48:44Z</time>
      </trkpt>
      <trkpt lat="44.38875" lon="6.39983">
        <ele>2140.9</ele>
        <time>2018-08-10T11:48:45Z</time>
      </trkpt>
      <trkpt lat="44.38879" lon="6.39983">
        <ele>2141.6</ele>
        <time>2018-08-10T11:48:46Z</time>
      </trkpt>
      <trkpt lat="44.38882" lon="6.39983">
        <ele>2142.2</ele>
        <time>2018-08-10T11:48:47Z</time>
      </trkpt>
      <trkpt lat="44.38887" lon="6.39984">
        <ele>2142.9</ele>
        <time>2018-08-10T11:48:49Z</time>
      </trkpt>
      <trkpt lat="44.38891" lon="6.39981">
        <ele>2143.5</ele>
        <time>2018-08-10T11:48:51Z</time>
      </trkpt>
      <trkpt lat="44.38895" lon="6.3998">
        <ele>2144</ele>
        <time>2018-08-10T11:48:54Z</time>
      </trkpt>
      <trkpt lat="44.38899" lon="6.39981">
        <ele>2144.8</ele>
        <time>2018-08-10T11:48:57Z</time>
      </trkpt>
      <trkpt lat="44.38902" lon="6.39979">
        <ele>2145.3</ele>
        <time>2018-08-10T11:48:59Z</time>
      </trkpt>
      <trkpt lat="44.38905" lon="6.39979">
        <ele>2146.2</ele>
        <time>2018-08-10T11:49:01Z</time>
      </trkpt>
      <trkpt lat="44.38908" lon="6.39976">
        <ele>2146.9</ele>
        <time>2018-08-10T11:49:13Z</time>
      </trkpt>
      <trkpt lat="44.38908" lon="6.39973">
        <ele>2147.7</ele>
        <time>2018-08-10T11:50:20Z</time>
      </trkpt>
      <trkpt lat="44.38911" lon="6.39974">
        <ele>2148</ele>
        <time>2018-08-10T11:50:25Z</time>
      </trkpt>
      <trkpt lat="44.38913" lon="6.39975">
        <ele>2148.4</ele>
        <time>2018-08-10T11:50:32Z</time>
      </trkpt>
      <trkpt lat="44.38917" lon="6.39976">
        <ele>2148.9</ele>
        <time>2018-08-10T11:50:38Z</time>
      </trkpt>
      <trkpt lat="44.3892" lon="6.39978">
        <ele>2148.8</ele>
        <time>2018-08-10T11:50:39Z</time>
      </trkpt>
      <trkpt lat="44.38922" lon="6.39981">
        <ele>2148.8</ele>
        <time>2018-08-10T11:50:41Z</time>
      </trkpt>
      <trkpt lat="44.38924" lon="6.39984">
        <ele>2148.8</ele>
        <time>2018-08-10T11:50:43Z</time>
      </trkpt>
      <trkpt lat="44.38925" lon="6.39988">
        <ele>2148.8</ele>
        <time>2018-08-10T11:50:45Z</time>
      </trkpt>
      <trkpt lat="44.38927" lon="6.39992">
        <ele>2148.9</ele>
        <time>2018-08-10T11:50:47Z</time>
      </trkpt>
      <trkpt lat="44.3893" lon="6.39994">
        <ele>2148.8</ele>
        <time>2018-08-10T11:50:49Z</time>
      </trkpt>
      <trkpt lat="44.38933" lon="6.39997">
        <ele>2148.5</ele>
        <time>2018-08-10T11:50:51Z</time>
      </trkpt>
      <trkpt lat="44.38935" lon="6.4">
        <ele>2148.3</ele>
        <time>2018-08-10T11:50:53Z</time>
      </trkpt>
      <trkpt lat="44.38938" lon="6.40002">
        <ele>2148.1</ele>
        <time>2018-08-10T11:50:55Z</time>
      </trkpt>
      <trkpt lat="44.38941" lon="6.40005">
        <ele>2148.2</ele>
        <time>2018-08-10T11:50:58Z</time>
      </trkpt>
      <trkpt lat="44.38943" lon="6.40009">
        <ele>2148.2</ele>
        <time>2018-08-10T11:51:00Z</time>
      </trkpt>
      <trkpt lat="44.38945" lon="6.40012">
        <ele>2147.9</ele>
        <time>2018-08-10T11:51:02Z</time>
      </trkpt>
      <trkpt lat="44.38949" lon="6.40013">
        <ele>2147.5</ele>
        <time>2018-08-10T11:51:04Z</time>
      </trkpt>
      <trkpt lat="44.38952" lon="6.40016">
        <ele>2147</ele>
        <time>2018-08-10T11:51:06Z</time>
      </trkpt>
      <trkpt lat="44.38955" lon="6.4002">
        <ele>2146.6</ele>
        <time>2018-08-10T11:51:08Z</time>
      </trkpt>
      <trkpt lat="44.38957" lon="6.40023">
        <ele>2146.1</ele>
        <time>2018-08-10T11:51:10Z</time>
      </trkpt>
      <trkpt lat="44.38958" lon="6.40027">
        <ele>2145.9</ele>
        <time>2018-08-10T11:51:11Z</time>
      </trkpt>
      <trkpt lat="44.3896" lon="6.40032">
        <ele>2145.9</ele>
        <time>2018-08-10T11:51:13Z</time>
      </trkpt>
      <trkpt lat="44.38962" lon="6.40035">
        <ele>2145.9</ele>
        <time>2018-08-10T11:51:15Z</time>
      </trkpt>
      <trkpt lat="44.38963" lon="6.4004">
        <ele>2145.4</ele>
        <time>2018-08-10T11:51:17Z</time>
      </trkpt>
      <trkpt lat="44.38966" lon="6.40043">
        <ele>2145</ele>
        <time>2018-08-10T11:51:19Z</time>
      </trkpt>
      <trkpt lat="44.3897" lon="6.40045">
        <ele>2144.6</ele>
        <time>2018-08-10T11:51:22Z</time>
      </trkpt>
      <trkpt lat="44.38973" lon="6.40047">
        <ele>2144.5</ele>
        <time>2018-08-10T11:51:24Z</time>
      </trkpt>
      <trkpt lat="44.38978" lon="6.40047">
        <ele>2144.4</ele>
        <time>2018-08-10T11:51:26Z</time>
      </trkpt>
      <trkpt lat="44.38982" lon="6.40048">
        <ele>2144.2</ele>
        <time>2018-08-10T11:51:28Z</time>
      </trkpt>
      <trkpt lat="44.38984" lon="6.40047">
        <ele>2144</ele>
        <time>2018-08-10T11:51:29Z</time>
      </trkpt>
      <trkpt lat="44.38988" lon="6.40049">
        <ele>2144.2</ele>
        <time>2018-08-10T11:51:31Z</time>
      </trkpt>
      <trkpt lat="44.38991" lon="6.4005">
        <ele>2144.5</ele>
        <time>2018-08-10T11:51:33Z</time>
      </trkpt>
      <trkpt lat="44.38996" lon="6.40052">
        <ele>2144.7</ele>
        <time>2018-08-10T11:51:35Z</time>
      </trkpt>
      <trkpt lat="44.39" lon="6.40052">
        <ele>2144.5</ele>
        <time>2018-08-10T11:51:37Z</time>
      </trkpt>
      <trkpt lat="44.39003" lon="6.40053">
        <ele>2144.5</ele>
        <time>2018-08-10T11:51:40Z</time>
      </trkpt>
      <trkpt lat="44.39007" lon="6.40054">
        <ele>2144.8</ele>
        <time>2018-08-10T11:51:42Z</time>
      </trkpt>
      <trkpt lat="44.39011" lon="6.40055">
        <ele>2145</ele>
        <time>2018-08-10T11:51:44Z</time>
      </trkpt>
      <trkpt lat="44.39015" lon="6.40055">
        <ele>2144.7</ele>
        <time>2018-08-10T11:51:46Z</time>
      </trkpt>
      <trkpt lat="44.39018" lon="6.40056">
        <ele>2144.4</ele>
        <time>2018-08-10T11:51:48Z</time>
      </trkpt>
      <trkpt lat="44.39022" lon="6.40055">
        <ele>2144.5</ele>
        <time>2018-08-10T11:51:50Z</time>
      </trkpt>
      <trkpt lat="44.39026" lon="6.40057">
        <ele>2144.7</ele>
        <time>2018-08-10T11:51:52Z</time>
      </trkpt>
      <trkpt lat="44.39029" lon="6.40058">
        <ele>2144.6</ele>
        <time>2018-08-10T11:51:54Z</time>
      </trkpt>
      <trkpt lat="44.39033" lon="6.40059">
        <ele>2144.2</ele>
        <time>2018-08-10T11:51:56Z</time>
      </trkpt>
      <trkpt lat="44.39035" lon="6.4006">
        <ele>2143.9</ele>
        <time>2018-08-10T11:51:58Z</time>
      </trkpt>
      <trkpt lat="44.39037" lon="6.40064">
        <ele>2143.7</ele>
        <time>2018-08-10T11:52:00Z</time>
      </trkpt>
      <trkpt lat="44.39038" lon="6.40068">
        <ele>2143.4</ele>
        <time>2018-08-10T11:52:02Z</time>
      </trkpt>
      <trkpt lat="44.39041" lon="6.40069">
        <ele>2143.1</ele>
        <time>2018-08-10T11:52:05Z</time>
      </trkpt>
      <trkpt lat="44.39044" lon="6.40071">
        <ele>2142.9</ele>
        <time>2018-08-10T11:52:07Z</time>
      </trkpt>
      <trkpt lat="44.39046" lon="6.40072">
        <ele>2142.8</ele>
        <time>2018-08-10T11:52:09Z</time>
      </trkpt>
      <trkpt lat="44.3905" lon="6.40073">
        <ele>2142.5</ele>
        <time>2018-08-10T11:52:12Z</time>
      </trkpt>
      <trkpt lat="44.39053" lon="6.40075">
        <ele>2142.3</ele>
        <time>2018-08-10T11:52:21Z</time>
      </trkpt>
      <trkpt lat="44.39057" lon="6.40076">
        <ele>2142.1</ele>
        <time>2018-08-10T11:52:25Z</time>
      </trkpt>
      <trkpt lat="44.3906" lon="6.40077">
        <ele>2142</ele>
        <time>2018-08-10T11:52:28Z</time>
      </trkpt>
      <trkpt lat="44.39063" lon="6.40077">
        <ele>2141.9</ele>
        <time>2018-08-10T11:52:35Z</time>
      </trkpt>
      <trkpt lat="44.39067" lon="6.40079">
        <ele>2141.8</ele>
        <time>2018-08-10T11:52:38Z</time>
      </trkpt>
      <trkpt lat="44.3907" lon="6.40079">
        <ele>2141.7</ele>
        <time>2018-08-10T11:52:41Z</time>
      </trkpt>
      <trkpt lat="44.39073" lon="6.4008">
        <ele>2141.7</ele>
        <time>2018-08-10T11:52:47Z</time>
      </trkpt>
      <trkpt lat="44.39076" lon="6.4008">
        <ele>2141.7</ele>
        <time>2018-08-10T11:52:50Z</time>
      </trkpt>
      <trkpt lat="44.39079" lon="6.40081">
        <ele>2141.8</ele>
        <time>2018-08-10T11:52:52Z</time>
      </trkpt>
      <trkpt lat="44.39082" lon="6.4008">
        <ele>2142</ele>
        <time>2018-08-10T11:52:54Z</time>
      </trkpt>
      <trkpt lat="44.39086" lon="6.40078">
        <ele>2142.3</ele>
        <time>2018-08-10T11:52:57Z</time>
      </trkpt>
      <trkpt lat="44.39089" lon="6.40077">
        <ele>2142.6</ele>
        <time>2018-08-10T11:53:04Z</time>
      </trkpt>
      <trkpt lat="44.39092" lon="6.40076">
        <ele>2142.9</ele>
        <time>2018-08-10T11:53:10Z</time>
      </trkpt>
      <trkpt lat="44.39095" lon="6.40078">
        <ele>2143.2</ele>
        <time>2018-08-10T11:53:15Z</time>
      </trkpt>
      <trkpt lat="44.39097" lon="6.4008">
        <ele>2143.5</ele>
        <time>2018-08-10T11:53:17Z</time>
      </trkpt>
      <trkpt lat="44.39101" lon="6.40081">
        <ele>2144</ele>
        <time>2018-08-10T11:53:20Z</time>
      </trkpt>
      <trkpt lat="44.39105" lon="6.40082">
        <ele>2144.3</ele>
        <time>2018-08-10T11:53:23Z</time>
      </trkpt>
      <trkpt lat="44.39108" lon="6.4008">
        <ele>2144.4</ele>
        <time>2018-08-10T11:53:25Z</time>
      </trkpt>
      <trkpt lat="44.39111" lon="6.40081">
        <ele>2144.5</ele>
        <time>2018-08-10T11:53:33Z</time>
      </trkpt>
      <trkpt lat="44.39115" lon="6.40081">
        <ele>2144.5</ele>
        <time>2018-08-10T11:53:40Z</time>
      </trkpt>
      <trkpt lat="44.39118" lon="6.40082">
        <ele>2144.6</ele>
        <time>2018-08-10T11:53:43Z</time>
      </trkpt>
      <trkpt lat="44.39122" lon="6.40082">
        <ele>2144.8</ele>
        <time>2018-08-10T11:53:48Z</time>
      </trkpt>
      <trkpt lat="44.39124" lon="6.40079">
        <ele>2145</ele>
        <time>2018-08-10T11:53:50Z</time>
      </trkpt>
      <trkpt lat="44.39127" lon="6.40076">
        <ele>2145</ele>
        <time>2018-08-10T11:53:53Z</time>
      </trkpt>
      <trkpt lat="44.3913" lon="6.40074">
        <ele>2145</ele>
        <time>2018-08-10T11:53:56Z</time>
      </trkpt>
      <trkpt lat="44.39133" lon="6.40072">
        <ele>2145</ele>
        <time>2018-08-10T11:54:02Z</time>
      </trkpt>
      <trkpt lat="44.39136" lon="6.4007">
        <ele>2144.6</ele>
        <time>2018-08-10T11:54:05Z</time>
      </trkpt>
      <trkpt lat="44.3914" lon="6.40069">
        <ele>2144.1</ele>
        <time>2018-08-10T11:54:07Z</time>
      </trkpt>
      <trkpt lat="44.39144" lon="6.40068">
        <ele>2143.7</ele>
        <time>2018-08-10T11:54:09Z</time>
      </trkpt>
      <trkpt lat="44.39149" lon="6.40069">
        <ele>2143.3</ele>
        <time>2018-08-10T11:54:11Z</time>
      </trkpt>
      <trkpt lat="44.39153" lon="6.4007">
        <ele>2142.8</ele>
        <time>2018-08-10T11:54:13Z</time>
      </trkpt>
      <trkpt lat="44.39158" lon="6.40071">
        <ele>2142.3</ele>
        <time>2018-08-10T11:54:16Z</time>
      </trkpt>
      <trkpt lat="44.39162" lon="6.40073">
        <ele>2141.6</ele>
        <time>2018-08-10T11:54:18Z</time>
      </trkpt>
      <trkpt lat="44.39166" lon="6.40072">
        <ele>2141.1</ele>
        <time>2018-08-10T11:54:20Z</time>
      </trkpt>
      <trkpt lat="44.39169" lon="6.40073">
        <ele>2140.6</ele>
        <time>2018-08-10T11:54:22Z</time>
      </trkpt>
      <trkpt lat="44.3917" lon="6.40069">
        <ele>2140.6</ele>
        <time>2018-08-10T11:54:30Z</time>
      </trkpt>
      <trkpt lat="44.39169" lon="6.40064">
        <ele>2140.7</ele>
        <time>2018-08-10T11:55:14Z</time>
      </trkpt>
      <trkpt lat="44.39169" lon="6.40058">
        <ele>2140.8</ele>
        <time>2018-08-10T11:55:16Z</time>
      </trkpt>
      <trkpt lat="44.39169" lon="6.40051">
        <ele>2140.8</ele>
        <time>2018-08-10T11:55:18Z</time>
      </trkpt>
      <trkpt lat="44.39169" lon="6.40046">
        <ele>2140.7</ele>
        <time>2018-08-10T11:55:19Z</time>
      </trkpt>
      <trkpt lat="44.39169" lon="6.40041">
        <ele>2140.4</ele>
        <time>2018-08-10T11:55:20Z</time>
      </trkpt>
      <trkpt lat="44.3917" lon="6.40036">
        <ele>2140.1</ele>
        <time>2018-08-10T11:55:21Z</time>
      </trkpt>
      <trkpt lat="44.39172" lon="6.40031">
        <ele>2139.7</ele>
        <time>2018-08-10T11:55:22Z</time>
      </trkpt>
      <trkpt lat="44.39177" lon="6.40026">
        <ele>2138.8</ele>
        <time>2018-08-10T11:55:23Z</time>
      </trkpt>
      <trkpt lat="44.39178" lon="6.40021">
        <ele>2138.2</ele>
        <time>2018-08-10T11:55:24Z</time>
      </trkpt>
      <trkpt lat="44.39181" lon="6.40018">
        <ele>2137.7</ele>
        <time>2018-08-10T11:55:25Z</time>
      </trkpt>
      <trkpt lat="44.39186" lon="6.40015">
        <ele>2136.9</ele>
        <time>2018-08-10T11:55:27Z</time>
      </trkpt>
      <trkpt lat="44.39189" lon="6.40013">
        <ele>2136.3</ele>
        <time>2018-08-10T11:55:28Z</time>
      </trkpt>
      <trkpt lat="44.39191" lon="6.4001">
        <ele>2135.7</ele>
        <time>2018-08-10T11:55:29Z</time>
      </trkpt>
      <trkpt lat="44.39194" lon="6.40007">
        <ele>2135</ele>
        <time>2018-08-10T11:55:30Z</time>
      </trkpt>
      <trkpt lat="44.39197" lon="6.40005">
        <ele>2134.4</ele>
        <time>2018-08-10T11:55:31Z</time>
      </trkpt>
      <trkpt lat="44.39199" lon="6.40001">
        <ele>2133.9</ele>
        <time>2018-08-10T11:55:32Z</time>
      </trkpt>
      <trkpt lat="44.39202" lon="6.39997">
        <ele>2133.1</ele>
        <time>2018-08-10T11:55:33Z</time>
      </trkpt>
      <trkpt lat="44.39204" lon="6.39992">
        <ele>2132.4</ele>
        <time>2018-08-10T11:55:34Z</time>
      </trkpt>
      <trkpt lat="44.39206" lon="6.39988">
        <ele>2131.8</ele>
        <time>2018-08-10T11:55:35Z</time>
      </trkpt>
      <trkpt lat="44.39209" lon="6.39985">
        <ele>2131.1</ele>
        <time>2018-08-10T11:55:36Z</time>
      </trkpt>
      <trkpt lat="44.39212" lon="6.39985">
        <ele>2130.4</ele>
        <time>2018-08-10T11:55:37Z</time>
      </trkpt>
      <trkpt lat="44.39217" lon="6.39985">
        <ele>2129.5</ele>
        <time>2018-08-10T11:55:38Z</time>
      </trkpt>
      <trkpt lat="44.39221" lon="6.39987">
        <ele>2128.6</ele>
        <time>2018-08-10T11:55:39Z</time>
      </trkpt>
      <trkpt lat="44.39225" lon="6.39988">
        <ele>2127.9</ele>
        <time>2018-08-10T11:55:40Z</time>
      </trkpt>
      <trkpt lat="44.39229" lon="6.39988">
        <ele>2127.2</ele>
        <time>2018-08-10T11:55:41Z</time>
      </trkpt>
      <trkpt lat="44.39232" lon="6.39987">
        <ele>2126.7</ele>
        <time>2018-08-10T11:55:42Z</time>
      </trkpt>
      <trkpt lat="44.39235" lon="6.39984">
        <ele>2126.1</ele>
        <time>2018-08-10T11:55:43Z</time>
      </trkpt>
      <trkpt lat="44.39237" lon="6.3998">
        <ele>2125.5</ele>
        <time>2018-08-10T11:55:44Z</time>
      </trkpt>
      <trkpt lat="44.39239" lon="6.39976">
        <ele>2125</ele>
        <time>2018-08-10T11:55:45Z</time>
      </trkpt>
      <trkpt lat="44.39241" lon="6.39973">
        <ele>2124.6</ele>
        <time>2018-08-10T11:55:46Z</time>
      </trkpt>
      <trkpt lat="44.39242" lon="6.39968">
        <ele>2124.1</ele>
        <time>2018-08-10T11:55:48Z</time>
      </trkpt>
      <trkpt lat="44.39245" lon="6.39964">
        <ele>2123.7</ele>
        <time>2018-08-10T11:55:51Z</time>
      </trkpt>
      <trkpt lat="44.39247" lon="6.3996">
        <ele>2123.4</ele>
        <time>2018-08-10T11:55:53Z</time>
      </trkpt>
      <trkpt lat="44.39249" lon="6.39956">
        <ele>2123</ele>
        <time>2018-08-10T11:55:55Z</time>
      </trkpt>
      <trkpt lat="44.3925" lon="6.39953">
        <ele>2122.7</ele>
        <time>2018-08-10T11:55:57Z</time>
      </trkpt>
      <trkpt lat="44.39252" lon="6.39949">
        <ele>2122.3</ele>
        <time>2018-08-10T11:55:59Z</time>
      </trkpt>
      <trkpt lat="44.39254" lon="6.39945">
        <ele>2121.9</ele>
        <time>2018-08-10T11:56:01Z</time>
      </trkpt>
      <trkpt lat="44.39255" lon="6.39941">
        <ele>2121.9</ele>
        <time>2018-08-10T11:56:03Z</time>
      </trkpt>
      <trkpt lat="44.39256" lon="6.39937">
        <ele>2121.9</ele>
        <time>2018-08-10T11:56:05Z</time>
      </trkpt>
      <trkpt lat="44.39257" lon="6.39933">
        <ele>2121.9</ele>
        <time>2018-08-10T11:56:07Z</time>
      </trkpt>
      <trkpt lat="44.39259" lon="6.39929">
        <ele>2121.9</ele>
        <time>2018-08-10T11:56:09Z</time>
      </trkpt>
      <trkpt lat="44.39261" lon="6.39924">
        <ele>2121.9</ele>
        <time>2018-08-10T11:56:12Z</time>
      </trkpt>
      <trkpt lat="44.39262" lon="6.3992">
        <ele>2121.9</ele>
        <time>2018-08-10T11:56:14Z</time>
      </trkpt>
      <trkpt lat="44.39264" lon="6.39915">
        <ele>2121.9</ele>
        <time>2018-08-10T11:56:16Z</time>
      </trkpt>
      <trkpt lat="44.39266" lon="6.39912">
        <ele>2122</ele>
        <time>2018-08-10T11:56:18Z</time>
      </trkpt>
      <trkpt lat="44.39267" lon="6.39908">
        <ele>2122</ele>
        <time>2018-08-10T11:56:21Z</time>
      </trkpt>
      <trkpt lat="44.39269" lon="6.39905">
        <ele>2122</ele>
        <time>2018-08-10T11:56:47Z</time>
      </trkpt>
      <trkpt lat="44.39271" lon="6.39901">
        <ele>2122</ele>
        <time>2018-08-10T11:56:49Z</time>
      </trkpt>
      <trkpt lat="44.39271" lon="6.39896">
        <ele>2122.1</ele>
        <time>2018-08-10T11:56:51Z</time>
      </trkpt>
      <trkpt lat="44.39271" lon="6.39891">
        <ele>2122.4</ele>
        <time>2018-08-10T11:56:53Z</time>
      </trkpt>
      <trkpt lat="44.39273" lon="6.39887">
        <ele>2122.6</ele>
        <time>2018-08-10T11:56:55Z</time>
      </trkpt>
      <trkpt lat="44.39276" lon="6.39882">
        <ele>2123.1</ele>
        <time>2018-08-10T11:56:57Z</time>
      </trkpt>
      <trkpt lat="44.39278" lon="6.39879">
        <ele>2123.5</ele>
        <time>2018-08-10T11:56:59Z</time>
      </trkpt>
      <trkpt lat="44.3928" lon="6.39874">
        <ele>2123.8</ele>
        <time>2018-08-10T11:57:01Z</time>
      </trkpt>
      <trkpt lat="44.39281" lon="6.39869">
        <ele>2124.2</ele>
        <time>2018-08-10T11:57:03Z</time>
      </trkpt>
      <trkpt lat="44.39283" lon="6.39865">
        <ele>2124.5</ele>
        <time>2018-08-10T11:57:05Z</time>
      </trkpt>
      <trkpt lat="44.39284" lon="6.3986">
        <ele>2124.8</ele>
        <time>2018-08-10T11:57:07Z</time>
      </trkpt>
      <trkpt lat="44.39286" lon="6.39855">
        <ele>2125.2</ele>
        <time>2018-08-10T11:57:10Z</time>
      </trkpt>
      <trkpt lat="44.39288" lon="6.39852">
        <ele>2125.6</ele>
        <time>2018-08-10T11:57:12Z</time>
      </trkpt>
      <trkpt lat="44.39287" lon="6.39847">
        <ele>2126.2</ele>
        <time>2018-08-10T11:57:17Z</time>
      </trkpt>
      <trkpt lat="44.39287" lon="6.39844">
        <ele>2126.5</ele>
        <time>2018-08-10T11:57:20Z</time>
      </trkpt>
      <trkpt lat="44.39289" lon="6.3984">
        <ele>2126.9</ele>
        <time>2018-08-10T11:57:25Z</time>
      </trkpt>
      <trkpt lat="44.39289" lon="6.39835">
        <ele>2127.2</ele>
        <time>2018-08-10T11:57:36Z</time>
      </trkpt>
      <trkpt lat="44.39288" lon="6.39831">
        <ele>2127.6</ele>
        <time>2018-08-10T11:57:41Z</time>
      </trkpt>
      <trkpt lat="44.39288" lon="6.39827">
        <ele>2128.1</ele>
        <time>2018-08-10T11:57:45Z</time>
      </trkpt>
      <trkpt lat="44.39289" lon="6.39823">
        <ele>2128.6</ele>
        <time>2018-08-10T11:57:49Z</time>
      </trkpt>
      <trkpt lat="44.3929" lon="6.39818">
        <ele>2129</ele>
        <time>2018-08-10T11:57:53Z</time>
      </trkpt>
      <trkpt lat="44.3929" lon="6.39814">
        <ele>2129.1</ele>
        <time>2018-08-10T11:57:57Z</time>
      </trkpt>
      <trkpt lat="44.39292" lon="6.39809">
        <ele>2129.4</ele>
        <time>2018-08-10T11:58:01Z</time>
      </trkpt>
      <trkpt lat="44.39295" lon="6.39806">
        <ele>2129.7</ele>
        <time>2018-08-10T11:58:04Z</time>
      </trkpt>
      <trkpt lat="44.39297" lon="6.39803">
        <ele>2129.9</ele>
        <time>2018-08-10T11:58:07Z</time>
      </trkpt>
      <trkpt lat="44.39299" lon="6.39798">
        <ele>2130.3</ele>
        <time>2018-08-10T11:58:11Z</time>
      </trkpt>
      <trkpt lat="44.39302" lon="6.39796">
        <ele>2130.7</ele>
        <time>2018-08-10T11:58:14Z</time>
      </trkpt>
      <trkpt lat="44.39304" lon="6.39793">
        <ele>2131.1</ele>
        <time>2018-08-10T11:58:17Z</time>
      </trkpt>
      <trkpt lat="44.39307" lon="6.39791">
        <ele>2131.3</ele>
        <time>2018-08-10T11:58:20Z</time>
      </trkpt>
      <trkpt lat="44.39309" lon="6.39788">
        <ele>2131.4</ele>
        <time>2018-08-10T11:58:23Z</time>
      </trkpt>
      <trkpt lat="44.39312" lon="6.39786">
        <ele>2131.6</ele>
        <time>2018-08-10T11:58:27Z</time>
      </trkpt>
      <trkpt lat="44.39314" lon="6.39783">
        <ele>2131.5</ele>
        <time>2018-08-10T11:58:34Z</time>
      </trkpt>
      <trkpt lat="44.39316" lon="6.3978">
        <ele>2131.5</ele>
        <time>2018-08-10T11:58:36Z</time>
      </trkpt>
      <trkpt lat="44.39318" lon="6.39775">
        <ele>2131.5</ele>
        <time>2018-08-10T11:58:38Z</time>
      </trkpt>
      <trkpt lat="44.3932" lon="6.39771">
        <ele>2131.6</ele>
        <time>2018-08-10T11:58:40Z</time>
      </trkpt>
      <trkpt lat="44.39323" lon="6.39766">
        <ele>2131.7</ele>
        <time>2018-08-10T11:58:42Z</time>
      </trkpt>
      <trkpt lat="44.39327" lon="6.39761">
        <ele>2131.6</ele>
        <time>2018-08-10T11:58:44Z</time>
      </trkpt>
      <trkpt lat="44.39332" lon="6.39759">
        <ele>2131.5</ele>
        <time>2018-08-10T11:58:46Z</time>
      </trkpt>
      <trkpt lat="44.39337" lon="6.39758">
        <ele>2131.4</ele>
        <time>2018-08-10T11:58:48Z</time>
      </trkpt>
      <trkpt lat="44.39341" lon="6.39757">
        <ele>2131.4</ele>
        <time>2018-08-10T11:58:49Z</time>
      </trkpt>
      <trkpt lat="44.39345" lon="6.39754">
        <ele>2131.4</ele>
        <time>2018-08-10T11:58:50Z</time>
      </trkpt>
      <trkpt lat="44.39348" lon="6.39753">
        <ele>2131.5</ele>
        <time>2018-08-10T11:58:51Z</time>
      </trkpt>
      <trkpt lat="44.39351" lon="6.39752">
        <ele>2131.7</ele>
        <time>2018-08-10T11:58:52Z</time>
      </trkpt>
      <trkpt lat="44.39355" lon="6.39752">
        <ele>2131.9</ele>
        <time>2018-08-10T11:58:54Z</time>
      </trkpt>
      <trkpt lat="44.39358" lon="6.3975">
        <ele>2132</ele>
        <time>2018-08-10T11:58:56Z</time>
      </trkpt>
      <trkpt lat="44.39363" lon="6.39747">
        <ele>2132.1</ele>
        <time>2018-08-10T11:58:58Z</time>
      </trkpt>
      <trkpt lat="44.39367" lon="6.39745">
        <ele>2132</ele>
        <time>2018-08-10T11:59:00Z</time>
      </trkpt>
      <trkpt lat="44.3937" lon="6.39744">
        <ele>2132</ele>
        <time>2018-08-10T11:59:02Z</time>
      </trkpt>
      <trkpt lat="44.39372" lon="6.39742">
        <ele>2132</ele>
        <time>2018-08-10T11:59:04Z</time>
      </trkpt>
      <trkpt lat="44.39376" lon="6.39741">
        <ele>2131.8</ele>
        <time>2018-08-10T11:59:06Z</time>
      </trkpt>
      <trkpt lat="44.3938" lon="6.39738">
        <ele>2131.6</ele>
        <time>2018-08-10T11:59:09Z</time>
      </trkpt>
      <trkpt lat="44.39382" lon="6.39736">
        <ele>2131.6</ele>
        <time>2018-08-10T11:59:10Z</time>
      </trkpt>
      <trkpt lat="44.39386" lon="6.39733">
        <ele>2131.5</ele>
        <time>2018-08-10T11:59:12Z</time>
      </trkpt>
      <trkpt lat="44.3939" lon="6.39731">
        <ele>2131.6</ele>
        <time>2018-08-10T11:59:14Z</time>
      </trkpt>
      <trkpt lat="44.39394" lon="6.39729">
        <ele>2131.7</ele>
        <time>2018-08-10T11:59:16Z</time>
      </trkpt>
      <trkpt lat="44.39398" lon="6.39727">
        <ele>2131.9</ele>
        <time>2018-08-10T11:59:18Z</time>
      </trkpt>
      <trkpt lat="44.39402" lon="6.39726">
        <ele>2132.1</ele>
        <time>2018-08-10T11:59:20Z</time>
      </trkpt>
      <trkpt lat="44.39406" lon="6.39724">
        <ele>2132.4</ele>
        <time>2018-08-10T11:59:22Z</time>
      </trkpt>
      <trkpt lat="44.3941" lon="6.39723">
        <ele>2132.7</ele>
        <time>2018-08-10T11:59:24Z</time>
      </trkpt>
      <trkpt lat="44.39414" lon="6.39723">
        <ele>2133</ele>
        <time>2018-08-10T11:59:26Z</time>
      </trkpt>
      <trkpt lat="44.39417" lon="6.39723">
        <ele>2133.1</ele>
        <time>2018-08-10T11:59:28Z</time>
      </trkpt>
      <trkpt lat="44.3942" lon="6.39722">
        <ele>2133.3</ele>
        <time>2018-08-10T11:59:30Z</time>
      </trkpt>
      <trkpt lat="44.39423" lon="6.39722">
        <ele>2133.5</ele>
        <time>2018-08-10T11:59:32Z</time>
      </trkpt>
      <trkpt lat="44.39427" lon="6.39719">
        <ele>2134</ele>
        <time>2018-08-10T11:59:34Z</time>
      </trkpt>
      <trkpt lat="44.39431" lon="6.39718">
        <ele>2134.5</ele>
        <time>2018-08-10T11:59:37Z</time>
      </trkpt>
      <trkpt lat="44.39434" lon="6.39718">
        <ele>2134.8</ele>
        <time>2018-08-10T11:59:39Z</time>
      </trkpt>
      <trkpt lat="44.39437" lon="6.39717">
        <ele>2135.1</ele>
        <time>2018-08-10T11:59:42Z</time>
      </trkpt>
      <trkpt lat="44.3944" lon="6.39717">
        <ele>2135.5</ele>
        <time>2018-08-10T11:59:44Z</time>
      </trkpt>
      <trkpt lat="44.39443" lon="6.39717">
        <ele>2135.9</ele>
        <time>2018-08-10T11:59:47Z</time>
      </trkpt>
      <trkpt lat="44.39447" lon="6.39717">
        <ele>2136.4</ele>
        <time>2018-08-10T11:59:51Z</time>
      </trkpt>
      <trkpt lat="44.3945" lon="6.39718">
        <ele>2136.7</ele>
        <time>2018-08-10T11:59:54Z</time>
      </trkpt>
      <trkpt lat="44.39452" lon="6.39719">
        <ele>2136.9</ele>
        <time>2018-08-10T11:59:57Z</time>
      </trkpt>
      <trkpt lat="44.39456" lon="6.39718">
        <ele>2137.1</ele>
        <time>2018-08-10T12:00:00Z</time>
      </trkpt>
      <trkpt lat="44.39459" lon="6.39717">
        <ele>2137</ele>
        <time>2018-08-10T12:00:03Z</time>
      </trkpt>
      <trkpt lat="44.39462" lon="6.39716">
        <ele>2136.8</ele>
        <time>2018-08-10T12:00:06Z</time>
      </trkpt>
      <trkpt lat="44.39465" lon="6.39717">
        <ele>2136.8</ele>
        <time>2018-08-10T12:00:09Z</time>
      </trkpt>
      <trkpt lat="44.39468" lon="6.39717">
        <ele>2136.9</ele>
        <time>2018-08-10T12:00:12Z</time>
      </trkpt>
      <trkpt lat="44.39472" lon="6.39716">
        <ele>2137</ele>
        <time>2018-08-10T12:00:15Z</time>
      </trkpt>
      <trkpt lat="44.39476" lon="6.39716">
        <ele>2137.1</ele>
        <time>2018-08-10T12:00:18Z</time>
      </trkpt>
      <trkpt lat="44.39478" lon="6.39714">
        <ele>2137.3</ele>
        <time>2018-08-10T12:00:21Z</time>
      </trkpt>
      <trkpt lat="44.39481" lon="6.39713">
        <ele>2137.4</ele>
        <time>2018-08-10T12:00:24Z</time>
      </trkpt>
      <trkpt lat="44.39485" lon="6.39714">
        <ele>2137.6</ele>
        <time>2018-08-10T12:00:27Z</time>
      </trkpt>
      <trkpt lat="44.39488" lon="6.39715">
        <ele>2137.8</ele>
        <time>2018-08-10T12:00:31Z</time>
      </trkpt>
      <trkpt lat="44.39492" lon="6.39715">
        <ele>2137.9</ele>
        <time>2018-08-10T12:00:34Z</time>
      </trkpt>
      <trkpt lat="44.39495" lon="6.39714">
        <ele>2138</ele>
        <time>2018-08-10T12:00:37Z</time>
      </trkpt>
      <trkpt lat="44.39498" lon="6.39715">
        <ele>2138.2</ele>
        <time>2018-08-10T12:00:39Z</time>
      </trkpt>
      <trkpt lat="44.39502" lon="6.39715">
        <ele>2138.4</ele>
        <time>2018-08-10T12:00:42Z</time>
      </trkpt>
      <trkpt lat="44.39505" lon="6.39715">
        <ele>2138.7</ele>
        <time>2018-08-10T12:00:44Z</time>
      </trkpt>
      <trkpt lat="44.39509" lon="6.39715">
        <ele>2139.2</ele>
        <time>2018-08-10T12:00:46Z</time>
      </trkpt>
      <trkpt lat="44.39512" lon="6.39716">
        <ele>2139.6</ele>
        <time>2018-08-10T12:00:48Z</time>
      </trkpt>
      <trkpt lat="44.39515" lon="6.39716">
        <ele>2139.7</ele>
        <time>2018-08-10T12:00:50Z</time>
      </trkpt>
      <trkpt lat="44.39519" lon="6.39716">
        <ele>2139.8</ele>
        <time>2018-08-10T12:00:52Z</time>
      </trkpt>
      <trkpt lat="44.39523" lon="6.39716">
        <ele>2139.9</ele>
        <time>2018-08-10T12:00:54Z</time>
      </trkpt>
      <trkpt lat="44.39526" lon="6.39716">
        <ele>2139.9</ele>
        <time>2018-08-10T12:00:56Z</time>
      </trkpt>
      <trkpt lat="44.39529" lon="6.39717">
        <ele>2139.9</ele>
        <time>2018-08-10T12:00:58Z</time>
      </trkpt>
      <trkpt lat="44.39533" lon="6.39716">
        <ele>2139.9</ele>
        <time>2018-08-10T12:01:00Z</time>
      </trkpt>
      <trkpt lat="44.39536" lon="6.39715">
        <ele>2139.9</ele>
        <time>2018-08-10T12:01:02Z</time>
      </trkpt>
      <trkpt lat="44.39539" lon="6.39715">
        <ele>2139.9</ele>
        <time>2018-08-10T12:01:05Z</time>
      </trkpt>
      <trkpt lat="44.39542" lon="6.39715">
        <ele>2139.9</ele>
        <time>2018-08-10T12:01:08Z</time>
      </trkpt>
      <trkpt lat="44.39545" lon="6.39714">
        <ele>2140</ele>
        <time>2018-08-10T12:01:12Z</time>
      </trkpt>
      <trkpt lat="44.39548" lon="6.39713">
        <ele>2140</ele>
        <time>2018-08-10T12:01:21Z</time>
      </trkpt>
      <trkpt lat="44.3955" lon="6.39716">
        <ele>2139.6</ele>
        <time>2018-08-10T12:01:26Z</time>
      </trkpt>
      <trkpt lat="44.39553" lon="6.39718">
        <ele>2139.2</ele>
        <time>2018-08-10T12:01:28Z</time>
      </trkpt>
      <trkpt lat="44.39555" lon="6.39721">
        <ele>2138.9</ele>
        <time>2018-08-10T12:01:30Z</time>
      </trkpt>
      <trkpt lat="44.39557" lon="6.39724">
        <ele>2138.6</ele>
        <time>2018-08-10T12:01:32Z</time>
      </trkpt>
      <trkpt lat="44.3956" lon="6.39724">
        <ele>2138.2</ele>
        <time>2018-08-10T12:01:34Z</time>
      </trkpt>
      <trkpt lat="44.39563" lon="6.39724">
        <ele>2137.9</ele>
        <time>2018-08-10T12:01:36Z</time>
      </trkpt>
      <trkpt lat="44.39567" lon="6.39723">
        <ele>2138</ele>
        <time>2018-08-10T12:01:39Z</time>
      </trkpt>
      <trkpt lat="44.39571" lon="6.39724">
        <ele>2138.6</ele>
        <time>2018-08-10T12:01:42Z</time>
      </trkpt>
      <trkpt lat="44.39574" lon="6.39724">
        <ele>2139</ele>
        <time>2018-08-10T12:01:44Z</time>
      </trkpt>
      <trkpt lat="44.39575" lon="6.39721">
        <ele>2139.1</ele>
        <time>2018-08-10T12:01:48Z</time>
      </trkpt>
      <trkpt lat="44.39578" lon="6.39718">
        <ele>2139.3</ele>
        <time>2018-08-10T12:01:51Z</time>
      </trkpt>
      <trkpt lat="44.39581" lon="6.39716">
        <ele>2139.9</ele>
        <time>2018-08-10T12:02:04Z</time>
      </trkpt>
      <trkpt lat="44.39585" lon="6.39715">
        <ele>2140.7</ele>
        <time>2018-08-10T12:02:07Z</time>
      </trkpt>
      <trkpt lat="44.39589" lon="6.39715">
        <ele>2141.4</ele>
        <time>2018-08-10T12:02:09Z</time>
      </trkpt>
      <trkpt lat="44.39593" lon="6.39716">
        <ele>2141.7</ele>
        <time>2018-08-10T12:02:10Z</time>
      </trkpt>
      <trkpt lat="44.39595" lon="6.39716">
        <ele>2142</ele>
        <time>2018-08-10T12:02:11Z</time>
      </trkpt>
      <trkpt lat="44.396" lon="6.39717">
        <ele>2142.3</ele>
        <time>2018-08-10T12:02:13Z</time>
      </trkpt>
      <trkpt lat="44.39604" lon="6.39717">
        <ele>2142.5</ele>
        <time>2018-08-10T12:02:15Z</time>
      </trkpt>
      <trkpt lat="44.39608" lon="6.39716">
        <ele>2143.4</ele>
        <time>2018-08-10T12:02:17Z</time>
      </trkpt>
      <trkpt lat="44.39612" lon="6.39715">
        <ele>2144.4</ele>
        <time>2018-08-10T12:02:19Z</time>
      </trkpt>
      <trkpt lat="44.39615" lon="6.39714">
        <ele>2144.8</ele>
        <time>2018-08-10T12:02:21Z</time>
      </trkpt>
      <trkpt lat="44.39618" lon="6.39715">
        <ele>2145.1</ele>
        <time>2018-08-10T12:02:23Z</time>
      </trkpt>
      <trkpt lat="44.39621" lon="6.39715">
        <ele>2145.5</ele>
        <time>2018-08-10T12:02:25Z</time>
      </trkpt>
      <trkpt lat="44.39625" lon="6.39715">
        <ele>2145.8</ele>
        <time>2018-08-10T12:02:27Z</time>
      </trkpt>
      <trkpt lat="44.39629" lon="6.39715">
        <ele>2146.3</ele>
        <time>2018-08-10T12:02:29Z</time>
      </trkpt>
      <trkpt lat="44.39634" lon="6.39715">
        <ele>2146.6</ele>
        <time>2018-08-10T12:02:31Z</time>
      </trkpt>
      <trkpt lat="44.39639" lon="6.39714">
        <ele>2146.9</ele>
        <time>2018-08-10T12:02:33Z</time>
      </trkpt>
      <trkpt lat="44.39644" lon="6.39713">
        <ele>2147.4</ele>
        <time>2018-08-10T12:02:35Z</time>
      </trkpt>
      <trkpt lat="44.39649" lon="6.39712">
        <ele>2147.9</ele>
        <time>2018-08-10T12:02:37Z</time>
      </trkpt>
      <trkpt lat="44.39654" lon="6.39712">
        <ele>2148.3</ele>
        <time>2018-08-10T12:02:39Z</time>
      </trkpt>
      <trkpt lat="44.39658" lon="6.3971">
        <ele>2148.6</ele>
        <time>2018-08-10T12:02:41Z</time>
      </trkpt>
      <trkpt lat="44.39662" lon="6.39709">
        <ele>2148.8</ele>
        <time>2018-08-10T12:02:43Z</time>
      </trkpt>
      <trkpt lat="44.39666" lon="6.39709">
        <ele>2149</ele>
        <time>2018-08-10T12:02:45Z</time>
      </trkpt>
      <trkpt lat="44.39671" lon="6.39707">
        <ele>2149</ele>
        <time>2018-08-10T12:02:47Z</time>
      </trkpt>
      <trkpt lat="44.39676" lon="6.39706">
        <ele>2149.4</ele>
        <time>2018-08-10T12:02:49Z</time>
      </trkpt>
      <trkpt lat="44.3968" lon="6.39702">
        <ele>2150</ele>
        <time>2018-08-10T12:02:51Z</time>
      </trkpt>
      <trkpt lat="44.39684" lon="6.39701">
        <ele>2150.3</ele>
        <time>2018-08-10T12:02:53Z</time>
      </trkpt>
      <trkpt lat="44.39688" lon="6.397">
        <ele>2150.5</ele>
        <time>2018-08-10T12:02:55Z</time>
      </trkpt>
      <trkpt lat="44.3969" lon="6.39696">
        <ele>2150.6</ele>
        <time>2018-08-10T12:02:57Z</time>
      </trkpt>
      <trkpt lat="44.39693" lon="6.39696">
        <ele>2150.6</ele>
        <time>2018-08-10T12:03:00Z</time>
      </trkpt>
      <trkpt lat="44.39697" lon="6.39697">
        <ele>2150</ele>
        <time>2018-08-10T12:03:02Z</time>
      </trkpt>
      <trkpt lat="44.397" lon="6.39697">
        <ele>2149.5</ele>
        <time>2018-08-10T12:03:04Z</time>
      </trkpt>
      <trkpt lat="44.39704" lon="6.39699">
        <ele>2148.5</ele>
        <time>2018-08-10T12:03:06Z</time>
      </trkpt>
      <trkpt lat="44.39708" lon="6.397">
        <ele>2147.3</ele>
        <time>2018-08-10T12:03:08Z</time>
      </trkpt>
      <trkpt lat="44.39711" lon="6.39699">
        <ele>2146.9</ele>
        <time>2018-08-10T12:03:09Z</time>
      </trkpt>
      <trkpt lat="44.39716" lon="6.397">
        <ele>2146.2</ele>
        <time>2018-08-10T12:03:11Z</time>
      </trkpt>
      <trkpt lat="44.39719" lon="6.397">
        <ele>2145.5</ele>
        <time>2018-08-10T12:03:13Z</time>
      </trkpt>
      <trkpt lat="44.39724" lon="6.39698">
        <ele>2144.4</ele>
        <time>2018-08-10T12:03:15Z</time>
      </trkpt>
      <trkpt lat="44.39728" lon="6.39696">
        <ele>2142.9</ele>
        <time>2018-08-10T12:03:17Z</time>
      </trkpt>
      <trkpt lat="44.39731" lon="6.39693">
        <ele>2141.8</ele>
        <time>2018-08-10T12:03:19Z</time>
      </trkpt>
      <trkpt lat="44.39734" lon="6.39691">
        <ele>2141</ele>
        <time>2018-08-10T12:03:22Z</time>
      </trkpt>
      <trkpt lat="44.39736" lon="6.39688">
        <ele>2140.6</ele>
        <time>2018-08-10T12:03:26Z</time>
      </trkpt>
      <trkpt lat="44.39738" lon="6.39684">
        <ele>2140.1</ele>
        <time>2018-08-10T12:03:28Z</time>
      </trkpt>
      <trkpt lat="44.39742" lon="6.39681">
        <ele>2139.4</ele>
        <time>2018-08-10T12:03:30Z</time>
      </trkpt>
      <trkpt lat="44.39744" lon="6.39677">
        <ele>2138.9</ele>
        <time>2018-08-10T12:03:32Z</time>
      </trkpt>
      <trkpt lat="44.39748" lon="6.39674">
        <ele>2138.4</ele>
        <time>2018-08-10T12:03:34Z</time>
      </trkpt>
      <trkpt lat="44.39751" lon="6.39673">
        <ele>2138</ele>
        <time>2018-08-10T12:03:35Z</time>
      </trkpt>
      <trkpt lat="44.39755" lon="6.39669">
        <ele>2136.9</ele>
        <time>2018-08-10T12:03:37Z</time>
      </trkpt>
      <trkpt lat="44.39758" lon="6.39665">
        <ele>2136</ele>
        <time>2018-08-10T12:03:39Z</time>
      </trkpt>
      <trkpt lat="44.3976" lon="6.39661">
        <ele>2135.4</ele>
        <time>2018-08-10T12:03:44Z</time>
      </trkpt>
      <trkpt lat="44.39762" lon="6.39658">
        <ele>2135.5</ele>
        <time>2018-08-10T12:03:50Z</time>
      </trkpt>
      <trkpt lat="44.39764" lon="6.39655">
        <ele>2136.7</ele>
        <time>2018-08-10T12:03:58Z</time>
      </trkpt>
      <trkpt lat="44.39767" lon="6.39649">
        <ele>2137.8</ele>
        <time>2018-08-10T12:04:00Z</time>
      </trkpt>
      <trkpt lat="44.39768" lon="6.39643">
        <ele>2137.6</ele>
        <time>2018-08-10T12:04:02Z</time>
      </trkpt>
      <trkpt lat="44.39769" lon="6.3964">
        <ele>2137.5</ele>
        <time>2018-08-10T12:04:03Z</time>
      </trkpt>
      <trkpt lat="44.39772" lon="6.39636">
        <ele>2137.2</ele>
        <time>2018-08-10T12:04:06Z</time>
      </trkpt>
      <trkpt lat="44.39775" lon="6.39631">
        <ele>2136.9</ele>
        <time>2018-08-10T12:04:08Z</time>
      </trkpt>
      <trkpt lat="44.39778" lon="6.39629">
        <ele>2136.6</ele>
        <time>2018-08-10T12:04:10Z</time>
      </trkpt>
      <trkpt lat="44.39782" lon="6.39628">
        <ele>2136.3</ele>
        <time>2018-08-10T12:04:12Z</time>
      </trkpt>
      <trkpt lat="44.39786" lon="6.39628">
        <ele>2136</ele>
        <time>2018-08-10T12:04:14Z</time>
      </trkpt>
      <trkpt lat="44.39788" lon="6.39625">
        <ele>2135.8</ele>
        <time>2018-08-10T12:04:15Z</time>
      </trkpt>
      <trkpt lat="44.39792" lon="6.3962">
        <ele>2135.4</ele>
        <time>2018-08-10T12:04:17Z</time>
      </trkpt>
      <trkpt lat="44.39795" lon="6.39615">
        <ele>2135.3</ele>
        <time>2018-08-10T12:04:19Z</time>
      </trkpt>
      <trkpt lat="44.39797" lon="6.39611">
        <ele>2135.3</ele>
        <time>2018-08-10T12:04:20Z</time>
      </trkpt>
      <trkpt lat="44.39801" lon="6.39606">
        <ele>2134.9</ele>
        <time>2018-08-10T12:04:22Z</time>
      </trkpt>
      <trkpt lat="44.39804" lon="6.39604">
        <ele>2134.6</ele>
        <time>2018-08-10T12:04:23Z</time>
      </trkpt>
      <trkpt lat="44.39807" lon="6.39601">
        <ele>2134.5</ele>
        <time>2018-08-10T12:04:24Z</time>
      </trkpt>
      <trkpt lat="44.3981" lon="6.39597">
        <ele>2134.6</ele>
        <time>2018-08-10T12:04:25Z</time>
      </trkpt>
      <trkpt lat="44.39812" lon="6.39594">
        <ele>2134.6</ele>
        <time>2018-08-10T12:04:26Z</time>
      </trkpt>
      <trkpt lat="44.39814" lon="6.3959">
        <ele>2134.7</ele>
        <time>2018-08-10T12:04:27Z</time>
      </trkpt>
      <trkpt lat="44.39816" lon="6.39589">
        <ele>2134.7</ele>
        <time>2018-08-10T12:04:28Z</time>
      </trkpt>
      <trkpt lat="44.39819" lon="6.39586">
        <ele>2134.8</ele>
        <time>2018-08-10T12:04:29Z</time>
      </trkpt>
      <trkpt lat="44.39821" lon="6.39583">
        <ele>2134.9</ele>
        <time>2018-08-10T12:04:30Z</time>
      </trkpt>
      <trkpt lat="44.39823" lon="6.3958">
        <ele>2135</ele>
        <time>2018-08-10T12:04:31Z</time>
      </trkpt>
      <trkpt lat="44.39826" lon="6.39578">
        <ele>2135.1</ele>
        <time>2018-08-10T12:04:32Z</time>
      </trkpt>
      <trkpt lat="44.39829" lon="6.39573">
        <ele>2135.4</ele>
        <time>2018-08-10T12:04:34Z</time>
      </trkpt>
      <trkpt lat="44.39832" lon="6.39572">
        <ele>2135.5</ele>
        <time>2018-08-10T12:04:36Z</time>
      </trkpt>
      <trkpt lat="44.39836" lon="6.3957">
        <ele>2135</ele>
        <time>2018-08-10T12:04:37Z</time>
      </trkpt>
      <trkpt lat="44.39839" lon="6.39569">
        <ele>2133.9</ele>
        <time>2018-08-10T12:04:38Z</time>
      </trkpt>
      <trkpt lat="44.39841" lon="6.39569">
        <ele>2133</ele>
        <time>2018-08-10T12:04:41Z</time>
      </trkpt>
      <trkpt lat="44.39844" lon="6.39569">
        <ele>2132.6</ele>
        <time>2018-08-10T12:04:43Z</time>
      </trkpt>
      <trkpt lat="44.39848" lon="6.3957">
        <ele>2132.4</ele>
        <time>2018-08-10T12:04:44Z</time>
      </trkpt>
      <trkpt lat="44.39851" lon="6.3957">
        <ele>2132</ele>
        <time>2018-08-10T12:04:45Z</time>
      </trkpt>
      <trkpt lat="44.39854" lon="6.3957">
        <ele>2131.2</ele>
        <time>2018-08-10T12:04:57Z</time>
      </trkpt>
      <trkpt lat="44.39857" lon="6.39568">
        <ele>2130.5</ele>
        <time>2018-08-10T12:05:10Z</time>
      </trkpt>
      <trkpt lat="44.39859" lon="6.39572">
        <ele>2129.7</ele>
        <time>2018-08-10T12:05:15Z</time>
      </trkpt>
      <trkpt lat="44.39862" lon="6.39576">
        <ele>2129</ele>
        <time>2018-08-10T12:05:19Z</time>
      </trkpt>
      <trkpt lat="44.39865" lon="6.39576">
        <ele>2128.4</ele>
        <time>2018-08-10T12:05:21Z</time>
      </trkpt>
      <trkpt lat="44.39868" lon="6.39574">
        <ele>2128.4</ele>
        <time>2018-08-10T12:05:23Z</time>
      </trkpt>
      <trkpt lat="44.3987" lon="6.39571">
        <ele>2128.3</ele>
        <time>2018-08-10T12:05:28Z</time>
      </trkpt>
      <trkpt lat="44.39875" lon="6.39572">
        <ele>2127.7</ele>
        <time>2018-08-10T12:05:32Z</time>
      </trkpt>
      <trkpt lat="44.39878" lon="6.39571">
        <ele>2127.1</ele>
        <time>2018-08-10T12:05:34Z</time>
      </trkpt>
      <trkpt lat="44.39883" lon="6.3957">
        <ele>2126.8</ele>
        <time>2018-08-10T12:05:40Z</time>
      </trkpt>
      <trkpt lat="44.39886" lon="6.39567">
        <ele>2126.8</ele>
        <time>2018-08-10T12:05:42Z</time>
      </trkpt>
      <trkpt lat="44.3989" lon="6.39566">
        <ele>2126.6</ele>
        <time>2018-08-10T12:05:44Z</time>
      </trkpt>
      <trkpt lat="44.39892" lon="6.39564">
        <ele>2126.4</ele>
        <time>2018-08-10T12:05:45Z</time>
      </trkpt>
      <trkpt lat="44.39896" lon="6.39562">
        <ele>2126</ele>
        <time>2018-08-10T12:05:48Z</time>
      </trkpt>
      <trkpt lat="44.39899" lon="6.39558">
        <ele>2125.8</ele>
        <time>2018-08-10T12:05:51Z</time>
      </trkpt>
      <trkpt lat="44.39902" lon="6.39555">
        <ele>2125.6</ele>
        <time>2018-08-10T12:05:52Z</time>
      </trkpt>
      <trkpt lat="44.39904" lon="6.39552">
        <ele>2125.3</ele>
        <time>2018-08-10T12:05:54Z</time>
      </trkpt>
      <trkpt lat="44.39909" lon="6.3955">
        <ele>2125</ele>
        <time>2018-08-10T12:05:56Z</time>
      </trkpt>
      <trkpt lat="44.39913" lon="6.39551">
        <ele>2124.8</ele>
        <time>2018-08-10T12:05:58Z</time>
      </trkpt>
      <trkpt lat="44.39917" lon="6.39548">
        <ele>2124.8</ele>
        <time>2018-08-10T12:06:01Z</time>
      </trkpt>
      <trkpt lat="44.39922" lon="6.39545">
        <ele>2124.8</ele>
        <time>2018-08-10T12:06:03Z</time>
      </trkpt>
      <trkpt lat="44.39924" lon="6.39541">
        <ele>2124.9</ele>
        <time>2018-08-10T12:06:05Z</time>
      </trkpt>
      <trkpt lat="44.39927" lon="6.39537">
        <ele>2124.8</ele>
        <time>2018-08-10T12:06:07Z</time>
      </trkpt>
      <trkpt lat="44.39929" lon="6.39534">
        <ele>2124.8</ele>
        <time>2018-08-10T12:06:09Z</time>
      </trkpt>
      <trkpt lat="44.39932" lon="6.39531">
        <ele>2124.8</ele>
        <time>2018-08-10T12:06:12Z</time>
      </trkpt>
      <trkpt lat="44.39936" lon="6.39529">
        <ele>2124.9</ele>
        <time>2018-08-10T12:06:14Z</time>
      </trkpt>
      <trkpt lat="44.39939" lon="6.39526">
        <ele>2125</ele>
        <time>2018-08-10T12:06:16Z</time>
      </trkpt>
      <trkpt lat="44.39942" lon="6.39523">
        <ele>2125</ele>
        <time>2018-08-10T12:06:43Z</time>
      </trkpt>
      <trkpt lat="44.39946" lon="6.39522">
        <ele>2124.9</ele>
        <time>2018-08-10T12:06:45Z</time>
      </trkpt>
      <trkpt lat="44.39949" lon="6.39519">
        <ele>2124.8</ele>
        <time>2018-08-10T12:06:47Z</time>
      </trkpt>
      <trkpt lat="44.39953" lon="6.39515">
        <ele>2124.7</ele>
        <time>2018-08-10T12:06:50Z</time>
      </trkpt>
      <trkpt lat="44.39956" lon="6.3951">
        <ele>2124.5</ele>
        <time>2018-08-10T12:06:52Z</time>
      </trkpt>
      <trkpt lat="44.39958" lon="6.39506">
        <ele>2124.3</ele>
        <time>2018-08-10T12:06:54Z</time>
      </trkpt>
      <trkpt lat="44.3996" lon="6.39501">
        <ele>2124.2</ele>
        <time>2018-08-10T12:06:56Z</time>
      </trkpt>
      <trkpt lat="44.39961" lon="6.39498">
        <ele>2124.1</ele>
        <time>2018-08-10T12:06:58Z</time>
      </trkpt>
      <trkpt lat="44.39961" lon="6.39494">
        <ele>2124</ele>
        <time>2018-08-10T12:07:23Z</time>
      </trkpt>
      <trkpt lat="44.39963" lon="6.39491">
        <ele>2123.9</ele>
        <time>2018-08-10T12:07:49Z</time>
      </trkpt>
      <trkpt lat="44.39964" lon="6.39487">
        <ele>2123.8</ele>
        <time>2018-08-10T12:09:30Z</time>
      </trkpt>
      <trkpt lat="44.39967" lon="6.39488">
        <ele>2123.7</ele>
        <time>2018-08-10T12:09:32Z</time>
      </trkpt>
      <trkpt lat="44.39964" lon="6.39489">
        <ele>2123.8</ele>
        <time>2018-08-10T12:09:35Z</time>
      </trkpt>
      <trkpt lat="44.39962" lon="6.39492">
        <ele>2123.9</ele>
        <time>2018-08-10T12:09:57Z</time>
      </trkpt>
      <trkpt lat="44.39961" lon="6.39496">
        <ele>2124</ele>
        <time>2018-08-10T12:09:59Z</time>
      </trkpt>
      <trkpt lat="44.39959" lon="6.39498">
        <ele>2124.1</ele>
        <time>2018-08-10T12:10:02Z</time>
      </trkpt>
      <trkpt lat="44.39961" lon="6.39494">
        <ele>2123.9</ele>
        <time>2018-08-10T12:10:21Z</time>
      </trkpt>
      <trkpt lat="44.39964" lon="6.39491">
        <ele>2123.8</ele>
        <time>2018-08-10T12:10:23Z</time>
      </trkpt>
      <trkpt lat="44.39966" lon="6.39488">
        <ele>2123.8</ele>
        <time>2018-08-10T12:10:25Z</time>
      </trkpt>
      <trkpt lat="44.39969" lon="6.39483">
        <ele>2123.7</ele>
        <time>2018-08-10T12:10:27Z</time>
      </trkpt>
      <trkpt lat="44.39973" lon="6.39478">
        <ele>2123.6</ele>
        <time>2018-08-10T12:10:29Z</time>
      </trkpt>
      <trkpt lat="44.39975" lon="6.39475">
        <ele>2123.6</ele>
        <time>2018-08-10T12:10:30Z</time>
      </trkpt>
      <trkpt lat="44.39978" lon="6.39473">
        <ele>2123.7</ele>
        <time>2018-08-10T12:10:31Z</time>
      </trkpt>
      <trkpt lat="44.39982" lon="6.39468">
        <ele>2123.9</ele>
        <time>2018-08-10T12:10:33Z</time>
      </trkpt>
      <trkpt lat="44.39985" lon="6.39464">
        <ele>2124</ele>
        <time>2018-08-10T12:10:35Z</time>
      </trkpt>
      <trkpt lat="44.39989" lon="6.39459">
        <ele>2124.3</ele>
        <time>2018-08-10T12:10:37Z</time>
      </trkpt>
      <trkpt lat="44.39992" lon="6.39454">
        <ele>2124.6</ele>
        <time>2018-08-10T12:10:39Z</time>
      </trkpt>
      <trkpt lat="44.39994" lon="6.39451">
        <ele>2124.9</ele>
        <time>2018-08-10T12:10:40Z</time>
      </trkpt>
      <trkpt lat="44.39999" lon="6.39446">
        <ele>2125.9</ele>
        <time>2018-08-10T12:10:42Z</time>
      </trkpt>
      <trkpt lat="44.40001" lon="6.39444">
        <ele>2126.4</ele>
        <time>2018-08-10T12:10:43Z</time>
      </trkpt>
      <trkpt lat="44.40005" lon="6.39441">
        <ele>2127.1</ele>
        <time>2018-08-10T12:10:45Z</time>
      </trkpt>
      <trkpt lat="44.4001" lon="6.39439">
        <ele>2128</ele>
        <time>2018-08-10T12:10:47Z</time>
      </trkpt>
      <trkpt lat="44.40014" lon="6.39436">
        <ele>2128.9</ele>
        <time>2018-08-10T12:10:49Z</time>
      </trkpt>
      <trkpt lat="44.40019" lon="6.39434">
        <ele>2129.6</ele>
        <time>2018-08-10T12:10:51Z</time>
      </trkpt>
      <trkpt lat="44.40022" lon="6.39432">
        <ele>2129.8</ele>
        <time>2018-08-10T12:10:53Z</time>
      </trkpt>
      <trkpt lat="44.40027" lon="6.3943">
        <ele>2130</ele>
        <time>2018-08-10T12:10:55Z</time>
      </trkpt>
      <trkpt lat="44.4003" lon="6.39429">
        <ele>2130</ele>
        <time>2018-08-10T12:10:57Z</time>
      </trkpt>
      <trkpt lat="44.40034" lon="6.39428">
        <ele>2130.1</ele>
        <time>2018-08-10T12:11:00Z</time>
      </trkpt>
      <trkpt lat="44.40037" lon="6.39425">
        <ele>2130.1</ele>
        <time>2018-08-10T12:11:03Z</time>
      </trkpt>
      <trkpt lat="44.4004" lon="6.39423">
        <ele>2130</ele>
        <time>2018-08-10T12:11:05Z</time>
      </trkpt>
      <trkpt lat="44.40043" lon="6.39421">
        <ele>2130</ele>
        <time>2018-08-10T12:11:08Z</time>
      </trkpt>
      <trkpt lat="44.40046" lon="6.39419">
        <ele>2130</ele>
        <time>2018-08-10T12:11:11Z</time>
      </trkpt>
      <trkpt lat="44.40049" lon="6.39418">
        <ele>2130.2</ele>
        <time>2018-08-10T12:11:13Z</time>
      </trkpt>
      <trkpt lat="44.40051" lon="6.39416">
        <ele>2130.3</ele>
        <time>2018-08-10T12:11:16Z</time>
      </trkpt>
      <trkpt lat="44.40054" lon="6.39414">
        <ele>2130.5</ele>
        <time>2018-08-10T12:11:18Z</time>
      </trkpt>
      <trkpt lat="44.40057" lon="6.39413">
        <ele>2130.6</ele>
        <time>2018-08-10T12:11:20Z</time>
      </trkpt>
      <trkpt lat="44.4006" lon="6.39411">
        <ele>2130.8</ele>
        <time>2018-08-10T12:11:23Z</time>
      </trkpt>
      <trkpt lat="44.40063" lon="6.39409">
        <ele>2131.4</ele>
        <time>2018-08-10T12:11:32Z</time>
      </trkpt>
      <trkpt lat="44.40065" lon="6.39406">
        <ele>2132</ele>
        <time>2018-08-10T12:11:37Z</time>
      </trkpt>
      <trkpt lat="44.40067" lon="6.39403">
        <ele>2132.6</ele>
        <time>2018-08-10T12:11:42Z</time>
      </trkpt>
      <trkpt lat="44.40069" lon="6.39398">
        <ele>2133.2</ele>
        <time>2018-08-10T12:11:46Z</time>
      </trkpt>
      <trkpt lat="44.40071" lon="6.39395">
        <ele>2133.6</ele>
        <time>2018-08-10T12:11:49Z</time>
      </trkpt>
      <trkpt lat="44.40069" lon="6.39394">
        <ele>2134</ele>
        <time>2018-08-10T12:12:20Z</time>
      </trkpt>
      <trkpt lat="44.40068" lon="6.39398">
        <ele>2134</ele>
        <time>2018-08-10T12:12:29Z</time>
      </trkpt>
      <trkpt lat="44.40071" lon="6.39398">
        <ele>2134</ele>
        <time>2018-08-10T12:12:32Z</time>
      </trkpt>
      <trkpt lat="44.40068" lon="6.39398">
        <ele>2134</ele>
        <time>2018-08-10T12:12:41Z</time>
      </trkpt>
      <trkpt lat="44.40071" lon="6.39396">
        <ele>2134.1</ele>
        <time>2018-08-10T12:13:04Z</time>
      </trkpt>
      <trkpt lat="44.40076" lon="6.39403">
        <ele>2133.5</ele>
        <time>2018-08-10T12:20:04Z</time>
      </trkpt>
      <trkpt lat="44.40078" lon="6.39405">
        <ele>2133.1</ele>
        <time>2018-08-10T12:20:05Z</time>
      </trkpt>
      <trkpt lat="44.40081" lon="6.39408">
        <ele>2132.7</ele>
        <time>2018-08-10T12:20:06Z</time>
      </trkpt>
      <trkpt lat="44.40083" lon="6.39412">
        <ele>2132.3</ele>
        <time>2018-08-10T12:20:07Z</time>
      </trkpt>
      <trkpt lat="44.40085" lon="6.39416">
        <ele>2131.9</ele>
        <time>2018-08-10T12:20:08Z</time>
      </trkpt>
      <trkpt lat="44.40087" lon="6.39419">
        <ele>2131.6</ele>
        <time>2018-08-10T12:20:09Z</time>
      </trkpt>
      <trkpt lat="44.40089" lon="6.39423">
        <ele>2131.1</ele>
        <time>2018-08-10T12:20:11Z</time>
      </trkpt>
      <trkpt lat="44.40091" lon="6.39428">
        <ele>2130.3</ele>
        <time>2018-08-10T12:20:13Z</time>
      </trkpt>
      <trkpt lat="44.40093" lon="6.39431">
        <ele>2129.6</ele>
        <time>2018-08-10T12:20:14Z</time>
      </trkpt>
      <trkpt lat="44.40095" lon="6.39436">
        <ele>2129</ele>
        <time>2018-08-10T12:20:15Z</time>
      </trkpt>
      <trkpt lat="44.40097" lon="6.3944">
        <ele>2128.5</ele>
        <time>2018-08-10T12:20:16Z</time>
      </trkpt>
      <trkpt lat="44.40099" lon="6.39445">
        <ele>2128</ele>
        <time>2018-08-10T12:20:17Z</time>
      </trkpt>
      <trkpt lat="44.40101" lon="6.39449">
        <ele>2127.5</ele>
        <time>2018-08-10T12:20:18Z</time>
      </trkpt>
      <trkpt lat="44.40103" lon="6.39453">
        <ele>2127.1</ele>
        <time>2018-08-10T12:20:19Z</time>
      </trkpt>
      <trkpt lat="44.40103" lon="6.39456">
        <ele>2126.7</ele>
        <time>2018-08-10T12:20:20Z</time>
      </trkpt>
      <trkpt lat="44.40105" lon="6.39462">
        <ele>2126</ele>
        <time>2018-08-10T12:20:22Z</time>
      </trkpt>
      <trkpt lat="44.40107" lon="6.39466">
        <ele>2125.1</ele>
        <time>2018-08-10T12:20:25Z</time>
      </trkpt>
      <trkpt lat="44.40106" lon="6.3947">
        <ele>2124.4</ele>
        <time>2018-08-10T12:20:28Z</time>
      </trkpt>
      <trkpt lat="44.40104" lon="6.39479">
        <ele>2123.5</ele>
        <time>2018-08-10T12:20:30Z</time>
      </trkpt>
      <trkpt lat="44.40104" lon="6.39486">
        <ele>2122.8</ele>
        <time>2018-08-10T12:20:31Z</time>
      </trkpt>
      <trkpt lat="44.40103" lon="6.39494">
        <ele>2122.1</ele>
        <time>2018-08-10T12:20:32Z</time>
      </trkpt>
      <trkpt lat="44.40102" lon="6.395">
        <ele>2121.2</ele>
        <time>2018-08-10T12:20:33Z</time>
      </trkpt>
      <trkpt lat="44.40101" lon="6.39508">
        <ele>2120.2</ele>
        <time>2018-08-10T12:20:34Z</time>
      </trkpt>
      <trkpt lat="44.401" lon="6.39513">
        <ele>2119.5</ele>
        <time>2018-08-10T12:20:35Z</time>
      </trkpt>
      <trkpt lat="44.40098" lon="6.39516">
        <ele>2118.9</ele>
        <time>2018-08-10T12:20:36Z</time>
      </trkpt>
      <trkpt lat="44.40096" lon="6.39523">
        <ele>2117.9</ele>
        <time>2018-08-10T12:20:38Z</time>
      </trkpt>
      <trkpt lat="44.40096" lon="6.39527">
        <ele>2117.3</ele>
        <time>2018-08-10T12:20:39Z</time>
      </trkpt>
      <trkpt lat="44.40095" lon="6.39534">
        <ele>2116.5</ele>
        <time>2018-08-10T12:20:41Z</time>
      </trkpt>
      <trkpt lat="44.40095" lon="6.39539">
        <ele>2115.9</ele>
        <time>2018-08-10T12:20:42Z</time>
      </trkpt>
      <trkpt lat="44.40096" lon="6.39544">
        <ele>2115.3</ele>
        <time>2018-08-10T12:20:43Z</time>
      </trkpt>
      <trkpt lat="44.40097" lon="6.39549">
        <ele>2114.7</ele>
        <time>2018-08-10T12:20:44Z</time>
      </trkpt>
      <trkpt lat="44.40098" lon="6.39556">
        <ele>2114.1</ele>
        <time>2018-08-10T12:20:45Z</time>
      </trkpt>
      <trkpt lat="44.40098" lon="6.39563">
        <ele>2113.1</ele>
        <time>2018-08-10T12:20:46Z</time>
      </trkpt>
      <trkpt lat="44.40098" lon="6.39572">
        <ele>2111.8</ele>
        <time>2018-08-10T12:20:47Z</time>
      </trkpt>
      <trkpt lat="44.40098" lon="6.39581">
        <ele>2110.3</ele>
        <time>2018-08-10T12:20:48Z</time>
      </trkpt>
      <trkpt lat="44.40098" lon="6.39592">
        <ele>2108.7</ele>
        <time>2018-08-10T12:20:49Z</time>
      </trkpt>
      <trkpt lat="44.40098" lon="6.396">
        <ele>2107.4</ele>
        <time>2018-08-10T12:20:50Z</time>
      </trkpt>
      <trkpt lat="44.40096" lon="6.39609">
        <ele>2105.9</ele>
        <time>2018-08-10T12:20:51Z</time>
      </trkpt>
      <trkpt lat="44.40094" lon="6.39618">
        <ele>2104.9</ele>
        <time>2018-08-10T12:20:52Z</time>
      </trkpt>
      <trkpt lat="44.40093" lon="6.39625">
        <ele>2103.9</ele>
        <time>2018-08-10T12:20:53Z</time>
      </trkpt>
      <trkpt lat="44.40092" lon="6.3963">
        <ele>2103</ele>
        <time>2018-08-10T12:20:54Z</time>
      </trkpt>
      <trkpt lat="44.40091" lon="6.39634">
        <ele>2102.4</ele>
        <time>2018-08-10T12:20:55Z</time>
      </trkpt>
      <trkpt lat="44.40087" lon="6.39638">
        <ele>2101.2</ele>
        <time>2018-08-10T12:20:57Z</time>
      </trkpt>
      <trkpt lat="44.40084" lon="6.39639">
        <ele>2100.5</ele>
        <time>2018-08-10T12:20:58Z</time>
      </trkpt>
      <trkpt lat="44.40081" lon="6.39642">
        <ele>2099.9</ele>
        <time>2018-08-10T12:20:59Z</time>
      </trkpt>
      <trkpt lat="44.40078" lon="6.39645">
        <ele>2099.2</ele>
        <time>2018-08-10T12:21:00Z</time>
      </trkpt>
      <trkpt lat="44.40075" lon="6.3965">
        <ele>2098.4</ele>
        <time>2018-08-10T12:21:01Z</time>
      </trkpt>
      <trkpt lat="44.40073" lon="6.39655">
        <ele>2097.8</ele>
        <time>2018-08-10T12:21:02Z</time>
      </trkpt>
      <trkpt lat="44.40071" lon="6.39658">
        <ele>2097.3</ele>
        <time>2018-08-10T12:21:03Z</time>
      </trkpt>
      <trkpt lat="44.40072" lon="6.39662">
        <ele>2096.8</ele>
        <time>2018-08-10T12:21:04Z</time>
      </trkpt>
      <trkpt lat="44.40071" lon="6.39669">
        <ele>2095.6</ele>
        <time>2018-08-10T12:21:06Z</time>
      </trkpt>
      <trkpt lat="44.40069" lon="6.39674">
        <ele>2095</ele>
        <time>2018-08-10T12:21:07Z</time>
      </trkpt>
      <trkpt lat="44.40067" lon="6.39679">
        <ele>2094.2</ele>
        <time>2018-08-10T12:21:08Z</time>
      </trkpt>
      <trkpt lat="44.40065" lon="6.39684">
        <ele>2093.6</ele>
        <time>2018-08-10T12:21:09Z</time>
      </trkpt>
      <trkpt lat="44.40064" lon="6.3969">
        <ele>2092.9</ele>
        <time>2018-08-10T12:21:10Z</time>
      </trkpt>
      <trkpt lat="44.40063" lon="6.39696">
        <ele>2092.2</ele>
        <time>2018-08-10T12:21:11Z</time>
      </trkpt>
      <trkpt lat="44.40062" lon="6.39702">
        <ele>2091.7</ele>
        <time>2018-08-10T12:21:12Z</time>
      </trkpt>
      <trkpt lat="44.40061" lon="6.39708">
        <ele>2091.2</ele>
        <time>2018-08-10T12:21:13Z</time>
      </trkpt>
      <trkpt lat="44.40061" lon="6.39716">
        <ele>2090.4</ele>
        <time>2018-08-10T12:21:14Z</time>
      </trkpt>
      <trkpt lat="44.40061" lon="6.39723">
        <ele>2089.9</ele>
        <time>2018-08-10T12:21:15Z</time>
      </trkpt>
      <trkpt lat="44.40062" lon="6.3973">
        <ele>2089.4</ele>
        <time>2018-08-10T12:21:16Z</time>
      </trkpt>
      <trkpt lat="44.40064" lon="6.39737">
        <ele>2088.7</ele>
        <time>2018-08-10T12:21:17Z</time>
      </trkpt>
      <trkpt lat="44.40067" lon="6.39743">
        <ele>2087.9</ele>
        <time>2018-08-10T12:21:18Z</time>
      </trkpt>
      <trkpt lat="44.4007" lon="6.39747">
        <ele>2087.3</ele>
        <time>2018-08-10T12:21:19Z</time>
      </trkpt>
      <trkpt lat="44.40073" lon="6.39752">
        <ele>2086.6</ele>
        <time>2018-08-10T12:21:20Z</time>
      </trkpt>
      <trkpt lat="44.40075" lon="6.39757">
        <ele>2086.1</ele>
        <time>2018-08-10T12:21:21Z</time>
      </trkpt>
      <trkpt lat="44.40075" lon="6.39763">
        <ele>2085.5</ele>
        <time>2018-08-10T12:21:22Z</time>
      </trkpt>
      <trkpt lat="44.40075" lon="6.3977">
        <ele>2084.9</ele>
        <time>2018-08-10T12:21:23Z</time>
      </trkpt>
      <trkpt lat="44.40075" lon="6.39777">
        <ele>2084.4</ele>
        <time>2018-08-10T12:21:24Z</time>
      </trkpt>
      <trkpt lat="44.40074" lon="6.39783">
        <ele>2083.5</ele>
        <time>2018-08-10T12:21:25Z</time>
      </trkpt>
      <trkpt lat="44.40074" lon="6.39788">
        <ele>2082.7</ele>
        <time>2018-08-10T12:21:26Z</time>
      </trkpt>
      <trkpt lat="44.40073" lon="6.39793">
        <ele>2081.9</ele>
        <time>2018-08-10T12:21:27Z</time>
      </trkpt>
      <trkpt lat="44.40072" lon="6.398">
        <ele>2080.9</ele>
        <time>2018-08-10T12:21:28Z</time>
      </trkpt>
      <trkpt lat="44.40072" lon="6.39805">
        <ele>2080.1</ele>
        <time>2018-08-10T12:21:29Z</time>
      </trkpt>
      <trkpt lat="44.40071" lon="6.39811">
        <ele>2079.2</ele>
        <time>2018-08-10T12:21:30Z</time>
      </trkpt>
      <trkpt lat="44.4007" lon="6.39818">
        <ele>2078.3</ele>
        <time>2018-08-10T12:21:31Z</time>
      </trkpt>
      <trkpt lat="44.40069" lon="6.39823">
        <ele>2077.5</ele>
        <time>2018-08-10T12:21:32Z</time>
      </trkpt>
      <trkpt lat="44.40068" lon="6.39829">
        <ele>2076.8</ele>
        <time>2018-08-10T12:21:33Z</time>
      </trkpt>
      <trkpt lat="44.40067" lon="6.39834">
        <ele>2076.2</ele>
        <time>2018-08-10T12:21:34Z</time>
      </trkpt>
      <trkpt lat="44.40066" lon="6.39839">
        <ele>2075.8</ele>
        <time>2018-08-10T12:21:35Z</time>
      </trkpt>
      <trkpt lat="44.40066" lon="6.39843">
        <ele>2075.3</ele>
        <time>2018-08-10T12:21:36Z</time>
      </trkpt>
      <trkpt lat="44.40066" lon="6.39847">
        <ele>2074.9</ele>
        <time>2018-08-10T12:21:37Z</time>
      </trkpt>
      <trkpt lat="44.40066" lon="6.39852">
        <ele>2074.5</ele>
        <time>2018-08-10T12:21:38Z</time>
      </trkpt>
      <trkpt lat="44.40066" lon="6.39858">
        <ele>2073.9</ele>
        <time>2018-08-10T12:21:39Z</time>
      </trkpt>
      <trkpt lat="44.40067" lon="6.39864">
        <ele>2073.2</ele>
        <time>2018-08-10T12:21:40Z</time>
      </trkpt>
      <trkpt lat="44.40066" lon="6.39869">
        <ele>2072.7</ele>
        <time>2018-08-10T12:21:41Z</time>
      </trkpt>
      <trkpt lat="44.40066" lon="6.39873">
        <ele>2072.1</ele>
        <time>2018-08-10T12:21:42Z</time>
      </trkpt>
      <trkpt lat="44.40067" lon="6.39877">
        <ele>2071.7</ele>
        <time>2018-08-10T12:21:43Z</time>
      </trkpt>
      <trkpt lat="44.40067" lon="6.39881">
        <ele>2071.2</ele>
        <time>2018-08-10T12:21:44Z</time>
      </trkpt>
      <trkpt lat="44.40066" lon="6.39885">
        <ele>2070.7</ele>
        <time>2018-08-10T12:21:45Z</time>
      </trkpt>
      <trkpt lat="44.40066" lon="6.39889">
        <ele>2070.1</ele>
        <time>2018-08-10T12:21:46Z</time>
      </trkpt>
      <trkpt lat="44.40066" lon="6.39894">
        <ele>2069.7</ele>
        <time>2018-08-10T12:21:47Z</time>
      </trkpt>
      <trkpt lat="44.40067" lon="6.39898">
        <ele>2069.4</ele>
        <time>2018-08-10T12:21:48Z</time>
      </trkpt>
      <trkpt lat="44.40068" lon="6.39902">
        <ele>2069</ele>
        <time>2018-08-10T12:21:49Z</time>
      </trkpt>
      <trkpt lat="44.40069" lon="6.39907">
        <ele>2068.4</ele>
        <time>2018-08-10T12:21:51Z</time>
      </trkpt>
      <trkpt lat="44.40071" lon="6.39912">
        <ele>2067.7</ele>
        <time>2018-08-10T12:21:57Z</time>
      </trkpt>
      <trkpt lat="44.40073" lon="6.39918">
        <ele>2066.9</ele>
        <time>2018-08-10T12:21:59Z</time>
      </trkpt>
      <trkpt lat="44.40074" lon="6.39924">
        <ele>2066.2</ele>
        <time>2018-08-10T12:22:01Z</time>
      </trkpt>
      <trkpt lat="44.40075" lon="6.3993">
        <ele>2065.6</ele>
        <time>2018-08-10T12:22:03Z</time>
      </trkpt>
      <trkpt lat="44.40076" lon="6.39934">
        <ele>2065.1</ele>
        <time>2018-08-10T12:22:04Z</time>
      </trkpt>
      <trkpt lat="44.40077" lon="6.39938">
        <ele>2064.5</ele>
        <time>2018-08-10T12:22:05Z</time>
      </trkpt>
      <trkpt lat="44.40079" lon="6.39943">
        <ele>2063.7</ele>
        <time>2018-08-10T12:22:06Z</time>
      </trkpt>
      <trkpt lat="44.40081" lon="6.3995">
        <ele>2063</ele>
        <time>2018-08-10T12:22:07Z</time>
      </trkpt>
      <trkpt lat="44.40084" lon="6.39955">
        <ele>2062.7</ele>
        <time>2018-08-10T12:22:08Z</time>
      </trkpt>
      <trkpt lat="44.40086" lon="6.3996">
        <ele>2062.3</ele>
        <time>2018-08-10T12:22:09Z</time>
      </trkpt>
      <trkpt lat="44.40089" lon="6.39964">
        <ele>2062</ele>
        <time>2018-08-10T12:22:10Z</time>
      </trkpt>
      <trkpt lat="44.40092" lon="6.39968">
        <ele>2061.9</ele>
        <time>2018-08-10T12:22:11Z</time>
      </trkpt>
      <trkpt lat="44.40094" lon="6.39972">
        <ele>2061.7</ele>
        <time>2018-08-10T12:22:12Z</time>
      </trkpt>
      <trkpt lat="44.40097" lon="6.39974">
        <ele>2061.5</ele>
        <time>2018-08-10T12:22:13Z</time>
      </trkpt>
      <trkpt lat="44.40099" lon="6.39977">
        <ele>2061.2</ele>
        <time>2018-08-10T12:22:14Z</time>
      </trkpt>
      <trkpt lat="44.40101" lon="6.3998">
        <ele>2061.2</ele>
        <time>2018-08-10T12:22:15Z</time>
      </trkpt>
      <trkpt lat="44.40103" lon="6.39983">
        <ele>2061.1</ele>
        <time>2018-08-10T12:22:16Z</time>
      </trkpt>
      <trkpt lat="44.40105" lon="6.39986">
        <ele>2060.9</ele>
        <time>2018-08-10T12:22:17Z</time>
      </trkpt>
      <trkpt lat="44.40109" lon="6.39991">
        <ele>2060.9</ele>
        <time>2018-08-10T12:22:19Z</time>
      </trkpt>
      <trkpt lat="44.40112" lon="6.39994">
        <ele>2060.9</ele>
        <time>2018-08-10T12:22:21Z</time>
      </trkpt>
      <trkpt lat="44.40115" lon="6.39998">
        <ele>2060.9</ele>
        <time>2018-08-10T12:22:23Z</time>
      </trkpt>
      <trkpt lat="44.40118" lon="6.4">
        <ele>2060.8</ele>
        <time>2018-08-10T12:22:26Z</time>
      </trkpt>
      <trkpt lat="44.40121" lon="6.40002">
        <ele>2060.8</ele>
        <time>2018-08-10T12:22:29Z</time>
      </trkpt>
      <trkpt lat="44.40123" lon="6.40005">
        <ele>2060.9</ele>
        <time>2018-08-10T12:22:31Z</time>
      </trkpt>
      <trkpt lat="44.40124" lon="6.40009">
        <ele>2060.8</ele>
        <time>2018-08-10T12:22:33Z</time>
      </trkpt>
      <trkpt lat="44.40126" lon="6.40013">
        <ele>2060.8</ele>
        <time>2018-08-10T12:22:35Z</time>
      </trkpt>
      <trkpt lat="44.40128" lon="6.40017">
        <ele>2060.9</ele>
        <time>2018-08-10T12:22:37Z</time>
      </trkpt>
      <trkpt lat="44.4013" lon="6.40019">
        <ele>2060.9</ele>
        <time>2018-08-10T12:22:39Z</time>
      </trkpt>
      <trkpt lat="44.40132" lon="6.40022">
        <ele>2060.9</ele>
        <time>2018-08-10T12:22:41Z</time>
      </trkpt>
      <trkpt lat="44.40134" lon="6.40025">
        <ele>2060.9</ele>
        <time>2018-08-10T12:22:43Z</time>
      </trkpt>
      <trkpt lat="44.40136" lon="6.40029">
        <ele>2061.1</ele>
        <time>2018-08-10T12:22:45Z</time>
      </trkpt>
      <trkpt lat="44.40137" lon="6.40032">
        <ele>2061.1</ele>
        <time>2018-08-10T12:22:48Z</time>
      </trkpt>
      <trkpt lat="44.40138" lon="6.40036">
        <ele>2061.1</ele>
        <time>2018-08-10T12:22:50Z</time>
      </trkpt>
      <trkpt lat="44.40141" lon="6.40041">
        <ele>2061.2</ele>
        <time>2018-08-10T12:22:53Z</time>
      </trkpt>
      <trkpt lat="44.40141" lon="6.40045">
        <ele>2061.2</ele>
        <time>2018-08-10T12:22:55Z</time>
      </trkpt>
      <trkpt lat="44.40142" lon="6.40049">
        <ele>2061.3</ele>
        <time>2018-08-10T12:22:57Z</time>
      </trkpt>
      <trkpt lat="44.40143" lon="6.40053">
        <ele>2061.4</ele>
        <time>2018-08-10T12:23:00Z</time>
      </trkpt>
      <trkpt lat="44.40145" lon="6.40057">
        <ele>2061.4</ele>
        <time>2018-08-10T12:23:03Z</time>
      </trkpt>
      <trkpt lat="44.40146" lon="6.40061">
        <ele>2061.5</ele>
        <time>2018-08-10T12:23:05Z</time>
      </trkpt>
      <trkpt lat="44.40147" lon="6.40068">
        <ele>2061.6</ele>
        <time>2018-08-10T12:23:07Z</time>
      </trkpt>
      <trkpt lat="44.40149" lon="6.40073">
        <ele>2061.8</ele>
        <time>2018-08-10T12:23:09Z</time>
      </trkpt>
      <trkpt lat="44.40149" lon="6.40079">
        <ele>2062</ele>
        <time>2018-08-10T12:23:11Z</time>
      </trkpt>
      <trkpt lat="44.40153" lon="6.40083">
        <ele>2062.3</ele>
        <time>2018-08-10T12:23:13Z</time>
      </trkpt>
      <trkpt lat="44.40154" lon="6.40087">
        <ele>2062.5</ele>
        <time>2018-08-10T12:23:15Z</time>
      </trkpt>
      <trkpt lat="44.40157" lon="6.4009">
        <ele>2062.7</ele>
        <time>2018-08-10T12:23:17Z</time>
      </trkpt>
      <trkpt lat="44.40159" lon="6.40093">
        <ele>2062.9</ele>
        <time>2018-08-10T12:23:20Z</time>
      </trkpt>
      <trkpt lat="44.40161" lon="6.40097">
        <ele>2063.1</ele>
        <time>2018-08-10T12:23:24Z</time>
      </trkpt>
      <trkpt lat="44.40163" lon="6.40101">
        <ele>2063.3</ele>
        <time>2018-08-10T12:23:27Z</time>
      </trkpt>
      <trkpt lat="44.40164" lon="6.40106">
        <ele>2063.6</ele>
        <time>2018-08-10T12:23:30Z</time>
      </trkpt>
      <trkpt lat="44.40166" lon="6.40111">
        <ele>2064</ele>
        <time>2018-08-10T12:23:32Z</time>
      </trkpt>
      <trkpt lat="44.40168" lon="6.40116">
        <ele>2064</ele>
        <time>2018-08-10T12:23:34Z</time>
      </trkpt>
      <trkpt lat="44.40173" lon="6.4012">
        <ele>2064</ele>
        <time>2018-08-10T12:23:39Z</time>
      </trkpt>
      <trkpt lat="44.40176" lon="6.40122">
        <ele>2064</ele>
        <time>2018-08-10T12:23:40Z</time>
      </trkpt>
      <trkpt lat="44.40178" lon="6.40123">
        <ele>2064</ele>
        <time>2018-08-10T12:23:41Z</time>
      </trkpt>
      <trkpt lat="44.40181" lon="6.40122">
        <ele>2064</ele>
        <time>2018-08-10T12:23:43Z</time>
      </trkpt>
      <trkpt lat="44.40182" lon="6.40127">
        <ele>2064</ele>
        <time>2018-08-10T12:24:00Z</time>
      </trkpt>
      <trkpt lat="44.40181" lon="6.40131">
        <ele>2064.3</ele>
        <time>2018-08-10T12:24:03Z</time>
      </trkpt>
      <trkpt lat="44.40184" lon="6.40133">
        <ele>2064.6</ele>
        <time>2018-08-10T12:24:11Z</time>
      </trkpt>
      <trkpt lat="44.40183" lon="6.40129">
        <ele>2064.9</ele>
        <time>2018-08-10T12:24:21Z</time>
      </trkpt>
      <trkpt lat="44.4018" lon="6.40125">
        <ele>2065.5</ele>
        <time>2018-08-10T12:24:23Z</time>
      </trkpt>
      <trkpt lat="44.40178" lon="6.40124">
        <ele>2066</ele>
        <time>2018-08-10T12:24:25Z</time>
      </trkpt>
      <trkpt lat="44.4018" lon="6.40126">
        <ele>2066.6</ele>
        <time>2018-08-10T12:24:44Z</time>
      </trkpt>
      <trkpt lat="44.40184" lon="6.40124">
        <ele>2067</ele>
        <time>2018-08-10T12:24:48Z</time>
      </trkpt>
      <trkpt lat="44.40187" lon="6.40122">
        <ele>2067.2</ele>
        <time>2018-08-10T12:24:50Z</time>
      </trkpt>
      <trkpt lat="44.4019" lon="6.4012">
        <ele>2067.2</ele>
        <time>2018-08-10T12:24:52Z</time>
      </trkpt>
      <trkpt lat="44.40193" lon="6.40118">
        <ele>2067.3</ele>
        <time>2018-08-10T12:24:54Z</time>
      </trkpt>
      <trkpt lat="44.40196" lon="6.40116">
        <ele>2066.4</ele>
        <time>2018-08-10T12:24:55Z</time>
      </trkpt>
      <trkpt lat="44.402" lon="6.40115">
        <ele>2064.7</ele>
        <time>2018-08-10T12:24:57Z</time>
      </trkpt>
      <trkpt lat="44.40205" lon="6.40117">
        <ele>2062.3</ele>
        <time>2018-08-10T12:24:59Z</time>
      </trkpt>
      <trkpt lat="44.40208" lon="6.40119">
        <ele>2060.5</ele>
        <time>2018-08-10T12:25:01Z</time>
      </trkpt>
      <trkpt lat="44.4021" lon="6.40125">
        <ele>2058.7</ele>
        <time>2018-08-10T12:25:03Z</time>
      </trkpt>
      <trkpt lat="44.40213" lon="6.40129">
        <ele>2057.2</ele>
        <time>2018-08-10T12:25:05Z</time>
      </trkpt>
      <trkpt lat="44.40214" lon="6.40133">
        <ele>2056.9</ele>
        <time>2018-08-10T12:25:07Z</time>
      </trkpt>
      <trkpt lat="44.40215" lon="6.40139">
        <ele>2056.8</ele>
        <time>2018-08-10T12:25:09Z</time>
      </trkpt>
      <trkpt lat="44.40215" lon="6.40146">
        <ele>2056.3</ele>
        <time>2018-08-10T12:25:11Z</time>
      </trkpt>
      <trkpt lat="44.40217" lon="6.40151">
        <ele>2055.6</ele>
        <time>2018-08-10T12:25:13Z</time>
      </trkpt>
      <trkpt lat="44.40219" lon="6.40156">
        <ele>2054.5</ele>
        <time>2018-08-10T12:25:16Z</time>
      </trkpt>
      <trkpt lat="44.4022" lon="6.40162">
        <ele>2052.9</ele>
        <time>2018-08-10T12:25:18Z</time>
      </trkpt>
      <trkpt lat="44.40223" lon="6.40165">
        <ele>2051.5</ele>
        <time>2018-08-10T12:25:20Z</time>
      </trkpt>
      <trkpt lat="44.40225" lon="6.40168">
        <ele>2050.7</ele>
        <time>2018-08-10T12:25:22Z</time>
      </trkpt>
      <trkpt lat="44.40228" lon="6.40171">
        <ele>2049.9</ele>
        <time>2018-08-10T12:25:25Z</time>
      </trkpt>
      <trkpt lat="44.40228" lon="6.40175">
        <ele>2049.2</ele>
        <time>2018-08-10T12:25:28Z</time>
      </trkpt>
      <trkpt lat="44.40228" lon="6.40179">
        <ele>2049.2</ele>
        <time>2018-08-10T12:25:30Z</time>
      </trkpt>
      <trkpt lat="44.4023" lon="6.40184">
        <ele>2049.3</ele>
        <time>2018-08-10T12:25:32Z</time>
      </trkpt>
      <trkpt lat="44.40229" lon="6.40189">
        <ele>2049.4</ele>
        <time>2018-08-10T12:25:34Z</time>
      </trkpt>
      <trkpt lat="44.40231" lon="6.40186">
        <ele>2049.8</ele>
        <time>2018-08-10T12:25:42Z</time>
      </trkpt>
      <trkpt lat="44.40231" lon="6.40182">
        <ele>2050.3</ele>
        <time>2018-08-10T12:25:44Z</time>
      </trkpt>
      <trkpt lat="44.40232" lon="6.40185">
        <ele>2050.7</ele>
        <time>2018-08-10T12:26:09Z</time>
      </trkpt>
      <trkpt lat="44.40234" lon="6.40182">
        <ele>2050.7</ele>
        <time>2018-08-10T12:26:12Z</time>
      </trkpt>
      <trkpt lat="44.40237" lon="6.40181">
        <ele>2050.6</ele>
        <time>2018-08-10T12:26:16Z</time>
      </trkpt>
      <trkpt lat="44.40234" lon="6.4018">
        <ele>2050.4</ele>
        <time>2018-08-10T12:26:34Z</time>
      </trkpt>
      <trkpt lat="44.40235" lon="6.40185">
        <ele>2050.3</ele>
        <time>2018-08-10T12:26:39Z</time>
      </trkpt>
      <trkpt lat="44.40237" lon="6.40189">
        <ele>2050.2</ele>
        <time>2018-08-10T12:26:41Z</time>
      </trkpt>
      <trkpt lat="44.40239" lon="6.40193">
        <ele>2050.2</ele>
        <time>2018-08-10T12:26:43Z</time>
      </trkpt>
      <trkpt lat="44.4024" lon="6.40197">
        <ele>2050.4</ele>
        <time>2018-08-10T12:26:45Z</time>
      </trkpt>
      <trkpt lat="44.40242" lon="6.402">
        <ele>2050.5</ele>
        <time>2018-08-10T12:26:47Z</time>
      </trkpt>
      <trkpt lat="44.40244" lon="6.40204">
        <ele>2050.8</ele>
        <time>2018-08-10T12:26:49Z</time>
      </trkpt>
      <trkpt lat="44.40246" lon="6.40207">
        <ele>2052.1</ele>
        <time>2018-08-10T12:26:52Z</time>
      </trkpt>
      <trkpt lat="44.40249" lon="6.40208">
        <ele>2053.3</ele>
        <time>2018-08-10T12:26:55Z</time>
      </trkpt>
      <trkpt lat="44.4025" lon="6.40212">
        <ele>2054.6</ele>
        <time>2018-08-10T12:27:01Z</time>
      </trkpt>
      <trkpt lat="44.40256" lon="6.40212">
        <ele>2056.6</ele>
        <time>2018-08-10T12:27:14Z</time>
      </trkpt>
      <trkpt lat="44.40259" lon="6.40213">
        <ele>2057.6</ele>
        <time>2018-08-10T12:27:16Z</time>
      </trkpt>
      <trkpt lat="44.40262" lon="6.40213">
        <ele>2058.4</ele>
        <time>2018-08-10T12:27:18Z</time>
      </trkpt>
      <trkpt lat="44.40265" lon="6.40212">
        <ele>2058.6</ele>
        <time>2018-08-10T12:27:20Z</time>
      </trkpt>
      <trkpt lat="44.40269" lon="6.40213">
        <ele>2058.8</ele>
        <time>2018-08-10T12:27:23Z</time>
      </trkpt>
      <trkpt lat="44.40273" lon="6.40215">
        <ele>2059.5</ele>
        <time>2018-08-10T12:27:26Z</time>
      </trkpt>
      <trkpt lat="44.40277" lon="6.40215">
        <ele>2060.3</ele>
        <time>2018-08-10T12:27:29Z</time>
      </trkpt>
      <trkpt lat="44.4028" lon="6.40218">
        <ele>2061.1</ele>
        <time>2018-08-10T12:27:31Z</time>
      </trkpt>
      <trkpt lat="44.40283" lon="6.4022">
        <ele>2061.5</ele>
        <time>2018-08-10T12:27:33Z</time>
      </trkpt>
      <trkpt lat="44.40286" lon="6.40223">
        <ele>2062.1</ele>
        <time>2018-08-10T12:27:36Z</time>
      </trkpt>
      <trkpt lat="44.40289" lon="6.40225">
        <ele>2062.1</ele>
        <time>2018-08-10T12:27:38Z</time>
      </trkpt>
      <trkpt lat="44.40293" lon="6.40226">
        <ele>2062</ele>
        <time>2018-08-10T12:27:41Z</time>
      </trkpt>
      <trkpt lat="44.40295" lon="6.40231">
        <ele>2061.4</ele>
        <time>2018-08-10T12:27:43Z</time>
      </trkpt>
      <trkpt lat="44.40299" lon="6.40235">
        <ele>2059.7</ele>
        <time>2018-08-10T12:27:45Z</time>
      </trkpt>
      <trkpt lat="44.40302" lon="6.40238">
        <ele>2058.3</ele>
        <time>2018-08-10T12:27:47Z</time>
      </trkpt>
      <trkpt lat="44.40307" lon="6.4024">
        <ele>2057.1</ele>
        <time>2018-08-10T12:27:49Z</time>
      </trkpt>
      <trkpt lat="44.4031" lon="6.40241">
        <ele>2056.2</ele>
        <time>2018-08-10T12:27:51Z</time>
      </trkpt>
      <trkpt lat="44.40311" lon="6.40245">
        <ele>2054.8</ele>
        <time>2018-08-10T12:27:54Z</time>
      </trkpt>
      <trkpt lat="44.40314" lon="6.40248">
        <ele>2053.5</ele>
        <time>2018-08-10T12:27:58Z</time>
      </trkpt>
      <trkpt lat="44.40315" lon="6.40252">
        <ele>2052.6</ele>
        <time>2018-08-10T12:28:00Z</time>
      </trkpt>
      <trkpt lat="44.40317" lon="6.40255">
        <ele>2052.9</ele>
        <time>2018-08-10T12:28:02Z</time>
      </trkpt>
      <trkpt lat="44.40319" lon="6.40258">
        <ele>2053.3</ele>
        <time>2018-08-10T12:28:13Z</time>
      </trkpt>
      <trkpt lat="44.40321" lon="6.4026">
        <ele>2053.6</ele>
        <time>2018-08-10T12:28:16Z</time>
      </trkpt>
      <trkpt lat="44.40324" lon="6.40263">
        <ele>2053.9</ele>
        <time>2018-08-10T12:28:19Z</time>
      </trkpt>
      <trkpt lat="44.40324" lon="6.40266">
        <ele>2054.2</ele>
        <time>2018-08-10T12:28:22Z</time>
      </trkpt>
      <trkpt lat="44.40325" lon="6.40271">
        <ele>2054.6</ele>
        <time>2018-08-10T12:28:25Z</time>
      </trkpt>
      <trkpt lat="44.40327" lon="6.40275">
        <ele>2055.2</ele>
        <time>2018-08-10T12:28:28Z</time>
      </trkpt>
      <trkpt lat="44.40328" lon="6.40279">
        <ele>2055.9</ele>
        <time>2018-08-10T12:28:31Z</time>
      </trkpt>
      <trkpt lat="44.40329" lon="6.40283">
        <ele>2056.6</ele>
        <time>2018-08-10T12:28:38Z</time>
      </trkpt>
      <trkpt lat="44.40328" lon="6.40288">
        <ele>2056.7</ele>
        <time>2018-08-10T12:28:41Z</time>
      </trkpt>
      <trkpt lat="44.40326" lon="6.4029">
        <ele>2056.6</ele>
        <time>2018-08-10T12:29:57Z</time>
      </trkpt>
      <trkpt lat="44.40325" lon="6.40295">
        <ele>2056.5</ele>
        <time>2018-08-10T12:29:59Z</time>
      </trkpt>
      <trkpt lat="44.40326" lon="6.403">
        <ele>2056.3</ele>
        <time>2018-08-10T12:30:01Z</time>
      </trkpt>
      <trkpt lat="44.40325" lon="6.40305">
        <ele>2056.1</ele>
        <time>2018-08-10T12:30:03Z</time>
      </trkpt>
      <trkpt lat="44.40325" lon="6.4031">
        <ele>2055.8</ele>
        <time>2018-08-10T12:30:05Z</time>
      </trkpt>
      <trkpt lat="44.40325" lon="6.40315">
        <ele>2055.2</ele>
        <time>2018-08-10T12:30:07Z</time>
      </trkpt>
      <trkpt lat="44.40326" lon="6.4032">
        <ele>2054.4</ele>
        <time>2018-08-10T12:30:09Z</time>
      </trkpt>
      <trkpt lat="44.40326" lon="6.40324">
        <ele>2053.7</ele>
        <time>2018-08-10T12:30:11Z</time>
      </trkpt>
      <trkpt lat="44.40326" lon="6.40328">
        <ele>2053.4</ele>
        <time>2018-08-10T12:30:13Z</time>
      </trkpt>
      <trkpt lat="44.40325" lon="6.40333">
        <ele>2053.1</ele>
        <time>2018-08-10T12:30:15Z</time>
      </trkpt>
      <trkpt lat="44.40324" lon="6.40337">
        <ele>2053.1</ele>
        <time>2018-08-10T12:30:21Z</time>
      </trkpt>
      <trkpt lat="44.40323" lon="6.40341">
        <ele>2053.4</ele>
        <time>2018-08-10T12:30:25Z</time>
      </trkpt>
      <trkpt lat="44.40323" lon="6.40345">
        <ele>2053.6</ele>
        <time>2018-08-10T12:30:28Z</time>
      </trkpt>
      <trkpt lat="44.40322" lon="6.40349">
        <ele>2054.2</ele>
        <time>2018-08-10T12:30:33Z</time>
      </trkpt>
      <trkpt lat="44.40322" lon="6.40353">
        <ele>2054.8</ele>
        <time>2018-08-10T12:30:36Z</time>
      </trkpt>
      <trkpt lat="44.40319" lon="6.40358">
        <ele>2055.6</ele>
        <time>2018-08-10T12:30:41Z</time>
      </trkpt>
      <trkpt lat="44.40318" lon="6.40361">
        <ele>2056.1</ele>
        <time>2018-08-10T12:30:43Z</time>
      </trkpt>
      <trkpt lat="44.40317" lon="6.40365">
        <ele>2056.6</ele>
        <time>2018-08-10T12:30:45Z</time>
      </trkpt>
      <trkpt lat="44.40316" lon="6.4037">
        <ele>2057</ele>
        <time>2018-08-10T12:30:47Z</time>
      </trkpt>
      <trkpt lat="44.40315" lon="6.40374">
        <ele>2056.8</ele>
        <time>2018-08-10T12:30:50Z</time>
      </trkpt>
      <trkpt lat="44.40313" lon="6.40377">
        <ele>2056.7</ele>
        <time>2018-08-10T12:30:52Z</time>
      </trkpt>
      <trkpt lat="44.40311" lon="6.40381">
        <ele>2056.3</ele>
        <time>2018-08-10T12:30:54Z</time>
      </trkpt>
      <trkpt lat="44.40308" lon="6.40386">
        <ele>2055.8</ele>
        <time>2018-08-10T12:30:56Z</time>
      </trkpt>
      <trkpt lat="44.40305" lon="6.40389">
        <ele>2055.2</ele>
        <time>2018-08-10T12:30:58Z</time>
      </trkpt>
      <trkpt lat="44.40302" lon="6.40395">
        <ele>2054.8</ele>
        <time>2018-08-10T12:31:00Z</time>
      </trkpt>
      <trkpt lat="44.40298" lon="6.40398">
        <ele>2054.5</ele>
        <time>2018-08-10T12:31:02Z</time>
      </trkpt>
      <trkpt lat="44.40296" lon="6.40404">
        <ele>2054.3</ele>
        <time>2018-08-10T12:31:04Z</time>
      </trkpt>
      <trkpt lat="44.40294" lon="6.40409">
        <ele>2054.1</ele>
        <time>2018-08-10T12:31:06Z</time>
      </trkpt>
      <trkpt lat="44.40292" lon="6.40414">
        <ele>2053.7</ele>
        <time>2018-08-10T12:31:08Z</time>
      </trkpt>
      <trkpt lat="44.4029" lon="6.40418">
        <ele>2053.3</ele>
        <time>2018-08-10T12:31:10Z</time>
      </trkpt>
      <trkpt lat="44.40288" lon="6.40422">
        <ele>2052.8</ele>
        <time>2018-08-10T12:31:12Z</time>
      </trkpt>
      <trkpt lat="44.40286" lon="6.40427">
        <ele>2052.1</ele>
        <time>2018-08-10T12:31:14Z</time>
      </trkpt>
      <trkpt lat="44.40286" lon="6.40431">
        <ele>2051.4</ele>
        <time>2018-08-10T12:31:16Z</time>
      </trkpt>
      <trkpt lat="44.40285" lon="6.40435">
        <ele>2050.9</ele>
        <time>2018-08-10T12:31:18Z</time>
      </trkpt>
      <trkpt lat="44.40285" lon="6.40439">
        <ele>2050.5</ele>
        <time>2018-08-10T12:31:20Z</time>
      </trkpt>
      <trkpt lat="44.40287" lon="6.40441">
        <ele>2050.1</ele>
        <time>2018-08-10T12:31:44Z</time>
      </trkpt>
      <trkpt lat="44.40287" lon="6.40445">
        <ele>2049.4</ele>
        <time>2018-08-10T12:32:05Z</time>
      </trkpt>
      <trkpt lat="44.40285" lon="6.40442">
        <ele>2049.7</ele>
        <time>2018-08-10T12:32:17Z</time>
      </trkpt>
      <trkpt lat="44.40286" lon="6.40435">
        <ele>2050.5</ele>
        <time>2018-08-10T12:32:20Z</time>
      </trkpt>
      <trkpt lat="44.40286" lon="6.4043">
        <ele>2051.2</ele>
        <time>2018-08-10T12:32:24Z</time>
      </trkpt>
      <trkpt lat="44.40287" lon="6.40426">
        <ele>2051.9</ele>
        <time>2018-08-10T12:32:26Z</time>
      </trkpt>
      <trkpt lat="44.40288" lon="6.4043">
        <ele>2051.3</ele>
        <time>2018-08-10T12:32:45Z</time>
      </trkpt>
      <trkpt lat="44.40286" lon="6.40435">
        <ele>2050.7</ele>
        <time>2018-08-10T12:32:48Z</time>
      </trkpt>
      <trkpt lat="44.40285" lon="6.4044">
        <ele>2050.1</ele>
        <time>2018-08-10T12:32:53Z</time>
      </trkpt>
      <trkpt lat="44.40284" lon="6.40445">
        <ele>2049.7</ele>
        <time>2018-08-10T12:32:55Z</time>
      </trkpt>
      <trkpt lat="44.40285" lon="6.4044">
        <ele>2049.4</ele>
        <time>2018-08-10T12:33:05Z</time>
      </trkpt>
      <trkpt lat="44.40288" lon="6.40439">
        <ele>2049.1</ele>
        <time>2018-08-10T12:34:19Z</time>
      </trkpt>
      <trkpt lat="44.40289" lon="6.40443">
        <ele>2048.9</ele>
        <time>2018-08-10T12:34:49Z</time>
      </trkpt>
      <trkpt lat="44.40291" lon="6.40441">
        <ele>2048.7</ele>
        <time>2018-08-10T12:35:34Z</time>
      </trkpt>
      <trkpt lat="44.40288" lon="6.40443">
        <ele>2048.4</ele>
        <time>2018-08-10T12:35:36Z</time>
      </trkpt>
      <trkpt lat="44.40286" lon="6.40447">
        <ele>2047.8</ele>
        <time>2018-08-10T12:39:47Z</time>
      </trkpt>
      <trkpt lat="44.40287" lon="6.40453">
        <ele>2047.3</ele>
        <time>2018-08-10T12:39:50Z</time>
      </trkpt>
      <trkpt lat="44.40289" lon="6.40456">
        <ele>2046.5</ele>
        <time>2018-08-10T12:39:52Z</time>
      </trkpt>
      <trkpt lat="44.40291" lon="6.4046">
        <ele>2045.6</ele>
        <time>2018-08-10T12:39:54Z</time>
      </trkpt>
      <trkpt lat="44.40295" lon="6.4046">
        <ele>2045.1</ele>
        <time>2018-08-10T12:40:00Z</time>
      </trkpt>
      <trkpt lat="44.40296" lon="6.40465">
        <ele>2044.7</ele>
        <time>2018-08-10T12:40:07Z</time>
      </trkpt>
      <trkpt lat="44.40295" lon="6.40469">
        <ele>2044.6</ele>
        <time>2018-08-10T12:40:15Z</time>
      </trkpt>
      <trkpt lat="44.40292" lon="6.40469">
        <ele>2044.5</ele>
        <time>2018-08-10T12:40:18Z</time>
      </trkpt>
      <trkpt lat="44.40289" lon="6.40468">
        <ele>2044.4</ele>
        <time>2018-08-10T12:40:20Z</time>
      </trkpt>
      <trkpt lat="44.40285" lon="6.40467">
        <ele>2044.1</ele>
        <time>2018-08-10T12:40:22Z</time>
      </trkpt>
      <trkpt lat="44.40284" lon="6.4047">
        <ele>2043.8</ele>
        <time>2018-08-10T12:40:29Z</time>
      </trkpt>
      <trkpt lat="44.40285" lon="6.40476">
        <ele>2043.5</ele>
        <time>2018-08-10T12:40:32Z</time>
      </trkpt>
      <trkpt lat="44.40287" lon="6.4048">
        <ele>2043.2</ele>
        <time>2018-08-10T12:40:34Z</time>
      </trkpt>
      <trkpt lat="44.40289" lon="6.40485">
        <ele>2042.7</ele>
        <time>2018-08-10T12:40:36Z</time>
      </trkpt>
      <trkpt lat="44.40292" lon="6.40489">
        <ele>2042.2</ele>
        <time>2018-08-10T12:40:38Z</time>
      </trkpt>
      <trkpt lat="44.40294" lon="6.40492">
        <ele>2042.4</ele>
        <time>2018-08-10T12:40:40Z</time>
      </trkpt>
      <trkpt lat="44.40295" lon="6.40498">
        <ele>2042.6</ele>
        <time>2018-08-10T12:40:42Z</time>
      </trkpt>
      <trkpt lat="44.40294" lon="6.40503">
        <ele>2042.1</ele>
        <time>2018-08-10T12:40:45Z</time>
      </trkpt>
      <trkpt lat="44.40295" lon="6.40508">
        <ele>2041.3</ele>
        <time>2018-08-10T12:40:47Z</time>
      </trkpt>
      <trkpt lat="44.40296" lon="6.40513">
        <ele>2040.7</ele>
        <time>2018-08-10T12:40:49Z</time>
      </trkpt>
      <trkpt lat="44.40298" lon="6.40518">
        <ele>2040.4</ele>
        <time>2018-08-10T12:40:51Z</time>
      </trkpt>
      <trkpt lat="44.403" lon="6.40521">
        <ele>2040.2</ele>
        <time>2018-08-10T12:40:53Z</time>
      </trkpt>
      <trkpt lat="44.40301" lon="6.40525">
        <ele>2039.8</ele>
        <time>2018-08-10T12:40:57Z</time>
      </trkpt>
      <trkpt lat="44.40303" lon="6.40528">
        <ele>2038.8</ele>
        <time>2018-08-10T12:40:59Z</time>
      </trkpt>
      <trkpt lat="44.40305" lon="6.40533">
        <ele>2037.8</ele>
        <time>2018-08-10T12:41:02Z</time>
      </trkpt>
      <trkpt lat="44.40305" lon="6.40537">
        <ele>2037</ele>
        <time>2018-08-10T12:41:05Z</time>
      </trkpt>
      <trkpt lat="44.40306" lon="6.40541">
        <ele>2036.4</ele>
        <time>2018-08-10T12:41:07Z</time>
      </trkpt>
      <trkpt lat="44.40305" lon="6.40545">
        <ele>2035.7</ele>
        <time>2018-08-10T12:41:10Z</time>
      </trkpt>
      <trkpt lat="44.40303" lon="6.40551">
        <ele>2034.5</ele>
        <time>2018-08-10T12:41:13Z</time>
      </trkpt>
      <trkpt lat="44.40302" lon="6.40554">
        <ele>2033.6</ele>
        <time>2018-08-10T12:41:14Z</time>
      </trkpt>
      <trkpt lat="44.403" lon="6.40562">
        <ele>2032.2</ele>
        <time>2018-08-10T12:41:16Z</time>
      </trkpt>
      <trkpt lat="44.40298" lon="6.40565">
        <ele>2031.5</ele>
        <time>2018-08-10T12:41:17Z</time>
      </trkpt>
      <trkpt lat="44.40297" lon="6.40571">
        <ele>2030.5</ele>
        <time>2018-08-10T12:41:19Z</time>
      </trkpt>
      <trkpt lat="44.40295" lon="6.40577">
        <ele>2029.9</ele>
        <time>2018-08-10T12:41:21Z</time>
      </trkpt>
      <trkpt lat="44.40294" lon="6.40581">
        <ele>2029.5</ele>
        <time>2018-08-10T12:41:22Z</time>
      </trkpt>
      <trkpt lat="44.40292" lon="6.40587">
        <ele>2028.9</ele>
        <time>2018-08-10T12:41:24Z</time>
      </trkpt>
      <trkpt lat="44.40291" lon="6.4059">
        <ele>2028.5</ele>
        <time>2018-08-10T12:41:27Z</time>
      </trkpt>
      <trkpt lat="44.40289" lon="6.40586">
        <ele>2028.2</ele>
        <time>2018-08-10T12:41:30Z</time>
      </trkpt>
      <trkpt lat="44.40285" lon="6.40582">
        <ele>2027.8</ele>
        <time>2018-08-10T12:41:32Z</time>
      </trkpt>
      <trkpt lat="44.40283" lon="6.4058">
        <ele>2027.2</ele>
        <time>2018-08-10T12:41:33Z</time>
      </trkpt>
      <trkpt lat="44.40281" lon="6.40576">
        <ele>2026.4</ele>
        <time>2018-08-10T12:41:34Z</time>
      </trkpt>
      <trkpt lat="44.40277" lon="6.40571">
        <ele>2025.1</ele>
        <time>2018-08-10T12:41:36Z</time>
      </trkpt>
      <trkpt lat="44.40274" lon="6.40567">
        <ele>2023.9</ele>
        <time>2018-08-10T12:41:38Z</time>
      </trkpt>
      <trkpt lat="44.40271" lon="6.40566">
        <ele>2023</ele>
        <time>2018-08-10T12:41:41Z</time>
      </trkpt>
      <trkpt lat="44.40269" lon="6.40567">
        <ele>2022.1</ele>
        <time>2018-08-10T12:42:04Z</time>
      </trkpt>
      <trkpt lat="44.40267" lon="6.40571">
        <ele>2021</ele>
        <time>2018-08-10T12:42:09Z</time>
      </trkpt>
      <trkpt lat="44.40266" lon="6.40576">
        <ele>2020.1</ele>
        <time>2018-08-10T12:42:11Z</time>
      </trkpt>
      <trkpt lat="44.40265" lon="6.4058">
        <ele>2019.4</ele>
        <time>2018-08-10T12:42:13Z</time>
      </trkpt>
      <trkpt lat="44.40263" lon="6.40583">
        <ele>2018.8</ele>
        <time>2018-08-10T12:42:20Z</time>
      </trkpt>
      <trkpt lat="44.40262" lon="6.40587">
        <ele>2018.1</ele>
        <time>2018-08-10T12:42:24Z</time>
      </trkpt>
      <trkpt lat="44.40261" lon="6.40591">
        <ele>2017.4</ele>
        <time>2018-08-10T12:42:29Z</time>
      </trkpt>
      <trkpt lat="44.40262" lon="6.40596">
        <ele>2016.7</ele>
        <time>2018-08-10T12:42:32Z</time>
      </trkpt>
      <trkpt lat="44.4026" lon="6.40602">
        <ele>2015.8</ele>
        <time>2018-08-10T12:42:34Z</time>
      </trkpt>
      <trkpt lat="44.4026" lon="6.40608">
        <ele>2014.8</ele>
        <time>2018-08-10T12:42:36Z</time>
      </trkpt>
      <trkpt lat="44.40259" lon="6.40612">
        <ele>2014</ele>
        <time>2018-08-10T12:42:38Z</time>
      </trkpt>
      <trkpt lat="44.40258" lon="6.40617">
        <ele>2013.2</ele>
        <time>2018-08-10T12:42:41Z</time>
      </trkpt>
      <trkpt lat="44.40257" lon="6.40622">
        <ele>2012.8</ele>
        <time>2018-08-10T12:42:43Z</time>
      </trkpt>
      <trkpt lat="44.40255" lon="6.40625">
        <ele>2012.4</ele>
        <time>2018-08-10T12:42:45Z</time>
      </trkpt>
      <trkpt lat="44.40254" lon="6.40629">
        <ele>2011.8</ele>
        <time>2018-08-10T12:42:48Z</time>
      </trkpt>
      <trkpt lat="44.40252" lon="6.40635">
        <ele>2010.8</ele>
        <time>2018-08-10T12:42:51Z</time>
      </trkpt>
      <trkpt lat="44.40251" lon="6.4064">
        <ele>2009.8</ele>
        <time>2018-08-10T12:42:53Z</time>
      </trkpt>
      <trkpt lat="44.40249" lon="6.40645">
        <ele>2008.9</ele>
        <time>2018-08-10T12:42:55Z</time>
      </trkpt>
      <trkpt lat="44.40248" lon="6.40649">
        <ele>2008.4</ele>
        <time>2018-08-10T12:42:56Z</time>
      </trkpt>
      <trkpt lat="44.40247" lon="6.40654">
        <ele>2007.8</ele>
        <time>2018-08-10T12:42:58Z</time>
      </trkpt>
      <trkpt lat="44.40246" lon="6.40658">
        <ele>2007.2</ele>
        <time>2018-08-10T12:42:59Z</time>
      </trkpt>
      <trkpt lat="44.40245" lon="6.40662">
        <ele>2006.5</ele>
        <time>2018-08-10T12:43:00Z</time>
      </trkpt>
      <trkpt lat="44.40244" lon="6.40667">
        <ele>2005.7</ele>
        <time>2018-08-10T12:43:01Z</time>
      </trkpt>
      <trkpt lat="44.40242" lon="6.40671">
        <ele>2004.7</ele>
        <time>2018-08-10T12:43:02Z</time>
      </trkpt>
      <trkpt lat="44.4024" lon="6.40676">
        <ele>2003.6</ele>
        <time>2018-08-10T12:43:03Z</time>
      </trkpt>
      <trkpt lat="44.40238" lon="6.40681">
        <ele>2002.7</ele>
        <time>2018-08-10T12:43:04Z</time>
      </trkpt>
      <trkpt lat="44.40235" lon="6.40688">
        <ele>2001.6</ele>
        <time>2018-08-10T12:43:06Z</time>
      </trkpt>
      <trkpt lat="44.40231" lon="6.40692">
        <ele>2000.6</ele>
        <time>2018-08-10T12:43:08Z</time>
      </trkpt>
      <trkpt lat="44.40228" lon="6.40694">
        <ele>1999.9</ele>
        <time>2018-08-10T12:43:09Z</time>
      </trkpt>
      <trkpt lat="44.40226" lon="6.40697">
        <ele>1999.3</ele>
        <time>2018-08-10T12:43:10Z</time>
      </trkpt>
      <trkpt lat="44.40222" lon="6.40702">
        <ele>1998.2</ele>
        <time>2018-08-10T12:43:12Z</time>
      </trkpt>
      <trkpt lat="44.4022" lon="6.40706">
        <ele>1997.4</ele>
        <time>2018-08-10T12:43:13Z</time>
      </trkpt>
      <trkpt lat="44.40218" lon="6.40709">
        <ele>1996.7</ele>
        <time>2018-08-10T12:43:14Z</time>
      </trkpt>
      <trkpt lat="44.40217" lon="6.40714">
        <ele>1995.8</ele>
        <time>2018-08-10T12:43:15Z</time>
      </trkpt>
      <trkpt lat="44.40216" lon="6.40718">
        <ele>1995.1</ele>
        <time>2018-08-10T12:43:16Z</time>
      </trkpt>
      <trkpt lat="44.40215" lon="6.40724">
        <ele>1993.7</ele>
        <time>2018-08-10T12:43:18Z</time>
      </trkpt>
      <trkpt lat="44.40213" lon="6.4073">
        <ele>1992.2</ele>
        <time>2018-08-10T12:43:20Z</time>
      </trkpt>
      <trkpt lat="44.40211" lon="6.40734">
        <ele>1991.1</ele>
        <time>2018-08-10T12:43:23Z</time>
      </trkpt>
      <trkpt lat="44.40208" lon="6.4074">
        <ele>1989.7</ele>
        <time>2018-08-10T12:43:25Z</time>
      </trkpt>
      <trkpt lat="44.40206" lon="6.40747">
        <ele>1988.8</ele>
        <time>2018-08-10T12:43:27Z</time>
      </trkpt>
      <trkpt lat="44.40205" lon="6.40751">
        <ele>1988.2</ele>
        <time>2018-08-10T12:43:28Z</time>
      </trkpt>
      <trkpt lat="44.40205" lon="6.40756">
        <ele>1987.3</ele>
        <time>2018-08-10T12:43:29Z</time>
      </trkpt>
      <trkpt lat="44.40203" lon="6.4076">
        <ele>1986.3</ele>
        <time>2018-08-10T12:43:30Z</time>
      </trkpt>
      <trkpt lat="44.40201" lon="6.40766">
        <ele>1985</ele>
        <time>2018-08-10T12:43:31Z</time>
      </trkpt>
      <trkpt lat="44.40199" lon="6.40771">
        <ele>1983.8</ele>
        <time>2018-08-10T12:43:32Z</time>
      </trkpt>
      <trkpt lat="44.40196" lon="6.40774">
        <ele>1982.6</ele>
        <time>2018-08-10T12:43:33Z</time>
      </trkpt>
      <trkpt lat="44.40193" lon="6.40778">
        <ele>1981.6</ele>
        <time>2018-08-10T12:43:34Z</time>
      </trkpt>
      <trkpt lat="44.4019" lon="6.40781">
        <ele>1980.5</ele>
        <time>2018-08-10T12:43:35Z</time>
      </trkpt>
      <trkpt lat="44.40187" lon="6.40784">
        <ele>1979.4</ele>
        <time>2018-08-10T12:43:36Z</time>
      </trkpt>
      <trkpt lat="44.40184" lon="6.40789">
        <ele>1978.3</ele>
        <time>2018-08-10T12:43:37Z</time>
      </trkpt>
      <trkpt lat="44.4018" lon="6.40793">
        <ele>1977.4</ele>
        <time>2018-08-10T12:43:38Z</time>
      </trkpt>
      <trkpt lat="44.40177" lon="6.40797">
        <ele>1976.8</ele>
        <time>2018-08-10T12:43:39Z</time>
      </trkpt>
      <trkpt lat="44.40174" lon="6.408">
        <ele>1976.2</ele>
        <time>2018-08-10T12:43:40Z</time>
      </trkpt>
      <trkpt lat="44.40172" lon="6.40803">
        <ele>1975.2</ele>
        <time>2018-08-10T12:43:41Z</time>
      </trkpt>
      <trkpt lat="44.4017" lon="6.40808">
        <ele>1973.9</ele>
        <time>2018-08-10T12:43:44Z</time>
      </trkpt>
      <trkpt lat="44.40169" lon="6.40813">
        <ele>1972.7</ele>
        <time>2018-08-10T12:43:47Z</time>
      </trkpt>
      <trkpt lat="44.40167" lon="6.40816">
        <ele>1972.1</ele>
        <time>2018-08-10T12:43:48Z</time>
      </trkpt>
      <trkpt lat="44.40166" lon="6.40819">
        <ele>1971.5</ele>
        <time>2018-08-10T12:43:49Z</time>
      </trkpt>
      <trkpt lat="44.40162" lon="6.40826">
        <ele>1970.3</ele>
        <time>2018-08-10T12:43:51Z</time>
      </trkpt>
      <trkpt lat="44.40159" lon="6.40832">
        <ele>1969.2</ele>
        <time>2018-08-10T12:43:53Z</time>
      </trkpt>
      <trkpt lat="44.40157" lon="6.40836">
        <ele>1968.7</ele>
        <time>2018-08-10T12:43:54Z</time>
      </trkpt>
      <trkpt lat="44.40155" lon="6.4084">
        <ele>1968</ele>
        <time>2018-08-10T12:43:55Z</time>
      </trkpt>
      <trkpt lat="44.40153" lon="6.40843">
        <ele>1967.5</ele>
        <time>2018-08-10T12:43:56Z</time>
      </trkpt>
      <trkpt lat="44.40151" lon="6.40846">
        <ele>1967.1</ele>
        <time>2018-08-10T12:43:57Z</time>
      </trkpt>
      <trkpt lat="44.40148" lon="6.40852">
        <ele>1966.3</ele>
        <time>2018-08-10T12:43:59Z</time>
      </trkpt>
      <trkpt lat="44.40146" lon="6.40856">
        <ele>1965.8</ele>
        <time>2018-08-10T12:44:00Z</time>
      </trkpt>
      <trkpt lat="44.40145" lon="6.40861">
        <ele>1965.1</ele>
        <time>2018-08-10T12:44:02Z</time>
      </trkpt>
      <trkpt lat="44.40145" lon="6.40867">
        <ele>1962</ele>
        <time>2018-08-10T12:44:04Z</time>
      </trkpt>
      <trkpt lat="44.40144" lon="6.40874">
        <ele>1961.5</ele>
        <time>2018-08-10T12:44:06Z</time>
      </trkpt>
      <trkpt lat="44.40143" lon="6.40878">
        <ele>1961.2</ele>
        <time>2018-08-10T12:44:08Z</time>
      </trkpt>
      <trkpt lat="44.40143" lon="6.40884">
        <ele>1960.9</ele>
        <time>2018-08-10T12:44:10Z</time>
      </trkpt>
      <trkpt lat="44.40142" lon="6.40888">
        <ele>1960.7</ele>
        <time>2018-08-10T12:44:30Z</time>
      </trkpt>
      <trkpt lat="44.40143" lon="6.40894">
        <ele>1960.4</ele>
        <time>2018-08-10T12:44:32Z</time>
      </trkpt>
      <trkpt lat="44.40144" lon="6.40899">
        <ele>1960.3</ele>
        <time>2018-08-10T12:44:34Z</time>
      </trkpt>
      <trkpt lat="44.40145" lon="6.40907">
        <ele>1960.1</ele>
        <time>2018-08-10T12:44:36Z</time>
      </trkpt>
      <trkpt lat="44.40146" lon="6.40914">
        <ele>1959.7</ele>
        <time>2018-08-10T12:44:38Z</time>
      </trkpt>
      <trkpt lat="44.40146" lon="6.40918">
        <ele>1959.5</ele>
        <time>2018-08-10T12:44:39Z</time>
      </trkpt>
      <trkpt lat="44.40146" lon="6.40923">
        <ele>1959.4</ele>
        <time>2018-08-10T12:44:40Z</time>
      </trkpt>
      <trkpt lat="44.40147" lon="6.40927">
        <ele>1959.3</ele>
        <time>2018-08-10T12:44:41Z</time>
      </trkpt>
      <trkpt lat="44.40148" lon="6.40932">
        <ele>1959</ele>
        <time>2018-08-10T12:44:42Z</time>
      </trkpt>
      <trkpt lat="44.40148" lon="6.40937">
        <ele>1958.5</ele>
        <time>2018-08-10T12:44:43Z</time>
      </trkpt>
      <trkpt lat="44.40149" lon="6.40942">
        <ele>1958.1</ele>
        <time>2018-08-10T12:44:44Z</time>
      </trkpt>
      <trkpt lat="44.4015" lon="6.40946">
        <ele>1958</ele>
        <time>2018-08-10T12:44:45Z</time>
      </trkpt>
      <trkpt lat="44.4015" lon="6.4095">
        <ele>1958</ele>
        <time>2018-08-10T12:44:46Z</time>
      </trkpt>
      <trkpt lat="44.40152" lon="6.40956">
        <ele>1958.3</ele>
        <time>2018-08-10T12:44:48Z</time>
      </trkpt>
      <trkpt lat="44.40155" lon="6.40959">
        <ele>1958.7</ele>
        <time>2018-08-10T12:44:50Z</time>
      </trkpt>
      <trkpt lat="44.40158" lon="6.40961">
        <ele>1959.2</ele>
        <time>2018-08-10T12:44:52Z</time>
      </trkpt>
      <trkpt lat="44.40162" lon="6.40963">
        <ele>1959.7</ele>
        <time>2018-08-10T12:44:54Z</time>
      </trkpt>
      <trkpt lat="44.40165" lon="6.40971">
        <ele>1959.6</ele>
        <time>2018-08-10T12:44:56Z</time>
      </trkpt>
      <trkpt lat="44.40166" lon="6.40975">
        <ele>1959.5</ele>
        <time>2018-08-10T12:44:57Z</time>
      </trkpt>
      <trkpt lat="44.40166" lon="6.4098">
        <ele>1959.3</ele>
        <time>2018-08-10T12:44:58Z</time>
      </trkpt>
      <trkpt lat="44.40168" lon="6.40984">
        <ele>1959.1</ele>
        <time>2018-08-10T12:45:14Z</time>
      </trkpt>
      <trkpt lat="44.40169" lon="6.40989">
        <ele>1959.1</ele>
        <time>2018-08-10T12:45:16Z</time>
      </trkpt>
      <trkpt lat="44.40171" lon="6.40992">
        <ele>1959.1</ele>
        <time>2018-08-10T12:45:19Z</time>
      </trkpt>
      <trkpt lat="44.40173" lon="6.40996">
        <ele>1959</ele>
        <time>2018-08-10T12:45:22Z</time>
      </trkpt>
      <trkpt lat="44.40174" lon="6.41001">
        <ele>1959</ele>
        <time>2018-08-10T12:45:24Z</time>
      </trkpt>
      <trkpt lat="44.40174" lon="6.41006">
        <ele>1959</ele>
        <time>2018-08-10T12:45:26Z</time>
      </trkpt>
      <trkpt lat="44.40174" lon="6.41012">
        <ele>1959</ele>
        <time>2018-08-10T12:45:28Z</time>
      </trkpt>
      <trkpt lat="44.40176" lon="6.41018">
        <ele>1959.6</ele>
        <time>2018-08-10T12:45:30Z</time>
      </trkpt>
      <trkpt lat="44.40178" lon="6.41023">
        <ele>1960.1</ele>
        <time>2018-08-10T12:45:32Z</time>
      </trkpt>
      <trkpt lat="44.40182" lon="6.41027">
        <ele>1960.5</ele>
        <time>2018-08-10T12:45:34Z</time>
      </trkpt>
      <trkpt lat="44.40187" lon="6.41029">
        <ele>1960.8</ele>
        <time>2018-08-10T12:45:36Z</time>
      </trkpt>
      <trkpt lat="44.4019" lon="6.41032">
        <ele>1960.9</ele>
        <time>2018-08-10T12:45:38Z</time>
      </trkpt>
      <trkpt lat="44.40192" lon="6.4103">
        <ele>1961.5</ele>
        <time>2018-08-10T12:45:41Z</time>
      </trkpt>
      <trkpt lat="44.40198" lon="6.41031">
        <ele>1963</ele>
        <time>2018-08-10T12:48:04Z</time>
      </trkpt>
      <trkpt lat="44.40201" lon="6.41033">
        <ele>1963.6</ele>
        <time>2018-08-10T12:48:06Z</time>
      </trkpt>
      <trkpt lat="44.40206" lon="6.41033">
        <ele>1964.3</ele>
        <time>2018-08-10T12:48:08Z</time>
      </trkpt>
      <trkpt lat="44.4021" lon="6.41032">
        <ele>1964.9</ele>
        <time>2018-08-10T12:48:10Z</time>
      </trkpt>
      <trkpt lat="44.40213" lon="6.41032">
        <ele>1965.7</ele>
        <time>2018-08-10T12:48:13Z</time>
      </trkpt>
      <trkpt lat="44.40217" lon="6.41032">
        <ele>1966.5</ele>
        <time>2018-08-10T12:48:15Z</time>
      </trkpt>
      <trkpt lat="44.4022" lon="6.41032">
        <ele>1967.4</ele>
        <time>2018-08-10T12:48:17Z</time>
      </trkpt>
      <trkpt lat="44.40223" lon="6.41031">
        <ele>1968.1</ele>
        <time>2018-08-10T12:48:19Z</time>
      </trkpt>
      <trkpt lat="44.40226" lon="6.41031">
        <ele>1968.7</ele>
        <time>2018-08-10T12:48:21Z</time>
      </trkpt>
      <trkpt lat="44.40229" lon="6.41029">
        <ele>1969.5</ele>
        <time>2018-08-10T12:48:23Z</time>
      </trkpt>
      <trkpt lat="44.40232" lon="6.41028">
        <ele>1970.2</ele>
        <time>2018-08-10T12:48:25Z</time>
      </trkpt>
      <trkpt lat="44.40235" lon="6.41027">
        <ele>1970.9</ele>
        <time>2018-08-10T12:48:27Z</time>
      </trkpt>
      <trkpt lat="44.40238" lon="6.41028">
        <ele>1971.6</ele>
        <time>2018-08-10T12:48:29Z</time>
      </trkpt>
      <trkpt lat="44.40241" lon="6.4103">
        <ele>1972.2</ele>
        <time>2018-08-10T12:48:31Z</time>
      </trkpt>
      <trkpt lat="44.40243" lon="6.41033">
        <ele>1973.1</ele>
        <time>2018-08-10T12:48:38Z</time>
      </trkpt>
      <trkpt lat="44.40243" lon="6.41038">
        <ele>1974</ele>
        <time>2018-08-10T12:48:41Z</time>
      </trkpt>
      <trkpt lat="44.40244" lon="6.41042">
        <ele>1975</ele>
        <time>2018-08-10T12:48:53Z</time>
      </trkpt>
      <trkpt lat="44.40244" lon="6.41047">
        <ele>1974.5</ele>
        <time>2018-08-10T12:48:56Z</time>
      </trkpt>
      <trkpt lat="44.40244" lon="6.41052">
        <ele>1974</ele>
        <time>2018-08-10T12:48:58Z</time>
      </trkpt>
      <trkpt lat="44.40245" lon="6.41057">
        <ele>1973.7</ele>
        <time>2018-08-10T12:49:00Z</time>
      </trkpt>
      <trkpt lat="44.40246" lon="6.41062">
        <ele>1973.4</ele>
        <time>2018-08-10T12:49:02Z</time>
      </trkpt>
      <trkpt lat="44.40247" lon="6.41066">
        <ele>1973.4</ele>
        <time>2018-08-10T12:49:04Z</time>
      </trkpt>
      <trkpt lat="44.40248" lon="6.41071">
        <ele>1973.5</ele>
        <time>2018-08-10T12:49:06Z</time>
      </trkpt>
      <trkpt lat="44.40249" lon="6.41075">
        <ele>1973.6</ele>
        <time>2018-08-10T12:49:10Z</time>
      </trkpt>
      <trkpt lat="44.40251" lon="6.41078">
        <ele>1973.5</ele>
        <time>2018-08-10T12:49:12Z</time>
      </trkpt>
      <trkpt lat="44.40252" lon="6.41082">
        <ele>1973.4</ele>
        <time>2018-08-10T12:49:17Z</time>
      </trkpt>
      <trkpt lat="44.40255" lon="6.41085">
        <ele>1973.4</ele>
        <time>2018-08-10T12:49:20Z</time>
      </trkpt>
      <trkpt lat="44.40255" lon="6.41089">
        <ele>1973.3</ele>
        <time>2018-08-10T12:49:22Z</time>
      </trkpt>
      <trkpt lat="44.40257" lon="6.41091">
        <ele>1973.2</ele>
        <time>2018-08-10T12:49:25Z</time>
      </trkpt>
      <trkpt lat="44.40257" lon="6.41097">
        <ele>1973.8</ele>
        <time>2018-08-10T12:49:31Z</time>
      </trkpt>
      <trkpt lat="44.40258" lon="6.41102">
        <ele>1974.5</ele>
        <time>2018-08-10T12:49:36Z</time>
      </trkpt>
      <trkpt lat="44.40259" lon="6.41107">
        <ele>1974.9</ele>
        <time>2018-08-10T12:49:38Z</time>
      </trkpt>
      <trkpt lat="44.40261" lon="6.41111">
        <ele>1975.2</ele>
        <time>2018-08-10T12:49:41Z</time>
      </trkpt>
      <trkpt lat="44.40262" lon="6.41115">
        <ele>1975.5</ele>
        <time>2018-08-10T12:49:47Z</time>
      </trkpt>
      <trkpt lat="44.40264" lon="6.41118">
        <ele>1975.8</ele>
        <time>2018-08-10T12:49:52Z</time>
      </trkpt>
      <trkpt lat="44.40266" lon="6.41123">
        <ele>1976.1</ele>
        <time>2018-08-10T12:50:00Z</time>
      </trkpt>
      <trkpt lat="44.40266" lon="6.41129">
        <ele>1976.1</ele>
        <time>2018-08-10T12:50:02Z</time>
      </trkpt>
      <trkpt lat="44.40267" lon="6.41133">
        <ele>1976</ele>
        <time>2018-08-10T12:50:04Z</time>
      </trkpt>
      <trkpt lat="44.40266" lon="6.41137">
        <ele>1976.3</ele>
        <time>2018-08-10T12:50:06Z</time>
      </trkpt>
      <trkpt lat="44.40266" lon="6.41141">
        <ele>1976.7</ele>
        <time>2018-08-10T12:50:08Z</time>
      </trkpt>
      <trkpt lat="44.40269" lon="6.41146">
        <ele>1977.2</ele>
        <time>2018-08-10T12:50:10Z</time>
      </trkpt>
      <trkpt lat="44.40271" lon="6.41149">
        <ele>1977.5</ele>
        <time>2018-08-10T12:50:20Z</time>
      </trkpt>
      <trkpt lat="44.40272" lon="6.41153">
        <ele>1977.8</ele>
        <time>2018-08-10T12:50:26Z</time>
      </trkpt>
      <trkpt lat="44.40275" lon="6.41157">
        <ele>1978.2</ele>
        <time>2018-08-10T12:50:29Z</time>
      </trkpt>
      <trkpt lat="44.40275" lon="6.41161">
        <ele>1978.6</ele>
        <time>2018-08-10T12:50:33Z</time>
      </trkpt>
      <trkpt lat="44.40275" lon="6.41167">
        <ele>1979.5</ele>
        <time>2018-08-10T12:50:37Z</time>
      </trkpt>
      <trkpt lat="44.40277" lon="6.41171">
        <ele>1980.1</ele>
        <time>2018-08-10T12:50:41Z</time>
      </trkpt>
      <trkpt lat="44.4028" lon="6.41174">
        <ele>1980.8</ele>
        <time>2018-08-10T12:50:45Z</time>
      </trkpt>
      <trkpt lat="44.40282" lon="6.41176">
        <ele>1981.4</ele>
        <time>2018-08-10T12:50:48Z</time>
      </trkpt>
      <trkpt lat="44.40284" lon="6.41178">
        <ele>1981.9</ele>
        <time>2018-08-10T12:50:53Z</time>
      </trkpt>
      <trkpt lat="44.40285" lon="6.41182">
        <ele>1982.3</ele>
        <time>2018-08-10T12:51:00Z</time>
      </trkpt>
      <trkpt lat="44.40288" lon="6.41185">
        <ele>1982.7</ele>
        <time>2018-08-10T12:51:02Z</time>
      </trkpt>
      <trkpt lat="44.40291" lon="6.41189">
        <ele>1983</ele>
        <time>2018-08-10T12:51:05Z</time>
      </trkpt>
      <trkpt lat="44.40292" lon="6.41193">
        <ele>1983.1</ele>
        <time>2018-08-10T12:51:07Z</time>
      </trkpt>
      <trkpt lat="44.40293" lon="6.41198">
        <ele>1983.2</ele>
        <time>2018-08-10T12:51:11Z</time>
      </trkpt>
      <trkpt lat="44.40296" lon="6.41199">
        <ele>1983.7</ele>
        <time>2018-08-10T12:51:14Z</time>
      </trkpt>
      <trkpt lat="44.40296" lon="6.41203">
        <ele>1984.2</ele>
        <time>2018-08-10T12:51:17Z</time>
      </trkpt>
      <trkpt lat="44.40296" lon="6.41207">
        <ele>1984.7</ele>
        <time>2018-08-10T12:51:20Z</time>
      </trkpt>
      <trkpt lat="44.403" lon="6.41208">
        <ele>1985.2</ele>
        <time>2018-08-10T12:51:24Z</time>
      </trkpt>
      <trkpt lat="44.40301" lon="6.41214">
        <ele>1985.6</ele>
        <time>2018-08-10T12:51:27Z</time>
      </trkpt>
      <trkpt lat="44.40302" lon="6.41218">
        <ele>1986</ele>
        <time>2018-08-10T12:51:29Z</time>
      </trkpt>
      <trkpt lat="44.40303" lon="6.41223">
        <ele>1986.7</ele>
        <time>2018-08-10T12:51:31Z</time>
      </trkpt>
      <trkpt lat="44.40304" lon="6.41227">
        <ele>1987.3</ele>
        <time>2018-08-10T12:51:34Z</time>
      </trkpt>
      <trkpt lat="44.40306" lon="6.41232">
        <ele>1988</ele>
        <time>2018-08-10T12:51:38Z</time>
      </trkpt>
      <trkpt lat="44.40308" lon="6.41236">
        <ele>1988.6</ele>
        <time>2018-08-10T12:51:41Z</time>
      </trkpt>
      <trkpt lat="44.40306" lon="6.4124">
        <ele>1989.1</ele>
        <time>2018-08-10T12:51:45Z</time>
      </trkpt>
      <trkpt lat="44.40307" lon="6.41245">
        <ele>1989.4</ele>
        <time>2018-08-10T12:51:47Z</time>
      </trkpt>
      <trkpt lat="44.40309" lon="6.4125">
        <ele>1989.7</ele>
        <time>2018-08-10T12:51:50Z</time>
      </trkpt>
      <trkpt lat="44.40307" lon="6.41254">
        <ele>1990</ele>
        <time>2018-08-10T12:51:52Z</time>
      </trkpt>
      <trkpt lat="44.40309" lon="6.41258">
        <ele>1990.4</ele>
        <time>2018-08-10T12:51:56Z</time>
      </trkpt>
      <trkpt lat="44.40312" lon="6.41258">
        <ele>1990.7</ele>
        <time>2018-08-10T12:52:23Z</time>
      </trkpt>
      <trkpt lat="44.40315" lon="6.41261">
        <ele>1991</ele>
        <time>2018-08-10T12:52:41Z</time>
      </trkpt>
      <trkpt lat="44.40314" lon="6.41265">
        <ele>1991.1</ele>
        <time>2018-08-10T12:52:46Z</time>
      </trkpt>
      <trkpt lat="44.40315" lon="6.41268">
        <ele>1991.2</ele>
        <time>2018-08-10T12:52:49Z</time>
      </trkpt>
      <trkpt lat="44.40316" lon="6.41272">
        <ele>1991.3</ele>
        <time>2018-08-10T12:52:51Z</time>
      </trkpt>
      <trkpt lat="44.40319" lon="6.41274">
        <ele>1991.3</ele>
        <time>2018-08-10T12:52:54Z</time>
      </trkpt>
      <trkpt lat="44.40322" lon="6.41277">
        <ele>1991.3</ele>
        <time>2018-08-10T12:52:58Z</time>
      </trkpt>
      <trkpt lat="44.40325" lon="6.41279">
        <ele>1991.3</ele>
        <time>2018-08-10T12:53:02Z</time>
      </trkpt>
      <trkpt lat="44.40327" lon="6.41283">
        <ele>1991.6</ele>
        <time>2018-08-10T12:53:06Z</time>
      </trkpt>
      <trkpt lat="44.4033" lon="6.41285">
        <ele>1991.8</ele>
        <time>2018-08-10T12:53:08Z</time>
      </trkpt>
      <trkpt lat="44.40332" lon="6.41288">
        <ele>1992</ele>
        <time>2018-08-10T12:53:10Z</time>
      </trkpt>
      <trkpt lat="44.40333" lon="6.41293">
        <ele>1992.1</ele>
        <time>2018-08-10T12:53:12Z</time>
      </trkpt>
      <trkpt lat="44.40336" lon="6.41296">
        <ele>1992.2</ele>
        <time>2018-08-10T12:53:15Z</time>
      </trkpt>
      <trkpt lat="44.40339" lon="6.41301">
        <ele>1992.4</ele>
        <time>2018-08-10T12:53:17Z</time>
      </trkpt>
      <trkpt lat="44.4034" lon="6.41306">
        <ele>1992.7</ele>
        <time>2018-08-10T12:53:20Z</time>
      </trkpt>
      <trkpt lat="44.4034" lon="6.41311">
        <ele>1992.9</ele>
        <time>2018-08-10T12:53:23Z</time>
      </trkpt>
      <trkpt lat="44.40342" lon="6.41315">
        <ele>1993.3</ele>
        <time>2018-08-10T12:53:27Z</time>
      </trkpt>
      <trkpt lat="44.40343" lon="6.41319">
        <ele>1993.5</ele>
        <time>2018-08-10T12:53:32Z</time>
      </trkpt>
      <trkpt lat="44.40346" lon="6.41321">
        <ele>1993.8</ele>
        <time>2018-08-10T12:53:34Z</time>
      </trkpt>
      <trkpt lat="44.40348" lon="6.41325">
        <ele>1993.9</ele>
        <time>2018-08-10T12:53:37Z</time>
      </trkpt>
      <trkpt lat="44.40349" lon="6.41331">
        <ele>1994.1</ele>
        <time>2018-08-10T12:53:40Z</time>
      </trkpt>
      <trkpt lat="44.40351" lon="6.41336">
        <ele>1994.1</ele>
        <time>2018-08-10T12:53:42Z</time>
      </trkpt>
      <trkpt lat="44.40352" lon="6.41342">
        <ele>1994.2</ele>
        <time>2018-08-10T12:53:44Z</time>
      </trkpt>
      <trkpt lat="44.40352" lon="6.41346">
        <ele>1994.4</ele>
        <time>2018-08-10T12:53:46Z</time>
      </trkpt>
      <trkpt lat="44.40353" lon="6.41351">
        <ele>1994.6</ele>
        <time>2018-08-10T12:53:49Z</time>
      </trkpt>
      <trkpt lat="44.40354" lon="6.41355">
        <ele>1994.8</ele>
        <time>2018-08-10T12:53:51Z</time>
      </trkpt>
      <trkpt lat="44.40355" lon="6.41359">
        <ele>1994.9</ele>
        <time>2018-08-10T12:53:54Z</time>
      </trkpt>
      <trkpt lat="44.40357" lon="6.41364">
        <ele>1995.1</ele>
        <time>2018-08-10T12:53:57Z</time>
      </trkpt>
      <trkpt lat="44.4036" lon="6.41368">
        <ele>1995.3</ele>
        <time>2018-08-10T12:53:59Z</time>
      </trkpt>
      <trkpt lat="44.40361" lon="6.41373">
        <ele>1995.1</ele>
        <time>2018-08-10T12:54:01Z</time>
      </trkpt>
      <trkpt lat="44.40362" lon="6.41377">
        <ele>1995</ele>
        <time>2018-08-10T12:54:03Z</time>
      </trkpt>
      <trkpt lat="44.40359" lon="6.4138">
        <ele>1995.1</ele>
        <time>2018-08-10T12:54:06Z</time>
      </trkpt>
      <trkpt lat="44.40358" lon="6.41385">
        <ele>1995.3</ele>
        <time>2018-08-10T12:54:09Z</time>
      </trkpt>
      <trkpt lat="44.4036" lon="6.41391">
        <ele>1995.4</ele>
        <time>2018-08-10T12:54:11Z</time>
      </trkpt>
      <trkpt lat="44.40361" lon="6.41394">
        <ele>1995.6</ele>
        <time>2018-08-10T12:54:12Z</time>
      </trkpt>
      <trkpt lat="44.40361" lon="6.41398">
        <ele>1995.7</ele>
        <time>2018-08-10T12:54:13Z</time>
      </trkpt>
      <trkpt lat="44.4036" lon="6.41403">
        <ele>1995.7</ele>
        <time>2018-08-10T12:54:14Z</time>
      </trkpt>
      <trkpt lat="44.40361" lon="6.41408">
        <ele>1995.6</ele>
        <time>2018-08-10T12:54:16Z</time>
      </trkpt>
      <trkpt lat="44.40362" lon="6.41414">
        <ele>1995.5</ele>
        <time>2018-08-10T12:54:18Z</time>
      </trkpt>
      <trkpt lat="44.40363" lon="6.41418">
        <ele>1995.7</ele>
        <time>2018-08-10T12:54:20Z</time>
      </trkpt>
      <trkpt lat="44.40364" lon="6.41424">
        <ele>1995.8</ele>
        <time>2018-08-10T12:54:22Z</time>
      </trkpt>
      <trkpt lat="44.40365" lon="6.41428">
        <ele>1995.9</ele>
        <time>2018-08-10T12:54:24Z</time>
      </trkpt>
      <trkpt lat="44.40368" lon="6.41432">
        <ele>1996</ele>
        <time>2018-08-10T12:54:26Z</time>
      </trkpt>
      <trkpt lat="44.4037" lon="6.41436">
        <ele>1996.1</ele>
        <time>2018-08-10T12:54:28Z</time>
      </trkpt>
      <trkpt lat="44.40372" lon="6.4144">
        <ele>1996.4</ele>
        <time>2018-08-10T12:54:30Z</time>
      </trkpt>
      <trkpt lat="44.40374" lon="6.41443">
        <ele>1996.7</ele>
        <time>2018-08-10T12:54:32Z</time>
      </trkpt>
      <trkpt lat="44.40371" lon="6.41444">
        <ele>1996.9</ele>
        <time>2018-08-10T12:54:35Z</time>
      </trkpt>
      <trkpt lat="44.40373" lon="6.41449">
        <ele>1997</ele>
        <time>2018-08-10T12:54:37Z</time>
      </trkpt>
      <trkpt lat="44.40374" lon="6.41453">
        <ele>1997</ele>
        <time>2018-08-10T12:54:38Z</time>
      </trkpt>
      <trkpt lat="44.40375" lon="6.41459">
        <ele>1997.1</ele>
        <time>2018-08-10T12:54:40Z</time>
      </trkpt>
      <trkpt lat="44.40377" lon="6.41462">
        <ele>1997.1</ele>
        <time>2018-08-10T12:54:41Z</time>
      </trkpt>
      <trkpt lat="44.4038" lon="6.41469">
        <ele>1997.1</ele>
        <time>2018-08-10T12:54:43Z</time>
      </trkpt>
      <trkpt lat="44.40382" lon="6.41471">
        <ele>1997.2</ele>
        <time>2018-08-10T12:54:44Z</time>
      </trkpt>
      <trkpt lat="44.40386" lon="6.41476">
        <ele>1997.5</ele>
        <time>2018-08-10T12:54:46Z</time>
      </trkpt>
      <trkpt lat="44.40389" lon="6.41481">
        <ele>1997.8</ele>
        <time>2018-08-10T12:54:48Z</time>
      </trkpt>
      <trkpt lat="44.40392" lon="6.41487">
        <ele>1998.2</ele>
        <time>2018-08-10T12:54:50Z</time>
      </trkpt>
      <trkpt lat="44.40394" lon="6.41491">
        <ele>1998.6</ele>
        <time>2018-08-10T12:54:52Z</time>
      </trkpt>
      <trkpt lat="44.40397" lon="6.41498">
        <ele>1999.4</ele>
        <time>2018-08-10T12:54:54Z</time>
      </trkpt>
      <trkpt lat="44.40399" lon="6.41503">
        <ele>2000.2</ele>
        <time>2018-08-10T12:54:56Z</time>
      </trkpt>
      <trkpt lat="44.40401" lon="6.41507">
        <ele>2000.9</ele>
        <time>2018-08-10T12:54:58Z</time>
      </trkpt>
      <trkpt lat="44.40403" lon="6.4151">
        <ele>2001.4</ele>
        <time>2018-08-10T12:54:59Z</time>
      </trkpt>
      <trkpt lat="44.40407" lon="6.41513">
        <ele>2002</ele>
        <time>2018-08-10T12:55:01Z</time>
      </trkpt>
      <trkpt lat="44.40409" lon="6.41516">
        <ele>2002.2</ele>
        <time>2018-08-10T12:55:03Z</time>
      </trkpt>
      <trkpt lat="44.4041" lon="6.41522">
        <ele>2002.5</ele>
        <time>2018-08-10T12:55:05Z</time>
      </trkpt>
      <trkpt lat="44.40412" lon="6.41526">
        <ele>2003.2</ele>
        <time>2018-08-10T12:55:07Z</time>
      </trkpt>
      <trkpt lat="44.40413" lon="6.4153">
        <ele>2003.8</ele>
        <time>2018-08-10T12:55:09Z</time>
      </trkpt>
      <trkpt lat="44.40415" lon="6.41535">
        <ele>2004.6</ele>
        <time>2018-08-10T12:55:13Z</time>
      </trkpt>
      <trkpt lat="44.40417" lon="6.41537">
        <ele>2005.2</ele>
        <time>2018-08-10T12:55:14Z</time>
      </trkpt>
      <trkpt lat="44.40419" lon="6.4154">
        <ele>2005.9</ele>
        <time>2018-08-10T12:55:16Z</time>
      </trkpt>
      <trkpt lat="44.40421" lon="6.41544">
        <ele>2006.1</ele>
        <time>2018-08-10T12:55:18Z</time>
      </trkpt>
      <trkpt lat="44.40425" lon="6.41549">
        <ele>2006.3</ele>
        <time>2018-08-10T12:55:20Z</time>
      </trkpt>
      <trkpt lat="44.40427" lon="6.41554">
        <ele>2006.4</ele>
        <time>2018-08-10T12:55:22Z</time>
      </trkpt>
      <trkpt lat="44.40428" lon="6.4156">
        <ele>2006.4</ele>
        <time>2018-08-10T12:55:24Z</time>
      </trkpt>
      <trkpt lat="44.40429" lon="6.41565">
        <ele>2006.1</ele>
        <time>2018-08-10T12:55:26Z</time>
      </trkpt>
      <trkpt lat="44.4043" lon="6.41569">
        <ele>2005.8</ele>
        <time>2018-08-10T12:55:28Z</time>
      </trkpt>
      <trkpt lat="44.40433" lon="6.41571">
        <ele>2005.5</ele>
        <time>2018-08-10T12:55:31Z</time>
      </trkpt>
      <trkpt lat="44.40435" lon="6.41577">
        <ele>2005.4</ele>
        <time>2018-08-10T12:55:34Z</time>
      </trkpt>
      <trkpt lat="44.40436" lon="6.4158">
        <ele>2005.2</ele>
        <time>2018-08-10T12:55:37Z</time>
      </trkpt>
      <trkpt lat="44.40437" lon="6.41584">
        <ele>2005.4</ele>
        <time>2018-08-10T12:55:39Z</time>
      </trkpt>
      <trkpt lat="44.40439" lon="6.41589">
        <ele>2005.6</ele>
        <time>2018-08-10T12:55:42Z</time>
      </trkpt>
      <trkpt lat="44.40441" lon="6.41594">
        <ele>2005.4</ele>
        <time>2018-08-10T12:55:45Z</time>
      </trkpt>
      <trkpt lat="44.40442" lon="6.41598">
        <ele>2004.9</ele>
        <time>2018-08-10T12:55:47Z</time>
      </trkpt>
      <trkpt lat="44.40444" lon="6.41601">
        <ele>2004.4</ele>
        <time>2018-08-10T12:55:49Z</time>
      </trkpt>
      <trkpt lat="44.40447" lon="6.41605">
        <ele>2003.9</ele>
        <time>2018-08-10T12:55:51Z</time>
      </trkpt>
      <trkpt lat="44.40447" lon="6.41609">
        <ele>2003.7</ele>
        <time>2018-08-10T12:55:53Z</time>
      </trkpt>
      <trkpt lat="44.40448" lon="6.41614">
        <ele>2003.3</ele>
        <time>2018-08-10T12:55:55Z</time>
      </trkpt>
      <trkpt lat="44.4045" lon="6.41616">
        <ele>2002.7</ele>
        <time>2018-08-10T12:55:57Z</time>
      </trkpt>
      <trkpt lat="44.40452" lon="6.41621">
        <ele>2001.9</ele>
        <time>2018-08-10T12:55:59Z</time>
      </trkpt>
      <trkpt lat="44.40454" lon="6.41626">
        <ele>2001.5</ele>
        <time>2018-08-10T12:56:01Z</time>
      </trkpt>
      <trkpt lat="44.40454" lon="6.41631">
        <ele>2001.6</ele>
        <time>2018-08-10T12:56:03Z</time>
      </trkpt>
      <trkpt lat="44.40455" lon="6.41635">
        <ele>2001.6</ele>
        <time>2018-08-10T12:56:05Z</time>
      </trkpt>
      <trkpt lat="44.40457" lon="6.41638">
        <ele>2001.2</ele>
        <time>2018-08-10T12:56:07Z</time>
      </trkpt>
      <trkpt lat="44.40459" lon="6.41642">
        <ele>2000.8</ele>
        <time>2018-08-10T12:56:09Z</time>
      </trkpt>
      <trkpt lat="44.40462" lon="6.41646">
        <ele>2000.6</ele>
        <time>2018-08-10T12:56:11Z</time>
      </trkpt>
      <trkpt lat="44.40466" lon="6.41645">
        <ele>2000.5</ele>
        <time>2018-08-10T12:56:13Z</time>
      </trkpt>
      <trkpt lat="44.4047" lon="6.41646">
        <ele>2000.4</ele>
        <time>2018-08-10T12:56:15Z</time>
      </trkpt>
      <trkpt lat="44.40473" lon="6.41645">
        <ele>2000.4</ele>
        <time>2018-08-10T12:56:16Z</time>
      </trkpt>
      <trkpt lat="44.40478" lon="6.41647">
        <ele>2001.2</ele>
        <time>2018-08-10T12:56:18Z</time>
      </trkpt>
      <trkpt lat="44.40482" lon="6.4165">
        <ele>2002</ele>
        <time>2018-08-10T12:56:20Z</time>
      </trkpt>
      <trkpt lat="44.40484" lon="6.41653">
        <ele>2002.7</ele>
        <time>2018-08-10T12:56:21Z</time>
      </trkpt>
      <trkpt lat="44.40487" lon="6.41656">
        <ele>2003.4</ele>
        <time>2018-08-10T12:56:22Z</time>
      </trkpt>
      <trkpt lat="44.40491" lon="6.41657">
        <ele>2004.1</ele>
        <time>2018-08-10T12:56:23Z</time>
      </trkpt>
      <trkpt lat="44.40493" lon="6.41658">
        <ele>2004.3</ele>
        <time>2018-08-10T12:56:24Z</time>
      </trkpt>
      <trkpt lat="44.40498" lon="6.41662">
        <ele>2004.8</ele>
        <time>2018-08-10T12:56:27Z</time>
      </trkpt>
      <trkpt lat="44.40501" lon="6.41663">
        <ele>2005.4</ele>
        <time>2018-08-10T12:56:28Z</time>
      </trkpt>
      <trkpt lat="44.40505" lon="6.41663">
        <ele>2006.2</ele>
        <time>2018-08-10T12:56:29Z</time>
      </trkpt>
      <trkpt lat="44.40508" lon="6.41665">
        <ele>2006.9</ele>
        <time>2018-08-10T12:56:30Z</time>
      </trkpt>
      <trkpt lat="44.40511" lon="6.41668">
        <ele>2007.7</ele>
        <time>2018-08-10T12:56:31Z</time>
      </trkpt>
      <trkpt lat="44.40515" lon="6.41671">
        <ele>2008.7</ele>
        <time>2018-08-10T12:56:32Z</time>
      </trkpt>
      <trkpt lat="44.40518" lon="6.41675">
        <ele>2009.2</ele>
        <time>2018-08-10T12:56:33Z</time>
      </trkpt>
      <trkpt lat="44.40521" lon="6.41678">
        <ele>2009.5</ele>
        <time>2018-08-10T12:56:34Z</time>
      </trkpt>
      <trkpt lat="44.40523" lon="6.4168">
        <ele>2009.7</ele>
        <time>2018-08-10T12:56:35Z</time>
      </trkpt>
      <trkpt lat="44.40526" lon="6.41685">
        <ele>2010.4</ele>
        <time>2018-08-10T12:56:36Z</time>
      </trkpt>
      <trkpt lat="44.4053" lon="6.41685">
        <ele>2011</ele>
        <time>2018-08-10T12:56:37Z</time>
      </trkpt>
      <trkpt lat="44.40531" lon="6.4169">
        <ele>2011.4</ele>
        <time>2018-08-10T12:56:38Z</time>
      </trkpt>
      <trkpt lat="44.40535" lon="6.41695">
        <ele>2011.8</ele>
        <time>2018-08-10T12:56:40Z</time>
      </trkpt>
      <trkpt lat="44.40537" lon="6.41698">
        <ele>2011.8</ele>
        <time>2018-08-10T12:56:42Z</time>
      </trkpt>
      <trkpt lat="44.4054" lon="6.41703">
        <ele>2011.7</ele>
        <time>2018-08-10T12:56:44Z</time>
      </trkpt>
      <trkpt lat="44.40542" lon="6.41708">
        <ele>2011.9</ele>
        <time>2018-08-10T12:56:46Z</time>
      </trkpt>
      <trkpt lat="44.40545" lon="6.41711">
        <ele>2012.2</ele>
        <time>2018-08-10T12:56:48Z</time>
      </trkpt>
      <trkpt lat="44.40548" lon="6.41715">
        <ele>2012.3</ele>
        <time>2018-08-10T12:56:50Z</time>
      </trkpt>
      <trkpt lat="44.4055" lon="6.41719">
        <ele>2012.3</ele>
        <time>2018-08-10T12:56:52Z</time>
      </trkpt>
      <trkpt lat="44.40553" lon="6.41722">
        <ele>2012.2</ele>
        <time>2018-08-10T12:56:55Z</time>
      </trkpt>
      <trkpt lat="44.40552" lon="6.41726">
        <ele>2012.1</ele>
        <time>2018-08-10T12:56:57Z</time>
      </trkpt>
      <trkpt lat="44.40549" lon="6.4173">
        <ele>2011.8</ele>
        <time>2018-08-10T12:56:59Z</time>
      </trkpt>
      <trkpt lat="44.40547" lon="6.41735">
        <ele>2010.9</ele>
        <time>2018-08-10T12:57:01Z</time>
      </trkpt>
      <trkpt lat="44.40548" lon="6.4174">
        <ele>2010.2</ele>
        <time>2018-08-10T12:57:03Z</time>
      </trkpt>
      <trkpt lat="44.4055" lon="6.41745">
        <ele>2009.5</ele>
        <time>2018-08-10T12:57:05Z</time>
      </trkpt>
      <trkpt lat="44.40552" lon="6.41749">
        <ele>2009.1</ele>
        <time>2018-08-10T12:57:07Z</time>
      </trkpt>
      <trkpt lat="44.40552" lon="6.41753">
        <ele>2008.8</ele>
        <time>2018-08-10T12:57:08Z</time>
      </trkpt>
      <trkpt lat="44.40555" lon="6.41757">
        <ele>2008.1</ele>
        <time>2018-08-10T12:57:10Z</time>
      </trkpt>
      <trkpt lat="44.40558" lon="6.41762">
        <ele>2007.8</ele>
        <time>2018-08-10T12:57:12Z</time>
      </trkpt>
      <trkpt lat="44.4056" lon="6.41764">
        <ele>2007.7</ele>
        <time>2018-08-10T12:57:14Z</time>
      </trkpt>
      <trkpt lat="44.40564" lon="6.41766">
        <ele>2007.7</ele>
        <time>2018-08-10T12:57:16Z</time>
      </trkpt>
      <trkpt lat="44.40568" lon="6.41768">
        <ele>2007.8</ele>
        <time>2018-08-10T12:57:18Z</time>
      </trkpt>
      <trkpt lat="44.40571" lon="6.41769">
        <ele>2007.8</ele>
        <time>2018-08-10T12:57:19Z</time>
      </trkpt>
      <trkpt lat="44.40576" lon="6.41768">
        <ele>2008</ele>
        <time>2018-08-10T12:57:21Z</time>
      </trkpt>
      <trkpt lat="44.40579" lon="6.41765">
        <ele>2008</ele>
        <time>2018-08-10T12:57:22Z</time>
      </trkpt>
      <trkpt lat="44.40581" lon="6.41762">
        <ele>2007.9</ele>
        <time>2018-08-10T12:57:23Z</time>
      </trkpt>
      <trkpt lat="44.40585" lon="6.4176">
        <ele>2007.8</ele>
        <time>2018-08-10T12:57:25Z</time>
      </trkpt>
      <trkpt lat="44.40588" lon="6.41761">
        <ele>2007.8</ele>
        <time>2018-08-10T12:57:26Z</time>
      </trkpt>
      <trkpt lat="44.40592" lon="6.41764">
        <ele>2007.8</ele>
        <time>2018-08-10T12:57:28Z</time>
      </trkpt>
      <trkpt lat="44.40595" lon="6.41766">
        <ele>2007.9</ele>
        <time>2018-08-10T12:57:29Z</time>
      </trkpt>
      <trkpt lat="44.40598" lon="6.41771">
        <ele>2008.2</ele>
        <time>2018-08-10T12:57:31Z</time>
      </trkpt>
      <trkpt lat="44.40601" lon="6.41775">
        <ele>2008.5</ele>
        <time>2018-08-10T12:57:33Z</time>
      </trkpt>
      <trkpt lat="44.40605" lon="6.41778">
        <ele>2007.7</ele>
        <time>2018-08-10T12:57:35Z</time>
      </trkpt>
      <trkpt lat="44.40609" lon="6.4178">
        <ele>2007.2</ele>
        <time>2018-08-10T12:57:38Z</time>
      </trkpt>
      <trkpt lat="44.40611" lon="6.41783">
        <ele>2006.9</ele>
        <time>2018-08-10T12:57:40Z</time>
      </trkpt>
      <trkpt lat="44.40613" lon="6.41787">
        <ele>2006.2</ele>
        <time>2018-08-10T12:57:43Z</time>
      </trkpt>
      <trkpt lat="44.40617" lon="6.41787">
        <ele>2005.6</ele>
        <time>2018-08-10T12:57:47Z</time>
      </trkpt>
      <trkpt lat="44.4062" lon="6.41792">
        <ele>2004.7</ele>
        <time>2018-08-10T12:57:51Z</time>
      </trkpt>
      <trkpt lat="44.40623" lon="6.41791">
        <ele>2004.1</ele>
        <time>2018-08-10T12:57:54Z</time>
      </trkpt>
      <trkpt lat="44.40624" lon="6.41788">
        <ele>2003.5</ele>
        <time>2018-08-10T12:57:57Z</time>
      </trkpt>
      <trkpt lat="44.40627" lon="6.41785">
        <ele>2002.6</ele>
        <time>2018-08-10T12:57:58Z</time>
      </trkpt>
      <trkpt lat="44.4063" lon="6.41786">
        <ele>2001.3</ele>
        <time>2018-08-10T12:58:00Z</time>
      </trkpt>
      <trkpt lat="44.40635" lon="6.41786">
        <ele>2000.2</ele>
        <time>2018-08-10T12:58:02Z</time>
      </trkpt>
      <trkpt lat="44.40638" lon="6.41786">
        <ele>1999.4</ele>
        <time>2018-08-10T12:58:04Z</time>
      </trkpt>
      <trkpt lat="44.40642" lon="6.41784">
        <ele>1998.4</ele>
        <time>2018-08-10T12:58:05Z</time>
      </trkpt>
      <trkpt lat="44.40647" lon="6.41783">
        <ele>1997.1</ele>
        <time>2018-08-10T12:58:07Z</time>
      </trkpt>
      <trkpt lat="44.4065" lon="6.41783">
        <ele>1996.9</ele>
        <time>2018-08-10T12:58:09Z</time>
      </trkpt>
      <trkpt lat="44.40654" lon="6.41782">
        <ele>1996.3</ele>
        <time>2018-08-10T12:58:11Z</time>
      </trkpt>
      <trkpt lat="44.40658" lon="6.41779">
        <ele>1995.4</ele>
        <time>2018-08-10T12:58:12Z</time>
      </trkpt>
      <trkpt lat="44.40661" lon="6.41778">
        <ele>1994.4</ele>
        <time>2018-08-10T12:58:13Z</time>
      </trkpt>
      <trkpt lat="44.40664" lon="6.41776">
        <ele>1993.4</ele>
        <time>2018-08-10T12:58:14Z</time>
      </trkpt>
      <trkpt lat="44.40668" lon="6.41775">
        <ele>1992.3</ele>
        <time>2018-08-10T12:58:16Z</time>
      </trkpt>
      <trkpt lat="44.40671" lon="6.41777">
        <ele>1990.7</ele>
        <time>2018-08-10T12:58:17Z</time>
      </trkpt>
      <trkpt lat="44.40673" lon="6.41773">
        <ele>1989.6</ele>
        <time>2018-08-10T12:58:19Z</time>
      </trkpt>
      <trkpt lat="44.40676" lon="6.41772">
        <ele>1989</ele>
        <time>2018-08-10T12:58:21Z</time>
      </trkpt>
      <trkpt lat="44.4068" lon="6.41775">
        <ele>1988.3</ele>
        <time>2018-08-10T12:58:23Z</time>
      </trkpt>
      <trkpt lat="44.40681" lon="6.41778">
        <ele>1987.7</ele>
        <time>2018-08-10T12:58:24Z</time>
      </trkpt>
      <trkpt lat="44.40683" lon="6.41782">
        <ele>1987.1</ele>
        <time>2018-08-10T12:58:26Z</time>
      </trkpt>
      <trkpt lat="44.40687" lon="6.41785">
        <ele>1985.8</ele>
        <time>2018-08-10T12:58:28Z</time>
      </trkpt>
      <trkpt lat="44.40692" lon="6.41784">
        <ele>1984.4</ele>
        <time>2018-08-10T12:58:30Z</time>
      </trkpt>
      <trkpt lat="44.40695" lon="6.41779">
        <ele>1983.9</ele>
        <time>2018-08-10T12:58:31Z</time>
      </trkpt>
      <trkpt lat="44.40698" lon="6.41777">
        <ele>1983</ele>
        <time>2018-08-10T12:58:32Z</time>
      </trkpt>
      <trkpt lat="44.40701" lon="6.41781">
        <ele>1981.6</ele>
        <time>2018-08-10T12:58:34Z</time>
      </trkpt>
      <trkpt lat="44.40704" lon="6.41777">
        <ele>1979.9</ele>
        <time>2018-08-10T12:58:36Z</time>
      </trkpt>
      <trkpt lat="44.40707" lon="6.4178">
        <ele>1978.2</ele>
        <time>2018-08-10T12:58:38Z</time>
      </trkpt>
      <trkpt lat="44.40711" lon="6.4178">
        <ele>1976.4</ele>
        <time>2018-08-10T12:58:40Z</time>
      </trkpt>
      <trkpt lat="44.40712" lon="6.41785">
        <ele>1975.5</ele>
        <time>2018-08-10T12:58:41Z</time>
      </trkpt>
      <trkpt lat="44.40715" lon="6.41788">
        <ele>1974.8</ele>
        <time>2018-08-10T12:58:42Z</time>
      </trkpt>
      <trkpt lat="44.40718" lon="6.41787">
        <ele>1974.1</ele>
        <time>2018-08-10T12:58:43Z</time>
      </trkpt>
      <trkpt lat="44.4072" lon="6.41784">
        <ele>1972.8</ele>
        <time>2018-08-10T12:58:44Z</time>
      </trkpt>
      <trkpt lat="44.40722" lon="6.41779">
        <ele>1971.5</ele>
        <time>2018-08-10T12:58:47Z</time>
      </trkpt>
      <trkpt lat="44.40726" lon="6.41777">
        <ele>1970.5</ele>
        <time>2018-08-10T12:58:50Z</time>
      </trkpt>
      <trkpt lat="44.40729" lon="6.41776">
        <ele>1969.9</ele>
        <time>2018-08-10T12:58:54Z</time>
      </trkpt>
      <trkpt lat="44.40733" lon="6.41775">
        <ele>1969.4</ele>
        <time>2018-08-10T12:58:56Z</time>
      </trkpt>
      <trkpt lat="44.40737" lon="6.41771">
        <ele>1969.3</ele>
        <time>2018-08-10T12:58:58Z</time>
      </trkpt>
      <trkpt lat="44.4074" lon="6.41773">
        <ele>1969.4</ele>
        <time>2018-08-10T12:59:00Z</time>
      </trkpt>
      <trkpt lat="44.40744" lon="6.41773">
        <ele>1969.5</ele>
        <time>2018-08-10T12:59:02Z</time>
      </trkpt>
      <trkpt lat="44.40749" lon="6.41773">
        <ele>1969.4</ele>
        <time>2018-08-10T12:59:04Z</time>
      </trkpt>
      <trkpt lat="44.40752" lon="6.41775">
        <ele>1969.2</ele>
        <time>2018-08-10T12:59:05Z</time>
      </trkpt>
      <trkpt lat="44.40755" lon="6.41778">
        <ele>1968.5</ele>
        <time>2018-08-10T12:59:06Z</time>
      </trkpt>
      <trkpt lat="44.40758" lon="6.41778">
        <ele>1967.4</ele>
        <time>2018-08-10T12:59:07Z</time>
      </trkpt>
      <trkpt lat="44.40763" lon="6.41777">
        <ele>1965.8</ele>
        <time>2018-08-10T12:59:08Z</time>
      </trkpt>
      <trkpt lat="44.40766" lon="6.41778">
        <ele>1964.7</ele>
        <time>2018-08-10T12:59:09Z</time>
      </trkpt>
      <trkpt lat="44.40769" lon="6.41778">
        <ele>1963.6</ele>
        <time>2018-08-10T12:59:10Z</time>
      </trkpt>
      <trkpt lat="44.40773" lon="6.41778">
        <ele>1962.2</ele>
        <time>2018-08-10T12:59:12Z</time>
      </trkpt>
      <trkpt lat="44.40778" lon="6.41775">
        <ele>1960.2</ele>
        <time>2018-08-10T12:59:14Z</time>
      </trkpt>
      <trkpt lat="44.40781" lon="6.41777">
        <ele>1959</ele>
        <time>2018-08-10T12:59:15Z</time>
      </trkpt>
      <trkpt lat="44.40784" lon="6.4178">
        <ele>1957.4</ele>
        <time>2018-08-10T12:59:16Z</time>
      </trkpt>
      <trkpt lat="44.40787" lon="6.41781">
        <ele>1955.9</ele>
        <time>2018-08-10T12:59:17Z</time>
      </trkpt>
      <trkpt lat="44.40791" lon="6.41784">
        <ele>1954</ele>
        <time>2018-08-10T12:59:19Z</time>
      </trkpt>
      <trkpt lat="44.40794" lon="6.41785">
        <ele>1953.1</ele>
        <time>2018-08-10T12:59:20Z</time>
      </trkpt>
      <trkpt lat="44.40797" lon="6.41787">
        <ele>1952.1</ele>
        <time>2018-08-10T12:59:21Z</time>
      </trkpt>
      <trkpt lat="44.408" lon="6.41784">
        <ele>1951</ele>
        <time>2018-08-10T12:59:22Z</time>
      </trkpt>
      <trkpt lat="44.40802" lon="6.41781">
        <ele>1950.3</ele>
        <time>2018-08-10T12:59:23Z</time>
      </trkpt>
      <trkpt lat="44.40804" lon="6.41778">
        <ele>1949.5</ele>
        <time>2018-08-10T12:59:25Z</time>
      </trkpt>
      <trkpt lat="44.40807" lon="6.41781">
        <ele>1949.7</ele>
        <time>2018-08-10T12:59:34Z</time>
      </trkpt>
      <trkpt lat="44.4081" lon="6.41779">
        <ele>1950</ele>
        <time>2018-08-10T12:59:39Z</time>
      </trkpt>
      <trkpt lat="44.40813" lon="6.41777">
        <ele>1950.1</ele>
        <time>2018-08-10T12:59:42Z</time>
      </trkpt>
      <trkpt lat="44.40816" lon="6.41777">
        <ele>1949.3</ele>
        <time>2018-08-10T12:59:44Z</time>
      </trkpt>
      <trkpt lat="44.40818" lon="6.41782">
        <ele>1948.1</ele>
        <time>2018-08-10T12:59:46Z</time>
      </trkpt>
      <trkpt lat="44.40821" lon="6.41784">
        <ele>1947.5</ele>
        <time>2018-08-10T12:59:48Z</time>
      </trkpt>
      <trkpt lat="44.40821" lon="6.41779">
        <ele>1947</ele>
        <time>2018-08-10T12:59:50Z</time>
      </trkpt>
      <trkpt lat="44.40818" lon="6.4178">
        <ele>1946.1</ele>
        <time>2018-08-10T12:59:54Z</time>
      </trkpt>
      <trkpt lat="44.40822" lon="6.41784">
        <ele>1943.8</ele>
        <time>2018-08-10T12:59:59Z</time>
      </trkpt>
      <trkpt lat="44.40826" lon="6.41785">
        <ele>1942.6</ele>
        <time>2018-08-10T13:00:00Z</time>
      </trkpt>
      <trkpt lat="44.40829" lon="6.41784">
        <ele>1942</ele>
        <time>2018-08-10T13:00:01Z</time>
      </trkpt>
      <trkpt lat="44.40833" lon="6.41784">
        <ele>1939.9</ele>
        <time>2018-08-10T13:00:02Z</time>
      </trkpt>
      <trkpt lat="44.40836" lon="6.41782">
        <ele>1938.7</ele>
        <time>2018-08-10T13:00:03Z</time>
      </trkpt>
      <trkpt lat="44.40841" lon="6.41781">
        <ele>1938.1</ele>
        <time>2018-08-10T13:00:05Z</time>
      </trkpt>
      <trkpt lat="44.40844" lon="6.41779">
        <ele>1937.4</ele>
        <time>2018-08-10T13:00:06Z</time>
      </trkpt>
      <trkpt lat="44.40844" lon="6.41773">
        <ele>1938.1</ele>
        <time>2018-08-10T13:00:07Z</time>
      </trkpt>
      <trkpt lat="44.40845" lon="6.41769">
        <ele>1939.3</ele>
        <time>2018-08-10T13:00:08Z</time>
      </trkpt>
      <trkpt lat="44.40848" lon="6.41764">
        <ele>1940.4</ele>
        <time>2018-08-10T13:00:11Z</time>
      </trkpt>
      <trkpt lat="44.4085" lon="6.41758">
        <ele>1941</ele>
        <time>2018-08-10T13:00:13Z</time>
      </trkpt>
      <trkpt lat="44.40853" lon="6.41756">
        <ele>1942</ele>
        <time>2018-08-10T13:00:14Z</time>
      </trkpt>
      <trkpt lat="44.40857" lon="6.41754">
        <ele>1943.7</ele>
        <time>2018-08-10T13:00:16Z</time>
      </trkpt>
      <trkpt lat="44.4086" lon="6.4175">
        <ele>1944.4</ele>
        <time>2018-08-10T13:00:17Z</time>
      </trkpt>
      <trkpt lat="44.40863" lon="6.41746">
        <ele>1945.1</ele>
        <time>2018-08-10T13:00:18Z</time>
      </trkpt>
      <trkpt lat="44.40865" lon="6.41743">
        <ele>1945.9</ele>
        <time>2018-08-10T13:00:19Z</time>
      </trkpt>
      <trkpt lat="44.40873" lon="6.41739">
        <ele>1946.7</ele>
        <time>2018-08-10T13:00:21Z</time>
      </trkpt>
      <trkpt lat="44.40876" lon="6.41739">
        <ele>1946.1</ele>
        <time>2018-08-10T13:00:22Z</time>
      </trkpt>
      <trkpt lat="44.40881" lon="6.4174">
        <ele>1946</ele>
        <time>2018-08-10T13:00:24Z</time>
      </trkpt>
      <trkpt lat="44.40885" lon="6.4174">
        <ele>1946.3</ele>
        <time>2018-08-10T13:00:26Z</time>
      </trkpt>
      <trkpt lat="44.4089" lon="6.41739">
        <ele>1946.5</ele>
        <time>2018-08-10T13:00:28Z</time>
      </trkpt>
      <trkpt lat="44.40894" lon="6.4174">
        <ele>1946.5</ele>
        <time>2018-08-10T13:00:30Z</time>
      </trkpt>
      <trkpt lat="44.40898" lon="6.41743">
        <ele>1946.9</ele>
        <time>2018-08-10T13:00:32Z</time>
      </trkpt>
      <trkpt lat="44.409" lon="6.41745">
        <ele>1947.3</ele>
        <time>2018-08-10T13:00:34Z</time>
      </trkpt>
      <trkpt lat="44.40904" lon="6.4174">
        <ele>1948</ele>
        <time>2018-08-10T13:00:36Z</time>
      </trkpt>
      <trkpt lat="44.40906" lon="6.41736">
        <ele>1948.5</ele>
        <time>2018-08-10T13:00:37Z</time>
      </trkpt>
      <trkpt lat="44.40907" lon="6.4173">
        <ele>1949.2</ele>
        <time>2018-08-10T13:00:38Z</time>
      </trkpt>
      <trkpt lat="44.4091" lon="6.41723">
        <ele>1949.9</ele>
        <time>2018-08-10T13:00:40Z</time>
      </trkpt>
      <trkpt lat="44.40912" lon="6.41717">
        <ele>1950.2</ele>
        <time>2018-08-10T13:00:43Z</time>
      </trkpt>
      <trkpt lat="44.40914" lon="6.41715">
        <ele>1950.3</ele>
        <time>2018-08-10T13:00:48Z</time>
      </trkpt>
      <trkpt lat="44.40916" lon="6.41711">
        <ele>1950.7</ele>
        <time>2018-08-10T13:00:51Z</time>
      </trkpt>
      <trkpt lat="44.40918" lon="6.41707">
        <ele>1951.2</ele>
        <time>2018-08-10T13:01:02Z</time>
      </trkpt>
      <trkpt lat="44.40922" lon="6.41708">
        <ele>1951.4</ele>
        <time>2018-08-10T13:01:04Z</time>
      </trkpt>
      <trkpt lat="44.40925" lon="6.41707">
        <ele>1950.4</ele>
        <time>2018-08-10T13:01:06Z</time>
      </trkpt>
      <trkpt lat="44.40928" lon="6.41708">
        <ele>1949.1</ele>
        <time>2018-08-10T13:01:08Z</time>
      </trkpt>
      <trkpt lat="44.40933" lon="6.4171">
        <ele>1946.6</ele>
        <time>2018-08-10T13:01:24Z</time>
      </trkpt>
      <trkpt lat="44.40936" lon="6.41712">
        <ele>1944.8</ele>
        <time>2018-08-10T13:01:26Z</time>
      </trkpt>
      <trkpt lat="44.4094" lon="6.41712">
        <ele>1943.2</ele>
        <time>2018-08-10T13:01:28Z</time>
      </trkpt>
      <trkpt lat="44.40942" lon="6.41714">
        <ele>1942.2</ele>
        <time>2018-08-10T13:01:29Z</time>
      </trkpt>
      <trkpt lat="44.40946" lon="6.41715">
        <ele>1941</ele>
        <time>2018-08-10T13:01:31Z</time>
      </trkpt>
      <trkpt lat="44.40948" lon="6.41719">
        <ele>1939.8</ele>
        <time>2018-08-10T13:01:34Z</time>
      </trkpt>
      <trkpt lat="44.40952" lon="6.41725">
        <ele>1937.9</ele>
        <time>2018-08-10T13:01:37Z</time>
      </trkpt>
      <trkpt lat="44.40953" lon="6.41728">
        <ele>1937</ele>
        <time>2018-08-10T13:01:38Z</time>
      </trkpt>
      <trkpt lat="44.40955" lon="6.41732">
        <ele>1935.9</ele>
        <time>2018-08-10T13:01:39Z</time>
      </trkpt>
      <trkpt lat="44.40958" lon="6.41734">
        <ele>1934.9</ele>
        <time>2018-08-10T13:01:43Z</time>
      </trkpt>
      <trkpt lat="44.40962" lon="6.41736">
        <ele>1933.8</ele>
        <time>2018-08-10T13:01:45Z</time>
      </trkpt>
      <trkpt lat="44.40964" lon="6.41738">
        <ele>1932.5</ele>
        <time>2018-08-10T13:01:47Z</time>
      </trkpt>
      <trkpt lat="44.40967" lon="6.41739">
        <ele>1930.8</ele>
        <time>2018-08-10T13:01:49Z</time>
      </trkpt>
      <trkpt lat="44.40969" lon="6.41742">
        <ele>1929.3</ele>
        <time>2018-08-10T13:01:51Z</time>
      </trkpt>
      <trkpt lat="44.40971" lon="6.41746">
        <ele>1927.6</ele>
        <time>2018-08-10T13:01:53Z</time>
      </trkpt>
      <trkpt lat="44.40974" lon="6.41753">
        <ele>1924.3</ele>
        <time>2018-08-10T13:01:55Z</time>
      </trkpt>
      <trkpt lat="44.40975" lon="6.41757">
        <ele>1922.8</ele>
        <time>2018-08-10T13:01:56Z</time>
      </trkpt>
      <trkpt lat="44.40977" lon="6.4176">
        <ele>1921.3</ele>
        <time>2018-08-10T13:01:57Z</time>
      </trkpt>
      <trkpt lat="44.4098" lon="6.41761">
        <ele>1919.7</ele>
        <time>2018-08-10T13:01:59Z</time>
      </trkpt>
      <trkpt lat="44.40983" lon="6.41764">
        <ele>1917.7</ele>
        <time>2018-08-10T13:02:01Z</time>
      </trkpt>
      <trkpt lat="44.40986" lon="6.41766">
        <ele>1915.9</ele>
        <time>2018-08-10T13:02:03Z</time>
      </trkpt>
      <trkpt lat="44.40987" lon="6.41771">
        <ele>1913.7</ele>
        <time>2018-08-10T13:02:05Z</time>
      </trkpt>
      <trkpt lat="44.40989" lon="6.41775">
        <ele>1910.6</ele>
        <time>2018-08-10T13:02:07Z</time>
      </trkpt>
      <trkpt lat="44.40991" lon="6.4178">
        <ele>1907.6</ele>
        <time>2018-08-10T13:02:09Z</time>
      </trkpt>
      <trkpt lat="44.40993" lon="6.41783">
        <ele>1905.8</ele>
        <time>2018-08-10T13:02:11Z</time>
      </trkpt>
      <trkpt lat="44.40992" lon="6.41787">
        <ele>1904.2</ele>
        <time>2018-08-10T13:02:16Z</time>
      </trkpt>
      <trkpt lat="44.40994" lon="6.4179">
        <ele>1902.8</ele>
        <time>2018-08-10T13:02:18Z</time>
      </trkpt>
      <trkpt lat="44.40996" lon="6.41796">
        <ele>1899.7</ele>
        <time>2018-08-10T13:02:21Z</time>
      </trkpt>
      <trkpt lat="44.40998" lon="6.41802">
        <ele>1896.5</ele>
        <time>2018-08-10T13:02:23Z</time>
      </trkpt>
      <trkpt lat="44.41" lon="6.41807">
        <ele>1895.6</ele>
        <time>2018-08-10T13:02:25Z</time>
      </trkpt>
      <trkpt lat="44.41004" lon="6.4181">
        <ele>1895.7</ele>
        <time>2018-08-10T13:02:27Z</time>
      </trkpt>
      <trkpt lat="44.41007" lon="6.41813">
        <ele>1895.1</ele>
        <time>2018-08-10T13:02:29Z</time>
      </trkpt>
      <trkpt lat="44.41011" lon="6.41815">
        <ele>1894.1</ele>
        <time>2018-08-10T13:02:31Z</time>
      </trkpt>
      <trkpt lat="44.41013" lon="6.41818">
        <ele>1893.3</ele>
        <time>2018-08-10T13:02:32Z</time>
      </trkpt>
      <trkpt lat="44.41018" lon="6.41821">
        <ele>1892.2</ele>
        <time>2018-08-10T13:02:34Z</time>
      </trkpt>
      <trkpt lat="44.41021" lon="6.41822">
        <ele>1891.5</ele>
        <time>2018-08-10T13:02:35Z</time>
      </trkpt>
      <trkpt lat="44.41025" lon="6.41822">
        <ele>1890.7</ele>
        <time>2018-08-10T13:02:36Z</time>
      </trkpt>
      <trkpt lat="44.41028" lon="6.41821">
        <ele>1890.2</ele>
        <time>2018-08-10T13:02:37Z</time>
      </trkpt>
      <trkpt lat="44.41031" lon="6.4182">
        <ele>1891</ele>
        <time>2018-08-10T13:02:38Z</time>
      </trkpt>
      <trkpt lat="44.41034" lon="6.41817">
        <ele>1891.9</ele>
        <time>2018-08-10T13:02:44Z</time>
      </trkpt>
      <trkpt lat="44.41037" lon="6.41816">
        <ele>1892.4</ele>
        <time>2018-08-10T13:02:47Z</time>
      </trkpt>
      <trkpt lat="44.4104" lon="6.41815">
        <ele>1892.5</ele>
        <time>2018-08-10T13:02:52Z</time>
      </trkpt>
      <trkpt lat="44.41043" lon="6.41814">
        <ele>1892.5</ele>
        <time>2018-08-10T13:02:55Z</time>
      </trkpt>
      <trkpt lat="44.41046" lon="6.41814">
        <ele>1892.8</ele>
        <time>2018-08-10T13:02:57Z</time>
      </trkpt>
      <trkpt lat="44.4105" lon="6.41816">
        <ele>1893.6</ele>
        <time>2018-08-10T13:03:00Z</time>
      </trkpt>
      <trkpt lat="44.41053" lon="6.41816">
        <ele>1894.2</ele>
        <time>2018-08-10T13:03:03Z</time>
      </trkpt>
      <trkpt lat="44.41057" lon="6.4182">
        <ele>1893.8</ele>
        <time>2018-08-10T13:03:05Z</time>
      </trkpt>
      <trkpt lat="44.41061" lon="6.41822">
        <ele>1893.3</ele>
        <time>2018-08-10T13:03:07Z</time>
      </trkpt>
      <trkpt lat="44.41064" lon="6.41823">
        <ele>1892.6</ele>
        <time>2018-08-10T13:03:08Z</time>
      </trkpt>
      <trkpt lat="44.41066" lon="6.41826">
        <ele>1891.6</ele>
        <time>2018-08-10T13:03:09Z</time>
      </trkpt>
      <trkpt lat="44.4107" lon="6.4183">
        <ele>1890.2</ele>
        <time>2018-08-10T13:03:10Z</time>
      </trkpt>
      <trkpt lat="44.41074" lon="6.41832">
        <ele>1889.3</ele>
        <time>2018-08-10T13:03:11Z</time>
      </trkpt>
      <trkpt lat="44.41076" lon="6.41835">
        <ele>1888.5</ele>
        <time>2018-08-10T13:03:12Z</time>
      </trkpt>
      <trkpt lat="44.4108" lon="6.41841">
        <ele>1888.4</ele>
        <time>2018-08-10T13:03:14Z</time>
      </trkpt>
      <trkpt lat="44.41083" lon="6.41842">
        <ele>1888.6</ele>
        <time>2018-08-10T13:03:16Z</time>
      </trkpt>
      <trkpt lat="44.41085" lon="6.41841">
        <ele>1888.8</ele>
        <time>2018-08-10T13:03:17Z</time>
      </trkpt>
      <trkpt lat="44.41089" lon="6.41839">
        <ele>1889</ele>
        <time>2018-08-10T13:03:18Z</time>
      </trkpt>
      <trkpt lat="44.41092" lon="6.41836">
        <ele>1889.3</ele>
        <time>2018-08-10T13:03:19Z</time>
      </trkpt>
      <trkpt lat="44.41095" lon="6.41833">
        <ele>1889.4</ele>
        <time>2018-08-10T13:03:20Z</time>
      </trkpt>
      <trkpt lat="44.41097" lon="6.4183">
        <ele>1889.5</ele>
        <time>2018-08-10T13:03:21Z</time>
      </trkpt>
      <trkpt lat="44.41102" lon="6.41832">
        <ele>1889.6</ele>
        <time>2018-08-10T13:03:23Z</time>
      </trkpt>
      <trkpt lat="44.41105" lon="6.41833">
        <ele>1889.5</ele>
        <time>2018-08-10T13:03:24Z</time>
      </trkpt>
      <trkpt lat="44.41108" lon="6.41832">
        <ele>1889.9</ele>
        <time>2018-08-10T13:03:25Z</time>
      </trkpt>
      <trkpt lat="44.41111" lon="6.4183">
        <ele>1890.6</ele>
        <time>2018-08-10T13:03:26Z</time>
      </trkpt>
      <trkpt lat="44.41116" lon="6.41828">
        <ele>1891.8</ele>
        <time>2018-08-10T13:03:28Z</time>
      </trkpt>
      <trkpt lat="44.41119" lon="6.41826">
        <ele>1892.5</ele>
        <time>2018-08-10T13:03:29Z</time>
      </trkpt>
      <trkpt lat="44.41122" lon="6.41824">
        <ele>1893.3</ele>
        <time>2018-08-10T13:03:30Z</time>
      </trkpt>
      <trkpt lat="44.41125" lon="6.41819">
        <ele>1894.9</ele>
        <time>2018-08-10T13:03:31Z</time>
      </trkpt>
      <trkpt lat="44.41128" lon="6.41816">
        <ele>1896.6</ele>
        <time>2018-08-10T13:03:32Z</time>
      </trkpt>
      <trkpt lat="44.41131" lon="6.41813">
        <ele>1898.1</ele>
        <time>2018-08-10T13:03:33Z</time>
      </trkpt>
      <trkpt lat="44.41133" lon="6.41808">
        <ele>1899.6</ele>
        <time>2018-08-10T13:03:34Z</time>
      </trkpt>
      <trkpt lat="44.41136" lon="6.41806">
        <ele>1900.9</ele>
        <time>2018-08-10T13:03:35Z</time>
      </trkpt>
      <trkpt lat="44.41141" lon="6.41806">
        <ele>1902.5</ele>
        <time>2018-08-10T13:03:37Z</time>
      </trkpt>
      <trkpt lat="44.41144" lon="6.41812">
        <ele>1903</ele>
        <time>2018-08-10T13:03:39Z</time>
      </trkpt>
      <trkpt lat="44.41146" lon="6.41815">
        <ele>1902.8</ele>
        <time>2018-08-10T13:03:40Z</time>
      </trkpt>
      <trkpt lat="44.41148" lon="6.41821">
        <ele>1901.7</ele>
        <time>2018-08-10T13:03:41Z</time>
      </trkpt>
      <trkpt lat="44.41149" lon="6.41827">
        <ele>1900.1</ele>
        <time>2018-08-10T13:03:42Z</time>
      </trkpt>
      <trkpt lat="44.41153" lon="6.41832">
        <ele>1899.1</ele>
        <time>2018-08-10T13:03:43Z</time>
      </trkpt>
      <trkpt lat="44.41156" lon="6.41838">
        <ele>1898.3</ele>
        <time>2018-08-10T13:03:44Z</time>
      </trkpt>
      <trkpt lat="44.41158" lon="6.41844">
        <ele>1897.7</ele>
        <time>2018-08-10T13:03:45Z</time>
      </trkpt>
      <trkpt lat="44.41159" lon="6.4185">
        <ele>1897.2</ele>
        <time>2018-08-10T13:03:46Z</time>
      </trkpt>
      <trkpt lat="44.4116" lon="6.41856">
        <ele>1897.1</ele>
        <time>2018-08-10T13:03:47Z</time>
      </trkpt>
      <trkpt lat="44.41161" lon="6.4186">
        <ele>1897</ele>
        <time>2018-08-10T13:03:49Z</time>
      </trkpt>
      <trkpt lat="44.41162" lon="6.41864">
        <ele>1896.1</ele>
        <time>2018-08-10T13:03:50Z</time>
      </trkpt>
      <trkpt lat="44.41162" lon="6.41869">
        <ele>1895</ele>
        <time>2018-08-10T13:03:51Z</time>
      </trkpt>
      <trkpt lat="44.41163" lon="6.41876">
        <ele>1893.1</ele>
        <time>2018-08-10T13:03:53Z</time>
      </trkpt>
      <trkpt lat="44.41163" lon="6.41881">
        <ele>1891.7</ele>
        <time>2018-08-10T13:03:55Z</time>
      </trkpt>
      <trkpt lat="44.41163" lon="6.41886">
        <ele>1891.4</ele>
        <time>2018-08-10T13:03:57Z</time>
      </trkpt>
      <trkpt lat="44.41165" lon="6.41891">
        <ele>1891.1</ele>
        <time>2018-08-10T13:03:58Z</time>
      </trkpt>
      <trkpt lat="44.41166" lon="6.41895">
        <ele>1890.9</ele>
        <time>2018-08-10T13:03:59Z</time>
      </trkpt>
      <trkpt lat="44.41169" lon="6.419">
        <ele>1890.6</ele>
        <time>2018-08-10T13:04:00Z</time>
      </trkpt>
      <trkpt lat="44.41171" lon="6.41907">
        <ele>1890.2</ele>
        <time>2018-08-10T13:04:01Z</time>
      </trkpt>
      <trkpt lat="44.41173" lon="6.41914">
        <ele>1889.6</ele>
        <time>2018-08-10T13:04:02Z</time>
      </trkpt>
      <trkpt lat="44.41174" lon="6.41919">
        <ele>1888.8</ele>
        <time>2018-08-10T13:04:03Z</time>
      </trkpt>
      <trkpt lat="44.41176" lon="6.41925">
        <ele>1888.2</ele>
        <time>2018-08-10T13:04:04Z</time>
      </trkpt>
      <trkpt lat="44.41177" lon="6.41933">
        <ele>1887.9</ele>
        <time>2018-08-10T13:04:05Z</time>
      </trkpt>
      <trkpt lat="44.41179" lon="6.41939">
        <ele>1887.7</ele>
        <time>2018-08-10T13:04:06Z</time>
      </trkpt>
      <trkpt lat="44.41182" lon="6.41944">
        <ele>1887.3</ele>
        <time>2018-08-10T13:04:07Z</time>
      </trkpt>
      <trkpt lat="44.41183" lon="6.41949">
        <ele>1886.6</ele>
        <time>2018-08-10T13:04:08Z</time>
      </trkpt>
      <trkpt lat="44.41185" lon="6.41953">
        <ele>1885.8</ele>
        <time>2018-08-10T13:04:09Z</time>
      </trkpt>
      <trkpt lat="44.41186" lon="6.41958">
        <ele>1884.8</ele>
        <time>2018-08-10T13:04:10Z</time>
      </trkpt>
      <trkpt lat="44.41188" lon="6.41961">
        <ele>1884</ele>
        <time>2018-08-10T13:04:11Z</time>
      </trkpt>
      <trkpt lat="44.41189" lon="6.41968">
        <ele>1883.6</ele>
        <time>2018-08-10T13:04:13Z</time>
      </trkpt>
      <trkpt lat="44.41187" lon="6.41974">
        <ele>1882.9</ele>
        <time>2018-08-10T13:04:15Z</time>
      </trkpt>
      <trkpt lat="44.41185" lon="6.41977">
        <ele>1881.2</ele>
        <time>2018-08-10T13:04:16Z</time>
      </trkpt>
      <trkpt lat="44.41184" lon="6.41981">
        <ele>1879.2</ele>
        <time>2018-08-10T13:04:17Z</time>
      </trkpt>
      <trkpt lat="44.41183" lon="6.41985">
        <ele>1877.5</ele>
        <time>2018-08-10T13:04:18Z</time>
      </trkpt>
      <trkpt lat="44.41182" lon="6.4199">
        <ele>1875.6</ele>
        <time>2018-08-10T13:04:19Z</time>
      </trkpt>
      <trkpt lat="44.41182" lon="6.41994">
        <ele>1874.1</ele>
        <time>2018-08-10T13:04:20Z</time>
      </trkpt>
      <trkpt lat="44.41181" lon="6.41999">
        <ele>1871.6</ele>
        <time>2018-08-10T13:04:21Z</time>
      </trkpt>
      <trkpt lat="44.41181" lon="6.42005">
        <ele>1868.7</ele>
        <time>2018-08-10T13:04:22Z</time>
      </trkpt>
      <trkpt lat="44.4118" lon="6.42011">
        <ele>1865.9</ele>
        <time>2018-08-10T13:04:23Z</time>
      </trkpt>
      <trkpt lat="44.41179" lon="6.42017">
        <ele>1863.4</ele>
        <time>2018-08-10T13:04:24Z</time>
      </trkpt>
      <trkpt lat="44.4118" lon="6.42025">
        <ele>1860.1</ele>
        <time>2018-08-10T13:04:25Z</time>
      </trkpt>
      <trkpt lat="44.41179" lon="6.4203">
        <ele>1857.7</ele>
        <time>2018-08-10T13:04:26Z</time>
      </trkpt>
      <trkpt lat="44.41179" lon="6.42037">
        <ele>1856.1</ele>
        <time>2018-08-10T13:04:27Z</time>
      </trkpt>
      <trkpt lat="44.41178" lon="6.42043">
        <ele>1854.5</ele>
        <time>2018-08-10T13:04:28Z</time>
      </trkpt>
      <trkpt lat="44.41178" lon="6.42047">
        <ele>1853.3</ele>
        <time>2018-08-10T13:04:29Z</time>
      </trkpt>
      <trkpt lat="44.41178" lon="6.42051">
        <ele>1852</ele>
        <time>2018-08-10T13:04:30Z</time>
      </trkpt>
      <trkpt lat="44.41178" lon="6.42058">
        <ele>1850.1</ele>
        <time>2018-08-10T13:04:32Z</time>
      </trkpt>
      <trkpt lat="44.41179" lon="6.42062">
        <ele>1849</ele>
        <time>2018-08-10T13:04:33Z</time>
      </trkpt>
      <trkpt lat="44.41178" lon="6.42069">
        <ele>1847.1</ele>
        <time>2018-08-10T13:04:35Z</time>
      </trkpt>
      <trkpt lat="44.41178" lon="6.42073">
        <ele>1846</ele>
        <time>2018-08-10T13:04:36Z</time>
      </trkpt>
      <trkpt lat="44.41177" lon="6.42076">
        <ele>1844.7</ele>
        <time>2018-08-10T13:04:37Z</time>
      </trkpt>
      <trkpt lat="44.41179" lon="6.42084">
        <ele>1842.5</ele>
        <time>2018-08-10T13:04:39Z</time>
      </trkpt>
      <trkpt lat="44.41181" lon="6.42089">
        <ele>1841.5</ele>
        <time>2018-08-10T13:04:40Z</time>
      </trkpt>
      <trkpt lat="44.41184" lon="6.42096">
        <ele>1840.5</ele>
        <time>2018-08-10T13:04:42Z</time>
      </trkpt>
      <trkpt lat="44.41183" lon="6.421">
        <ele>1840.2</ele>
        <time>2018-08-10T13:04:43Z</time>
      </trkpt>
      <trkpt lat="44.41184" lon="6.42108">
        <ele>1840.8</ele>
        <time>2018-08-10T13:04:45Z</time>
      </trkpt>
      <trkpt lat="44.41185" lon="6.42112">
        <ele>1841.4</ele>
        <time>2018-08-10T13:04:46Z</time>
      </trkpt>
      <trkpt lat="44.41187" lon="6.42118">
        <ele>1842.3</ele>
        <time>2018-08-10T13:04:48Z</time>
      </trkpt>
      <trkpt lat="44.4119" lon="6.42122">
        <ele>1843</ele>
        <time>2018-08-10T13:04:49Z</time>
      </trkpt>
      <trkpt lat="44.41189" lon="6.42126">
        <ele>1843.2</ele>
        <time>2018-08-10T13:04:50Z</time>
      </trkpt>
      <trkpt lat="44.41192" lon="6.42132">
        <ele>1843.3</ele>
        <time>2018-08-10T13:04:52Z</time>
      </trkpt>
      <trkpt lat="44.41193" lon="6.42135">
        <ele>1842.7</ele>
        <time>2018-08-10T13:04:53Z</time>
      </trkpt>
      <trkpt lat="44.41194" lon="6.42142">
        <ele>1841.6</ele>
        <time>2018-08-10T13:04:55Z</time>
      </trkpt>
      <trkpt lat="44.41195" lon="6.42147">
        <ele>1841</ele>
        <time>2018-08-10T13:04:56Z</time>
      </trkpt>
      <trkpt lat="44.41196" lon="6.42151">
        <ele>1840.5</ele>
        <time>2018-08-10T13:04:57Z</time>
      </trkpt>
      <trkpt lat="44.41198" lon="6.42156">
        <ele>1839.5</ele>
        <time>2018-08-10T13:04:58Z</time>
      </trkpt>
      <trkpt lat="44.412" lon="6.42158">
        <ele>1838.8</ele>
        <time>2018-08-10T13:04:59Z</time>
      </trkpt>
      <trkpt lat="44.41203" lon="6.42163">
        <ele>1837.7</ele>
        <time>2018-08-10T13:05:01Z</time>
      </trkpt>
      <trkpt lat="44.41204" lon="6.42169">
        <ele>1836.7</ele>
        <time>2018-08-10T13:05:02Z</time>
      </trkpt>
      <trkpt lat="44.41208" lon="6.42173">
        <ele>1836.6</ele>
        <time>2018-08-10T13:05:03Z</time>
      </trkpt>
      <trkpt lat="44.41212" lon="6.42178">
        <ele>1836.8</ele>
        <time>2018-08-10T13:05:04Z</time>
      </trkpt>
      <trkpt lat="44.41216" lon="6.42184">
        <ele>1837.6</ele>
        <time>2018-08-10T13:05:05Z</time>
      </trkpt>
      <trkpt lat="44.41221" lon="6.42188">
        <ele>1837.9</ele>
        <time>2018-08-10T13:05:06Z</time>
      </trkpt>
      <trkpt lat="44.41226" lon="6.42192">
        <ele>1837.7</ele>
        <time>2018-08-10T13:05:07Z</time>
      </trkpt>
      <trkpt lat="44.4123" lon="6.42197">
        <ele>1837.4</ele>
        <time>2018-08-10T13:05:08Z</time>
      </trkpt>
      <trkpt lat="44.41236" lon="6.42201">
        <ele>1837</ele>
        <time>2018-08-10T13:05:09Z</time>
      </trkpt>
      <trkpt lat="44.41239" lon="6.42207">
        <ele>1836.3</ele>
        <time>2018-08-10T13:05:10Z</time>
      </trkpt>
      <trkpt lat="44.41243" lon="6.42213">
        <ele>1835.5</ele>
        <time>2018-08-10T13:05:11Z</time>
      </trkpt>
      <trkpt lat="44.41248" lon="6.42215">
        <ele>1834.6</ele>
        <time>2018-08-10T13:05:12Z</time>
      </trkpt>
      <trkpt lat="44.41252" lon="6.42218">
        <ele>1833.6</ele>
        <time>2018-08-10T13:05:13Z</time>
      </trkpt>
      <trkpt lat="44.41257" lon="6.42218">
        <ele>1833.1</ele>
        <time>2018-08-10T13:05:14Z</time>
      </trkpt>
      <trkpt lat="44.41259" lon="6.42221">
        <ele>1833.2</ele>
        <time>2018-08-10T13:05:15Z</time>
      </trkpt>
      <trkpt lat="44.41262" lon="6.42226">
        <ele>1833</ele>
        <time>2018-08-10T13:05:16Z</time>
      </trkpt>
      <trkpt lat="44.41266" lon="6.42228">
        <ele>1832.2</ele>
        <time>2018-08-10T13:05:17Z</time>
      </trkpt>
      <trkpt lat="44.4127" lon="6.42232">
        <ele>1831.2</ele>
        <time>2018-08-10T13:05:18Z</time>
      </trkpt>
      <trkpt lat="44.41274" lon="6.42236">
        <ele>1830.1</ele>
        <time>2018-08-10T13:05:19Z</time>
      </trkpt>
      <trkpt lat="44.41274" lon="6.42241">
        <ele>1829.1</ele>
        <time>2018-08-10T13:05:20Z</time>
      </trkpt>
      <trkpt lat="44.41277" lon="6.42243">
        <ele>1828.2</ele>
        <time>2018-08-10T13:05:21Z</time>
      </trkpt>
      <trkpt lat="44.4128" lon="6.42242">
        <ele>1827.3</ele>
        <time>2018-08-10T13:05:22Z</time>
      </trkpt>
      <trkpt lat="44.41284" lon="6.42242">
        <ele>1826.2</ele>
        <time>2018-08-10T13:05:23Z</time>
      </trkpt>
      <trkpt lat="44.41287" lon="6.42245">
        <ele>1825.6</ele>
        <time>2018-08-10T13:05:24Z</time>
      </trkpt>
      <trkpt lat="44.41289" lon="6.42249">
        <ele>1825.3</ele>
        <time>2018-08-10T13:05:25Z</time>
      </trkpt>
      <trkpt lat="44.41292" lon="6.4225">
        <ele>1825.1</ele>
        <time>2018-08-10T13:05:26Z</time>
      </trkpt>
      <trkpt lat="44.41296" lon="6.4225">
        <ele>1823.9</ele>
        <time>2018-08-10T13:05:27Z</time>
      </trkpt>
      <trkpt lat="44.41301" lon="6.42251">
        <ele>1822.3</ele>
        <time>2018-08-10T13:05:28Z</time>
      </trkpt>
      <trkpt lat="44.41307" lon="6.42248">
        <ele>1821.2</ele>
        <time>2018-08-10T13:05:29Z</time>
      </trkpt>
      <trkpt lat="44.41312" lon="6.42244">
        <ele>1819.7</ele>
        <time>2018-08-10T13:05:30Z</time>
      </trkpt>
      <trkpt lat="44.41318" lon="6.42236">
        <ele>1817.5</ele>
        <time>2018-08-10T13:05:31Z</time>
      </trkpt>
      <trkpt lat="44.41323" lon="6.42231">
        <ele>1816</ele>
        <time>2018-08-10T13:05:32Z</time>
      </trkpt>
      <trkpt lat="44.41326" lon="6.42228">
        <ele>1815.1</ele>
        <time>2018-08-10T13:05:33Z</time>
      </trkpt>
      <trkpt lat="44.41331" lon="6.42226">
        <ele>1815.4</ele>
        <time>2018-08-10T13:05:34Z</time>
      </trkpt>
      <trkpt lat="44.41333" lon="6.42223">
        <ele>1815.8</ele>
        <time>2018-08-10T13:05:35Z</time>
      </trkpt>
      <trkpt lat="44.41335" lon="6.4222">
        <ele>1814.8</ele>
        <time>2018-08-10T13:05:37Z</time>
      </trkpt>
      <trkpt lat="44.41335" lon="6.42215">
        <ele>1817.3</ele>
        <time>2018-08-10T13:05:42Z</time>
      </trkpt>
      <trkpt lat="44.41334" lon="6.4222">
        <ele>1814.6</ele>
        <time>2018-08-10T13:05:57Z</time>
      </trkpt>
      <trkpt lat="44.41333" lon="6.42224">
        <ele>1814.1</ele>
        <time>2018-08-10T13:06:01Z</time>
      </trkpt>
      <trkpt lat="44.4133" lon="6.42227">
        <ele>1814.9</ele>
        <time>2018-08-10T13:06:03Z</time>
      </trkpt>
      <trkpt lat="44.41329" lon="6.42223">
        <ele>1816.1</ele>
        <time>2018-08-10T13:06:15Z</time>
      </trkpt>
      <trkpt lat="44.4133" lon="6.42218">
        <ele>1817.4</ele>
        <time>2018-08-10T13:06:18Z</time>
      </trkpt>
      <trkpt lat="44.41331" lon="6.42214">
        <ele>1817.7</ele>
        <time>2018-08-10T13:06:21Z</time>
      </trkpt>
      <trkpt lat="44.41335" lon="6.42211">
        <ele>1817.8</ele>
        <time>2018-08-10T13:06:25Z</time>
      </trkpt>
      <trkpt lat="44.41339" lon="6.42214">
        <ele>1815.7</ele>
        <time>2018-08-10T13:06:34Z</time>
      </trkpt>
      <trkpt lat="44.41343" lon="6.42216">
        <ele>1813.5</ele>
        <time>2018-08-10T13:07:14Z</time>
      </trkpt>
      <trkpt lat="44.4134" lon="6.42217">
        <ele>1813.4</ele>
        <time>2018-08-10T13:07:47Z</time>
      </trkpt>
      <trkpt lat="44.41338" lon="6.42215">
        <ele>1815.4</ele>
        <time>2018-08-10T13:07:49Z</time>
      </trkpt>
      <trkpt lat="44.41337" lon="6.42218">
        <ele>1814.9</ele>
        <time>2018-08-10T13:08:10Z</time>
      </trkpt>
      <trkpt lat="44.41334" lon="6.42219">
        <ele>1814.9</ele>
        <time>2018-08-10T13:08:13Z</time>
      </trkpt>
      <trkpt lat="44.41331" lon="6.42221">
        <ele>1814.3</ele>
        <time>2018-08-10T13:08:15Z</time>
      </trkpt>
      <trkpt lat="44.41329" lon="6.42225">
        <ele>1813.8</ele>
        <time>2018-08-10T13:08:18Z</time>
      </trkpt>
      <trkpt lat="44.41326" lon="6.42226">
        <ele>1814.6</ele>
        <time>2018-08-10T13:08:24Z</time>
      </trkpt>
      <trkpt lat="44.41323" lon="6.42227">
        <ele>1815.3</ele>
        <time>2018-08-10T13:08:27Z</time>
      </trkpt>
      <trkpt lat="44.4132" lon="6.42228">
        <ele>1816</ele>
        <time>2018-08-10T13:08:29Z</time>
      </trkpt>
      <trkpt lat="44.41316" lon="6.42229">
        <ele>1816</ele>
        <time>2018-08-10T13:08:31Z</time>
      </trkpt>
      <trkpt lat="44.41311" lon="6.42231">
        <ele>1816</ele>
        <time>2018-08-10T13:08:33Z</time>
      </trkpt>
      <trkpt lat="44.41308" lon="6.42231">
        <ele>1816</ele>
        <time>2018-08-10T13:08:35Z</time>
      </trkpt>
      <trkpt lat="44.41304" lon="6.4223">
        <ele>1816</ele>
        <time>2018-08-10T13:08:37Z</time>
      </trkpt>
      <trkpt lat="44.413" lon="6.42232">
        <ele>1815</ele>
        <time>2018-08-10T13:08:40Z</time>
      </trkpt>
      <trkpt lat="44.41297" lon="6.42235">
        <ele>1814</ele>
        <time>2018-08-10T13:08:43Z</time>
      </trkpt>
      <trkpt lat="44.41297" lon="6.42241">
        <ele>1813.1</ele>
        <time>2018-08-10T13:08:57Z</time>
      </trkpt>
      <trkpt lat="44.41295" lon="6.42244">
        <ele>1812.5</ele>
        <time>2018-08-10T13:08:58Z</time>
      </trkpt>
      <trkpt lat="44.41293" lon="6.42248">
        <ele>1812</ele>
        <time>2018-08-10T13:08:59Z</time>
      </trkpt>
      <trkpt lat="44.41291" lon="6.42251">
        <ele>1811.4</ele>
        <time>2018-08-10T13:09:00Z</time>
      </trkpt>
      <trkpt lat="44.41289" lon="6.42254">
        <ele>1810.7</ele>
        <time>2018-08-10T13:09:01Z</time>
      </trkpt>
      <trkpt lat="44.41285" lon="6.42259">
        <ele>1809.7</ele>
        <time>2018-08-10T13:09:03Z</time>
      </trkpt>
      <trkpt lat="44.41283" lon="6.42263">
        <ele>1808.8</ele>
        <time>2018-08-10T13:09:05Z</time>
      </trkpt>
      <trkpt lat="44.4128" lon="6.42265">
        <ele>1808.2</ele>
        <time>2018-08-10T13:09:06Z</time>
      </trkpt>
      <trkpt lat="44.41278" lon="6.42268">
        <ele>1807.8</ele>
        <time>2018-08-10T13:09:08Z</time>
      </trkpt>
      <trkpt lat="44.41273" lon="6.42268">
        <ele>1807.5</ele>
        <time>2018-08-10T13:09:11Z</time>
      </trkpt>
      <trkpt lat="44.41271" lon="6.42271">
        <ele>1807.4</ele>
        <time>2018-08-10T13:09:31Z</time>
      </trkpt>
      <trkpt lat="44.41268" lon="6.42271">
        <ele>1807.9</ele>
        <time>2018-08-10T13:09:33Z</time>
      </trkpt>
      <trkpt lat="44.41264" lon="6.42271">
        <ele>1808.4</ele>
        <time>2018-08-10T13:09:35Z</time>
      </trkpt>
      <trkpt lat="44.4126" lon="6.42271">
        <ele>1808.4</ele>
        <time>2018-08-10T13:09:37Z</time>
      </trkpt>
      <trkpt lat="44.41255" lon="6.42271">
        <ele>1808.1</ele>
        <time>2018-08-10T13:09:39Z</time>
      </trkpt>
      <trkpt lat="44.41251" lon="6.42272">
        <ele>1808.4</ele>
        <time>2018-08-10T13:09:41Z</time>
      </trkpt>
      <trkpt lat="44.41246" lon="6.42272">
        <ele>1809.1</ele>
        <time>2018-08-10T13:09:44Z</time>
      </trkpt>
      <trkpt lat="44.41243" lon="6.42271">
        <ele>1809.4</ele>
        <time>2018-08-10T13:09:46Z</time>
      </trkpt>
      <trkpt lat="44.41239" lon="6.42274">
        <ele>1809.8</ele>
        <time>2018-08-10T13:09:48Z</time>
      </trkpt>
      <trkpt lat="44.41236" lon="6.42276">
        <ele>1809.8</ele>
        <time>2018-08-10T13:09:49Z</time>
      </trkpt>
      <trkpt lat="44.41233" lon="6.42278">
        <ele>1809.6</ele>
        <time>2018-08-10T13:09:50Z</time>
      </trkpt>
      <trkpt lat="44.41231" lon="6.4228">
        <ele>1809.3</ele>
        <time>2018-08-10T13:09:51Z</time>
      </trkpt>
      <trkpt lat="44.41227" lon="6.42281">
        <ele>1809.1</ele>
        <time>2018-08-10T13:09:52Z</time>
      </trkpt>
      <trkpt lat="44.41222" lon="6.42279">
        <ele>1809</ele>
        <time>2018-08-10T13:09:54Z</time>
      </trkpt>
      <trkpt lat="44.41219" lon="6.42277">
        <ele>1808.9</ele>
        <time>2018-08-10T13:09:56Z</time>
      </trkpt>
      <trkpt lat="44.41216" lon="6.42275">
        <ele>1808.6</ele>
        <time>2018-08-10T13:09:58Z</time>
      </trkpt>
      <trkpt lat="44.4121" lon="6.42275">
        <ele>1807.9</ele>
        <time>2018-08-10T13:10:00Z</time>
      </trkpt>
      <trkpt lat="44.41206" lon="6.42274">
        <ele>1807.6</ele>
        <time>2018-08-10T13:10:02Z</time>
      </trkpt>
      <trkpt lat="44.41203" lon="6.42273">
        <ele>1807.3</ele>
        <time>2018-08-10T13:10:04Z</time>
      </trkpt>
      <trkpt lat="44.412" lon="6.42272">
        <ele>1806.6</ele>
        <time>2018-08-10T13:10:06Z</time>
      </trkpt>
      <trkpt lat="44.41196" lon="6.42273">
        <ele>1805.9</ele>
        <time>2018-08-10T13:10:08Z</time>
      </trkpt>
      <trkpt lat="44.41193" lon="6.42272">
        <ele>1805.3</ele>
        <time>2018-08-10T13:10:10Z</time>
      </trkpt>
      <trkpt lat="44.41189" lon="6.4227">
        <ele>1804.3</ele>
        <time>2018-08-10T13:10:12Z</time>
      </trkpt>
      <trkpt lat="44.41188" lon="6.42277">
        <ele>1803.2</ele>
        <time>2018-08-10T13:10:14Z</time>
      </trkpt>
      <trkpt lat="44.41189" lon="6.42282">
        <ele>1802.4</ele>
        <time>2018-08-10T13:10:15Z</time>
      </trkpt>
      <trkpt lat="44.41188" lon="6.42289">
        <ele>1800.8</ele>
        <time>2018-08-10T13:10:17Z</time>
      </trkpt>
      <trkpt lat="44.41189" lon="6.42292">
        <ele>1799.7</ele>
        <time>2018-08-10T13:10:24Z</time>
      </trkpt>
      <trkpt lat="44.41189" lon="6.42298">
        <ele>1797.5</ele>
        <time>2018-08-10T13:10:26Z</time>
      </trkpt>
      <trkpt lat="44.4119" lon="6.42305">
        <ele>1795.3</ele>
        <time>2018-08-10T13:10:28Z</time>
      </trkpt>
      <trkpt lat="44.41194" lon="6.42307">
        <ele>1794.2</ele>
        <time>2018-08-10T13:10:30Z</time>
      </trkpt>
      <trkpt lat="44.41196" lon="6.42312">
        <ele>1793.3</ele>
        <time>2018-08-10T13:10:32Z</time>
      </trkpt>
      <trkpt lat="44.41198" lon="6.42314">
        <ele>1792.7</ele>
        <time>2018-08-10T13:10:35Z</time>
      </trkpt>
      <trkpt lat="44.41197" lon="6.42318">
        <ele>1792.2</ele>
        <time>2018-08-10T13:10:47Z</time>
      </trkpt>
      <trkpt lat="44.41194" lon="6.42317">
        <ele>1790.9</ele>
        <time>2018-08-10T13:10:49Z</time>
      </trkpt>
      <trkpt lat="44.41193" lon="6.42321">
        <ele>1789.5</ele>
        <time>2018-08-10T13:10:51Z</time>
      </trkpt>
      <trkpt lat="44.41196" lon="6.42326">
        <ele>1787.4</ele>
        <time>2018-08-10T13:10:53Z</time>
      </trkpt>
      <trkpt lat="44.41198" lon="6.42331">
        <ele>1786.1</ele>
        <time>2018-08-10T13:10:55Z</time>
      </trkpt>
      <trkpt lat="44.41201" lon="6.42334">
        <ele>1785.3</ele>
        <time>2018-08-10T13:10:56Z</time>
      </trkpt>
      <trkpt lat="44.41204" lon="6.42339">
        <ele>1783.6</ele>
        <time>2018-08-10T13:10:58Z</time>
      </trkpt>
      <trkpt lat="44.41205" lon="6.42344">
        <ele>1782.3</ele>
        <time>2018-08-10T13:11:00Z</time>
      </trkpt>
      <trkpt lat="44.41208" lon="6.4235">
        <ele>1780.9</ele>
        <time>2018-08-10T13:11:02Z</time>
      </trkpt>
      <trkpt lat="44.41206" lon="6.42351">
        <ele>1780</ele>
        <time>2018-08-10T13:11:05Z</time>
      </trkpt>
      <trkpt lat="44.41203" lon="6.42348">
        <ele>1778.1</ele>
        <time>2018-08-10T13:11:07Z</time>
      </trkpt>
      <trkpt lat="44.41201" lon="6.42346">
        <ele>1776.6</ele>
        <time>2018-08-10T13:11:09Z</time>
      </trkpt>
      <trkpt lat="44.41197" lon="6.42347">
        <ele>1774.3</ele>
        <time>2018-08-10T13:11:13Z</time>
      </trkpt>
      <trkpt lat="44.41194" lon="6.42346">
        <ele>1772.7</ele>
        <time>2018-08-10T13:11:15Z</time>
      </trkpt>
      <trkpt lat="44.4119" lon="6.42348">
        <ele>1770.4</ele>
        <time>2018-08-10T13:11:18Z</time>
      </trkpt>
      <trkpt lat="44.41188" lon="6.42353">
        <ele>1768.1</ele>
        <time>2018-08-10T13:11:20Z</time>
      </trkpt>
      <trkpt lat="44.41191" lon="6.42355">
        <ele>1766.3</ele>
        <time>2018-08-10T13:11:22Z</time>
      </trkpt>
      <trkpt lat="44.41194" lon="6.42359">
        <ele>1764.3</ele>
        <time>2018-08-10T13:11:24Z</time>
      </trkpt>
      <trkpt lat="44.41195" lon="6.42363">
        <ele>1762.7</ele>
        <time>2018-08-10T13:11:25Z</time>
      </trkpt>
      <trkpt lat="44.41197" lon="6.42369">
        <ele>1760</ele>
        <time>2018-08-10T13:11:27Z</time>
      </trkpt>
      <trkpt lat="44.41201" lon="6.42373">
        <ele>1758.6</ele>
        <time>2018-08-10T13:11:28Z</time>
      </trkpt>
      <trkpt lat="44.41203" lon="6.42376">
        <ele>1758</ele>
        <time>2018-08-10T13:11:30Z</time>
      </trkpt>
      <trkpt lat="44.41203" lon="6.42383">
        <ele>1757</ele>
        <time>2018-08-10T13:11:32Z</time>
      </trkpt>
      <trkpt lat="44.41207" lon="6.42387">
        <ele>1755.9</ele>
        <time>2018-08-10T13:11:34Z</time>
      </trkpt>
      <trkpt lat="44.41209" lon="6.4239">
        <ele>1755.2</ele>
        <time>2018-08-10T13:11:35Z</time>
      </trkpt>
      <trkpt lat="44.41211" lon="6.42394">
        <ele>1754.5</ele>
        <time>2018-08-10T13:11:36Z</time>
      </trkpt>
      <trkpt lat="44.41213" lon="6.42397">
        <ele>1753.9</ele>
        <time>2018-08-10T13:11:37Z</time>
      </trkpt>
      <trkpt lat="44.41215" lon="6.42403">
        <ele>1752.6</ele>
        <time>2018-08-10T13:11:38Z</time>
      </trkpt>
      <trkpt lat="44.41221" lon="6.42406">
        <ele>1751.3</ele>
        <time>2018-08-10T13:11:40Z</time>
      </trkpt>
      <trkpt lat="44.41225" lon="6.4241">
        <ele>1751.2</ele>
        <time>2018-08-10T13:11:42Z</time>
      </trkpt>
      <trkpt lat="44.41228" lon="6.42413">
        <ele>1750.9</ele>
        <time>2018-08-10T13:11:43Z</time>
      </trkpt>
      <trkpt lat="44.41231" lon="6.42414">
        <ele>1749.9</ele>
        <time>2018-08-10T13:11:44Z</time>
      </trkpt>
      <trkpt lat="44.41234" lon="6.42415">
        <ele>1748.8</ele>
        <time>2018-08-10T13:11:45Z</time>
      </trkpt>
      <trkpt lat="44.41237" lon="6.42417">
        <ele>1747.7</ele>
        <time>2018-08-10T13:11:46Z</time>
      </trkpt>
      <trkpt lat="44.4124" lon="6.42419">
        <ele>1746.5</ele>
        <time>2018-08-10T13:11:47Z</time>
      </trkpt>
      <trkpt lat="44.41245" lon="6.42422">
        <ele>1744.8</ele>
        <time>2018-08-10T13:11:49Z</time>
      </trkpt>
      <trkpt lat="44.41249" lon="6.42423">
        <ele>1742.9</ele>
        <time>2018-08-10T13:11:51Z</time>
      </trkpt>
      <trkpt lat="44.41252" lon="6.4242">
        <ele>1741.5</ele>
        <time>2018-08-10T13:11:52Z</time>
      </trkpt>
      <trkpt lat="44.41254" lon="6.42423">
        <ele>1740.3</ele>
        <time>2018-08-10T13:11:53Z</time>
      </trkpt>
      <trkpt lat="44.41258" lon="6.42424">
        <ele>1738.5</ele>
        <time>2018-08-10T13:11:55Z</time>
      </trkpt>
      <trkpt lat="44.41262" lon="6.42423">
        <ele>1736.6</ele>
        <time>2018-08-10T13:11:57Z</time>
      </trkpt>
      <trkpt lat="44.41265" lon="6.42425">
        <ele>1735.4</ele>
        <time>2018-08-10T13:13:03Z</time>
      </trkpt>
      <trkpt lat="44.41269" lon="6.42428">
        <ele>1734.3</ele>
        <time>2018-08-10T13:13:05Z</time>
      </trkpt>
      <trkpt lat="44.41273" lon="6.42428">
        <ele>1733</ele>
        <time>2018-08-10T13:13:07Z</time>
      </trkpt>
      <trkpt lat="44.41277" lon="6.42431">
        <ele>1729.4</ele>
        <time>2018-08-10T13:13:09Z</time>
      </trkpt>
      <trkpt lat="44.41279" lon="6.42433">
        <ele>1727.3</ele>
        <time>2018-08-10T13:13:11Z</time>
      </trkpt>
      <trkpt lat="44.41281" lon="6.42431">
        <ele>1724.9</ele>
        <time>2018-08-10T13:13:25Z</time>
      </trkpt>
      <trkpt lat="44.41278" lon="6.42432">
        <ele>1722.7</ele>
        <time>2018-08-10T13:13:31Z</time>
      </trkpt>
      <trkpt lat="44.41276" lon="6.42435">
        <ele>1721.6</ele>
        <time>2018-08-10T13:13:33Z</time>
      </trkpt>
      <trkpt lat="44.41276" lon="6.42439">
        <ele>1720.5</ele>
        <time>2018-08-10T13:13:36Z</time>
      </trkpt>
      <trkpt lat="44.41279" lon="6.42442">
        <ele>1720.1</ele>
        <time>2018-08-10T13:13:38Z</time>
      </trkpt>
      <trkpt lat="44.41283" lon="6.4244">
        <ele>1720.4</ele>
        <time>2018-08-10T13:13:40Z</time>
      </trkpt>
      <trkpt lat="44.41288" lon="6.4244">
        <ele>1719.4</ele>
        <time>2018-08-10T13:13:42Z</time>
      </trkpt>
      <trkpt lat="44.41292" lon="6.4244">
        <ele>1718.1</ele>
        <time>2018-08-10T13:13:43Z</time>
      </trkpt>
      <trkpt lat="44.41295" lon="6.42439">
        <ele>1717.5</ele>
        <time>2018-08-10T13:13:44Z</time>
      </trkpt>
      <trkpt lat="44.41298" lon="6.42439">
        <ele>1717.5</ele>
        <time>2018-08-10T13:13:45Z</time>
      </trkpt>
      <trkpt lat="44.41302" lon="6.42437">
        <ele>1717.3</ele>
        <time>2018-08-10T13:13:47Z</time>
      </trkpt>
      <trkpt lat="44.41305" lon="6.42439">
        <ele>1715.3</ele>
        <time>2018-08-10T13:13:49Z</time>
      </trkpt>
      <trkpt lat="44.41308" lon="6.4244">
        <ele>1713.2</ele>
        <time>2018-08-10T13:13:51Z</time>
      </trkpt>
      <trkpt lat="44.4131" lon="6.42442">
        <ele>1711.4</ele>
        <time>2018-08-10T13:13:54Z</time>
      </trkpt>
      <trkpt lat="44.41307" lon="6.42446">
        <ele>1709.4</ele>
        <time>2018-08-10T13:13:57Z</time>
      </trkpt>
      <trkpt lat="44.4131" lon="6.42448">
        <ele>1708.1</ele>
        <time>2018-08-10T13:14:00Z</time>
      </trkpt>
      <trkpt lat="44.41314" lon="6.42448">
        <ele>1706.7</ele>
        <time>2018-08-10T13:14:02Z</time>
      </trkpt>
      <trkpt lat="44.41319" lon="6.42448">
        <ele>1704</ele>
        <time>2018-08-10T13:14:04Z</time>
      </trkpt>
      <trkpt lat="44.41321" lon="6.42448">
        <ele>1701.9</ele>
        <time>2018-08-10T13:14:05Z</time>
      </trkpt>
      <trkpt lat="44.41326" lon="6.4245">
        <ele>1698.4</ele>
        <time>2018-08-10T13:14:07Z</time>
      </trkpt>
      <trkpt lat="44.41329" lon="6.42449">
        <ele>1696.2</ele>
        <time>2018-08-10T13:14:09Z</time>
      </trkpt>
      <trkpt lat="44.41332" lon="6.4245">
        <ele>1694.6</ele>
        <time>2018-08-10T13:14:11Z</time>
      </trkpt>
      <trkpt lat="44.41335" lon="6.42446">
        <ele>1693.1</ele>
        <time>2018-08-10T13:14:13Z</time>
      </trkpt>
      <trkpt lat="44.41339" lon="6.42447">
        <ele>1692.5</ele>
        <time>2018-08-10T13:14:15Z</time>
      </trkpt>
      <trkpt lat="44.41343" lon="6.42445">
        <ele>1692.4</ele>
        <time>2018-08-10T13:14:17Z</time>
      </trkpt>
      <trkpt lat="44.41346" lon="6.42443">
        <ele>1692.3</ele>
        <time>2018-08-10T13:14:19Z</time>
      </trkpt>
      <trkpt lat="44.41348" lon="6.42442">
        <ele>1692.1</ele>
        <time>2018-08-10T13:14:21Z</time>
      </trkpt>
      <trkpt lat="44.41352" lon="6.42441">
        <ele>1692</ele>
        <time>2018-08-10T13:14:23Z</time>
      </trkpt>
      <trkpt lat="44.41358" lon="6.4244">
        <ele>1693.1</ele>
        <time>2018-08-10T13:14:25Z</time>
      </trkpt>
      <trkpt lat="44.4136" lon="6.42439">
        <ele>1693.3</ele>
        <time>2018-08-10T13:14:27Z</time>
      </trkpt>
      <trkpt lat="44.41364" lon="6.42438">
        <ele>1690.6</ele>
        <time>2018-08-10T13:14:29Z</time>
      </trkpt>
      <trkpt lat="44.41368" lon="6.42439">
        <ele>1687.8</ele>
        <time>2018-08-10T13:14:31Z</time>
      </trkpt>
      <trkpt lat="44.41371" lon="6.4244">
        <ele>1686.2</ele>
        <time>2018-08-10T13:14:33Z</time>
      </trkpt>
      <trkpt lat="44.41376" lon="6.42439">
        <ele>1684.6</ele>
        <time>2018-08-10T13:14:35Z</time>
      </trkpt>
      <trkpt lat="44.41379" lon="6.42436">
        <ele>1683.3</ele>
        <time>2018-08-10T13:14:37Z</time>
      </trkpt>
      <trkpt lat="44.41383" lon="6.42438">
        <ele>1681.8</ele>
        <time>2018-08-10T13:14:41Z</time>
      </trkpt>
      <trkpt lat="44.41387" lon="6.42439">
        <ele>1680.4</ele>
        <time>2018-08-10T13:14:43Z</time>
      </trkpt>
      <trkpt lat="44.4139" lon="6.42442">
        <ele>1678.6</ele>
        <time>2018-08-10T13:14:45Z</time>
      </trkpt>
      <trkpt lat="44.41393" lon="6.42444">
        <ele>1676.9</ele>
        <time>2018-08-10T13:14:47Z</time>
      </trkpt>
      <trkpt lat="44.41396" lon="6.42445">
        <ele>1674.9</ele>
        <time>2018-08-10T13:14:49Z</time>
      </trkpt>
      <trkpt lat="44.41401" lon="6.42448">
        <ele>1673.9</ele>
        <time>2018-08-10T13:14:51Z</time>
      </trkpt>
      <trkpt lat="44.41403" lon="6.4245">
        <ele>1673.3</ele>
        <time>2018-08-10T13:14:52Z</time>
      </trkpt>
      <trkpt lat="44.41408" lon="6.42453">
        <ele>1672.1</ele>
        <time>2018-08-10T13:14:54Z</time>
      </trkpt>
      <trkpt lat="44.41412" lon="6.42453">
        <ele>1671.1</ele>
        <time>2018-08-10T13:14:56Z</time>
      </trkpt>
      <trkpt lat="44.41416" lon="6.4245">
        <ele>1669.8</ele>
        <time>2018-08-10T13:14:58Z</time>
      </trkpt>
      <trkpt lat="44.41419" lon="6.4245">
        <ele>1668.8</ele>
        <time>2018-08-10T13:15:00Z</time>
      </trkpt>
      <trkpt lat="44.41423" lon="6.42448">
        <ele>1667.5</ele>
        <time>2018-08-10T13:15:02Z</time>
      </trkpt>
      <trkpt lat="44.41427" lon="6.42446">
        <ele>1666.6</ele>
        <time>2018-08-10T13:15:04Z</time>
      </trkpt>
      <trkpt lat="44.41431" lon="6.42447">
        <ele>1665.6</ele>
        <time>2018-08-10T13:15:06Z</time>
      </trkpt>
      <trkpt lat="44.41436" lon="6.42447">
        <ele>1664.3</ele>
        <time>2018-08-10T13:15:08Z</time>
      </trkpt>
      <trkpt lat="44.41439" lon="6.42444">
        <ele>1663.4</ele>
        <time>2018-08-10T13:15:10Z</time>
      </trkpt>
      <trkpt lat="44.41444" lon="6.42444">
        <ele>1661.5</ele>
        <time>2018-08-10T13:15:12Z</time>
      </trkpt>
      <trkpt lat="44.41449" lon="6.42446">
        <ele>1658.8</ele>
        <time>2018-08-10T13:15:14Z</time>
      </trkpt>
      <trkpt lat="44.41452" lon="6.42448">
        <ele>1658.1</ele>
        <time>2018-08-10T13:15:15Z</time>
      </trkpt>
      <trkpt lat="44.41455" lon="6.42449">
        <ele>1657.4</ele>
        <time>2018-08-10T13:15:16Z</time>
      </trkpt>
      <trkpt lat="44.41459" lon="6.4245">
        <ele>1656.5</ele>
        <time>2018-08-10T13:15:17Z</time>
      </trkpt>
      <trkpt lat="44.41462" lon="6.42449">
        <ele>1655.6</ele>
        <time>2018-08-10T13:15:18Z</time>
      </trkpt>
      <trkpt lat="44.41467" lon="6.4245">
        <ele>1654.7</ele>
        <time>2018-08-10T13:15:19Z</time>
      </trkpt>
      <trkpt lat="44.4147" lon="6.42451">
        <ele>1654.2</ele>
        <time>2018-08-10T13:15:20Z</time>
      </trkpt>
      <trkpt lat="44.41473" lon="6.42452">
        <ele>1653.5</ele>
        <time>2018-08-10T13:15:21Z</time>
      </trkpt>
      <trkpt lat="44.41476" lon="6.42452">
        <ele>1652.8</ele>
        <time>2018-08-10T13:15:22Z</time>
      </trkpt>
      <trkpt lat="44.4148" lon="6.42452">
        <ele>1651.9</ele>
        <time>2018-08-10T13:15:23Z</time>
      </trkpt>
      <trkpt lat="44.41483" lon="6.4245">
        <ele>1651.3</ele>
        <time>2018-08-10T13:15:24Z</time>
      </trkpt>
      <trkpt lat="44.41488" lon="6.42449">
        <ele>1650.5</ele>
        <time>2018-08-10T13:15:25Z</time>
      </trkpt>
      <trkpt lat="44.41493" lon="6.42449">
        <ele>1649.9</ele>
        <time>2018-08-10T13:15:26Z</time>
      </trkpt>
      <trkpt lat="44.41498" lon="6.42451">
        <ele>1650.5</ele>
        <time>2018-08-10T13:15:27Z</time>
      </trkpt>
      <trkpt lat="44.41504" lon="6.42452">
        <ele>1652.1</ele>
        <time>2018-08-10T13:15:28Z</time>
      </trkpt>
      <trkpt lat="44.41508" lon="6.42457">
        <ele>1649.3</ele>
        <time>2018-08-10T13:15:29Z</time>
      </trkpt>
      <trkpt lat="44.41511" lon="6.42456">
        <ele>1648.7</ele>
        <time>2018-08-10T13:15:30Z</time>
      </trkpt>
      <trkpt lat="44.41514" lon="6.4246">
        <ele>1647.7</ele>
        <time>2018-08-10T13:15:31Z</time>
      </trkpt>
      <trkpt lat="44.41517" lon="6.42465">
        <ele>1646.3</ele>
        <time>2018-08-10T13:15:32Z</time>
      </trkpt>
      <trkpt lat="44.41519" lon="6.42468">
        <ele>1644.8</ele>
        <time>2018-08-10T13:15:33Z</time>
      </trkpt>
      <trkpt lat="44.41523" lon="6.42473">
        <ele>1642.5</ele>
        <time>2018-08-10T13:15:34Z</time>
      </trkpt>
      <trkpt lat="44.41526" lon="6.42477">
        <ele>1640.4</ele>
        <time>2018-08-10T13:15:35Z</time>
      </trkpt>
      <trkpt lat="44.4153" lon="6.4248">
        <ele>1638.6</ele>
        <time>2018-08-10T13:15:36Z</time>
      </trkpt>
      <trkpt lat="44.41533" lon="6.42483">
        <ele>1636.8</ele>
        <time>2018-08-10T13:15:37Z</time>
      </trkpt>
      <trkpt lat="44.41536" lon="6.42486">
        <ele>1635.4</ele>
        <time>2018-08-10T13:15:38Z</time>
      </trkpt>
      <trkpt lat="44.4154" lon="6.42489">
        <ele>1634.4</ele>
        <time>2018-08-10T13:15:41Z</time>
      </trkpt>
      <trkpt lat="44.41538" lon="6.42493">
        <ele>1633.7</ele>
        <time>2018-08-10T13:15:52Z</time>
      </trkpt>
      <trkpt lat="44.41535" lon="6.42491">
        <ele>1632.9</ele>
        <time>2018-08-10T13:15:54Z</time>
      </trkpt>
      <trkpt lat="44.41533" lon="6.42491">
        <ele>1632.2</ele>
        <time>2018-08-10T13:15:55Z</time>
      </trkpt>
      <trkpt lat="44.41528" lon="6.42494">
        <ele>1629.5</ele>
        <time>2018-08-10T13:15:57Z</time>
      </trkpt>
      <trkpt lat="44.41524" lon="6.42497">
        <ele>1627.1</ele>
        <time>2018-08-10T13:16:00Z</time>
      </trkpt>
      <trkpt lat="44.41519" lon="6.42501">
        <ele>1625.4</ele>
        <time>2018-08-10T13:16:02Z</time>
      </trkpt>
      <trkpt lat="44.41516" lon="6.42502">
        <ele>1624.6</ele>
        <time>2018-08-10T13:16:03Z</time>
      </trkpt>
      <trkpt lat="44.41513" lon="6.42505">
        <ele>1623.5</ele>
        <time>2018-08-10T13:16:05Z</time>
      </trkpt>
      <trkpt lat="44.4151" lon="6.42507">
        <ele>1622.7</ele>
        <time>2018-08-10T13:16:08Z</time>
      </trkpt>
      <trkpt lat="44.41507" lon="6.42507">
        <ele>1622</ele>
        <time>2018-08-10T13:16:09Z</time>
      </trkpt>
      <trkpt lat="44.41504" lon="6.42508">
        <ele>1621.4</ele>
        <time>2018-08-10T13:16:11Z</time>
      </trkpt>
      <trkpt lat="44.41501" lon="6.42507">
        <ele>1621.1</ele>
        <time>2018-08-10T13:16:12Z</time>
      </trkpt>
      <trkpt lat="44.41497" lon="6.42506">
        <ele>1621</ele>
        <time>2018-08-10T13:16:13Z</time>
      </trkpt>
      <trkpt lat="44.41493" lon="6.42507">
        <ele>1620.7</ele>
        <time>2018-08-10T13:16:15Z</time>
      </trkpt>
      <trkpt lat="44.41495" lon="6.42511">
        <ele>1620.1</ele>
        <time>2018-08-10T13:16:19Z</time>
      </trkpt>
      <trkpt lat="44.415" lon="6.42513">
        <ele>1619.1</ele>
        <time>2018-08-10T13:16:21Z</time>
      </trkpt>
      <trkpt lat="44.41495" lon="6.42512">
        <ele>1616.5</ele>
        <time>2018-08-10T13:17:07Z</time>
      </trkpt>
      <trkpt lat="44.41497" lon="6.42514">
        <ele>1616</ele>
        <time>2018-08-10T13:17:24Z</time>
      </trkpt>
      <trkpt lat="44.41494" lon="6.42513">
        <ele>1616</ele>
        <time>2018-08-10T13:17:27Z</time>
      </trkpt>
      <trkpt lat="44.41491" lon="6.42514">
        <ele>1616.1</ele>
        <time>2018-08-10T13:17:28Z</time>
      </trkpt>
      <trkpt lat="44.41488" lon="6.42516">
        <ele>1617.1</ele>
        <time>2018-08-10T13:17:30Z</time>
      </trkpt>
      <trkpt lat="44.41483" lon="6.42518">
        <ele>1618.5</ele>
        <time>2018-08-10T13:17:31Z</time>
      </trkpt>
      <trkpt lat="44.41479" lon="6.4252">
        <ele>1619.9</ele>
        <time>2018-08-10T13:17:32Z</time>
      </trkpt>
      <trkpt lat="44.41475" lon="6.42522">
        <ele>1621.6</ele>
        <time>2018-08-10T13:17:33Z</time>
      </trkpt>
      <trkpt lat="44.41471" lon="6.42525">
        <ele>1623.2</ele>
        <time>2018-08-10T13:17:34Z</time>
      </trkpt>
      <trkpt lat="44.41467" lon="6.42527">
        <ele>1624.6</ele>
        <time>2018-08-10T13:17:35Z</time>
      </trkpt>
      <trkpt lat="44.41464" lon="6.42528">
        <ele>1626.3</ele>
        <time>2018-08-10T13:17:36Z</time>
      </trkpt>
      <trkpt lat="44.41461" lon="6.42531">
        <ele>1627.8</ele>
        <time>2018-08-10T13:17:37Z</time>
      </trkpt>
      <trkpt lat="44.41456" lon="6.42535">
        <ele>1630.4</ele>
        <time>2018-08-10T13:17:39Z</time>
      </trkpt>
      <trkpt lat="44.41454" lon="6.42538">
        <ele>1631.7</ele>
        <time>2018-08-10T13:17:40Z</time>
      </trkpt>
      <trkpt lat="44.41451" lon="6.42542">
        <ele>1633.9</ele>
        <time>2018-08-10T13:17:41Z</time>
      </trkpt>
      <trkpt lat="44.41447" lon="6.42547">
        <ele>1636.5</ele>
        <time>2018-08-10T13:17:42Z</time>
      </trkpt>
      <trkpt lat="44.41446" lon="6.42553">
        <ele>1637.1</ele>
        <time>2018-08-10T13:17:43Z</time>
      </trkpt>
      <trkpt lat="44.41443" lon="6.42559">
        <ele>1637</ele>
        <time>2018-08-10T13:17:44Z</time>
      </trkpt>
      <trkpt lat="44.4144" lon="6.42563">
        <ele>1636.8</ele>
        <time>2018-08-10T13:17:45Z</time>
      </trkpt>
      <trkpt lat="44.41438" lon="6.42568">
        <ele>1636.6</ele>
        <time>2018-08-10T13:17:46Z</time>
      </trkpt>
      <trkpt lat="44.41436" lon="6.42572">
        <ele>1635.8</ele>
        <time>2018-08-10T13:17:47Z</time>
      </trkpt>
      <trkpt lat="44.41433" lon="6.42574">
        <ele>1635.1</ele>
        <time>2018-08-10T13:17:48Z</time>
      </trkpt>
      <trkpt lat="44.41429" lon="6.42577">
        <ele>1634.5</ele>
        <time>2018-08-10T13:17:50Z</time>
      </trkpt>
      <trkpt lat="44.41426" lon="6.42579">
        <ele>1634.4</ele>
        <time>2018-08-10T13:17:52Z</time>
      </trkpt>
      <trkpt lat="44.41423" lon="6.42581">
        <ele>1634.1</ele>
        <time>2018-08-10T13:17:54Z</time>
      </trkpt>
      <trkpt lat="44.41425" lon="6.42577">
        <ele>1634.4</ele>
        <time>2018-08-10T13:18:03Z</time>
      </trkpt>
      <trkpt lat="44.41429" lon="6.42574">
        <ele>1634.5</ele>
        <time>2018-08-10T13:18:05Z</time>
      </trkpt>
      <trkpt lat="44.41434" lon="6.42572">
        <ele>1635.4</ele>
        <time>2018-08-10T13:18:07Z</time>
      </trkpt>
      <trkpt lat="44.41439" lon="6.42569">
        <ele>1636.6</ele>
        <time>2018-08-10T13:18:09Z</time>
      </trkpt>
      <trkpt lat="44.41445" lon="6.42565">
        <ele>1636.9</ele>
        <time>2018-08-10T13:18:11Z</time>
      </trkpt>
      <trkpt lat="44.41448" lon="6.42564">
        <ele>1637</ele>
        <time>2018-08-10T13:18:12Z</time>
      </trkpt>
      <trkpt lat="44.41451" lon="6.42563">
        <ele>1637</ele>
        <time>2018-08-10T13:18:13Z</time>
      </trkpt>
      <trkpt lat="44.41455" lon="6.42561">
        <ele>1637</ele>
        <time>2018-08-10T13:18:14Z</time>
      </trkpt>
      <trkpt lat="44.41459" lon="6.42557">
        <ele>1637.1</ele>
        <time>2018-08-10T13:18:16Z</time>
      </trkpt>
      <trkpt lat="44.41463" lon="6.42554">
        <ele>1638.2</ele>
        <time>2018-08-10T13:18:18Z</time>
      </trkpt>
      <trkpt lat="44.41468" lon="6.42552">
        <ele>1639.2</ele>
        <time>2018-08-10T13:18:20Z</time>
      </trkpt>
      <trkpt lat="44.41471" lon="6.4255">
        <ele>1638.6</ele>
        <time>2018-08-10T13:18:21Z</time>
      </trkpt>
      <trkpt lat="44.41474" lon="6.42549">
        <ele>1637.7</ele>
        <time>2018-08-10T13:18:22Z</time>
      </trkpt>
      <trkpt lat="44.41478" lon="6.42548">
        <ele>1637.9</ele>
        <time>2018-08-10T13:18:23Z</time>
      </trkpt>
      <trkpt lat="44.41481" lon="6.42549">
        <ele>1638</ele>
        <time>2018-08-10T13:18:24Z</time>
      </trkpt>
      <trkpt lat="44.41484" lon="6.42549">
        <ele>1638</ele>
        <time>2018-08-10T13:18:25Z</time>
      </trkpt>
      <trkpt lat="44.41487" lon="6.42549">
        <ele>1637.9</ele>
        <time>2018-08-10T13:18:26Z</time>
      </trkpt>
      <trkpt lat="44.41491" lon="6.42549">
        <ele>1637.8</ele>
        <time>2018-08-10T13:18:27Z</time>
      </trkpt>
      <trkpt lat="44.41495" lon="6.42548">
        <ele>1637.7</ele>
        <time>2018-08-10T13:18:28Z</time>
      </trkpt>
      <trkpt lat="44.41499" lon="6.42549">
        <ele>1637.7</ele>
        <time>2018-08-10T13:18:29Z</time>
      </trkpt>
      <trkpt lat="44.41503" lon="6.42548">
        <ele>1637.8</ele>
        <time>2018-08-10T13:18:30Z</time>
      </trkpt>
      <trkpt lat="44.41507" lon="6.4255">
        <ele>1638.1</ele>
        <time>2018-08-10T13:18:31Z</time>
      </trkpt>
      <trkpt lat="44.41511" lon="6.42551">
        <ele>1638.1</ele>
        <time>2018-08-10T13:18:32Z</time>
      </trkpt>
      <trkpt lat="44.41516" lon="6.42551">
        <ele>1637.2</ele>
        <time>2018-08-10T13:18:33Z</time>
      </trkpt>
      <trkpt lat="44.41521" lon="6.42553">
        <ele>1637.4</ele>
        <time>2018-08-10T13:18:34Z</time>
      </trkpt>
      <trkpt lat="44.41526" lon="6.42552">
        <ele>1637.5</ele>
        <time>2018-08-10T13:18:35Z</time>
      </trkpt>
      <trkpt lat="44.4153" lon="6.42553">
        <ele>1636.9</ele>
        <time>2018-08-10T13:18:36Z</time>
      </trkpt>
      <trkpt lat="44.41538" lon="6.42555">
        <ele>1636.9</ele>
        <time>2018-08-10T13:18:37Z</time>
      </trkpt>
      <trkpt lat="44.41543" lon="6.42556">
        <ele>1636.9</ele>
        <time>2018-08-10T13:18:38Z</time>
      </trkpt>
      <trkpt lat="44.41547" lon="6.42553">
        <ele>1636.3</ele>
        <time>2018-08-10T13:18:39Z</time>
      </trkpt>
      <trkpt lat="44.41554" lon="6.42557">
        <ele>1636.2</ele>
        <time>2018-08-10T13:18:40Z</time>
      </trkpt>
      <trkpt lat="44.41559" lon="6.42559">
        <ele>1635.9</ele>
        <time>2018-08-10T13:18:41Z</time>
      </trkpt>
      <trkpt lat="44.41564" lon="6.4256">
        <ele>1635</ele>
        <time>2018-08-10T13:18:42Z</time>
      </trkpt>
      <trkpt lat="44.41569" lon="6.42561">
        <ele>1633.8</ele>
        <time>2018-08-10T13:18:43Z</time>
      </trkpt>
      <trkpt lat="44.41574" lon="6.42563">
        <ele>1632.4</ele>
        <time>2018-08-10T13:18:44Z</time>
      </trkpt>
      <trkpt lat="44.41581" lon="6.42568">
        <ele>1630.2</ele>
        <time>2018-08-10T13:18:45Z</time>
      </trkpt>
      <trkpt lat="44.41587" lon="6.42571">
        <ele>1628.3</ele>
        <time>2018-08-10T13:18:46Z</time>
      </trkpt>
      <trkpt lat="44.41592" lon="6.42573">
        <ele>1626.4</ele>
        <time>2018-08-10T13:18:47Z</time>
      </trkpt>
      <trkpt lat="44.41596" lon="6.42576">
        <ele>1624.2</ele>
        <time>2018-08-10T13:18:48Z</time>
      </trkpt>
      <trkpt lat="44.41602" lon="6.42579">
        <ele>1620.7</ele>
        <time>2018-08-10T13:18:49Z</time>
      </trkpt>
      <trkpt lat="44.41608" lon="6.42581">
        <ele>1618.8</ele>
        <time>2018-08-10T13:18:50Z</time>
      </trkpt>
      <trkpt lat="44.41614" lon="6.42582">
        <ele>1617.1</ele>
        <time>2018-08-10T13:18:51Z</time>
      </trkpt>
      <trkpt lat="44.41618" lon="6.42582">
        <ele>1616.7</ele>
        <time>2018-08-10T13:18:52Z</time>
      </trkpt>
      <trkpt lat="44.41623" lon="6.42581">
        <ele>1615.4</ele>
        <time>2018-08-10T13:18:53Z</time>
      </trkpt>
      <trkpt lat="44.41628" lon="6.42581">
        <ele>1612.8</ele>
        <time>2018-08-10T13:18:54Z</time>
      </trkpt>
      <trkpt lat="44.4163" lon="6.4258">
        <ele>1611.9</ele>
        <time>2018-08-10T13:18:58Z</time>
      </trkpt>
      <trkpt lat="44.41633" lon="6.42581">
        <ele>1611.1</ele>
        <time>2018-08-10T13:19:28Z</time>
      </trkpt>
      <trkpt lat="44.41638" lon="6.42581">
        <ele>1610.3</ele>
        <time>2018-08-10T13:19:30Z</time>
      </trkpt>
      <trkpt lat="44.41644" lon="6.42579">
        <ele>1609.8</ele>
        <time>2018-08-10T13:19:32Z</time>
      </trkpt>
      <trkpt lat="44.41648" lon="6.42578">
        <ele>1608.4</ele>
        <time>2018-08-10T13:19:33Z</time>
      </trkpt>
      <trkpt lat="44.41653" lon="6.42576">
        <ele>1607.1</ele>
        <time>2018-08-10T13:19:34Z</time>
      </trkpt>
      <trkpt lat="44.41658" lon="6.42573">
        <ele>1607.7</ele>
        <time>2018-08-10T13:19:35Z</time>
      </trkpt>
      <trkpt lat="44.41662" lon="6.42569">
        <ele>1609.6</ele>
        <time>2018-08-10T13:19:36Z</time>
      </trkpt>
      <trkpt lat="44.41667" lon="6.42564">
        <ele>1610.7</ele>
        <time>2018-08-10T13:19:37Z</time>
      </trkpt>
      <trkpt lat="44.41671" lon="6.42557">
        <ele>1614.1</ele>
        <time>2018-08-10T13:19:38Z</time>
      </trkpt>
      <trkpt lat="44.41675" lon="6.4255">
        <ele>1614.2</ele>
        <time>2018-08-10T13:19:39Z</time>
      </trkpt>
      <trkpt lat="44.41677" lon="6.42545">
        <ele>1612.1</ele>
        <time>2018-08-10T13:19:40Z</time>
      </trkpt>
      <trkpt lat="44.4168" lon="6.42542">
        <ele>1608.5</ele>
        <time>2018-08-10T13:19:41Z</time>
      </trkpt>
      <trkpt lat="44.41683" lon="6.42541">
        <ele>1606.2</ele>
        <time>2018-08-10T13:19:42Z</time>
      </trkpt>
      <trkpt lat="44.41685" lon="6.42546">
        <ele>1604.2</ele>
        <time>2018-08-10T13:19:44Z</time>
      </trkpt>
      <trkpt lat="44.41683" lon="6.42549">
        <ele>1603.2</ele>
        <time>2018-08-10T13:19:45Z</time>
      </trkpt>
      <trkpt lat="44.41681" lon="6.42553">
        <ele>1602.8</ele>
        <time>2018-08-10T13:19:46Z</time>
      </trkpt>
      <trkpt lat="44.41677" lon="6.42557">
        <ele>1602.4</ele>
        <time>2018-08-10T13:19:47Z</time>
      </trkpt>
      <trkpt lat="44.41675" lon="6.4256">
        <ele>1602.6</ele>
        <time>2018-08-10T13:19:48Z</time>
      </trkpt>
      <trkpt lat="44.41672" lon="6.42565">
        <ele>1602.8</ele>
        <time>2018-08-10T13:19:49Z</time>
      </trkpt>
      <trkpt lat="44.41669" lon="6.42574">
        <ele>1600.9</ele>
        <time>2018-08-10T13:19:51Z</time>
      </trkpt>
      <trkpt lat="44.41661" lon="6.42583">
        <ele>1602.2</ele>
        <time>2018-08-10T13:19:53Z</time>
      </trkpt>
      <trkpt lat="44.41654" lon="6.42591">
        <ele>1601.7</ele>
        <time>2018-08-10T13:19:54Z</time>
      </trkpt>
      <trkpt lat="44.41649" lon="6.42596">
        <ele>1601.4</ele>
        <time>2018-08-10T13:19:55Z</time>
      </trkpt>
      <trkpt lat="44.41644" lon="6.42602">
        <ele>1602.6</ele>
        <time>2018-08-10T13:19:56Z</time>
      </trkpt>
      <trkpt lat="44.41639" lon="6.42608">
        <ele>1602.9</ele>
        <time>2018-08-10T13:19:57Z</time>
      </trkpt>
      <trkpt lat="44.41633" lon="6.42615">
        <ele>1602.8</ele>
        <time>2018-08-10T13:19:58Z</time>
      </trkpt>
      <trkpt lat="44.41627" lon="6.42622">
        <ele>1602.5</ele>
        <time>2018-08-10T13:19:59Z</time>
      </trkpt>
      <trkpt lat="44.41623" lon="6.42628">
        <ele>1602.1</ele>
        <time>2018-08-10T13:20:00Z</time>
      </trkpt>
      <trkpt lat="44.41619" lon="6.42634">
        <ele>1601.7</ele>
        <time>2018-08-10T13:20:01Z</time>
      </trkpt>
      <trkpt lat="44.41613" lon="6.4264">
        <ele>1601.4</ele>
        <time>2018-08-10T13:20:02Z</time>
      </trkpt>
      <trkpt lat="44.41606" lon="6.42645">
        <ele>1602</ele>
        <time>2018-08-10T13:20:03Z</time>
      </trkpt>
      <trkpt lat="44.41601" lon="6.42649">
        <ele>1602.4</ele>
        <time>2018-08-10T13:20:04Z</time>
      </trkpt>
      <trkpt lat="44.41595" lon="6.42655">
        <ele>1602.3</ele>
        <time>2018-08-10T13:20:05Z</time>
      </trkpt>
      <trkpt lat="44.41588" lon="6.42659">
        <ele>1602.3</ele>
        <time>2018-08-10T13:20:06Z</time>
      </trkpt>
      <trkpt lat="44.41581" lon="6.42663">
        <ele>1601.2</ele>
        <time>2018-08-10T13:20:07Z</time>
      </trkpt>
      <trkpt lat="44.41574" lon="6.4267">
        <ele>1600</ele>
        <time>2018-08-10T13:20:08Z</time>
      </trkpt>
      <trkpt lat="44.41568" lon="6.42678">
        <ele>1599.2</ele>
        <time>2018-08-10T13:20:09Z</time>
      </trkpt>
      <trkpt lat="44.41563" lon="6.42685">
        <ele>1597.9</ele>
        <time>2018-08-10T13:20:10Z</time>
      </trkpt>
      <trkpt lat="44.41558" lon="6.42693">
        <ele>1597.3</ele>
        <time>2018-08-10T13:20:11Z</time>
      </trkpt>
      <trkpt lat="44.41553" lon="6.427">
        <ele>1596.3</ele>
        <time>2018-08-10T13:20:12Z</time>
      </trkpt>
      <trkpt lat="44.41548" lon="6.42706">
        <ele>1595.1</ele>
        <time>2018-08-10T13:20:13Z</time>
      </trkpt>
      <trkpt lat="44.41542" lon="6.42709">
        <ele>1594.4</ele>
        <time>2018-08-10T13:20:14Z</time>
      </trkpt>
      <trkpt lat="44.41535" lon="6.42712">
        <ele>1593.9</ele>
        <time>2018-08-10T13:20:15Z</time>
      </trkpt>
      <trkpt lat="44.4153" lon="6.42716">
        <ele>1593.5</ele>
        <time>2018-08-10T13:20:16Z</time>
      </trkpt>
      <trkpt lat="44.41529" lon="6.42721">
        <ele>1593.2</ele>
        <time>2018-08-10T13:20:17Z</time>
      </trkpt>
      <trkpt lat="44.41526" lon="6.42726">
        <ele>1592.4</ele>
        <time>2018-08-10T13:20:18Z</time>
      </trkpt>
      <trkpt lat="44.41525" lon="6.4273">
        <ele>1591.7</ele>
        <time>2018-08-10T13:20:19Z</time>
      </trkpt>
      <trkpt lat="44.41525" lon="6.42736">
        <ele>1590.8</ele>
        <time>2018-08-10T13:20:20Z</time>
      </trkpt>
      <trkpt lat="44.41525" lon="6.42741">
        <ele>1590.2</ele>
        <time>2018-08-10T13:20:21Z</time>
      </trkpt>
      <trkpt lat="44.41526" lon="6.42745">
        <ele>1589.5</ele>
        <time>2018-08-10T13:20:22Z</time>
      </trkpt>
      <trkpt lat="44.41529" lon="6.4275">
        <ele>1588.5</ele>
        <time>2018-08-10T13:20:23Z</time>
      </trkpt>
      <trkpt lat="44.41532" lon="6.42753">
        <ele>1588.1</ele>
        <time>2018-08-10T13:20:24Z</time>
      </trkpt>
      <trkpt lat="44.41537" lon="6.42755">
        <ele>1588</ele>
        <time>2018-08-10T13:20:25Z</time>
      </trkpt>
      <trkpt lat="44.41542" lon="6.42756">
        <ele>1588</ele>
        <time>2018-08-10T13:20:26Z</time>
      </trkpt>
      <trkpt lat="44.41547" lon="6.42754">
        <ele>1588.2</ele>
        <time>2018-08-10T13:20:27Z</time>
      </trkpt>
      <trkpt lat="44.41553" lon="6.42752">
        <ele>1588.4</ele>
        <time>2018-08-10T13:20:28Z</time>
      </trkpt>
      <trkpt lat="44.41558" lon="6.4275">
        <ele>1588.4</ele>
        <time>2018-08-10T13:20:29Z</time>
      </trkpt>
      <trkpt lat="44.41562" lon="6.42746">
        <ele>1588.1</ele>
        <time>2018-08-10T13:20:30Z</time>
      </trkpt>
      <trkpt lat="44.41565" lon="6.42745">
        <ele>1587.9</ele>
        <time>2018-08-10T13:20:31Z</time>
      </trkpt>
      <trkpt lat="44.41568" lon="6.42743">
        <ele>1587.8</ele>
        <time>2018-08-10T13:20:33Z</time>
      </trkpt>
      <trkpt lat="44.41571" lon="6.42744">
        <ele>1587.7</ele>
        <time>2018-08-10T13:20:35Z</time>
      </trkpt>
      <trkpt lat="44.41571" lon="6.42748">
        <ele>1587.8</ele>
        <time>2018-08-10T13:20:38Z</time>
      </trkpt>
      <trkpt lat="44.41568" lon="6.4275">
        <ele>1587.8</ele>
        <time>2018-08-10T13:20:40Z</time>
      </trkpt>
      <trkpt lat="44.41567" lon="6.42755">
        <ele>1587.9</ele>
        <time>2018-08-10T13:20:42Z</time>
      </trkpt>
      <trkpt lat="44.41562" lon="6.4276">
        <ele>1588.1</ele>
        <time>2018-08-10T13:20:44Z</time>
      </trkpt>
      <trkpt lat="44.41561" lon="6.42769">
        <ele>1588.5</ele>
        <time>2018-08-10T13:20:46Z</time>
      </trkpt>
      <trkpt lat="44.4156" lon="6.42773">
        <ele>1587</ele>
        <time>2018-08-10T13:20:47Z</time>
      </trkpt>
      <trkpt lat="44.41558" lon="6.42779">
        <ele>1585.9</ele>
        <time>2018-08-10T13:20:48Z</time>
      </trkpt>
      <trkpt lat="44.41557" lon="6.42784">
        <ele>1585.3</ele>
        <time>2018-08-10T13:20:49Z</time>
      </trkpt>
      <trkpt lat="44.41556" lon="6.4279">
        <ele>1584.1</ele>
        <time>2018-08-10T13:20:50Z</time>
      </trkpt>
      <trkpt lat="44.41554" lon="6.42796">
        <ele>1582.1</ele>
        <time>2018-08-10T13:20:51Z</time>
      </trkpt>
      <trkpt lat="44.41551" lon="6.428">
        <ele>1581.1</ele>
        <time>2018-08-10T13:20:53Z</time>
      </trkpt>
      <trkpt lat="44.41548" lon="6.42801">
        <ele>1580.9</ele>
        <time>2018-08-10T13:20:54Z</time>
      </trkpt>
      <trkpt lat="44.41545" lon="6.42804">
        <ele>1580.4</ele>
        <time>2018-08-10T13:20:56Z</time>
      </trkpt>
      <trkpt lat="44.4154" lon="6.42806">
        <ele>1580.6</ele>
        <time>2018-08-10T13:20:58Z</time>
      </trkpt>
      <trkpt lat="44.41537" lon="6.42806">
        <ele>1580.7</ele>
        <time>2018-08-10T13:20:59Z</time>
      </trkpt>
      <trkpt lat="44.41532" lon="6.42808">
        <ele>1580.3</ele>
        <time>2018-08-10T13:21:01Z</time>
      </trkpt>
      <trkpt lat="44.41525" lon="6.42811">
        <ele>1581.2</ele>
        <time>2018-08-10T13:21:03Z</time>
      </trkpt>
      <trkpt lat="44.41522" lon="6.42811">
        <ele>1581.5</ele>
        <time>2018-08-10T13:21:04Z</time>
      </trkpt>
      <trkpt lat="44.41518" lon="6.42809">
        <ele>1581.7</ele>
        <time>2018-08-10T13:21:06Z</time>
      </trkpt>
      <trkpt lat="44.41515" lon="6.42809">
        <ele>1581.9</ele>
        <time>2018-08-10T13:21:07Z</time>
      </trkpt>
      <trkpt lat="44.4151" lon="6.42808">
        <ele>1582.3</ele>
        <time>2018-08-10T13:21:09Z</time>
      </trkpt>
      <trkpt lat="44.41506" lon="6.42809">
        <ele>1582.4</ele>
        <time>2018-08-10T13:21:11Z</time>
      </trkpt>
      <trkpt lat="44.41503" lon="6.42809">
        <ele>1582.6</ele>
        <time>2018-08-10T13:21:12Z</time>
      </trkpt>
      <trkpt lat="44.415" lon="6.4281">
        <ele>1582.7</ele>
        <time>2018-08-10T13:21:13Z</time>
      </trkpt>
      <trkpt lat="44.41496" lon="6.42811">
        <ele>1582.8</ele>
        <time>2018-08-10T13:21:14Z</time>
      </trkpt>
      <trkpt lat="44.41493" lon="6.42813">
        <ele>1582.5</ele>
        <time>2018-08-10T13:21:15Z</time>
      </trkpt>
      <trkpt lat="44.41489" lon="6.42815">
        <ele>1582.5</ele>
        <time>2018-08-10T13:21:16Z</time>
      </trkpt>
      <trkpt lat="44.41484" lon="6.42817">
        <ele>1582.3</ele>
        <time>2018-08-10T13:21:17Z</time>
      </trkpt>
      <trkpt lat="44.4148" lon="6.42819">
        <ele>1582.3</ele>
        <time>2018-08-10T13:21:18Z</time>
      </trkpt>
      <trkpt lat="44.41474" lon="6.42821">
        <ele>1582.1</ele>
        <time>2018-08-10T13:21:19Z</time>
      </trkpt>
      <trkpt lat="44.4147" lon="6.42824">
        <ele>1582.2</ele>
        <time>2018-08-10T13:21:20Z</time>
      </trkpt>
      <trkpt lat="44.41467" lon="6.4283">
        <ele>1581</ele>
        <time>2018-08-10T13:21:21Z</time>
      </trkpt>
      <trkpt lat="44.41464" lon="6.42834">
        <ele>1580.3</ele>
        <time>2018-08-10T13:21:22Z</time>
      </trkpt>
      <trkpt lat="44.41458" lon="6.42839">
        <ele>1579.9</ele>
        <time>2018-08-10T13:21:23Z</time>
      </trkpt>
      <trkpt lat="44.41453" lon="6.42843">
        <ele>1579.2</ele>
        <time>2018-08-10T13:21:24Z</time>
      </trkpt>
      <trkpt lat="44.41449" lon="6.42848">
        <ele>1578.9</ele>
        <time>2018-08-10T13:21:25Z</time>
      </trkpt>
      <trkpt lat="44.41445" lon="6.42852">
        <ele>1578.3</ele>
        <time>2018-08-10T13:21:26Z</time>
      </trkpt>
      <trkpt lat="44.41441" lon="6.42856">
        <ele>1577.8</ele>
        <time>2018-08-10T13:21:27Z</time>
      </trkpt>
      <trkpt lat="44.41438" lon="6.42861">
        <ele>1577.3</ele>
        <time>2018-08-10T13:21:28Z</time>
      </trkpt>
      <trkpt lat="44.41435" lon="6.42864">
        <ele>1576.8</ele>
        <time>2018-08-10T13:21:29Z</time>
      </trkpt>
      <trkpt lat="44.41433" lon="6.42869">
        <ele>1576.3</ele>
        <time>2018-08-10T13:21:30Z</time>
      </trkpt>
      <trkpt lat="44.41428" lon="6.42872">
        <ele>1576.2</ele>
        <time>2018-08-10T13:21:31Z</time>
      </trkpt>
      <trkpt lat="44.41424" lon="6.42876">
        <ele>1576.5</ele>
        <time>2018-08-10T13:21:32Z</time>
      </trkpt>
      <trkpt lat="44.41421" lon="6.42878">
        <ele>1576</ele>
        <time>2018-08-10T13:21:33Z</time>
      </trkpt>
      <trkpt lat="44.41419" lon="6.42882">
        <ele>1575.6</ele>
        <time>2018-08-10T13:21:34Z</time>
      </trkpt>
      <trkpt lat="44.41416" lon="6.42886">
        <ele>1575.1</ele>
        <time>2018-08-10T13:21:35Z</time>
      </trkpt>
      <trkpt lat="44.41412" lon="6.42891">
        <ele>1574.5</ele>
        <time>2018-08-10T13:21:36Z</time>
      </trkpt>
      <trkpt lat="44.41408" lon="6.42896">
        <ele>1573.8</ele>
        <time>2018-08-10T13:21:37Z</time>
      </trkpt>
      <trkpt lat="44.41404" lon="6.42902">
        <ele>1572.6</ele>
        <time>2018-08-10T13:21:38Z</time>
      </trkpt>
      <trkpt lat="44.41399" lon="6.42908">
        <ele>1571.9</ele>
        <time>2018-08-10T13:21:39Z</time>
      </trkpt>
      <trkpt lat="44.41394" lon="6.42913">
        <ele>1571.6</ele>
        <time>2018-08-10T13:21:40Z</time>
      </trkpt>
      <trkpt lat="44.4139" lon="6.42919">
        <ele>1570</ele>
        <time>2018-08-10T13:21:41Z</time>
      </trkpt>
      <trkpt lat="44.41385" lon="6.42926">
        <ele>1569.7</ele>
        <time>2018-08-10T13:21:42Z</time>
      </trkpt>
      <trkpt lat="44.41381" lon="6.42932">
        <ele>1567.7</ele>
        <time>2018-08-10T13:21:43Z</time>
      </trkpt>
      <trkpt lat="44.41375" lon="6.42939">
        <ele>1567.1</ele>
        <time>2018-08-10T13:21:44Z</time>
      </trkpt>
      <trkpt lat="44.4137" lon="6.42948">
        <ele>1565.4</ele>
        <time>2018-08-10T13:21:45Z</time>
      </trkpt>
      <trkpt lat="44.41365" lon="6.42956">
        <ele>1563.4</ele>
        <time>2018-08-10T13:21:46Z</time>
      </trkpt>
      <trkpt lat="44.4136" lon="6.42964">
        <ele>1561.8</ele>
        <time>2018-08-10T13:21:47Z</time>
      </trkpt>
      <trkpt lat="44.41357" lon="6.42974">
        <ele>1559.5</ele>
        <time>2018-08-10T13:21:48Z</time>
      </trkpt>
      <trkpt lat="44.41353" lon="6.42982">
        <ele>1557.2</ele>
        <time>2018-08-10T13:21:49Z</time>
      </trkpt>
      <trkpt lat="44.41347" lon="6.42989">
        <ele>1555.3</ele>
        <time>2018-08-10T13:21:50Z</time>
      </trkpt>
      <trkpt lat="44.41345" lon="6.42996">
        <ele>1554.3</ele>
        <time>2018-08-10T13:21:51Z</time>
      </trkpt>
      <trkpt lat="44.41342" lon="6.43002">
        <ele>1552.5</ele>
        <time>2018-08-10T13:21:52Z</time>
      </trkpt>
      <trkpt lat="44.41338" lon="6.43007">
        <ele>1551.6</ele>
        <time>2018-08-10T13:21:53Z</time>
      </trkpt>
      <trkpt lat="44.41335" lon="6.43014">
        <ele>1549.7</ele>
        <time>2018-08-10T13:21:54Z</time>
      </trkpt>
      <trkpt lat="44.41335" lon="6.4302">
        <ele>1548.4</ele>
        <time>2018-08-10T13:21:55Z</time>
      </trkpt>
      <trkpt lat="44.41339" lon="6.43025">
        <ele>1546.9</ele>
        <time>2018-08-10T13:21:56Z</time>
      </trkpt>
      <trkpt lat="44.41343" lon="6.43027">
        <ele>1545.3</ele>
        <time>2018-08-10T13:21:58Z</time>
      </trkpt>
      <trkpt lat="44.41345" lon="6.4303">
        <ele>1545.1</ele>
        <time>2018-08-10T13:22:00Z</time>
      </trkpt>
      <trkpt lat="44.41342" lon="6.43033">
        <ele>1544.1</ele>
        <time>2018-08-10T13:22:02Z</time>
      </trkpt>
      <trkpt lat="44.41339" lon="6.43036">
        <ele>1543.2</ele>
        <time>2018-08-10T13:22:03Z</time>
      </trkpt>
      <trkpt lat="44.41336" lon="6.43041">
        <ele>1542.3</ele>
        <time>2018-08-10T13:22:04Z</time>
      </trkpt>
      <trkpt lat="44.41333" lon="6.43044">
        <ele>1542.3</ele>
        <time>2018-08-10T13:22:05Z</time>
      </trkpt>
      <trkpt lat="44.41329" lon="6.43046">
        <ele>1541.5</ele>
        <time>2018-08-10T13:22:06Z</time>
      </trkpt>
      <trkpt lat="44.41325" lon="6.4305">
        <ele>1540.7</ele>
        <time>2018-08-10T13:22:07Z</time>
      </trkpt>
      <trkpt lat="44.41322" lon="6.43054">
        <ele>1539.8</ele>
        <time>2018-08-10T13:22:08Z</time>
      </trkpt>
      <trkpt lat="44.41319" lon="6.43056">
        <ele>1539.8</ele>
        <time>2018-08-10T13:22:09Z</time>
      </trkpt>
      <trkpt lat="44.41314" lon="6.43058">
        <ele>1539</ele>
        <time>2018-08-10T13:22:11Z</time>
      </trkpt>
      <trkpt lat="44.41311" lon="6.43058">
        <ele>1538.9</ele>
        <time>2018-08-10T13:22:14Z</time>
      </trkpt>
      <trkpt lat="44.41308" lon="6.43059">
        <ele>1538.9</ele>
        <time>2018-08-10T13:22:26Z</time>
      </trkpt>
      <trkpt lat="44.41305" lon="6.43057">
        <ele>1538.9</ele>
        <time>2018-08-10T13:22:30Z</time>
      </trkpt>
      <trkpt lat="44.41303" lon="6.43062">
        <ele>1537.7</ele>
        <time>2018-08-10T13:22:33Z</time>
      </trkpt>
      <trkpt lat="44.41303" lon="6.43066">
        <ele>1536.7</ele>
        <time>2018-08-10T13:22:34Z</time>
      </trkpt>
      <trkpt lat="44.41303" lon="6.4307">
        <ele>1535.5</ele>
        <time>2018-08-10T13:22:35Z</time>
      </trkpt>
      <trkpt lat="44.41301" lon="6.43074">
        <ele>1534.3</ele>
        <time>2018-08-10T13:22:37Z</time>
      </trkpt>
      <trkpt lat="44.41303" lon="6.43081">
        <ele>1533.1</ele>
        <time>2018-08-10T13:22:39Z</time>
      </trkpt>
      <trkpt lat="44.41303" lon="6.43085">
        <ele>1531.7</ele>
        <time>2018-08-10T13:22:40Z</time>
      </trkpt>
      <trkpt lat="44.41303" lon="6.4309">
        <ele>1530.5</ele>
        <time>2018-08-10T13:22:41Z</time>
      </trkpt>
      <trkpt lat="44.41304" lon="6.43095">
        <ele>1529.4</ele>
        <time>2018-08-10T13:22:42Z</time>
      </trkpt>
      <trkpt lat="44.41305" lon="6.431">
        <ele>1527</ele>
        <time>2018-08-10T13:22:43Z</time>
      </trkpt>
      <trkpt lat="44.41307" lon="6.43104">
        <ele>1525.5</ele>
        <time>2018-08-10T13:22:46Z</time>
      </trkpt>
      <trkpt lat="44.41304" lon="6.43105">
        <ele>1525.4</ele>
        <time>2018-08-10T13:22:49Z</time>
      </trkpt>
      <trkpt lat="44.41302" lon="6.43103">
        <ele>1526.5</ele>
        <time>2018-08-10T13:22:52Z</time>
      </trkpt>
      <trkpt lat="44.413" lon="6.43105">
        <ele>1525.3</ele>
        <time>2018-08-10T13:22:57Z</time>
      </trkpt>
      <trkpt lat="44.41301" lon="6.43109">
        <ele>1523.6</ele>
        <time>2018-08-10T13:23:05Z</time>
      </trkpt>
      <trkpt lat="44.413" lon="6.43113">
        <ele>1522</ele>
        <time>2018-08-10T13:23:09Z</time>
      </trkpt>
      <trkpt lat="44.41298" lon="6.43116">
        <ele>1521.9</ele>
        <time>2018-08-10T13:23:19Z</time>
      </trkpt>
      <trkpt lat="44.41295" lon="6.43117">
        <ele>1520.4</ele>
        <time>2018-08-10T13:23:23Z</time>
      </trkpt>
      <trkpt lat="44.41293" lon="6.43121">
        <ele>1520.3</ele>
        <time>2018-08-10T13:23:25Z</time>
      </trkpt>
      <trkpt lat="44.41296" lon="6.43124">
        <ele>1518.6</ele>
        <time>2018-08-10T13:23:27Z</time>
      </trkpt>
      <trkpt lat="44.41299" lon="6.43128">
        <ele>1516.9</ele>
        <time>2018-08-10T13:23:30Z</time>
      </trkpt>
      <trkpt lat="44.413" lon="6.43132">
        <ele>1515.2</ele>
        <time>2018-08-10T13:23:33Z</time>
      </trkpt>
      <trkpt lat="44.41302" lon="6.43137">
        <ele>1513.6</ele>
        <time>2018-08-10T13:23:35Z</time>
      </trkpt>
      <trkpt lat="44.41303" lon="6.43143">
        <ele>1510.4</ele>
        <time>2018-08-10T13:23:37Z</time>
      </trkpt>
      <trkpt lat="44.41304" lon="6.43147">
        <ele>1508.5</ele>
        <time>2018-08-10T13:23:40Z</time>
      </trkpt>
      <trkpt lat="44.41307" lon="6.43153">
        <ele>1506.6</ele>
        <time>2018-08-10T13:23:43Z</time>
      </trkpt>
      <trkpt lat="44.41309" lon="6.43158">
        <ele>1504.6</ele>
        <time>2018-08-10T13:23:45Z</time>
      </trkpt>
      <trkpt lat="44.41312" lon="6.43163">
        <ele>1502.6</ele>
        <time>2018-08-10T13:23:47Z</time>
      </trkpt>
      <trkpt lat="44.41315" lon="6.43169">
        <ele>1498.9</ele>
        <time>2018-08-10T13:23:49Z</time>
      </trkpt>
      <trkpt lat="44.41319" lon="6.43174">
        <ele>1497.1</ele>
        <time>2018-08-10T13:23:51Z</time>
      </trkpt>
      <trkpt lat="44.41322" lon="6.4318">
        <ele>1495.4</ele>
        <time>2018-08-10T13:23:53Z</time>
      </trkpt>
      <trkpt lat="44.41324" lon="6.43183">
        <ele>1493.7</ele>
        <time>2018-08-10T13:23:54Z</time>
      </trkpt>
      <trkpt lat="44.41326" lon="6.43188">
        <ele>1492</ele>
        <time>2018-08-10T13:23:55Z</time>
      </trkpt>
      <trkpt lat="44.41328" lon="6.43192">
        <ele>1490.2</ele>
        <time>2018-08-10T13:23:56Z</time>
      </trkpt>
      <trkpt lat="44.41331" lon="6.43194">
        <ele>1488.2</ele>
        <time>2018-08-10T13:23:57Z</time>
      </trkpt>
      <trkpt lat="44.41333" lon="6.43198">
        <ele>1486.2</ele>
        <time>2018-08-10T13:23:58Z</time>
      </trkpt>
      <trkpt lat="44.41336" lon="6.432">
        <ele>1486</ele>
        <time>2018-08-10T13:23:59Z</time>
      </trkpt>
      <trkpt lat="44.4134" lon="6.43203">
        <ele>1483.9</ele>
        <time>2018-08-10T13:24:01Z</time>
      </trkpt>
      <trkpt lat="44.41345" lon="6.43205">
        <ele>1483.6</ele>
        <time>2018-08-10T13:24:03Z</time>
      </trkpt>
      <trkpt lat="44.41348" lon="6.43208">
        <ele>1481.4</ele>
        <time>2018-08-10T13:24:05Z</time>
      </trkpt>
      <trkpt lat="44.41351" lon="6.4321">
        <ele>1481</ele>
        <time>2018-08-10T13:24:06Z</time>
      </trkpt>
      <trkpt lat="44.41354" lon="6.43213">
        <ele>1478.8</ele>
        <time>2018-08-10T13:24:07Z</time>
      </trkpt>
      <trkpt lat="44.41357" lon="6.43218">
        <ele>1476.5</ele>
        <time>2018-08-10T13:24:09Z</time>
      </trkpt>
      <trkpt lat="44.4136" lon="6.43221">
        <ele>1474.3</ele>
        <time>2018-08-10T13:24:11Z</time>
      </trkpt>
      <trkpt lat="44.41364" lon="6.43221">
        <ele>1473.8</ele>
        <time>2018-08-10T13:24:12Z</time>
      </trkpt>
      <trkpt lat="44.41367" lon="6.43221">
        <ele>1473</ele>
        <time>2018-08-10T13:24:13Z</time>
      </trkpt>
      <trkpt lat="44.41369" lon="6.43224">
        <ele>1471</ele>
        <time>2018-08-10T13:24:16Z</time>
      </trkpt>
      <trkpt lat="44.41369" lon="6.43228">
        <ele>1469.2</ele>
        <time>2018-08-10T13:24:17Z</time>
      </trkpt>
      <trkpt lat="44.41368" lon="6.43233">
        <ele>1467.3</ele>
        <time>2018-08-10T13:24:20Z</time>
      </trkpt>
      <trkpt lat="44.41365" lon="6.43238">
        <ele>1465.6</ele>
        <time>2018-08-10T13:24:23Z</time>
      </trkpt>
      <trkpt lat="44.41364" lon="6.43244">
        <ele>1463.7</ele>
        <time>2018-08-10T13:24:24Z</time>
      </trkpt>
      <trkpt lat="44.41363" lon="6.43249">
        <ele>1461.5</ele>
        <time>2018-08-10T13:24:25Z</time>
      </trkpt>
      <trkpt lat="44.4136" lon="6.43254">
        <ele>1457.3</ele>
        <time>2018-08-10T13:24:27Z</time>
      </trkpt>
      <trkpt lat="44.41356" lon="6.43255">
        <ele>1457.2</ele>
        <time>2018-08-10T13:24:29Z</time>
      </trkpt>
      <trkpt lat="44.41352" lon="6.43255">
        <ele>1457</ele>
        <time>2018-08-10T13:24:31Z</time>
      </trkpt>
      <trkpt lat="44.41349" lon="6.43258">
        <ele>1456.7</ele>
        <time>2018-08-10T13:24:33Z</time>
      </trkpt>
      <trkpt lat="44.41347" lon="6.4326">
        <ele>1454.4</ele>
        <time>2018-08-10T13:24:35Z</time>
      </trkpt>
      <trkpt lat="44.41344" lon="6.43259">
        <ele>1454.1</ele>
        <time>2018-08-10T13:24:37Z</time>
      </trkpt>
      <trkpt lat="44.4134" lon="6.43254">
        <ele>1455.8</ele>
        <time>2018-08-10T13:24:38Z</time>
      </trkpt>
      <trkpt lat="44.41337" lon="6.43252">
        <ele>1457.6</ele>
        <time>2018-08-10T13:24:39Z</time>
      </trkpt>
      <trkpt lat="44.41334" lon="6.43255">
        <ele>1455.2</ele>
        <time>2018-08-10T13:24:47Z</time>
      </trkpt>
      <trkpt lat="44.41331" lon="6.43255">
        <ele>1454.7</ele>
        <time>2018-08-10T13:25:04Z</time>
      </trkpt>
      <trkpt lat="44.41328" lon="6.43253">
        <ele>1456.6</ele>
        <time>2018-08-10T13:25:33Z</time>
      </trkpt>
      <trkpt lat="44.41325" lon="6.43253">
        <ele>1456.1</ele>
        <time>2018-08-10T13:26:19Z</time>
      </trkpt>
      <trkpt lat="44.41323" lon="6.43255">
        <ele>1453.3</ele>
        <time>2018-08-10T13:26:26Z</time>
      </trkpt>
      <trkpt lat="44.4132" lon="6.43255">
        <ele>1452.8</ele>
        <time>2018-08-10T13:26:27Z</time>
      </trkpt>
      <trkpt lat="44.41317" lon="6.43255">
        <ele>1452.2</ele>
        <time>2018-08-10T13:26:28Z</time>
      </trkpt>
      <trkpt lat="44.41312" lon="6.43256">
        <ele>1451.3</ele>
        <time>2018-08-10T13:26:30Z</time>
      </trkpt>
      <trkpt lat="44.41307" lon="6.43255">
        <ele>1450.6</ele>
        <time>2018-08-10T13:26:32Z</time>
      </trkpt>
      <trkpt lat="44.41303" lon="6.43256">
        <ele>1449.9</ele>
        <time>2018-08-10T13:26:34Z</time>
      </trkpt>
      <trkpt lat="44.413" lon="6.43257">
        <ele>1449.2</ele>
        <time>2018-08-10T13:26:37Z</time>
      </trkpt>
      <trkpt lat="44.41297" lon="6.43259">
        <ele>1446</ele>
        <time>2018-08-10T13:26:42Z</time>
      </trkpt>
      <trkpt lat="44.41294" lon="6.43259">
        <ele>1445.4</ele>
        <time>2018-08-10T13:26:43Z</time>
      </trkpt>
      <trkpt lat="44.41292" lon="6.43258">
        <ele>1447.2</ele>
        <time>2018-08-10T13:26:44Z</time>
      </trkpt>
      <trkpt lat="44.41289" lon="6.43257">
        <ele>1446.5</ele>
        <time>2018-08-10T13:26:45Z</time>
      </trkpt>
      <trkpt lat="44.41286" lon="6.43254">
        <ele>1445.8</ele>
        <time>2018-08-10T13:26:46Z</time>
      </trkpt>
      <trkpt lat="44.41282" lon="6.43253">
        <ele>1447.6</ele>
        <time>2018-08-10T13:26:55Z</time>
      </trkpt>
      <trkpt lat="44.41279" lon="6.43254">
        <ele>1444.2</ele>
        <time>2018-08-10T13:26:57Z</time>
      </trkpt>
      <trkpt lat="44.41277" lon="6.4325">
        <ele>1446</ele>
        <time>2018-08-10T13:26:59Z</time>
      </trkpt>
      <trkpt lat="44.41273" lon="6.43252">
        <ele>1445.2</ele>
        <time>2018-08-10T13:27:02Z</time>
      </trkpt>
      <trkpt lat="44.4127" lon="6.43249">
        <ele>1447</ele>
        <time>2018-08-10T13:27:06Z</time>
      </trkpt>
      <trkpt lat="44.41268" lon="6.43244">
        <ele>1448.8</ele>
        <time>2018-08-10T13:27:08Z</time>
      </trkpt>
      <trkpt lat="44.41266" lon="6.43241">
        <ele>1448.1</ele>
        <time>2018-08-10T13:27:10Z</time>
      </trkpt>
      <trkpt lat="44.41263" lon="6.4324">
        <ele>1449.7</ele>
        <time>2018-08-10T13:27:13Z</time>
      </trkpt>
      <trkpt lat="44.4126" lon="6.43238">
        <ele>1448.9</ele>
        <time>2018-08-10T13:27:15Z</time>
      </trkpt>
      <trkpt lat="44.41256" lon="6.43237">
        <ele>1450.5</ele>
        <time>2018-08-10T13:27:21Z</time>
      </trkpt>
      <trkpt lat="44.41255" lon="6.43232">
        <ele>1452.5</ele>
        <time>2018-08-10T13:27:23Z</time>
      </trkpt>
      <trkpt lat="44.41254" lon="6.43228">
        <ele>1454.5</ele>
        <time>2018-08-10T13:27:25Z</time>
      </trkpt>
      <trkpt lat="44.41251" lon="6.43228">
        <ele>1453</ele>
        <time>2018-08-10T13:27:29Z</time>
      </trkpt>
      <trkpt lat="44.41247" lon="6.43228">
        <ele>1452.1</ele>
        <time>2018-08-10T13:27:31Z</time>
      </trkpt>
      <trkpt lat="44.41244" lon="6.4323">
        <ele>1449</ele>
        <time>2018-08-10T13:27:34Z</time>
      </trkpt>
      <trkpt lat="44.41239" lon="6.4323">
        <ele>1447.5</ele>
        <time>2018-08-10T13:27:36Z</time>
      </trkpt>
      <trkpt lat="44.41233" lon="6.43228">
        <ele>1446.7</ele>
        <time>2018-08-10T13:27:38Z</time>
      </trkpt>
      <trkpt lat="44.41229" lon="6.43228">
        <ele>1447.4</ele>
        <time>2018-08-10T13:27:40Z</time>
      </trkpt>
      <trkpt lat="44.41224" lon="6.43227">
        <ele>1446.5</ele>
        <time>2018-08-10T13:27:43Z</time>
      </trkpt>
      <trkpt lat="44.41221" lon="6.43227">
        <ele>1445.5</ele>
        <time>2018-08-10T13:27:44Z</time>
      </trkpt>
      <trkpt lat="44.41218" lon="6.43225">
        <ele>1444.5</ele>
        <time>2018-08-10T13:27:45Z</time>
      </trkpt>
      <trkpt lat="44.41215" lon="6.43224">
        <ele>1443.5</ele>
        <time>2018-08-10T13:27:48Z</time>
      </trkpt>
      <trkpt lat="44.41213" lon="6.43221">
        <ele>1444.8</ele>
        <time>2018-08-10T13:27:52Z</time>
      </trkpt>
      <trkpt lat="44.4121" lon="6.43223">
        <ele>1443.9</ele>
        <time>2018-08-10T13:27:55Z</time>
      </trkpt>
      <trkpt lat="44.41208" lon="6.43224">
        <ele>1443</ele>
        <time>2018-08-10T13:28:00Z</time>
      </trkpt>
      <trkpt lat="44.41204" lon="6.43224">
        <ele>1442</ele>
        <time>2018-08-10T13:28:01Z</time>
      </trkpt>
      <trkpt lat="44.412" lon="6.43224">
        <ele>1441</ele>
        <time>2018-08-10T13:28:03Z</time>
      </trkpt>
      <trkpt lat="44.41196" lon="6.43224">
        <ele>1438.8</ele>
        <time>2018-08-10T13:28:05Z</time>
      </trkpt>
      <trkpt lat="44.41193" lon="6.43224">
        <ele>1436.3</ele>
        <time>2018-08-10T13:28:07Z</time>
      </trkpt>
      <trkpt lat="44.41188" lon="6.43225">
        <ele>1434.1</ele>
        <time>2018-08-10T13:28:09Z</time>
      </trkpt>
      <trkpt lat="44.41184" lon="6.43226">
        <ele>1433</ele>
        <time>2018-08-10T13:28:13Z</time>
      </trkpt>
      <trkpt lat="44.41181" lon="6.43225">
        <ele>1431.9</ele>
        <time>2018-08-10T13:28:20Z</time>
      </trkpt>
      <trkpt lat="44.41177" lon="6.43224">
        <ele>1431.8</ele>
        <time>2018-08-10T13:28:23Z</time>
      </trkpt>
      <trkpt lat="44.41175" lon="6.43226">
        <ele>1429.4</ele>
        <time>2018-08-10T13:28:27Z</time>
      </trkpt>
      <trkpt lat="44.41172" lon="6.43229">
        <ele>1426</ele>
        <time>2018-08-10T13:28:30Z</time>
      </trkpt>
      <trkpt lat="44.4117" lon="6.43232">
        <ele>1424.6</ele>
        <time>2018-08-10T13:28:31Z</time>
      </trkpt>
      <trkpt lat="44.41166" lon="6.43234">
        <ele>1421.2</ele>
        <time>2018-08-10T13:28:33Z</time>
      </trkpt>
      <trkpt lat="44.41163" lon="6.43234">
        <ele>1419.8</ele>
        <time>2018-08-10T13:28:35Z</time>
      </trkpt>
      <trkpt lat="44.4116" lon="6.43233">
        <ele>1418.4</ele>
        <time>2018-08-10T13:28:40Z</time>
      </trkpt>
      <trkpt lat="44.41156" lon="6.43232">
        <ele>1418</ele>
        <time>2018-08-10T13:28:42Z</time>
      </trkpt>
      <trkpt lat="44.41151" lon="6.43232">
        <ele>1416.7</ele>
        <time>2018-08-10T13:28:44Z</time>
      </trkpt>
      <trkpt lat="44.41147" lon="6.43228">
        <ele>1415.5</ele>
        <time>2018-08-10T13:28:46Z</time>
      </trkpt>
      <trkpt lat="44.41144" lon="6.43228">
        <ele>1416.2</ele>
        <time>2018-08-10T13:28:50Z</time>
      </trkpt>
      <trkpt lat="44.41141" lon="6.43227">
        <ele>1414.9</ele>
        <time>2018-08-10T13:28:52Z</time>
      </trkpt>
      <trkpt lat="44.41138" lon="6.43226">
        <ele>1413.5</ele>
        <time>2018-08-10T13:28:54Z</time>
      </trkpt>
      <trkpt lat="44.41135" lon="6.43224">
        <ele>1412.2</ele>
        <time>2018-08-10T13:28:58Z</time>
      </trkpt>
      <trkpt lat="44.41133" lon="6.43223">
        <ele>1412.6</ele>
        <time>2018-08-10T13:29:01Z</time>
      </trkpt>
      <trkpt lat="44.41131" lon="6.43225">
        <ele>1409.5</ele>
        <time>2018-08-10T13:29:04Z</time>
      </trkpt>
      <trkpt lat="44.41127" lon="6.43228">
        <ele>1408.2</ele>
        <time>2018-08-10T13:29:06Z</time>
      </trkpt>
      <trkpt lat="44.41124" lon="6.43226">
        <ele>1406.9</ele>
        <time>2018-08-10T13:29:07Z</time>
      </trkpt>
      <trkpt lat="44.4112" lon="6.43226">
        <ele>1405.7</ele>
        <time>2018-08-10T13:29:10Z</time>
      </trkpt>
      <trkpt lat="44.41117" lon="6.43224">
        <ele>1404.4</ele>
        <time>2018-08-10T13:29:13Z</time>
      </trkpt>
      <trkpt lat="44.41114" lon="6.43225">
        <ele>1403</ele>
        <time>2018-08-10T13:29:17Z</time>
      </trkpt>
      <trkpt lat="44.41111" lon="6.43225">
        <ele>1401.5</ele>
        <time>2018-08-10T13:29:20Z</time>
      </trkpt>
      <trkpt lat="44.41109" lon="6.43224">
        <ele>1400.1</ele>
        <time>2018-08-10T13:29:23Z</time>
      </trkpt>
      <trkpt lat="44.41106" lon="6.43224">
        <ele>1398.6</ele>
        <time>2018-08-10T13:29:27Z</time>
      </trkpt>
      <trkpt lat="44.41102" lon="6.43225">
        <ele>1397.2</ele>
        <time>2018-08-10T13:29:30Z</time>
      </trkpt>
      <trkpt lat="44.411" lon="6.43225">
        <ele>1395.9</ele>
        <time>2018-08-10T13:29:32Z</time>
      </trkpt>
      <trkpt lat="44.41097" lon="6.43228">
        <ele>1394.7</ele>
        <time>2018-08-10T13:29:34Z</time>
      </trkpt>
      <trkpt lat="44.41092" lon="6.43229">
        <ele>1391.9</ele>
        <time>2018-08-10T13:29:36Z</time>
      </trkpt>
      <trkpt lat="44.41087" lon="6.43227">
        <ele>1391.2</ele>
        <time>2018-08-10T13:29:41Z</time>
      </trkpt>
      <trkpt lat="44.41083" lon="6.43226">
        <ele>1389.8</ele>
        <time>2018-08-10T13:29:43Z</time>
      </trkpt>
      <trkpt lat="44.4108" lon="6.43228">
        <ele>1388.6</ele>
        <time>2018-08-10T13:29:46Z</time>
      </trkpt>
      <trkpt lat="44.41076" lon="6.43231">
        <ele>1384.9</ele>
        <time>2018-08-10T13:29:48Z</time>
      </trkpt>
      <trkpt lat="44.41072" lon="6.43231">
        <ele>1383.8</ele>
        <time>2018-08-10T13:29:51Z</time>
      </trkpt>
      <trkpt lat="44.41071" lon="6.43235">
        <ele>1382</ele>
        <time>2018-08-10T13:30:01Z</time>
      </trkpt>
      <trkpt lat="44.41068" lon="6.43234">
        <ele>1381</ele>
        <time>2018-08-10T13:30:04Z</time>
      </trkpt>
      <trkpt lat="44.41065" lon="6.43236">
        <ele>1380.1</ele>
        <time>2018-08-10T13:30:09Z</time>
      </trkpt>
      <trkpt lat="44.41064" lon="6.43239">
        <ele>1377.5</ele>
        <time>2018-08-10T13:30:14Z</time>
      </trkpt>
      <trkpt lat="44.41062" lon="6.43244">
        <ele>1375.7</ele>
        <time>2018-08-10T13:30:17Z</time>
      </trkpt>
      <trkpt lat="44.41059" lon="6.43244">
        <ele>1374.7</ele>
        <time>2018-08-10T13:30:23Z</time>
      </trkpt>
      <trkpt lat="44.41055" lon="6.43244">
        <ele>1373.8</ele>
        <time>2018-08-10T13:30:26Z</time>
      </trkpt>
      <trkpt lat="44.41056" lon="6.43248">
        <ele>1372</ele>
        <time>2018-08-10T13:30:38Z</time>
      </trkpt>
      <trkpt lat="44.41052" lon="6.43245">
        <ele>1371.1</ele>
        <time>2018-08-10T13:34:13Z</time>
      </trkpt>
      <trkpt lat="44.41051" lon="6.43242">
        <ele>1371.9</ele>
        <time>2018-08-10T13:34:15Z</time>
      </trkpt>
      <trkpt lat="44.41052" lon="6.43237">
        <ele>1373.8</ele>
        <time>2018-08-10T13:34:19Z</time>
      </trkpt>
      <trkpt lat="44.41052" lon="6.43233">
        <ele>1375.1</ele>
        <time>2018-08-10T13:34:24Z</time>
      </trkpt>
      <trkpt lat="44.41049" lon="6.4323">
        <ele>1375.6</ele>
        <time>2018-08-10T13:34:29Z</time>
      </trkpt>
      <trkpt lat="44.41049" lon="6.43225">
        <ele>1376.2</ele>
        <time>2018-08-10T13:34:31Z</time>
      </trkpt>
      <trkpt lat="44.41049" lon="6.4322">
        <ele>1378.1</ele>
        <time>2018-08-10T13:34:33Z</time>
      </trkpt>
      <trkpt lat="44.41049" lon="6.43216">
        <ele>1379.3</ele>
        <time>2018-08-10T13:34:44Z</time>
      </trkpt>
      <trkpt lat="44.41047" lon="6.4321">
        <ele>1381.3</ele>
        <time>2018-08-10T13:34:48Z</time>
      </trkpt>
      <trkpt lat="44.41045" lon="6.43207">
        <ele>1380.5</ele>
        <time>2018-08-10T13:34:53Z</time>
      </trkpt>
      <trkpt lat="44.41044" lon="6.43202">
        <ele>1383.2</ele>
        <time>2018-08-10T13:35:01Z</time>
      </trkpt>
      <trkpt lat="44.41041" lon="6.43198">
        <ele>1382.3</ele>
        <time>2018-08-10T13:35:04Z</time>
      </trkpt>
      <trkpt lat="44.41041" lon="6.43203">
        <ele>1380.6</ele>
        <time>2018-08-10T13:35:08Z</time>
      </trkpt>
      <trkpt lat="44.41039" lon="6.43209">
        <ele>1378.4</ele>
        <time>2018-08-10T13:35:10Z</time>
      </trkpt>
      <trkpt lat="44.41035" lon="6.43215">
        <ele>1374.8</ele>
        <time>2018-08-10T13:35:12Z</time>
      </trkpt>
      <trkpt lat="44.41032" lon="6.43219">
        <ele>1374.1</ele>
        <time>2018-08-10T13:35:13Z</time>
      </trkpt>
      <trkpt lat="44.41031" lon="6.43225">
        <ele>1371.2</ele>
        <time>2018-08-10T13:35:15Z</time>
      </trkpt>
      <trkpt lat="44.41029" lon="6.43231">
        <ele>1369.2</ele>
        <time>2018-08-10T13:35:17Z</time>
      </trkpt>
      <trkpt lat="44.41026" lon="6.43234">
        <ele>1367.3</ele>
        <time>2018-08-10T13:35:18Z</time>
      </trkpt>
      <trkpt lat="44.41023" lon="6.43236">
        <ele>1366.5</ele>
        <time>2018-08-10T13:36:01Z</time>
      </trkpt>
      <trkpt lat="44.41022" lon="6.43241">
        <ele>1365</ele>
        <time>2018-08-10T13:36:03Z</time>
      </trkpt>
      <trkpt lat="44.41019" lon="6.43246">
        <ele>1361.7</ele>
        <time>2018-08-10T13:36:05Z</time>
      </trkpt>
      <trkpt lat="44.41016" lon="6.43252">
        <ele>1359.8</ele>
        <time>2018-08-10T13:36:07Z</time>
      </trkpt>
      <trkpt lat="44.41014" lon="6.43255">
        <ele>1358</ele>
        <time>2018-08-10T13:36:08Z</time>
      </trkpt>
      <trkpt lat="44.41014" lon="6.4326">
        <ele>1356.5</ele>
        <time>2018-08-10T13:36:09Z</time>
      </trkpt>
      <trkpt lat="44.41013" lon="6.43264">
        <ele>1355.1</ele>
        <time>2018-08-10T13:36:10Z</time>
      </trkpt>
      <trkpt lat="44.41012" lon="6.43269">
        <ele>1353.6</ele>
        <time>2018-08-10T13:36:11Z</time>
      </trkpt>
      <trkpt lat="44.41011" lon="6.43275">
        <ele>1352.3</ele>
        <time>2018-08-10T13:36:12Z</time>
      </trkpt>
      <trkpt lat="44.41012" lon="6.43281">
        <ele>1349.7</ele>
        <time>2018-08-10T13:36:13Z</time>
      </trkpt>
      <trkpt lat="44.41011" lon="6.43286">
        <ele>1348.3</ele>
        <time>2018-08-10T13:36:14Z</time>
      </trkpt>
      <trkpt lat="44.41011" lon="6.43291">
        <ele>1346.9</ele>
        <time>2018-08-10T13:36:15Z</time>
      </trkpt>
      <trkpt lat="44.41009" lon="6.43294">
        <ele>1345.5</ele>
        <time>2018-08-10T13:36:16Z</time>
      </trkpt>
      <trkpt lat="44.41007" lon="6.43298">
        <ele>1344.1</ele>
        <time>2018-08-10T13:36:17Z</time>
      </trkpt>
      <trkpt lat="44.41007" lon="6.43302">
        <ele>1342.7</ele>
        <time>2018-08-10T13:36:18Z</time>
      </trkpt>
      <trkpt lat="44.41006" lon="6.43306">
        <ele>1341.5</ele>
        <time>2018-08-10T13:36:20Z</time>
      </trkpt>
      <trkpt lat="44.41004" lon="6.4331">
        <ele>1340.1</ele>
        <time>2018-08-10T13:36:21Z</time>
      </trkpt>
      <trkpt lat="44.41004" lon="6.43315">
        <ele>1338.8</ele>
        <time>2018-08-10T13:36:22Z</time>
      </trkpt>
      <trkpt lat="44.41005" lon="6.4332">
        <ele>1337.6</ele>
        <time>2018-08-10T13:36:23Z</time>
      </trkpt>
      <trkpt lat="44.41006" lon="6.43324">
        <ele>1336.2</ele>
        <time>2018-08-10T13:36:24Z</time>
      </trkpt>
      <trkpt lat="44.41008" lon="6.43328">
        <ele>1334.8</ele>
        <time>2018-08-10T13:36:25Z</time>
      </trkpt>
      <trkpt lat="44.41009" lon="6.43334">
        <ele>1333.5</ele>
        <time>2018-08-10T13:36:26Z</time>
      </trkpt>
      <trkpt lat="44.41008" lon="6.43338">
        <ele>1332</ele>
        <time>2018-08-10T13:36:27Z</time>
      </trkpt>
      <trkpt lat="44.41009" lon="6.43345">
        <ele>1329.4</ele>
        <time>2018-08-10T13:36:28Z</time>
      </trkpt>
      <trkpt lat="44.4101" lon="6.43348">
        <ele>1328.1</ele>
        <time>2018-08-10T13:36:29Z</time>
      </trkpt>
      <trkpt lat="44.4101" lon="6.43352">
        <ele>1327.9</ele>
        <time>2018-08-10T13:36:30Z</time>
      </trkpt>
      <trkpt lat="44.41011" lon="6.43358">
        <ele>1325.7</ele>
        <time>2018-08-10T13:36:31Z</time>
      </trkpt>
      <trkpt lat="44.4101" lon="6.43364">
        <ele>1324.5</ele>
        <time>2018-08-10T13:36:32Z</time>
      </trkpt>
      <trkpt lat="44.41012" lon="6.43371">
        <ele>1322.5</ele>
        <time>2018-08-10T13:36:33Z</time>
      </trkpt>
      <trkpt lat="44.41012" lon="6.43377">
        <ele>1321.1</ele>
        <time>2018-08-10T13:36:34Z</time>
      </trkpt>
      <trkpt lat="44.41014" lon="6.43382">
        <ele>1319.9</ele>
        <time>2018-08-10T13:36:35Z</time>
      </trkpt>
      <trkpt lat="44.41012" lon="6.43385">
        <ele>1318.7</ele>
        <time>2018-08-10T13:36:36Z</time>
      </trkpt>
      <trkpt lat="44.41009" lon="6.43393">
        <ele>1316.9</ele>
        <time>2018-08-10T13:36:38Z</time>
      </trkpt>
      <trkpt lat="44.41006" lon="6.43399">
        <ele>1315.7</ele>
        <time>2018-08-10T13:36:40Z</time>
      </trkpt>
      <trkpt lat="44.41003" lon="6.43402">
        <ele>1314.8</ele>
        <time>2018-08-10T13:36:41Z</time>
      </trkpt>
      <trkpt lat="44.41001" lon="6.43408">
        <ele>1314</ele>
        <time>2018-08-10T13:36:43Z</time>
      </trkpt>
      <trkpt lat="44.41" lon="6.43414">
        <ele>1312</ele>
        <time>2018-08-10T13:36:44Z</time>
      </trkpt>
      <trkpt lat="44.40999" lon="6.4342">
        <ele>1311.2</ele>
        <time>2018-08-10T13:36:45Z</time>
      </trkpt>
      <trkpt lat="44.40998" lon="6.43424">
        <ele>1310</ele>
        <time>2018-08-10T13:36:46Z</time>
      </trkpt>
      <trkpt lat="44.40996" lon="6.43429">
        <ele>1309.2</ele>
        <time>2018-08-10T13:36:47Z</time>
      </trkpt>
      <trkpt lat="44.40995" lon="6.43434">
        <ele>1307.9</ele>
        <time>2018-08-10T13:36:48Z</time>
      </trkpt>
      <trkpt lat="44.40992" lon="6.43439">
        <ele>1306</ele>
        <time>2018-08-10T13:36:49Z</time>
      </trkpt>
      <trkpt lat="44.40991" lon="6.43443">
        <ele>1304.7</ele>
        <time>2018-08-10T13:36:50Z</time>
      </trkpt>
      <trkpt lat="44.40991" lon="6.4345">
        <ele>1303.5</ele>
        <time>2018-08-10T13:36:52Z</time>
      </trkpt>
      <trkpt lat="44.40988" lon="6.43452">
        <ele>1302.6</ele>
        <time>2018-08-10T13:36:55Z</time>
      </trkpt>
      <trkpt lat="44.40986" lon="6.43457">
        <ele>1301.1</ele>
        <time>2018-08-10T13:37:01Z</time>
      </trkpt>
      <trkpt lat="44.40985" lon="6.43464">
        <ele>1299.4</ele>
        <time>2018-08-10T13:37:03Z</time>
      </trkpt>
      <trkpt lat="44.40983" lon="6.43471">
        <ele>1297.3</ele>
        <time>2018-08-10T13:37:05Z</time>
      </trkpt>
      <trkpt lat="44.40983" lon="6.43475">
        <ele>1296.4</ele>
        <time>2018-08-10T13:37:06Z</time>
      </trkpt>
      <trkpt lat="44.40982" lon="6.43482">
        <ele>1294.9</ele>
        <time>2018-08-10T13:37:08Z</time>
      </trkpt>
      <trkpt lat="44.40981" lon="6.43488">
        <ele>1293.9</ele>
        <time>2018-08-10T13:37:09Z</time>
      </trkpt>
      <trkpt lat="44.4098" lon="6.43491">
        <ele>1293.2</ele>
        <time>2018-08-10T13:37:10Z</time>
      </trkpt>
      <trkpt lat="44.40979" lon="6.43495">
        <ele>1292.5</ele>
        <time>2018-08-10T13:37:11Z</time>
      </trkpt>
      <trkpt lat="44.40979" lon="6.435">
        <ele>1291.7</ele>
        <time>2018-08-10T13:37:12Z</time>
      </trkpt>
      <trkpt lat="44.40977" lon="6.43504">
        <ele>1291.3</ele>
        <time>2018-08-10T13:37:13Z</time>
      </trkpt>
      <trkpt lat="44.40977" lon="6.43509">
        <ele>1291</ele>
        <time>2018-08-10T13:37:14Z</time>
      </trkpt>
      <trkpt lat="44.40976" lon="6.43513">
        <ele>1289.5</ele>
        <time>2018-08-10T13:37:15Z</time>
      </trkpt>
      <trkpt lat="44.40976" lon="6.43517">
        <ele>1288</ele>
        <time>2018-08-10T13:37:16Z</time>
      </trkpt>
      <trkpt lat="44.40974" lon="6.43521">
        <ele>1286.9</ele>
        <time>2018-08-10T13:37:17Z</time>
      </trkpt>
      <trkpt lat="44.40973" lon="6.43529">
        <ele>1285.3</ele>
        <time>2018-08-10T13:37:19Z</time>
      </trkpt>
      <trkpt lat="44.40972" lon="6.43533">
        <ele>1284.4</ele>
        <time>2018-08-10T13:37:20Z</time>
      </trkpt>
      <trkpt lat="44.40973" lon="6.43539">
        <ele>1283</ele>
        <time>2018-08-10T13:37:21Z</time>
      </trkpt>
      <trkpt lat="44.40971" lon="6.43545">
        <ele>1281.3</ele>
        <time>2018-08-10T13:37:22Z</time>
      </trkpt>
      <trkpt lat="44.40969" lon="6.43552">
        <ele>1279.6</ele>
        <time>2018-08-10T13:37:23Z</time>
      </trkpt>
      <trkpt lat="44.4097" lon="6.43559">
        <ele>1278.4</ele>
        <time>2018-08-10T13:37:24Z</time>
      </trkpt>
      <trkpt lat="44.4097" lon="6.43565">
        <ele>1277.3</ele>
        <time>2018-08-10T13:37:25Z</time>
      </trkpt>
      <trkpt lat="44.40973" lon="6.43569">
        <ele>1276.2</ele>
        <time>2018-08-10T13:37:26Z</time>
      </trkpt>
      <trkpt lat="44.40976" lon="6.43575">
        <ele>1274.2</ele>
        <time>2018-08-10T13:37:27Z</time>
      </trkpt>
      <trkpt lat="44.40979" lon="6.4358">
        <ele>1273.2</ele>
        <time>2018-08-10T13:37:28Z</time>
      </trkpt>
      <trkpt lat="44.4098" lon="6.43584">
        <ele>1272.6</ele>
        <time>2018-08-10T13:37:29Z</time>
      </trkpt>
      <trkpt lat="44.40982" lon="6.43587">
        <ele>1272</ele>
        <time>2018-08-10T13:37:30Z</time>
      </trkpt>
      <trkpt lat="44.40986" lon="6.43591">
        <ele>1271.2</ele>
        <time>2018-08-10T13:37:31Z</time>
      </trkpt>
      <trkpt lat="44.4099" lon="6.43593">
        <ele>1270.4</ele>
        <time>2018-08-10T13:37:32Z</time>
      </trkpt>
      <trkpt lat="44.40995" lon="6.43597">
        <ele>1269.2</ele>
        <time>2018-08-10T13:37:33Z</time>
      </trkpt>
      <trkpt lat="44.41001" lon="6.43601">
        <ele>1267.5</ele>
        <time>2018-08-10T13:37:34Z</time>
      </trkpt>
      <trkpt lat="44.41007" lon="6.43604">
        <ele>1266.5</ele>
        <time>2018-08-10T13:37:35Z</time>
      </trkpt>
      <trkpt lat="44.41012" lon="6.43609">
        <ele>1265.6</ele>
        <time>2018-08-10T13:37:36Z</time>
      </trkpt>
      <trkpt lat="44.41015" lon="6.43612">
        <ele>1264.7</ele>
        <time>2018-08-10T13:37:37Z</time>
      </trkpt>
      <trkpt lat="44.41019" lon="6.43616">
        <ele>1263.4</ele>
        <time>2018-08-10T13:37:38Z</time>
      </trkpt>
      <trkpt lat="44.41024" lon="6.43618">
        <ele>1263</ele>
        <time>2018-08-10T13:37:40Z</time>
      </trkpt>
      <trkpt lat="44.41026" lon="6.43615">
        <ele>1263</ele>
        <time>2018-08-10T13:37:42Z</time>
      </trkpt>
      <trkpt lat="44.41027" lon="6.43611">
        <ele>1263</ele>
        <time>2018-08-10T13:38:15Z</time>
      </trkpt>
      <trkpt lat="44.41029" lon="6.43605">
        <ele>1263</ele>
        <time>2018-08-10T13:38:17Z</time>
      </trkpt>
      <trkpt lat="44.41029" lon="6.43601">
        <ele>1263.1</ele>
        <time>2018-08-10T13:38:18Z</time>
      </trkpt>
      <trkpt lat="44.4103" lon="6.43594">
        <ele>1263.4</ele>
        <time>2018-08-10T13:38:20Z</time>
      </trkpt>
      <trkpt lat="44.41031" lon="6.43588">
        <ele>1264.3</ele>
        <time>2018-08-10T13:38:22Z</time>
      </trkpt>
      <trkpt lat="44.41032" lon="6.43584">
        <ele>1264.9</ele>
        <time>2018-08-10T13:38:24Z</time>
      </trkpt>
      <trkpt lat="44.41032" lon="6.4359">
        <ele>1264.1</ele>
        <time>2018-08-10T13:38:28Z</time>
      </trkpt>
      <trkpt lat="44.41031" lon="6.43594">
        <ele>1263.4</ele>
        <time>2018-08-10T13:38:30Z</time>
      </trkpt>
      <trkpt lat="44.41031" lon="6.43599">
        <ele>1263.2</ele>
        <time>2018-08-10T13:38:32Z</time>
      </trkpt>
      <trkpt lat="44.4103" lon="6.43604">
        <ele>1263</ele>
        <time>2018-08-10T13:38:34Z</time>
      </trkpt>
      <trkpt lat="44.4103" lon="6.4361">
        <ele>1263</ele>
        <time>2018-08-10T13:38:36Z</time>
      </trkpt>
      <trkpt lat="44.4103" lon="6.43615">
        <ele>1263</ele>
        <time>2018-08-10T13:38:38Z</time>
      </trkpt>
      <trkpt lat="44.41034" lon="6.43622">
        <ele>1262.9</ele>
        <time>2018-08-10T13:38:40Z</time>
      </trkpt>
      <trkpt lat="44.41036" lon="6.43625">
        <ele>1262.9</ele>
        <time>2018-08-10T13:38:41Z</time>
      </trkpt>
      <trkpt lat="44.41039" lon="6.43628">
        <ele>1262.9</ele>
        <time>2018-08-10T13:38:42Z</time>
      </trkpt>
      <trkpt lat="44.41041" lon="6.43632">
        <ele>1263</ele>
        <time>2018-08-10T13:38:43Z</time>
      </trkpt>
      <trkpt lat="44.41045" lon="6.43635">
        <ele>1263</ele>
        <time>2018-08-10T13:38:44Z</time>
      </trkpt>
      <trkpt lat="44.41049" lon="6.43638">
        <ele>1262.9</ele>
        <time>2018-08-10T13:38:45Z</time>
      </trkpt>
      <trkpt lat="44.41052" lon="6.43641">
        <ele>1262.7</ele>
        <time>2018-08-10T13:38:46Z</time>
      </trkpt>
      <trkpt lat="44.41058" lon="6.43643">
        <ele>1262.9</ele>
        <time>2018-08-10T13:38:48Z</time>
      </trkpt>
      <trkpt lat="44.41061" lon="6.43646">
        <ele>1263</ele>
        <time>2018-08-10T13:38:49Z</time>
      </trkpt>
      <trkpt lat="44.41064" lon="6.43649">
        <ele>1263</ele>
        <time>2018-08-10T13:38:50Z</time>
      </trkpt>
      <trkpt lat="44.41067" lon="6.43651">
        <ele>1263</ele>
        <time>2018-08-10T13:38:52Z</time>
      </trkpt>
      <trkpt lat="44.41071" lon="6.43653">
        <ele>1263</ele>
        <time>2018-08-10T13:38:54Z</time>
      </trkpt>
      <trkpt lat="44.41077" lon="6.43652">
        <ele>1263.1</ele>
        <time>2018-08-10T13:38:56Z</time>
      </trkpt>
      <trkpt lat="44.41079" lon="6.43651">
        <ele>1263</ele>
        <time>2018-08-10T13:38:57Z</time>
      </trkpt>
      <trkpt lat="44.41084" lon="6.43649">
        <ele>1262.8</ele>
        <time>2018-08-10T13:38:59Z</time>
      </trkpt>
      <trkpt lat="44.41088" lon="6.43647">
        <ele>1262.8</ele>
        <time>2018-08-10T13:39:01Z</time>
      </trkpt>
      <trkpt lat="44.41092" lon="6.43645">
        <ele>1262.7</ele>
        <time>2018-08-10T13:39:03Z</time>
      </trkpt>
      <trkpt lat="44.41095" lon="6.43642">
        <ele>1262.5</ele>
        <time>2018-08-10T13:39:05Z</time>
      </trkpt>
      <trkpt lat="44.41099" lon="6.43637">
        <ele>1262</ele>
        <time>2018-08-10T13:39:07Z</time>
      </trkpt>
      <trkpt lat="44.41099" lon="6.43632">
        <ele>1261.6</ele>
        <time>2018-08-10T13:39:09Z</time>
      </trkpt>
      <trkpt lat="44.41101" lon="6.43628">
        <ele>1261.5</ele>
        <time>2018-08-10T13:39:11Z</time>
      </trkpt>
      <trkpt lat="44.41103" lon="6.4363">
        <ele>1261.3</ele>
        <time>2018-08-10T13:39:13Z</time>
      </trkpt>
      <trkpt lat="44.41106" lon="6.43631">
        <ele>1261</ele>
        <time>2018-08-10T13:39:16Z</time>
      </trkpt>
      <trkpt lat="44.41108" lon="6.43635">
        <ele>1260.8</ele>
        <time>2018-08-10T13:39:18Z</time>
      </trkpt>
      <trkpt lat="44.41112" lon="6.43639">
        <ele>1260.7</ele>
        <time>2018-08-10T13:39:20Z</time>
      </trkpt>
      <trkpt lat="44.41115" lon="6.43642">
        <ele>1260.8</ele>
        <time>2018-08-10T13:39:21Z</time>
      </trkpt>
      <trkpt lat="44.41116" lon="6.43646">
        <ele>1260.6</ele>
        <time>2018-08-10T13:39:22Z</time>
      </trkpt>
      <trkpt lat="44.41118" lon="6.4365">
        <ele>1260.2</ele>
        <time>2018-08-10T13:39:23Z</time>
      </trkpt>
      <trkpt lat="44.4112" lon="6.43653">
        <ele>1259.8</ele>
        <time>2018-08-10T13:39:24Z</time>
      </trkpt>
      <trkpt lat="44.41123" lon="6.43657">
        <ele>1259.5</ele>
        <time>2018-08-10T13:39:26Z</time>
      </trkpt>
      <trkpt lat="44.41125" lon="6.4366">
        <ele>1259.2</ele>
        <time>2018-08-10T13:39:27Z</time>
      </trkpt>
      <trkpt lat="44.41128" lon="6.43663">
        <ele>1258.8</ele>
        <time>2018-08-10T13:39:29Z</time>
      </trkpt>
      <trkpt lat="44.41132" lon="6.43666">
        <ele>1258.4</ele>
        <time>2018-08-10T13:39:32Z</time>
      </trkpt>
      <trkpt lat="44.41135" lon="6.43664">
        <ele>1258</ele>
        <time>2018-08-10T13:39:35Z</time>
      </trkpt>
      <trkpt lat="44.41139" lon="6.43664">
        <ele>1257.7</ele>
        <time>2018-08-10T13:39:37Z</time>
      </trkpt>
      <trkpt lat="44.41144" lon="6.43665">
        <ele>1257.2</ele>
        <time>2018-08-10T13:39:39Z</time>
      </trkpt>
      <trkpt lat="44.41149" lon="6.43666">
        <ele>1256.8</ele>
        <time>2018-08-10T13:39:41Z</time>
      </trkpt>
      <trkpt lat="44.41153" lon="6.43665">
        <ele>1256.5</ele>
        <time>2018-08-10T13:39:44Z</time>
      </trkpt>
      <trkpt lat="44.41157" lon="6.43663">
        <ele>1256.2</ele>
        <time>2018-08-10T13:39:56Z</time>
      </trkpt>
      <trkpt lat="44.41161" lon="6.43661">
        <ele>1256</ele>
        <time>2018-08-10T13:39:58Z</time>
      </trkpt>
      <trkpt lat="44.41165" lon="6.4366">
        <ele>1255.9</ele>
        <time>2018-08-10T13:40:00Z</time>
      </trkpt>
      <trkpt lat="44.4117" lon="6.4366">
        <ele>1255.7</ele>
        <time>2018-08-10T13:40:02Z</time>
      </trkpt>
      <trkpt lat="44.41172" lon="6.4366">
        <ele>1255.6</ele>
        <time>2018-08-10T13:40:03Z</time>
      </trkpt>
      <trkpt lat="44.41175" lon="6.43657">
        <ele>1255.5</ele>
        <time>2018-08-10T13:40:04Z</time>
      </trkpt>
      <trkpt lat="44.41177" lon="6.43654">
        <ele>1255.3</ele>
        <time>2018-08-10T13:40:05Z</time>
      </trkpt>
      <trkpt lat="44.41179" lon="6.4365">
        <ele>1255</ele>
        <time>2018-08-10T13:40:06Z</time>
      </trkpt>
      <trkpt lat="44.41181" lon="6.43646">
        <ele>1254.7</ele>
        <time>2018-08-10T13:40:07Z</time>
      </trkpt>
      <trkpt lat="44.41182" lon="6.43642">
        <ele>1254.5</ele>
        <time>2018-08-10T13:40:08Z</time>
      </trkpt>
      <trkpt lat="44.41184" lon="6.43637">
        <ele>1254.4</ele>
        <time>2018-08-10T13:40:09Z</time>
      </trkpt>
      <trkpt lat="44.41185" lon="6.43633">
        <ele>1254.3</ele>
        <time>2018-08-10T13:40:10Z</time>
      </trkpt>
      <trkpt lat="44.41185" lon="6.43626">
        <ele>1254.2</ele>
        <time>2018-08-10T13:40:12Z</time>
      </trkpt>
      <trkpt lat="44.41184" lon="6.43621">
        <ele>1254.3</ele>
        <time>2018-08-10T13:40:14Z</time>
      </trkpt>
      <trkpt lat="44.41182" lon="6.43618">
        <ele>1254.5</ele>
        <time>2018-08-10T13:40:16Z</time>
      </trkpt>
      <trkpt lat="44.41185" lon="6.4362">
        <ele>1254.6</ele>
        <time>2018-08-10T13:40:21Z</time>
      </trkpt>
      <trkpt lat="44.41188" lon="6.43625">
        <ele>1254.1</ele>
        <time>2018-08-10T13:40:23Z</time>
      </trkpt>
      <trkpt lat="44.4119" lon="6.4363">
        <ele>1253.8</ele>
        <time>2018-08-10T13:40:25Z</time>
      </trkpt>
      <trkpt lat="44.4119" lon="6.43634">
        <ele>1253.6</ele>
        <time>2018-08-10T13:40:26Z</time>
      </trkpt>
      <trkpt lat="44.41188" lon="6.43639">
        <ele>1253.4</ele>
        <time>2018-08-10T13:40:28Z</time>
      </trkpt>
      <trkpt lat="44.41188" lon="6.43643">
        <ele>1253.3</ele>
        <time>2018-08-10T13:40:29Z</time>
      </trkpt>
      <trkpt lat="44.41188" lon="6.43647">
        <ele>1253.3</ele>
        <time>2018-08-10T13:40:30Z</time>
      </trkpt>
      <trkpt lat="44.41192" lon="6.43656">
        <ele>1252.9</ele>
        <time>2018-08-10T13:40:32Z</time>
      </trkpt>
      <trkpt lat="44.41194" lon="6.43659">
        <ele>1252.6</ele>
        <time>2018-08-10T13:40:33Z</time>
      </trkpt>
      <trkpt lat="44.41196" lon="6.43662">
        <ele>1252.3</ele>
        <time>2018-08-10T13:40:34Z</time>
      </trkpt>
      <trkpt lat="44.41196" lon="6.43668">
        <ele>1251.9</ele>
        <time>2018-08-10T13:40:36Z</time>
      </trkpt>
      <trkpt lat="44.41199" lon="6.43674">
        <ele>1251.9</ele>
        <time>2018-08-10T13:40:38Z</time>
      </trkpt>
      <trkpt lat="44.412" lon="6.43678">
        <ele>1251.8</ele>
        <time>2018-08-10T13:40:40Z</time>
      </trkpt>
      <trkpt lat="44.41204" lon="6.43686">
        <ele>1251.8</ele>
        <time>2018-08-10T13:40:42Z</time>
      </trkpt>
      <trkpt lat="44.41207" lon="6.4369">
        <ele>1251.6</ele>
        <time>2018-08-10T13:40:43Z</time>
      </trkpt>
      <trkpt lat="44.41211" lon="6.43693">
        <ele>1251.4</ele>
        <time>2018-08-10T13:40:44Z</time>
      </trkpt>
      <trkpt lat="44.41213" lon="6.43699">
        <ele>1251.2</ele>
        <time>2018-08-10T13:40:46Z</time>
      </trkpt>
      <trkpt lat="44.41215" lon="6.43704">
        <ele>1250.8</ele>
        <time>2018-08-10T13:40:48Z</time>
      </trkpt>
      <trkpt lat="44.41219" lon="6.43709">
        <ele>1250</ele>
        <time>2018-08-10T13:40:50Z</time>
      </trkpt>
      <trkpt lat="44.41219" lon="6.43714">
        <ele>1249.5</ele>
        <time>2018-08-10T13:40:52Z</time>
      </trkpt>
      <trkpt lat="44.41222" lon="6.43718">
        <ele>1249</ele>
        <time>2018-08-10T13:40:53Z</time>
      </trkpt>
      <trkpt lat="44.41225" lon="6.43723">
        <ele>1249</ele>
        <time>2018-08-10T13:40:55Z</time>
      </trkpt>
      <trkpt lat="44.41227" lon="6.43728">
        <ele>1249</ele>
        <time>2018-08-10T13:40:57Z</time>
      </trkpt>
      <trkpt lat="44.41228" lon="6.43732">
        <ele>1249</ele>
        <time>2018-08-10T13:40:59Z</time>
      </trkpt>
      <trkpt lat="44.41229" lon="6.43736">
        <ele>1249</ele>
        <time>2018-08-10T13:41:03Z</time>
      </trkpt>
      <trkpt lat="44.41229" lon="6.4374">
        <ele>1248.7</ele>
        <time>2018-08-10T13:41:07Z</time>
      </trkpt>
      <trkpt lat="44.41231" lon="6.43744">
        <ele>1248.5</ele>
        <time>2018-08-10T13:41:16Z</time>
      </trkpt>
      <trkpt lat="44.41234" lon="6.43746">
        <ele>1248.2</ele>
        <time>2018-08-10T13:41:23Z</time>
      </trkpt>
      <trkpt lat="44.41238" lon="6.43751">
        <ele>1247.9</ele>
        <time>2018-08-10T13:41:26Z</time>
      </trkpt>
      <trkpt lat="44.41242" lon="6.43754">
        <ele>1247.6</ele>
        <time>2018-08-10T13:41:28Z</time>
      </trkpt>
      <trkpt lat="44.41244" lon="6.43755">
        <ele>1247.4</ele>
        <time>2018-08-10T13:41:30Z</time>
      </trkpt>
      <trkpt lat="44.41246" lon="6.43759">
        <ele>1247.3</ele>
        <time>2018-08-10T13:41:38Z</time>
      </trkpt>
      <trkpt lat="44.41247" lon="6.43763">
        <ele>1247.4</ele>
        <time>2018-08-10T13:41:41Z</time>
      </trkpt>
      <trkpt lat="44.41249" lon="6.43766">
        <ele>1247.4</ele>
        <time>2018-08-10T13:41:43Z</time>
      </trkpt>
      <trkpt lat="44.41251" lon="6.43768">
        <ele>1247.2</ele>
        <time>2018-08-10T13:41:45Z</time>
      </trkpt>
      <trkpt lat="44.41252" lon="6.43772">
        <ele>1247</ele>
        <time>2018-08-10T13:41:50Z</time>
      </trkpt>
      <trkpt lat="44.41254" lon="6.43776">
        <ele>1246.8</ele>
        <time>2018-08-10T13:41:54Z</time>
      </trkpt>
      <trkpt lat="44.41254" lon="6.4378">
        <ele>1246.8</ele>
        <time>2018-08-10T13:41:59Z</time>
      </trkpt>
      <trkpt lat="44.41258" lon="6.43783">
        <ele>1247</ele>
        <time>2018-08-10T13:42:24Z</time>
      </trkpt>
      <trkpt lat="44.41261" lon="6.43783">
        <ele>1247</ele>
        <time>2018-08-10T13:42:27Z</time>
      </trkpt>
      <trkpt lat="44.41264" lon="6.43785">
        <ele>1246.7</ele>
        <time>2018-08-10T13:42:30Z</time>
      </trkpt>
      <trkpt lat="44.41266" lon="6.43786">
        <ele>1246.3</ele>
        <time>2018-08-10T13:42:35Z</time>
      </trkpt>
      <trkpt lat="44.4127" lon="6.43785">
        <ele>1245.8</ele>
        <time>2018-08-10T13:42:40Z</time>
      </trkpt>
      <trkpt lat="44.41276" lon="6.43792">
        <ele>1244.6</ele>
        <time>2018-08-10T13:42:43Z</time>
      </trkpt>
      <trkpt lat="44.4128" lon="6.43793">
        <ele>1243.5</ele>
        <time>2018-08-10T13:42:46Z</time>
      </trkpt>
      <trkpt lat="44.41284" lon="6.43793">
        <ele>1242.4</ele>
        <time>2018-08-10T13:42:48Z</time>
      </trkpt>
      <trkpt lat="44.41288" lon="6.43794">
        <ele>1241.9</ele>
        <time>2018-08-10T13:42:49Z</time>
      </trkpt>
      <trkpt lat="44.41291" lon="6.43796">
        <ele>1240.9</ele>
        <time>2018-08-10T13:42:50Z</time>
      </trkpt>
      <trkpt lat="44.41294" lon="6.43796">
        <ele>1239.9</ele>
        <time>2018-08-10T13:42:51Z</time>
      </trkpt>
      <trkpt lat="44.41298" lon="6.43798">
        <ele>1239.7</ele>
        <time>2018-08-10T13:42:53Z</time>
      </trkpt>
      <trkpt lat="44.41301" lon="6.43801">
        <ele>1239.8</ele>
        <time>2018-08-10T13:42:54Z</time>
      </trkpt>
      <trkpt lat="44.41303" lon="6.43803">
        <ele>1238.8</ele>
        <time>2018-08-10T13:42:55Z</time>
      </trkpt>
      <trkpt lat="44.41306" lon="6.43805">
        <ele>1237.7</ele>
        <time>2018-08-10T13:42:56Z</time>
      </trkpt>
      <trkpt lat="44.41308" lon="6.43807">
        <ele>1236.7</ele>
        <time>2018-08-10T13:42:57Z</time>
      </trkpt>
      <trkpt lat="44.41312" lon="6.43813">
        <ele>1236.1</ele>
        <time>2018-08-10T13:42:59Z</time>
      </trkpt>
      <trkpt lat="44.41315" lon="6.43815">
        <ele>1235.8</ele>
        <time>2018-08-10T13:43:00Z</time>
      </trkpt>
      <trkpt lat="44.41317" lon="6.43819">
        <ele>1234.5</ele>
        <time>2018-08-10T13:43:01Z</time>
      </trkpt>
      <trkpt lat="44.41319" lon="6.43823">
        <ele>1233</ele>
        <time>2018-08-10T13:43:03Z</time>
      </trkpt>
      <trkpt lat="44.41322" lon="6.43825">
        <ele>1231.9</ele>
        <time>2018-08-10T13:43:04Z</time>
      </trkpt>
      <trkpt lat="44.41324" lon="6.43828">
        <ele>1231.1</ele>
        <time>2018-08-10T13:43:05Z</time>
      </trkpt>
      <trkpt lat="44.41328" lon="6.43828">
        <ele>1230.2</ele>
        <time>2018-08-10T13:43:06Z</time>
      </trkpt>
      <trkpt lat="44.41333" lon="6.43829">
        <ele>1228</ele>
        <time>2018-08-10T13:43:08Z</time>
      </trkpt>
      <trkpt lat="44.41339" lon="6.43829">
        <ele>1225.7</ele>
        <time>2018-08-10T13:43:10Z</time>
      </trkpt>
      <trkpt lat="44.41345" lon="6.43829">
        <ele>1223.5</ele>
        <time>2018-08-10T13:43:12Z</time>
      </trkpt>
      <trkpt lat="44.41349" lon="6.43831">
        <ele>1220.8</ele>
        <time>2018-08-10T13:43:13Z</time>
      </trkpt>
      <trkpt lat="44.41353" lon="6.43832">
        <ele>1218.8</ele>
        <time>2018-08-10T13:43:14Z</time>
      </trkpt>
      <trkpt lat="44.41357" lon="6.43833">
        <ele>1217.2</ele>
        <time>2018-08-10T13:43:15Z</time>
      </trkpt>
      <trkpt lat="44.4136" lon="6.43835">
        <ele>1215.6</ele>
        <time>2018-08-10T13:43:16Z</time>
      </trkpt>
      <trkpt lat="44.41365" lon="6.43835">
        <ele>1213.9</ele>
        <time>2018-08-10T13:43:17Z</time>
      </trkpt>
      <trkpt lat="44.41369" lon="6.43836">
        <ele>1211.6</ele>
        <time>2018-08-10T13:43:18Z</time>
      </trkpt>
      <trkpt lat="44.41373" lon="6.43838">
        <ele>1209</ele>
        <time>2018-08-10T13:43:19Z</time>
      </trkpt>
      <trkpt lat="44.41376" lon="6.4384">
        <ele>1207.4</ele>
        <time>2018-08-10T13:43:20Z</time>
      </trkpt>
      <trkpt lat="44.4138" lon="6.43841">
        <ele>1205.9</ele>
        <time>2018-08-10T13:43:21Z</time>
      </trkpt>
      <trkpt lat="44.41384" lon="6.43842">
        <ele>1204</ele>
        <time>2018-08-10T13:43:22Z</time>
      </trkpt>
      <trkpt lat="44.41389" lon="6.43845">
        <ele>1202.3</ele>
        <time>2018-08-10T13:43:23Z</time>
      </trkpt>
      <trkpt lat="44.41391" lon="6.4385">
        <ele>1201.3</ele>
        <time>2018-08-10T13:43:24Z</time>
      </trkpt>
      <trkpt lat="44.41394" lon="6.43852">
        <ele>1201</ele>
        <time>2018-08-10T13:43:25Z</time>
      </trkpt>
      <trkpt lat="44.41397" lon="6.43858">
        <ele>1200.6</ele>
        <time>2018-08-10T13:43:26Z</time>
      </trkpt>
      <trkpt lat="44.41398" lon="6.43863">
        <ele>1200.9</ele>
        <time>2018-08-10T13:43:27Z</time>
      </trkpt>
      <trkpt lat="44.41395" lon="6.43869">
        <ele>1201.4</ele>
        <time>2018-08-10T13:43:28Z</time>
      </trkpt>
      <trkpt lat="44.41396" lon="6.43875">
        <ele>1203.2</ele>
        <time>2018-08-10T13:43:29Z</time>
      </trkpt>
      <trkpt lat="44.41394" lon="6.43881">
        <ele>1204.1</ele>
        <time>2018-08-10T13:43:31Z</time>
      </trkpt>
      <trkpt lat="44.41392" lon="6.43886">
        <ele>1204.9</ele>
        <time>2018-08-10T13:43:33Z</time>
      </trkpt>
      <trkpt lat="44.41387" lon="6.43893">
        <ele>1208</ele>
        <time>2018-08-10T13:43:35Z</time>
      </trkpt>
      <trkpt lat="44.41385" lon="6.43898">
        <ele>1210.7</ele>
        <time>2018-08-10T13:43:36Z</time>
      </trkpt>
      <trkpt lat="44.41385" lon="6.43905">
        <ele>1214.1</ele>
        <time>2018-08-10T13:43:37Z</time>
      </trkpt>
      <trkpt lat="44.41385" lon="6.43914">
        <ele>1215.9</ele>
        <time>2018-08-10T13:43:38Z</time>
      </trkpt>
      <trkpt lat="44.41383" lon="6.43922">
        <ele>1214.2</ele>
        <time>2018-08-10T13:43:39Z</time>
      </trkpt>
      <trkpt lat="44.41382" lon="6.43929">
        <ele>1214.4</ele>
        <time>2018-08-10T13:43:40Z</time>
      </trkpt>
      <trkpt lat="44.41378" lon="6.43937">
        <ele>1216</ele>
        <time>2018-08-10T13:43:41Z</time>
      </trkpt>
      <trkpt lat="44.41375" lon="6.43943">
        <ele>1218.3</ele>
        <time>2018-08-10T13:43:42Z</time>
      </trkpt>
      <trkpt lat="44.41374" lon="6.43949">
        <ele>1219</ele>
        <time>2018-08-10T13:43:43Z</time>
      </trkpt>
      <trkpt lat="44.41374" lon="6.43954">
        <ele>1219.8</ele>
        <time>2018-08-10T13:43:45Z</time>
      </trkpt>
      <trkpt lat="44.41373" lon="6.43958">
        <ele>1220.7</ele>
        <time>2018-08-10T13:43:46Z</time>
      </trkpt>
      <trkpt lat="44.41372" lon="6.43962">
        <ele>1221.9</ele>
        <time>2018-08-10T13:43:47Z</time>
      </trkpt>
      <trkpt lat="44.4137" lon="6.43969">
        <ele>1224.4</ele>
        <time>2018-08-10T13:43:49Z</time>
      </trkpt>
      <trkpt lat="44.41367" lon="6.43973">
        <ele>1226.1</ele>
        <time>2018-08-10T13:43:50Z</time>
      </trkpt>
      <trkpt lat="44.41366" lon="6.43976">
        <ele>1227.3</ele>
        <time>2018-08-10T13:43:51Z</time>
      </trkpt>
      <trkpt lat="44.41365" lon="6.4398">
        <ele>1227.8</ele>
        <time>2018-08-10T13:43:52Z</time>
      </trkpt>
      <trkpt lat="44.41362" lon="6.43983">
        <ele>1227.7</ele>
        <time>2018-08-10T13:43:53Z</time>
      </trkpt>
      <trkpt lat="44.4136" lon="6.43987">
        <ele>1228</ele>
        <time>2018-08-10T13:43:54Z</time>
      </trkpt>
      <trkpt lat="44.41359" lon="6.43992">
        <ele>1229</ele>
        <time>2018-08-10T13:43:55Z</time>
      </trkpt>
      <trkpt lat="44.41357" lon="6.44">
        <ele>1229.1</ele>
        <time>2018-08-10T13:43:56Z</time>
      </trkpt>
      <trkpt lat="44.41356" lon="6.44007">
        <ele>1229.6</ele>
        <time>2018-08-10T13:43:57Z</time>
      </trkpt>
      <trkpt lat="44.41356" lon="6.44014">
        <ele>1231.2</ele>
        <time>2018-08-10T13:43:58Z</time>
      </trkpt>
      <trkpt lat="44.41355" lon="6.44021">
        <ele>1232.7</ele>
        <time>2018-08-10T13:43:59Z</time>
      </trkpt>
      <trkpt lat="44.41353" lon="6.44029">
        <ele>1233.6</ele>
        <time>2018-08-10T13:44:00Z</time>
      </trkpt>
      <trkpt lat="44.41351" lon="6.44038">
        <ele>1233.8</ele>
        <time>2018-08-10T13:44:01Z</time>
      </trkpt>
      <trkpt lat="44.41349" lon="6.44049">
        <ele>1232.3</ele>
        <time>2018-08-10T13:44:02Z</time>
      </trkpt>
      <trkpt lat="44.4135" lon="6.44057">
        <ele>1231.1</ele>
        <time>2018-08-10T13:44:03Z</time>
      </trkpt>
      <trkpt lat="44.41349" lon="6.44062">
        <ele>1231</ele>
        <time>2018-08-10T13:44:04Z</time>
      </trkpt>
      <trkpt lat="44.41348" lon="6.44068">
        <ele>1230.8</ele>
        <time>2018-08-10T13:44:05Z</time>
      </trkpt>
      <trkpt lat="44.41349" lon="6.44074">
        <ele>1230.1</ele>
        <time>2018-08-10T13:44:06Z</time>
      </trkpt>
      <trkpt lat="44.41351" lon="6.44082">
        <ele>1229.2</ele>
        <time>2018-08-10T13:44:07Z</time>
      </trkpt>
      <trkpt lat="44.41352" lon="6.44088">
        <ele>1228.9</ele>
        <time>2018-08-10T13:44:08Z</time>
      </trkpt>
      <trkpt lat="44.41351" lon="6.44094">
        <ele>1228.9</ele>
        <time>2018-08-10T13:44:09Z</time>
      </trkpt>
      <trkpt lat="44.41352" lon="6.441">
        <ele>1229.1</ele>
        <time>2018-08-10T13:44:10Z</time>
      </trkpt>
      <trkpt lat="44.41352" lon="6.44107">
        <ele>1228.3</ele>
        <time>2018-08-10T13:44:11Z</time>
      </trkpt>
      <trkpt lat="44.41354" lon="6.4411">
        <ele>1227.5</ele>
        <time>2018-08-10T13:44:13Z</time>
      </trkpt>
      <trkpt lat="44.41357" lon="6.44107">
        <ele>1226.3</ele>
        <time>2018-08-10T13:44:15Z</time>
      </trkpt>
      <trkpt lat="44.41361" lon="6.44106">
        <ele>1225.2</ele>
        <time>2018-08-10T13:44:16Z</time>
      </trkpt>
      <trkpt lat="44.41364" lon="6.44102">
        <ele>1222.7</ele>
        <time>2018-08-10T13:44:18Z</time>
      </trkpt>
      <trkpt lat="44.41367" lon="6.44101">
        <ele>1221.6</ele>
        <time>2018-08-10T13:44:19Z</time>
      </trkpt>
      <trkpt lat="44.41369" lon="6.44096">
        <ele>1219.3</ele>
        <time>2018-08-10T13:44:21Z</time>
      </trkpt>
      <trkpt lat="44.41371" lon="6.44091">
        <ele>1216.9</ele>
        <time>2018-08-10T13:44:23Z</time>
      </trkpt>
      <trkpt lat="44.41373" lon="6.44089">
        <ele>1216.5</ele>
        <time>2018-08-10T13:44:25Z</time>
      </trkpt>
      <trkpt lat="44.41376" lon="6.44094">
        <ele>1214.9</ele>
        <time>2018-08-10T13:44:28Z</time>
      </trkpt>
      <trkpt lat="44.41378" lon="6.44096">
        <ele>1213.1</ele>
        <time>2018-08-10T13:44:29Z</time>
      </trkpt>
      <trkpt lat="44.41381" lon="6.44098">
        <ele>1212.5</ele>
        <time>2018-08-10T13:44:30Z</time>
      </trkpt>
      <trkpt lat="44.41383" lon="6.44106">
        <ele>1210.2</ele>
        <time>2018-08-10T13:44:33Z</time>
      </trkpt>
      <trkpt lat="44.41383" lon="6.4411">
        <ele>1208.7</ele>
        <time>2018-08-10T13:44:34Z</time>
      </trkpt>
      <trkpt lat="44.41386" lon="6.44115">
        <ele>1206</ele>
        <time>2018-08-10T13:44:36Z</time>
      </trkpt>
      <trkpt lat="44.41386" lon="6.44121">
        <ele>1204</ele>
        <time>2018-08-10T13:44:38Z</time>
      </trkpt>
      <trkpt lat="44.41386" lon="6.44128">
        <ele>1202</ele>
        <time>2018-08-10T13:44:40Z</time>
      </trkpt>
      <trkpt lat="44.41385" lon="6.44132">
        <ele>1199.7</ele>
        <time>2018-08-10T13:44:41Z</time>
      </trkpt>
      <trkpt lat="44.41383" lon="6.44137">
        <ele>1196.3</ele>
        <time>2018-08-10T13:44:42Z</time>
      </trkpt>
      <trkpt lat="44.41381" lon="6.4414">
        <ele>1195.3</ele>
        <time>2018-08-10T13:44:43Z</time>
      </trkpt>
      <trkpt lat="44.41379" lon="6.44143">
        <ele>1194.4</ele>
        <time>2018-08-10T13:44:44Z</time>
      </trkpt>
      <trkpt lat="44.41383" lon="6.44145">
        <ele>1192.8</ele>
        <time>2018-08-10T13:44:46Z</time>
      </trkpt>
      <trkpt lat="44.41386" lon="6.44143">
        <ele>1191</ele>
        <time>2018-08-10T13:44:47Z</time>
      </trkpt>
      <trkpt lat="44.4139" lon="6.44141">
        <ele>1189.2</ele>
        <time>2018-08-10T13:44:48Z</time>
      </trkpt>
      <trkpt lat="44.41394" lon="6.4414">
        <ele>1188.8</ele>
        <time>2018-08-10T13:44:49Z</time>
      </trkpt>
      <trkpt lat="44.41398" lon="6.44138">
        <ele>1187.8</ele>
        <time>2018-08-10T13:44:50Z</time>
      </trkpt>
      <trkpt lat="44.41401" lon="6.44136">
        <ele>1186.9</ele>
        <time>2018-08-10T13:44:51Z</time>
      </trkpt>
      <trkpt lat="44.41405" lon="6.44132">
        <ele>1185.4</ele>
        <time>2018-08-10T13:44:52Z</time>
      </trkpt>
      <trkpt lat="44.41408" lon="6.44128">
        <ele>1186.1</ele>
        <time>2018-08-10T13:44:53Z</time>
      </trkpt>
      <trkpt lat="44.4141" lon="6.44125">
        <ele>1185.2</ele>
        <time>2018-08-10T13:44:54Z</time>
      </trkpt>
      <trkpt lat="44.41414" lon="6.44121">
        <ele>1183.6</ele>
        <time>2018-08-10T13:44:56Z</time>
      </trkpt>
      <trkpt lat="44.41417" lon="6.4412">
        <ele>1183.1</ele>
        <time>2018-08-10T13:44:57Z</time>
      </trkpt>
      <trkpt lat="44.4142" lon="6.44117">
        <ele>1182.5</ele>
        <time>2018-08-10T13:44:59Z</time>
      </trkpt>
      <trkpt lat="44.41423" lon="6.4412">
        <ele>1181.7</ele>
        <time>2018-08-10T13:45:00Z</time>
      </trkpt>
      <trkpt lat="44.41425" lon="6.44127">
        <ele>1180.5</ele>
        <time>2018-08-10T13:45:02Z</time>
      </trkpt>
      <trkpt lat="44.41425" lon="6.44131">
        <ele>1179.4</ele>
        <time>2018-08-10T13:45:03Z</time>
      </trkpt>
      <trkpt lat="44.41424" lon="6.44135">
        <ele>1178.2</ele>
        <time>2018-08-10T13:45:04Z</time>
      </trkpt>
      <trkpt lat="44.41424" lon="6.4414">
        <ele>1177.7</ele>
        <time>2018-08-10T13:45:05Z</time>
      </trkpt>
      <trkpt lat="44.41419" lon="6.44142">
        <ele>1176.3</ele>
        <time>2018-08-10T13:45:06Z</time>
      </trkpt>
      <trkpt lat="44.41415" lon="6.44144">
        <ele>1174.3</ele>
        <time>2018-08-10T13:45:07Z</time>
      </trkpt>
      <trkpt lat="44.41412" lon="6.44144">
        <ele>1173.4</ele>
        <time>2018-08-10T13:45:08Z</time>
      </trkpt>
      <trkpt lat="44.41409" lon="6.44146">
        <ele>1172.7</ele>
        <time>2018-08-10T13:45:09Z</time>
      </trkpt>
      <trkpt lat="44.41407" lon="6.44151">
        <ele>1172.7</ele>
        <time>2018-08-10T13:45:11Z</time>
      </trkpt>
      <trkpt lat="44.41412" lon="6.44152">
        <ele>1173.6</ele>
        <time>2018-08-10T13:45:13Z</time>
      </trkpt>
      <trkpt lat="44.41415" lon="6.44153">
        <ele>1174.6</ele>
        <time>2018-08-10T13:45:16Z</time>
      </trkpt>
      <trkpt lat="44.41414" lon="6.44156">
        <ele>1174.5</ele>
        <time>2018-08-10T13:45:18Z</time>
      </trkpt>
      <trkpt lat="44.41413" lon="6.44165">
        <ele>1172.1</ele>
        <time>2018-08-10T13:45:20Z</time>
      </trkpt>
      <trkpt lat="44.41414" lon="6.44173">
        <ele>1171.3</ele>
        <time>2018-08-10T13:45:22Z</time>
      </trkpt>
      <trkpt lat="44.41415" lon="6.44178">
        <ele>1171.1</ele>
        <time>2018-08-10T13:45:23Z</time>
      </trkpt>
      <trkpt lat="44.41416" lon="6.44183">
        <ele>1168.8</ele>
        <time>2018-08-10T13:45:24Z</time>
      </trkpt>
      <trkpt lat="44.41418" lon="6.44189">
        <ele>1166.1</ele>
        <time>2018-08-10T13:45:26Z</time>
      </trkpt>
      <trkpt lat="44.41421" lon="6.44191">
        <ele>1164.9</ele>
        <time>2018-08-10T13:45:27Z</time>
      </trkpt>
      <trkpt lat="44.41424" lon="6.44188">
        <ele>1163.1</ele>
        <time>2018-08-10T13:45:29Z</time>
      </trkpt>
      <trkpt lat="44.41427" lon="6.44184">
        <ele>1160.2</ele>
        <time>2018-08-10T13:45:30Z</time>
      </trkpt>
      <trkpt lat="44.4143" lon="6.44182">
        <ele>1158.9</ele>
        <time>2018-08-10T13:45:31Z</time>
      </trkpt>
      <trkpt lat="44.41433" lon="6.44181">
        <ele>1157.5</ele>
        <time>2018-08-10T13:45:32Z</time>
      </trkpt>
      <trkpt lat="44.41436" lon="6.44181">
        <ele>1156.5</ele>
        <time>2018-08-10T13:45:33Z</time>
      </trkpt>
      <trkpt lat="44.4144" lon="6.44183">
        <ele>1155.2</ele>
        <time>2018-08-10T13:45:36Z</time>
      </trkpt>
      <trkpt lat="44.41438" lon="6.4418">
        <ele>1154.2</ele>
        <time>2018-08-10T13:45:55Z</time>
      </trkpt>
      <trkpt lat="44.41438" lon="6.44187">
        <ele>1152.1</ele>
        <time>2018-08-10T13:46:00Z</time>
      </trkpt>
      <trkpt lat="44.41436" lon="6.44191">
        <ele>1150.4</ele>
        <time>2018-08-10T13:46:02Z</time>
      </trkpt>
      <trkpt lat="44.41438" lon="6.44195">
        <ele>1149.1</ele>
        <time>2018-08-10T13:46:03Z</time>
      </trkpt>
      <trkpt lat="44.41438" lon="6.44199">
        <ele>1147.8</ele>
        <time>2018-08-10T13:46:04Z</time>
      </trkpt>
      <trkpt lat="44.41437" lon="6.44205">
        <ele>1146</ele>
        <time>2018-08-10T13:46:06Z</time>
      </trkpt>
      <trkpt lat="44.41436" lon="6.4421">
        <ele>1143.5</ele>
        <time>2018-08-10T13:46:08Z</time>
      </trkpt>
      <trkpt lat="44.41434" lon="6.44217">
        <ele>1141.9</ele>
        <time>2018-08-10T13:46:10Z</time>
      </trkpt>
      <trkpt lat="44.41435" lon="6.44222">
        <ele>1140.3</ele>
        <time>2018-08-10T13:46:11Z</time>
      </trkpt>
      <trkpt lat="44.41437" lon="6.44225">
        <ele>1138.5</ele>
        <time>2018-08-10T13:46:12Z</time>
      </trkpt>
      <trkpt lat="44.41439" lon="6.4423">
        <ele>1137.4</ele>
        <time>2018-08-10T13:46:14Z</time>
      </trkpt>
      <trkpt lat="44.41441" lon="6.44234">
        <ele>1137.4</ele>
        <time>2018-08-10T13:46:15Z</time>
      </trkpt>
      <trkpt lat="44.41444" lon="6.44237">
        <ele>1137.3</ele>
        <time>2018-08-10T13:46:16Z</time>
      </trkpt>
      <trkpt lat="44.41446" lon="6.44241">
        <ele>1134.7</ele>
        <time>2018-08-10T13:46:17Z</time>
      </trkpt>
      <trkpt lat="44.41449" lon="6.44245">
        <ele>1132</ele>
        <time>2018-08-10T13:46:18Z</time>
      </trkpt>
      <trkpt lat="44.41449" lon="6.44249">
        <ele>1130.4</ele>
        <time>2018-08-10T13:46:19Z</time>
      </trkpt>
      <trkpt lat="44.41451" lon="6.44252">
        <ele>1129.2</ele>
        <time>2018-08-10T13:46:20Z</time>
      </trkpt>
      <trkpt lat="44.41452" lon="6.44256">
        <ele>1128</ele>
        <time>2018-08-10T13:46:21Z</time>
      </trkpt>
      <trkpt lat="44.4145" lon="6.44262">
        <ele>1125.4</ele>
        <time>2018-08-10T13:46:23Z</time>
      </trkpt>
      <trkpt lat="44.4145" lon="6.44266">
        <ele>1123.4</ele>
        <time>2018-08-10T13:46:25Z</time>
      </trkpt>
      <trkpt lat="44.41449" lon="6.44272">
        <ele>1121.1</ele>
        <time>2018-08-10T13:46:27Z</time>
      </trkpt>
      <trkpt lat="44.41453" lon="6.44276">
        <ele>1118.6</ele>
        <time>2018-08-10T13:46:29Z</time>
      </trkpt>
      <trkpt lat="44.41457" lon="6.44274">
        <ele>1117.1</ele>
        <time>2018-08-10T13:46:31Z</time>
      </trkpt>
      <trkpt lat="44.41462" lon="6.44277">
        <ele>1115.9</ele>
        <time>2018-08-10T13:46:33Z</time>
      </trkpt>
      <trkpt lat="44.41464" lon="6.4428">
        <ele>1115.4</ele>
        <time>2018-08-10T13:46:34Z</time>
      </trkpt>
      <trkpt lat="44.41465" lon="6.44288">
        <ele>1114.2</ele>
        <time>2018-08-10T13:46:36Z</time>
      </trkpt>
      <trkpt lat="44.41462" lon="6.4429">
        <ele>1113</ele>
        <time>2018-08-10T13:46:37Z</time>
      </trkpt>
      <trkpt lat="44.41458" lon="6.44295">
        <ele>1111.9</ele>
        <time>2018-08-10T13:46:38Z</time>
      </trkpt>
      <trkpt lat="44.41455" lon="6.44299">
        <ele>1111</ele>
        <time>2018-08-10T13:46:39Z</time>
      </trkpt>
      <trkpt lat="44.41452" lon="6.44303">
        <ele>1108.9</ele>
        <time>2018-08-10T13:46:40Z</time>
      </trkpt>
      <trkpt lat="44.41453" lon="6.44308">
        <ele>1107</ele>
        <time>2018-08-10T13:46:41Z</time>
      </trkpt>
      <trkpt lat="44.41453" lon="6.44313">
        <ele>1105.4</ele>
        <time>2018-08-10T13:46:42Z</time>
      </trkpt>
      <trkpt lat="44.41454" lon="6.44317">
        <ele>1103.9</ele>
        <time>2018-08-10T13:46:43Z</time>
      </trkpt>
      <trkpt lat="44.41454" lon="6.44323">
        <ele>1101.7</ele>
        <time>2018-08-10T13:46:44Z</time>
      </trkpt>
      <trkpt lat="44.41453" lon="6.4433">
        <ele>1099.1</ele>
        <time>2018-08-10T13:46:45Z</time>
      </trkpt>
      <trkpt lat="44.41452" lon="6.44335">
        <ele>1097.2</ele>
        <time>2018-08-10T13:46:46Z</time>
      </trkpt>
      <trkpt lat="44.41453" lon="6.44342">
        <ele>1093.9</ele>
        <time>2018-08-10T13:46:47Z</time>
      </trkpt>
      <trkpt lat="44.41455" lon="6.44349">
        <ele>1091.2</ele>
        <time>2018-08-10T13:46:48Z</time>
      </trkpt>
      <trkpt lat="44.41459" lon="6.44353">
        <ele>1089.7</ele>
        <time>2018-08-10T13:46:49Z</time>
      </trkpt>
      <trkpt lat="44.41462" lon="6.44358">
        <ele>1088.2</ele>
        <time>2018-08-10T13:46:50Z</time>
      </trkpt>
      <trkpt lat="44.41463" lon="6.44361">
        <ele>1087.3</ele>
        <time>2018-08-10T13:46:51Z</time>
      </trkpt>
      <trkpt lat="44.41465" lon="6.44365">
        <ele>1086.2</ele>
        <time>2018-08-10T13:46:52Z</time>
      </trkpt>
      <trkpt lat="44.41465" lon="6.44374">
        <ele>1083</ele>
        <time>2018-08-10T13:46:54Z</time>
      </trkpt>
      <trkpt lat="44.41466" lon="6.4438">
        <ele>1080.4</ele>
        <time>2018-08-10T13:46:55Z</time>
      </trkpt>
      <trkpt lat="44.41468" lon="6.44385">
        <ele>1078.4</ele>
        <time>2018-08-10T13:46:56Z</time>
      </trkpt>
      <trkpt lat="44.4147" lon="6.44389">
        <ele>1076.6</ele>
        <time>2018-08-10T13:46:57Z</time>
      </trkpt>
      <trkpt lat="44.41474" lon="6.44394">
        <ele>1073.8</ele>
        <time>2018-08-10T13:46:58Z</time>
      </trkpt>
      <trkpt lat="44.41476" lon="6.44398">
        <ele>1071.6</ele>
        <time>2018-08-10T13:46:59Z</time>
      </trkpt>
      <trkpt lat="44.41477" lon="6.44402">
        <ele>1069.7</ele>
        <time>2018-08-10T13:47:00Z</time>
      </trkpt>
      <trkpt lat="44.41477" lon="6.44407">
        <ele>1067.8</ele>
        <time>2018-08-10T13:47:01Z</time>
      </trkpt>
      <trkpt lat="44.41477" lon="6.44411">
        <ele>1066</ele>
        <time>2018-08-10T13:47:02Z</time>
      </trkpt>
      <trkpt lat="44.41477" lon="6.44419">
        <ele>1066.7</ele>
        <time>2018-08-10T13:47:03Z</time>
      </trkpt>
      <trkpt lat="44.41477" lon="6.44425">
        <ele>1065.6</ele>
        <time>2018-08-10T13:47:04Z</time>
      </trkpt>
      <trkpt lat="44.41479" lon="6.44431">
        <ele>1064.4</ele>
        <time>2018-08-10T13:47:05Z</time>
      </trkpt>
      <trkpt lat="44.41478" lon="6.44436">
        <ele>1062.6</ele>
        <time>2018-08-10T13:47:06Z</time>
      </trkpt>
      <trkpt lat="44.41477" lon="6.44442">
        <ele>1058.8</ele>
        <time>2018-08-10T13:47:08Z</time>
      </trkpt>
      <trkpt lat="44.41474" lon="6.44445">
        <ele>1057.8</ele>
        <time>2018-08-10T13:47:11Z</time>
      </trkpt>
      <trkpt lat="44.41472" lon="6.4445">
        <ele>1055.8</ele>
        <time>2018-08-10T13:47:13Z</time>
      </trkpt>
      <trkpt lat="44.41469" lon="6.44458">
        <ele>1053.5</ele>
        <time>2018-08-10T13:47:15Z</time>
      </trkpt>
      <trkpt lat="44.41468" lon="6.44462">
        <ele>1052.5</ele>
        <time>2018-08-10T13:47:16Z</time>
      </trkpt>
      <trkpt lat="44.41467" lon="6.44467">
        <ele>1052.3</ele>
        <time>2018-08-10T13:47:17Z</time>
      </trkpt>
      <trkpt lat="44.41465" lon="6.44473">
        <ele>1054</ele>
        <time>2018-08-10T13:47:18Z</time>
      </trkpt>
      <trkpt lat="44.41463" lon="6.4448">
        <ele>1054.6</ele>
        <time>2018-08-10T13:47:19Z</time>
      </trkpt>
      <trkpt lat="44.41459" lon="6.44484">
        <ele>1054.7</ele>
        <time>2018-08-10T13:47:20Z</time>
      </trkpt>
      <trkpt lat="44.41457" lon="6.44487">
        <ele>1055</ele>
        <time>2018-08-10T13:47:22Z</time>
      </trkpt>
      <trkpt lat="44.41454" lon="6.44486">
        <ele>1055.2</ele>
        <time>2018-08-10T13:47:33Z</time>
      </trkpt>
      <trkpt lat="44.41454" lon="6.4449">
        <ele>1055.5</ele>
        <time>2018-08-10T13:47:39Z</time>
      </trkpt>
      <trkpt lat="44.41455" lon="6.44495">
        <ele>1055.2</ele>
        <time>2018-08-10T13:47:42Z</time>
      </trkpt>
      <trkpt lat="44.41452" lon="6.44497">
        <ele>1054.9</ele>
        <time>2018-08-10T13:47:44Z</time>
      </trkpt>
      <trkpt lat="44.4145" lon="6.44499">
        <ele>1054.7</ele>
        <time>2018-08-10T13:47:45Z</time>
      </trkpt>
      <trkpt lat="44.41446" lon="6.445">
        <ele>1054.6</ele>
        <time>2018-08-10T13:47:46Z</time>
      </trkpt>
      <trkpt lat="44.41443" lon="6.44502">
        <ele>1054.5</ele>
        <time>2018-08-10T13:47:48Z</time>
      </trkpt>
      <trkpt lat="44.41441" lon="6.44506">
        <ele>1054.5</ele>
        <time>2018-08-10T13:47:50Z</time>
      </trkpt>
      <trkpt lat="44.41437" lon="6.44511">
        <ele>1055</ele>
        <time>2018-08-10T13:47:52Z</time>
      </trkpt>
      <trkpt lat="44.41434" lon="6.44515">
        <ele>1055.9</ele>
        <time>2018-08-10T13:47:53Z</time>
      </trkpt>
      <trkpt lat="44.41431" lon="6.44517">
        <ele>1056.5</ele>
        <time>2018-08-10T13:47:54Z</time>
      </trkpt>
      <trkpt lat="44.4143" lon="6.44522">
        <ele>1057.1</ele>
        <time>2018-08-10T13:47:55Z</time>
      </trkpt>
      <trkpt lat="44.41428" lon="6.44526">
        <ele>1057.8</ele>
        <time>2018-08-10T13:47:56Z</time>
      </trkpt>
      <trkpt lat="44.41425" lon="6.44531">
        <ele>1058.6</ele>
        <time>2018-08-10T13:47:57Z</time>
      </trkpt>
      <trkpt lat="44.41423" lon="6.44535">
        <ele>1060.3</ele>
        <time>2018-08-10T13:47:58Z</time>
      </trkpt>
      <trkpt lat="44.4142" lon="6.4454">
        <ele>1062.5</ele>
        <time>2018-08-10T13:47:59Z</time>
      </trkpt>
      <trkpt lat="44.41416" lon="6.44543">
        <ele>1063.5</ele>
        <time>2018-08-10T13:48:00Z</time>
      </trkpt>
      <trkpt lat="44.41414" lon="6.44548">
        <ele>1064.2</ele>
        <time>2018-08-10T13:48:01Z</time>
      </trkpt>
      <trkpt lat="44.41411" lon="6.44553">
        <ele>1062.8</ele>
        <time>2018-08-10T13:48:02Z</time>
      </trkpt>
      <trkpt lat="44.41408" lon="6.44557">
        <ele>1060.8</ele>
        <time>2018-08-10T13:48:03Z</time>
      </trkpt>
      <trkpt lat="44.41407" lon="6.44561">
        <ele>1059.1</ele>
        <time>2018-08-10T13:48:04Z</time>
      </trkpt>
      <trkpt lat="44.41404" lon="6.44564">
        <ele>1057.4</ele>
        <time>2018-08-10T13:48:05Z</time>
      </trkpt>
      <trkpt lat="44.41402" lon="6.44569">
        <ele>1055.7</ele>
        <time>2018-08-10T13:48:06Z</time>
      </trkpt>
      <trkpt lat="44.41398" lon="6.44575">
        <ele>1051.7</ele>
        <time>2018-08-10T13:48:08Z</time>
      </trkpt>
      <trkpt lat="44.41395" lon="6.44579">
        <ele>1049.1</ele>
        <time>2018-08-10T13:48:09Z</time>
      </trkpt>
      <trkpt lat="44.41391" lon="6.44583">
        <ele>1046.8</ele>
        <time>2018-08-10T13:48:10Z</time>
      </trkpt>
      <trkpt lat="44.41389" lon="6.44588">
        <ele>1045.7</ele>
        <time>2018-08-10T13:48:11Z</time>
      </trkpt>
      <trkpt lat="44.41387" lon="6.44591">
        <ele>1047.1</ele>
        <time>2018-08-10T13:48:12Z</time>
      </trkpt>
      <trkpt lat="44.41385" lon="6.44595">
        <ele>1048.8</ele>
        <time>2018-08-10T13:48:13Z</time>
      </trkpt>
      <trkpt lat="44.41381" lon="6.446">
        <ele>1048.3</ele>
        <time>2018-08-10T13:48:14Z</time>
      </trkpt>
      <trkpt lat="44.41378" lon="6.44603">
        <ele>1047.3</ele>
        <time>2018-08-10T13:48:15Z</time>
      </trkpt>
      <trkpt lat="44.41375" lon="6.4461">
        <ele>1047.2</ele>
        <time>2018-08-10T13:48:16Z</time>
      </trkpt>
      <trkpt lat="44.41372" lon="6.44614">
        <ele>1046.9</ele>
        <time>2018-08-10T13:48:17Z</time>
      </trkpt>
      <trkpt lat="44.41367" lon="6.44619">
        <ele>1045.8</ele>
        <time>2018-08-10T13:48:18Z</time>
      </trkpt>
      <trkpt lat="44.41363" lon="6.44627">
        <ele>1043.2</ele>
        <time>2018-08-10T13:48:19Z</time>
      </trkpt>
      <trkpt lat="44.41361" lon="6.44633">
        <ele>1040.8</ele>
        <time>2018-08-10T13:48:20Z</time>
      </trkpt>
      <trkpt lat="44.41358" lon="6.4464">
        <ele>1038.6</ele>
        <time>2018-08-10T13:48:21Z</time>
      </trkpt>
      <trkpt lat="44.41355" lon="6.44648">
        <ele>1036.8</ele>
        <time>2018-08-10T13:48:22Z</time>
      </trkpt>
      <trkpt lat="44.41352" lon="6.44652">
        <ele>1036</ele>
        <time>2018-08-10T13:48:23Z</time>
      </trkpt>
      <trkpt lat="44.41348" lon="6.44658">
        <ele>1032.2</ele>
        <time>2018-08-10T13:48:24Z</time>
      </trkpt>
      <trkpt lat="44.41344" lon="6.44662">
        <ele>1029.5</ele>
        <time>2018-08-10T13:48:25Z</time>
      </trkpt>
      <trkpt lat="44.41341" lon="6.44664">
        <ele>1028.6</ele>
        <time>2018-08-10T13:48:26Z</time>
      </trkpt>
      <trkpt lat="44.41339" lon="6.44668">
        <ele>1027.7</ele>
        <time>2018-08-10T13:48:27Z</time>
      </trkpt>
      <trkpt lat="44.41337" lon="6.44672">
        <ele>1026.7</ele>
        <time>2018-08-10T13:48:28Z</time>
      </trkpt>
      <trkpt lat="44.41334" lon="6.44675">
        <ele>1023.9</ele>
        <time>2018-08-10T13:48:29Z</time>
      </trkpt>
      <trkpt lat="44.41331" lon="6.4468">
        <ele>1020.7</ele>
        <time>2018-08-10T13:48:30Z</time>
      </trkpt>
      <trkpt lat="44.41329" lon="6.44684">
        <ele>1020.7</ele>
        <time>2018-08-10T13:48:31Z</time>
      </trkpt>
      <trkpt lat="44.4133" lon="6.44689">
        <ele>1020.6</ele>
        <time>2018-08-10T13:48:32Z</time>
      </trkpt>
      <trkpt lat="44.41328" lon="6.44693">
        <ele>1020.6</ele>
        <time>2018-08-10T13:48:33Z</time>
      </trkpt>
      <trkpt lat="44.4133" lon="6.44696">
        <ele>1021.1</ele>
        <time>2018-08-10T13:48:39Z</time>
      </trkpt>
      <trkpt lat="44.4133" lon="6.44703">
        <ele>1022.9</ele>
        <time>2018-08-10T13:49:32Z</time>
      </trkpt>
      <trkpt lat="44.41327" lon="6.44703">
        <ele>1021.1</ele>
        <time>2018-08-10T13:49:51Z</time>
      </trkpt>
      <trkpt lat="44.41323" lon="6.44706">
        <ele>1019.1</ele>
        <time>2018-08-10T13:49:53Z</time>
      </trkpt>
      <trkpt lat="44.41318" lon="6.44709">
        <ele>1018.5</ele>
        <time>2018-08-10T13:49:55Z</time>
      </trkpt>
      <trkpt lat="44.41314" lon="6.44714">
        <ele>1016.8</ele>
        <time>2018-08-10T13:49:57Z</time>
      </trkpt>
      <trkpt lat="44.41311" lon="6.44717">
        <ele>1016.3</ele>
        <time>2018-08-10T13:49:58Z</time>
      </trkpt>
      <trkpt lat="44.41307" lon="6.44719">
        <ele>1017.3</ele>
        <time>2018-08-10T13:49:59Z</time>
      </trkpt>
      <trkpt lat="44.41302" lon="6.44722">
        <ele>1019.3</ele>
        <time>2018-08-10T13:50:00Z</time>
      </trkpt>
      <trkpt lat="44.41297" lon="6.44725">
        <ele>1022.3</ele>
        <time>2018-08-10T13:50:01Z</time>
      </trkpt>
      <trkpt lat="44.41291" lon="6.44726">
        <ele>1024.7</ele>
        <time>2018-08-10T13:50:02Z</time>
      </trkpt>
      <trkpt lat="44.41286" lon="6.44727">
        <ele>1025.5</ele>
        <time>2018-08-10T13:50:03Z</time>
      </trkpt>
      <trkpt lat="44.41281" lon="6.44727">
        <ele>1025.2</ele>
        <time>2018-08-10T13:50:04Z</time>
      </trkpt>
      <trkpt lat="44.41277" lon="6.44728">
        <ele>1027.8</ele>
        <time>2018-08-10T13:50:05Z</time>
      </trkpt>
      <trkpt lat="44.41275" lon="6.44727">
        <ele>1030.3</ele>
        <time>2018-08-10T13:50:06Z</time>
      </trkpt>
      <trkpt lat="44.41271" lon="6.44727">
        <ele>1033.2</ele>
        <time>2018-08-10T13:50:07Z</time>
      </trkpt>
      <trkpt lat="44.41267" lon="6.44726">
        <ele>1034.9</ele>
        <time>2018-08-10T13:50:08Z</time>
      </trkpt>
      <trkpt lat="44.41264" lon="6.44726">
        <ele>1036.3</ele>
        <time>2018-08-10T13:50:09Z</time>
      </trkpt>
      <trkpt lat="44.41259" lon="6.44726">
        <ele>1039.7</ele>
        <time>2018-08-10T13:50:11Z</time>
      </trkpt>
      <trkpt lat="44.41253" lon="6.44725">
        <ele>1043.4</ele>
        <time>2018-08-10T13:50:13Z</time>
      </trkpt>
      <trkpt lat="44.41249" lon="6.44726">
        <ele>1042.9</ele>
        <time>2018-08-10T13:50:14Z</time>
      </trkpt>
      <trkpt lat="44.41246" lon="6.44727">
        <ele>1042.5</ele>
        <time>2018-08-10T13:50:15Z</time>
      </trkpt>
      <trkpt lat="44.41243" lon="6.44728">
        <ele>1042.1</ele>
        <time>2018-08-10T13:50:16Z</time>
      </trkpt>
      <trkpt lat="44.4124" lon="6.4473">
        <ele>1041.7</ele>
        <time>2018-08-10T13:50:17Z</time>
      </trkpt>
      <trkpt lat="44.41237" lon="6.44731">
        <ele>1041.3</ele>
        <time>2018-08-10T13:50:18Z</time>
      </trkpt>
      <trkpt lat="44.41233" lon="6.44733">
        <ele>1040.7</ele>
        <time>2018-08-10T13:50:19Z</time>
      </trkpt>
      <trkpt lat="44.41229" lon="6.44737">
        <ele>1040</ele>
        <time>2018-08-10T13:50:20Z</time>
      </trkpt>
      <trkpt lat="44.41225" lon="6.44742">
        <ele>1039.5</ele>
        <time>2018-08-10T13:50:21Z</time>
      </trkpt>
      <trkpt lat="44.41219" lon="6.44746">
        <ele>1039.6</ele>
        <time>2018-08-10T13:50:22Z</time>
      </trkpt>
      <trkpt lat="44.41212" lon="6.4475">
        <ele>1039</ele>
        <time>2018-08-10T13:50:23Z</time>
      </trkpt>
      <trkpt lat="44.41205" lon="6.44753">
        <ele>1038.8</ele>
        <time>2018-08-10T13:50:24Z</time>
      </trkpt>
      <trkpt lat="44.41201" lon="6.44758">
        <ele>1038.1</ele>
        <time>2018-08-10T13:50:25Z</time>
      </trkpt>
      <trkpt lat="44.41195" lon="6.4476">
        <ele>1036</ele>
        <time>2018-08-10T13:50:26Z</time>
      </trkpt>
      <trkpt lat="44.41189" lon="6.44764">
        <ele>1035.1</ele>
        <time>2018-08-10T13:50:27Z</time>
      </trkpt>
      <trkpt lat="44.41184" lon="6.44769">
        <ele>1034.6</ele>
        <time>2018-08-10T13:50:28Z</time>
      </trkpt>
      <trkpt lat="44.41178" lon="6.44771">
        <ele>1034.3</ele>
        <time>2018-08-10T13:50:29Z</time>
      </trkpt>
      <trkpt lat="44.41173" lon="6.44773">
        <ele>1031.8</ele>
        <time>2018-08-10T13:50:30Z</time>
      </trkpt>
      <trkpt lat="44.41169" lon="6.44776">
        <ele>1029.5</ele>
        <time>2018-08-10T13:50:31Z</time>
      </trkpt>
      <trkpt lat="44.41163" lon="6.44777">
        <ele>1029.3</ele>
        <time>2018-08-10T13:50:32Z</time>
      </trkpt>
      <trkpt lat="44.4116" lon="6.44778">
        <ele>1029.2</ele>
        <time>2018-08-10T13:50:33Z</time>
      </trkpt>
      <trkpt lat="44.41157" lon="6.44781">
        <ele>1028.8</ele>
        <time>2018-08-10T13:50:34Z</time>
      </trkpt>
      <trkpt lat="44.41154" lon="6.44784">
        <ele>1028.6</ele>
        <time>2018-08-10T13:50:35Z</time>
      </trkpt>
      <trkpt lat="44.41149" lon="6.44786">
        <ele>1027.5</ele>
        <time>2018-08-10T13:50:37Z</time>
      </trkpt>
      <trkpt lat="44.41145" lon="6.44788">
        <ele>1026.2</ele>
        <time>2018-08-10T13:50:39Z</time>
      </trkpt>
      <trkpt lat="44.41139" lon="6.4479">
        <ele>1025.7</ele>
        <time>2018-08-10T13:50:42Z</time>
      </trkpt>
      <trkpt lat="44.41136" lon="6.44791">
        <ele>1025.5</ele>
        <time>2018-08-10T13:50:44Z</time>
      </trkpt>
      <trkpt lat="44.41132" lon="6.44793">
        <ele>1025.7</ele>
        <time>2018-08-10T13:50:46Z</time>
      </trkpt>
      <trkpt lat="44.41133" lon="6.44797">
        <ele>1025.9</ele>
        <time>2018-08-10T13:50:53Z</time>
      </trkpt>
      <trkpt lat="44.41132" lon="6.44802">
        <ele>1026.2</ele>
        <time>2018-08-10T13:51:50Z</time>
      </trkpt>
      <trkpt lat="44.41127" lon="6.44807">
        <ele>1026</ele>
        <time>2018-08-10T13:51:52Z</time>
      </trkpt>
      <trkpt lat="44.41124" lon="6.44809">
        <ele>1027</ele>
        <time>2018-08-10T13:51:53Z</time>
      </trkpt>
      <trkpt lat="44.4112" lon="6.44809">
        <ele>1028.1</ele>
        <time>2018-08-10T13:51:54Z</time>
      </trkpt>
      <trkpt lat="44.41117" lon="6.44811">
        <ele>1027.8</ele>
        <time>2018-08-10T13:51:55Z</time>
      </trkpt>
      <trkpt lat="44.41113" lon="6.44812">
        <ele>1028.4</ele>
        <time>2018-08-10T13:51:56Z</time>
      </trkpt>
      <trkpt lat="44.41111" lon="6.44816">
        <ele>1029.8</ele>
        <time>2018-08-10T13:51:58Z</time>
      </trkpt>
      <trkpt lat="44.41107" lon="6.44818">
        <ele>1030.2</ele>
        <time>2018-08-10T13:52:00Z</time>
      </trkpt>
      <trkpt lat="44.41104" lon="6.44818">
        <ele>1030.3</ele>
        <time>2018-08-10T13:52:02Z</time>
      </trkpt>
      <trkpt lat="44.41101" lon="6.44818">
        <ele>1031.4</ele>
        <time>2018-08-10T13:52:03Z</time>
      </trkpt>
      <trkpt lat="44.41097" lon="6.44818">
        <ele>1032.3</ele>
        <time>2018-08-10T13:52:05Z</time>
      </trkpt>
      <trkpt lat="44.41092" lon="6.44822">
        <ele>1030.7</ele>
        <time>2018-08-10T13:52:07Z</time>
      </trkpt>
      <trkpt lat="44.4109" lon="6.44826">
        <ele>1029.7</ele>
        <time>2018-08-10T13:52:08Z</time>
      </trkpt>
      <trkpt lat="44.41087" lon="6.44829">
        <ele>1028.9</ele>
        <time>2018-08-10T13:52:09Z</time>
      </trkpt>
      <trkpt lat="44.41084" lon="6.44833">
        <ele>1028.2</ele>
        <time>2018-08-10T13:52:10Z</time>
      </trkpt>
      <trkpt lat="44.41079" lon="6.44841">
        <ele>1029</ele>
        <time>2018-08-10T13:52:11Z</time>
      </trkpt>
      <trkpt lat="44.41072" lon="6.44845">
        <ele>1028.3</ele>
        <time>2018-08-10T13:52:12Z</time>
      </trkpt>
      <trkpt lat="44.41068" lon="6.4485">
        <ele>1027.9</ele>
        <time>2018-08-10T13:52:13Z</time>
      </trkpt>
      <trkpt lat="44.41066" lon="6.44855">
        <ele>1027.8</ele>
        <time>2018-08-10T13:52:14Z</time>
      </trkpt>
      <trkpt lat="44.41061" lon="6.4486">
        <ele>1027</ele>
        <time>2018-08-10T13:52:15Z</time>
      </trkpt>
      <trkpt lat="44.41058" lon="6.44866">
        <ele>1026.1</ele>
        <time>2018-08-10T13:52:16Z</time>
      </trkpt>
      <trkpt lat="44.41054" lon="6.44871">
        <ele>1025</ele>
        <time>2018-08-10T13:52:17Z</time>
      </trkpt>
      <trkpt lat="44.41051" lon="6.44877">
        <ele>1023</ele>
        <time>2018-08-10T13:52:18Z</time>
      </trkpt>
      <trkpt lat="44.41049" lon="6.44884">
        <ele>1020.5</ele>
        <time>2018-08-10T13:52:19Z</time>
      </trkpt>
      <trkpt lat="44.41046" lon="6.44889">
        <ele>1020.2</ele>
        <time>2018-08-10T13:52:20Z</time>
      </trkpt>
      <trkpt lat="44.41044" lon="6.44895">
        <ele>1018.9</ele>
        <time>2018-08-10T13:52:21Z</time>
      </trkpt>
      <trkpt lat="44.41041" lon="6.449">
        <ele>1018.2</ele>
        <time>2018-08-10T13:52:22Z</time>
      </trkpt>
      <trkpt lat="44.41039" lon="6.44906">
        <ele>1017.2</ele>
        <time>2018-08-10T13:52:23Z</time>
      </trkpt>
      <trkpt lat="44.41036" lon="6.4491">
        <ele>1015.8</ele>
        <time>2018-08-10T13:52:24Z</time>
      </trkpt>
      <trkpt lat="44.41033" lon="6.44913">
        <ele>1014.4</ele>
        <time>2018-08-10T13:52:25Z</time>
      </trkpt>
      <trkpt lat="44.41029" lon="6.44917">
        <ele>1013.1</ele>
        <time>2018-08-10T13:52:26Z</time>
      </trkpt>
      <trkpt lat="44.41026" lon="6.44922">
        <ele>1012.1</ele>
        <time>2018-08-10T13:52:27Z</time>
      </trkpt>
      <trkpt lat="44.41025" lon="6.44927">
        <ele>1011</ele>
        <time>2018-08-10T13:52:28Z</time>
      </trkpt>
      <trkpt lat="44.41024" lon="6.44932">
        <ele>1009.7</ele>
        <time>2018-08-10T13:52:29Z</time>
      </trkpt>
      <trkpt lat="44.41023" lon="6.44937">
        <ele>1008.3</ele>
        <time>2018-08-10T13:52:30Z</time>
      </trkpt>
      <trkpt lat="44.41022" lon="6.44942">
        <ele>1007.3</ele>
        <time>2018-08-10T13:52:31Z</time>
      </trkpt>
      <trkpt lat="44.41019" lon="6.44949">
        <ele>1006.2</ele>
        <time>2018-08-10T13:52:32Z</time>
      </trkpt>
      <trkpt lat="44.41017" lon="6.44956">
        <ele>1005.9</ele>
        <time>2018-08-10T13:52:33Z</time>
      </trkpt>
      <trkpt lat="44.41015" lon="6.44962">
        <ele>1005.1</ele>
        <time>2018-08-10T13:52:34Z</time>
      </trkpt>
      <trkpt lat="44.41013" lon="6.44969">
        <ele>1004.7</ele>
        <time>2018-08-10T13:52:35Z</time>
      </trkpt>
      <trkpt lat="44.41011" lon="6.44976">
        <ele>1004.3</ele>
        <time>2018-08-10T13:52:36Z</time>
      </trkpt>
      <trkpt lat="44.41008" lon="6.44983">
        <ele>1004</ele>
        <time>2018-08-10T13:52:37Z</time>
      </trkpt>
      <trkpt lat="44.41007" lon="6.44991">
        <ele>1004</ele>
        <time>2018-08-10T13:52:38Z</time>
      </trkpt>
      <trkpt lat="44.41007" lon="6.44996">
        <ele>1001.7</ele>
        <time>2018-08-10T13:52:39Z</time>
      </trkpt>
      <trkpt lat="44.4101" lon="6.44999">
        <ele>999.5</ele>
        <time>2018-08-10T13:52:40Z</time>
      </trkpt>
      <trkpt lat="44.41012" lon="6.45001">
        <ele>997.4</ele>
        <time>2018-08-10T13:52:41Z</time>
      </trkpt>
      <trkpt lat="44.41016" lon="6.45004">
        <ele>994.9</ele>
        <time>2018-08-10T13:52:42Z</time>
      </trkpt>
      <trkpt lat="44.41021" lon="6.45007">
        <ele>992.4</ele>
        <time>2018-08-10T13:52:43Z</time>
      </trkpt>
      <trkpt lat="44.41025" lon="6.45008">
        <ele>990.3</ele>
        <time>2018-08-10T13:52:44Z</time>
      </trkpt>
      <trkpt lat="44.41028" lon="6.45008">
        <ele>988.7</ele>
        <time>2018-08-10T13:52:45Z</time>
      </trkpt>
      <trkpt lat="44.41032" lon="6.4501">
        <ele>987.3</ele>
        <time>2018-08-10T13:52:46Z</time>
      </trkpt>
      <trkpt lat="44.41034" lon="6.45011">
        <ele>986.5</ele>
        <time>2018-08-10T13:52:47Z</time>
      </trkpt>
      <trkpt lat="44.41035" lon="6.45017">
        <ele>985.2</ele>
        <time>2018-08-10T13:52:49Z</time>
      </trkpt>
      <trkpt lat="44.41035" lon="6.45024">
        <ele>983.6</ele>
        <time>2018-08-10T13:52:51Z</time>
      </trkpt>
      <trkpt lat="44.41035" lon="6.45028">
        <ele>982.8</ele>
        <time>2018-08-10T13:52:52Z</time>
      </trkpt>
      <trkpt lat="44.41033" lon="6.45033">
        <ele>982</ele>
        <time>2018-08-10T13:52:54Z</time>
      </trkpt>
      <trkpt lat="44.41034" lon="6.45038">
        <ele>982</ele>
        <time>2018-08-10T13:52:58Z</time>
      </trkpt>
      <trkpt lat="44.41037" lon="6.45037">
        <ele>981.9</ele>
        <time>2018-08-10T13:53:00Z</time>
      </trkpt>
      <trkpt lat="44.41039" lon="6.45031">
        <ele>981.4</ele>
        <time>2018-08-10T13:53:02Z</time>
      </trkpt>
      <trkpt lat="44.41042" lon="6.45029">
        <ele>981.2</ele>
        <time>2018-08-10T13:53:03Z</time>
      </trkpt>
      <trkpt lat="44.41044" lon="6.45025">
        <ele>980.9</ele>
        <time>2018-08-10T13:53:04Z</time>
      </trkpt>
      <trkpt lat="44.41046" lon="6.45021">
        <ele>980.5</ele>
        <time>2018-08-10T13:53:05Z</time>
      </trkpt>
      <trkpt lat="44.41048" lon="6.45015">
        <ele>980.1</ele>
        <time>2018-08-10T13:53:06Z</time>
      </trkpt>
      <trkpt lat="44.4105" lon="6.4501">
        <ele>979.7</ele>
        <time>2018-08-10T13:53:07Z</time>
      </trkpt>
      <trkpt lat="44.41053" lon="6.45007">
        <ele>979.4</ele>
        <time>2018-08-10T13:53:08Z</time>
      </trkpt>
      <trkpt lat="44.41055" lon="6.45002">
        <ele>979</ele>
        <time>2018-08-10T13:53:09Z</time>
      </trkpt>
      <trkpt lat="44.41057" lon="6.44998">
        <ele>978.7</ele>
        <time>2018-08-10T13:53:10Z</time>
      </trkpt>
      <trkpt lat="44.41059" lon="6.44993">
        <ele>978.2</ele>
        <time>2018-08-10T13:53:11Z</time>
      </trkpt>
      <trkpt lat="44.41061" lon="6.44988">
        <ele>977.7</ele>
        <time>2018-08-10T13:53:12Z</time>
      </trkpt>
      <trkpt lat="44.41064" lon="6.44982">
        <ele>977.2</ele>
        <time>2018-08-10T13:53:13Z</time>
      </trkpt>
      <trkpt lat="44.41067" lon="6.44976">
        <ele>976.8</ele>
        <time>2018-08-10T13:53:14Z</time>
      </trkpt>
      <trkpt lat="44.41069" lon="6.44971">
        <ele>976.4</ele>
        <time>2018-08-10T13:53:15Z</time>
      </trkpt>
      <trkpt lat="44.41072" lon="6.44965">
        <ele>975.9</ele>
        <time>2018-08-10T13:53:16Z</time>
      </trkpt>
      <trkpt lat="44.41075" lon="6.4496">
        <ele>975.4</ele>
        <time>2018-08-10T13:53:17Z</time>
      </trkpt>
      <trkpt lat="44.4108" lon="6.44956">
        <ele>974.9</ele>
        <time>2018-08-10T13:53:18Z</time>
      </trkpt>
      <trkpt lat="44.41085" lon="6.44954">
        <ele>974.3</ele>
        <time>2018-08-10T13:53:19Z</time>
      </trkpt>
      <trkpt lat="44.41089" lon="6.44953">
        <ele>973.7</ele>
        <time>2018-08-10T13:53:20Z</time>
      </trkpt>
      <trkpt lat="44.41093" lon="6.44954">
        <ele>973.3</ele>
        <time>2018-08-10T13:53:21Z</time>
      </trkpt>
      <trkpt lat="44.41097" lon="6.44957">
        <ele>972.9</ele>
        <time>2018-08-10T13:53:22Z</time>
      </trkpt>
      <trkpt lat="44.411" lon="6.44963">
        <ele>972.4</ele>
        <time>2018-08-10T13:53:23Z</time>
      </trkpt>
      <trkpt lat="44.41102" lon="6.44971">
        <ele>971.9</ele>
        <time>2018-08-10T13:53:24Z</time>
      </trkpt>
      <trkpt lat="44.41102" lon="6.44978">
        <ele>971.4</ele>
        <time>2018-08-10T13:53:25Z</time>
      </trkpt>
      <trkpt lat="44.41102" lon="6.44986">
        <ele>970.9</ele>
        <time>2018-08-10T13:53:26Z</time>
      </trkpt>
      <trkpt lat="44.41101" lon="6.44994">
        <ele>970.4</ele>
        <time>2018-08-10T13:53:27Z</time>
      </trkpt>
      <trkpt lat="44.411" lon="6.45001">
        <ele>969.9</ele>
        <time>2018-08-10T13:53:28Z</time>
      </trkpt>
      <trkpt lat="44.411" lon="6.45008">
        <ele>969.4</ele>
        <time>2018-08-10T13:53:29Z</time>
      </trkpt>
      <trkpt lat="44.41099" lon="6.45016">
        <ele>969.1</ele>
        <time>2018-08-10T13:53:30Z</time>
      </trkpt>
      <trkpt lat="44.411" lon="6.45024">
        <ele>968.6</ele>
        <time>2018-08-10T13:53:31Z</time>
      </trkpt>
      <trkpt lat="44.41101" lon="6.45033">
        <ele>968.1</ele>
        <time>2018-08-10T13:53:32Z</time>
      </trkpt>
      <trkpt lat="44.41103" lon="6.45043">
        <ele>967.4</ele>
        <time>2018-08-10T13:53:33Z</time>
      </trkpt>
      <trkpt lat="44.41105" lon="6.45052">
        <ele>966.7</ele>
        <time>2018-08-10T13:53:34Z</time>
      </trkpt>
      <trkpt lat="44.41107" lon="6.45061">
        <ele>966.1</ele>
        <time>2018-08-10T13:53:35Z</time>
      </trkpt>
      <trkpt lat="44.41108" lon="6.45068">
        <ele>965.4</ele>
        <time>2018-08-10T13:53:36Z</time>
      </trkpt>
      <trkpt lat="44.4111" lon="6.45075">
        <ele>964.6</ele>
        <time>2018-08-10T13:53:37Z</time>
      </trkpt>
      <trkpt lat="44.41112" lon="6.4508">
        <ele>963.9</ele>
        <time>2018-08-10T13:53:38Z</time>
      </trkpt>
      <trkpt lat="44.41115" lon="6.45085">
        <ele>963.1</ele>
        <time>2018-08-10T13:53:39Z</time>
      </trkpt>
      <trkpt lat="44.41118" lon="6.4509">
        <ele>962.5</ele>
        <time>2018-08-10T13:53:40Z</time>
      </trkpt>
      <trkpt lat="44.41121" lon="6.45095">
        <ele>962</ele>
        <time>2018-08-10T13:53:41Z</time>
      </trkpt>
      <trkpt lat="44.41124" lon="6.45099">
        <ele>961.6</ele>
        <time>2018-08-10T13:53:42Z</time>
      </trkpt>
      <trkpt lat="44.41126" lon="6.45105">
        <ele>961.1</ele>
        <time>2018-08-10T13:53:43Z</time>
      </trkpt>
      <trkpt lat="44.41128" lon="6.45112">
        <ele>960.5</ele>
        <time>2018-08-10T13:53:44Z</time>
      </trkpt>
      <trkpt lat="44.41127" lon="6.4512">
        <ele>960</ele>
        <time>2018-08-10T13:53:45Z</time>
      </trkpt>
      <trkpt lat="44.41127" lon="6.45127">
        <ele>959.6</ele>
        <time>2018-08-10T13:53:46Z</time>
      </trkpt>
      <trkpt lat="44.41125" lon="6.45133">
        <ele>959.3</ele>
        <time>2018-08-10T13:53:47Z</time>
      </trkpt>
      <trkpt lat="44.41124" lon="6.45139">
        <ele>959.2</ele>
        <time>2018-08-10T13:53:48Z</time>
      </trkpt>
      <trkpt lat="44.41122" lon="6.45144">
        <ele>959</ele>
        <time>2018-08-10T13:53:49Z</time>
      </trkpt>
      <trkpt lat="44.41121" lon="6.45151">
        <ele>958.5</ele>
        <time>2018-08-10T13:53:50Z</time>
      </trkpt>
      <trkpt lat="44.41119" lon="6.45158">
        <ele>957.7</ele>
        <time>2018-08-10T13:53:51Z</time>
      </trkpt>
      <trkpt lat="44.41117" lon="6.45164">
        <ele>957.2</ele>
        <time>2018-08-10T13:53:52Z</time>
      </trkpt>
      <trkpt lat="44.41114" lon="6.45169">
        <ele>956.6</ele>
        <time>2018-08-10T13:53:53Z</time>
      </trkpt>
      <trkpt lat="44.41112" lon="6.45175">
        <ele>956.3</ele>
        <time>2018-08-10T13:53:54Z</time>
      </trkpt>
      <trkpt lat="44.41111" lon="6.45181">
        <ele>956</ele>
        <time>2018-08-10T13:53:55Z</time>
      </trkpt>
      <trkpt lat="44.4111" lon="6.45188">
        <ele>955.6</ele>
        <time>2018-08-10T13:53:56Z</time>
      </trkpt>
      <trkpt lat="44.41106" lon="6.45195">
        <ele>955.2</ele>
        <time>2018-08-10T13:53:57Z</time>
      </trkpt>
      <trkpt lat="44.41103" lon="6.45203">
        <ele>954.6</ele>
        <time>2018-08-10T13:53:58Z</time>
      </trkpt>
      <trkpt lat="44.41101" lon="6.4521">
        <ele>954.1</ele>
        <time>2018-08-10T13:53:59Z</time>
      </trkpt>
      <trkpt lat="44.41097" lon="6.45218">
        <ele>953.8</ele>
        <time>2018-08-10T13:54:00Z</time>
      </trkpt>
      <trkpt lat="44.41094" lon="6.45224">
        <ele>953.6</ele>
        <time>2018-08-10T13:54:01Z</time>
      </trkpt>
      <trkpt lat="44.4109" lon="6.45231">
        <ele>953.3</ele>
        <time>2018-08-10T13:54:02Z</time>
      </trkpt>
      <trkpt lat="44.41087" lon="6.45237">
        <ele>953.1</ele>
        <time>2018-08-10T13:54:03Z</time>
      </trkpt>
      <trkpt lat="44.41084" lon="6.45243">
        <ele>952.9</ele>
        <time>2018-08-10T13:54:04Z</time>
      </trkpt>
      <trkpt lat="44.4108" lon="6.45249">
        <ele>952.7</ele>
        <time>2018-08-10T13:54:05Z</time>
      </trkpt>
      <trkpt lat="44.41076" lon="6.45252">
        <ele>952.5</ele>
        <time>2018-08-10T13:54:06Z</time>
      </trkpt>
      <trkpt lat="44.41071" lon="6.45257">
        <ele>952.1</ele>
        <time>2018-08-10T13:54:07Z</time>
      </trkpt>
      <trkpt lat="44.41067" lon="6.45263">
        <ele>951.8</ele>
        <time>2018-08-10T13:54:08Z</time>
      </trkpt>
      <trkpt lat="44.41063" lon="6.45269">
        <ele>951.4</ele>
        <time>2018-08-10T13:54:09Z</time>
      </trkpt>
      <trkpt lat="44.4106" lon="6.45275">
        <ele>951.2</ele>
        <time>2018-08-10T13:54:10Z</time>
      </trkpt>
      <trkpt lat="44.41056" lon="6.45281">
        <ele>950.9</ele>
        <time>2018-08-10T13:54:11Z</time>
      </trkpt>
      <trkpt lat="44.41052" lon="6.45288">
        <ele>950.6</ele>
        <time>2018-08-10T13:54:12Z</time>
      </trkpt>
      <trkpt lat="44.41047" lon="6.45295">
        <ele>950.3</ele>
        <time>2018-08-10T13:54:13Z</time>
      </trkpt>
      <trkpt lat="44.41041" lon="6.45301">
        <ele>950</ele>
        <time>2018-08-10T13:54:14Z</time>
      </trkpt>
      <trkpt lat="44.41035" lon="6.45309">
        <ele>949.8</ele>
        <time>2018-08-10T13:54:15Z</time>
      </trkpt>
      <trkpt lat="44.41027" lon="6.45317">
        <ele>949.4</ele>
        <time>2018-08-10T13:54:16Z</time>
      </trkpt>
      <trkpt lat="44.41021" lon="6.45323">
        <ele>949.1</ele>
        <time>2018-08-10T13:54:17Z</time>
      </trkpt>
      <trkpt lat="44.41014" lon="6.45329">
        <ele>949</ele>
        <time>2018-08-10T13:54:18Z</time>
      </trkpt>
      <trkpt lat="44.41008" lon="6.45333">
        <ele>949.1</ele>
        <time>2018-08-10T13:54:19Z</time>
      </trkpt>
      <trkpt lat="44.41002" lon="6.45336">
        <ele>949.1</ele>
        <time>2018-08-10T13:54:20Z</time>
      </trkpt>
      <trkpt lat="44.40997" lon="6.45338">
        <ele>949.1</ele>
        <time>2018-08-10T13:54:21Z</time>
      </trkpt>
      <trkpt lat="44.40991" lon="6.45341">
        <ele>949</ele>
        <time>2018-08-10T13:54:22Z</time>
      </trkpt>
      <trkpt lat="44.40986" lon="6.45345">
        <ele>948.8</ele>
        <time>2018-08-10T13:54:23Z</time>
      </trkpt>
      <trkpt lat="44.40981" lon="6.45348">
        <ele>948.8</ele>
        <time>2018-08-10T13:54:24Z</time>
      </trkpt>
      <trkpt lat="44.40977" lon="6.4535">
        <ele>948.7</ele>
        <time>2018-08-10T13:54:25Z</time>
      </trkpt>
      <trkpt lat="44.40972" lon="6.45352">
        <ele>948.6</ele>
        <time>2018-08-10T13:54:26Z</time>
      </trkpt>
      <trkpt lat="44.40967" lon="6.45353">
        <ele>948.5</ele>
        <time>2018-08-10T13:54:27Z</time>
      </trkpt>
      <trkpt lat="44.40962" lon="6.45355">
        <ele>948.5</ele>
        <time>2018-08-10T13:54:28Z</time>
      </trkpt>
      <trkpt lat="44.40957" lon="6.45356">
        <ele>948.4</ele>
        <time>2018-08-10T13:54:29Z</time>
      </trkpt>
      <trkpt lat="44.40952" lon="6.45357">
        <ele>948.4</ele>
        <time>2018-08-10T13:54:30Z</time>
      </trkpt>
      <trkpt lat="44.40948" lon="6.45359">
        <ele>948.4</ele>
        <time>2018-08-10T13:54:31Z</time>
      </trkpt>
      <trkpt lat="44.40944" lon="6.45361">
        <ele>948.3</ele>
        <time>2018-08-10T13:54:32Z</time>
      </trkpt>
      <trkpt lat="44.4094" lon="6.45363">
        <ele>948.3</ele>
        <time>2018-08-10T13:54:33Z</time>
      </trkpt>
      <trkpt lat="44.40936" lon="6.45365">
        <ele>948.3</ele>
        <time>2018-08-10T13:54:34Z</time>
      </trkpt>
      <trkpt lat="44.40932" lon="6.45365">
        <ele>948.3</ele>
        <time>2018-08-10T13:54:35Z</time>
      </trkpt>
      <trkpt lat="44.40928" lon="6.45368">
        <ele>948.3</ele>
        <time>2018-08-10T13:54:36Z</time>
      </trkpt>
      <trkpt lat="44.40924" lon="6.45371">
        <ele>948.4</ele>
        <time>2018-08-10T13:54:37Z</time>
      </trkpt>
      <trkpt lat="44.4092" lon="6.45372">
        <ele>948.4</ele>
        <time>2018-08-10T13:54:38Z</time>
      </trkpt>
      <trkpt lat="44.40915" lon="6.45373">
        <ele>948.5</ele>
        <time>2018-08-10T13:54:39Z</time>
      </trkpt>
      <trkpt lat="44.40911" lon="6.45374">
        <ele>948.5</ele>
        <time>2018-08-10T13:54:40Z</time>
      </trkpt>
      <trkpt lat="44.40906" lon="6.45375">
        <ele>948.6</ele>
        <time>2018-08-10T13:54:41Z</time>
      </trkpt>
      <trkpt lat="44.40902" lon="6.45376">
        <ele>948.6</ele>
        <time>2018-08-10T13:54:42Z</time>
      </trkpt>
      <trkpt lat="44.40898" lon="6.45377">
        <ele>948.6</ele>
        <time>2018-08-10T13:54:43Z</time>
      </trkpt>
      <trkpt lat="44.40894" lon="6.45378">
        <ele>948.7</ele>
        <time>2018-08-10T13:54:44Z</time>
      </trkpt>
      <trkpt lat="44.40889" lon="6.45379">
        <ele>948.7</ele>
        <time>2018-08-10T13:54:45Z</time>
      </trkpt>
      <trkpt lat="44.40885" lon="6.45383">
        <ele>948.7</ele>
        <time>2018-08-10T13:54:46Z</time>
      </trkpt>
      <trkpt lat="44.40882" lon="6.45385">
        <ele>948.7</ele>
        <time>2018-08-10T13:54:47Z</time>
      </trkpt>
      <trkpt lat="44.40878" lon="6.45388">
        <ele>948.7</ele>
        <time>2018-08-10T13:54:48Z</time>
      </trkpt>
      <trkpt lat="44.40875" lon="6.45391">
        <ele>948.8</ele>
        <time>2018-08-10T13:54:49Z</time>
      </trkpt>
      <trkpt lat="44.40872" lon="6.45393">
        <ele>948.8</ele>
        <time>2018-08-10T13:54:50Z</time>
      </trkpt>
      <trkpt lat="44.40868" lon="6.45395">
        <ele>948.8</ele>
        <time>2018-08-10T13:54:51Z</time>
      </trkpt>
      <trkpt lat="44.40863" lon="6.45398">
        <ele>948.9</ele>
        <time>2018-08-10T13:54:52Z</time>
      </trkpt>
      <trkpt lat="44.40859" lon="6.454">
        <ele>948.9</ele>
        <time>2018-08-10T13:54:53Z</time>
      </trkpt>
      <trkpt lat="44.40854" lon="6.45404">
        <ele>948.9</ele>
        <time>2018-08-10T13:54:54Z</time>
      </trkpt>
      <trkpt lat="44.4085" lon="6.45408">
        <ele>948.9</ele>
        <time>2018-08-10T13:54:55Z</time>
      </trkpt>
      <trkpt lat="44.40846" lon="6.4541">
        <ele>948.8</ele>
        <time>2018-08-10T13:54:56Z</time>
      </trkpt>
      <trkpt lat="44.40842" lon="6.45411">
        <ele>948.8</ele>
        <time>2018-08-10T13:54:57Z</time>
      </trkpt>
      <trkpt lat="44.40838" lon="6.45413">
        <ele>948.8</ele>
        <time>2018-08-10T13:54:58Z</time>
      </trkpt>
      <trkpt lat="44.40834" lon="6.45415">
        <ele>948.8</ele>
        <time>2018-08-10T13:54:59Z</time>
      </trkpt>
      <trkpt lat="44.40831" lon="6.45419">
        <ele>948.8</ele>
        <time>2018-08-10T13:55:00Z</time>
      </trkpt>
      <trkpt lat="44.40827" lon="6.45422">
        <ele>948.8</ele>
        <time>2018-08-10T13:55:01Z</time>
      </trkpt>
      <trkpt lat="44.40823" lon="6.45426">
        <ele>948.8</ele>
        <time>2018-08-10T13:55:02Z</time>
      </trkpt>
      <trkpt lat="44.4082" lon="6.4543">
        <ele>948.8</ele>
        <time>2018-08-10T13:55:03Z</time>
      </trkpt>
      <trkpt lat="44.40816" lon="6.45433">
        <ele>948.7</ele>
        <time>2018-08-10T13:55:04Z</time>
      </trkpt>
      <trkpt lat="44.40814" lon="6.45439">
        <ele>948.7</ele>
        <time>2018-08-10T13:55:05Z</time>
      </trkpt>
      <trkpt lat="44.4081" lon="6.45443">
        <ele>948.7</ele>
        <time>2018-08-10T13:55:06Z</time>
      </trkpt>
      <trkpt lat="44.40806" lon="6.45448">
        <ele>948.7</ele>
        <time>2018-08-10T13:55:07Z</time>
      </trkpt>
      <trkpt lat="44.40802" lon="6.45452">
        <ele>948.7</ele>
        <time>2018-08-10T13:55:08Z</time>
      </trkpt>
      <trkpt lat="44.408" lon="6.45456">
        <ele>948.7</ele>
        <time>2018-08-10T13:55:09Z</time>
      </trkpt>
      <trkpt lat="44.40797" lon="6.45462">
        <ele>948.7</ele>
        <time>2018-08-10T13:55:10Z</time>
      </trkpt>
      <trkpt lat="44.40792" lon="6.45465">
        <ele>948.7</ele>
        <time>2018-08-10T13:55:11Z</time>
      </trkpt>
      <trkpt lat="44.40788" lon="6.45469">
        <ele>948.7</ele>
        <time>2018-08-10T13:55:12Z</time>
      </trkpt>
      <trkpt lat="44.40785" lon="6.45472">
        <ele>948.6</ele>
        <time>2018-08-10T13:55:13Z</time>
      </trkpt>
      <trkpt lat="44.40781" lon="6.45477">
        <ele>948.6</ele>
        <time>2018-08-10T13:55:14Z</time>
      </trkpt>
      <trkpt lat="44.40777" lon="6.45482">
        <ele>948.6</ele>
        <time>2018-08-10T13:55:15Z</time>
      </trkpt>
      <trkpt lat="44.40774" lon="6.45485">
        <ele>948.6</ele>
        <time>2018-08-10T13:55:16Z</time>
      </trkpt>
      <trkpt lat="44.40771" lon="6.45491">
        <ele>948.5</ele>
        <time>2018-08-10T13:55:17Z</time>
      </trkpt>
      <trkpt lat="44.40767" lon="6.45495">
        <ele>948.5</ele>
        <time>2018-08-10T13:55:18Z</time>
      </trkpt>
      <trkpt lat="44.40764" lon="6.455">
        <ele>948.5</ele>
        <time>2018-08-10T13:55:19Z</time>
      </trkpt>
      <trkpt lat="44.40761" lon="6.45503">
        <ele>948.4</ele>
        <time>2018-08-10T13:55:20Z</time>
      </trkpt>
      <trkpt lat="44.40758" lon="6.45507">
        <ele>948.4</ele>
        <time>2018-08-10T13:55:21Z</time>
      </trkpt>
      <trkpt lat="44.40755" lon="6.4551">
        <ele>948.3</ele>
        <time>2018-08-10T13:55:22Z</time>
      </trkpt>
      <trkpt lat="44.40752" lon="6.45515">
        <ele>948.3</ele>
        <time>2018-08-10T13:55:23Z</time>
      </trkpt>
      <trkpt lat="44.4075" lon="6.45521">
        <ele>948.3</ele>
        <time>2018-08-10T13:55:24Z</time>
      </trkpt>
      <trkpt lat="44.40747" lon="6.45525">
        <ele>948.2</ele>
        <time>2018-08-10T13:55:25Z</time>
      </trkpt>
      <trkpt lat="44.40743" lon="6.45528">
        <ele>948.2</ele>
        <time>2018-08-10T13:55:26Z</time>
      </trkpt>
      <trkpt lat="44.4074" lon="6.45532">
        <ele>948.2</ele>
        <time>2018-08-10T13:55:27Z</time>
      </trkpt>
      <trkpt lat="44.40736" lon="6.45537">
        <ele>948.2</ele>
        <time>2018-08-10T13:55:28Z</time>
      </trkpt>
      <trkpt lat="44.40734" lon="6.45542">
        <ele>948.2</ele>
        <time>2018-08-10T13:55:29Z</time>
      </trkpt>
      <trkpt lat="44.40731" lon="6.45548">
        <ele>948.3</ele>
        <time>2018-08-10T13:55:30Z</time>
      </trkpt>
      <trkpt lat="44.40728" lon="6.45552">
        <ele>948.4</ele>
        <time>2018-08-10T13:55:31Z</time>
      </trkpt>
      <trkpt lat="44.40725" lon="6.45556">
        <ele>948.4</ele>
        <time>2018-08-10T13:55:32Z</time>
      </trkpt>
      <trkpt lat="44.40722" lon="6.45559">
        <ele>948.5</ele>
        <time>2018-08-10T13:55:33Z</time>
      </trkpt>
      <trkpt lat="44.40718" lon="6.45563">
        <ele>948.6</ele>
        <time>2018-08-10T13:55:34Z</time>
      </trkpt>
      <trkpt lat="44.40715" lon="6.45566">
        <ele>948.7</ele>
        <time>2018-08-10T13:55:35Z</time>
      </trkpt>
      <trkpt lat="44.40711" lon="6.45571">
        <ele>948.7</ele>
        <time>2018-08-10T13:55:36Z</time>
      </trkpt>
      <trkpt lat="44.40708" lon="6.45576">
        <ele>948.8</ele>
        <time>2018-08-10T13:55:37Z</time>
      </trkpt>
      <trkpt lat="44.40705" lon="6.45579">
        <ele>948.9</ele>
        <time>2018-08-10T13:55:38Z</time>
      </trkpt>
      <trkpt lat="44.40702" lon="6.45585">
        <ele>948.9</ele>
        <time>2018-08-10T13:55:39Z</time>
      </trkpt>
      <trkpt lat="44.40698" lon="6.45589">
        <ele>949</ele>
        <time>2018-08-10T13:55:40Z</time>
      </trkpt>
      <trkpt lat="44.40695" lon="6.45594">
        <ele>949</ele>
        <time>2018-08-10T13:55:41Z</time>
      </trkpt>
      <trkpt lat="44.40692" lon="6.45598">
        <ele>949</ele>
        <time>2018-08-10T13:55:42Z</time>
      </trkpt>
      <trkpt lat="44.40689" lon="6.45603">
        <ele>949</ele>
        <time>2018-08-10T13:55:43Z</time>
      </trkpt>
      <trkpt lat="44.40686" lon="6.45607">
        <ele>948.9</ele>
        <time>2018-08-10T13:55:44Z</time>
      </trkpt>
      <trkpt lat="44.40683" lon="6.45611">
        <ele>948.9</ele>
        <time>2018-08-10T13:55:45Z</time>
      </trkpt>
      <trkpt lat="44.40681" lon="6.45617">
        <ele>948.9</ele>
        <time>2018-08-10T13:55:46Z</time>
      </trkpt>
      <trkpt lat="44.40678" lon="6.45622">
        <ele>948.8</ele>
        <time>2018-08-10T13:55:47Z</time>
      </trkpt>
      <trkpt lat="44.40675" lon="6.45626">
        <ele>948.8</ele>
        <time>2018-08-10T13:55:48Z</time>
      </trkpt>
      <trkpt lat="44.40672" lon="6.4563">
        <ele>948.8</ele>
        <time>2018-08-10T13:55:49Z</time>
      </trkpt>
      <trkpt lat="44.4067" lon="6.45635">
        <ele>948.7</ele>
        <time>2018-08-10T13:55:50Z</time>
      </trkpt>
      <trkpt lat="44.40668" lon="6.4564">
        <ele>948.7</ele>
        <time>2018-08-10T13:55:51Z</time>
      </trkpt>
      <trkpt lat="44.40665" lon="6.45645">
        <ele>948.7</ele>
        <time>2018-08-10T13:55:52Z</time>
      </trkpt>
      <trkpt lat="44.40664" lon="6.45649">
        <ele>948.6</ele>
        <time>2018-08-10T13:55:53Z</time>
      </trkpt>
      <trkpt lat="44.40662" lon="6.45655">
        <ele>948.6</ele>
        <time>2018-08-10T13:55:54Z</time>
      </trkpt>
      <trkpt lat="44.4066" lon="6.4566">
        <ele>948.6</ele>
        <time>2018-08-10T13:55:55Z</time>
      </trkpt>
      <trkpt lat="44.40659" lon="6.45666">
        <ele>948.6</ele>
        <time>2018-08-10T13:55:56Z</time>
      </trkpt>
      <trkpt lat="44.40657" lon="6.45671">
        <ele>948.6</ele>
        <time>2018-08-10T13:55:57Z</time>
      </trkpt>
      <trkpt lat="44.40655" lon="6.45675">
        <ele>948.6</ele>
        <time>2018-08-10T13:55:58Z</time>
      </trkpt>
      <trkpt lat="44.40652" lon="6.4568">
        <ele>948.6</ele>
        <time>2018-08-10T13:55:59Z</time>
      </trkpt>
      <trkpt lat="44.40651" lon="6.45686">
        <ele>948.6</ele>
        <time>2018-08-10T13:56:00Z</time>
      </trkpt>
      <trkpt lat="44.40648" lon="6.45691">
        <ele>948.6</ele>
        <time>2018-08-10T13:56:01Z</time>
      </trkpt>
      <trkpt lat="44.40646" lon="6.45695">
        <ele>948.7</ele>
        <time>2018-08-10T13:56:02Z</time>
      </trkpt>
      <trkpt lat="44.40643" lon="6.45702">
        <ele>948.7</ele>
        <time>2018-08-10T13:56:03Z</time>
      </trkpt>
      <trkpt lat="44.40641" lon="6.45707">
        <ele>948.7</ele>
        <time>2018-08-10T13:56:04Z</time>
      </trkpt>
      <trkpt lat="44.40639" lon="6.45713">
        <ele>948.7</ele>
        <time>2018-08-10T13:56:05Z</time>
      </trkpt>
      <trkpt lat="44.40637" lon="6.45718">
        <ele>948.7</ele>
        <time>2018-08-10T13:56:06Z</time>
      </trkpt>
      <trkpt lat="44.40634" lon="6.45723">
        <ele>948.8</ele>
        <time>2018-08-10T13:56:07Z</time>
      </trkpt>
      <trkpt lat="44.40631" lon="6.45729">
        <ele>948.8</ele>
        <time>2018-08-10T13:56:08Z</time>
      </trkpt>
      <trkpt lat="44.40629" lon="6.45733">
        <ele>948.9</ele>
        <time>2018-08-10T13:56:09Z</time>
      </trkpt>
      <trkpt lat="44.40627" lon="6.45738">
        <ele>948.9</ele>
        <time>2018-08-10T13:56:10Z</time>
      </trkpt>
      <trkpt lat="44.40625" lon="6.45743">
        <ele>948.9</ele>
        <time>2018-08-10T13:56:11Z</time>
      </trkpt>
      <trkpt lat="44.40623" lon="6.45748">
        <ele>949</ele>
        <time>2018-08-10T13:56:12Z</time>
      </trkpt>
      <trkpt lat="44.40621" lon="6.45753">
        <ele>949</ele>
        <time>2018-08-10T13:56:13Z</time>
      </trkpt>
      <trkpt lat="44.40619" lon="6.45757">
        <ele>949.1</ele>
        <time>2018-08-10T13:56:14Z</time>
      </trkpt>
      <trkpt lat="44.40617" lon="6.45762">
        <ele>949.1</ele>
        <time>2018-08-10T13:56:15Z</time>
      </trkpt>
      <trkpt lat="44.40615" lon="6.45767">
        <ele>949.2</ele>
        <time>2018-08-10T13:56:16Z</time>
      </trkpt>
      <trkpt lat="44.40612" lon="6.45771">
        <ele>949.3</ele>
        <time>2018-08-10T13:56:17Z</time>
      </trkpt>
      <trkpt lat="44.40609" lon="6.45775">
        <ele>949.3</ele>
        <time>2018-08-10T13:56:18Z</time>
      </trkpt>
      <trkpt lat="44.40607" lon="6.4578">
        <ele>949.4</ele>
        <time>2018-08-10T13:56:19Z</time>
      </trkpt>
      <trkpt lat="44.40605" lon="6.45785">
        <ele>949.5</ele>
        <time>2018-08-10T13:56:20Z</time>
      </trkpt>
      <trkpt lat="44.40602" lon="6.45789">
        <ele>949.5</ele>
        <time>2018-08-10T13:56:21Z</time>
      </trkpt>
      <trkpt lat="44.406" lon="6.45792">
        <ele>949.6</ele>
        <time>2018-08-10T13:56:22Z</time>
      </trkpt>
      <trkpt lat="44.40597" lon="6.45797">
        <ele>949.7</ele>
        <time>2018-08-10T13:56:23Z</time>
      </trkpt>
      <trkpt lat="44.40596" lon="6.45801">
        <ele>949.7</ele>
        <time>2018-08-10T13:56:24Z</time>
      </trkpt>
      <trkpt lat="44.40594" lon="6.45806">
        <ele>949.8</ele>
        <time>2018-08-10T13:56:25Z</time>
      </trkpt>
      <trkpt lat="44.40592" lon="6.45811">
        <ele>949.9</ele>
        <time>2018-08-10T13:56:26Z</time>
      </trkpt>
      <trkpt lat="44.40591" lon="6.45816">
        <ele>949.9</ele>
        <time>2018-08-10T13:56:27Z</time>
      </trkpt>
      <trkpt lat="44.40588" lon="6.45821">
        <ele>950</ele>
        <time>2018-08-10T13:56:28Z</time>
      </trkpt>
      <trkpt lat="44.40586" lon="6.45825">
        <ele>950.1</ele>
        <time>2018-08-10T13:56:29Z</time>
      </trkpt>
      <trkpt lat="44.40584" lon="6.4583">
        <ele>950.2</ele>
        <time>2018-08-10T13:56:30Z</time>
      </trkpt>
      <trkpt lat="44.40582" lon="6.45834">
        <ele>950.3</ele>
        <time>2018-08-10T13:56:31Z</time>
      </trkpt>
      <trkpt lat="44.40579" lon="6.45838">
        <ele>950.4</ele>
        <time>2018-08-10T13:56:32Z</time>
      </trkpt>
      <trkpt lat="44.40576" lon="6.45843">
        <ele>950.5</ele>
        <time>2018-08-10T13:56:33Z</time>
      </trkpt>
      <trkpt lat="44.40574" lon="6.45847">
        <ele>950.7</ele>
        <time>2018-08-10T13:56:34Z</time>
      </trkpt>
      <trkpt lat="44.40571" lon="6.4585">
        <ele>950.8</ele>
        <time>2018-08-10T13:56:35Z</time>
      </trkpt>
      <trkpt lat="44.40569" lon="6.45854">
        <ele>950.9</ele>
        <time>2018-08-10T13:56:36Z</time>
      </trkpt>
      <trkpt lat="44.40566" lon="6.45858">
        <ele>951.1</ele>
        <time>2018-08-10T13:56:37Z</time>
      </trkpt>
      <trkpt lat="44.40564" lon="6.45861">
        <ele>951.2</ele>
        <time>2018-08-10T13:56:38Z</time>
      </trkpt>
      <trkpt lat="44.40562" lon="6.45865">
        <ele>951.4</ele>
        <time>2018-08-10T13:56:39Z</time>
      </trkpt>
      <trkpt lat="44.40559" lon="6.4587">
        <ele>951.6</ele>
        <time>2018-08-10T13:56:40Z</time>
      </trkpt>
      <trkpt lat="44.40557" lon="6.45873">
        <ele>951.7</ele>
        <time>2018-08-10T13:56:41Z</time>
      </trkpt>
      <trkpt lat="44.40554" lon="6.45877">
        <ele>951.9</ele>
        <time>2018-08-10T13:56:42Z</time>
      </trkpt>
      <trkpt lat="44.40552" lon="6.4588">
        <ele>952</ele>
        <time>2018-08-10T13:56:43Z</time>
      </trkpt>
      <trkpt lat="44.4055" lon="6.45883">
        <ele>952.2</ele>
        <time>2018-08-10T13:56:44Z</time>
      </trkpt>
      <trkpt lat="44.40548" lon="6.45887">
        <ele>952.4</ele>
        <time>2018-08-10T13:56:45Z</time>
      </trkpt>
      <trkpt lat="44.40545" lon="6.4589">
        <ele>952.6</ele>
        <time>2018-08-10T13:56:46Z</time>
      </trkpt>
      <trkpt lat="44.40543" lon="6.45894">
        <ele>952.8</ele>
        <time>2018-08-10T13:56:47Z</time>
      </trkpt>
      <trkpt lat="44.40541" lon="6.45899">
        <ele>953</ele>
        <time>2018-08-10T13:56:48Z</time>
      </trkpt>
      <trkpt lat="44.4054" lon="6.45902">
        <ele>953.2</ele>
        <time>2018-08-10T13:56:49Z</time>
      </trkpt>
      <trkpt lat="44.40538" lon="6.45906">
        <ele>953.3</ele>
        <time>2018-08-10T13:56:50Z</time>
      </trkpt>
      <trkpt lat="44.40537" lon="6.45909">
        <ele>953.4</ele>
        <time>2018-08-10T13:56:51Z</time>
      </trkpt>
      <trkpt lat="44.40535" lon="6.45913">
        <ele>953.4</ele>
        <time>2018-08-10T13:56:52Z</time>
      </trkpt>
      <trkpt lat="44.40533" lon="6.45916">
        <ele>953.4</ele>
        <time>2018-08-10T13:56:53Z</time>
      </trkpt>
      <trkpt lat="44.40531" lon="6.4592">
        <ele>953.4</ele>
        <time>2018-08-10T13:56:54Z</time>
      </trkpt>
      <trkpt lat="44.40529" lon="6.45923">
        <ele>953.5</ele>
        <time>2018-08-10T13:56:55Z</time>
      </trkpt>
      <trkpt lat="44.40528" lon="6.45927">
        <ele>953.6</ele>
        <time>2018-08-10T13:56:56Z</time>
      </trkpt>
      <trkpt lat="44.40526" lon="6.4593">
        <ele>953.7</ele>
        <time>2018-08-10T13:56:57Z</time>
      </trkpt>
      <trkpt lat="44.40524" lon="6.45934">
        <ele>953.9</ele>
        <time>2018-08-10T13:56:58Z</time>
      </trkpt>
      <trkpt lat="44.40522" lon="6.45937">
        <ele>954.1</ele>
        <time>2018-08-10T13:56:59Z</time>
      </trkpt>
      <trkpt lat="44.4052" lon="6.4594">
        <ele>954.2</ele>
        <time>2018-08-10T13:57:00Z</time>
      </trkpt>
      <trkpt lat="44.40519" lon="6.45943">
        <ele>954.4</ele>
        <time>2018-08-10T13:57:01Z</time>
      </trkpt>
      <trkpt lat="44.40517" lon="6.45946">
        <ele>954.6</ele>
        <time>2018-08-10T13:57:02Z</time>
      </trkpt>
      <trkpt lat="44.40516" lon="6.4595">
        <ele>954.8</ele>
        <time>2018-08-10T13:57:03Z</time>
      </trkpt>
      <trkpt lat="44.40514" lon="6.45953">
        <ele>955</ele>
        <time>2018-08-10T13:57:04Z</time>
      </trkpt>
      <trkpt lat="44.40513" lon="6.45956">
        <ele>955.1</ele>
        <time>2018-08-10T13:57:05Z</time>
      </trkpt>
      <trkpt lat="44.40511" lon="6.45962">
        <ele>955.3</ele>
        <time>2018-08-10T13:57:07Z</time>
      </trkpt>
      <trkpt lat="44.40511" lon="6.45968">
        <ele>955.4</ele>
        <time>2018-08-10T13:57:09Z</time>
      </trkpt>
      <trkpt lat="44.4051" lon="6.45975">
        <ele>955.4</ele>
        <time>2018-08-10T13:57:11Z</time>
      </trkpt>
      <trkpt lat="44.40509" lon="6.45982">
        <ele>955.1</ele>
        <time>2018-08-10T13:57:13Z</time>
      </trkpt>
      <trkpt lat="44.40508" lon="6.45986">
        <ele>955</ele>
        <time>2018-08-10T13:57:14Z</time>
      </trkpt>
      <trkpt lat="44.40507" lon="6.4599">
        <ele>954.8</ele>
        <time>2018-08-10T13:57:15Z</time>
      </trkpt>
      <trkpt lat="44.40506" lon="6.45996">
        <ele>954.6</ele>
        <time>2018-08-10T13:57:16Z</time>
      </trkpt>
      <trkpt lat="44.40504" lon="6.46001">
        <ele>954.5</ele>
        <time>2018-08-10T13:57:17Z</time>
      </trkpt>
      <trkpt lat="44.40502" lon="6.46008">
        <ele>954.5</ele>
        <time>2018-08-10T13:57:19Z</time>
      </trkpt>
      <trkpt lat="44.405" lon="6.46012">
        <ele>954.5</ele>
        <time>2018-08-10T13:57:20Z</time>
      </trkpt>
      <trkpt lat="44.40498" lon="6.46016">
        <ele>954.5</ele>
        <time>2018-08-10T13:57:21Z</time>
      </trkpt>
      <trkpt lat="44.40497" lon="6.46021">
        <ele>954.6</ele>
        <time>2018-08-10T13:57:22Z</time>
      </trkpt>
      <trkpt lat="44.40496" lon="6.46025">
        <ele>954.7</ele>
        <time>2018-08-10T13:57:23Z</time>
      </trkpt>
      <trkpt lat="44.40493" lon="6.46029">
        <ele>954.8</ele>
        <time>2018-08-10T13:57:24Z</time>
      </trkpt>
      <trkpt lat="44.40491" lon="6.46033">
        <ele>955</ele>
        <time>2018-08-10T13:57:25Z</time>
      </trkpt>
      <trkpt lat="44.40489" lon="6.46037">
        <ele>955.1</ele>
        <time>2018-08-10T13:57:26Z</time>
      </trkpt>
      <trkpt lat="44.40488" lon="6.46041">
        <ele>955.2</ele>
        <time>2018-08-10T13:57:27Z</time>
      </trkpt>
      <trkpt lat="44.40486" lon="6.46045">
        <ele>955.3</ele>
        <time>2018-08-10T13:57:28Z</time>
      </trkpt>
      <trkpt lat="44.40485" lon="6.46049">
        <ele>955.4</ele>
        <time>2018-08-10T13:57:29Z</time>
      </trkpt>
      <trkpt lat="44.40482" lon="6.46054">
        <ele>955.6</ele>
        <time>2018-08-10T13:57:30Z</time>
      </trkpt>
      <trkpt lat="44.4048" lon="6.46058">
        <ele>955.7</ele>
        <time>2018-08-10T13:57:31Z</time>
      </trkpt>
      <trkpt lat="44.40479" lon="6.46061">
        <ele>955.8</ele>
        <time>2018-08-10T13:57:32Z</time>
      </trkpt>
      <trkpt lat="44.40475" lon="6.46068">
        <ele>956</ele>
        <time>2018-08-10T13:57:34Z</time>
      </trkpt>
      <trkpt lat="44.40474" lon="6.46071">
        <ele>956.1</ele>
        <time>2018-08-10T13:57:35Z</time>
      </trkpt>
      <trkpt lat="44.40472" lon="6.46075">
        <ele>956.2</ele>
        <time>2018-08-10T13:57:36Z</time>
      </trkpt>
      <trkpt lat="44.4047" lon="6.46078">
        <ele>956.3</ele>
        <time>2018-08-10T13:57:37Z</time>
      </trkpt>
      <trkpt lat="44.40468" lon="6.46081">
        <ele>956.4</ele>
        <time>2018-08-10T13:57:38Z</time>
      </trkpt>
      <trkpt lat="44.40466" lon="6.46085">
        <ele>956.5</ele>
        <time>2018-08-10T13:57:39Z</time>
      </trkpt>
      <trkpt lat="44.40464" lon="6.46089">
        <ele>956.6</ele>
        <time>2018-08-10T13:57:40Z</time>
      </trkpt>
      <trkpt lat="44.40462" lon="6.46093">
        <ele>956.7</ele>
        <time>2018-08-10T13:57:41Z</time>
      </trkpt>
      <trkpt lat="44.40461" lon="6.46097">
        <ele>956.8</ele>
        <time>2018-08-10T13:57:42Z</time>
      </trkpt>
      <trkpt lat="44.40459" lon="6.461">
        <ele>956.9</ele>
        <time>2018-08-10T13:57:43Z</time>
      </trkpt>
      <trkpt lat="44.40458" lon="6.46104">
        <ele>956.9</ele>
        <time>2018-08-10T13:57:44Z</time>
      </trkpt>
      <trkpt lat="44.40456" lon="6.46107">
        <ele>957</ele>
        <time>2018-08-10T13:57:45Z</time>
      </trkpt>
      <trkpt lat="44.40454" lon="6.46113">
        <ele>957.1</ele>
        <time>2018-08-10T13:57:47Z</time>
      </trkpt>
      <trkpt lat="44.40452" lon="6.46117">
        <ele>957.2</ele>
        <time>2018-08-10T13:57:48Z</time>
      </trkpt>
      <trkpt lat="44.40451" lon="6.46121">
        <ele>957.3</ele>
        <time>2018-08-10T13:57:49Z</time>
      </trkpt>
      <trkpt lat="44.40449" lon="6.46125">
        <ele>957.4</ele>
        <time>2018-08-10T13:57:50Z</time>
      </trkpt>
      <trkpt lat="44.40446" lon="6.46131">
        <ele>957.6</ele>
        <time>2018-08-10T13:57:52Z</time>
      </trkpt>
      <trkpt lat="44.40444" lon="6.46134">
        <ele>957.8</ele>
        <time>2018-08-10T13:57:53Z</time>
      </trkpt>
      <trkpt lat="44.40442" lon="6.46137">
        <ele>957.9</ele>
        <time>2018-08-10T13:57:54Z</time>
      </trkpt>
      <trkpt lat="44.4044" lon="6.4614">
        <ele>958</ele>
        <time>2018-08-10T13:57:55Z</time>
      </trkpt>
      <trkpt lat="44.40439" lon="6.46143">
        <ele>958.1</ele>
        <time>2018-08-10T13:57:56Z</time>
      </trkpt>
      <trkpt lat="44.40438" lon="6.46147">
        <ele>958.3</ele>
        <time>2018-08-10T13:57:57Z</time>
      </trkpt>
      <trkpt lat="44.40436" lon="6.4615">
        <ele>958.4</ele>
        <time>2018-08-10T13:57:58Z</time>
      </trkpt>
      <trkpt lat="44.40434" lon="6.46154">
        <ele>958.5</ele>
        <time>2018-08-10T13:57:59Z</time>
      </trkpt>
      <trkpt lat="44.40431" lon="6.46157">
        <ele>958.6</ele>
        <time>2018-08-10T13:58:00Z</time>
      </trkpt>
      <trkpt lat="44.40428" lon="6.46159">
        <ele>958.8</ele>
        <time>2018-08-10T13:58:01Z</time>
      </trkpt>
      <trkpt lat="44.40425" lon="6.46163">
        <ele>958.9</ele>
        <time>2018-08-10T13:58:03Z</time>
      </trkpt>
      <trkpt lat="44.40423" lon="6.46167">
        <ele>960</ele>
        <time>2018-08-10T13:58:05Z</time>
      </trkpt>
      <trkpt lat="44.4042" lon="6.46173">
        <ele>965</ele>
        <time>2018-08-10T13:58:07Z</time>
      </trkpt>
      <trkpt lat="44.40418" lon="6.46176">
        <ele>967.8</ele>
        <time>2018-08-10T13:58:08Z</time>
      </trkpt>
      <trkpt lat="44.40415" lon="6.46179">
        <ele>971.3</ele>
        <time>2018-08-10T13:58:09Z</time>
      </trkpt>
      <trkpt lat="44.40414" lon="6.46187">
        <ele>974.6</ele>
        <time>2018-08-10T13:58:11Z</time>
      </trkpt>
      <trkpt lat="44.40414" lon="6.46191">
        <ele>975.2</ele>
        <time>2018-08-10T13:58:12Z</time>
      </trkpt>
      <trkpt lat="44.40413" lon="6.46195">
        <ele>975.6</ele>
        <time>2018-08-10T13:58:13Z</time>
      </trkpt>
      <trkpt lat="44.40411" lon="6.462">
        <ele>976.2</ele>
        <time>2018-08-10T13:58:15Z</time>
      </trkpt>
      <trkpt lat="44.40408" lon="6.46205">
        <ele>977.1</ele>
        <time>2018-08-10T13:58:17Z</time>
      </trkpt>
      <trkpt lat="44.40406" lon="6.46209">
        <ele>977.5</ele>
        <time>2018-08-10T13:58:18Z</time>
      </trkpt>
      <trkpt lat="44.40403" lon="6.46211">
        <ele>977.8</ele>
        <time>2018-08-10T13:58:19Z</time>
      </trkpt>
      <trkpt lat="44.40401" lon="6.46214">
        <ele>978.1</ele>
        <time>2018-08-10T13:58:20Z</time>
      </trkpt>
      <trkpt lat="44.40399" lon="6.46217">
        <ele>978.3</ele>
        <time>2018-08-10T13:58:21Z</time>
      </trkpt>
      <trkpt lat="44.40396" lon="6.4622">
        <ele>978.5</ele>
        <time>2018-08-10T13:58:22Z</time>
      </trkpt>
      <trkpt lat="44.40394" lon="6.46223">
        <ele>978.7</ele>
        <time>2018-08-10T13:58:23Z</time>
      </trkpt>
      <trkpt lat="44.40391" lon="6.46225">
        <ele>978.9</ele>
        <time>2018-08-10T13:58:24Z</time>
      </trkpt>
      <trkpt lat="44.40386" lon="6.4623">
        <ele>979.2</ele>
        <time>2018-08-10T13:58:26Z</time>
      </trkpt>
      <trkpt lat="44.40383" lon="6.46232">
        <ele>979.4</ele>
        <time>2018-08-10T13:58:27Z</time>
      </trkpt>
      <trkpt lat="44.40381" lon="6.46235">
        <ele>979.6</ele>
        <time>2018-08-10T13:58:28Z</time>
      </trkpt>
      <trkpt lat="44.40379" lon="6.46239">
        <ele>979.8</ele>
        <time>2018-08-10T13:58:29Z</time>
      </trkpt>
      <trkpt lat="44.40376" lon="6.46242">
        <ele>980</ele>
        <time>2018-08-10T13:58:30Z</time>
      </trkpt>
      <trkpt lat="44.40373" lon="6.46246">
        <ele>980.3</ele>
        <time>2018-08-10T13:58:31Z</time>
      </trkpt>
      <trkpt lat="44.4037" lon="6.46248">
        <ele>980.5</ele>
        <time>2018-08-10T13:58:32Z</time>
      </trkpt>
      <trkpt lat="44.40368" lon="6.46251">
        <ele>980.8</ele>
        <time>2018-08-10T13:58:33Z</time>
      </trkpt>
      <trkpt lat="44.40365" lon="6.46252">
        <ele>981.2</ele>
        <time>2018-08-10T13:58:34Z</time>
      </trkpt>
      <trkpt lat="44.40362" lon="6.46254">
        <ele>981.5</ele>
        <time>2018-08-10T13:58:35Z</time>
      </trkpt>
      <trkpt lat="44.40359" lon="6.46256">
        <ele>981.8</ele>
        <time>2018-08-10T13:58:36Z</time>
      </trkpt>
      <trkpt lat="44.40356" lon="6.46259">
        <ele>982.1</ele>
        <time>2018-08-10T13:58:37Z</time>
      </trkpt>
      <trkpt lat="44.40354" lon="6.46261">
        <ele>982.5</ele>
        <time>2018-08-10T13:58:38Z</time>
      </trkpt>
      <trkpt lat="44.40351" lon="6.46264">
        <ele>982.8</ele>
        <time>2018-08-10T13:58:39Z</time>
      </trkpt>
      <trkpt lat="44.40349" lon="6.46266">
        <ele>983.1</ele>
        <time>2018-08-10T13:58:40Z</time>
      </trkpt>
      <trkpt lat="44.40346" lon="6.46269">
        <ele>983.2</ele>
        <time>2018-08-10T13:58:41Z</time>
      </trkpt>
      <trkpt lat="44.40344" lon="6.46272">
        <ele>983.3</ele>
        <time>2018-08-10T13:58:42Z</time>
      </trkpt>
      <trkpt lat="44.40341" lon="6.46274">
        <ele>983.4</ele>
        <time>2018-08-10T13:58:43Z</time>
      </trkpt>
      <trkpt lat="44.40339" lon="6.46278">
        <ele>983.4</ele>
        <time>2018-08-10T13:58:44Z</time>
      </trkpt>
      <trkpt lat="44.40337" lon="6.46282">
        <ele>983.5</ele>
        <time>2018-08-10T13:58:45Z</time>
      </trkpt>
      <trkpt lat="44.40333" lon="6.46285">
        <ele>983.6</ele>
        <time>2018-08-10T13:58:46Z</time>
      </trkpt>
      <trkpt lat="44.4033" lon="6.4629">
        <ele>983.8</ele>
        <time>2018-08-10T13:58:47Z</time>
      </trkpt>
      <trkpt lat="44.40327" lon="6.46294">
        <ele>983.9</ele>
        <time>2018-08-10T13:58:48Z</time>
      </trkpt>
      <trkpt lat="44.40323" lon="6.46299">
        <ele>984</ele>
        <time>2018-08-10T13:58:49Z</time>
      </trkpt>
      <trkpt lat="44.40319" lon="6.46304">
        <ele>984.1</ele>
        <time>2018-08-10T13:58:50Z</time>
      </trkpt>
      <trkpt lat="44.40314" lon="6.4631">
        <ele>984.3</ele>
        <time>2018-08-10T13:58:51Z</time>
      </trkpt>
      <trkpt lat="44.4031" lon="6.46316">
        <ele>984.4</ele>
        <time>2018-08-10T13:58:52Z</time>
      </trkpt>
      <trkpt lat="44.40304" lon="6.46322">
        <ele>984.6</ele>
        <time>2018-08-10T13:58:53Z</time>
      </trkpt>
      <trkpt lat="44.40299" lon="6.46329">
        <ele>984.7</ele>
        <time>2018-08-10T13:58:54Z</time>
      </trkpt>
      <trkpt lat="44.40295" lon="6.46336">
        <ele>984.9</ele>
        <time>2018-08-10T13:58:55Z</time>
      </trkpt>
      <trkpt lat="44.4029" lon="6.46342">
        <ele>985</ele>
        <time>2018-08-10T13:58:56Z</time>
      </trkpt>
      <trkpt lat="44.40286" lon="6.46346">
        <ele>985.1</ele>
        <time>2018-08-10T13:58:57Z</time>
      </trkpt>
      <trkpt lat="44.40284" lon="6.4635">
        <ele>985.2</ele>
        <time>2018-08-10T13:58:58Z</time>
      </trkpt>
      <trkpt lat="44.40281" lon="6.46353">
        <ele>985.3</ele>
        <time>2018-08-10T13:58:59Z</time>
      </trkpt>
      <trkpt lat="44.4028" lon="6.46356">
        <ele>985.3</ele>
        <time>2018-08-10T13:59:00Z</time>
      </trkpt>
      <trkpt lat="44.40276" lon="6.46361">
        <ele>985.5</ele>
        <time>2018-08-10T13:59:02Z</time>
      </trkpt>
      <trkpt lat="44.40274" lon="6.46363">
        <ele>985.5</ele>
        <time>2018-08-10T13:59:03Z</time>
      </trkpt>
      <trkpt lat="44.40269" lon="6.46366">
        <ele>985.7</ele>
        <time>2018-08-10T13:59:05Z</time>
      </trkpt>
      <trkpt lat="44.40267" lon="6.46371">
        <ele>986</ele>
        <time>2018-08-10T13:59:07Z</time>
      </trkpt>
      <trkpt lat="44.40264" lon="6.46375">
        <ele>986.2</ele>
        <time>2018-08-10T13:59:09Z</time>
      </trkpt>
      <trkpt lat="44.40261" lon="6.46379">
        <ele>986.4</ele>
        <time>2018-08-10T13:59:11Z</time>
      </trkpt>
      <trkpt lat="44.40258" lon="6.46384">
        <ele>986.8</ele>
        <time>2018-08-10T13:59:13Z</time>
      </trkpt>
      <trkpt lat="44.40254" lon="6.46387">
        <ele>987.2</ele>
        <time>2018-08-10T13:59:15Z</time>
      </trkpt>
      <trkpt lat="44.40251" lon="6.46391">
        <ele>987.5</ele>
        <time>2018-08-10T13:59:17Z</time>
      </trkpt>
      <trkpt lat="44.40248" lon="6.46394">
        <ele>987.9</ele>
        <time>2018-08-10T13:59:20Z</time>
      </trkpt>
      <trkpt lat="44.40244" lon="6.46396">
        <ele>988.3</ele>
        <time>2018-08-10T13:59:22Z</time>
      </trkpt>
      <trkpt lat="44.4024" lon="6.46399">
        <ele>988.7</ele>
        <time>2018-08-10T13:59:24Z</time>
      </trkpt>
      <trkpt lat="44.40236" lon="6.46401">
        <ele>989</ele>
        <time>2018-08-10T13:59:26Z</time>
      </trkpt>
      <trkpt lat="44.40232" lon="6.46403">
        <ele>989.3</ele>
        <time>2018-08-10T13:59:28Z</time>
      </trkpt>
      <trkpt lat="44.40229" lon="6.46407">
        <ele>989.6</ele>
        <time>2018-08-10T13:59:30Z</time>
      </trkpt>
      <trkpt lat="44.40227" lon="6.46411">
        <ele>989.7</ele>
        <time>2018-08-10T13:59:32Z</time>
      </trkpt>
      <trkpt lat="44.40225" lon="6.46416">
        <ele>989.8</ele>
        <time>2018-08-10T13:59:35Z</time>
      </trkpt>
      <trkpt lat="44.4022" lon="6.46417">
        <ele>989.8</ele>
        <time>2018-08-10T13:59:37Z</time>
      </trkpt>
      <trkpt lat="44.40219" lon="6.46421">
        <ele>989.9</ele>
        <time>2018-08-10T13:59:40Z</time>
      </trkpt>
      <trkpt lat="44.40218" lon="6.46426">
        <ele>989.9</ele>
        <time>2018-08-10T13:59:42Z</time>
      </trkpt>
      <trkpt lat="44.40215" lon="6.46429">
        <ele>990</ele>
        <time>2018-08-10T13:59:45Z</time>
      </trkpt>
      <trkpt lat="44.40215" lon="6.46433">
        <ele>990</ele>
        <time>2018-08-10T13:59:48Z</time>
      </trkpt>
      <trkpt lat="44.40211" lon="6.46435">
        <ele>990.1</ele>
        <time>2018-08-10T13:59:50Z</time>
      </trkpt>
      <trkpt lat="44.40209" lon="6.46438">
        <ele>990.1</ele>
        <time>2018-08-10T13:59:53Z</time>
      </trkpt>
      <trkpt lat="44.40206" lon="6.46442">
        <ele>990.2</ele>
        <time>2018-08-10T13:59:58Z</time>
      </trkpt>
      <trkpt lat="44.40203" lon="6.46444">
        <ele>990.2</ele>
        <time>2018-08-10T14:00:00Z</time>
      </trkpt>
      <trkpt lat="44.40201" lon="6.46447">
        <ele>990.3</ele>
        <time>2018-08-10T14:00:02Z</time>
      </trkpt>
      <trkpt lat="44.40198" lon="6.46449">
        <ele>990.3</ele>
        <time>2018-08-10T14:00:04Z</time>
      </trkpt>
      <trkpt lat="44.40196" lon="6.46453">
        <ele>990.4</ele>
        <time>2018-08-10T14:00:06Z</time>
      </trkpt>
      <trkpt lat="44.40197" lon="6.46457">
        <ele>990.4</ele>
        <time>2018-08-10T14:00:08Z</time>
      </trkpt>
      <trkpt lat="44.40196" lon="6.46461">
        <ele>990.5</ele>
        <time>2018-08-10T14:00:11Z</time>
      </trkpt>
      <trkpt lat="44.40194" lon="6.46463">
        <ele>990.5</ele>
        <time>2018-08-10T14:00:13Z</time>
      </trkpt>
      <trkpt lat="44.40192" lon="6.46467">
        <ele>990.5</ele>
        <time>2018-08-10T14:00:15Z</time>
      </trkpt>
      <trkpt lat="44.40193" lon="6.46472">
        <ele>990.6</ele>
        <time>2018-08-10T14:00:18Z</time>
      </trkpt>
      <trkpt lat="44.40192" lon="6.46477">
        <ele>990.6</ele>
        <time>2018-08-10T14:00:20Z</time>
      </trkpt>
      <trkpt lat="44.4019" lon="6.46482">
        <ele>990.6</ele>
        <time>2018-08-10T14:00:22Z</time>
      </trkpt>
      <trkpt lat="44.40188" lon="6.46485">
        <ele>990.7</ele>
        <time>2018-08-10T14:00:23Z</time>
      </trkpt>
      <trkpt lat="44.40186" lon="6.46491">
        <ele>990.7</ele>
        <time>2018-08-10T14:00:25Z</time>
      </trkpt>
      <trkpt lat="44.40187" lon="6.46497">
        <ele>990.7</ele>
        <time>2018-08-10T14:00:27Z</time>
      </trkpt>
      <trkpt lat="44.40187" lon="6.46501">
        <ele>990.8</ele>
        <time>2018-08-10T14:00:29Z</time>
      </trkpt>
      <trkpt lat="44.40187" lon="6.46508">
        <ele>990.8</ele>
        <time>2018-08-10T14:00:31Z</time>
      </trkpt>
      <trkpt lat="44.40187" lon="6.46513">
        <ele>990.8</ele>
        <time>2018-08-10T14:00:32Z</time>
      </trkpt>
      <trkpt lat="44.40187" lon="6.46517">
        <ele>990.9</ele>
        <time>2018-08-10T14:00:33Z</time>
      </trkpt>
      <trkpt lat="44.40183" lon="6.46525">
        <ele>990.9</ele>
        <time>2018-08-10T14:00:35Z</time>
      </trkpt>
      <trkpt lat="44.40186" lon="6.46531">
        <ele>991</ele>
        <time>2018-08-10T14:00:37Z</time>
      </trkpt>
      <trkpt lat="44.40185" lon="6.46535">
        <ele>991.1</ele>
        <time>2018-08-10T14:00:39Z</time>
      </trkpt>
      <trkpt lat="44.40187" lon="6.46539">
        <ele>991.1</ele>
        <time>2018-08-10T14:00:40Z</time>
      </trkpt>
      <trkpt lat="44.40189" lon="6.46542">
        <ele>991.1</ele>
        <time>2018-08-10T14:00:41Z</time>
      </trkpt>
      <trkpt lat="44.40186" lon="6.46544">
        <ele>991.2</ele>
        <time>2018-08-10T14:00:42Z</time>
      </trkpt>
      <trkpt lat="44.40186" lon="6.46549">
        <ele>991.2</ele>
        <time>2018-08-10T14:00:44Z</time>
      </trkpt>
      <trkpt lat="44.40186" lon="6.46555">
        <ele>991.3</ele>
        <time>2018-08-10T14:00:46Z</time>
      </trkpt>
      <trkpt lat="44.40189" lon="6.46559">
        <ele>991.3</ele>
        <time>2018-08-10T14:00:48Z</time>
      </trkpt>
      <trkpt lat="44.40187" lon="6.46562">
        <ele>991.3</ele>
        <time>2018-08-10T14:00:49Z</time>
      </trkpt>
      <trkpt lat="44.40187" lon="6.46567">
        <ele>991.4</ele>
        <time>2018-08-10T14:00:50Z</time>
      </trkpt>
      <trkpt lat="44.40188" lon="6.46571">
        <ele>991.4</ele>
        <time>2018-08-10T14:00:51Z</time>
      </trkpt>
      <trkpt lat="44.40189" lon="6.46577">
        <ele>991.4</ele>
        <time>2018-08-10T14:00:53Z</time>
      </trkpt>
      <trkpt lat="44.4019" lon="6.46581">
        <ele>991.5</ele>
        <time>2018-08-10T14:00:55Z</time>
      </trkpt>
      <trkpt lat="44.4019" lon="6.46586">
        <ele>991.5</ele>
        <time>2018-08-10T14:00:57Z</time>
      </trkpt>
      <trkpt lat="44.4019" lon="6.4659">
        <ele>991.5</ele>
        <time>2018-08-10T14:00:59Z</time>
      </trkpt>
      <trkpt lat="44.40188" lon="6.46596">
        <ele>991.5</ele>
        <time>2018-08-10T14:01:01Z</time>
      </trkpt>
      <trkpt lat="44.40185" lon="6.46599">
        <ele>991.6</ele>
        <time>2018-08-10T14:01:03Z</time>
      </trkpt>
      <trkpt lat="44.40186" lon="6.46606">
        <ele>991.6</ele>
        <time>2018-08-10T14:01:05Z</time>
      </trkpt>
      <trkpt lat="44.40187" lon="6.46609">
        <ele>991.6</ele>
        <time>2018-08-10T14:01:06Z</time>
      </trkpt>
      <trkpt lat="44.40188" lon="6.46615">
        <ele>991.7</ele>
        <time>2018-08-10T14:01:08Z</time>
      </trkpt>
      <trkpt lat="44.4019" lon="6.46619">
        <ele>991.7</ele>
        <time>2018-08-10T14:01:09Z</time>
      </trkpt>
      <trkpt lat="44.40192" lon="6.46623">
        <ele>991.7</ele>
        <time>2018-08-10T14:01:10Z</time>
      </trkpt>
      <trkpt lat="44.40193" lon="6.46627">
        <ele>991.8</ele>
        <time>2018-08-10T14:01:12Z</time>
      </trkpt>
      <trkpt lat="44.40194" lon="6.46631">
        <ele>991.8</ele>
        <time>2018-08-10T14:01:13Z</time>
      </trkpt>
      <trkpt lat="44.40192" lon="6.46637">
        <ele>991.9</ele>
        <time>2018-08-10T14:01:14Z</time>
      </trkpt>
      <trkpt lat="44.40192" lon="6.46641">
        <ele>991.9</ele>
        <time>2018-08-10T14:01:15Z</time>
      </trkpt>
      <trkpt lat="44.40191" lon="6.46646">
        <ele>992</ele>
        <time>2018-08-10T14:01:16Z</time>
      </trkpt>
      <trkpt lat="44.4019" lon="6.46652">
        <ele>992.1</ele>
        <time>2018-08-10T14:01:17Z</time>
      </trkpt>
      <trkpt lat="44.40191" lon="6.46658">
        <ele>992.2</ele>
        <time>2018-08-10T14:01:18Z</time>
      </trkpt>
      <trkpt lat="44.40189" lon="6.46665">
        <ele>992.3</ele>
        <time>2018-08-10T14:01:19Z</time>
      </trkpt>
      <trkpt lat="44.40188" lon="6.46673">
        <ele>992.4</ele>
        <time>2018-08-10T14:01:20Z</time>
      </trkpt>
      <trkpt lat="44.40186" lon="6.46682">
        <ele>992.5</ele>
        <time>2018-08-10T14:01:21Z</time>
      </trkpt>
      <trkpt lat="44.40184" lon="6.46689">
        <ele>992.6</ele>
        <time>2018-08-10T14:01:22Z</time>
      </trkpt>
      <trkpt lat="44.40182" lon="6.46697">
        <ele>992.7</ele>
        <time>2018-08-10T14:01:23Z</time>
      </trkpt>
      <trkpt lat="44.40179" lon="6.46704">
        <ele>992.8</ele>
        <time>2018-08-10T14:01:24Z</time>
      </trkpt>
      <trkpt lat="44.40175" lon="6.46711">
        <ele>993</ele>
        <time>2018-08-10T14:01:25Z</time>
      </trkpt>
      <trkpt lat="44.40172" lon="6.46718">
        <ele>993.1</ele>
        <time>2018-08-10T14:01:26Z</time>
      </trkpt>
      <trkpt lat="44.4017" lon="6.46724">
        <ele>993.1</ele>
        <time>2018-08-10T14:01:27Z</time>
      </trkpt>
      <trkpt lat="44.40169" lon="6.46729">
        <ele>993.2</ele>
        <time>2018-08-10T14:01:28Z</time>
      </trkpt>
      <trkpt lat="44.40168" lon="6.46733">
        <ele>993.3</ele>
        <time>2018-08-10T14:01:29Z</time>
      </trkpt>
      <trkpt lat="44.40166" lon="6.46737">
        <ele>993.4</ele>
        <time>2018-08-10T14:01:30Z</time>
      </trkpt>
      <trkpt lat="44.40161" lon="6.46742">
        <ele>993.7</ele>
        <time>2018-08-10T14:01:32Z</time>
      </trkpt>
      <trkpt lat="44.40159" lon="6.46748">
        <ele>993.9</ele>
        <time>2018-08-10T14:01:34Z</time>
      </trkpt>
      <trkpt lat="44.40158" lon="6.46753">
        <ele>994</ele>
        <time>2018-08-10T14:01:36Z</time>
      </trkpt>
      <trkpt lat="44.40156" lon="6.46757">
        <ele>994.1</ele>
        <time>2018-08-10T14:01:38Z</time>
      </trkpt>
      <trkpt lat="44.40153" lon="6.4676">
        <ele>994.2</ele>
        <time>2018-08-10T14:01:40Z</time>
      </trkpt>
      <trkpt lat="44.40151" lon="6.46765">
        <ele>994.3</ele>
        <time>2018-08-10T14:01:43Z</time>
      </trkpt>
      <trkpt lat="44.40147" lon="6.46771">
        <ele>994.4</ele>
        <time>2018-08-10T14:01:45Z</time>
      </trkpt>
      <trkpt lat="44.40149" lon="6.46774">
        <ele>994.5</ele>
        <time>2018-08-10T14:01:46Z</time>
      </trkpt>
      <trkpt lat="44.40145" lon="6.46778">
        <ele>994.6</ele>
        <time>2018-08-10T14:01:49Z</time>
      </trkpt>
      <trkpt lat="44.40142" lon="6.4678">
        <ele>994.7</ele>
        <time>2018-08-10T14:01:50Z</time>
      </trkpt>
      <trkpt lat="44.40139" lon="6.46783">
        <ele>994.8</ele>
        <time>2018-08-10T14:01:52Z</time>
      </trkpt>
      <trkpt lat="44.40137" lon="6.46786">
        <ele>994.9</ele>
        <time>2018-08-10T14:01:54Z</time>
      </trkpt>
      <trkpt lat="44.40134" lon="6.46787">
        <ele>995</ele>
        <time>2018-08-10T14:01:57Z</time>
      </trkpt>
      <trkpt lat="44.40131" lon="6.46788">
        <ele>995.1</ele>
        <time>2018-08-10T14:01:59Z</time>
      </trkpt>
      <trkpt lat="44.40129" lon="6.46793">
        <ele>995.2</ele>
        <time>2018-08-10T14:02:02Z</time>
      </trkpt>
      <trkpt lat="44.4013" lon="6.46798">
        <ele>995.3</ele>
        <time>2018-08-10T14:02:05Z</time>
      </trkpt>
      <trkpt lat="44.40132" lon="6.46803">
        <ele>995.7</ele>
        <time>2018-08-10T14:02:07Z</time>
      </trkpt>
      <trkpt lat="44.40128" lon="6.46809">
        <ele>996.5</ele>
        <time>2018-08-10T14:02:11Z</time>
      </trkpt>
      <trkpt lat="44.40129" lon="6.46814">
        <ele>997.1</ele>
        <time>2018-08-10T14:02:14Z</time>
      </trkpt>
      <trkpt lat="44.40128" lon="6.46819">
        <ele>997.7</ele>
        <time>2018-08-10T14:02:16Z</time>
      </trkpt>
      <trkpt lat="44.40125" lon="6.4682">
        <ele>998.5</ele>
        <time>2018-08-10T14:02:17Z</time>
      </trkpt>
      <trkpt lat="44.40121" lon="6.46821">
        <ele>999.1</ele>
        <time>2018-08-10T14:02:20Z</time>
      </trkpt>
      <trkpt lat="44.40119" lon="6.46826">
        <ele>999.2</ele>
        <time>2018-08-10T14:02:23Z</time>
      </trkpt>
      <trkpt lat="44.40117" lon="6.46829">
        <ele>999.4</ele>
        <time>2018-08-10T14:02:25Z</time>
      </trkpt>
      <trkpt lat="44.40116" lon="6.46835">
        <ele>999.6</ele>
        <time>2018-08-10T14:02:29Z</time>
      </trkpt>
      <trkpt lat="44.40113" lon="6.46838">
        <ele>999.7</ele>
        <time>2018-08-10T14:02:31Z</time>
      </trkpt>
      <trkpt lat="44.40112" lon="6.46841">
        <ele>999.8</ele>
        <time>2018-08-10T14:02:34Z</time>
      </trkpt>
      <trkpt lat="44.40109" lon="6.46844">
        <ele>1000</ele>
        <time>2018-08-10T14:02:36Z</time>
      </trkpt>
      <trkpt lat="44.40108" lon="6.46848">
        <ele>1000.1</ele>
        <time>2018-08-10T14:02:39Z</time>
      </trkpt>
      <trkpt lat="44.40106" lon="6.46853">
        <ele>1000.3</ele>
        <time>2018-08-10T14:02:43Z</time>
      </trkpt>
      <trkpt lat="44.40104" lon="6.46858">
        <ele>1000.5</ele>
        <time>2018-08-10T14:02:46Z</time>
      </trkpt>
      <trkpt lat="44.40103" lon="6.46861">
        <ele>1000.6</ele>
        <time>2018-08-10T14:02:48Z</time>
      </trkpt>
      <trkpt lat="44.40101" lon="6.46865">
        <ele>1000.8</ele>
        <time>2018-08-10T14:02:51Z</time>
      </trkpt>
      <trkpt lat="44.40099" lon="6.46868">
        <ele>1000.9</ele>
        <time>2018-08-10T14:02:54Z</time>
      </trkpt>
      <trkpt lat="44.40096" lon="6.4687">
        <ele>1001</ele>
        <time>2018-08-10T14:02:57Z</time>
      </trkpt>
      <trkpt lat="44.40093" lon="6.4687">
        <ele>1001.1</ele>
        <time>2018-08-10T14:02:59Z</time>
      </trkpt>
      <trkpt lat="44.40094" lon="6.46865">
        <ele>1001</ele>
        <time>2018-08-10T14:03:06Z</time>
      </trkpt>
      <trkpt lat="44.40095" lon="6.4686">
        <ele>1000.9</ele>
        <time>2018-08-10T14:03:09Z</time>
      </trkpt>
      <trkpt lat="44.40092" lon="6.46856">
        <ele>1000.7</ele>
        <time>2018-08-10T14:03:12Z</time>
      </trkpt>
      <trkpt lat="44.40094" lon="6.46852">
        <ele>1000.6</ele>
        <time>2018-08-10T14:03:15Z</time>
      </trkpt>
      <trkpt lat="44.40094" lon="6.46847">
        <ele>1000.5</ele>
        <time>2018-08-10T14:03:19Z</time>
      </trkpt>
      <trkpt lat="44.40091" lon="6.4685">
        <ele>1000.7</ele>
        <time>2018-08-10T14:03:25Z</time>
      </trkpt>
      <trkpt lat="44.40087" lon="6.46852">
        <ele>1000.8</ele>
        <time>2018-08-10T14:03:29Z</time>
      </trkpt>
      <trkpt lat="44.40086" lon="6.46856">
        <ele>1001</ele>
        <time>2018-08-10T14:03:33Z</time>
      </trkpt>
      <trkpt lat="44.40084" lon="6.46861">
        <ele>1001.1</ele>
        <time>2018-08-10T14:03:37Z</time>
      </trkpt>
      <trkpt lat="44.40083" lon="6.46866">
        <ele>1001.3</ele>
        <time>2018-08-10T14:03:40Z</time>
      </trkpt>
      <trkpt lat="44.40083" lon="6.4687">
        <ele>1001.5</ele>
        <time>2018-08-10T14:03:42Z</time>
      </trkpt>
      <trkpt lat="44.40083" lon="6.46875">
        <ele>1001.6</ele>
        <time>2018-08-10T14:03:45Z</time>
      </trkpt>
      <trkpt lat="44.40083" lon="6.46878">
        <ele>1001.7</ele>
        <time>2018-08-10T14:03:47Z</time>
      </trkpt>
      <trkpt lat="44.40081" lon="6.46882">
        <ele>1001.9</ele>
        <time>2018-08-10T14:03:50Z</time>
      </trkpt>
      <trkpt lat="44.40079" lon="6.46886">
        <ele>1002.1</ele>
        <time>2018-08-10T14:03:53Z</time>
      </trkpt>
      <trkpt lat="44.40075" lon="6.4689">
        <ele>1002.3</ele>
        <time>2018-08-10T14:03:57Z</time>
      </trkpt>
      <trkpt lat="44.40073" lon="6.46894">
        <ele>1002.4</ele>
        <time>2018-08-10T14:03:59Z</time>
      </trkpt>
      <trkpt lat="44.40069" lon="6.46899">
        <ele>1002.7</ele>
        <time>2018-08-10T14:04:01Z</time>
      </trkpt>
      <trkpt lat="44.40066" lon="6.469">
        <ele>1002.8</ele>
        <time>2018-08-10T14:04:02Z</time>
      </trkpt>
      <trkpt lat="44.40063" lon="6.46904">
        <ele>1003</ele>
        <time>2018-08-10T14:04:05Z</time>
      </trkpt>
      <trkpt lat="44.4006" lon="6.46906">
        <ele>1003.2</ele>
        <time>2018-08-10T14:04:07Z</time>
      </trkpt>
      <trkpt lat="44.40058" lon="6.4691">
        <ele>1003.3</ele>
        <time>2018-08-10T14:04:09Z</time>
      </trkpt>
      <trkpt lat="44.40056" lon="6.46914">
        <ele>1003.5</ele>
        <time>2018-08-10T14:04:11Z</time>
      </trkpt>
      <trkpt lat="44.40054" lon="6.46919">
        <ele>1003.7</ele>
        <time>2018-08-10T14:04:13Z</time>
      </trkpt>
      <trkpt lat="44.40051" lon="6.46922">
        <ele>1003.9</ele>
        <time>2018-08-10T14:04:15Z</time>
      </trkpt>
      <trkpt lat="44.40048" lon="6.46925">
        <ele>1004</ele>
        <time>2018-08-10T14:04:17Z</time>
      </trkpt>
      <trkpt lat="44.40044" lon="6.46927">
        <ele>1004.2</ele>
        <time>2018-08-10T14:04:18Z</time>
      </trkpt>
      <trkpt lat="44.40042" lon="6.4693">
        <ele>1004.3</ele>
        <time>2018-08-10T14:04:19Z</time>
      </trkpt>
      <trkpt lat="44.4004" lon="6.46933">
        <ele>1004.5</ele>
        <time>2018-08-10T14:04:20Z</time>
      </trkpt>
      <trkpt lat="44.40036" lon="6.46936">
        <ele>1004.7</ele>
        <time>2018-08-10T14:04:21Z</time>
      </trkpt>
      <trkpt lat="44.40034" lon="6.46939">
        <ele>1004.8</ele>
        <time>2018-08-10T14:04:22Z</time>
      </trkpt>
      <trkpt lat="44.40032" lon="6.46943">
        <ele>1005</ele>
        <time>2018-08-10T14:04:23Z</time>
      </trkpt>
      <trkpt lat="44.4003" lon="6.46947">
        <ele>1005.2</ele>
        <time>2018-08-10T14:04:24Z</time>
      </trkpt>
      <trkpt lat="44.40026" lon="6.46949">
        <ele>1005.3</ele>
        <time>2018-08-10T14:04:25Z</time>
      </trkpt>
      <trkpt lat="44.40023" lon="6.46951">
        <ele>1005.5</ele>
        <time>2018-08-10T14:04:26Z</time>
      </trkpt>
      <trkpt lat="44.40019" lon="6.46952">
        <ele>1005.7</ele>
        <time>2018-08-10T14:04:27Z</time>
      </trkpt>
      <trkpt lat="44.40013" lon="6.46955">
        <ele>1006</ele>
        <time>2018-08-10T14:04:28Z</time>
      </trkpt>
      <trkpt lat="44.4001" lon="6.46957">
        <ele>1006.2</ele>
        <time>2018-08-10T14:04:29Z</time>
      </trkpt>
      <trkpt lat="44.40006" lon="6.4696">
        <ele>1006.4</ele>
        <time>2018-08-10T14:04:30Z</time>
      </trkpt>
      <trkpt lat="44.40001" lon="6.46962">
        <ele>1006.6</ele>
        <time>2018-08-10T14:04:31Z</time>
      </trkpt>
      <trkpt lat="44.39997" lon="6.46966">
        <ele>1006.8</ele>
        <time>2018-08-10T14:04:32Z</time>
      </trkpt>
      <trkpt lat="44.39994" lon="6.46968">
        <ele>1007</ele>
        <time>2018-08-10T14:04:33Z</time>
      </trkpt>
      <trkpt lat="44.39991" lon="6.46975">
        <ele>1007.3</ele>
        <time>2018-08-10T14:04:35Z</time>
      </trkpt>
      <trkpt lat="44.3999" lon="6.46978">
        <ele>1007.4</ele>
        <time>2018-08-10T14:04:36Z</time>
      </trkpt>
      <trkpt lat="44.39986" lon="6.46982">
        <ele>1007.6</ele>
        <time>2018-08-10T14:04:38Z</time>
      </trkpt>
      <trkpt lat="44.39982" lon="6.46984">
        <ele>1007.8</ele>
        <time>2018-08-10T14:04:40Z</time>
      </trkpt>
      <trkpt lat="44.39979" lon="6.46988">
        <ele>1008</ele>
        <time>2018-08-10T14:04:42Z</time>
      </trkpt>
      <trkpt lat="44.39975" lon="6.46991">
        <ele>1008.2</ele>
        <time>2018-08-10T14:04:44Z</time>
      </trkpt>
      <trkpt lat="44.39971" lon="6.46992">
        <ele>1008.4</ele>
        <time>2018-08-10T14:04:45Z</time>
      </trkpt>
      <trkpt lat="44.39968" lon="6.46994">
        <ele>1008.5</ele>
        <time>2018-08-10T14:04:47Z</time>
      </trkpt>
      <trkpt lat="44.39965" lon="6.46998">
        <ele>1008.7</ele>
        <time>2018-08-10T14:04:49Z</time>
      </trkpt>
      <trkpt lat="44.39962" lon="6.47003">
        <ele>1008.9</ele>
        <time>2018-08-10T14:04:51Z</time>
      </trkpt>
      <trkpt lat="44.39958" lon="6.47006">
        <ele>1009.2</ele>
        <time>2018-08-10T14:04:53Z</time>
      </trkpt>
      <trkpt lat="44.39954" lon="6.47007">
        <ele>1009.3</ele>
        <time>2018-08-10T14:04:54Z</time>
      </trkpt>
      <trkpt lat="44.39952" lon="6.4701">
        <ele>1009.5</ele>
        <time>2018-08-10T14:04:55Z</time>
      </trkpt>
      <trkpt lat="44.3995" lon="6.47014">
        <ele>1009.6</ele>
        <time>2018-08-10T14:04:56Z</time>
      </trkpt>
      <trkpt lat="44.39944" lon="6.47017">
        <ele>1009.9</ele>
        <time>2018-08-10T14:04:57Z</time>
      </trkpt>
      <trkpt lat="44.39939" lon="6.4702">
        <ele>1010.2</ele>
        <time>2018-08-10T14:04:58Z</time>
      </trkpt>
      <trkpt lat="44.39935" lon="6.47024">
        <ele>1010.4</ele>
        <time>2018-08-10T14:05:00Z</time>
      </trkpt>
      <trkpt lat="44.39933" lon="6.47026">
        <ele>1010.5</ele>
        <time>2018-08-10T14:05:01Z</time>
      </trkpt>
      <trkpt lat="44.39931" lon="6.4703">
        <ele>1010.7</ele>
        <time>2018-08-10T14:05:02Z</time>
      </trkpt>
      <trkpt lat="44.39927" lon="6.47033">
        <ele>1010.9</ele>
        <time>2018-08-10T14:05:03Z</time>
      </trkpt>
      <trkpt lat="44.39922" lon="6.47037">
        <ele>1011.2</ele>
        <time>2018-08-10T14:05:04Z</time>
      </trkpt>
      <trkpt lat="44.39918" lon="6.4704">
        <ele>1011.4</ele>
        <time>2018-08-10T14:05:05Z</time>
      </trkpt>
      <trkpt lat="44.39915" lon="6.47046">
        <ele>1011.6</ele>
        <time>2018-08-10T14:05:06Z</time>
      </trkpt>
      <trkpt lat="44.39911" lon="6.47049">
        <ele>1012.1</ele>
        <time>2018-08-10T14:05:07Z</time>
      </trkpt>
      <trkpt lat="44.39907" lon="6.47054">
        <ele>1012.9</ele>
        <time>2018-08-10T14:05:08Z</time>
      </trkpt>
      <trkpt lat="44.39903" lon="6.47059">
        <ele>1013.6</ele>
        <time>2018-08-10T14:05:09Z</time>
      </trkpt>
      <trkpt lat="44.39902" lon="6.47065">
        <ele>1014.4</ele>
        <time>2018-08-10T14:05:10Z</time>
      </trkpt>
      <trkpt lat="44.39896" lon="6.47068">
        <ele>1015.7</ele>
        <time>2018-08-10T14:05:11Z</time>
      </trkpt>
      <trkpt lat="44.39892" lon="6.47073">
        <ele>1016.8</ele>
        <time>2018-08-10T14:05:12Z</time>
      </trkpt>
      <trkpt lat="44.39889" lon="6.47078">
        <ele>1017.3</ele>
        <time>2018-08-10T14:05:13Z</time>
      </trkpt>
      <trkpt lat="44.39886" lon="6.47081">
        <ele>1017.5</ele>
        <time>2018-08-10T14:05:14Z</time>
      </trkpt>
      <trkpt lat="44.39882" lon="6.47083">
        <ele>1017.7</ele>
        <time>2018-08-10T14:05:15Z</time>
      </trkpt>
      <trkpt lat="44.39879" lon="6.47083">
        <ele>1017.9</ele>
        <time>2018-08-10T14:05:16Z</time>
      </trkpt>
      <trkpt lat="44.39875" lon="6.47086">
        <ele>1018.2</ele>
        <time>2018-08-10T14:05:18Z</time>
      </trkpt>
      <trkpt lat="44.39871" lon="6.47089">
        <ele>1018.4</ele>
        <time>2018-08-10T14:05:20Z</time>
      </trkpt>
      <trkpt lat="44.39868" lon="6.47092">
        <ele>1018.6</ele>
        <time>2018-08-10T14:05:23Z</time>
      </trkpt>
      <trkpt lat="44.39866" lon="6.47094">
        <ele>1018.8</ele>
        <time>2018-08-10T14:05:24Z</time>
      </trkpt>
      <trkpt lat="44.39863" lon="6.47099">
        <ele>1019.2</ele>
        <time>2018-08-10T14:05:26Z</time>
      </trkpt>
      <trkpt lat="44.39862" lon="6.47105">
        <ele>1019.9</ele>
        <time>2018-08-10T14:05:29Z</time>
      </trkpt>
      <trkpt lat="44.39861" lon="6.47111">
        <ele>1020.7</ele>
        <time>2018-08-10T14:05:31Z</time>
      </trkpt>
      <trkpt lat="44.39861" lon="6.47115">
        <ele>1021.2</ele>
        <time>2018-08-10T14:05:32Z</time>
      </trkpt>
      <trkpt lat="44.39859" lon="6.4712">
        <ele>1021.9</ele>
        <time>2018-08-10T14:05:34Z</time>
      </trkpt>
      <trkpt lat="44.39857" lon="6.47124">
        <ele>1022.4</ele>
        <time>2018-08-10T14:05:35Z</time>
      </trkpt>
      <trkpt lat="44.39855" lon="6.47129">
        <ele>1022.8</ele>
        <time>2018-08-10T14:05:36Z</time>
      </trkpt>
      <trkpt lat="44.39853" lon="6.47133">
        <ele>1023.1</ele>
        <time>2018-08-10T14:05:37Z</time>
      </trkpt>
      <trkpt lat="44.39852" lon="6.47139">
        <ele>1023.3</ele>
        <time>2018-08-10T14:05:38Z</time>
      </trkpt>
      <trkpt lat="44.39851" lon="6.47144">
        <ele>1023.4</ele>
        <time>2018-08-10T14:05:39Z</time>
      </trkpt>
      <trkpt lat="44.3985" lon="6.47148">
        <ele>1023.5</ele>
        <time>2018-08-10T14:05:40Z</time>
      </trkpt>
      <trkpt lat="44.39849" lon="6.47153">
        <ele>1023.7</ele>
        <time>2018-08-10T14:05:41Z</time>
      </trkpt>
      <trkpt lat="44.39848" lon="6.47158">
        <ele>1023.8</ele>
        <time>2018-08-10T14:05:42Z</time>
      </trkpt>
      <trkpt lat="44.39846" lon="6.47165">
        <ele>1024</ele>
        <time>2018-08-10T14:05:43Z</time>
      </trkpt>
      <trkpt lat="44.39844" lon="6.47171">
        <ele>1024.2</ele>
        <time>2018-08-10T14:05:44Z</time>
      </trkpt>
      <trkpt lat="44.39843" lon="6.47177">
        <ele>1024.3</ele>
        <time>2018-08-10T14:05:45Z</time>
      </trkpt>
      <trkpt lat="44.39841" lon="6.47185">
        <ele>1024.6</ele>
        <time>2018-08-10T14:05:46Z</time>
      </trkpt>
      <trkpt lat="44.39839" lon="6.47191">
        <ele>1024.9</ele>
        <time>2018-08-10T14:05:47Z</time>
      </trkpt>
      <trkpt lat="44.39836" lon="6.47196">
        <ele>1025.1</ele>
        <time>2018-08-10T14:05:48Z</time>
      </trkpt>
      <trkpt lat="44.39831" lon="6.47199">
        <ele>1025.4</ele>
        <time>2018-08-10T14:05:49Z</time>
      </trkpt>
      <trkpt lat="44.39827" lon="6.47204">
        <ele>1025.9</ele>
        <time>2018-08-10T14:05:50Z</time>
      </trkpt>
      <trkpt lat="44.39824" lon="6.47211">
        <ele>1026.9</ele>
        <time>2018-08-10T14:05:51Z</time>
      </trkpt>
      <trkpt lat="44.39821" lon="6.47217">
        <ele>1027.9</ele>
        <time>2018-08-10T14:05:52Z</time>
      </trkpt>
      <trkpt lat="44.39819" lon="6.47224">
        <ele>1025.9</ele>
        <time>2018-08-10T14:05:53Z</time>
      </trkpt>
      <trkpt lat="44.39817" lon="6.47231">
        <ele>1024.6</ele>
        <time>2018-08-10T14:05:54Z</time>
      </trkpt>
      <trkpt lat="44.39816" lon="6.47238">
        <ele>1023.6</ele>
        <time>2018-08-10T14:05:55Z</time>
      </trkpt>
      <trkpt lat="44.39815" lon="6.47243">
        <ele>1022.9</ele>
        <time>2018-08-10T14:05:56Z</time>
      </trkpt>
      <trkpt lat="44.39814" lon="6.47247">
        <ele>1022.5</ele>
        <time>2018-08-10T14:05:57Z</time>
      </trkpt>
      <trkpt lat="44.39812" lon="6.47251">
        <ele>1022.1</ele>
        <time>2018-08-10T14:05:58Z</time>
      </trkpt>
      <trkpt lat="44.39809" lon="6.47253">
        <ele>1021.8</ele>
        <time>2018-08-10T14:06:00Z</time>
      </trkpt>
      <trkpt lat="44.39808" lon="6.47258">
        <ele>1021.4</ele>
        <time>2018-08-10T14:06:04Z</time>
      </trkpt>
      <trkpt lat="44.39808" lon="6.47264">
        <ele>1020.8</ele>
        <time>2018-08-10T14:08:54Z</time>
      </trkpt>
      <trkpt lat="44.39807" lon="6.47271">
        <ele>1020.2</ele>
        <time>2018-08-10T14:08:56Z</time>
      </trkpt>
      <trkpt lat="44.39805" lon="6.47279">
        <ele>1019.6</ele>
        <time>2018-08-10T14:08:58Z</time>
      </trkpt>
      <trkpt lat="44.39805" lon="6.47282">
        <ele>1019.3</ele>
        <time>2018-08-10T14:08:59Z</time>
      </trkpt>
      <trkpt lat="44.39802" lon="6.47287">
        <ele>1018.8</ele>
        <time>2018-08-10T14:09:01Z</time>
      </trkpt>
      <trkpt lat="44.39802" lon="6.47292">
        <ele>1018.5</ele>
        <time>2018-08-10T14:09:02Z</time>
      </trkpt>
      <trkpt lat="44.398" lon="6.47295">
        <ele>1018.2</ele>
        <time>2018-08-10T14:09:03Z</time>
      </trkpt>
      <trkpt lat="44.39799" lon="6.47299">
        <ele>1017.9</ele>
        <time>2018-08-10T14:09:04Z</time>
      </trkpt>
      <trkpt lat="44.39798" lon="6.47302">
        <ele>1017.5</ele>
        <time>2018-08-10T14:09:05Z</time>
      </trkpt>
      <trkpt lat="44.39795" lon="6.47306">
        <ele>1016.6</ele>
        <time>2018-08-10T14:09:06Z</time>
      </trkpt>
      <trkpt lat="44.39793" lon="6.4731">
        <ele>1015.7</ele>
        <time>2018-08-10T14:09:07Z</time>
      </trkpt>
      <trkpt lat="44.39791" lon="6.47313">
        <ele>1014.6</ele>
        <time>2018-08-10T14:09:08Z</time>
      </trkpt>
      <trkpt lat="44.39789" lon="6.47318">
        <ele>1013.2</ele>
        <time>2018-08-10T14:09:09Z</time>
      </trkpt>
      <trkpt lat="44.39787" lon="6.47323">
        <ele>1011.6</ele>
        <time>2018-08-10T14:09:11Z</time>
      </trkpt>
      <trkpt lat="44.39785" lon="6.47329">
        <ele>1010.4</ele>
        <time>2018-08-10T14:09:13Z</time>
      </trkpt>
      <trkpt lat="44.39783" lon="6.47332">
        <ele>1009.9</ele>
        <time>2018-08-10T14:09:14Z</time>
      </trkpt>
      <trkpt lat="44.39781" lon="6.47335">
        <ele>1009.3</ele>
        <time>2018-08-10T14:09:15Z</time>
      </trkpt>
      <trkpt lat="44.39778" lon="6.47338">
        <ele>1008.8</ele>
        <time>2018-08-10T14:09:16Z</time>
      </trkpt>
      <trkpt lat="44.39777" lon="6.47342">
        <ele>1008.5</ele>
        <time>2018-08-10T14:09:17Z</time>
      </trkpt>
      <trkpt lat="44.39777" lon="6.47348">
        <ele>1008.1</ele>
        <time>2018-08-10T14:09:18Z</time>
      </trkpt>
      <trkpt lat="44.39775" lon="6.47351">
        <ele>1007.8</ele>
        <time>2018-08-10T14:09:19Z</time>
      </trkpt>
      <trkpt lat="44.39774" lon="6.47355">
        <ele>1007.5</ele>
        <time>2018-08-10T14:09:20Z</time>
      </trkpt>
      <trkpt lat="44.39772" lon="6.47358">
        <ele>1007.2</ele>
        <time>2018-08-10T14:09:21Z</time>
      </trkpt>
      <trkpt lat="44.3977" lon="6.4736">
        <ele>1006.9</ele>
        <time>2018-08-10T14:09:22Z</time>
      </trkpt>
      <trkpt lat="44.39767" lon="6.47366">
        <ele>1006.4</ele>
        <time>2018-08-10T14:09:24Z</time>
      </trkpt>
      <trkpt lat="44.39764" lon="6.4737">
        <ele>1006</ele>
        <time>2018-08-10T14:09:25Z</time>
      </trkpt>
      <trkpt lat="44.39762" lon="6.47373">
        <ele>1005.7</ele>
        <time>2018-08-10T14:09:26Z</time>
      </trkpt>
      <trkpt lat="44.3976" lon="6.47376">
        <ele>1005.3</ele>
        <time>2018-08-10T14:09:27Z</time>
      </trkpt>
      <trkpt lat="44.39757" lon="6.47379">
        <ele>1005</ele>
        <time>2018-08-10T14:09:28Z</time>
      </trkpt>
      <trkpt lat="44.39755" lon="6.47382">
        <ele>1004.7</ele>
        <time>2018-08-10T14:09:29Z</time>
      </trkpt>
      <trkpt lat="44.39752" lon="6.47389">
        <ele>1004</ele>
        <time>2018-08-10T14:09:31Z</time>
      </trkpt>
      <trkpt lat="44.3975" lon="6.47393">
        <ele>1003.6</ele>
        <time>2018-08-10T14:09:32Z</time>
      </trkpt>
      <trkpt lat="44.39748" lon="6.47396">
        <ele>1003.3</ele>
        <time>2018-08-10T14:09:33Z</time>
      </trkpt>
      <trkpt lat="44.39746" lon="6.47399">
        <ele>1003</ele>
        <time>2018-08-10T14:09:34Z</time>
      </trkpt>
      <trkpt lat="44.39743" lon="6.47403">
        <ele>1002.5</ele>
        <time>2018-08-10T14:09:35Z</time>
      </trkpt>
      <trkpt lat="44.3974" lon="6.47406">
        <ele>1002.1</ele>
        <time>2018-08-10T14:09:36Z</time>
      </trkpt>
      <trkpt lat="44.39738" lon="6.4741">
        <ele>1001.7</ele>
        <time>2018-08-10T14:09:37Z</time>
      </trkpt>
      <trkpt lat="44.39736" lon="6.47415">
        <ele>1001.3</ele>
        <time>2018-08-10T14:09:38Z</time>
      </trkpt>
      <trkpt lat="44.39734" lon="6.47418">
        <ele>1001</ele>
        <time>2018-08-10T14:09:39Z</time>
      </trkpt>
      <trkpt lat="44.39731" lon="6.47421">
        <ele>1000.5</ele>
        <time>2018-08-10T14:09:40Z</time>
      </trkpt>
      <trkpt lat="44.39728" lon="6.47425">
        <ele>1000.1</ele>
        <time>2018-08-10T14:09:41Z</time>
      </trkpt>
      <trkpt lat="44.39726" lon="6.47429">
        <ele>1000.2</ele>
        <time>2018-08-10T14:09:42Z</time>
      </trkpt>
      <trkpt lat="44.39723" lon="6.47434">
        <ele>1000.4</ele>
        <time>2018-08-10T14:09:43Z</time>
      </trkpt>
      <trkpt lat="44.39721" lon="6.47438">
        <ele>1000.5</ele>
        <time>2018-08-10T14:09:44Z</time>
      </trkpt>
      <trkpt lat="44.39718" lon="6.47443">
        <ele>1000.7</ele>
        <time>2018-08-10T14:09:45Z</time>
      </trkpt>
      <trkpt lat="44.39716" lon="6.47447">
        <ele>1000.9</ele>
        <time>2018-08-10T14:09:46Z</time>
      </trkpt>
      <trkpt lat="44.39713" lon="6.47452">
        <ele>1001.1</ele>
        <time>2018-08-10T14:09:47Z</time>
      </trkpt>
      <trkpt lat="44.39711" lon="6.47457">
        <ele>1001.2</ele>
        <time>2018-08-10T14:09:48Z</time>
      </trkpt>
      <trkpt lat="44.39708" lon="6.47461">
        <ele>1001.5</ele>
        <time>2018-08-10T14:09:49Z</time>
      </trkpt>
      <trkpt lat="44.39705" lon="6.47466">
        <ele>1001.9</ele>
        <time>2018-08-10T14:09:50Z</time>
      </trkpt>
      <trkpt lat="44.39703" lon="6.4747">
        <ele>1002.2</ele>
        <time>2018-08-10T14:09:51Z</time>
      </trkpt>
      <trkpt lat="44.39701" lon="6.47474">
        <ele>1002.6</ele>
        <time>2018-08-10T14:09:52Z</time>
      </trkpt>
      <trkpt lat="44.39699" lon="6.47479">
        <ele>1003</ele>
        <time>2018-08-10T14:09:53Z</time>
      </trkpt>
      <trkpt lat="44.39697" lon="6.47483">
        <ele>1003.3</ele>
        <time>2018-08-10T14:09:54Z</time>
      </trkpt>
      <trkpt lat="44.39695" lon="6.47488">
        <ele>1003.7</ele>
        <time>2018-08-10T14:09:55Z</time>
      </trkpt>
      <trkpt lat="44.39693" lon="6.47493">
        <ele>1003.9</ele>
        <time>2018-08-10T14:09:56Z</time>
      </trkpt>
      <trkpt lat="44.3969" lon="6.47498">
        <ele>1004</ele>
        <time>2018-08-10T14:09:57Z</time>
      </trkpt>
      <trkpt lat="44.39688" lon="6.47502">
        <ele>1004.1</ele>
        <time>2018-08-10T14:09:58Z</time>
      </trkpt>
      <trkpt lat="44.39686" lon="6.47507">
        <ele>1004.2</ele>
        <time>2018-08-10T14:09:59Z</time>
      </trkpt>
      <trkpt lat="44.39684" lon="6.47512">
        <ele>1004.3</ele>
        <time>2018-08-10T14:10:00Z</time>
      </trkpt>
      <trkpt lat="44.39683" lon="6.47517">
        <ele>1004.5</ele>
        <time>2018-08-10T14:10:01Z</time>
      </trkpt>
      <trkpt lat="44.39681" lon="6.47523">
        <ele>1004.6</ele>
        <time>2018-08-10T14:10:02Z</time>
      </trkpt>
      <trkpt lat="44.39679" lon="6.47529">
        <ele>1004.7</ele>
        <time>2018-08-10T14:10:03Z</time>
      </trkpt>
      <trkpt lat="44.39677" lon="6.47534">
        <ele>1004.8</ele>
        <time>2018-08-10T14:10:04Z</time>
      </trkpt>
      <trkpt lat="44.39675" lon="6.47538">
        <ele>1004.8</ele>
        <time>2018-08-10T14:10:05Z</time>
      </trkpt>
      <trkpt lat="44.39674" lon="6.47544">
        <ele>1004.9</ele>
        <time>2018-08-10T14:10:06Z</time>
      </trkpt>
      <trkpt lat="44.39672" lon="6.47549">
        <ele>1005</ele>
        <time>2018-08-10T14:10:07Z</time>
      </trkpt>
      <trkpt lat="44.39671" lon="6.47554">
        <ele>1005.1</ele>
        <time>2018-08-10T14:10:08Z</time>
      </trkpt>
      <trkpt lat="44.39669" lon="6.47559">
        <ele>1005.2</ele>
        <time>2018-08-10T14:10:09Z</time>
      </trkpt>
      <trkpt lat="44.39668" lon="6.47564">
        <ele>1005.2</ele>
        <time>2018-08-10T14:10:10Z</time>
      </trkpt>
      <trkpt lat="44.39666" lon="6.47568">
        <ele>1005.3</ele>
        <time>2018-08-10T14:10:11Z</time>
      </trkpt>
      <trkpt lat="44.39665" lon="6.47573">
        <ele>1005.4</ele>
        <time>2018-08-10T14:10:12Z</time>
      </trkpt>
      <trkpt lat="44.39663" lon="6.47578">
        <ele>1005.5</ele>
        <time>2018-08-10T14:10:13Z</time>
      </trkpt>
      <trkpt lat="44.39662" lon="6.47583">
        <ele>1005.7</ele>
        <time>2018-08-10T14:10:14Z</time>
      </trkpt>
      <trkpt lat="44.39661" lon="6.47588">
        <ele>1005.9</ele>
        <time>2018-08-10T14:10:15Z</time>
      </trkpt>
      <trkpt lat="44.39661" lon="6.47592">
        <ele>1006.1</ele>
        <time>2018-08-10T14:10:16Z</time>
      </trkpt>
      <trkpt lat="44.3966" lon="6.47597">
        <ele>1006.5</ele>
        <time>2018-08-10T14:10:17Z</time>
      </trkpt>
      <trkpt lat="44.39659" lon="6.47602">
        <ele>1006.8</ele>
        <time>2018-08-10T14:10:18Z</time>
      </trkpt>
      <trkpt lat="44.39657" lon="6.47606">
        <ele>1007.2</ele>
        <time>2018-08-10T14:10:19Z</time>
      </trkpt>
      <trkpt lat="44.39656" lon="6.47611">
        <ele>1007.6</ele>
        <time>2018-08-10T14:10:20Z</time>
      </trkpt>
      <trkpt lat="44.39656" lon="6.47615">
        <ele>1007.8</ele>
        <time>2018-08-10T14:10:21Z</time>
      </trkpt>
      <trkpt lat="44.39655" lon="6.47619">
        <ele>1008</ele>
        <time>2018-08-10T14:10:22Z</time>
      </trkpt>
      <trkpt lat="44.39654" lon="6.47624">
        <ele>1008.3</ele>
        <time>2018-08-10T14:10:23Z</time>
      </trkpt>
      <trkpt lat="44.39653" lon="6.47629">
        <ele>1008.6</ele>
        <time>2018-08-10T14:10:24Z</time>
      </trkpt>
      <trkpt lat="44.39652" lon="6.47633">
        <ele>1008.7</ele>
        <time>2018-08-10T14:10:25Z</time>
      </trkpt>
      <trkpt lat="44.3965" lon="6.47638">
        <ele>1008.8</ele>
        <time>2018-08-10T14:10:26Z</time>
      </trkpt>
      <trkpt lat="44.39649" lon="6.47643">
        <ele>1009</ele>
        <time>2018-08-10T14:10:27Z</time>
      </trkpt>
      <trkpt lat="44.39648" lon="6.47648">
        <ele>1009.1</ele>
        <time>2018-08-10T14:10:28Z</time>
      </trkpt>
      <trkpt lat="44.39648" lon="6.47652">
        <ele>1009.2</ele>
        <time>2018-08-10T14:10:29Z</time>
      </trkpt>
      <trkpt lat="44.39647" lon="6.47657">
        <ele>1009.3</ele>
        <time>2018-08-10T14:10:30Z</time>
      </trkpt>
      <trkpt lat="44.39647" lon="6.47662">
        <ele>1009.3</ele>
        <time>2018-08-10T14:10:31Z</time>
      </trkpt>
      <trkpt lat="44.39647" lon="6.47666">
        <ele>1009.4</ele>
        <time>2018-08-10T14:10:32Z</time>
      </trkpt>
      <trkpt lat="44.39647" lon="6.47671">
        <ele>1009.5</ele>
        <time>2018-08-10T14:10:33Z</time>
      </trkpt>
      <trkpt lat="44.39646" lon="6.47675">
        <ele>1009.6</ele>
        <time>2018-08-10T14:10:34Z</time>
      </trkpt>
      <trkpt lat="44.39645" lon="6.4768">
        <ele>1009.7</ele>
        <time>2018-08-10T14:10:35Z</time>
      </trkpt>
      <trkpt lat="44.39644" lon="6.47685">
        <ele>1009.8</ele>
        <time>2018-08-10T14:10:36Z</time>
      </trkpt>
      <trkpt lat="44.39643" lon="6.4769">
        <ele>1009.9</ele>
        <time>2018-08-10T14:10:37Z</time>
      </trkpt>
      <trkpt lat="44.39642" lon="6.47695">
        <ele>1010.1</ele>
        <time>2018-08-10T14:10:38Z</time>
      </trkpt>
      <trkpt lat="44.39641" lon="6.47699">
        <ele>1010.2</ele>
        <time>2018-08-10T14:10:39Z</time>
      </trkpt>
      <trkpt lat="44.3964" lon="6.47703">
        <ele>1010.3</ele>
        <time>2018-08-10T14:10:40Z</time>
      </trkpt>
      <trkpt lat="44.39639" lon="6.47708">
        <ele>1010.4</ele>
        <time>2018-08-10T14:10:41Z</time>
      </trkpt>
      <trkpt lat="44.39637" lon="6.47713">
        <ele>1010.5</ele>
        <time>2018-08-10T14:10:42Z</time>
      </trkpt>
      <trkpt lat="44.39636" lon="6.47718">
        <ele>1010.6</ele>
        <time>2018-08-10T14:10:43Z</time>
      </trkpt>
      <trkpt lat="44.39634" lon="6.47723">
        <ele>1010.7</ele>
        <time>2018-08-10T14:10:44Z</time>
      </trkpt>
      <trkpt lat="44.39632" lon="6.47729">
        <ele>1010.8</ele>
        <time>2018-08-10T14:10:45Z</time>
      </trkpt>
      <trkpt lat="44.3963" lon="6.47734">
        <ele>1010.9</ele>
        <time>2018-08-10T14:10:46Z</time>
      </trkpt>
      <trkpt lat="44.39629" lon="6.47739">
        <ele>1011</ele>
        <time>2018-08-10T14:10:47Z</time>
      </trkpt>
      <trkpt lat="44.39627" lon="6.47743">
        <ele>1011.1</ele>
        <time>2018-08-10T14:10:48Z</time>
      </trkpt>
      <trkpt lat="44.39625" lon="6.47748">
        <ele>1011.1</ele>
        <time>2018-08-10T14:10:49Z</time>
      </trkpt>
      <trkpt lat="44.39625" lon="6.47753">
        <ele>1011.2</ele>
        <time>2018-08-10T14:10:50Z</time>
      </trkpt>
      <trkpt lat="44.39624" lon="6.47757">
        <ele>1011.2</ele>
        <time>2018-08-10T14:10:51Z</time>
      </trkpt>
      <trkpt lat="44.39623" lon="6.47761">
        <ele>1011.3</ele>
        <time>2018-08-10T14:10:52Z</time>
      </trkpt>
      <trkpt lat="44.39622" lon="6.47766">
        <ele>1011.3</ele>
        <time>2018-08-10T14:10:53Z</time>
      </trkpt>
      <trkpt lat="44.39621" lon="6.4777">
        <ele>1011.4</ele>
        <time>2018-08-10T14:10:54Z</time>
      </trkpt>
      <trkpt lat="44.39619" lon="6.47774">
        <ele>1011.4</ele>
        <time>2018-08-10T14:10:55Z</time>
      </trkpt>
      <trkpt lat="44.39617" lon="6.47779">
        <ele>1011.5</ele>
        <time>2018-08-10T14:10:56Z</time>
      </trkpt>
      <trkpt lat="44.39615" lon="6.47783">
        <ele>1011.5</ele>
        <time>2018-08-10T14:10:57Z</time>
      </trkpt>
      <trkpt lat="44.39614" lon="6.47788">
        <ele>1011.6</ele>
        <time>2018-08-10T14:10:58Z</time>
      </trkpt>
      <trkpt lat="44.39611" lon="6.47792">
        <ele>1011.7</ele>
        <time>2018-08-10T14:10:59Z</time>
      </trkpt>
      <trkpt lat="44.3961" lon="6.47795">
        <ele>1011.7</ele>
        <time>2018-08-10T14:11:00Z</time>
      </trkpt>
      <trkpt lat="44.39607" lon="6.47799">
        <ele>1011.8</ele>
        <time>2018-08-10T14:11:01Z</time>
      </trkpt>
      <trkpt lat="44.39606" lon="6.47804">
        <ele>1011.9</ele>
        <time>2018-08-10T14:11:02Z</time>
      </trkpt>
      <trkpt lat="44.39604" lon="6.47808">
        <ele>1012</ele>
        <time>2018-08-10T14:11:03Z</time>
      </trkpt>
      <trkpt lat="44.39602" lon="6.47812">
        <ele>1012.1</ele>
        <time>2018-08-10T14:11:04Z</time>
      </trkpt>
      <trkpt lat="44.39599" lon="6.47817">
        <ele>1012.3</ele>
        <time>2018-08-10T14:11:05Z</time>
      </trkpt>
      <trkpt lat="44.39599" lon="6.47823">
        <ele>1012.5</ele>
        <time>2018-08-10T14:11:06Z</time>
      </trkpt>
      <trkpt lat="44.39597" lon="6.47828">
        <ele>1012.7</ele>
        <time>2018-08-10T14:11:07Z</time>
      </trkpt>
      <trkpt lat="44.39594" lon="6.47832">
        <ele>1012.8</ele>
        <time>2018-08-10T14:11:08Z</time>
      </trkpt>
      <trkpt lat="44.39592" lon="6.47835">
        <ele>1013</ele>
        <time>2018-08-10T14:11:09Z</time>
      </trkpt>
      <trkpt lat="44.3959" lon="6.47839">
        <ele>1013.3</ele>
        <time>2018-08-10T14:11:10Z</time>
      </trkpt>
      <trkpt lat="44.39587" lon="6.47844">
        <ele>1013.5</ele>
        <time>2018-08-10T14:11:11Z</time>
      </trkpt>
      <trkpt lat="44.39587" lon="6.4785">
        <ele>1013.7</ele>
        <time>2018-08-10T14:11:12Z</time>
      </trkpt>
      <trkpt lat="44.39584" lon="6.47854">
        <ele>1013.8</ele>
        <time>2018-08-10T14:11:13Z</time>
      </trkpt>
      <trkpt lat="44.39583" lon="6.47859">
        <ele>1014</ele>
        <time>2018-08-10T14:11:14Z</time>
      </trkpt>
      <trkpt lat="44.39581" lon="6.47863">
        <ele>1013.3</ele>
        <time>2018-08-10T14:11:15Z</time>
      </trkpt>
      <trkpt lat="44.39579" lon="6.47867">
        <ele>1012.5</ele>
        <time>2018-08-10T14:11:16Z</time>
      </trkpt>
      <trkpt lat="44.39578" lon="6.47872">
        <ele>1011.6</ele>
        <time>2018-08-10T14:11:17Z</time>
      </trkpt>
      <trkpt lat="44.39577" lon="6.47877">
        <ele>1010.7</ele>
        <time>2018-08-10T14:11:18Z</time>
      </trkpt>
      <trkpt lat="44.39576" lon="6.47882">
        <ele>1009.8</ele>
        <time>2018-08-10T14:11:19Z</time>
      </trkpt>
      <trkpt lat="44.39575" lon="6.47887">
        <ele>1009.1</ele>
        <time>2018-08-10T14:11:20Z</time>
      </trkpt>
      <trkpt lat="44.39573" lon="6.47892">
        <ele>1008.1</ele>
        <time>2018-08-10T14:11:21Z</time>
      </trkpt>
      <trkpt lat="44.39572" lon="6.47897">
        <ele>1007.2</ele>
        <time>2018-08-10T14:11:22Z</time>
      </trkpt>
      <trkpt lat="44.3957" lon="6.47903">
        <ele>1006.3</ele>
        <time>2018-08-10T14:11:23Z</time>
      </trkpt>
      <trkpt lat="44.39568" lon="6.47908">
        <ele>1005.3</ele>
        <time>2018-08-10T14:11:24Z</time>
      </trkpt>
      <trkpt lat="44.39566" lon="6.47913">
        <ele>1004.3</ele>
        <time>2018-08-10T14:11:25Z</time>
      </trkpt>
      <trkpt lat="44.39563" lon="6.47918">
        <ele>1003.3</ele>
        <time>2018-08-10T14:11:26Z</time>
      </trkpt>
      <trkpt lat="44.3956" lon="6.47922">
        <ele>1002.4</ele>
        <time>2018-08-10T14:11:27Z</time>
      </trkpt>
      <trkpt lat="44.39556" lon="6.47925">
        <ele>1001.4</ele>
        <time>2018-08-10T14:11:28Z</time>
      </trkpt>
      <trkpt lat="44.39553" lon="6.47929">
        <ele>1000.5</ele>
        <time>2018-08-10T14:11:29Z</time>
      </trkpt>
      <trkpt lat="44.39549" lon="6.47934">
        <ele>999.3</ele>
        <time>2018-08-10T14:11:30Z</time>
      </trkpt>
      <trkpt lat="44.39546" lon="6.4794">
        <ele>998.1</ele>
        <time>2018-08-10T14:11:31Z</time>
      </trkpt>
      <trkpt lat="44.39543" lon="6.47945">
        <ele>997.1</ele>
        <time>2018-08-10T14:11:32Z</time>
      </trkpt>
      <trkpt lat="44.3954" lon="6.4795">
        <ele>995.9</ele>
        <time>2018-08-10T14:11:33Z</time>
      </trkpt>
      <trkpt lat="44.39537" lon="6.47956">
        <ele>994.6</ele>
        <time>2018-08-10T14:11:34Z</time>
      </trkpt>
      <trkpt lat="44.39535" lon="6.47963">
        <ele>993.2</ele>
        <time>2018-08-10T14:11:35Z</time>
      </trkpt>
      <trkpt lat="44.39532" lon="6.4797">
        <ele>991.8</ele>
        <time>2018-08-10T14:11:36Z</time>
      </trkpt>
      <trkpt lat="44.3953" lon="6.47976">
        <ele>990.4</ele>
        <time>2018-08-10T14:11:37Z</time>
      </trkpt>
      <trkpt lat="44.39526" lon="6.47983">
        <ele>988.9</ele>
        <time>2018-08-10T14:11:38Z</time>
      </trkpt>
      <trkpt lat="44.39524" lon="6.4799">
        <ele>987.4</ele>
        <time>2018-08-10T14:11:39Z</time>
      </trkpt>
      <trkpt lat="44.39521" lon="6.47997">
        <ele>985.9</ele>
        <time>2018-08-10T14:11:40Z</time>
      </trkpt>
      <trkpt lat="44.39519" lon="6.48004">
        <ele>984.1</ele>
        <time>2018-08-10T14:11:41Z</time>
      </trkpt>
      <trkpt lat="44.39517" lon="6.48013">
        <ele>982.2</ele>
        <time>2018-08-10T14:11:42Z</time>
      </trkpt>
      <trkpt lat="44.39515" lon="6.48021">
        <ele>980.3</ele>
        <time>2018-08-10T14:11:43Z</time>
      </trkpt>
      <trkpt lat="44.39513" lon="6.4803">
        <ele>982.8</ele>
        <time>2018-08-10T14:11:44Z</time>
      </trkpt>
      <trkpt lat="44.3951" lon="6.48038">
        <ele>985.3</ele>
        <time>2018-08-10T14:11:45Z</time>
      </trkpt>
      <trkpt lat="44.39506" lon="6.48045">
        <ele>987.8</ele>
        <time>2018-08-10T14:11:46Z</time>
      </trkpt>
      <trkpt lat="44.39504" lon="6.48052">
        <ele>990</ele>
        <time>2018-08-10T14:11:47Z</time>
      </trkpt>
      <trkpt lat="44.39502" lon="6.4806">
        <ele>992.3</ele>
        <time>2018-08-10T14:11:48Z</time>
      </trkpt>
      <trkpt lat="44.395" lon="6.48067">
        <ele>994.3</ele>
        <time>2018-08-10T14:11:49Z</time>
      </trkpt>
      <trkpt lat="44.39499" lon="6.48074">
        <ele>994.3</ele>
        <time>2018-08-10T14:11:50Z</time>
      </trkpt>
      <trkpt lat="44.39499" lon="6.48082">
        <ele>993.2</ele>
        <time>2018-08-10T14:11:51Z</time>
      </trkpt>
      <trkpt lat="44.39498" lon="6.48089">
        <ele>992.1</ele>
        <time>2018-08-10T14:11:52Z</time>
      </trkpt>
      <trkpt lat="44.39496" lon="6.48096">
        <ele>991.1</ele>
        <time>2018-08-10T14:11:53Z</time>
      </trkpt>
      <trkpt lat="44.39495" lon="6.48104">
        <ele>989.9</ele>
        <time>2018-08-10T14:11:54Z</time>
      </trkpt>
      <trkpt lat="44.39496" lon="6.48109">
        <ele>989.2</ele>
        <time>2018-08-10T14:11:55Z</time>
      </trkpt>
      <trkpt lat="44.39494" lon="6.48114">
        <ele>988.3</ele>
        <time>2018-08-10T14:11:56Z</time>
      </trkpt>
      <trkpt lat="44.39494" lon="6.4812">
        <ele>987.4</ele>
        <time>2018-08-10T14:11:57Z</time>
      </trkpt>
      <trkpt lat="44.39493" lon="6.48125">
        <ele>986.6</ele>
        <time>2018-08-10T14:11:58Z</time>
      </trkpt>
      <trkpt lat="44.39492" lon="6.4813">
        <ele>985.8</ele>
        <time>2018-08-10T14:11:59Z</time>
      </trkpt>
      <trkpt lat="44.39493" lon="6.48135">
        <ele>984.8</ele>
        <time>2018-08-10T14:12:00Z</time>
      </trkpt>
      <trkpt lat="44.39493" lon="6.4814">
        <ele>983.9</ele>
        <time>2018-08-10T14:12:01Z</time>
      </trkpt>
      <trkpt lat="44.39492" lon="6.48146">
        <ele>982.8</ele>
        <time>2018-08-10T14:12:02Z</time>
      </trkpt>
      <trkpt lat="44.39491" lon="6.4815">
        <ele>981.9</ele>
        <time>2018-08-10T14:12:03Z</time>
      </trkpt>
      <trkpt lat="44.39491" lon="6.48157">
        <ele>980.6</ele>
        <time>2018-08-10T14:12:04Z</time>
      </trkpt>
      <trkpt lat="44.39491" lon="6.48163">
        <ele>979.3</ele>
        <time>2018-08-10T14:12:05Z</time>
      </trkpt>
      <trkpt lat="44.39493" lon="6.48168">
        <ele>979</ele>
        <time>2018-08-10T14:12:06Z</time>
      </trkpt>
      <trkpt lat="44.39494" lon="6.48175">
        <ele>978.9</ele>
        <time>2018-08-10T14:12:07Z</time>
      </trkpt>
      <trkpt lat="44.39496" lon="6.4818">
        <ele>978.9</ele>
        <time>2018-08-10T14:12:08Z</time>
      </trkpt>
      <trkpt lat="44.39499" lon="6.48186">
        <ele>978.8</ele>
        <time>2018-08-10T14:12:09Z</time>
      </trkpt>
      <trkpt lat="44.39502" lon="6.48191">
        <ele>978.8</ele>
        <time>2018-08-10T14:12:10Z</time>
      </trkpt>
      <trkpt lat="44.39504" lon="6.48196">
        <ele>978.7</ele>
        <time>2018-08-10T14:12:11Z</time>
      </trkpt>
      <trkpt lat="44.39507" lon="6.48202">
        <ele>978.7</ele>
        <time>2018-08-10T14:12:12Z</time>
      </trkpt>
      <trkpt lat="44.3951" lon="6.48207">
        <ele>978.6</ele>
        <time>2018-08-10T14:12:13Z</time>
      </trkpt>
      <trkpt lat="44.39512" lon="6.48211">
        <ele>978.6</ele>
        <time>2018-08-10T14:12:14Z</time>
      </trkpt>
      <trkpt lat="44.39514" lon="6.48216">
        <ele>978.5</ele>
        <time>2018-08-10T14:12:15Z</time>
      </trkpt>
      <trkpt lat="44.39516" lon="6.4822">
        <ele>978.5</ele>
        <time>2018-08-10T14:12:16Z</time>
      </trkpt>
      <trkpt lat="44.39517" lon="6.48224">
        <ele>978.4</ele>
        <time>2018-08-10T14:12:17Z</time>
      </trkpt>
      <trkpt lat="44.39519" lon="6.48229">
        <ele>978.4</ele>
        <time>2018-08-10T14:12:18Z</time>
      </trkpt>
      <trkpt lat="44.39521" lon="6.48234">
        <ele>978.4</ele>
        <time>2018-08-10T14:12:19Z</time>
      </trkpt>
      <trkpt lat="44.39523" lon="6.48239">
        <ele>978.3</ele>
        <time>2018-08-10T14:12:20Z</time>
      </trkpt>
      <trkpt lat="44.39525" lon="6.48245">
        <ele>978.3</ele>
        <time>2018-08-10T14:12:21Z</time>
      </trkpt>
      <trkpt lat="44.39527" lon="6.48251">
        <ele>978.2</ele>
        <time>2018-08-10T14:12:22Z</time>
      </trkpt>
      <trkpt lat="44.39528" lon="6.48257">
        <ele>978.2</ele>
        <time>2018-08-10T14:12:23Z</time>
      </trkpt>
      <trkpt lat="44.3953" lon="6.48263">
        <ele>978.1</ele>
        <time>2018-08-10T14:12:24Z</time>
      </trkpt>
      <trkpt lat="44.39533" lon="6.48269">
        <ele>978</ele>
        <time>2018-08-10T14:12:25Z</time>
      </trkpt>
      <trkpt lat="44.39535" lon="6.48276">
        <ele>978</ele>
        <time>2018-08-10T14:12:26Z</time>
      </trkpt>
      <trkpt lat="44.39538" lon="6.4828">
        <ele>977.9</ele>
        <time>2018-08-10T14:12:27Z</time>
      </trkpt>
      <trkpt lat="44.39541" lon="6.48287">
        <ele>977.9</ele>
        <time>2018-08-10T14:12:28Z</time>
      </trkpt>
      <trkpt lat="44.39543" lon="6.48291">
        <ele>977.8</ele>
        <time>2018-08-10T14:12:29Z</time>
      </trkpt>
      <trkpt lat="44.39546" lon="6.48294">
        <ele>977.8</ele>
        <time>2018-08-10T14:12:30Z</time>
      </trkpt>
      <trkpt lat="44.39546" lon="6.48301">
        <ele>977.8</ele>
        <time>2018-08-10T14:12:31Z</time>
      </trkpt>
      <trkpt lat="44.39548" lon="6.48308">
        <ele>977.7</ele>
        <time>2018-08-10T14:12:32Z</time>
      </trkpt>
      <trkpt lat="44.3955" lon="6.48315">
        <ele>977.7</ele>
        <time>2018-08-10T14:12:33Z</time>
      </trkpt>
      <trkpt lat="44.39551" lon="6.48323">
        <ele>977.6</ele>
        <time>2018-08-10T14:12:34Z</time>
      </trkpt>
      <trkpt lat="44.39552" lon="6.48329">
        <ele>977.6</ele>
        <time>2018-08-10T14:12:35Z</time>
      </trkpt>
      <trkpt lat="44.39554" lon="6.48334">
        <ele>977.5</ele>
        <time>2018-08-10T14:12:36Z</time>
      </trkpt>
      <trkpt lat="44.39556" lon="6.4834">
        <ele>977.5</ele>
        <time>2018-08-10T14:12:37Z</time>
      </trkpt>
      <trkpt lat="44.39558" lon="6.48347">
        <ele>977.4</ele>
        <time>2018-08-10T14:12:38Z</time>
      </trkpt>
      <trkpt lat="44.39558" lon="6.48353">
        <ele>977.4</ele>
        <time>2018-08-10T14:12:39Z</time>
      </trkpt>
      <trkpt lat="44.39559" lon="6.4836">
        <ele>977.3</ele>
        <time>2018-08-10T14:12:40Z</time>
      </trkpt>
      <trkpt lat="44.3956" lon="6.48369">
        <ele>977.3</ele>
        <time>2018-08-10T14:12:41Z</time>
      </trkpt>
      <trkpt lat="44.39559" lon="6.48378">
        <ele>977.2</ele>
        <time>2018-08-10T14:12:43Z</time>
      </trkpt>
      <trkpt lat="44.3956" lon="6.48384">
        <ele>977.2</ele>
        <time>2018-08-10T14:12:44Z</time>
      </trkpt>
      <trkpt lat="44.39559" lon="6.4839">
        <ele>977.1</ele>
        <time>2018-08-10T14:12:45Z</time>
      </trkpt>
      <trkpt lat="44.39556" lon="6.48395">
        <ele>977.1</ele>
        <time>2018-08-10T14:12:46Z</time>
      </trkpt>
      <trkpt lat="44.39555" lon="6.48401">
        <ele>977</ele>
        <time>2018-08-10T14:12:47Z</time>
      </trkpt>
      <trkpt lat="44.39556" lon="6.48409">
        <ele>977</ele>
        <time>2018-08-10T14:12:48Z</time>
      </trkpt>
      <trkpt lat="44.39556" lon="6.48416">
        <ele>976.9</ele>
        <time>2018-08-10T14:12:49Z</time>
      </trkpt>
      <trkpt lat="44.39556" lon="6.48423">
        <ele>976.9</ele>
        <time>2018-08-10T14:12:50Z</time>
      </trkpt>
      <trkpt lat="44.39556" lon="6.48428">
        <ele>976.8</ele>
        <time>2018-08-10T14:12:51Z</time>
      </trkpt>
      <trkpt lat="44.39556" lon="6.48435">
        <ele>976.8</ele>
        <time>2018-08-10T14:12:52Z</time>
      </trkpt>
      <trkpt lat="44.39557" lon="6.48441">
        <ele>976.7</ele>
        <time>2018-08-10T14:12:53Z</time>
      </trkpt>
      <trkpt lat="44.39556" lon="6.48448">
        <ele>976.7</ele>
        <time>2018-08-10T14:12:54Z</time>
      </trkpt>
      <trkpt lat="44.39558" lon="6.48456">
        <ele>976.6</ele>
        <time>2018-08-10T14:12:55Z</time>
      </trkpt>
      <trkpt lat="44.39559" lon="6.48462">
        <ele>976.6</ele>
        <time>2018-08-10T14:12:56Z</time>
      </trkpt>
      <trkpt lat="44.39559" lon="6.48469">
        <ele>976.5</ele>
        <time>2018-08-10T14:12:57Z</time>
      </trkpt>
      <trkpt lat="44.3956" lon="6.48476">
        <ele>976.5</ele>
        <time>2018-08-10T14:12:58Z</time>
      </trkpt>
      <trkpt lat="44.39558" lon="6.48483">
        <ele>976.4</ele>
        <time>2018-08-10T14:12:59Z</time>
      </trkpt>
      <trkpt lat="44.39557" lon="6.48489">
        <ele>976.4</ele>
        <time>2018-08-10T14:13:00Z</time>
      </trkpt>
      <trkpt lat="44.39553" lon="6.48494">
        <ele>976.3</ele>
        <time>2018-08-10T14:13:01Z</time>
      </trkpt>
      <trkpt lat="44.39554" lon="6.48501">
        <ele>976.3</ele>
        <time>2018-08-10T14:13:02Z</time>
      </trkpt>
      <trkpt lat="44.39554" lon="6.48508">
        <ele>976.2</ele>
        <time>2018-08-10T14:13:03Z</time>
      </trkpt>
      <trkpt lat="44.39554" lon="6.48514">
        <ele>976.2</ele>
        <time>2018-08-10T14:13:04Z</time>
      </trkpt>
      <trkpt lat="44.39553" lon="6.4852">
        <ele>976.1</ele>
        <time>2018-08-10T14:13:05Z</time>
      </trkpt>
      <trkpt lat="44.39551" lon="6.48526">
        <ele>976.1</ele>
        <time>2018-08-10T14:13:06Z</time>
      </trkpt>
      <trkpt lat="44.3955" lon="6.48531">
        <ele>976</ele>
        <time>2018-08-10T14:13:07Z</time>
      </trkpt>
      <trkpt lat="44.39551" lon="6.48539">
        <ele>976</ele>
        <time>2018-08-10T14:13:08Z</time>
      </trkpt>
      <trkpt lat="44.39551" lon="6.48545">
        <ele>975.9</ele>
        <time>2018-08-10T14:13:09Z</time>
      </trkpt>
      <trkpt lat="44.39552" lon="6.48551">
        <ele>975.9</ele>
        <time>2018-08-10T14:13:10Z</time>
      </trkpt>
      <trkpt lat="44.39553" lon="6.48558">
        <ele>975.9</ele>
        <time>2018-08-10T14:13:11Z</time>
      </trkpt>
      <trkpt lat="44.39555" lon="6.48563">
        <ele>975.8</ele>
        <time>2018-08-10T14:13:12Z</time>
      </trkpt>
      <trkpt lat="44.39557" lon="6.48569">
        <ele>975.8</ele>
        <time>2018-08-10T14:13:13Z</time>
      </trkpt>
      <trkpt lat="44.39558" lon="6.48574">
        <ele>975.7</ele>
        <time>2018-08-10T14:13:14Z</time>
      </trkpt>
      <trkpt lat="44.39559" lon="6.4858">
        <ele>975.7</ele>
        <time>2018-08-10T14:13:15Z</time>
      </trkpt>
      <trkpt lat="44.39561" lon="6.48584">
        <ele>975.6</ele>
        <time>2018-08-10T14:13:16Z</time>
      </trkpt>
      <trkpt lat="44.39562" lon="6.48589">
        <ele>975.6</ele>
        <time>2018-08-10T14:13:17Z</time>
      </trkpt>
      <trkpt lat="44.39564" lon="6.48594">
        <ele>975.5</ele>
        <time>2018-08-10T14:13:18Z</time>
      </trkpt>
      <trkpt lat="44.39566" lon="6.48599">
        <ele>975.5</ele>
        <time>2018-08-10T14:13:19Z</time>
      </trkpt>
      <trkpt lat="44.39567" lon="6.48604">
        <ele>975.5</ele>
        <time>2018-08-10T14:13:20Z</time>
      </trkpt>
      <trkpt lat="44.39568" lon="6.48608">
        <ele>975.4</ele>
        <time>2018-08-10T14:13:21Z</time>
      </trkpt>
      <trkpt lat="44.39568" lon="6.48613">
        <ele>975.4</ele>
        <time>2018-08-10T14:13:22Z</time>
      </trkpt>
      <trkpt lat="44.39569" lon="6.48617">
        <ele>975.3</ele>
        <time>2018-08-10T14:13:23Z</time>
      </trkpt>
      <trkpt lat="44.39571" lon="6.48622">
        <ele>975.3</ele>
        <time>2018-08-10T14:13:25Z</time>
      </trkpt>
      <trkpt lat="44.39573" lon="6.48625">
        <ele>975.3</ele>
        <time>2018-08-10T14:13:27Z</time>
      </trkpt>
      <trkpt lat="44.39574" lon="6.4863">
        <ele>975.2</ele>
        <time>2018-08-10T14:13:29Z</time>
      </trkpt>
      <trkpt lat="44.39577" lon="6.48634">
        <ele>975.2</ele>
        <time>2018-08-10T14:13:31Z</time>
      </trkpt>
      <trkpt lat="44.39578" lon="6.4864">
        <ele>975.1</ele>
        <time>2018-08-10T14:13:33Z</time>
      </trkpt>
      <trkpt lat="44.3958" lon="6.48645">
        <ele>975</ele>
        <time>2018-08-10T14:13:35Z</time>
      </trkpt>
      <trkpt lat="44.39581" lon="6.48649">
        <ele>975.6</ele>
        <time>2018-08-10T14:13:37Z</time>
      </trkpt>
      <trkpt lat="44.39584" lon="6.48654">
        <ele>976.2</ele>
        <time>2018-08-10T14:13:39Z</time>
      </trkpt>
      <trkpt lat="44.39584" lon="6.48659">
        <ele>976.6</ele>
        <time>2018-08-10T14:13:42Z</time>
      </trkpt>
      <trkpt lat="44.39586" lon="6.48664">
        <ele>977.1</ele>
        <time>2018-08-10T14:13:44Z</time>
      </trkpt>
      <trkpt lat="44.39588" lon="6.48668">
        <ele>977.5</ele>
        <time>2018-08-10T14:13:46Z</time>
      </trkpt>
      <trkpt lat="44.3959" lon="6.48673">
        <ele>977.9</ele>
        <time>2018-08-10T14:13:48Z</time>
      </trkpt>
      <trkpt lat="44.3959" lon="6.48678">
        <ele>978.3</ele>
        <time>2018-08-10T14:13:50Z</time>
      </trkpt>
      <trkpt lat="44.39592" lon="6.48681">
        <ele>978.8</ele>
        <time>2018-08-10T14:13:51Z</time>
      </trkpt>
      <trkpt lat="44.39593" lon="6.48685">
        <ele>979.2</ele>
        <time>2018-08-10T14:13:53Z</time>
      </trkpt>
      <trkpt lat="44.39595" lon="6.48688">
        <ele>979.7</ele>
        <time>2018-08-10T14:13:55Z</time>
      </trkpt>
      <trkpt lat="44.39597" lon="6.48691">
        <ele>980.3</ele>
        <time>2018-08-10T14:13:57Z</time>
      </trkpt>
      <trkpt lat="44.39599" lon="6.48695">
        <ele>981.1</ele>
        <time>2018-08-10T14:13:59Z</time>
      </trkpt>
      <trkpt lat="44.39601" lon="6.48698">
        <ele>982</ele>
        <time>2018-08-10T14:14:01Z</time>
      </trkpt>
      <trkpt lat="44.39603" lon="6.48703">
        <ele>982.9</ele>
        <time>2018-08-10T14:14:03Z</time>
      </trkpt>
      <trkpt lat="44.39603" lon="6.48709">
        <ele>983.9</ele>
        <time>2018-08-10T14:14:06Z</time>
      </trkpt>
      <trkpt lat="44.39603" lon="6.48714">
        <ele>984.4</ele>
        <time>2018-08-10T14:14:07Z</time>
      </trkpt>
      <trkpt lat="44.39602" lon="6.4872">
        <ele>985.4</ele>
        <time>2018-08-10T14:14:09Z</time>
      </trkpt>
      <trkpt lat="44.39601" lon="6.48726">
        <ele>986.1</ele>
        <time>2018-08-10T14:14:11Z</time>
      </trkpt>
      <trkpt lat="44.39599" lon="6.48732">
        <ele>986.7</ele>
        <time>2018-08-10T14:14:13Z</time>
      </trkpt>
      <trkpt lat="44.396" lon="6.48735">
        <ele>987.1</ele>
        <time>2018-08-10T14:14:14Z</time>
      </trkpt>
      <trkpt lat="44.39599" lon="6.48742">
        <ele>987.9</ele>
        <time>2018-08-10T14:14:16Z</time>
      </trkpt>
      <trkpt lat="44.396" lon="6.48746">
        <ele>988.3</ele>
        <time>2018-08-10T14:14:17Z</time>
      </trkpt>
      <trkpt lat="44.39602" lon="6.48749">
        <ele>988.6</ele>
        <time>2018-08-10T14:14:18Z</time>
      </trkpt>
      <trkpt lat="44.39603" lon="6.48755">
        <ele>988.9</ele>
        <time>2018-08-10T14:14:19Z</time>
      </trkpt>
      <trkpt lat="44.39606" lon="6.48759">
        <ele>989.3</ele>
        <time>2018-08-10T14:14:20Z</time>
      </trkpt>
      <trkpt lat="44.39607" lon="6.48763">
        <ele>989.5</ele>
        <time>2018-08-10T14:14:21Z</time>
      </trkpt>
      <trkpt lat="44.39608" lon="6.4877">
        <ele>990.1</ele>
        <time>2018-08-10T14:14:23Z</time>
      </trkpt>
      <trkpt lat="44.39606" lon="6.48778">
        <ele>990.8</ele>
        <time>2018-08-10T14:14:25Z</time>
      </trkpt>
      <trkpt lat="44.39605" lon="6.48783">
        <ele>991.5</ele>
        <time>2018-08-10T14:14:27Z</time>
      </trkpt>
      <trkpt lat="44.39603" lon="6.4879">
        <ele>992.4</ele>
        <time>2018-08-10T14:14:29Z</time>
      </trkpt>
      <trkpt lat="44.39599" lon="6.48795">
        <ele>993.5</ele>
        <time>2018-08-10T14:14:31Z</time>
      </trkpt>
      <trkpt lat="44.39598" lon="6.488">
        <ele>994.2</ele>
        <time>2018-08-10T14:14:33Z</time>
      </trkpt>
      <trkpt lat="44.39596" lon="6.48805">
        <ele>994.8</ele>
        <time>2018-08-10T14:14:35Z</time>
      </trkpt>
      <trkpt lat="44.39594" lon="6.4881">
        <ele>995.3</ele>
        <time>2018-08-10T14:14:37Z</time>
      </trkpt>
      <trkpt lat="44.39593" lon="6.48815">
        <ele>995.7</ele>
        <time>2018-08-10T14:14:39Z</time>
      </trkpt>
      <trkpt lat="44.39593" lon="6.48822">
        <ele>996.2</ele>
        <time>2018-08-10T14:14:41Z</time>
      </trkpt>
      <trkpt lat="44.39593" lon="6.48826">
        <ele>996.4</ele>
        <time>2018-08-10T14:14:42Z</time>
      </trkpt>
      <trkpt lat="44.39592" lon="6.48832">
        <ele>996.8</ele>
        <time>2018-08-10T14:14:44Z</time>
      </trkpt>
      <trkpt lat="44.39591" lon="6.48835">
        <ele>997.1</ele>
        <time>2018-08-10T14:14:45Z</time>
      </trkpt>
      <trkpt lat="44.39593" lon="6.48843">
        <ele>997.5</ele>
        <time>2018-08-10T14:14:47Z</time>
      </trkpt>
      <trkpt lat="44.39594" lon="6.4885">
        <ele>997.7</ele>
        <time>2018-08-10T14:14:49Z</time>
      </trkpt>
      <trkpt lat="44.39597" lon="6.48857">
        <ele>998</ele>
        <time>2018-08-10T14:14:51Z</time>
      </trkpt>
      <trkpt lat="44.39598" lon="6.48861">
        <ele>998.1</ele>
        <time>2018-08-10T14:14:52Z</time>
      </trkpt>
      <trkpt lat="44.39601" lon="6.48866">
        <ele>998.3</ele>
        <time>2018-08-10T14:14:54Z</time>
      </trkpt>
      <trkpt lat="44.39602" lon="6.48873">
        <ele>998.5</ele>
        <time>2018-08-10T14:14:56Z</time>
      </trkpt>
      <trkpt lat="44.39605" lon="6.4888">
        <ele>998.7</ele>
        <time>2018-08-10T14:14:58Z</time>
      </trkpt>
      <trkpt lat="44.39605" lon="6.48884">
        <ele>998.8</ele>
        <time>2018-08-10T14:14:59Z</time>
      </trkpt>
      <trkpt lat="44.39606" lon="6.48888">
        <ele>999</ele>
        <time>2018-08-10T14:15:00Z</time>
      </trkpt>
      <trkpt lat="44.39606" lon="6.48891">
        <ele>999.1</ele>
        <time>2018-08-10T14:15:01Z</time>
      </trkpt>
      <trkpt lat="44.39608" lon="6.48897">
        <ele>999.5</ele>
        <time>2018-08-10T14:15:02Z</time>
      </trkpt>
      <trkpt lat="44.39608" lon="6.48901">
        <ele>999.8</ele>
        <time>2018-08-10T14:15:03Z</time>
      </trkpt>
      <trkpt lat="44.3961" lon="6.48908">
        <ele>1000.4</ele>
        <time>2018-08-10T14:15:05Z</time>
      </trkpt>
      <trkpt lat="44.3961" lon="6.48913">
        <ele>1000.9</ele>
        <time>2018-08-10T14:15:06Z</time>
      </trkpt>
      <trkpt lat="44.39611" lon="6.48916">
        <ele>1001.4</ele>
        <time>2018-08-10T14:15:07Z</time>
      </trkpt>
      <trkpt lat="44.39612" lon="6.48921">
        <ele>1002</ele>
        <time>2018-08-10T14:15:08Z</time>
      </trkpt>
      <trkpt lat="44.39613" lon="6.48926">
        <ele>1002.5</ele>
        <time>2018-08-10T14:15:09Z</time>
      </trkpt>
      <trkpt lat="44.39613" lon="6.48933">
        <ele>1003.4</ele>
        <time>2018-08-10T14:15:11Z</time>
      </trkpt>
      <trkpt lat="44.39614" lon="6.48941">
        <ele>1004.1</ele>
        <time>2018-08-10T14:15:13Z</time>
      </trkpt>
      <trkpt lat="44.39615" lon="6.48945">
        <ele>1004.5</ele>
        <time>2018-08-10T14:15:14Z</time>
      </trkpt>
      <trkpt lat="44.39615" lon="6.48949">
        <ele>1004.8</ele>
        <time>2018-08-10T14:15:15Z</time>
      </trkpt>
      <trkpt lat="44.39618" lon="6.48957">
        <ele>1005.5</ele>
        <time>2018-08-10T14:15:17Z</time>
      </trkpt>
      <trkpt lat="44.39621" lon="6.48963">
        <ele>1005.9</ele>
        <time>2018-08-10T14:15:19Z</time>
      </trkpt>
      <trkpt lat="44.39621" lon="6.48967">
        <ele>1006.2</ele>
        <time>2018-08-10T14:15:20Z</time>
      </trkpt>
      <trkpt lat="44.39623" lon="6.48975">
        <ele>1007</ele>
        <time>2018-08-10T14:15:22Z</time>
      </trkpt>
      <trkpt lat="44.39624" lon="6.48979">
        <ele>1007.7</ele>
        <time>2018-08-10T14:15:23Z</time>
      </trkpt>
      <trkpt lat="44.39626" lon="6.48983">
        <ele>1008.1</ele>
        <time>2018-08-10T14:15:24Z</time>
      </trkpt>
      <trkpt lat="44.39628" lon="6.48988">
        <ele>1008.7</ele>
        <time>2018-08-10T14:15:26Z</time>
      </trkpt>
      <trkpt lat="44.3963" lon="6.48994">
        <ele>1009.6</ele>
        <time>2018-08-10T14:15:28Z</time>
      </trkpt>
      <trkpt lat="44.39631" lon="6.48997">
        <ele>1010.2</ele>
        <time>2018-08-10T14:15:29Z</time>
      </trkpt>
      <trkpt lat="44.39634" lon="6.49005">
        <ele>1011.4</ele>
        <time>2018-08-10T14:15:31Z</time>
      </trkpt>
      <trkpt lat="44.39636" lon="6.49008">
        <ele>1012</ele>
        <time>2018-08-10T14:15:32Z</time>
      </trkpt>
      <trkpt lat="44.39638" lon="6.4901">
        <ele>1012.6</ele>
        <time>2018-08-10T14:15:33Z</time>
      </trkpt>
      <trkpt lat="44.3964" lon="6.49014">
        <ele>1013.2</ele>
        <time>2018-08-10T14:15:34Z</time>
      </trkpt>
      <trkpt lat="44.39642" lon="6.49017">
        <ele>1013.6</ele>
        <time>2018-08-10T14:15:35Z</time>
      </trkpt>
      <trkpt lat="44.39644" lon="6.49019">
        <ele>1014</ele>
        <time>2018-08-10T14:15:36Z</time>
      </trkpt>
      <trkpt lat="44.39647" lon="6.49022">
        <ele>1014.5</ele>
        <time>2018-08-10T14:15:37Z</time>
      </trkpt>
      <trkpt lat="44.39651" lon="6.49029">
        <ele>1015.2</ele>
        <time>2018-08-10T14:15:39Z</time>
      </trkpt>
      <trkpt lat="44.39653" lon="6.49032">
        <ele>1015.6</ele>
        <time>2018-08-10T14:15:40Z</time>
      </trkpt>
      <trkpt lat="44.39657" lon="6.49037">
        <ele>1016.1</ele>
        <time>2018-08-10T14:15:42Z</time>
      </trkpt>
      <trkpt lat="44.39659" lon="6.49042">
        <ele>1016.6</ele>
        <time>2018-08-10T14:15:44Z</time>
      </trkpt>
      <trkpt lat="44.39662" lon="6.49045">
        <ele>1016.9</ele>
        <time>2018-08-10T14:15:45Z</time>
      </trkpt>
      <trkpt lat="44.39664" lon="6.49048">
        <ele>1017.3</ele>
        <time>2018-08-10T14:15:46Z</time>
      </trkpt>
      <trkpt lat="44.39667" lon="6.49051">
        <ele>1017.6</ele>
        <time>2018-08-10T14:15:47Z</time>
      </trkpt>
      <trkpt lat="44.39668" lon="6.49054">
        <ele>1017.9</ele>
        <time>2018-08-10T14:15:48Z</time>
      </trkpt>
      <trkpt lat="44.3967" lon="6.49057">
        <ele>1018.1</ele>
        <time>2018-08-10T14:15:49Z</time>
      </trkpt>
      <trkpt lat="44.39672" lon="6.49061">
        <ele>1018.4</ele>
        <time>2018-08-10T14:15:50Z</time>
      </trkpt>
      <trkpt lat="44.39674" lon="6.49065">
        <ele>1018.8</ele>
        <time>2018-08-10T14:15:51Z</time>
      </trkpt>
      <trkpt lat="44.39676" lon="6.49069">
        <ele>1019.2</ele>
        <time>2018-08-10T14:15:52Z</time>
      </trkpt>
      <trkpt lat="44.39678" lon="6.49077">
        <ele>1019.5</ele>
        <time>2018-08-10T14:15:54Z</time>
      </trkpt>
      <trkpt lat="44.3968" lon="6.49083">
        <ele>1019.7</ele>
        <time>2018-08-10T14:15:56Z</time>
      </trkpt>
      <trkpt lat="44.3968" lon="6.4909">
        <ele>1019.9</ele>
        <time>2018-08-10T14:15:58Z</time>
      </trkpt>
      <trkpt lat="44.3968" lon="6.49097">
        <ele>1020</ele>
        <time>2018-08-10T14:16:00Z</time>
      </trkpt>
      <trkpt lat="44.3968" lon="6.49101">
        <ele>1020.1</ele>
        <time>2018-08-10T14:16:01Z</time>
      </trkpt>
      <trkpt lat="44.39679" lon="6.49105">
        <ele>1020.2</ele>
        <time>2018-08-10T14:16:02Z</time>
      </trkpt>
      <trkpt lat="44.39679" lon="6.49111">
        <ele>1020.4</ele>
        <time>2018-08-10T14:16:04Z</time>
      </trkpt>
      <trkpt lat="44.39678" lon="6.49114">
        <ele>1020.5</ele>
        <time>2018-08-10T14:16:05Z</time>
      </trkpt>
      <trkpt lat="44.39677" lon="6.4912">
        <ele>1020.6</ele>
        <time>2018-08-10T14:16:07Z</time>
      </trkpt>
      <trkpt lat="44.39676" lon="6.49125">
        <ele>1020.8</ele>
        <time>2018-08-10T14:16:08Z</time>
      </trkpt>
      <trkpt lat="44.39674" lon="6.49128">
        <ele>1020.9</ele>
        <time>2018-08-10T14:16:09Z</time>
      </trkpt>
      <trkpt lat="44.39674" lon="6.49135">
        <ele>1021.1</ele>
        <time>2018-08-10T14:16:11Z</time>
      </trkpt>
      <trkpt lat="44.39674" lon="6.49139">
        <ele>1021.2</ele>
        <time>2018-08-10T14:16:12Z</time>
      </trkpt>
      <trkpt lat="44.39674" lon="6.49143">
        <ele>1021.3</ele>
        <time>2018-08-10T14:16:13Z</time>
      </trkpt>
      <trkpt lat="44.39675" lon="6.49148">
        <ele>1021.4</ele>
        <time>2018-08-10T14:16:14Z</time>
      </trkpt>
      <trkpt lat="44.39675" lon="6.49153">
        <ele>1021.6</ele>
        <time>2018-08-10T14:16:15Z</time>
      </trkpt>
      <trkpt lat="44.39676" lon="6.49158">
        <ele>1021.7</ele>
        <time>2018-08-10T14:16:16Z</time>
      </trkpt>
      <trkpt lat="44.39677" lon="6.49165">
        <ele>1021.9</ele>
        <time>2018-08-10T14:16:18Z</time>
      </trkpt>
      <trkpt lat="44.39677" lon="6.49169">
        <ele>1022</ele>
        <time>2018-08-10T14:16:19Z</time>
      </trkpt>
      <trkpt lat="44.3968" lon="6.49174">
        <ele>1022.1</ele>
        <time>2018-08-10T14:16:20Z</time>
      </trkpt>
      <trkpt lat="44.39681" lon="6.49179">
        <ele>1022.3</ele>
        <time>2018-08-10T14:16:21Z</time>
      </trkpt>
      <trkpt lat="44.39681" lon="6.49186">
        <ele>1022.5</ele>
        <time>2018-08-10T14:16:23Z</time>
      </trkpt>
      <trkpt lat="44.39682" lon="6.4919">
        <ele>1022.6</ele>
        <time>2018-08-10T14:16:24Z</time>
      </trkpt>
      <trkpt lat="44.39683" lon="6.49194">
        <ele>1022.7</ele>
        <time>2018-08-10T14:16:25Z</time>
      </trkpt>
      <trkpt lat="44.39688" lon="6.49201">
        <ele>1023</ele>
        <time>2018-08-10T14:16:27Z</time>
      </trkpt>
      <trkpt lat="44.3969" lon="6.49206">
        <ele>1023.1</ele>
        <time>2018-08-10T14:16:28Z</time>
      </trkpt>
      <trkpt lat="44.39691" lon="6.4921">
        <ele>1023.2</ele>
        <time>2018-08-10T14:16:29Z</time>
      </trkpt>
      <trkpt lat="44.39693" lon="6.49215">
        <ele>1023.5</ele>
        <time>2018-08-10T14:16:30Z</time>
      </trkpt>
      <trkpt lat="44.39694" lon="6.49219">
        <ele>1023.6</ele>
        <time>2018-08-10T14:16:31Z</time>
      </trkpt>
      <trkpt lat="44.39695" lon="6.49224">
        <ele>1023.7</ele>
        <time>2018-08-10T14:16:32Z</time>
      </trkpt>
      <trkpt lat="44.39693" lon="6.49228">
        <ele>1023.9</ele>
        <time>2018-08-10T14:16:33Z</time>
      </trkpt>
      <trkpt lat="44.39691" lon="6.49231">
        <ele>1024</ele>
        <time>2018-08-10T14:16:34Z</time>
      </trkpt>
      <trkpt lat="44.39691" lon="6.49236">
        <ele>1024.3</ele>
        <time>2018-08-10T14:16:35Z</time>
      </trkpt>
      <trkpt lat="44.39691" lon="6.49241">
        <ele>1024.5</ele>
        <time>2018-08-10T14:16:36Z</time>
      </trkpt>
      <trkpt lat="44.39691" lon="6.49245">
        <ele>1024.7</ele>
        <time>2018-08-10T14:16:37Z</time>
      </trkpt>
      <trkpt lat="44.3969" lon="6.49251">
        <ele>1024.9</ele>
        <time>2018-08-10T14:16:38Z</time>
      </trkpt>
      <trkpt lat="44.3969" lon="6.49257">
        <ele>1025.3</ele>
        <time>2018-08-10T14:16:39Z</time>
      </trkpt>
      <trkpt lat="44.39689" lon="6.49263">
        <ele>1025.7</ele>
        <time>2018-08-10T14:16:40Z</time>
      </trkpt>
      <trkpt lat="44.39689" lon="6.49267">
        <ele>1026</ele>
        <time>2018-08-10T14:16:41Z</time>
      </trkpt>
      <trkpt lat="44.39689" lon="6.49275">
        <ele>1026.5</ele>
        <time>2018-08-10T14:16:42Z</time>
      </trkpt>
      <trkpt lat="44.39691" lon="6.49282">
        <ele>1027</ele>
        <time>2018-08-10T14:16:43Z</time>
      </trkpt>
      <trkpt lat="44.39692" lon="6.49287">
        <ele>1027</ele>
        <time>2018-08-10T14:16:44Z</time>
      </trkpt>
      <trkpt lat="44.39693" lon="6.49292">
        <ele>1027.1</ele>
        <time>2018-08-10T14:16:45Z</time>
      </trkpt>
      <trkpt lat="44.39695" lon="6.49297">
        <ele>1027.1</ele>
        <time>2018-08-10T14:16:46Z</time>
      </trkpt>
      <trkpt lat="44.39696" lon="6.49302">
        <ele>1027.2</ele>
        <time>2018-08-10T14:16:47Z</time>
      </trkpt>
      <trkpt lat="44.39698" lon="6.49307">
        <ele>1027.2</ele>
        <time>2018-08-10T14:16:48Z</time>
      </trkpt>
      <trkpt lat="44.397" lon="6.4931">
        <ele>1027.3</ele>
        <time>2018-08-10T14:16:49Z</time>
      </trkpt>
      <trkpt lat="44.39702" lon="6.49314">
        <ele>1027.3</ele>
        <time>2018-08-10T14:16:50Z</time>
      </trkpt>
      <trkpt lat="44.39705" lon="6.4932">
        <ele>1027.4</ele>
        <time>2018-08-10T14:16:51Z</time>
      </trkpt>
      <trkpt lat="44.39708" lon="6.49325">
        <ele>1027.5</ele>
        <time>2018-08-10T14:16:52Z</time>
      </trkpt>
      <trkpt lat="44.3971" lon="6.4933">
        <ele>1027.5</ele>
        <time>2018-08-10T14:16:53Z</time>
      </trkpt>
      <trkpt lat="44.3971" lon="6.49336">
        <ele>1027.6</ele>
        <time>2018-08-10T14:16:54Z</time>
      </trkpt>
      <trkpt lat="44.39712" lon="6.49341">
        <ele>1027.6</ele>
        <time>2018-08-10T14:16:55Z</time>
      </trkpt>
      <trkpt lat="44.39713" lon="6.49346">
        <ele>1027.7</ele>
        <time>2018-08-10T14:16:56Z</time>
      </trkpt>
      <trkpt lat="44.39714" lon="6.49353">
        <ele>1027.8</ele>
        <time>2018-08-10T14:16:58Z</time>
      </trkpt>
      <trkpt lat="44.39712" lon="6.49357">
        <ele>1027.8</ele>
        <time>2018-08-10T14:16:59Z</time>
      </trkpt>
      <trkpt lat="44.39713" lon="6.49362">
        <ele>1027.8</ele>
        <time>2018-08-10T14:17:00Z</time>
      </trkpt>
      <trkpt lat="44.39712" lon="6.49365">
        <ele>1027.9</ele>
        <time>2018-08-10T14:17:01Z</time>
      </trkpt>
      <trkpt lat="44.39713" lon="6.4937">
        <ele>1027.9</ele>
        <time>2018-08-10T14:17:02Z</time>
      </trkpt>
      <trkpt lat="44.39716" lon="6.49376">
        <ele>1028</ele>
        <time>2018-08-10T14:17:03Z</time>
      </trkpt>
      <trkpt lat="44.39716" lon="6.4938">
        <ele>1028</ele>
        <time>2018-08-10T14:17:04Z</time>
      </trkpt>
      <trkpt lat="44.39717" lon="6.49385">
        <ele>1028</ele>
        <time>2018-08-10T14:17:05Z</time>
      </trkpt>
      <trkpt lat="44.39719" lon="6.49389">
        <ele>1028.2</ele>
        <time>2018-08-10T14:17:06Z</time>
      </trkpt>
      <trkpt lat="44.3972" lon="6.49394">
        <ele>1028.3</ele>
        <time>2018-08-10T14:17:07Z</time>
      </trkpt>
      <trkpt lat="44.39722" lon="6.49398">
        <ele>1028.4</ele>
        <time>2018-08-10T14:17:08Z</time>
      </trkpt>
      <trkpt lat="44.39722" lon="6.49402">
        <ele>1028.5</ele>
        <time>2018-08-10T14:17:09Z</time>
      </trkpt>
      <trkpt lat="44.39724" lon="6.49407">
        <ele>1028.8</ele>
        <time>2018-08-10T14:17:10Z</time>
      </trkpt>
      <trkpt lat="44.39728" lon="6.49411">
        <ele>1029.2</ele>
        <time>2018-08-10T14:17:11Z</time>
      </trkpt>
      <trkpt lat="44.3973" lon="6.49415">
        <ele>1029.6</ele>
        <time>2018-08-10T14:17:12Z</time>
      </trkpt>
      <trkpt lat="44.39732" lon="6.49419">
        <ele>1030</ele>
        <time>2018-08-10T14:17:13Z</time>
      </trkpt>
      <trkpt lat="44.39735" lon="6.49423">
        <ele>1030.3</ele>
        <time>2018-08-10T14:17:14Z</time>
      </trkpt>
      <trkpt lat="44.39737" lon="6.49425">
        <ele>1030.4</ele>
        <time>2018-08-10T14:17:15Z</time>
      </trkpt>
      <trkpt lat="44.3974" lon="6.49432">
        <ele>1030.9</ele>
        <time>2018-08-10T14:17:17Z</time>
      </trkpt>
      <trkpt lat="44.39744" lon="6.49437">
        <ele>1031.6</ele>
        <time>2018-08-10T14:17:19Z</time>
      </trkpt>
      <trkpt lat="44.39747" lon="6.49441">
        <ele>1032.1</ele>
        <time>2018-08-10T14:17:20Z</time>
      </trkpt>
      <trkpt lat="44.39747" lon="6.49447">
        <ele>1032.5</ele>
        <time>2018-08-10T14:17:22Z</time>
      </trkpt>
      <trkpt lat="44.39749" lon="6.49451">
        <ele>1032.7</ele>
        <time>2018-08-10T14:17:24Z</time>
      </trkpt>
      <trkpt lat="44.3975" lon="6.49455">
        <ele>1032.9</ele>
        <time>2018-08-10T14:17:25Z</time>
      </trkpt>
      <trkpt lat="44.39751" lon="6.49459">
        <ele>1033</ele>
        <time>2018-08-10T14:17:26Z</time>
      </trkpt>
      <trkpt lat="44.39754" lon="6.49465">
        <ele>1033.2</ele>
        <time>2018-08-10T14:17:28Z</time>
      </trkpt>
      <trkpt lat="44.39754" lon="6.49469">
        <ele>1033.4</ele>
        <time>2018-08-10T14:17:29Z</time>
      </trkpt>
      <trkpt lat="44.39759" lon="6.49473">
        <ele>1033.7</ele>
        <time>2018-08-10T14:17:31Z</time>
      </trkpt>
      <trkpt lat="44.39762" lon="6.49475">
        <ele>1034.1</ele>
        <time>2018-08-10T14:17:32Z</time>
      </trkpt>
      <trkpt lat="44.39764" lon="6.49479">
        <ele>1034.5</ele>
        <time>2018-08-10T14:17:33Z</time>
      </trkpt>
      <trkpt lat="44.39766" lon="6.49482">
        <ele>1035.1</ele>
        <time>2018-08-10T14:17:34Z</time>
      </trkpt>
      <trkpt lat="44.39767" lon="6.49487">
        <ele>1035.6</ele>
        <time>2018-08-10T14:17:36Z</time>
      </trkpt>
      <trkpt lat="44.3977" lon="6.49491">
        <ele>1036.2</ele>
        <time>2018-08-10T14:17:38Z</time>
      </trkpt>
      <trkpt lat="44.39772" lon="6.49495">
        <ele>1037.1</ele>
        <time>2018-08-10T14:17:41Z</time>
      </trkpt>
      <trkpt lat="44.39775" lon="6.495">
        <ele>1038</ele>
        <time>2018-08-10T14:17:43Z</time>
      </trkpt>
      <trkpt lat="44.39776" lon="6.49506">
        <ele>1038.9</ele>
        <time>2018-08-10T14:17:45Z</time>
      </trkpt>
      <trkpt lat="44.39777" lon="6.49511">
        <ele>1039.6</ele>
        <time>2018-08-10T14:17:47Z</time>
      </trkpt>
      <trkpt lat="44.39777" lon="6.49515">
        <ele>1040.4</ele>
        <time>2018-08-10T14:17:49Z</time>
      </trkpt>
      <trkpt lat="44.39776" lon="6.4952">
        <ele>1040.9</ele>
        <time>2018-08-10T14:17:51Z</time>
      </trkpt>
      <trkpt lat="44.39776" lon="6.49525">
        <ele>1041.4</ele>
        <time>2018-08-10T14:17:54Z</time>
      </trkpt>
      <trkpt lat="44.39776" lon="6.49529">
        <ele>1042</ele>
        <time>2018-08-10T14:17:57Z</time>
      </trkpt>
      <trkpt lat="44.39773" lon="6.49534">
        <ele>1042.7</ele>
        <time>2018-08-10T14:18:00Z</time>
      </trkpt>
      <trkpt lat="44.39771" lon="6.49538">
        <ele>1043.3</ele>
        <time>2018-08-10T14:18:03Z</time>
      </trkpt>
      <trkpt lat="44.3977" lon="6.49542">
        <ele>1043.5</ele>
        <time>2018-08-10T14:18:05Z</time>
      </trkpt>
      <trkpt lat="44.3977" lon="6.49546">
        <ele>1043.7</ele>
        <time>2018-08-10T14:18:07Z</time>
      </trkpt>
      <trkpt lat="44.39772" lon="6.4955">
        <ele>1043.8</ele>
        <time>2018-08-10T14:18:10Z</time>
      </trkpt>
      <trkpt lat="44.39773" lon="6.49556">
        <ele>1044</ele>
        <time>2018-08-10T14:18:13Z</time>
      </trkpt>
      <trkpt lat="44.39775" lon="6.49559">
        <ele>1044</ele>
        <time>2018-08-10T14:18:15Z</time>
      </trkpt>
      <trkpt lat="44.39777" lon="6.49563">
        <ele>1044.2</ele>
        <time>2018-08-10T14:18:17Z</time>
      </trkpt>
      <trkpt lat="44.3978" lon="6.49567">
        <ele>1044.3</ele>
        <time>2018-08-10T14:18:19Z</time>
      </trkpt>
      <trkpt lat="44.39781" lon="6.49571">
        <ele>1044.5</ele>
        <time>2018-08-10T14:18:21Z</time>
      </trkpt>
      <trkpt lat="44.39783" lon="6.49574">
        <ele>1044.7</ele>
        <time>2018-08-10T14:18:22Z</time>
      </trkpt>
      <trkpt lat="44.39784" lon="6.49578">
        <ele>1045</ele>
        <time>2018-08-10T14:18:23Z</time>
      </trkpt>
      <trkpt lat="44.39786" lon="6.49582">
        <ele>1045.3</ele>
        <time>2018-08-10T14:18:25Z</time>
      </trkpt>
      <trkpt lat="44.39788" lon="6.49587">
        <ele>1045.8</ele>
        <time>2018-08-10T14:18:27Z</time>
      </trkpt>
      <trkpt lat="44.39791" lon="6.49591">
        <ele>1046.2</ele>
        <time>2018-08-10T14:18:29Z</time>
      </trkpt>
      <trkpt lat="44.39793" lon="6.49596">
        <ele>1046.6</ele>
        <time>2018-08-10T14:18:32Z</time>
      </trkpt>
      <trkpt lat="44.39794" lon="6.49603">
        <ele>1046.9</ele>
        <time>2018-08-10T14:18:34Z</time>
      </trkpt>
      <trkpt lat="44.39794" lon="6.49606">
        <ele>1047</ele>
        <time>2018-08-10T14:18:35Z</time>
      </trkpt>
      <trkpt lat="44.39796" lon="6.49611">
        <ele>1047.2</ele>
        <time>2018-08-10T14:18:37Z</time>
      </trkpt>
      <trkpt lat="44.39798" lon="6.49618">
        <ele>1047.4</ele>
        <time>2018-08-10T14:18:39Z</time>
      </trkpt>
      <trkpt lat="44.39798" lon="6.49623">
        <ele>1047.5</ele>
        <time>2018-08-10T14:18:41Z</time>
      </trkpt>
      <trkpt lat="44.39799" lon="6.49629">
        <ele>1047.6</ele>
        <time>2018-08-10T14:18:43Z</time>
      </trkpt>
      <trkpt lat="44.39799" lon="6.49634">
        <ele>1047.7</ele>
        <time>2018-08-10T14:18:45Z</time>
      </trkpt>
      <trkpt lat="44.398" lon="6.49639">
        <ele>1047.7</ele>
        <time>2018-08-10T14:18:47Z</time>
      </trkpt>
      <trkpt lat="44.398" lon="6.49644">
        <ele>1047.7</ele>
        <time>2018-08-10T14:18:49Z</time>
      </trkpt>
      <trkpt lat="44.39799" lon="6.49649">
        <ele>1047.8</ele>
        <time>2018-08-10T14:18:51Z</time>
      </trkpt>
      <trkpt lat="44.39799" lon="6.49652">
        <ele>1047.8</ele>
        <time>2018-08-10T14:18:52Z</time>
      </trkpt>
      <trkpt lat="44.39798" lon="6.49658">
        <ele>1047.8</ele>
        <time>2018-08-10T14:18:54Z</time>
      </trkpt>
      <trkpt lat="44.39798" lon="6.49663">
        <ele>1047.8</ele>
        <time>2018-08-10T14:18:56Z</time>
      </trkpt>
      <trkpt lat="44.39798" lon="6.49667">
        <ele>1047.8</ele>
        <time>2018-08-10T14:18:58Z</time>
      </trkpt>
      <trkpt lat="44.39797" lon="6.49673">
        <ele>1047.9</ele>
        <time>2018-08-10T14:19:00Z</time>
      </trkpt>
      <trkpt lat="44.39797" lon="6.49679">
        <ele>1047.9</ele>
        <time>2018-08-10T14:19:02Z</time>
      </trkpt>
      <trkpt lat="44.39796" lon="6.49684">
        <ele>1047.9</ele>
        <time>2018-08-10T14:19:04Z</time>
      </trkpt>
      <trkpt lat="44.39795" lon="6.4969">
        <ele>1047.9</ele>
        <time>2018-08-10T14:19:06Z</time>
      </trkpt>
      <trkpt lat="44.39793" lon="6.49697">
        <ele>1047.9</ele>
        <time>2018-08-10T14:19:08Z</time>
      </trkpt>
      <trkpt lat="44.39791" lon="6.49701">
        <ele>1047.9</ele>
        <time>2018-08-10T14:19:09Z</time>
      </trkpt>
      <trkpt lat="44.3979" lon="6.49707">
        <ele>1047.8</ele>
        <time>2018-08-10T14:19:11Z</time>
      </trkpt>
      <trkpt lat="44.39789" lon="6.49713">
        <ele>1047.8</ele>
        <time>2018-08-10T14:19:13Z</time>
      </trkpt>
      <trkpt lat="44.39788" lon="6.49717">
        <ele>1047.7</ele>
        <time>2018-08-10T14:19:14Z</time>
      </trkpt>
      <trkpt lat="44.39787" lon="6.49721">
        <ele>1047.6</ele>
        <time>2018-08-10T14:19:15Z</time>
      </trkpt>
      <trkpt lat="44.39785" lon="6.49725">
        <ele>1047.4</ele>
        <time>2018-08-10T14:19:16Z</time>
      </trkpt>
      <trkpt lat="44.39783" lon="6.49729">
        <ele>1047.2</ele>
        <time>2018-08-10T14:19:17Z</time>
      </trkpt>
      <trkpt lat="44.39781" lon="6.49734">
        <ele>1047.1</ele>
        <time>2018-08-10T14:19:18Z</time>
      </trkpt>
      <trkpt lat="44.3978" lon="6.49741">
        <ele>1047</ele>
        <time>2018-08-10T14:19:19Z</time>
      </trkpt>
      <trkpt lat="44.3978" lon="6.49746">
        <ele>1047</ele>
        <time>2018-08-10T14:19:20Z</time>
      </trkpt>
      <trkpt lat="44.39778" lon="6.49753">
        <ele>1047</ele>
        <time>2018-08-10T14:19:21Z</time>
      </trkpt>
      <trkpt lat="44.39777" lon="6.4976">
        <ele>1047.1</ele>
        <time>2018-08-10T14:19:22Z</time>
      </trkpt>
      <trkpt lat="44.39778" lon="6.49767">
        <ele>1047.3</ele>
        <time>2018-08-10T14:19:23Z</time>
      </trkpt>
      <trkpt lat="44.39777" lon="6.49775">
        <ele>1047.4</ele>
        <time>2018-08-10T14:19:24Z</time>
      </trkpt>
      <trkpt lat="44.39776" lon="6.49783">
        <ele>1047.4</ele>
        <time>2018-08-10T14:19:25Z</time>
      </trkpt>
      <trkpt lat="44.39776" lon="6.49791">
        <ele>1047.5</ele>
        <time>2018-08-10T14:19:26Z</time>
      </trkpt>
      <trkpt lat="44.39775" lon="6.49799">
        <ele>1047.6</ele>
        <time>2018-08-10T14:19:27Z</time>
      </trkpt>
      <trkpt lat="44.39772" lon="6.49807">
        <ele>1047.7</ele>
        <time>2018-08-10T14:19:28Z</time>
      </trkpt>
      <trkpt lat="44.39769" lon="6.49813">
        <ele>1047.8</ele>
        <time>2018-08-10T14:19:29Z</time>
      </trkpt>
      <trkpt lat="44.39766" lon="6.49821">
        <ele>1047.9</ele>
        <time>2018-08-10T14:19:30Z</time>
      </trkpt>
      <trkpt lat="44.39763" lon="6.49826">
        <ele>1048</ele>
        <time>2018-08-10T14:19:31Z</time>
      </trkpt>
      <trkpt lat="44.39761" lon="6.49832">
        <ele>1048.2</ele>
        <time>2018-08-10T14:19:32Z</time>
      </trkpt>
      <trkpt lat="44.39759" lon="6.49836">
        <ele>1048.4</ele>
        <time>2018-08-10T14:19:33Z</time>
      </trkpt>
      <trkpt lat="44.39757" lon="6.49841">
        <ele>1048.7</ele>
        <time>2018-08-10T14:19:34Z</time>
      </trkpt>
      <trkpt lat="44.39755" lon="6.49845">
        <ele>1049.1</ele>
        <time>2018-08-10T14:19:35Z</time>
      </trkpt>
      <trkpt lat="44.39754" lon="6.4985">
        <ele>1049.5</ele>
        <time>2018-08-10T14:19:36Z</time>
      </trkpt>
      <trkpt lat="44.39753" lon="6.49854">
        <ele>1049.7</ele>
        <time>2018-08-10T14:19:37Z</time>
      </trkpt>
      <trkpt lat="44.39752" lon="6.49859">
        <ele>1050</ele>
        <time>2018-08-10T14:19:38Z</time>
      </trkpt>
      <trkpt lat="44.39752" lon="6.49863">
        <ele>1050.2</ele>
        <time>2018-08-10T14:19:39Z</time>
      </trkpt>
      <trkpt lat="44.39751" lon="6.49867">
        <ele>1050.3</ele>
        <time>2018-08-10T14:19:40Z</time>
      </trkpt>
      <trkpt lat="44.39751" lon="6.49872">
        <ele>1050.5</ele>
        <time>2018-08-10T14:19:41Z</time>
      </trkpt>
      <trkpt lat="44.3975" lon="6.49876">
        <ele>1050.7</ele>
        <time>2018-08-10T14:19:42Z</time>
      </trkpt>
      <trkpt lat="44.39749" lon="6.4988">
        <ele>1050.9</ele>
        <time>2018-08-10T14:19:43Z</time>
      </trkpt>
      <trkpt lat="44.39749" lon="6.49885">
        <ele>1051.4</ele>
        <time>2018-08-10T14:19:44Z</time>
      </trkpt>
      <trkpt lat="44.39749" lon="6.4989">
        <ele>1051.8</ele>
        <time>2018-08-10T14:19:45Z</time>
      </trkpt>
      <trkpt lat="44.3975" lon="6.49893">
        <ele>1052.2</ele>
        <time>2018-08-10T14:19:46Z</time>
      </trkpt>
      <trkpt lat="44.3975" lon="6.49899">
        <ele>1052.5</ele>
        <time>2018-08-10T14:19:47Z</time>
      </trkpt>
      <trkpt lat="44.39749" lon="6.49906">
        <ele>1052.9</ele>
        <time>2018-08-10T14:19:49Z</time>
      </trkpt>
      <trkpt lat="44.39749" lon="6.4991">
        <ele>1053.2</ele>
        <time>2018-08-10T14:19:50Z</time>
      </trkpt>
      <trkpt lat="44.39748" lon="6.49914">
        <ele>1053.6</ele>
        <time>2018-08-10T14:19:51Z</time>
      </trkpt>
      <trkpt lat="44.39747" lon="6.4992">
        <ele>1054.1</ele>
        <time>2018-08-10T14:19:53Z</time>
      </trkpt>
      <trkpt lat="44.39747" lon="6.49923">
        <ele>1054.5</ele>
        <time>2018-08-10T14:19:54Z</time>
      </trkpt>
      <trkpt lat="44.39745" lon="6.4993">
        <ele>1055.2</ele>
        <time>2018-08-10T14:19:56Z</time>
      </trkpt>
      <trkpt lat="44.39747" lon="6.49933">
        <ele>1055.5</ele>
        <time>2018-08-10T14:19:57Z</time>
      </trkpt>
      <trkpt lat="44.39747" lon="6.49939">
        <ele>1056.1</ele>
        <time>2018-08-10T14:19:59Z</time>
      </trkpt>
      <trkpt lat="44.39748" lon="6.49947">
        <ele>1056.3</ele>
        <time>2018-08-10T14:20:01Z</time>
      </trkpt>
      <trkpt lat="44.3975" lon="6.49954">
        <ele>1056.6</ele>
        <time>2018-08-10T14:20:03Z</time>
      </trkpt>
      <trkpt lat="44.39752" lon="6.49959">
        <ele>1056.8</ele>
        <time>2018-08-10T14:20:05Z</time>
      </trkpt>
      <trkpt lat="44.39753" lon="6.49964">
        <ele>1057</ele>
        <time>2018-08-10T14:20:07Z</time>
      </trkpt>
      <trkpt lat="44.39754" lon="6.49969">
        <ele>1057.2</ele>
        <time>2018-08-10T14:20:09Z</time>
      </trkpt>
      <trkpt lat="44.39755" lon="6.49973">
        <ele>1057.4</ele>
        <time>2018-08-10T14:20:11Z</time>
      </trkpt>
      <trkpt lat="44.39757" lon="6.49978">
        <ele>1057.6</ele>
        <time>2018-08-10T14:20:13Z</time>
      </trkpt>
      <trkpt lat="44.39756" lon="6.49983">
        <ele>1057.9</ele>
        <time>2018-08-10T14:20:15Z</time>
      </trkpt>
      <trkpt lat="44.39757" lon="6.49989">
        <ele>1058.2</ele>
        <time>2018-08-10T14:20:17Z</time>
      </trkpt>
      <trkpt lat="44.39759" lon="6.49994">
        <ele>1058.5</ele>
        <time>2018-08-10T14:20:20Z</time>
      </trkpt>
      <trkpt lat="44.39761" lon="6.49999">
        <ele>1058.8</ele>
        <time>2018-08-10T14:20:22Z</time>
      </trkpt>
      <trkpt lat="44.39762" lon="6.50005">
        <ele>1059.1</ele>
        <time>2018-08-10T14:20:24Z</time>
      </trkpt>
      <trkpt lat="44.39764" lon="6.5001">
        <ele>1059.4</ele>
        <time>2018-08-10T14:20:26Z</time>
      </trkpt>
      <trkpt lat="44.39765" lon="6.50014">
        <ele>1059.7</ele>
        <time>2018-08-10T14:20:27Z</time>
      </trkpt>
      <trkpt lat="44.39768" lon="6.50016">
        <ele>1059.9</ele>
        <time>2018-08-10T14:20:29Z</time>
      </trkpt>
      <trkpt lat="44.3977" lon="6.5002">
        <ele>1060.1</ele>
        <time>2018-08-10T14:20:31Z</time>
      </trkpt>
      <trkpt lat="44.39771" lon="6.50024">
        <ele>1060.3</ele>
        <time>2018-08-10T14:20:33Z</time>
      </trkpt>
      <trkpt lat="44.39772" lon="6.50029">
        <ele>1060.5</ele>
        <time>2018-08-10T14:20:35Z</time>
      </trkpt>
      <trkpt lat="44.39772" lon="6.50033">
        <ele>1060.6</ele>
        <time>2018-08-10T14:20:37Z</time>
      </trkpt>
      <trkpt lat="44.39775" lon="6.50037">
        <ele>1060.7</ele>
        <time>2018-08-10T14:20:40Z</time>
      </trkpt>
      <trkpt lat="44.39775" lon="6.50041">
        <ele>1060.9</ele>
        <time>2018-08-10T14:20:42Z</time>
      </trkpt>
      <trkpt lat="44.39777" lon="6.50046">
        <ele>1061.1</ele>
        <time>2018-08-10T14:20:45Z</time>
      </trkpt>
      <trkpt lat="44.39779" lon="6.50049">
        <ele>1061.3</ele>
        <time>2018-08-10T14:20:48Z</time>
      </trkpt>
      <trkpt lat="44.3978" lon="6.50053">
        <ele>1061.4</ele>
        <time>2018-08-10T14:20:50Z</time>
      </trkpt>
      <trkpt lat="44.39781" lon="6.50058">
        <ele>1061.6</ele>
        <time>2018-08-10T14:20:53Z</time>
      </trkpt>
      <trkpt lat="44.39784" lon="6.50062">
        <ele>1061.7</ele>
        <time>2018-08-10T14:20:56Z</time>
      </trkpt>
      <trkpt lat="44.39786" lon="6.50066">
        <ele>1061.9</ele>
        <time>2018-08-10T14:20:58Z</time>
      </trkpt>
      <trkpt lat="44.39786" lon="6.5007">
        <ele>1062</ele>
        <time>2018-08-10T14:21:01Z</time>
      </trkpt>
      <trkpt lat="44.39787" lon="6.50074">
        <ele>1062.2</ele>
        <time>2018-08-10T14:21:03Z</time>
      </trkpt>
      <trkpt lat="44.39789" lon="6.50078">
        <ele>1062.4</ele>
        <time>2018-08-10T14:21:05Z</time>
      </trkpt>
      <trkpt lat="44.3979" lon="6.50082">
        <ele>1062.5</ele>
        <time>2018-08-10T14:21:06Z</time>
      </trkpt>
      <trkpt lat="44.3979" lon="6.50087">
        <ele>1062.7</ele>
        <time>2018-08-10T14:21:08Z</time>
      </trkpt>
      <trkpt lat="44.39791" lon="6.50091">
        <ele>1062.9</ele>
        <time>2018-08-10T14:21:10Z</time>
      </trkpt>
      <trkpt lat="44.39791" lon="6.50095">
        <ele>1063.1</ele>
        <time>2018-08-10T14:21:12Z</time>
      </trkpt>
      <trkpt lat="44.39792" lon="6.50102">
        <ele>1063.3</ele>
        <time>2018-08-10T14:21:15Z</time>
      </trkpt>
      <trkpt lat="44.39794" lon="6.50107">
        <ele>1063.5</ele>
        <time>2018-08-10T14:21:17Z</time>
      </trkpt>
      <trkpt lat="44.39796" lon="6.5011">
        <ele>1063.6</ele>
        <time>2018-08-10T14:21:18Z</time>
      </trkpt>
      <trkpt lat="44.39798" lon="6.50113">
        <ele>1063.7</ele>
        <time>2018-08-10T14:21:20Z</time>
      </trkpt>
      <trkpt lat="44.39799" lon="6.50117">
        <ele>1063.7</ele>
        <time>2018-08-10T14:21:22Z</time>
      </trkpt>
      <trkpt lat="44.39802" lon="6.5012">
        <ele>1063.8</ele>
        <time>2018-08-10T14:21:24Z</time>
      </trkpt>
      <trkpt lat="44.39803" lon="6.50125">
        <ele>1063.9</ele>
        <time>2018-08-10T14:21:26Z</time>
      </trkpt>
      <trkpt lat="44.39804" lon="6.5013">
        <ele>1064</ele>
        <time>2018-08-10T14:21:28Z</time>
      </trkpt>
      <trkpt lat="44.39806" lon="6.50135">
        <ele>1064.3</ele>
        <time>2018-08-10T14:21:30Z</time>
      </trkpt>
      <trkpt lat="44.39807" lon="6.50139">
        <ele>1064.5</ele>
        <time>2018-08-10T14:21:32Z</time>
      </trkpt>
      <trkpt lat="44.39809" lon="6.50143">
        <ele>1064.7</ele>
        <time>2018-08-10T14:21:34Z</time>
      </trkpt>
      <trkpt lat="44.39809" lon="6.50149">
        <ele>1065.1</ele>
        <time>2018-08-10T14:21:37Z</time>
      </trkpt>
      <trkpt lat="44.3981" lon="6.50154">
        <ele>1065.4</ele>
        <time>2018-08-10T14:21:40Z</time>
      </trkpt>
      <trkpt lat="44.39811" lon="6.50158">
        <ele>1065.6</ele>
        <time>2018-08-10T14:21:43Z</time>
      </trkpt>
      <trkpt lat="44.39812" lon="6.50162">
        <ele>1065.7</ele>
        <time>2018-08-10T14:21:45Z</time>
      </trkpt>
      <trkpt lat="44.39811" lon="6.50167">
        <ele>1065.8</ele>
        <time>2018-08-10T14:21:47Z</time>
      </trkpt>
      <trkpt lat="44.39811" lon="6.50173">
        <ele>1066</ele>
        <time>2018-08-10T14:21:50Z</time>
      </trkpt>
      <trkpt lat="44.39811" lon="6.50178">
        <ele>1066.3</ele>
        <time>2018-08-10T14:21:53Z</time>
      </trkpt>
      <trkpt lat="44.39811" lon="6.50182">
        <ele>1066.5</ele>
        <time>2018-08-10T14:21:56Z</time>
      </trkpt>
      <trkpt lat="44.3981" lon="6.50188">
        <ele>1066.8</ele>
        <time>2018-08-10T14:21:58Z</time>
      </trkpt>
      <trkpt lat="44.39812" lon="6.50191">
        <ele>1066.9</ele>
        <time>2018-08-10T14:21:59Z</time>
      </trkpt>
      <trkpt lat="44.39813" lon="6.50195">
        <ele>1067.1</ele>
        <time>2018-08-10T14:22:01Z</time>
      </trkpt>
      <trkpt lat="44.39813" lon="6.502">
        <ele>1067.4</ele>
        <time>2018-08-10T14:22:03Z</time>
      </trkpt>
      <trkpt lat="44.39813" lon="6.50204">
        <ele>1067.6</ele>
        <time>2018-08-10T14:22:05Z</time>
      </trkpt>
      <trkpt lat="44.39813" lon="6.50208">
        <ele>1067.8</ele>
        <time>2018-08-10T14:22:07Z</time>
      </trkpt>
      <trkpt lat="44.39813" lon="6.50213">
        <ele>1068</ele>
        <time>2018-08-10T14:22:09Z</time>
      </trkpt>
      <trkpt lat="44.39814" lon="6.50218">
        <ele>1068.2</ele>
        <time>2018-08-10T14:22:12Z</time>
      </trkpt>
      <trkpt lat="44.39813" lon="6.50222">
        <ele>1068.3</ele>
        <time>2018-08-10T14:22:14Z</time>
      </trkpt>
      <trkpt lat="44.39813" lon="6.50227">
        <ele>1068.4</ele>
        <time>2018-08-10T14:22:16Z</time>
      </trkpt>
      <trkpt lat="44.39813" lon="6.50231">
        <ele>1068.5</ele>
        <time>2018-08-10T14:22:18Z</time>
      </trkpt>
      <trkpt lat="44.39814" lon="6.50236">
        <ele>1068.6</ele>
        <time>2018-08-10T14:22:21Z</time>
      </trkpt>
      <trkpt lat="44.39814" lon="6.5024">
        <ele>1068.7</ele>
        <time>2018-08-10T14:22:24Z</time>
      </trkpt>
      <trkpt lat="44.39814" lon="6.50245">
        <ele>1068.8</ele>
        <time>2018-08-10T14:22:26Z</time>
      </trkpt>
      <trkpt lat="44.39815" lon="6.5025">
        <ele>1069</ele>
        <time>2018-08-10T14:22:28Z</time>
      </trkpt>
      <trkpt lat="44.39817" lon="6.50255">
        <ele>1069</ele>
        <time>2018-08-10T14:22:30Z</time>
      </trkpt>
      <trkpt lat="44.39818" lon="6.5026">
        <ele>1069.1</ele>
        <time>2018-08-10T14:22:33Z</time>
      </trkpt>
      <trkpt lat="44.39818" lon="6.50266">
        <ele>1069.2</ele>
        <time>2018-08-10T14:22:35Z</time>
      </trkpt>
      <trkpt lat="44.39817" lon="6.50273">
        <ele>1069.2</ele>
        <time>2018-08-10T14:22:38Z</time>
      </trkpt>
      <trkpt lat="44.39818" lon="6.50277">
        <ele>1069.2</ele>
        <time>2018-08-10T14:22:40Z</time>
      </trkpt>
      <trkpt lat="44.39817" lon="6.50281">
        <ele>1069.3</ele>
        <time>2018-08-10T14:22:42Z</time>
      </trkpt>
      <trkpt lat="44.39817" lon="6.50286">
        <ele>1069.3</ele>
        <time>2018-08-10T14:22:44Z</time>
      </trkpt>
      <trkpt lat="44.39817" lon="6.50291">
        <ele>1069.4</ele>
        <time>2018-08-10T14:22:46Z</time>
      </trkpt>
      <trkpt lat="44.39817" lon="6.50296">
        <ele>1069.5</ele>
        <time>2018-08-10T14:22:48Z</time>
      </trkpt>
      <trkpt lat="44.39816" lon="6.503">
        <ele>1069.6</ele>
        <time>2018-08-10T14:22:50Z</time>
      </trkpt>
      <trkpt lat="44.39815" lon="6.50305">
        <ele>1069.7</ele>
        <time>2018-08-10T14:22:52Z</time>
      </trkpt>
      <trkpt lat="44.39815" lon="6.50309">
        <ele>1069.8</ele>
        <time>2018-08-10T14:22:54Z</time>
      </trkpt>
      <trkpt lat="44.39815" lon="6.50316">
        <ele>1069.9</ele>
        <time>2018-08-10T14:22:56Z</time>
      </trkpt>
      <trkpt lat="44.39814" lon="6.5032">
        <ele>1070</ele>
        <time>2018-08-10T14:22:58Z</time>
      </trkpt>
      <trkpt lat="44.39813" lon="6.50324">
        <ele>1070.1</ele>
        <time>2018-08-10T14:23:00Z</time>
      </trkpt>
      <trkpt lat="44.39812" lon="6.5033">
        <ele>1070.1</ele>
        <time>2018-08-10T14:23:02Z</time>
      </trkpt>
      <trkpt lat="44.39812" lon="6.50334">
        <ele>1070.2</ele>
        <time>2018-08-10T14:23:04Z</time>
      </trkpt>
      <trkpt lat="44.3981" lon="6.50339">
        <ele>1070.3</ele>
        <time>2018-08-10T14:23:07Z</time>
      </trkpt>
      <trkpt lat="44.39808" lon="6.50343">
        <ele>1070.5</ele>
        <time>2018-08-10T14:23:09Z</time>
      </trkpt>
      <trkpt lat="44.39807" lon="6.50346">
        <ele>1070.6</ele>
        <time>2018-08-10T14:23:11Z</time>
      </trkpt>
      <trkpt lat="44.39806" lon="6.50352">
        <ele>1070.8</ele>
        <time>2018-08-10T14:23:13Z</time>
      </trkpt>
      <trkpt lat="44.39807" lon="6.50356">
        <ele>1070.9</ele>
        <time>2018-08-10T14:23:15Z</time>
      </trkpt>
      <trkpt lat="44.39808" lon="6.5036">
        <ele>1071</ele>
        <time>2018-08-10T14:23:17Z</time>
      </trkpt>
      <trkpt lat="44.39807" lon="6.50365">
        <ele>1071.1</ele>
        <time>2018-08-10T14:23:19Z</time>
      </trkpt>
      <trkpt lat="44.39807" lon="6.50369">
        <ele>1071.2</ele>
        <time>2018-08-10T14:23:21Z</time>
      </trkpt>
      <trkpt lat="44.39807" lon="6.50374">
        <ele>1071.3</ele>
        <time>2018-08-10T14:23:23Z</time>
      </trkpt>
      <trkpt lat="44.39806" lon="6.50378">
        <ele>1071.4</ele>
        <time>2018-08-10T14:23:25Z</time>
      </trkpt>
      <trkpt lat="44.39805" lon="6.50384">
        <ele>1071.6</ele>
        <time>2018-08-10T14:23:28Z</time>
      </trkpt>
      <trkpt lat="44.39805" lon="6.5039">
        <ele>1071.8</ele>
        <time>2018-08-10T14:23:31Z</time>
      </trkpt>
      <trkpt lat="44.39805" lon="6.50394">
        <ele>1071.9</ele>
        <time>2018-08-10T14:23:33Z</time>
      </trkpt>
      <trkpt lat="44.39805" lon="6.50399">
        <ele>1072</ele>
        <time>2018-08-10T14:23:35Z</time>
      </trkpt>
      <trkpt lat="44.39805" lon="6.50404">
        <ele>1072.2</ele>
        <time>2018-08-10T14:23:37Z</time>
      </trkpt>
      <trkpt lat="44.39804" lon="6.50408">
        <ele>1072.4</ele>
        <time>2018-08-10T14:23:39Z</time>
      </trkpt>
      <trkpt lat="44.39804" lon="6.50413">
        <ele>1072.6</ele>
        <time>2018-08-10T14:23:42Z</time>
      </trkpt>
      <trkpt lat="44.39804" lon="6.50418">
        <ele>1072.7</ele>
        <time>2018-08-10T14:23:44Z</time>
      </trkpt>
      <trkpt lat="44.39802" lon="6.50421">
        <ele>1072.9</ele>
        <time>2018-08-10T14:23:46Z</time>
      </trkpt>
      <trkpt lat="44.39801" lon="6.50427">
        <ele>1073.1</ele>
        <time>2018-08-10T14:23:48Z</time>
      </trkpt>
      <trkpt lat="44.39798" lon="6.5043">
        <ele>1073.3</ele>
        <time>2018-08-10T14:23:51Z</time>
      </trkpt>
      <trkpt lat="44.39798" lon="6.50436">
        <ele>1073.5</ele>
        <time>2018-08-10T14:23:54Z</time>
      </trkpt>
      <trkpt lat="44.39796" lon="6.5044">
        <ele>1073.7</ele>
        <time>2018-08-10T14:23:56Z</time>
      </trkpt>
      <trkpt lat="44.39796" lon="6.50445">
        <ele>1073.9</ele>
        <time>2018-08-10T14:23:58Z</time>
      </trkpt>
      <trkpt lat="44.39796" lon="6.50449">
        <ele>1074</ele>
        <time>2018-08-10T14:24:00Z</time>
      </trkpt>
      <trkpt lat="44.39795" lon="6.50453">
        <ele>1074.1</ele>
        <time>2018-08-10T14:24:02Z</time>
      </trkpt>
      <trkpt lat="44.39792" lon="6.50458">
        <ele>1074.2</ele>
        <time>2018-08-10T14:24:04Z</time>
      </trkpt>
      <trkpt lat="44.39791" lon="6.50462">
        <ele>1074.4</ele>
        <time>2018-08-10T14:24:06Z</time>
      </trkpt>
      <trkpt lat="44.39789" lon="6.50466">
        <ele>1074.5</ele>
        <time>2018-08-10T14:24:08Z</time>
      </trkpt>
      <trkpt lat="44.39789" lon="6.5047">
        <ele>1074.7</ele>
        <time>2018-08-10T14:24:10Z</time>
      </trkpt>
      <trkpt lat="44.39787" lon="6.50475">
        <ele>1074.9</ele>
        <time>2018-08-10T14:24:12Z</time>
      </trkpt>
      <trkpt lat="44.39787" lon="6.50479">
        <ele>1075</ele>
        <time>2018-08-10T14:24:14Z</time>
      </trkpt>
      <trkpt lat="44.39784" lon="6.50483">
        <ele>1075.1</ele>
        <time>2018-08-10T14:24:16Z</time>
      </trkpt>
      <trkpt lat="44.39782" lon="6.50485">
        <ele>1075.2</ele>
        <time>2018-08-10T14:24:18Z</time>
      </trkpt>
      <trkpt lat="44.3978" lon="6.5049">
        <ele>1075.4</ele>
        <time>2018-08-10T14:24:20Z</time>
      </trkpt>
      <trkpt lat="44.39777" lon="6.50493">
        <ele>1075.6</ele>
        <time>2018-08-10T14:24:23Z</time>
      </trkpt>
      <trkpt lat="44.39775" lon="6.50495">
        <ele>1075.7</ele>
        <time>2018-08-10T14:24:25Z</time>
      </trkpt>
      <trkpt lat="44.39772" lon="6.50499">
        <ele>1075.8</ele>
        <time>2018-08-10T14:24:28Z</time>
      </trkpt>
      <trkpt lat="44.39769" lon="6.50503">
        <ele>1075.9</ele>
        <time>2018-08-10T14:24:30Z</time>
      </trkpt>
      <trkpt lat="44.39767" lon="6.50508">
        <ele>1075.9</ele>
        <time>2018-08-10T14:24:33Z</time>
      </trkpt>
      <trkpt lat="44.39765" lon="6.50513">
        <ele>1076</ele>
        <time>2018-08-10T14:24:35Z</time>
      </trkpt>
      <trkpt lat="44.39764" lon="6.50518">
        <ele>1076</ele>
        <time>2018-08-10T14:24:37Z</time>
      </trkpt>
      <trkpt lat="44.39763" lon="6.50523">
        <ele>1076</ele>
        <time>2018-08-10T14:24:39Z</time>
      </trkpt>
      <trkpt lat="44.39762" lon="6.50528">
        <ele>1076.3</ele>
        <time>2018-08-10T14:24:41Z</time>
      </trkpt>
      <trkpt lat="44.39762" lon="6.50533">
        <ele>1076.6</ele>
        <time>2018-08-10T14:24:43Z</time>
      </trkpt>
      <trkpt lat="44.39761" lon="6.50538">
        <ele>1076.8</ele>
        <time>2018-08-10T14:24:45Z</time>
      </trkpt>
      <trkpt lat="44.39761" lon="6.50544">
        <ele>1077.2</ele>
        <time>2018-08-10T14:24:47Z</time>
      </trkpt>
      <trkpt lat="44.39762" lon="6.5055">
        <ele>1077.6</ele>
        <time>2018-08-10T14:24:50Z</time>
      </trkpt>
      <trkpt lat="44.39764" lon="6.50554">
        <ele>1078</ele>
        <time>2018-08-10T14:24:52Z</time>
      </trkpt>
      <trkpt lat="44.39763" lon="6.50559">
        <ele>1078.3</ele>
        <time>2018-08-10T14:24:54Z</time>
      </trkpt>
      <trkpt lat="44.39763" lon="6.50563">
        <ele>1078.5</ele>
        <time>2018-08-10T14:24:56Z</time>
      </trkpt>
      <trkpt lat="44.39764" lon="6.50568">
        <ele>1078.7</ele>
        <time>2018-08-10T14:24:59Z</time>
      </trkpt>
      <trkpt lat="44.39766" lon="6.50574">
        <ele>1079.2</ele>
        <time>2018-08-10T14:25:02Z</time>
      </trkpt>
      <trkpt lat="44.39765" lon="6.50579">
        <ele>1079.6</ele>
        <time>2018-08-10T14:25:05Z</time>
      </trkpt>
      <trkpt lat="44.39765" lon="6.50583">
        <ele>1080</ele>
        <time>2018-08-10T14:25:07Z</time>
      </trkpt>
      <trkpt lat="44.39765" lon="6.50587">
        <ele>1080.2</ele>
        <time>2018-08-10T14:25:16Z</time>
      </trkpt>
      <trkpt lat="44.39765" lon="6.50591">
        <ele>1080.6</ele>
        <time>2018-08-10T14:25:20Z</time>
      </trkpt>
      <trkpt lat="44.39764" lon="6.50596">
        <ele>1080.9</ele>
        <time>2018-08-10T14:25:22Z</time>
      </trkpt>
      <trkpt lat="44.39762" lon="6.50598">
        <ele>1081.2</ele>
        <time>2018-08-10T14:25:30Z</time>
      </trkpt>
      <trkpt lat="44.39764" lon="6.50601">
        <ele>1081.4</ele>
        <time>2018-08-10T14:25:43Z</time>
      </trkpt>
      <trkpt lat="44.39764" lon="6.50605">
        <ele>1081.7</ele>
        <time>2018-08-10T14:25:46Z</time>
      </trkpt>
      <trkpt lat="44.39762" lon="6.50609">
        <ele>1082</ele>
        <time>2018-08-10T14:25:53Z</time>
      </trkpt>
      <trkpt lat="44.39761" lon="6.50613">
        <ele>1082.3</ele>
        <time>2018-08-10T14:25:56Z</time>
      </trkpt>
      <trkpt lat="44.39762" lon="6.50618">
        <ele>1082.6</ele>
        <time>2018-08-10T14:25:59Z</time>
      </trkpt>
      <trkpt lat="44.39763" lon="6.50622">
        <ele>1082.9</ele>
        <time>2018-08-10T14:26:01Z</time>
      </trkpt>
      <trkpt lat="44.39762" lon="6.50625">
        <ele>1083.1</ele>
        <time>2018-08-10T14:26:03Z</time>
      </trkpt>
      <trkpt lat="44.39761" lon="6.50629">
        <ele>1083.3</ele>
        <time>2018-08-10T14:26:05Z</time>
      </trkpt>
      <trkpt lat="44.39762" lon="6.50634">
        <ele>1083.5</ele>
        <time>2018-08-10T14:26:07Z</time>
      </trkpt>
      <trkpt lat="44.39764" lon="6.50638">
        <ele>1083.7</ele>
        <time>2018-08-10T14:26:10Z</time>
      </trkpt>
      <trkpt lat="44.39766" lon="6.50641">
        <ele>1083.8</ele>
        <time>2018-08-10T14:26:13Z</time>
      </trkpt>
      <trkpt lat="44.39769" lon="6.50647">
        <ele>1083.9</ele>
        <time>2018-08-10T14:26:16Z</time>
      </trkpt>
      <trkpt lat="44.3977" lon="6.50651">
        <ele>1083.9</ele>
        <time>2018-08-10T14:26:18Z</time>
      </trkpt>
      <trkpt lat="44.3977" lon="6.50655">
        <ele>1083.9</ele>
        <time>2018-08-10T14:26:21Z</time>
      </trkpt>
      <trkpt lat="44.39772" lon="6.50659">
        <ele>1083.8</ele>
        <time>2018-08-10T14:26:24Z</time>
      </trkpt>
      <trkpt lat="44.39773" lon="6.50664">
        <ele>1083.8</ele>
        <time>2018-08-10T14:26:26Z</time>
      </trkpt>
      <trkpt lat="44.39776" lon="6.50665">
        <ele>1083.7</ele>
        <time>2018-08-10T14:26:28Z</time>
      </trkpt>
      <trkpt lat="44.39779" lon="6.50667">
        <ele>1083.7</ele>
        <time>2018-08-10T14:26:30Z</time>
      </trkpt>
      <trkpt lat="44.39782" lon="6.5067">
        <ele>1083.6</ele>
        <time>2018-08-10T14:26:33Z</time>
      </trkpt>
      <trkpt lat="44.39784" lon="6.50675">
        <ele>1083.5</ele>
        <time>2018-08-10T14:26:35Z</time>
      </trkpt>
      <trkpt lat="44.39788" lon="6.5068">
        <ele>1083.3</ele>
        <time>2018-08-10T14:26:37Z</time>
      </trkpt>
      <trkpt lat="44.39791" lon="6.50682">
        <ele>1083.1</ele>
        <time>2018-08-10T14:26:38Z</time>
      </trkpt>
      <trkpt lat="44.39793" lon="6.50685">
        <ele>1082.9</ele>
        <time>2018-08-10T14:26:39Z</time>
      </trkpt>
      <trkpt lat="44.39795" lon="6.50687">
        <ele>1082.6</ele>
        <time>2018-08-10T14:26:40Z</time>
      </trkpt>
      <trkpt lat="44.39798" lon="6.50689">
        <ele>1082.3</ele>
        <time>2018-08-10T14:26:41Z</time>
      </trkpt>
      <trkpt lat="44.39801" lon="6.5069">
        <ele>1082.1</ele>
        <time>2018-08-10T14:26:42Z</time>
      </trkpt>
      <trkpt lat="44.39804" lon="6.50692">
        <ele>1081.9</ele>
        <time>2018-08-10T14:26:44Z</time>
      </trkpt>
      <trkpt lat="44.39807" lon="6.50695">
        <ele>1081.7</ele>
        <time>2018-08-10T14:26:47Z</time>
      </trkpt>
      <trkpt lat="44.39809" lon="6.50699">
        <ele>1081.6</ele>
        <time>2018-08-10T14:26:49Z</time>
      </trkpt>
      <trkpt lat="44.3981" lon="6.50705">
        <ele>1081.4</ele>
        <time>2018-08-10T14:26:51Z</time>
      </trkpt>
      <trkpt lat="44.39812" lon="6.50709">
        <ele>1081.3</ele>
        <time>2018-08-10T14:26:52Z</time>
      </trkpt>
      <trkpt lat="44.39813" lon="6.50713">
        <ele>1081.2</ele>
        <time>2018-08-10T14:26:53Z</time>
      </trkpt>
      <trkpt lat="44.39814" lon="6.50717">
        <ele>1081.1</ele>
        <time>2018-08-10T14:26:54Z</time>
      </trkpt>
      <trkpt lat="44.39815" lon="6.50721">
        <ele>1081</ele>
        <time>2018-08-10T14:26:55Z</time>
      </trkpt>
      <trkpt lat="44.39816" lon="6.50726">
        <ele>1080.9</ele>
        <time>2018-08-10T14:26:56Z</time>
      </trkpt>
      <trkpt lat="44.39816" lon="6.50732">
        <ele>1080.7</ele>
        <time>2018-08-10T14:26:58Z</time>
      </trkpt>
      <trkpt lat="44.39818" lon="6.50737">
        <ele>1080.6</ele>
        <time>2018-08-10T14:27:01Z</time>
      </trkpt>
      <trkpt lat="44.39816" lon="6.50741">
        <ele>1080.4</ele>
        <time>2018-08-10T14:27:03Z</time>
      </trkpt>
      <trkpt lat="44.39816" lon="6.50746">
        <ele>1079.9</ele>
        <time>2018-08-10T14:27:05Z</time>
      </trkpt>
      <trkpt lat="44.39818" lon="6.50752">
        <ele>1079.2</ele>
        <time>2018-08-10T14:27:07Z</time>
      </trkpt>
      <trkpt lat="44.39821" lon="6.50757">
        <ele>1078.7</ele>
        <time>2018-08-10T14:27:09Z</time>
      </trkpt>
      <trkpt lat="44.39823" lon="6.50762">
        <ele>1078.4</ele>
        <time>2018-08-10T14:27:11Z</time>
      </trkpt>
      <trkpt lat="44.39822" lon="6.50767">
        <ele>1078.1</ele>
        <time>2018-08-10T14:27:13Z</time>
      </trkpt>
      <trkpt lat="44.39822" lon="6.50773">
        <ele>1077.8</ele>
        <time>2018-08-10T14:27:15Z</time>
      </trkpt>
      <trkpt lat="44.39823" lon="6.50777">
        <ele>1077.4</ele>
        <time>2018-08-10T14:27:20Z</time>
      </trkpt>
    </trkseg>
  </trk>
</gpx>